<?xml version='1.0' encoding='UTF-8'?><gpx version="1.1" creator="JPX - https://github.com/jenetics/jpx" xmlns="http://www.topografix.com/GPX/1/1"><trk><trkseg><trkpt lat="45.477224504672655" lon="9.218080860949206"><ele>126.0</ele><time>2026-03-28T07:50:17.999Z</time></trkpt><trkpt lat="45.47717671405609" lon="9.218145144177633"><ele>126.0</ele><time>2026-03-28T07:50:39Z</time></trkpt><trkpt lat="45.47703465441443" lon="9.218282097002241"><ele>126.0</ele><time>2026-03-28T07:50:42Z</time></trkpt><trkpt lat="45.476906936538995" lon="9.218370935086623"><ele>126.0</ele><time>2026-03-28T07:50:44Z</time></trkpt><trkpt lat="45.4770967573375" lon="9.218212070032124"><ele>126.0</ele><time>2026-03-28T07:50:45Z</time></trkpt><trkpt lat="45.47724133116856" lon="9.218146305820122"><ele>126.0</ele><time>2026-03-28T07:51:53.999Z</time></trkpt><trkpt lat="45.47721904130826" lon="9.218233595462593"><ele>126.0</ele><time>2026-03-28T07:54:15.999Z</time></trkpt><trkpt lat="45.47726641291935" lon="9.218357489767113"><ele>126.0</ele><time>2026-03-28T07:54:32.999Z</time></trkpt><trkpt lat="45.47734625401891" lon="9.218505013740026"><ele>126.0</ele><time>2026-03-28T07:54:34.999Z</time></trkpt><trkpt lat="45.47741232832501" lon="9.218636840884269"><ele>126.19999999999999</ele><time>2026-03-28T07:54:36.999Z</time></trkpt><trkpt lat="45.47751917411284" lon="9.21864702169671"><ele>126.39999999999999</ele><time>2026-03-28T07:54:38Z</time></trkpt><trkpt lat="45.477557616283995" lon="9.218719885648587"><ele>126.6</ele><time>2026-03-28T07:54:39Z</time></trkpt><trkpt lat="45.47762474464623" lon="9.218847121899676"><ele>126.8</ele><time>2026-03-28T07:54:41Z</time></trkpt><trkpt lat="45.477687437851394" lon="9.218965951676148"><ele>127.0</ele><time>2026-03-28T07:54:43Z</time></trkpt><trkpt lat="45.47774850464423" lon="9.219081698722908"><ele>126.83333333333334</ele><time>2026-03-28T07:54:45Z</time></trkpt><trkpt lat="45.477795289609595" lon="9.21917037575161"><ele>126.66666666666667</ele><time>2026-03-28T07:54:47Z</time></trkpt><trkpt lat="45.477840399269176" lon="9.219251286217464"><ele>126.5</ele><time>2026-03-28T07:54:49Z</time></trkpt><trkpt lat="45.47789236860957" lon="9.219344596584994"><ele>126.33333333333334</ele><time>2026-03-28T07:54:51Z</time></trkpt><trkpt lat="45.477938842241784" lon="9.219427334538421"><ele>126.16666666666667</ele><time>2026-03-28T07:54:53Z</time></trkpt><trkpt lat="45.477958333199446" lon="9.21961750104284"><ele>126.0</ele><time>2026-03-28T07:54:55Z</time></trkpt><trkpt lat="45.47798381325907" lon="9.219780939872958"><ele>125.8</ele><time>2026-03-28T07:54:57Z</time></trkpt><trkpt lat="45.478055857165685" lon="9.219901191776549"><ele>125.6</ele><time>2026-03-28T07:54:59Z</time></trkpt><trkpt lat="45.478174215726135" lon="9.219939244945811"><ele>125.4</ele><time>2026-03-28T07:55:01Z</time></trkpt><trkpt lat="45.47821642446502" lon="9.220041024822462"><ele>125.2</ele><time>2026-03-28T07:55:02Z</time></trkpt><trkpt lat="45.478291909928444" lon="9.220182350686487"><ele>125.0</ele><time>2026-03-28T07:55:04Z</time></trkpt><trkpt lat="45.478329214149845" lon="9.220289864290024"><ele>125.0</ele><time>2026-03-28T07:55:05Z</time></trkpt><trkpt lat="45.4783719997666" lon="9.22036814983329"><ele>125.0</ele><time>2026-03-28T07:55:06Z</time></trkpt><trkpt lat="45.478420994304194" lon="9.220458354610528"><ele>125.0</ele><time>2026-03-28T07:55:07Z</time></trkpt><trkpt lat="45.47846226341312" lon="9.220546102402418"><ele>125.0</ele><time>2026-03-28T07:55:08Z</time></trkpt><trkpt lat="45.478512167874605" lon="9.220625362632935"><ele>125.0</ele><time>2026-03-28T07:55:09Z</time></trkpt><trkpt lat="45.47855633628287" lon="9.220705083595716"><ele>125.0</ele><time>2026-03-28T07:55:10Z</time></trkpt><trkpt lat="45.47860284597343" lon="9.220774418776879"><ele>125.0</ele><time>2026-03-28T07:55:11Z</time></trkpt><trkpt lat="45.478645853061415" lon="9.220852673627212"><ele>125.0</ele><time>2026-03-28T07:55:12Z</time></trkpt><trkpt lat="45.4787125755276" lon="9.221011014437893"><ele>125.0</ele><time>2026-03-28T07:55:14Z</time></trkpt><trkpt lat="45.47876699622242" lon="9.221069266564395"><ele>125.0</ele><time>2026-03-28T07:55:15Z</time></trkpt><trkpt lat="45.478760872769946" lon="9.221173362844068"><ele>125.0</ele><time>2026-03-28T07:55:16Z</time></trkpt><trkpt lat="45.47874268971851" lon="9.221276236075019"><ele>125.0</ele><time>2026-03-28T07:55:17Z</time></trkpt><trkpt lat="45.47873296760479" lon="9.221437848734347"><ele>125.16666666666666</ele><time>2026-03-28T07:55:19Z</time></trkpt><trkpt lat="45.478763135575406" lon="9.221520344784148"><ele>125.33333333333333</ele><time>2026-03-28T07:55:20Z</time></trkpt><trkpt lat="45.47883971997161" lon="9.221656832278189"><ele>125.5</ele><time>2026-03-28T07:55:22Z</time></trkpt><trkpt lat="45.47890198908841" lon="9.221695597158734"><ele>125.66666666666666</ele><time>2026-03-28T07:55:23Z</time></trkpt><trkpt lat="45.47897426970138" lon="9.221700326968095"><ele>125.83333333333333</ele><time>2026-03-28T07:55:25Z</time></trkpt><trkpt lat="45.4790627721129" lon="9.22170378668497"><ele>126.0</ele><time>2026-03-28T07:55:27Z</time></trkpt><trkpt lat="45.47915065028058" lon="9.221762635640056"><ele>126.0</ele><time>2026-03-28T07:55:29Z</time></trkpt><trkpt lat="45.47920704969017" lon="9.221874261127338"><ele>126.0</ele><time>2026-03-28T07:55:31Z</time></trkpt><trkpt lat="45.47929691996402" lon="9.221994181897674"><ele>126.0</ele><time>2026-03-28T07:55:33Z</time></trkpt><trkpt lat="45.47937730323306" lon="9.22212522332852"><ele>126.0</ele><time>2026-03-28T07:55:35Z</time></trkpt><trkpt lat="45.479451231953355" lon="9.222254258849437"><ele>126.19999999999999</ele><time>2026-03-28T07:55:36.999Z</time></trkpt><trkpt lat="45.47952307859144" lon="9.222393085624466"><ele>126.39999999999999</ele><time>2026-03-28T07:55:38.999Z</time></trkpt><trkpt lat="45.47956971746534" lon="9.222470099356281"><ele>126.6</ele><time>2026-03-28T07:55:39.999Z</time></trkpt><trkpt lat="45.47961252441784" lon="9.222541212098125"><ele>126.8</ele><time>2026-03-28T07:55:40.999Z</time></trkpt><trkpt lat="45.47969478209621" lon="9.222656636045631"><ele>127.0</ele><time>2026-03-28T07:55:42.999Z</time></trkpt><trkpt lat="45.47975418041652" lon="9.222753149897752"><ele>127.0</ele><time>2026-03-28T07:55:44.999Z</time></trkpt><trkpt lat="45.47981567148085" lon="9.22285325482293"><ele>126.99999999999999</ele><time>2026-03-28T07:55:46.999Z</time></trkpt><trkpt lat="45.47987327376325" lon="9.222957022308483"><ele>126.99999999999999</ele><time>2026-03-28T07:55:48.999Z</time></trkpt><trkpt lat="45.47993281409816" lon="9.22306466827137"><ele>127.0</ele><time>2026-03-28T07:55:50.999Z</time></trkpt><trkpt lat="45.479897980387435" lon="9.223231932200294"><ele>127.0</ele><time>2026-03-28T07:55:52.999Z</time></trkpt><trkpt lat="45.479864155388896" lon="9.223337972220284"><ele>127.0</ele><time>2026-03-28T07:55:53.999Z</time></trkpt><trkpt lat="45.479823266596775" lon="9.223490907042796"><ele>126.99999999999999</ele><time>2026-03-28T07:55:54.999Z</time></trkpt><trkpt lat="45.47980790057483" lon="9.223639697674818"><ele>126.99999999999999</ele><time>2026-03-28T07:55:55.999Z</time></trkpt><trkpt lat="45.4798116932603" lon="9.223779590556022"><ele>127.0</ele><time>2026-03-28T07:55:56.999Z</time></trkpt><trkpt lat="45.47982983563967" lon="9.223886669169222"><ele>127.0</ele><time>2026-03-28T07:55:57.999Z</time></trkpt><trkpt lat="45.479855314307294" lon="9.22399289099135"><ele>126.8</ele><time>2026-03-28T07:55:58.999Z</time></trkpt><trkpt lat="45.47990674901305" lon="9.224131600025464"><ele>126.6</ele><time>2026-03-28T07:56:00.999Z</time></trkpt><trkpt lat="45.47997282386584" lon="9.224219290295572"><ele>126.39999999999999</ele><time>2026-03-28T07:56:02.999Z</time></trkpt><trkpt lat="45.479918710340584" lon="9.224439263344172"><ele>126.19999999999999</ele><time>2026-03-28T07:56:04.999Z</time></trkpt><trkpt lat="45.47986928628286" lon="9.22451967830513"><ele>126.0</ele><time>2026-03-28T07:56:05.999Z</time></trkpt><trkpt lat="45.479821730264284" lon="9.224588334580066"><ele>126.0</ele><time>2026-03-28T07:56:10.999Z</time></trkpt><trkpt lat="45.47974955896003" lon="9.2247102311344"><ele>126.0</ele><time>2026-03-28T07:56:21.999Z</time></trkpt><trkpt lat="45.479698556793075" lon="9.224811377264402"><ele>126.0</ele><time>2026-03-28T07:56:23.999Z</time></trkpt><trkpt lat="45.47964430514426" lon="9.22492939781027"><ele>126.0</ele><time>2026-03-28T07:56:25.999Z</time></trkpt><trkpt lat="45.47958777082092" lon="9.225063755694164"><ele>126.0</ele><time>2026-03-28T07:56:27.999Z</time></trkpt><trkpt lat="45.47953242132022" lon="9.225191308079753"><ele>126.0</ele><time>2026-03-28T07:56:29.999Z</time></trkpt><trkpt lat="45.479487417229706" lon="9.225307796272176"><ele>126.0</ele><time>2026-03-28T07:56:31.999Z</time></trkpt><trkpt lat="45.479442382772014" lon="9.225397365579289"><ele>126.0</ele><time>2026-03-28T07:56:33.999Z</time></trkpt><trkpt lat="45.47940326946669" lon="9.22546784580051"><ele>126.0</ele><time>2026-03-28T07:56:35.999Z</time></trkpt><trkpt lat="45.4793719083747" lon="9.225550055503156"><ele>126.0</ele><time>2026-03-28T07:56:38.999Z</time></trkpt><trkpt lat="45.47937692850221" lon="9.225750474390361"><ele>126.0</ele><time>2026-03-28T07:57:23Z</time></trkpt><trkpt lat="45.479355113389346" lon="9.225842624093788"><ele>125.83333333333333</ele><time>2026-03-28T07:57:24Z</time></trkpt><trkpt lat="45.4793299429144" lon="9.225948531834607"><ele>125.66666666666666</ele><time>2026-03-28T07:57:25Z</time></trkpt><trkpt lat="45.47930683452075" lon="9.226069753019045"><ele>125.5</ele><time>2026-03-28T07:57:26Z</time></trkpt><trkpt lat="45.47929416428754" lon="9.226202230640913"><ele>125.33333333333333</ele><time>2026-03-28T07:57:27Z</time></trkpt><trkpt lat="45.47929293039775" lon="9.226330517583564"><ele>125.16666666666666</ele><time>2026-03-28T07:57:28Z</time></trkpt><trkpt lat="45.47929171171621" lon="9.226447258820606"><ele>125.0</ele><time>2026-03-28T07:57:29Z</time></trkpt><trkpt lat="45.47928275554268" lon="9.226550275729288"><ele>124.49999999999999</ele><time>2026-03-28T07:57:30Z</time></trkpt><trkpt lat="45.47927637278542" lon="9.226648766604145"><ele>124.0</ele><time>2026-03-28T07:57:31Z</time></trkpt><trkpt lat="45.479271894490566" lon="9.226751890542953"><ele>123.5</ele><time>2026-03-28T07:57:32Z</time></trkpt><trkpt lat="45.479245622596785" lon="9.226859533692956"><ele>123.0</ele><time>2026-03-28T07:57:33Z</time></trkpt><trkpt lat="45.47924562259707" lon="9.226971789540913"><ele>122.49999999999999</ele><time>2026-03-28T07:57:34Z</time></trkpt><trkpt lat="45.47924589845104" lon="9.227094191026493"><ele>122.0</ele><time>2026-03-28T07:57:35Z</time></trkpt><trkpt lat="45.47924649283597" lon="9.227219230804211"><ele>122.16666666666666</ele><time>2026-03-28T07:57:36Z</time></trkpt><trkpt lat="45.47925715113795" lon="9.227333101981603"><ele>122.33333333333333</ele><time>2026-03-28T07:57:37Z</time></trkpt><trkpt lat="45.4792601593518" lon="9.2274408751411"><ele>122.5</ele><time>2026-03-28T07:57:37.999Z</time></trkpt><trkpt lat="45.47925906027834" lon="9.227537398512652"><ele>122.66666666666666</ele><time>2026-03-28T07:57:38.999Z</time></trkpt><trkpt lat="45.47925699500194" lon="9.227627242079393"><ele>122.83333333333333</ele><time>2026-03-28T07:57:39.999Z</time></trkpt><trkpt lat="45.47926024444389" lon="9.227782439681631"><ele>123.0</ele><time>2026-03-28T07:57:41.999Z</time></trkpt><trkpt lat="45.47925829975111" lon="9.227903539098905"><ele>123.0</ele><time>2026-03-28T07:57:43.999Z</time></trkpt><trkpt lat="45.47925165856246" lon="9.228009299377895"><ele>123.0</ele><time>2026-03-28T07:57:46.999Z</time></trkpt><trkpt lat="45.47924396083276" lon="9.228155649682169"><ele>123.0</ele><time>2026-03-28T07:57:59.999Z</time></trkpt><trkpt lat="45.47924205936673" lon="9.228274671043764"><ele>123.0</ele><time>2026-03-28T07:58:01.999Z</time></trkpt><trkpt lat="45.47923883092944" lon="9.228373825286434"><ele>123.0</ele><time>2026-03-28T07:58:03.999Z</time></trkpt><trkpt lat="45.47923917707891" lon="9.228506132603684"><ele>123.0</ele><time>2026-03-28T07:58:06.999Z</time></trkpt><trkpt lat="45.479234952916755" lon="9.228597065590632"><ele>123.0</ele><time>2026-03-28T07:58:09.999Z</time></trkpt><trkpt lat="45.47925236639487" lon="9.228683785219"><ele>123.0</ele><time>2026-03-28T07:58:33.999Z</time></trkpt><trkpt lat="45.4792316926864" lon="9.228788809963335"><ele>123.0</ele><time>2026-03-28T07:59:01Z</time></trkpt><trkpt lat="45.47924935607198" lon="9.228906934348966"><ele>123.0</ele><time>2026-03-28T07:59:03Z</time></trkpt><trkpt lat="45.47923775376679" lon="9.228996626792954"><ele>123.0</ele><time>2026-03-28T07:59:05Z</time></trkpt><trkpt lat="45.47923695442358" lon="9.229116798744034"><ele>123.0</ele><time>2026-03-28T07:59:08Z</time></trkpt><trkpt lat="45.47923899523262" lon="9.229227191832678"><ele>123.14285714285717</ele><time>2026-03-28T07:59:11Z</time></trkpt><trkpt lat="45.47924009163221" lon="9.229317478637036"><ele>123.28571428571429</ele><time>2026-03-28T07:59:13Z</time></trkpt><trkpt lat="45.47924239963247" lon="9.229435691356043"><ele>123.42857142857144</ele><time>2026-03-28T07:59:16Z</time></trkpt><trkpt lat="45.47924487748189" lon="9.229537107557535"><ele>123.57142857142858</ele><time>2026-03-28T07:59:20Z</time></trkpt><trkpt lat="45.47924460586436" lon="9.229634625970089"><ele>123.71428571428572</ele><time>2026-03-28T07:59:24Z</time></trkpt><trkpt lat="45.47924036725214" lon="9.22973230509861"><ele>123.85714285714286</ele><time>2026-03-28T07:59:59.999Z</time></trkpt><trkpt lat="45.47923044862266" lon="9.229835622984922"><ele>124.0</ele><time>2026-03-28T08:00:03.999Z</time></trkpt><trkpt lat="45.47923623169944" lon="9.229926273313534"><ele>123.66666666666667</ele><time>2026-03-28T08:00:06.999Z</time></trkpt><trkpt lat="45.47923311215038" lon="9.230033451329614"><ele>123.33333333333334</ele><time>2026-03-28T08:00:11.999Z</time></trkpt><trkpt lat="45.47926376188888" lon="9.23013944312487"><ele>123.0</ele><time>2026-03-28T08:00:19.999Z</time></trkpt><trkpt lat="45.479258763642896" lon="9.230239072860524"><ele>122.66666666666666</ele><time>2026-03-28T08:00:21.999Z</time></trkpt><trkpt lat="45.47927188537984" lon="9.230409649523535"><ele>122.33333333333333</ele><time>2026-03-28T08:00:23.999Z</time></trkpt><trkpt lat="45.47927396453863" lon="9.230522668288359"><ele>122.0</ele><time>2026-03-28T08:00:24.999Z</time></trkpt><trkpt lat="45.479263538216365" lon="9.230632521029962"><ele>121.66666666666666</ele><time>2026-03-28T08:00:25.999Z</time></trkpt><trkpt lat="45.47925652985153" lon="9.230742532735842"><ele>121.33333333333333</ele><time>2026-03-28T08:00:26.999Z</time></trkpt><trkpt lat="45.479256839845156" lon="9.230869233425745"><ele>121.0</ele><time>2026-03-28T08:00:27.999Z</time></trkpt><trkpt lat="45.47925741842659" lon="9.230993702847046"><ele>120.66666666666666</ele><time>2026-03-28T08:00:28.999Z</time></trkpt><trkpt lat="45.47925816023307" lon="9.231120034029459"><ele>120.33333333333333</ele><time>2026-03-28T08:00:29.999Z</time></trkpt><trkpt lat="45.47925940779422" lon="9.2312456346839"><ele>120.0</ele><time>2026-03-28T08:00:30.999Z</time></trkpt><trkpt lat="45.47925908740816" lon="9.231367966279135"><ele>119.83333333333333</ele><time>2026-03-28T08:00:31.999Z</time></trkpt><trkpt lat="45.479262016381945" lon="9.231482578721778"><ele>119.66666666666666</ele><time>2026-03-28T08:00:32.999Z</time></trkpt><trkpt lat="45.47927066254223" lon="9.231590818729481"><ele>119.5</ele><time>2026-03-28T08:00:33.999Z</time></trkpt><trkpt lat="45.47929402086925" lon="9.23170058428477"><ele>119.33333333333333</ele><time>2026-03-28T08:00:34.999Z</time></trkpt><trkpt lat="45.47932650716259" lon="9.231808081430282"><ele>119.16666666666666</ele><time>2026-03-28T08:00:35.999Z</time></trkpt><trkpt lat="45.47936947143063" lon="9.231915473767497"><ele>119.0</ele><time>2026-03-28T08:00:36.999Z</time></trkpt><trkpt lat="45.4794141109436" lon="9.232027348043385"><ele>119.0</ele><time>2026-03-28T08:00:37.999Z</time></trkpt><trkpt lat="45.479461718609606" lon="9.232141490130084"><ele>119.0</ele><time>2026-03-28T08:00:38.999Z</time></trkpt><trkpt lat="45.47950788023555" lon="9.232262094696027"><ele>119.0</ele><time>2026-03-28T08:00:39.999Z</time></trkpt><trkpt lat="45.4795570040043" lon="9.232388678911288"><ele>119.0</ele><time>2026-03-28T08:00:40.999Z</time></trkpt><trkpt lat="45.47960216774676" lon="9.232509474892943"><ele>119.0</ele><time>2026-03-28T08:00:41.999Z</time></trkpt><trkpt lat="45.47965260370087" lon="9.232625396548883"><ele>119.4</ele><time>2026-03-28T08:00:42.999Z</time></trkpt><trkpt lat="45.47970091449165" lon="9.232750643052439"><ele>119.80000000000001</ele><time>2026-03-28T08:00:43.999Z</time></trkpt><trkpt lat="45.479750689926526" lon="9.232882625612705"><ele>120.19999999999999</ele><time>2026-03-28T08:00:44.999Z</time></trkpt><trkpt lat="45.47979998796197" lon="9.233009203343727"><ele>120.6</ele><time>2026-03-28T08:00:45.999Z</time></trkpt><trkpt lat="45.479849087452116" lon="9.233140692983312"><ele>121.0</ele><time>2026-03-28T08:00:46.999Z</time></trkpt><trkpt lat="45.47990046556359" lon="9.233265051518112"><ele>121.00000000000001</ele><time>2026-03-28T08:00:47.999Z</time></trkpt><trkpt lat="45.47994672518631" lon="9.233388668235962"><ele>121.0</ele><time>2026-03-28T08:00:48.999Z</time></trkpt><trkpt lat="45.47999473884599" lon="9.233497078809354"><ele>121.0</ele><time>2026-03-28T08:00:49.999Z</time></trkpt><trkpt lat="45.48003014675235" lon="9.233608178285042"><ele>121.0</ele><time>2026-03-28T08:00:50.999Z</time></trkpt><trkpt lat="45.48006273258159" lon="9.23369356325289"><ele>121.00000000000001</ele><time>2026-03-28T08:00:51.999Z</time></trkpt><trkpt lat="45.480094106396685" lon="9.233776038381976"><ele>121.0</ele><time>2026-03-28T08:00:52.999Z</time></trkpt><trkpt lat="45.480146775347144" lon="9.233885144553712"><ele>121.16666666666667</ele><time>2026-03-28T08:00:54.999Z</time></trkpt><trkpt lat="45.480181193141696" lon="9.233973984457382"><ele>121.33333333333334</ele><time>2026-03-28T08:00:57Z</time></trkpt><trkpt lat="45.48022294999817" lon="9.234096452612242"><ele>121.5</ele><time>2026-03-28T08:01:00Z</time></trkpt><trkpt lat="45.480277160473214" lon="9.234243053111358"><ele>121.66666666666666</ele><time>2026-03-28T08:01:02Z</time></trkpt><trkpt lat="45.48031783914654" lon="9.234330341384911"><ele>121.83333333333333</ele><time>2026-03-28T08:01:03Z</time></trkpt><trkpt lat="45.48036436386658" lon="9.234428969366379"><ele>122.0</ele><time>2026-03-28T08:01:04Z</time></trkpt><trkpt lat="45.48040952716592" lon="9.23453269492564"><ele>122.49999999999999</ele><time>2026-03-28T08:01:05Z</time></trkpt><trkpt lat="45.480450498214196" lon="9.23463088609328"><ele>123.0</ele><time>2026-03-28T08:01:06Z</time></trkpt><trkpt lat="45.48049312467487" lon="9.234730282369393"><ele>123.5</ele><time>2026-03-28T08:01:07Z</time></trkpt><trkpt lat="45.48053540410441" lon="9.23483478310581"><ele>124.0</ele><time>2026-03-28T08:01:08Z</time></trkpt><trkpt lat="45.4805783152387" lon="9.234937285923026"><ele>124.49999999999999</ele><time>2026-03-28T08:01:09Z</time></trkpt><trkpt lat="45.480619391235656" lon="9.235037508801508"><ele>125.0</ele><time>2026-03-28T08:01:10Z</time></trkpt><trkpt lat="45.48065431437023" lon="9.235127877841325"><ele>125.0</ele><time>2026-03-28T08:01:11Z</time></trkpt><trkpt lat="45.48070832451719" lon="9.23526668892373"><ele>125.0</ele><time>2026-03-28T08:01:13Z</time></trkpt><trkpt lat="45.48076124731241" lon="9.2353657950348"><ele>125.0</ele><time>2026-03-28T08:01:15Z</time></trkpt><trkpt lat="45.480808975463724" lon="9.235499881643516"><ele>125.0</ele><time>2026-03-28T08:01:17Z</time></trkpt><trkpt lat="45.48085588909868" lon="9.235646108557567"><ele>125.0</ele><time>2026-03-28T08:01:19Z</time></trkpt><trkpt lat="45.48090654806599" lon="9.235751007421662"><ele>125.16666666666666</ele><time>2026-03-28T08:01:21Z</time></trkpt><trkpt lat="45.480935206168475" lon="9.235857824286759"><ele>125.33333333333333</ele><time>2026-03-28T08:01:23Z</time></trkpt><trkpt lat="45.480984213665494" lon="9.23597437388059"><ele>125.5</ele><time>2026-03-28T08:01:25Z</time></trkpt><trkpt lat="45.481022063205344" lon="9.236063518299208"><ele>125.66666666666666</ele><time>2026-03-28T08:01:26Z</time></trkpt><trkpt lat="45.481054998078946" lon="9.236141405450066"><ele>125.83333333333333</ele><time>2026-03-28T08:01:27Z</time></trkpt><trkpt lat="45.48110784078542" lon="9.236248685285085"><ele>126.0</ele><time>2026-03-28T08:01:29Z</time></trkpt><trkpt lat="45.481140989380165" lon="9.236331709441085"><ele>126.0</ele><time>2026-03-28T08:01:31Z</time></trkpt><trkpt lat="45.481182352383264" lon="9.236447768805922"><ele>126.0</ele><time>2026-03-28T08:01:35Z</time></trkpt><trkpt lat="45.48124628161839" lon="9.236596756859859"><ele>126.0</ele><time>2026-03-28T08:01:37Z</time></trkpt><trkpt lat="45.48128374999751" lon="9.236685705712953"><ele>126.0</ele><time>2026-03-28T08:01:38Z</time></trkpt><trkpt lat="45.48133528308237" lon="9.236781235670144"><ele>126.0</ele><time>2026-03-28T08:01:39Z</time></trkpt><trkpt lat="45.48138292596217" lon="9.236899005859144"><ele>125.0</ele><time>2026-03-28T08:01:40Z</time></trkpt><trkpt lat="45.48143414856872" lon="9.237026085809436"><ele>124.0</ele><time>2026-03-28T08:01:41Z</time></trkpt><trkpt lat="45.48148064660771" lon="9.237151562586915"><ele>123.0</ele><time>2026-03-28T08:01:42Z</time></trkpt><trkpt lat="45.481521084288595" lon="9.237275139976484"><ele>122.0</ele><time>2026-03-28T08:01:43Z</time></trkpt><trkpt lat="45.48156131404591" lon="9.237392312021983"><ele>121.0</ele><time>2026-03-28T08:01:44Z</time></trkpt><trkpt lat="45.48160332828786" lon="9.237501805479063"><ele>121.0</ele><time>2026-03-28T08:01:45Z</time></trkpt><trkpt lat="45.4816510526268" lon="9.237619033037282"><ele>121.0</ele><time>2026-03-28T08:01:46Z</time></trkpt><trkpt lat="45.48170146484557" lon="9.237740082829422"><ele>121.0</ele><time>2026-03-28T08:01:47Z</time></trkpt><trkpt lat="45.48176162566208" lon="9.237855422913691"><ele>121.0</ele><time>2026-03-28T08:01:48Z</time></trkpt><trkpt lat="45.481821447161586" lon="9.23795947141043"><ele>121.0</ele><time>2026-03-28T08:01:48.999Z</time></trkpt><trkpt lat="45.48187199318254" lon="9.23805283300663"><ele>121.33333333333334</ele><time>2026-03-28T08:01:49.999Z</time></trkpt><trkpt lat="45.48191464811936" lon="9.23814467572681"><ele>121.66666666666667</ele><time>2026-03-28T08:01:50.999Z</time></trkpt><trkpt lat="45.48196661576859" lon="9.23823933424911"><ele>122.0</ele><time>2026-03-28T08:01:51.999Z</time></trkpt><trkpt lat="45.48201933768537" lon="9.238338085650653"><ele>122.33333333333334</ele><time>2026-03-28T08:01:52.999Z</time></trkpt><trkpt lat="45.48205343759688" lon="9.238442207046555"><ele>122.66666666666667</ele><time>2026-03-28T08:01:53.999Z</time></trkpt><trkpt lat="45.482103744897074" lon="9.238563806186814"><ele>123.0</ele><time>2026-03-28T08:01:55.999Z</time></trkpt><trkpt lat="45.48214732227583" lon="9.238687605561282"><ele>123.0</ele><time>2026-03-28T08:01:58.999Z</time></trkpt><trkpt lat="45.48215763493784" lon="9.2388234931264"><ele>123.00000000000001</ele><time>2026-03-28T08:02:00.999Z</time></trkpt><trkpt lat="45.48217429638432" lon="9.2389908538289"><ele>123.00000000000001</ele><time>2026-03-28T08:02:01.999Z</time></trkpt><trkpt lat="45.48219310707416" lon="9.239137961923968"><ele>123.0</ele><time>2026-03-28T08:02:02.999Z</time></trkpt><trkpt lat="45.48221381387766" lon="9.239307722010022"><ele>123.0</ele><time>2026-03-28T08:02:03.999Z</time></trkpt><trkpt lat="45.48223356802103" lon="9.239471054905394"><ele>122.80000000000001</ele><time>2026-03-28T08:02:04.999Z</time></trkpt><trkpt lat="45.4822574503778" lon="9.239620575216328"><ele>122.60000000000001</ele><time>2026-03-28T08:02:05.999Z</time></trkpt><trkpt lat="45.482272363846334" lon="9.23975808871841"><ele>122.39999999999999</ele><time>2026-03-28T08:02:06.999Z</time></trkpt><trkpt lat="45.482288322655904" lon="9.239884707509082"><ele>122.19999999999999</ele><time>2026-03-28T08:02:07.999Z</time></trkpt><trkpt lat="45.48230438062701" lon="9.240000144442423"><ele>122.0</ele><time>2026-03-28T08:02:08.999Z</time></trkpt><trkpt lat="45.48231675147374" lon="9.24010456118806"><ele>122.49999999999999</ele><time>2026-03-28T08:02:09.999Z</time></trkpt><trkpt lat="45.48232995581743" lon="9.240203285150441"><ele>123.0</ele><time>2026-03-28T08:02:10.999Z</time></trkpt><trkpt lat="45.48233044450028" lon="9.240297157468696"><ele>123.5</ele><time>2026-03-28T08:02:11.999Z</time></trkpt><trkpt lat="45.48232715695425" lon="9.240430037126977"><ele>124.0</ele><time>2026-03-28T08:02:13.999Z</time></trkpt><trkpt lat="45.482259416843" lon="9.24049227738161"><ele>124.49999999999999</ele><time>2026-03-28T08:02:14.999Z</time></trkpt><trkpt lat="45.482200340480325" lon="9.240558290036851"><ele>125.0</ele><time>2026-03-28T08:02:15.999Z</time></trkpt><trkpt lat="45.482142607205866" lon="9.240634884706918"><ele>125.2</ele><time>2026-03-28T08:02:16.999Z</time></trkpt><trkpt lat="45.482100035570106" lon="9.240729947707564"><ele>125.4</ele><time>2026-03-28T08:02:17.999Z</time></trkpt><trkpt lat="45.482052703521724" lon="9.240820964402248"><ele>125.6</ele><time>2026-03-28T08:02:18.999Z</time></trkpt><trkpt lat="45.482028825703544" lon="9.240916438820008"><ele>125.8</ele><time>2026-03-28T08:02:19.999Z</time></trkpt><trkpt lat="45.482015135692016" lon="9.241047307140398"><ele>126.0</ele><time>2026-03-28T08:02:21.999Z</time></trkpt><trkpt lat="45.48188154876363" lon="9.241154449385256"><ele>125.0</ele><time>2026-03-28T08:02:24.999Z</time></trkpt><trkpt lat="45.481799236711154" lon="9.241163374501832"><ele>124.0</ele><time>2026-03-28T08:02:25.999Z</time></trkpt><trkpt lat="45.481702252804276" lon="9.241165510221578"><ele>123.0</ele><time>2026-03-28T08:02:26.999Z</time></trkpt><trkpt lat="45.481600225854734" lon="9.241179266707617"><ele>122.0</ele><time>2026-03-28T08:02:27.999Z</time></trkpt><trkpt lat="45.4815054873249" lon="9.241201968643482"><ele>121.0</ele><time>2026-03-28T08:02:28.999Z</time></trkpt><trkpt lat="45.48140937534175" lon="9.241227111210675"><ele>121.00000000000001</ele><time>2026-03-28T08:02:29.999Z</time></trkpt><trkpt lat="45.48131484401192" lon="9.241263207137527"><ele>121.0</ele><time>2026-03-28T08:02:30.999Z</time></trkpt><trkpt lat="45.48123537130606" lon="9.24131036085503"><ele>121.0</ele><time>2026-03-28T08:02:31.999Z</time></trkpt><trkpt lat="45.48117595740453" lon="9.24135045836384"><ele>121.0</ele><time>2026-03-28T08:02:32.999Z</time></trkpt><trkpt lat="45.481106538757096" lon="9.241414982469932"><ele>121.00000000000001</ele><time>2026-03-28T08:02:34.999Z</time></trkpt><trkpt lat="45.48102527430968" lon="9.241499369241607"><ele>121.0</ele><time>2026-03-28T08:02:36.999Z</time></trkpt><trkpt lat="45.48096494765412" lon="9.24156365011747"><ele>120.50000000000001</ele><time>2026-03-28T08:02:37.999Z</time></trkpt><trkpt lat="45.480894854378796" lon="9.241635299725917"><ele>120.0</ele><time>2026-03-28T08:02:38.999Z</time></trkpt><trkpt lat="45.48083213351274" lon="9.241703351771926"><ele>119.5</ele><time>2026-03-28T08:02:39.999Z</time></trkpt><trkpt lat="45.48076246520479" lon="9.241770487720158"><ele>119.0</ele><time>2026-03-28T08:02:40.999Z</time></trkpt><trkpt lat="45.48069290251374" lon="9.241850444298745"><ele>118.50000000000001</ele><time>2026-03-28T08:02:41.999Z</time></trkpt><trkpt lat="45.48061191122353" lon="9.241926364234573"><ele>118.0</ele><time>2026-03-28T08:02:42.999Z</time></trkpt><trkpt lat="45.48052239666882" lon="9.241999652985154"><ele>118.0</ele><time>2026-03-28T08:02:43.999Z</time></trkpt><trkpt lat="45.48043921824089" lon="9.242090590378234"><ele>118.00000000000001</ele><time>2026-03-28T08:02:44.999Z</time></trkpt><trkpt lat="45.480351288207686" lon="9.242186372913498"><ele>118.00000000000001</ele><time>2026-03-28T08:02:45.999Z</time></trkpt><trkpt lat="45.48025254855576" lon="9.242277099261928"><ele>118.0</ele><time>2026-03-28T08:02:46.999Z</time></trkpt><trkpt lat="45.48015666089184" lon="9.242367677329225"><ele>118.0</ele><time>2026-03-28T08:02:47.999Z</time></trkpt><trkpt lat="45.48006407961929" lon="9.242457449807578"><ele>118.0</ele><time>2026-03-28T08:02:48.999Z</time></trkpt><trkpt lat="45.47996926148215" lon="9.242535473388601"><ele>118.00000000000001</ele><time>2026-03-28T08:02:49.999Z</time></trkpt><trkpt lat="45.47987750506772" lon="9.242600328518193"><ele>118.00000000000001</ele><time>2026-03-28T08:02:50.999Z</time></trkpt><trkpt lat="45.47978536038478" lon="9.242642030607241"><ele>118.0</ele><time>2026-03-28T08:02:51.999Z</time></trkpt><trkpt lat="45.47969857295453" lon="9.242666157142486"><ele>118.0</ele><time>2026-03-28T08:02:52.999Z</time></trkpt><trkpt lat="45.47961592728663" lon="9.242673939480579"><ele>117.83333333333334</ele><time>2026-03-28T08:02:53.999Z</time></trkpt><trkpt lat="45.47953564184246" lon="9.242684342868538"><ele>117.66666666666667</ele><time>2026-03-28T08:02:54.999Z</time></trkpt><trkpt lat="45.47945452849546" lon="9.24269425180972"><ele>117.5</ele><time>2026-03-28T08:02:55.999Z</time></trkpt><trkpt lat="45.479368037033794" lon="9.242703356891845"><ele>117.33333333333334</ele><time>2026-03-28T08:02:56.999Z</time></trkpt><trkpt lat="45.479280042129524" lon="9.242716506354144"><ele>117.16666666666667</ele><time>2026-03-28T08:02:57.999Z</time></trkpt><trkpt lat="45.47919291685013" lon="9.242725042316337"><ele>117.0</ele><time>2026-03-28T08:02:58.999Z</time></trkpt><trkpt lat="45.479105953788434" lon="9.242735813794713"><ele>117.0</ele><time>2026-03-28T08:02:59.999Z</time></trkpt><trkpt lat="45.47901805254226" lon="9.242746530913337"><ele>116.99999999999999</ele><time>2026-03-28T08:03:00.999Z</time></trkpt><trkpt lat="45.47892545668195" lon="9.242757520884581"><ele>116.99999999999999</ele><time>2026-03-28T08:03:02Z</time></trkpt><trkpt lat="45.478828630344694" lon="9.24277024758337"><ele>117.0</ele><time>2026-03-28T08:03:03Z</time></trkpt><trkpt lat="45.47872783263168" lon="9.242789185331056"><ele>117.0</ele><time>2026-03-28T08:03:04Z</time></trkpt><trkpt lat="45.47861875236357" lon="9.242812477960411"><ele>117.0</ele><time>2026-03-28T08:03:05Z</time></trkpt><trkpt lat="45.47850662954292" lon="9.242833511044148"><ele>117.0</ele><time>2026-03-28T08:03:06Z</time></trkpt><trkpt lat="45.47838645763706" lon="9.24285996222479"><ele>117.0</ele><time>2026-03-28T08:03:07Z</time></trkpt><trkpt lat="45.47826363297018" lon="9.242893711082262"><ele>117.0</ele><time>2026-03-28T08:03:08Z</time></trkpt><trkpt lat="45.47813823850573" lon="9.242926390665192"><ele>117.0</ele><time>2026-03-28T08:03:09Z</time></trkpt><trkpt lat="45.47801394204985" lon="9.24295387195387"><ele>117.0</ele><time>2026-03-28T08:03:10Z</time></trkpt><trkpt lat="45.477893425187425" lon="9.24298002434427"><ele>117.0</ele><time>2026-03-28T08:03:11Z</time></trkpt><trkpt lat="45.47778776725694" lon="9.243016090505693"><ele>117.0</ele><time>2026-03-28T08:03:12Z</time></trkpt><trkpt lat="45.47769186538645" lon="9.243048900235546"><ele>117.0</ele><time>2026-03-28T08:03:13Z</time></trkpt><trkpt lat="45.477599334994494" lon="9.24308775425402"><ele>116.99999999999999</ele><time>2026-03-28T08:03:14Z</time></trkpt><trkpt lat="45.47751252008685" lon="9.243123898548697"><ele>116.99999999999999</ele><time>2026-03-28T08:03:15Z</time></trkpt><trkpt lat="45.4774248979865" lon="9.243162906012667"><ele>117.0</ele><time>2026-03-28T08:03:16Z</time></trkpt><trkpt lat="45.47732717114692" lon="9.243210280547801"><ele>117.0</ele><time>2026-03-28T08:03:17Z</time></trkpt><trkpt lat="45.47722779295578" lon="9.24325630416053"><ele>116.83333333333333</ele><time>2026-03-28T08:03:18Z</time></trkpt><trkpt lat="45.477131483032224" lon="9.243297212909562"><ele>116.66666666666666</ele><time>2026-03-28T08:03:19Z</time></trkpt><trkpt lat="45.47704347489031" lon="9.243336716554325"><ele>116.5</ele><time>2026-03-28T08:03:20Z</time></trkpt><trkpt lat="45.476956657753696" lon="9.24337849747885"><ele>116.33333333333333</ele><time>2026-03-28T08:03:21Z</time></trkpt><trkpt lat="45.47688023161244" lon="9.243419333486978"><ele>116.16666666666666</ele><time>2026-03-28T08:03:22Z</time></trkpt><trkpt lat="45.47681152200177" lon="9.243450283023094"><ele>116.0</ele><time>2026-03-28T08:03:23Z</time></trkpt><trkpt lat="45.476816059405834" lon="9.243663381514684"><ele>116.25</ele><time>2026-03-28T08:03:24Z</time></trkpt><trkpt lat="45.47683199616283" lon="9.243803341896486"><ele>116.5</ele><time>2026-03-28T08:03:25Z</time></trkpt><trkpt lat="45.476871908862385" lon="9.24396224238714"><ele>116.75</ele><time>2026-03-28T08:03:26Z</time></trkpt><trkpt lat="45.4769201394314" lon="9.244134589432342"><ele>117.0</ele><time>2026-03-28T08:03:27Z</time></trkpt><trkpt lat="45.47696117545626" lon="9.24429710025925"><ele>117.0</ele><time>2026-03-28T08:03:28Z</time></trkpt><trkpt lat="45.47699636266385" lon="9.244439174407956"><ele>116.99999999999999</ele><time>2026-03-28T08:03:29Z</time></trkpt><trkpt lat="45.477024364017005" lon="9.244575587506647"><ele>116.99999999999999</ele><time>2026-03-28T08:03:30Z</time></trkpt><trkpt lat="45.4770524416034" lon="9.244716868925755"><ele>117.0</ele><time>2026-03-28T08:03:31Z</time></trkpt><trkpt lat="45.47708491902641" lon="9.244860582484627"><ele>117.0</ele><time>2026-03-28T08:03:32Z</time></trkpt><trkpt lat="45.47711591270009" lon="9.245004082220241"><ele>117.6</ele><time>2026-03-28T08:03:33Z</time></trkpt><trkpt lat="45.477146487935656" lon="9.245145024111437"><ele>118.19999999999999</ele><time>2026-03-28T08:03:34Z</time></trkpt><trkpt lat="45.47717757953672" lon="9.24528066125926"><ele>118.8</ele><time>2026-03-28T08:03:35Z</time></trkpt><trkpt lat="45.477206883955425" lon="9.245415314766548"><ele>119.4</ele><time>2026-03-28T08:03:36Z</time></trkpt><trkpt lat="45.47723625637901" lon="9.245549038986034"><ele>120.0</ele><time>2026-03-28T08:03:37Z</time></trkpt><trkpt lat="45.47726883569083" lon="9.245682943889507"><ele>120.16666666666667</ele><time>2026-03-28T08:03:38Z</time></trkpt><trkpt lat="45.477301656973786" lon="9.245814774828204"><ele>120.33333333333334</ele><time>2026-03-28T08:03:39Z</time></trkpt><trkpt lat="45.47732632269792" lon="9.245938137468162"><ele>120.5</ele><time>2026-03-28T08:03:40Z</time></trkpt><trkpt lat="45.477351595367466" lon="9.24605507690725"><ele>120.66666666666667</ele><time>2026-03-28T08:03:41Z</time></trkpt><trkpt lat="45.47737702927506" lon="9.246171901171698"><ele>120.83333333333334</ele><time>2026-03-28T08:03:42Z</time></trkpt><trkpt lat="45.477387144945055" lon="9.246294386624083"><ele>121.0</ele><time>2026-03-28T08:03:43Z</time></trkpt><trkpt lat="45.47736615739634" lon="9.246406144061575"><ele>120.50000000000001</ele><time>2026-03-28T08:03:44Z</time></trkpt><trkpt lat="45.47731914783933" lon="9.246488077644718"><ele>120.0</ele><time>2026-03-28T08:03:45Z</time></trkpt><trkpt lat="45.47725154246465" lon="9.246537773405626"><ele>119.5</ele><time>2026-03-28T08:03:46Z</time></trkpt><trkpt lat="45.477183333256306" lon="9.246595007072104"><ele>119.0</ele><time>2026-03-28T08:03:47Z</time></trkpt><trkpt lat="45.47709611830917" lon="9.246602610269829"><ele>118.50000000000001</ele><time>2026-03-28T08:03:48Z</time></trkpt><trkpt lat="45.47701820121195" lon="9.246653441603591"><ele>118.0</ele><time>2026-03-28T08:03:49Z</time></trkpt><trkpt lat="45.47694067425775" lon="9.246698835647276"><ele>117.66666666666667</ele><time>2026-03-28T08:03:50Z</time></trkpt><trkpt lat="45.4768692476591" lon="9.246742212228824"><ele>117.33333333333334</ele><time>2026-03-28T08:03:51Z</time></trkpt><trkpt lat="45.47680528813193" lon="9.24677802922006"><ele>117.0</ele><time>2026-03-28T08:03:52Z</time></trkpt><trkpt lat="45.476713414154666" lon="9.246817515935092"><ele>116.66666666666666</ele><time>2026-03-28T08:03:54Z</time></trkpt><trkpt lat="45.476636333412124" lon="9.246838990165097"><ele>116.33333333333333</ele><time>2026-03-28T08:03:56.999Z</time></trkpt><trkpt lat="45.47657420307925" lon="9.24686141338886"><ele>116.0</ele><time>2026-03-28T08:04:00.999Z</time></trkpt><trkpt lat="45.476513709468385" lon="9.246894822661192"><ele>116.0</ele><time>2026-03-28T08:04:02.999Z</time></trkpt><trkpt lat="45.47641170754589" lon="9.246952013648004"><ele>116.0</ele><time>2026-03-28T08:04:04.999Z</time></trkpt><trkpt lat="45.47629955617238" lon="9.246989138512687"><ele>116.0</ele><time>2026-03-28T08:04:06.999Z</time></trkpt><trkpt lat="45.47623820170977" lon="9.247016730283331"><ele>116.0</ele><time>2026-03-28T08:04:08.999Z</time></trkpt><trkpt lat="45.47626052952917" lon="9.247252706630245"><ele>116.0</ele><time>2026-03-28T08:04:10.999Z</time></trkpt><trkpt lat="45.476287877564594" lon="9.247351930653824"><ele>116.0</ele><time>2026-03-28T08:04:11.999Z</time></trkpt><trkpt lat="45.47632838997341" lon="9.24748448109989"><ele>116.0</ele><time>2026-03-28T08:04:12.999Z</time></trkpt><trkpt lat="45.4763632024375" lon="9.247635403719551"><ele>116.0</ele><time>2026-03-28T08:04:13.999Z</time></trkpt><trkpt lat="45.476401317284356" lon="9.247816135802012"><ele>116.0</ele><time>2026-03-28T08:04:14.999Z</time></trkpt><trkpt lat="45.476443807427415" lon="9.24800068774837"><ele>116.25</ele><time>2026-03-28T08:04:15.999Z</time></trkpt><trkpt lat="45.47648560793189" lon="9.248183294046273"><ele>116.5</ele><time>2026-03-28T08:04:16.999Z</time></trkpt><trkpt lat="45.47652109363764" lon="9.248361751588417"><ele>116.75</ele><time>2026-03-28T08:04:17.999Z</time></trkpt><trkpt lat="45.476561094944444" lon="9.24853636294784"><ele>117.0</ele><time>2026-03-28T08:04:18.999Z</time></trkpt><trkpt lat="45.47660134480898" lon="9.248712316135203"><ele>117.0</ele><time>2026-03-28T08:04:19.999Z</time></trkpt><trkpt lat="45.476639038246255" lon="9.248889373020369"><ele>117.0</ele><time>2026-03-28T08:04:20.999Z</time></trkpt><trkpt lat="45.47667747745886" lon="9.249064948489854"><ele>117.0</ele><time>2026-03-28T08:04:21.999Z</time></trkpt><trkpt lat="45.47671763930997" lon="9.249242472200251"><ele>117.0</ele><time>2026-03-28T08:04:22.999Z</time></trkpt><trkpt lat="45.47675649619707" lon="9.249419598801031"><ele>117.25</ele><time>2026-03-28T08:04:23.999Z</time></trkpt><trkpt lat="45.476795999085866" lon="9.249595447970906"><ele>117.5</ele><time>2026-03-28T08:04:24.999Z</time></trkpt><trkpt lat="45.47683328474182" lon="9.24977150510339"><ele>117.75</ele><time>2026-03-28T08:04:25.999Z</time></trkpt><trkpt lat="45.47686948468196" lon="9.249947614021163"><ele>118.0</ele><time>2026-03-28T08:04:26.999Z</time></trkpt><trkpt lat="45.47690773406532" lon="9.250121497083137"><ele>117.5</ele><time>2026-03-28T08:04:27.999Z</time></trkpt><trkpt lat="45.47694667668264" lon="9.250293930275664"><ele>117.0</ele><time>2026-03-28T08:04:28.999Z</time></trkpt><trkpt lat="45.47698749444901" lon="9.2504670690525"><ele>116.5</ele><time>2026-03-28T08:04:29.999Z</time></trkpt><trkpt lat="45.477027747191414" lon="9.250639668096847"><ele>116.0</ele><time>2026-03-28T08:04:30.999Z</time></trkpt><trkpt lat="45.47706695787492" lon="9.250811345668762"><ele>115.8</ele><time>2026-03-28T08:04:31.999Z</time></trkpt><trkpt lat="45.47710290608472" lon="9.250971394060864"><ele>115.6</ele><time>2026-03-28T08:04:32.999Z</time></trkpt><trkpt lat="45.47712975713538" lon="9.251120410210829"><ele>115.4</ele><time>2026-03-28T08:04:33.999Z</time></trkpt><trkpt lat="45.4771388136863" lon="9.251262913344522"><ele>115.2</ele><time>2026-03-28T08:04:34.999Z</time></trkpt><trkpt lat="45.477140453138794" lon="9.251395818135562"><ele>115.0</ele><time>2026-03-28T08:04:35.999Z</time></trkpt><trkpt lat="45.47709650891534" lon="9.251521736056025"><ele>115.0</ele><time>2026-03-28T08:04:36.999Z</time></trkpt><trkpt lat="45.47704418245777" lon="9.251634365301689"><ele>115.0</ele><time>2026-03-28T08:04:37.999Z</time></trkpt><trkpt lat="45.47695114352988" lon="9.25172156601898"><ele>115.0</ele><time>2026-03-28T08:04:38.999Z</time></trkpt><trkpt lat="45.47684100670158" lon="9.25176085732708"><ele>115.0</ele><time>2026-03-28T08:04:39.999Z</time></trkpt><trkpt lat="45.47672681423439" lon="9.251785768487974"><ele>115.0</ele><time>2026-03-28T08:04:40.999Z</time></trkpt><trkpt lat="45.47660059612984" lon="9.251792394252693"><ele>115.0</ele><time>2026-03-28T08:04:41.999Z</time></trkpt><trkpt lat="45.47646929403808" lon="9.251787982204116"><ele>115.0</ele><time>2026-03-28T08:04:42.999Z</time></trkpt><trkpt lat="45.47633482216003" lon="9.251784509287209"><ele>115.0</ele><time>2026-03-28T08:04:43.999Z</time></trkpt><trkpt lat="45.47619676850737" lon="9.251805958955277"><ele>115.0</ele><time>2026-03-28T08:04:44.999Z</time></trkpt><trkpt lat="45.47605149801075" lon="9.251786327583138"><ele>115.5</ele><time>2026-03-28T08:04:45.999Z</time></trkpt><trkpt lat="45.475911453264416" lon="9.251791402636773"><ele>116.0</ele><time>2026-03-28T08:04:46.999Z</time></trkpt><trkpt lat="45.47577323012305" lon="9.251825935682486"><ele>116.5</ele><time>2026-03-28T08:04:47.999Z</time></trkpt><trkpt lat="45.475628334906915" lon="9.25181282845992"><ele>117.0</ele><time>2026-03-28T08:04:48.999Z</time></trkpt><trkpt lat="45.4754856577684" lon="9.251844063543674"><ele>117.0</ele><time>2026-03-28T08:04:49.999Z</time></trkpt><trkpt lat="45.47534430530683" lon="9.251902604364169"><ele>117.0</ele><time>2026-03-28T08:04:50.999Z</time></trkpt><trkpt lat="45.47520746922581" lon="9.251988602030954"><ele>117.0</ele><time>2026-03-28T08:04:51.999Z</time></trkpt><trkpt lat="45.47507558265957" lon="9.252095753629744"><ele>117.0</ele><time>2026-03-28T08:04:52.999Z</time></trkpt><trkpt lat="45.47494517745577" lon="9.25221105845014"><ele>117.0</ele><time>2026-03-28T08:04:53.999Z</time></trkpt><trkpt lat="45.47480309508855" lon="9.252324585733387"><ele>117.0</ele><time>2026-03-28T08:04:54.999Z</time></trkpt><trkpt lat="45.474658250624984" lon="9.252435189280543"><ele>117.0</ele><time>2026-03-28T08:04:55.999Z</time></trkpt><trkpt lat="45.47452040573234" lon="9.252544547279301"><ele>117.0</ele><time>2026-03-28T08:04:56.999Z</time></trkpt><trkpt lat="45.47439564888979" lon="9.25264631005913"><ele>117.0</ele><time>2026-03-28T08:04:57.999Z</time></trkpt><trkpt lat="45.47426947867608" lon="9.252723834703966"><ele>117.0</ele><time>2026-03-28T08:04:58.999Z</time></trkpt><trkpt lat="45.47413442454997" lon="9.252762942308415"><ele>117.0</ele><time>2026-03-28T08:04:59.999Z</time></trkpt><trkpt lat="45.47399111179604" lon="9.252757572774364"><ele>117.0</ele><time>2026-03-28T08:05:00.999Z</time></trkpt><trkpt lat="45.47384375641576" lon="9.252731859127422"><ele>117.0</ele><time>2026-03-28T08:05:01.999Z</time></trkpt><trkpt lat="45.47369398485691" lon="9.252732149893617"><ele>117.0</ele><time>2026-03-28T08:05:02.999Z</time></trkpt><trkpt lat="45.4735378437967" lon="9.252644624564509"><ele>117.66666666666666</ele><time>2026-03-28T08:05:03.999Z</time></trkpt><trkpt lat="45.47337769243633" lon="9.252601750603823"><ele>118.33333333333333</ele><time>2026-03-28T08:05:04.999Z</time></trkpt><trkpt lat="45.47321519663801" lon="9.252558146016272"><ele>119.0</ele><time>2026-03-28T08:05:05.999Z</time></trkpt><trkpt lat="45.473050623512826" lon="9.25251601934418"><ele>119.66666666666666</ele><time>2026-03-28T08:05:06.999Z</time></trkpt><trkpt lat="45.47288176778893" lon="9.252474261475399"><ele>120.33333333333334</ele><time>2026-03-28T08:05:08Z</time></trkpt><trkpt lat="45.47271228017007" lon="9.25243099769021"><ele>121.0</ele><time>2026-03-28T08:05:09Z</time></trkpt><trkpt lat="45.47254479730789" lon="9.2523859472453"><ele>121.0</ele><time>2026-03-28T08:05:10Z</time></trkpt><trkpt lat="45.47236936192009" lon="9.252341876701406"><ele>121.0</ele><time>2026-03-28T08:05:11Z</time></trkpt><trkpt lat="45.47218860194701" lon="9.252296506110179"><ele>121.0</ele><time>2026-03-28T08:05:12Z</time></trkpt><trkpt lat="45.472004294657346" lon="9.25225505607244"><ele>118.66666666666667</ele><time>2026-03-28T08:05:13Z</time></trkpt><trkpt lat="45.47181364292944" lon="9.252217471946327"><ele>116.33333333333334</ele><time>2026-03-28T08:05:14Z</time></trkpt><trkpt lat="45.471617373133284" lon="9.252179323227939"><ele>114.0</ele><time>2026-03-28T08:05:15Z</time></trkpt><trkpt lat="45.471415927688454" lon="9.252141342330269"><ele>113.66666666666666</ele><time>2026-03-28T08:05:16Z</time></trkpt><trkpt lat="45.471209675624685" lon="9.252103273334864"><ele>113.33333333333333</ele><time>2026-03-28T08:05:17Z</time></trkpt><trkpt lat="45.470998875207265" lon="9.252066801895321"><ele>113.0</ele><time>2026-03-28T08:05:18Z</time></trkpt><trkpt lat="45.470784933089945" lon="9.252033496982511"><ele>113.0</ele><time>2026-03-28T08:05:19Z</time></trkpt><trkpt lat="45.47056749609861" lon="9.252004152721717"><ele>113.0</ele><time>2026-03-28T08:05:20Z</time></trkpt><trkpt lat="45.470350628049445" lon="9.25197988710212"><ele>113.0</ele><time>2026-03-28T08:05:21Z</time></trkpt><trkpt lat="45.47013527420667" lon="9.25196046476584"><ele>113.33333333333333</ele><time>2026-03-28T08:05:22Z</time></trkpt><trkpt lat="45.46991980422515" lon="9.251942797359655"><ele>113.66666666666666</ele><time>2026-03-28T08:05:23Z</time></trkpt><trkpt lat="45.46970280488625" lon="9.25192976947519"><ele>114.0</ele><time>2026-03-28T08:05:24Z</time></trkpt><trkpt lat="45.46948674682363" lon="9.25192234317463"><ele>113.33333333333334</ele><time>2026-03-28T08:05:25Z</time></trkpt><trkpt lat="45.46926910552594" lon="9.251916597226517"><ele>112.66666666666667</ele><time>2026-03-28T08:05:26Z</time></trkpt><trkpt lat="45.469044122481876" lon="9.25191904860867"><ele>112.0</ele><time>2026-03-28T08:05:27Z</time></trkpt><trkpt lat="45.468815518927194" lon="9.251922933540662"><ele>113.5</ele><time>2026-03-28T08:05:28Z</time></trkpt><trkpt lat="45.46858183162169" lon="9.251926429909979"><ele>115.0</ele><time>2026-03-28T08:05:29Z</time></trkpt><trkpt lat="45.46834159888052" lon="9.251933750714468"><ele>115.0</ele><time>2026-03-28T08:05:30Z</time></trkpt><trkpt lat="45.46809661321444" lon="9.251945298048648"><ele>115.0</ele><time>2026-03-28T08:05:31Z</time></trkpt><trkpt lat="45.467850811544146" lon="9.25195345880034"><ele>115.0</ele><time>2026-03-28T08:05:32Z</time></trkpt><trkpt lat="45.46760289086828" lon="9.251957792702651"><ele>115.0</ele><time>2026-03-28T08:05:33Z</time></trkpt><trkpt lat="45.46735744273113" lon="9.251954676417675"><ele>115.0</ele><time>2026-03-28T08:05:34Z</time></trkpt><trkpt lat="45.46711344306182" lon="9.251932094392638"><ele>115.0</ele><time>2026-03-28T08:05:35Z</time></trkpt><trkpt lat="45.466871044990846" lon="9.251894278139675"><ele>115.0</ele><time>2026-03-28T08:05:36Z</time></trkpt><trkpt lat="45.466627518141074" lon="9.25183947265801"><ele>115.0</ele><time>2026-03-28T08:05:37Z</time></trkpt><trkpt lat="45.46638666758951" lon="9.251772826025674"><ele>114.5</ele><time>2026-03-28T08:05:38Z</time></trkpt><trkpt lat="45.466146826608295" lon="9.2516963871423"><ele>114.0</ele><time>2026-03-28T08:05:39Z</time></trkpt><trkpt lat="45.465909310193204" lon="9.251608367381024"><ele>114.0</ele><time>2026-03-28T08:05:40Z</time></trkpt><trkpt lat="45.465675707606515" lon="9.251506874955"><ele>114.0</ele><time>2026-03-28T08:05:41Z</time></trkpt><trkpt lat="45.46544093485021" lon="9.251401011000109"><ele>113.5</ele><time>2026-03-28T08:05:42Z</time></trkpt><trkpt lat="45.46520851568493" lon="9.251294420579997"><ele>113.0</ele><time>2026-03-28T08:05:43Z</time></trkpt><trkpt lat="45.46497543025012" lon="9.25119107736674"><ele>113.0</ele><time>2026-03-28T08:05:44Z</time></trkpt><trkpt lat="45.46473918853061" lon="9.251100304127082"><ele>113.0</ele><time>2026-03-28T08:05:45Z</time></trkpt><trkpt lat="45.46450002855916" lon="9.25103040843306"><ele>114.0</ele><time>2026-03-28T08:05:46Z</time></trkpt><trkpt lat="45.46425987947374" lon="9.250976861926196"><ele>115.0</ele><time>2026-03-28T08:05:47Z</time></trkpt><trkpt lat="45.46401876063133" lon="9.25093791486321"><ele>115.0</ele><time>2026-03-28T08:05:48Z</time></trkpt><trkpt lat="45.463775921083155" lon="9.25091054090219"><ele>115.0</ele><time>2026-03-28T08:05:49Z</time></trkpt><trkpt lat="45.46352933956675" lon="9.250895312250877"><ele>115.0</ele><time>2026-03-28T08:05:50Z</time></trkpt><trkpt lat="45.46328107408475" lon="9.250893329251685"><ele>115.0</ele><time>2026-03-28T08:05:51Z</time></trkpt><trkpt lat="45.463031412196344" lon="9.25090484916906"><ele>111.5</ele><time>2026-03-28T08:05:52Z</time></trkpt><trkpt lat="45.462781466532505" lon="9.250928945443432"><ele>108.0</ele><time>2026-03-28T08:05:53Z</time></trkpt><trkpt lat="45.46253243901181" lon="9.250960998825335"><ele>108.0</ele><time>2026-03-28T08:05:54Z</time></trkpt><trkpt lat="45.462282860806525" lon="9.250997119525532"><ele>108.0</ele><time>2026-03-28T08:05:55Z</time></trkpt><trkpt lat="45.46203194291804" lon="9.251027981230992"><ele>112.0</ele><time>2026-03-28T08:05:56Z</time></trkpt><trkpt lat="45.46178252067209" lon="9.251056288569794"><ele>116.0</ele><time>2026-03-28T08:05:57Z</time></trkpt><trkpt lat="45.46153236738582" lon="9.251084799934267"><ele>116.5</ele><time>2026-03-28T08:05:58Z</time></trkpt><trkpt lat="45.461282246462275" lon="9.251113351925088"><ele>117.0</ele><time>2026-03-28T08:05:59Z</time></trkpt><trkpt lat="45.46104033471312" lon="9.25113768813746"><ele>117.0</ele><time>2026-03-28T08:05:59.999Z</time></trkpt><trkpt lat="45.4608047307344" lon="9.251160173564669"><ele>117.0</ele><time>2026-03-28T08:06:00.999Z</time></trkpt><trkpt lat="45.460570397773836" lon="9.251181190620798"><ele>115.0</ele><time>2026-03-28T08:06:01.999Z</time></trkpt><trkpt lat="45.46033535218573" lon="9.251203473379807"><ele>113.0</ele><time>2026-03-28T08:06:02.999Z</time></trkpt><trkpt lat="45.46009942320625" lon="9.251234866411343"><ele>113.0</ele><time>2026-03-28T08:06:03.999Z</time></trkpt><trkpt lat="45.45985223666638" lon="9.251271724851165"><ele>113.0</ele><time>2026-03-28T08:06:04.999Z</time></trkpt><trkpt lat="45.45960801058088" lon="9.251313786837297"><ele>112.5</ele><time>2026-03-28T08:06:05.999Z</time></trkpt><trkpt lat="45.45936061195563" lon="9.251368502376105"><ele>112.0</ele><time>2026-03-28T08:06:06.999Z</time></trkpt><trkpt lat="45.45911283023676" lon="9.251433014126302"><ele>112.5</ele><time>2026-03-28T08:06:07.999Z</time></trkpt><trkpt lat="45.45886458750106" lon="9.251506028654"><ele>113.0</ele><time>2026-03-28T08:06:08.999Z</time></trkpt><trkpt lat="45.45861888229563" lon="9.251586955488182"><ele>113.5</ele><time>2026-03-28T08:06:09.999Z</time></trkpt><trkpt lat="45.45837130454131" lon="9.251679110823043"><ele>114.0</ele><time>2026-03-28T08:06:10.999Z</time></trkpt><trkpt lat="45.45812666707922" lon="9.25177555073221"><ele>112.5</ele><time>2026-03-28T08:06:11.999Z</time></trkpt><trkpt lat="45.45788620943393" lon="9.251886842083863"><ele>111.0</ele><time>2026-03-28T08:06:12.999Z</time></trkpt><trkpt lat="45.4576447863644" lon="9.252005854295291"><ele>111.0</ele><time>2026-03-28T08:06:13.999Z</time></trkpt><trkpt lat="45.45740301657348" lon="9.252140648457052"><ele>111.0</ele><time>2026-03-28T08:06:14.999Z</time></trkpt><trkpt lat="45.45715980461464" lon="9.252283160167684"><ele>111.5</ele><time>2026-03-28T08:06:15.999Z</time></trkpt><trkpt lat="45.45691657855776" lon="9.25243496042709"><ele>112.0</ele><time>2026-03-28T08:06:16.999Z</time></trkpt><trkpt lat="45.456674179334684" lon="9.252598486386992"><ele>112.0</ele><time>2026-03-28T08:06:17.999Z</time></trkpt><trkpt lat="45.45643575367075" lon="9.252774307643804"><ele>112.0</ele><time>2026-03-28T08:06:18.999Z</time></trkpt><trkpt lat="45.456201846135414" lon="9.252956092087162"><ele>111.5</ele><time>2026-03-28T08:06:19.999Z</time></trkpt><trkpt lat="45.45597062977634" lon="9.25314544874456"><ele>111.0</ele><time>2026-03-28T08:06:20.999Z</time></trkpt><trkpt lat="45.455740766472005" lon="9.253338340468868"><ele>111.0</ele><time>2026-03-28T08:06:21.999Z</time></trkpt><trkpt lat="45.4555070909938" lon="9.253532669514492"><ele>111.0</ele><time>2026-03-28T08:06:22.999Z</time></trkpt><trkpt lat="45.45527393616278" lon="9.253726941823292"><ele>110.5</ele><time>2026-03-28T08:06:23.999Z</time></trkpt><trkpt lat="45.45504368483576" lon="9.253921877998932"><ele>110.0</ele><time>2026-03-28T08:06:24.999Z</time></trkpt><trkpt lat="45.45481373606156" lon="9.254117215388135"><ele>109.5</ele><time>2026-03-28T08:06:25.999Z</time></trkpt><trkpt lat="45.45458267214932" lon="9.254312444404496"><ele>109.0</ele><time>2026-03-28T08:06:26.999Z</time></trkpt><trkpt lat="45.45434915824344" lon="9.254506076046509"><ele>109.0</ele><time>2026-03-28T08:06:27.999Z</time></trkpt><trkpt lat="45.45411503357551" lon="9.25469958324695"><ele>109.0</ele><time>2026-03-28T08:06:28.999Z</time></trkpt><trkpt lat="45.453891481638315" lon="9.25488370704097"><ele>109.5</ele><time>2026-03-28T08:06:29.999Z</time></trkpt><trkpt lat="45.453682862352046" lon="9.255053917552333"><ele>110.0</ele><time>2026-03-28T08:06:30.999Z</time></trkpt><trkpt lat="45.45348011726445" lon="9.255219985415799"><ele>110.0</ele><time>2026-03-28T08:06:31.999Z</time></trkpt><trkpt lat="45.45329129311417" lon="9.25538009632824"><ele>110.0</ele><time>2026-03-28T08:06:32.999Z</time></trkpt><trkpt lat="45.45311078035129" lon="9.255528913575189"><ele>110.0</ele><time>2026-03-28T08:06:33.999Z</time></trkpt><trkpt lat="45.45293840619137" lon="9.255672289477298"><ele>110.0</ele><time>2026-03-28T08:06:34.999Z</time></trkpt><trkpt lat="45.45277464467872" lon="9.25581369039276"><ele>110.0</ele><time>2026-03-28T08:06:35.999Z</time></trkpt><trkpt lat="45.452604150558635" lon="9.255956229587762"><ele>110.0</ele><time>2026-03-28T08:06:36.999Z</time></trkpt><trkpt lat="45.45242633141792" lon="9.256101576199454"><ele>110.0</ele><time>2026-03-28T08:06:37.999Z</time></trkpt><trkpt lat="45.45224453430487" lon="9.256251377623956"><ele>110.0</ele><time>2026-03-28T08:06:38.999Z</time></trkpt><trkpt lat="45.45205819914194" lon="9.25640273054475"><ele>110.0</ele><time>2026-03-28T08:06:39.999Z</time></trkpt><trkpt lat="45.451867620893566" lon="9.256560822250485"><ele>110.33333333333333</ele><time>2026-03-28T08:06:40.999Z</time></trkpt><trkpt lat="45.451677895989285" lon="9.256720923747594"><ele>110.66666666666666</ele><time>2026-03-28T08:06:41.999Z</time></trkpt><trkpt lat="45.45148994009896" lon="9.256875212897725"><ele>111.0</ele><time>2026-03-28T08:06:42.999Z</time></trkpt><trkpt lat="45.45129759151591" lon="9.257032510954687"><ele>111.5</ele><time>2026-03-28T08:06:43.999Z</time></trkpt><trkpt lat="45.451103397621814" lon="9.257192046384295"><ele>112.0</ele><time>2026-03-28T08:06:44.999Z</time></trkpt><trkpt lat="45.450907019527065" lon="9.257353322904514"><ele>112.0</ele><time>2026-03-28T08:06:45.999Z</time></trkpt><trkpt lat="45.45070944475349" lon="9.257511725396306"><ele>112.0</ele><time>2026-03-28T08:06:46.999Z</time></trkpt><trkpt lat="45.450508196643995" lon="9.257666038023528"><ele>112.5</ele><time>2026-03-28T08:06:47.999Z</time></trkpt><trkpt lat="45.450303659681296" lon="9.257812275911682"><ele>113.0</ele><time>2026-03-28T08:06:48.999Z</time></trkpt><trkpt lat="45.45009364896448" lon="9.25794855822158"><ele>113.0</ele><time>2026-03-28T08:06:49.999Z</time></trkpt><trkpt lat="45.44988084677434" lon="9.258076695469716"><ele>113.0</ele><time>2026-03-28T08:06:50.999Z</time></trkpt><trkpt lat="45.44966517827167" lon="9.25819181164063"><ele>111.0</ele><time>2026-03-28T08:06:51.999Z</time></trkpt><trkpt lat="45.44944684613082" lon="9.258293200555599"><ele>109.0</ele><time>2026-03-28T08:06:52.999Z</time></trkpt><trkpt lat="45.44922390306659" lon="9.25838352890923"><ele>109.0</ele><time>2026-03-28T08:06:53.999Z</time></trkpt><trkpt lat="45.44900031220949" lon="9.258463102846013"><ele>109.0</ele><time>2026-03-28T08:06:54.999Z</time></trkpt><trkpt lat="45.44877832159184" lon="9.258538087951594"><ele>108.0</ele><time>2026-03-28T08:06:55.999Z</time></trkpt><trkpt lat="45.44855421833555" lon="9.25860035387499"><ele>107.0</ele><time>2026-03-28T08:06:56.999Z</time></trkpt><trkpt lat="45.44832933057795" lon="9.258649253325705"><ele>107.0</ele><time>2026-03-28T08:06:57.999Z</time></trkpt><trkpt lat="45.44810299167833" lon="9.258683231697082"><ele>107.0</ele><time>2026-03-28T08:06:58.999Z</time></trkpt><trkpt lat="45.44787693101034" lon="9.258704227308314"><ele>105.5</ele><time>2026-03-28T08:06:59.999Z</time></trkpt><trkpt lat="45.4476509877666" lon="9.258712995346684"><ele>104.0</ele><time>2026-03-28T08:07:00.999Z</time></trkpt><trkpt lat="45.447423017963615" lon="9.25871127171384"><ele>104.0</ele><time>2026-03-28T08:07:01.999Z</time></trkpt><trkpt lat="45.44719456847925" lon="9.258698786218842"><ele>104.0</ele><time>2026-03-28T08:07:02.999Z</time></trkpt><trkpt lat="45.446965591829375" lon="9.258673537546926"><ele>107.5</ele><time>2026-03-28T08:07:03.999Z</time></trkpt><trkpt lat="45.44673333330551" lon="9.258636209637553"><ele>111.0</ele><time>2026-03-28T08:07:04.999Z</time></trkpt><trkpt lat="45.44650241610291" lon="9.258591484441853"><ele>106.0</ele><time>2026-03-28T08:07:05.999Z</time></trkpt><trkpt lat="45.446270938237994" lon="9.258532579563061"><ele>101.0</ele><time>2026-03-28T08:07:06.999Z</time></trkpt><trkpt lat="45.446040128332456" lon="9.25846600876776"><ele>101.0</ele><time>2026-03-28T08:07:07.999Z</time></trkpt><trkpt lat="45.4458064684791" lon="9.258400033400394"><ele>101.0</ele><time>2026-03-28T08:07:08.999Z</time></trkpt><trkpt lat="45.445571316804084" lon="9.258333960503093"><ele>96.0</ele><time>2026-03-28T08:07:09.999Z</time></trkpt><trkpt lat="45.44533597961881" lon="9.258268526046413"><ele>91.0</ele><time>2026-03-28T08:07:10.999Z</time></trkpt><trkpt lat="45.445101315586314" lon="9.25820342221752"><ele>91.0</ele><time>2026-03-28T08:07:11.999Z</time></trkpt><trkpt lat="45.44486668409475" lon="9.258135736636415"><ele>91.0</ele><time>2026-03-28T08:07:12.999Z</time></trkpt><trkpt lat="45.444631769429115" lon="9.25806917134846"><ele>92.5</ele><time>2026-03-28T08:07:14Z</time></trkpt><trkpt lat="45.44439809283805" lon="9.25800272232492"><ele>94.0</ele><time>2026-03-28T08:07:15Z</time></trkpt><trkpt lat="45.444163630824136" lon="9.257936249300663"><ele>94.0</ele><time>2026-03-28T08:07:16Z</time></trkpt><trkpt lat="45.44392878974796" lon="9.257868811428079"><ele>94.0</ele><time>2026-03-28T08:07:17Z</time></trkpt><trkpt lat="45.44369558347035" lon="9.257799911241793"><ele>95.5</ele><time>2026-03-28T08:07:18Z</time></trkpt><trkpt lat="45.44346641781863" lon="9.257732898486296"><ele>97.0</ele><time>2026-03-28T08:07:19Z</time></trkpt><trkpt lat="45.44324148053417" lon="9.257668935764721"><ele>97.0</ele><time>2026-03-28T08:07:20Z</time></trkpt><trkpt lat="45.44301956130996" lon="9.257610263171957"><ele>97.0</ele><time>2026-03-28T08:07:21Z</time></trkpt><trkpt lat="45.44280107375783" lon="9.257551213592544"><ele>97.0</ele><time>2026-03-28T08:07:22Z</time></trkpt><trkpt lat="45.442583563543785" lon="9.257488702252433"><ele>97.33333333333334</ele><time>2026-03-28T08:07:23Z</time></trkpt><trkpt lat="45.44236620887666" lon="9.25742604742383"><ele>97.66666666666666</ele><time>2026-03-28T08:07:24Z</time></trkpt><trkpt lat="45.44214791004767" lon="9.25736073896009"><ele>98.0</ele><time>2026-03-28T08:07:25Z</time></trkpt><trkpt lat="45.441928491180434" lon="9.257295843093571"><ele>101.0</ele><time>2026-03-28T08:07:26Z</time></trkpt><trkpt lat="45.441707067085886" lon="9.257230550232753"><ele>104.0</ele><time>2026-03-28T08:07:27Z</time></trkpt><trkpt lat="45.44148509363758" lon="9.257162365393814"><ele>104.0</ele><time>2026-03-28T08:07:28Z</time></trkpt><trkpt lat="45.44126192036878" lon="9.257091478407899"><ele>104.0</ele><time>2026-03-28T08:07:29Z</time></trkpt><trkpt lat="45.441038177631924" lon="9.257022692413292"><ele>104.0</ele><time>2026-03-28T08:07:30Z</time></trkpt><trkpt lat="45.44081349515905" lon="9.256955652169358"><ele>104.0</ele><time>2026-03-28T08:07:31Z</time></trkpt><trkpt lat="45.4405908674274" lon="9.256884669742655"><ele>104.5</ele><time>2026-03-28T08:07:32Z</time></trkpt><trkpt lat="45.44036928723557" lon="9.256805186599275"><ele>105.0</ele><time>2026-03-28T08:07:33Z</time></trkpt><trkpt lat="45.440147042654985" lon="9.256727178561187"><ele>105.0</ele><time>2026-03-28T08:07:34Z</time></trkpt><trkpt lat="45.4399243550436" lon="9.256655422858719"><ele>105.0</ele><time>2026-03-28T08:07:35Z</time></trkpt><trkpt lat="45.439709751427706" lon="9.256590618297343"><ele>105.0</ele><time>2026-03-28T08:07:36Z</time></trkpt><trkpt lat="45.43950674426877" lon="9.25653234615674"><ele>105.0</ele><time>2026-03-28T08:07:37Z</time></trkpt><trkpt lat="45.43931360697138" lon="9.256471106066197"><ele>105.0</ele><time>2026-03-28T08:07:38Z</time></trkpt><trkpt lat="45.43913015043787" lon="9.256410861706469"><ele>105.0</ele><time>2026-03-28T08:07:39Z</time></trkpt><trkpt lat="45.43895662167379" lon="9.256350772192762"><ele>105.0</ele><time>2026-03-28T08:07:40Z</time></trkpt><trkpt lat="45.43878804251576" lon="9.256290991279988"><ele>105.0</ele><time>2026-03-28T08:07:41Z</time></trkpt><trkpt lat="45.43861699028009" lon="9.25623026991983"><ele>105.0</ele><time>2026-03-28T08:07:42Z</time></trkpt><trkpt lat="45.43844524565785" lon="9.256172166837214"><ele>105.0</ele><time>2026-03-28T08:07:43Z</time></trkpt><trkpt lat="45.43827317710239" lon="9.256111292453575"><ele>105.0</ele><time>2026-03-28T08:07:44Z</time></trkpt><trkpt lat="45.43809997759236" lon="9.256047700420368"><ele>105.0</ele><time>2026-03-28T08:07:45Z</time></trkpt><trkpt lat="45.437923216288894" lon="9.255987198171592"><ele>106.0</ele><time>2026-03-28T08:07:46Z</time></trkpt><trkpt lat="45.43774101172633" lon="9.255931549292168"><ele>107.0</ele><time>2026-03-28T08:07:47Z</time></trkpt><trkpt lat="45.43755815201615" lon="9.255877088171308"><ele>108.0</ele><time>2026-03-28T08:07:48Z</time></trkpt><trkpt lat="45.437373289125794" lon="9.255820368385411"><ele>108.0</ele><time>2026-03-28T08:07:49Z</time></trkpt><trkpt lat="45.43718744751278" lon="9.255763071160928"><ele>108.0</ele><time>2026-03-28T08:07:50Z</time></trkpt><trkpt lat="45.43700048952849" lon="9.255702794580547"><ele>108.0</ele><time>2026-03-28T08:07:51Z</time></trkpt><trkpt lat="45.43681091273164" lon="9.255639563228884"><ele>107.0</ele><time>2026-03-28T08:07:52Z</time></trkpt><trkpt lat="45.43662031326867" lon="9.255572298187117"><ele>106.0</ele><time>2026-03-28T08:07:53Z</time></trkpt><trkpt lat="45.43642960603231" lon="9.255502788845245"><ele>105.0</ele><time>2026-03-28T08:07:54Z</time></trkpt><trkpt lat="45.43623773711382" lon="9.255429491471297"><ele>104.33333333333334</ele><time>2026-03-28T08:07:55Z</time></trkpt><trkpt lat="45.436049195672254" lon="9.255350993439079"><ele>103.66666666666667</ele><time>2026-03-28T08:07:56Z</time></trkpt><trkpt lat="45.43587300801622" lon="9.255265261822977"><ele>103.0</ele><time>2026-03-28T08:07:57Z</time></trkpt><trkpt lat="45.43570774775449" lon="9.255177567004655"><ele>103.0</ele><time>2026-03-28T08:07:58Z</time></trkpt><trkpt lat="45.435552083369714" lon="9.255088598505948"><ele>103.0</ele><time>2026-03-28T08:07:59Z</time></trkpt><trkpt lat="45.43540493054897" lon="9.255009116643105"><ele>103.0</ele><time>2026-03-28T08:08:00Z</time></trkpt><trkpt lat="45.43525923064077" lon="9.254927218498404"><ele>104.0</ele><time>2026-03-28T08:08:01Z</time></trkpt><trkpt lat="45.43511943634609" lon="9.254841513172861"><ele>105.0</ele><time>2026-03-28T08:08:02Z</time></trkpt><trkpt lat="45.43497327757809" lon="9.25474649178829"><ele>106.0</ele><time>2026-03-28T08:08:03Z</time></trkpt><trkpt lat="45.43483488198542" lon="9.254647143361076"><ele>106.0</ele><time>2026-03-28T08:08:03.999Z</time></trkpt><trkpt lat="45.43471232635317" lon="9.254535823475196"><ele>106.0</ele><time>2026-03-28T08:08:04.999Z</time></trkpt><trkpt lat="45.4346068941266" lon="9.254397649892717"><ele>106.0</ele><time>2026-03-28T08:08:05.999Z</time></trkpt><trkpt lat="45.4345199536157" lon="9.2542418658647"><ele>106.0</ele><time>2026-03-28T08:08:06.999Z</time></trkpt><trkpt lat="45.43446166093368" lon="9.254045734683313"><ele>106.33333333333334</ele><time>2026-03-28T08:08:07.999Z</time></trkpt><trkpt lat="45.43443244627994" lon="9.253835568702861"><ele>106.66666666666666</ele><time>2026-03-28T08:08:08.999Z</time></trkpt><trkpt lat="45.43444347030585" lon="9.253617811824618"><ele>107.0</ele><time>2026-03-28T08:08:09.999Z</time></trkpt><trkpt lat="45.434478608288366" lon="9.253400379530847"><ele>107.0</ele><time>2026-03-28T08:08:10.999Z</time></trkpt><trkpt lat="45.434522970397126" lon="9.253187140462881"><ele>107.0</ele><time>2026-03-28T08:08:11.999Z</time></trkpt><trkpt lat="45.434592841641766" lon="9.252991669666391"><ele>107.0</ele><time>2026-03-28T08:08:12.999Z</time></trkpt><trkpt lat="45.434682543759735" lon="9.252830964172537"><ele>107.0</ele><time>2026-03-28T08:08:13.999Z</time></trkpt><trkpt lat="45.43479341805018" lon="9.252696426871609"><ele>107.0</ele><time>2026-03-28T08:08:14.999Z</time></trkpt><trkpt lat="45.434928129168966" lon="9.252611042318819"><ele>107.0</ele><time>2026-03-28T08:08:15.999Z</time></trkpt><trkpt lat="45.43507542412173" lon="9.252580099971146"><ele>107.0</ele><time>2026-03-28T08:08:16.999Z</time></trkpt><trkpt lat="45.43522772188122" lon="9.252593612945342"><ele>107.0</ele><time>2026-03-28T08:08:17.999Z</time></trkpt><trkpt lat="45.43537362961348" lon="9.252658059469754"><ele>107.0</ele><time>2026-03-28T08:08:18.999Z</time></trkpt><trkpt lat="45.43550307964087" lon="9.252770150561215"><ele>107.0</ele><time>2026-03-28T08:08:19.999Z</time></trkpt><trkpt lat="45.435602317035055" lon="9.25292877486951"><ele>107.0</ele><time>2026-03-28T08:08:20.999Z</time></trkpt><trkpt lat="45.435669308579286" lon="9.253114783739491"><ele>107.0</ele><time>2026-03-28T08:08:21.999Z</time></trkpt><trkpt lat="45.43570176777539" lon="9.253312870825509"><ele>107.0</ele><time>2026-03-28T08:08:22.999Z</time></trkpt><trkpt lat="45.43570680220538" lon="9.253512356503654"><ele>107.0</ele><time>2026-03-28T08:08:23.999Z</time></trkpt><trkpt lat="45.43568242564866" lon="9.253709693609006"><ele>107.0</ele><time>2026-03-28T08:08:24.999Z</time></trkpt><trkpt lat="45.4356417854335" lon="9.253895727477133"><ele>107.0</ele><time>2026-03-28T08:08:25.999Z</time></trkpt><trkpt lat="45.435603176319056" lon="9.254071452995506"><ele>107.0</ele><time>2026-03-28T08:08:26.999Z</time></trkpt><trkpt lat="45.43556537733422" lon="9.25425644826892"><ele>107.0</ele><time>2026-03-28T08:08:27.999Z</time></trkpt><trkpt lat="45.43552707353265" lon="9.25444059855434"><ele>106.75</ele><time>2026-03-28T08:08:28.999Z</time></trkpt><trkpt lat="45.435490462924534" lon="9.254605559416783"><ele>106.5</ele><time>2026-03-28T08:08:29.999Z</time></trkpt><trkpt lat="45.43545504967476" lon="9.254767168241646"><ele>106.25</ele><time>2026-03-28T08:08:30.999Z</time></trkpt><trkpt lat="45.4354167351162" lon="9.254934269028471"><ele>106.0</ele><time>2026-03-28T08:08:31.999Z</time></trkpt><trkpt lat="45.43537346597009" lon="9.255107147540993"><ele>106.0</ele><time>2026-03-28T08:08:32.999Z</time></trkpt><trkpt lat="45.43532364600232" lon="9.255283825902652"><ele>106.0</ele><time>2026-03-28T08:08:33.999Z</time></trkpt><trkpt lat="45.43527589104013" lon="9.25546591712102"><ele>106.0</ele><time>2026-03-28T08:08:34.999Z</time></trkpt><trkpt lat="45.43522820662369" lon="9.25565591136041"><ele>106.0</ele><time>2026-03-28T08:08:35.999Z</time></trkpt><trkpt lat="45.435178368759956" lon="9.255851202650891"><ele>108.0</ele><time>2026-03-28T08:08:36.999Z</time></trkpt><trkpt lat="45.43512665886308" lon="9.256052437073125"><ele>110.0</ele><time>2026-03-28T08:08:37.999Z</time></trkpt><trkpt lat="45.435068410430155" lon="9.256263144338442"><ele>112.0</ele><time>2026-03-28T08:08:38.999Z</time></trkpt><trkpt lat="45.435005984169024" lon="9.256486951759758"><ele>112.0</ele><time>2026-03-28T08:08:39.999Z</time></trkpt><trkpt lat="45.43493648195084" lon="9.256714740248547"><ele>112.0</ele><time>2026-03-28T08:08:40.999Z</time></trkpt><trkpt lat="45.43486047859162" lon="9.256946117162054"><ele>112.0</ele><time>2026-03-28T08:08:41.999Z</time></trkpt><trkpt lat="45.434778351489776" lon="9.257179091364216"><ele>110.33333333333334</ele><time>2026-03-28T08:08:42.999Z</time></trkpt><trkpt lat="45.434691599313986" lon="9.257412457565845"><ele>108.66666666666666</ele><time>2026-03-28T08:08:43.999Z</time></trkpt><trkpt lat="45.43459893900952" lon="9.25764388873679"><ele>107.0</ele><time>2026-03-28T08:08:44.999Z</time></trkpt><trkpt lat="45.434502719262575" lon="9.257874505795343"><ele>106.0</ele><time>2026-03-28T08:08:45.999Z</time></trkpt><trkpt lat="45.43440841576537" lon="9.258108538411822"><ele>105.0</ele><time>2026-03-28T08:08:46.999Z</time></trkpt><trkpt lat="45.4343217752212" lon="9.258346819071361"><ele>104.0</ele><time>2026-03-28T08:08:47.999Z</time></trkpt><trkpt lat="45.43424207851977" lon="9.258591013489989"><ele>103.66666666666666</ele><time>2026-03-28T08:08:48.999Z</time></trkpt><trkpt lat="45.43416288027259" lon="9.258834322969586"><ele>103.33333333333334</ele><time>2026-03-28T08:08:49.999Z</time></trkpt><trkpt lat="45.434081607030215" lon="9.259078171482058"><ele>103.0</ele><time>2026-03-28T08:08:50.999Z</time></trkpt><trkpt lat="45.43399895988123" lon="9.259323727003508"><ele>102.66666666666667</ele><time>2026-03-28T08:08:51.999Z</time></trkpt><trkpt lat="45.43391506829531" lon="9.259573757148207"><ele>102.33333333333334</ele><time>2026-03-28T08:08:52.999Z</time></trkpt><trkpt lat="45.43383059039024" lon="9.259826661233864"><ele>102.0</ele><time>2026-03-28T08:08:53.999Z</time></trkpt><trkpt lat="45.43374134881665" lon="9.260084473853347"><ele>102.0</ele><time>2026-03-28T08:08:54.999Z</time></trkpt><trkpt lat="45.43365247311809" lon="9.260345741220508"><ele>102.0</ele><time>2026-03-28T08:08:55.999Z</time></trkpt><trkpt lat="45.433560871450695" lon="9.260605836425789"><ele>102.0</ele><time>2026-03-28T08:08:56.999Z</time></trkpt><trkpt lat="45.433468921901934" lon="9.260871601762029"><ele>102.0</ele><time>2026-03-28T08:08:57.999Z</time></trkpt><trkpt lat="45.43338568320375" lon="9.261147366434201"><ele>102.0</ele><time>2026-03-28T08:08:58.999Z</time></trkpt><trkpt lat="45.43330795246628" lon="9.261431331533887"><ele>102.0</ele><time>2026-03-28T08:08:59.999Z</time></trkpt><trkpt lat="45.43322761022164" lon="9.261714063363158"><ele>101.66666666666666</ele><time>2026-03-28T08:09:00.999Z</time></trkpt><trkpt lat="45.43314285900507" lon="9.261991718913587"><ele>101.33333333333333</ele><time>2026-03-28T08:09:01.999Z</time></trkpt><trkpt lat="45.43305502871122" lon="9.262267068971004"><ele>101.0</ele><time>2026-03-28T08:09:02.999Z</time></trkpt><trkpt lat="45.43296539921841" lon="9.262537787858786"><ele>101.0</ele><time>2026-03-28T08:09:03.999Z</time></trkpt><trkpt lat="45.43287461895021" lon="9.262807859625756"><ele>101.0</ele><time>2026-03-28T08:09:04.999Z</time></trkpt><trkpt lat="45.43278153266252" lon="9.26307726812741"><ele>101.0</ele><time>2026-03-28T08:09:05.999Z</time></trkpt><trkpt lat="45.43268970297578" lon="9.26334573278505"><ele>102.0</ele><time>2026-03-28T08:09:06.999Z</time></trkpt><trkpt lat="45.43259798030364" lon="9.263614972502504"><ele>103.0</ele><time>2026-03-28T08:09:07.999Z</time></trkpt><trkpt lat="45.43250128868009" lon="9.263884982892979"><ele>104.0</ele><time>2026-03-28T08:09:08.999Z</time></trkpt><trkpt lat="45.43239752824772" lon="9.264149428861607"><ele>104.0</ele><time>2026-03-28T08:09:09.999Z</time></trkpt><trkpt lat="45.432285594875715" lon="9.264411228147315"><ele>104.0</ele><time>2026-03-28T08:09:10.999Z</time></trkpt><trkpt lat="45.432165173866075" lon="9.264669010055032"><ele>104.0</ele><time>2026-03-28T08:09:11.999Z</time></trkpt><trkpt lat="45.43203526469265" lon="9.264919646310041"><ele>104.0</ele><time>2026-03-28T08:09:12.999Z</time></trkpt><trkpt lat="45.431898183386735" lon="9.265167175074366"><ele>104.0</ele><time>2026-03-28T08:09:13.999Z</time></trkpt><trkpt lat="45.431756648673414" lon="9.265410661072982"><ele>104.0</ele><time>2026-03-28T08:09:14.999Z</time></trkpt><trkpt lat="45.43161260742501" lon="9.265645858096832"><ele>103.66666666666666</ele><time>2026-03-28T08:09:15.999Z</time></trkpt><trkpt lat="45.43146650269915" lon="9.265879212361657"><ele>103.33333333333334</ele><time>2026-03-28T08:09:16.999Z</time></trkpt><trkpt lat="45.43131549362535" lon="9.266107882939792"><ele>103.0</ele><time>2026-03-28T08:09:17.999Z</time></trkpt><trkpt lat="45.43116634078578" lon="9.26633442619228"><ele>102.33333333333334</ele><time>2026-03-28T08:09:18.999Z</time></trkpt><trkpt lat="45.43102622955828" lon="9.266554416261856"><ele>101.66666666666666</ele><time>2026-03-28T08:09:20Z</time></trkpt><trkpt lat="45.43089659326242" lon="9.266764044596899"><ele>101.0</ele><time>2026-03-28T08:09:21Z</time></trkpt><trkpt lat="45.430772980766896" lon="9.26696238683888"><ele>101.0</ele><time>2026-03-28T08:09:22Z</time></trkpt><trkpt lat="45.4306544303343" lon="9.267147270544596"><ele>101.0</ele><time>2026-03-28T08:09:23Z</time></trkpt><trkpt lat="45.43054094237217" lon="9.267321142218634"><ele>101.0</ele><time>2026-03-28T08:09:24Z</time></trkpt><trkpt lat="45.43043219881644" lon="9.267484623580092"><ele>102.0</ele><time>2026-03-28T08:09:25Z</time></trkpt><trkpt lat="45.43032560400021" lon="9.267643000749642"><ele>103.0</ele><time>2026-03-28T08:09:26Z</time></trkpt><trkpt lat="45.430219493707135" lon="9.267802497665281"><ele>104.0</ele><time>2026-03-28T08:09:27Z</time></trkpt><trkpt lat="45.4301142675949" lon="9.267960781675422"><ele>103.5</ele><time>2026-03-28T08:09:28Z</time></trkpt><trkpt lat="45.430008647988615" lon="9.268117292823337"><ele>103.0</ele><time>2026-03-28T08:09:29Z</time></trkpt><trkpt lat="45.42990782842778" lon="9.268263953895682"><ele>102.5</ele><time>2026-03-28T08:09:30Z</time></trkpt><trkpt lat="45.429810158970014" lon="9.26840015348001"><ele>102.0</ele><time>2026-03-28T08:09:31Z</time></trkpt><trkpt lat="45.42971834031025" lon="9.268522620567623"><ele>102.19999999999999</ele><time>2026-03-28T08:09:32Z</time></trkpt><trkpt lat="45.4296349260352" lon="9.2686349755627"><ele>102.4</ele><time>2026-03-28T08:09:33Z</time></trkpt><trkpt lat="45.429556646107805" lon="9.268738348491734"><ele>102.6</ele><time>2026-03-28T08:09:34Z</time></trkpt><trkpt lat="45.4294864523425" lon="9.268829892095516"><ele>102.80000000000001</ele><time>2026-03-28T08:09:35Z</time></trkpt><trkpt lat="45.42941993904249" lon="9.268910187477218"><ele>103.0</ele><time>2026-03-28T08:09:36Z</time></trkpt><trkpt lat="45.42935701810079" lon="9.26898444529501"><ele>103.0</ele><time>2026-03-28T08:09:37Z</time></trkpt><trkpt lat="45.42928493952677" lon="9.269057258127773"><ele>103.0</ele><time>2026-03-28T08:09:38Z</time></trkpt><trkpt lat="45.42920715525373" lon="9.269133983595314"><ele>103.0</ele><time>2026-03-28T08:09:39Z</time></trkpt><trkpt lat="45.429127749936896" lon="9.269218509418312"><ele>103.0</ele><time>2026-03-28T08:09:40Z</time></trkpt><trkpt lat="45.42906122497888" lon="9.269308718864172"><ele>103.0</ele><time>2026-03-28T08:09:41Z</time></trkpt><trkpt lat="45.42898902440022" lon="9.269399764027044"><ele>103.0</ele><time>2026-03-28T08:09:42Z</time></trkpt><trkpt lat="45.42891625363273" lon="9.269496638882702"><ele>103.0</ele><time>2026-03-28T08:09:43Z</time></trkpt><trkpt lat="45.42884135163659" lon="9.269594621357719"><ele>103.0</ele><time>2026-03-28T08:09:44Z</time></trkpt><trkpt lat="45.428766714244965" lon="9.269686200412899"><ele>103.0</ele><time>2026-03-28T08:09:45Z</time></trkpt><trkpt lat="45.428699926584464" lon="9.269767876102003"><ele>103.0</ele><time>2026-03-28T08:09:46Z</time></trkpt><trkpt lat="45.428637587140194" lon="9.269842571755115"><ele>103.25</ele><time>2026-03-28T08:09:47Z</time></trkpt><trkpt lat="45.42857290188178" lon="9.26991961090288"><ele>103.5</ele><time>2026-03-28T08:09:48Z</time></trkpt><trkpt lat="45.42848960849903" lon="9.27001385771065"><ele>103.75</ele><time>2026-03-28T08:09:49Z</time></trkpt><trkpt lat="45.42838358080717" lon="9.270127213328829"><ele>104.0</ele><time>2026-03-28T08:09:50Z</time></trkpt><trkpt lat="45.428270804455195" lon="9.270258184246135"><ele>104.0</ele><time>2026-03-28T08:09:51Z</time></trkpt><trkpt lat="45.42816125096412" lon="9.270396289782218"><ele>104.0</ele><time>2026-03-28T08:09:52Z</time></trkpt><trkpt lat="45.42804947401583" lon="9.27053662464916"><ele>104.0</ele><time>2026-03-28T08:09:53Z</time></trkpt><trkpt lat="45.42793572559362" lon="9.270673429758553"><ele>104.0</ele><time>2026-03-28T08:09:54Z</time></trkpt><trkpt lat="45.42782084224684" lon="9.27080445940349"><ele>104.5</ele><time>2026-03-28T08:09:55Z</time></trkpt><trkpt lat="45.42771142794058" lon="9.270934085406402"><ele>105.0</ele><time>2026-03-28T08:09:56Z</time></trkpt><trkpt lat="45.42759527027649" lon="9.271066286287816"><ele>105.5</ele><time>2026-03-28T08:09:57Z</time></trkpt><trkpt lat="45.427478592532665" lon="9.271201215751304"><ele>106.0</ele><time>2026-03-28T08:09:58Z</time></trkpt><trkpt lat="45.427362130795906" lon="9.271336218253914"><ele>105.5</ele><time>2026-03-28T08:09:59Z</time></trkpt><trkpt lat="45.42724902065922" lon="9.271469463963934"><ele>105.0</ele><time>2026-03-28T08:10:00Z</time></trkpt><trkpt lat="45.42714115831174" lon="9.271596059353369"><ele>104.5</ele><time>2026-03-28T08:10:01Z</time></trkpt><trkpt lat="45.42703094716972" lon="9.27172448867166"><ele>104.0</ele><time>2026-03-28T08:10:02Z</time></trkpt><trkpt lat="45.42691489278283" lon="9.271857549180073"><ele>103.33333333333333</ele><time>2026-03-28T08:10:03Z</time></trkpt><trkpt lat="45.42679582281078" lon="9.271994061655294"><ele>102.66666666666666</ele><time>2026-03-28T08:10:04Z</time></trkpt><trkpt lat="45.426672843425216" lon="9.27213175728411"><ele>102.0</ele><time>2026-03-28T08:10:05Z</time></trkpt><trkpt lat="45.4265499872465" lon="9.272271965567098"><ele>102.0</ele><time>2026-03-28T08:10:06Z</time></trkpt><trkpt lat="45.42642502790879" lon="9.272409592380896"><ele>102.0</ele><time>2026-03-28T08:10:07Z</time></trkpt><trkpt lat="45.426298624030096" lon="9.272550437474894"><ele>102.0</ele><time>2026-03-28T08:10:08Z</time></trkpt><trkpt lat="45.42617341844949" lon="9.272689441593393"><ele>102.0</ele><time>2026-03-28T08:10:09Z</time></trkpt><trkpt lat="45.42604673107387" lon="9.272831743357212"><ele>102.0</ele><time>2026-03-28T08:10:09.999Z</time></trkpt><trkpt lat="45.42592039076631" lon="9.27297385977567"><ele>102.0</ele><time>2026-03-28T08:10:10.999Z</time></trkpt><trkpt lat="45.42579177798682" lon="9.27312120532413"><ele>102.0</ele><time>2026-03-28T08:10:11.999Z</time></trkpt><trkpt lat="45.425657692767096" lon="9.273273460423672"><ele>102.0</ele><time>2026-03-28T08:10:12.999Z</time></trkpt><trkpt lat="45.425521671565086" lon="9.27343033410536"><ele>102.0</ele><time>2026-03-28T08:10:13.999Z</time></trkpt><trkpt lat="45.42538181589721" lon="9.273589439658785"><ele>102.33333333333334</ele><time>2026-03-28T08:10:14.999Z</time></trkpt><trkpt lat="45.425235359574735" lon="9.27375122464711"><ele>102.66666666666667</ele><time>2026-03-28T08:10:15.999Z</time></trkpt><trkpt lat="45.42508750703488" lon="9.27391989749627"><ele>103.0</ele><time>2026-03-28T08:10:16.999Z</time></trkpt><trkpt lat="45.424938118286285" lon="9.274092968285693"><ele>103.0</ele><time>2026-03-28T08:10:17.999Z</time></trkpt><trkpt lat="45.42478489838902" lon="9.274267316071608"><ele>103.0</ele><time>2026-03-28T08:10:18.999Z</time></trkpt><trkpt lat="45.424628347241836" lon="9.274442521807178"><ele>103.0</ele><time>2026-03-28T08:10:19.999Z</time></trkpt><trkpt lat="45.424469237529955" lon="9.27461962213292"><ele>103.66666666666667</ele><time>2026-03-28T08:10:20.999Z</time></trkpt><trkpt lat="45.42430737203837" lon="9.27479900968286"><ele>104.33333333333334</ele><time>2026-03-28T08:10:21.999Z</time></trkpt><trkpt lat="45.42414738634696" lon="9.274976670092515"><ele>105.0</ele><time>2026-03-28T08:10:22.999Z</time></trkpt><trkpt lat="45.423989805381474" lon="9.275157569017585"><ele>105.0</ele><time>2026-03-28T08:10:23.999Z</time></trkpt><trkpt lat="45.423833730825486" lon="9.275343901489615"><ele>105.0</ele><time>2026-03-28T08:10:24.999Z</time></trkpt><trkpt lat="45.423675046103725" lon="9.275523901275958"><ele>105.0</ele><time>2026-03-28T08:10:25.999Z</time></trkpt><trkpt lat="45.42352224022227" lon="9.275702117468498"><ele>104.0</ele><time>2026-03-28T08:10:26.999Z</time></trkpt><trkpt lat="45.423380431841764" lon="9.275877865561279"><ele>103.0</ele><time>2026-03-28T08:10:27.999Z</time></trkpt><trkpt lat="45.42324582137181" lon="9.276062756821554"><ele>102.0</ele><time>2026-03-28T08:10:28.999Z</time></trkpt><trkpt lat="45.42311736039667" lon="9.276254171641472"><ele>102.0</ele><time>2026-03-28T08:10:29.999Z</time></trkpt><trkpt lat="45.4229937385258" lon="9.276454198271747"><ele>102.0</ele><time>2026-03-28T08:10:30.999Z</time></trkpt><trkpt lat="45.42287624981799" lon="9.276662706254"><ele>102.0</ele><time>2026-03-28T08:10:31.999Z</time></trkpt><trkpt lat="45.42276538753192" lon="9.276876336570533"><ele>101.33333333333334</ele><time>2026-03-28T08:10:32.999Z</time></trkpt><trkpt lat="45.42266107253574" lon="9.27709480416176"><ele>100.66666666666667</ele><time>2026-03-28T08:10:33.999Z</time></trkpt><trkpt lat="45.42256047029774" lon="9.277320783293693"><ele>100.0</ele><time>2026-03-28T08:10:34.999Z</time></trkpt><trkpt lat="45.42246809111286" lon="9.277551570113589"><ele>99.66666666666667</ele><time>2026-03-28T08:10:35.999Z</time></trkpt><trkpt lat="45.42238293849998" lon="9.277790291974046"><ele>99.33333333333334</ele><time>2026-03-28T08:10:36.999Z</time></trkpt><trkpt lat="45.42230492846353" lon="9.278030789904127"><ele>99.0</ele><time>2026-03-28T08:10:37.999Z</time></trkpt><trkpt lat="45.42223452831265" lon="9.278277336858613"><ele>99.0</ele><time>2026-03-28T08:10:38.999Z</time></trkpt><trkpt lat="45.42217020375764" lon="9.278527544440601"><ele>99.0</ele><time>2026-03-28T08:10:39.999Z</time></trkpt><trkpt lat="45.42211079616447" lon="9.278785404486934"><ele>99.0</ele><time>2026-03-28T08:10:40.999Z</time></trkpt><trkpt lat="45.422056873933336" lon="9.279041505186665"><ele>99.0</ele><time>2026-03-28T08:10:41.999Z</time></trkpt><trkpt lat="45.4220128451607" lon="9.279300378381864"><ele>99.0</ele><time>2026-03-28T08:10:42.999Z</time></trkpt><trkpt lat="45.42197636131015" lon="9.279557371693276"><ele>99.0</ele><time>2026-03-28T08:10:43.999Z</time></trkpt><trkpt lat="45.421948404097115" lon="9.27982146575106"><ele>100.0</ele><time>2026-03-28T08:10:44.999Z</time></trkpt><trkpt lat="45.421926531356455" lon="9.280084275579261"><ele>101.0</ele><time>2026-03-28T08:10:45.999Z</time></trkpt><trkpt lat="45.42191233206925" lon="9.280350186526832"><ele>102.0</ele><time>2026-03-28T08:10:46.999Z</time></trkpt><trkpt lat="45.42190730386352" lon="9.280616255826386"><ele>102.0</ele><time>2026-03-28T08:10:47.999Z</time></trkpt><trkpt lat="45.421914235175045" lon="9.280885080727012"><ele>102.0</ele><time>2026-03-28T08:10:48.999Z</time></trkpt><trkpt lat="45.42192777345241" lon="9.281149227040839"><ele>102.0</ele><time>2026-03-28T08:10:49.999Z</time></trkpt><trkpt lat="45.42194844643026" lon="9.281414982161893"><ele>102.0</ele><time>2026-03-28T08:10:50.999Z</time></trkpt><trkpt lat="45.42197296181489" lon="9.281678335770216"><ele>102.0</ele><time>2026-03-28T08:10:51.999Z</time></trkpt><trkpt lat="45.42200660370006" lon="9.281939230378086"><ele>102.0</ele><time>2026-03-28T08:10:52.999Z</time></trkpt><trkpt lat="45.42204534539817" lon="9.282198724454108"><ele>101.33333333333334</ele><time>2026-03-28T08:10:53.999Z</time></trkpt><trkpt lat="45.422089463059244" lon="9.282457661942695"><ele>100.66666666666667</ele><time>2026-03-28T08:10:54.999Z</time></trkpt><trkpt lat="45.4221369840745" lon="9.282716750356"><ele>100.0</ele><time>2026-03-28T08:10:55.999Z</time></trkpt><trkpt lat="45.422183518776144" lon="9.282974927590713"><ele>98.66666666666667</ele><time>2026-03-28T08:10:56.999Z</time></trkpt><trkpt lat="45.4222316347648" lon="9.283236556769886"><ele>97.33333333333334</ele><time>2026-03-28T08:10:57.999Z</time></trkpt><trkpt lat="45.42227749435025" lon="9.283491815023345"><ele>96.0</ele><time>2026-03-28T08:10:58.999Z</time></trkpt><trkpt lat="45.422322752379515" lon="9.283751041711005"><ele>96.33333333333334</ele><time>2026-03-28T08:10:59.999Z</time></trkpt><trkpt lat="45.42236681619868" lon="9.284007486452523"><ele>96.66666666666667</ele><time>2026-03-28T08:11:00.999Z</time></trkpt><trkpt lat="45.42241441092807" lon="9.284264048767689"><ele>97.0</ele><time>2026-03-28T08:11:01.999Z</time></trkpt><trkpt lat="45.422463353357145" lon="9.284521139585436"><ele>97.0</ele><time>2026-03-28T08:11:02.999Z</time></trkpt><trkpt lat="45.42250954016125" lon="9.28477786007758"><ele>97.0</ele><time>2026-03-28T08:11:03.999Z</time></trkpt><trkpt lat="45.42254430218951" lon="9.285036817531626"><ele>97.0</ele><time>2026-03-28T08:11:04.999Z</time></trkpt><trkpt lat="45.422593120842386" lon="9.285292155187554"><ele>97.0</ele><time>2026-03-28T08:11:05.999Z</time></trkpt><trkpt lat="45.422648184683354" lon="9.28554232196092"><ele>97.0</ele><time>2026-03-28T08:11:06.999Z</time></trkpt><trkpt lat="45.42268857746971" lon="9.285801031766816"><ele>97.0</ele><time>2026-03-28T08:11:07.999Z</time></trkpt><trkpt lat="45.422727818387706" lon="9.286057672599418"><ele>97.33333333333334</ele><time>2026-03-28T08:11:08.999Z</time></trkpt><trkpt lat="45.422784577375126" lon="9.28630951440031"><ele>97.66666666666666</ele><time>2026-03-28T08:11:09.999Z</time></trkpt><trkpt lat="45.422820735379325" lon="9.286568798668585"><ele>98.0</ele><time>2026-03-28T08:11:10.999Z</time></trkpt><trkpt lat="45.42285831292551" lon="9.286823943772692"><ele>98.0</ele><time>2026-03-28T08:11:11.999Z</time></trkpt><trkpt lat="45.42291692551298" lon="9.287076647718953"><ele>98.0</ele><time>2026-03-28T08:11:12.999Z</time></trkpt><trkpt lat="45.422956477016996" lon="9.28733867555035"><ele>98.0</ele><time>2026-03-28T08:11:13.999Z</time></trkpt><trkpt lat="45.423002159756976" lon="9.287593588876945"><ele>98.33333333333333</ele><time>2026-03-28T08:11:14.999Z</time></trkpt><trkpt lat="45.423057385795765" lon="9.287849127132313"><ele>98.66666666666666</ele><time>2026-03-28T08:11:15.999Z</time></trkpt><trkpt lat="45.42309980339521" lon="9.288109394834628"><ele>99.0</ele><time>2026-03-28T08:11:16.999Z</time></trkpt><trkpt lat="45.42314742898786" lon="9.288368001611065"><ele>99.33333333333334</ele><time>2026-03-28T08:11:17.999Z</time></trkpt><trkpt lat="45.42319708325376" lon="9.288626216195519"><ele>99.66666666666667</ele><time>2026-03-28T08:11:18.999Z</time></trkpt><trkpt lat="45.423244570824416" lon="9.288888548511341"><ele>100.0</ele><time>2026-03-28T08:11:19.999Z</time></trkpt><trkpt lat="45.423292167304425" lon="9.289149247302564"><ele>100.33333333333334</ele><time>2026-03-28T08:11:20.999Z</time></trkpt><trkpt lat="45.42334048012874" lon="9.2894073454937"><ele>100.66666666666666</ele><time>2026-03-28T08:11:21.999Z</time></trkpt><trkpt lat="45.423387567976555" lon="9.289663817165696"><ele>101.0</ele><time>2026-03-28T08:11:22.999Z</time></trkpt><trkpt lat="45.4234356989228" lon="9.289919782721578"><ele>101.0</ele><time>2026-03-28T08:11:23.999Z</time></trkpt><trkpt lat="45.423484451031186" lon="9.290174829621504"><ele>101.0</ele><time>2026-03-28T08:11:24.999Z</time></trkpt><trkpt lat="45.42353071942744" lon="9.290436040162941"><ele>101.0</ele><time>2026-03-28T08:11:26Z</time></trkpt><trkpt lat="45.42357630744793" lon="9.290694471214628"><ele>101.0</ele><time>2026-03-28T08:11:27Z</time></trkpt><trkpt lat="45.42362324226042" lon="9.290956860036928"><ele>101.0</ele><time>2026-03-28T08:11:28Z</time></trkpt><trkpt lat="45.42367304921936" lon="9.291217120743017"><ele>101.0</ele><time>2026-03-28T08:11:29Z</time></trkpt><trkpt lat="45.42372937602497" lon="9.291490858377548"><ele>101.0</ele><time>2026-03-28T08:11:30Z</time></trkpt><trkpt lat="45.42377613223215" lon="9.291744254999358"><ele>101.0</ele><time>2026-03-28T08:11:31Z</time></trkpt><trkpt lat="45.423823012193" lon="9.292013603358635"><ele>101.0</ele><time>2026-03-28T08:11:32Z</time></trkpt><trkpt lat="45.423872740344514" lon="9.292267345170114"><ele>101.66666666666666</ele><time>2026-03-28T08:11:33Z</time></trkpt><trkpt lat="45.42392322277596" lon="9.292523222081526"><ele>102.33333333333334</ele><time>2026-03-28T08:11:34Z</time></trkpt><trkpt lat="45.423974273939415" lon="9.292782229418929"><ele>103.0</ele><time>2026-03-28T08:11:35Z</time></trkpt><trkpt lat="45.424023662430294" lon="9.293040273760774"><ele>102.33333333333334</ele><time>2026-03-28T08:11:36Z</time></trkpt><trkpt lat="45.42407168072798" lon="9.293299267405844"><ele>101.66666666666666</ele><time>2026-03-28T08:11:37Z</time></trkpt><trkpt lat="45.42412335637495" lon="9.293557118345385"><ele>101.0</ele><time>2026-03-28T08:11:38Z</time></trkpt><trkpt lat="45.42417329886986" lon="9.293813969572698"><ele>100.66666666666666</ele><time>2026-03-28T08:11:39Z</time></trkpt><trkpt lat="45.424221130223955" lon="9.294070098866374"><ele>100.33333333333334</ele><time>2026-03-28T08:11:40Z</time></trkpt><trkpt lat="45.424268942310995" lon="9.294325384985077"><ele>100.0</ele><time>2026-03-28T08:11:41Z</time></trkpt><trkpt lat="45.42431955299182" lon="9.294580491539556"><ele>99.33333333333334</ele><time>2026-03-28T08:11:42Z</time></trkpt><trkpt lat="45.424371623074784" lon="9.294834294295812"><ele>98.66666666666666</ele><time>2026-03-28T08:11:43Z</time></trkpt><trkpt lat="45.424425924671624" lon="9.295088402795834"><ele>98.0</ele><time>2026-03-28T08:11:44Z</time></trkpt><trkpt lat="45.42447827494512" lon="9.295343013556757"><ele>98.0</ele><time>2026-03-28T08:11:45Z</time></trkpt><trkpt lat="45.424526628567655" lon="9.295598987795447"><ele>98.0</ele><time>2026-03-28T08:11:46Z</time></trkpt><trkpt lat="45.42457550177202" lon="9.29585834030401"><ele>98.0</ele><time>2026-03-28T08:11:47Z</time></trkpt><trkpt lat="45.42462418947632" lon="9.296112712291873"><ele>100.0</ele><time>2026-03-28T08:11:48Z</time></trkpt><trkpt lat="45.42466790083692" lon="9.296370179013914"><ele>102.0</ele><time>2026-03-28T08:11:49Z</time></trkpt><trkpt lat="45.424710818080015" lon="9.296628704634303"><ele>104.0</ele><time>2026-03-28T08:11:50Z</time></trkpt><trkpt lat="45.424754446926094" lon="9.29688675055382"><ele>104.33333333333333</ele><time>2026-03-28T08:11:51Z</time></trkpt><trkpt lat="45.424797618771024" lon="9.297138339555508"><ele>104.66666666666666</ele><time>2026-03-28T08:11:52Z</time></trkpt><trkpt lat="45.42483722666574" lon="9.297380212917847"><ele>105.0</ele><time>2026-03-28T08:11:53Z</time></trkpt><trkpt lat="45.42487836058541" lon="9.297621061951148"><ele>104.0</ele><time>2026-03-28T08:11:54Z</time></trkpt><trkpt lat="45.424919288049125" lon="9.297854281897543"><ele>103.0</ele><time>2026-03-28T08:11:55Z</time></trkpt><trkpt lat="45.42495918410196" lon="9.298084425431878"><ele>102.0</ele><time>2026-03-28T08:11:56Z</time></trkpt><trkpt lat="45.425000226745496" lon="9.2983131068881"><ele>101.66666666666666</ele><time>2026-03-28T08:11:57Z</time></trkpt><trkpt lat="45.425039120872285" lon="9.29854091608368"><ele>101.33333333333333</ele><time>2026-03-28T08:11:58Z</time></trkpt><trkpt lat="45.4250778947455" lon="9.2987576495771"><ele>101.0</ele><time>2026-03-28T08:11:59Z</time></trkpt><trkpt lat="45.425116953576406" lon="9.298967933231507"><ele>101.0</ele><time>2026-03-28T08:12:00Z</time></trkpt><trkpt lat="45.425153294920264" lon="9.299182216726235"><ele>101.0</ele><time>2026-03-28T08:12:01Z</time></trkpt><trkpt lat="45.42518903967279" lon="9.299393557799206"><ele>101.0</ele><time>2026-03-28T08:12:02Z</time></trkpt><trkpt lat="45.42522603814959" lon="9.299613077058995"><ele>101.0</ele><time>2026-03-28T08:12:03Z</time></trkpt><trkpt lat="45.42526636165805" lon="9.299827294008303"><ele>101.0</ele><time>2026-03-28T08:12:04Z</time></trkpt><trkpt lat="45.42530450202977" lon="9.300045110288785"><ele>101.0</ele><time>2026-03-28T08:12:05Z</time></trkpt><trkpt lat="45.42534191422138" lon="9.3002649930839"><ele>101.0</ele><time>2026-03-28T08:12:06Z</time></trkpt><trkpt lat="45.42537516197457" lon="9.30048743777019"><ele>101.0</ele><time>2026-03-28T08:12:07Z</time></trkpt><trkpt lat="45.42540859306872" lon="9.300703608979434"><ele>101.0</ele><time>2026-03-28T08:12:08Z</time></trkpt><trkpt lat="45.42544583767972" lon="9.30090959083027"><ele>101.66666666666666</ele><time>2026-03-28T08:12:09Z</time></trkpt><trkpt lat="45.42548561668948" lon="9.30111895745242"><ele>102.33333333333334</ele><time>2026-03-28T08:12:10Z</time></trkpt><trkpt lat="45.42552544475023" lon="9.301330977754265"><ele>103.0</ele><time>2026-03-28T08:12:11Z</time></trkpt><trkpt lat="45.42556220722541" lon="9.301544357871423"><ele>103.0</ele><time>2026-03-28T08:12:12Z</time></trkpt><trkpt lat="45.425599579763826" lon="9.301759414148856"><ele>103.0</ele><time>2026-03-28T08:12:13Z</time></trkpt><trkpt lat="45.42563922361222" lon="9.301979458575753"><ele>103.0</ele><time>2026-03-28T08:12:14Z</time></trkpt><trkpt lat="45.42567963718013" lon="9.302201734138714"><ele>103.0</ele><time>2026-03-28T08:12:15Z</time></trkpt><trkpt lat="45.42572053051217" lon="9.302425066970374"><ele>103.0</ele><time>2026-03-28T08:12:16Z</time></trkpt><trkpt lat="45.42576052755656" lon="9.302636913429911"><ele>103.0</ele><time>2026-03-28T08:12:17Z</time></trkpt><trkpt lat="45.425794822905026" lon="9.302841348953091"><ele>103.0</ele><time>2026-03-28T08:12:17.999Z</time></trkpt><trkpt lat="45.425828908891354" lon="9.303048765973477"><ele>103.0</ele><time>2026-03-28T08:12:18.999Z</time></trkpt><trkpt lat="45.42586297111656" lon="9.303258901836646"><ele>103.0</ele><time>2026-03-28T08:12:19.999Z</time></trkpt><trkpt lat="45.42590181360725" lon="9.303473952447325"><ele>103.0</ele><time>2026-03-28T08:12:20.999Z</time></trkpt><trkpt lat="45.425934879738605" lon="9.30368618011418"><ele>103.0</ele><time>2026-03-28T08:12:21.999Z</time></trkpt><trkpt lat="45.425963840352246" lon="9.303898415522818"><ele>103.0</ele><time>2026-03-28T08:12:22.999Z</time></trkpt><trkpt lat="45.425992926209965" lon="9.304113347991755"><ele>103.0</ele><time>2026-03-28T08:12:23.999Z</time></trkpt><trkpt lat="45.42602435570603" lon="9.304330568604257"><ele>103.0</ele><time>2026-03-28T08:12:24.999Z</time></trkpt><trkpt lat="45.42605490559729" lon="9.30454407812085"><ele>103.0</ele><time>2026-03-28T08:12:25.999Z</time></trkpt><trkpt lat="45.426085381526725" lon="9.304758991607315"><ele>102.5</ele><time>2026-03-28T08:12:26.999Z</time></trkpt><trkpt lat="45.42611543764896" lon="9.304968719033228"><ele>102.0</ele><time>2026-03-28T08:12:27.999Z</time></trkpt><trkpt lat="45.42614629372753" lon="9.305175932273116"><ele>101.5</ele><time>2026-03-28T08:12:28.999Z</time></trkpt><trkpt lat="45.426177426442656" lon="9.3053780768627"><ele>101.0</ele><time>2026-03-28T08:12:29.999Z</time></trkpt><trkpt lat="45.42620991637817" lon="9.30557899309607"><ele>101.0</ele><time>2026-03-28T08:12:30.999Z</time></trkpt><trkpt lat="45.42624120653105" lon="9.305775501789235"><ele>101.0</ele><time>2026-03-28T08:12:31.999Z</time></trkpt><trkpt lat="45.42627434030628" lon="9.305972879533797"><ele>101.0</ele><time>2026-03-28T08:12:32.999Z</time></trkpt><trkpt lat="45.42630751316755" lon="9.306159539351377"><ele>101.0</ele><time>2026-03-28T08:12:33.999Z</time></trkpt><trkpt lat="45.426340028282034" lon="9.306340010309812"><ele>100.75</ele><time>2026-03-28T08:12:34.999Z</time></trkpt><trkpt lat="45.4263713397866" lon="9.30652331382495"><ele>100.5</ele><time>2026-03-28T08:12:35.999Z</time></trkpt><trkpt lat="45.42640301538149" lon="9.306706581080855"><ele>100.25</ele><time>2026-03-28T08:12:36.999Z</time></trkpt><trkpt lat="45.42643389303384" lon="9.30688280303829"><ele>100.0</ele><time>2026-03-28T08:12:37.999Z</time></trkpt><trkpt lat="45.42646256288131" lon="9.307049009871974"><ele>100.0</ele><time>2026-03-28T08:12:38.999Z</time></trkpt><trkpt lat="45.4264922961556" lon="9.30721010602787"><ele>100.0</ele><time>2026-03-28T08:12:39.999Z</time></trkpt><trkpt lat="45.42651978442121" lon="9.307370673579355"><ele>100.0</ele><time>2026-03-28T08:12:40.999Z</time></trkpt><trkpt lat="45.426550439332274" lon="9.307531711430414"><ele>100.0</ele><time>2026-03-28T08:12:41.999Z</time></trkpt><trkpt lat="45.426579640519805" lon="9.307682534934651"><ele>100.00000000000001</ele><time>2026-03-28T08:12:42.999Z</time></trkpt><trkpt lat="45.42660460095963" lon="9.30782036999997"><ele>100.0</ele><time>2026-03-28T08:12:43.999Z</time></trkpt><trkpt lat="45.42662718268898" lon="9.307943606184239"><ele>100.0</ele><time>2026-03-28T08:12:44.999Z</time></trkpt><trkpt lat="45.42664037990179" lon="9.308057657714443"><ele>100.0</ele><time>2026-03-28T08:12:45.999Z</time></trkpt><trkpt lat="45.426642029552156" lon="9.308180314731459"><ele>100.00000000000001</ele><time>2026-03-28T08:12:46.999Z</time></trkpt><trkpt lat="45.42663589821496" lon="9.308307669519348"><ele>100.0</ele><time>2026-03-28T08:12:47.999Z</time></trkpt><trkpt lat="45.42662893645706" lon="9.308428749362282"><ele>100.00000000000001</ele><time>2026-03-28T08:12:48.999Z</time></trkpt><trkpt lat="45.42663080431584" lon="9.308549188370618"><ele>100.0</ele><time>2026-03-28T08:12:49.999Z</time></trkpt><trkpt lat="45.42663434443272" lon="9.308673348528286"><ele>100.0</ele><time>2026-03-28T08:12:50.999Z</time></trkpt><trkpt lat="45.42661801698974" lon="9.308795970988184"><ele>100.0</ele><time>2026-03-28T08:12:51.999Z</time></trkpt><trkpt lat="45.42658185936245" lon="9.308907499318297"><ele>100.00000000000001</ele><time>2026-03-28T08:12:52.999Z</time></trkpt><trkpt lat="45.42652107247351" lon="9.309012459553902"><ele>100.0</ele><time>2026-03-28T08:12:53.999Z</time></trkpt><trkpt lat="45.42643636536734" lon="9.309098153622378"><ele>100.0</ele><time>2026-03-28T08:12:54.999Z</time></trkpt><trkpt lat="45.42634901212938" lon="9.309189003856892"><ele>100.0</ele><time>2026-03-28T08:12:55.999Z</time></trkpt><trkpt lat="45.42623138533" lon="9.309213233527402"><ele>100.0</ele><time>2026-03-28T08:12:56.999Z</time></trkpt><trkpt lat="45.42612632659292" lon="9.309242088027526"><ele>100.0</ele><time>2026-03-28T08:12:57.999Z</time></trkpt><trkpt lat="45.42603208901329" lon="9.30926635664237"><ele>100.0</ele><time>2026-03-28T08:12:58.999Z</time></trkpt><trkpt lat="45.42594703107003" lon="9.309283525195147"><ele>100.00000000000001</ele><time>2026-03-28T08:12:59.999Z</time></trkpt><trkpt lat="45.42586821814719" lon="9.309298732411342"><ele>100.0</ele><time>2026-03-28T08:13:00.999Z</time></trkpt><trkpt lat="45.425797908950244" lon="9.309313186132854"><ele>100.0</ele><time>2026-03-28T08:13:01.999Z</time></trkpt><trkpt lat="45.425732045662755" lon="9.309328476881744"><ele>100.0</ele><time>2026-03-28T08:13:02.999Z</time></trkpt><trkpt lat="45.425669839054514" lon="9.30934271729274"><ele>100.00000000000001</ele><time>2026-03-28T08:13:03.999Z</time></trkpt><trkpt lat="45.425552989496616" lon="9.309366019789463"><ele>100.0</ele><time>2026-03-28T08:13:05.999Z</time></trkpt><trkpt lat="45.42543178031079" lon="9.309341776970335"><ele>100.00000000000001</ele><time>2026-03-28T08:13:07.999Z</time></trkpt><trkpt lat="45.42532695141492" lon="9.309300788529669"><ele>100.0</ele><time>2026-03-28T08:13:09.999Z</time></trkpt><trkpt lat="45.42526443510072" lon="9.30932600486609"><ele>100.0</ele><time>2026-03-28T08:13:10.999Z</time></trkpt><trkpt lat="45.4252054728873" lon="9.309400968178348"><ele>100.0</ele><time>2026-03-28T08:13:11.999Z</time></trkpt><trkpt lat="45.42513974365944" lon="9.30948315291768"><ele>100.00000000000001</ele><time>2026-03-28T08:13:12.999Z</time></trkpt><trkpt lat="45.42505566546818" lon="9.309536783853329"><ele>100.0</ele><time>2026-03-28T08:13:13.999Z</time></trkpt><trkpt lat="45.42497488631631" lon="9.30957325295673"><ele>100.0</ele><time>2026-03-28T08:13:14.999Z</time></trkpt><trkpt lat="45.42490273502026" lon="9.309614389568395"><ele>100.0</ele><time>2026-03-28T08:13:15.999Z</time></trkpt><trkpt lat="45.42482296001962" lon="9.30966575013878"><ele>100.0</ele><time>2026-03-28T08:13:16.999Z</time></trkpt><trkpt lat="45.424717607591255" lon="9.309730968721478"><ele>100.0</ele><time>2026-03-28T08:13:17.999Z</time></trkpt><trkpt lat="45.424601793153116" lon="9.309817464010205"><ele>100.0</ele><time>2026-03-28T08:13:18.999Z</time></trkpt><trkpt lat="45.42449943438181" lon="9.309913282885898"><ele>100.25</ele><time>2026-03-28T08:13:19.999Z</time></trkpt><trkpt lat="45.42439338600177" lon="9.310032246384855"><ele>100.5</ele><time>2026-03-28T08:13:20.999Z</time></trkpt><trkpt lat="45.4242880241877" lon="9.310164681386167"><ele>100.75</ele><time>2026-03-28T08:13:21.999Z</time></trkpt><trkpt lat="45.42418382757854" lon="9.310294733588021"><ele>101.0</ele><time>2026-03-28T08:13:22.999Z</time></trkpt><trkpt lat="45.42407621610128" lon="9.31041955183905"><ele>101.0</ele><time>2026-03-28T08:13:23.999Z</time></trkpt><trkpt lat="45.423970031253475" lon="9.31054732990827"><ele>101.0</ele><time>2026-03-28T08:13:24.999Z</time></trkpt><trkpt lat="45.42387044215621" lon="9.310672663749651"><ele>101.0</ele><time>2026-03-28T08:13:25.999Z</time></trkpt><trkpt lat="45.423759220625485" lon="9.310805070000123"><ele>101.0</ele><time>2026-03-28T08:13:26.999Z</time></trkpt><trkpt lat="45.423647088020296" lon="9.310935746825914"><ele>101.25</ele><time>2026-03-28T08:13:27.999Z</time></trkpt><trkpt lat="45.42353905221442" lon="9.311073776201246"><ele>101.5</ele><time>2026-03-28T08:13:28.999Z</time></trkpt><trkpt lat="45.42342610475029" lon="9.311209196363075"><ele>101.75</ele><time>2026-03-28T08:13:29.999Z</time></trkpt><trkpt lat="45.423313912179474" lon="9.311342895657704"><ele>102.0</ele><time>2026-03-28T08:13:30.999Z</time></trkpt><trkpt lat="45.4231965968374" lon="9.311479715550433"><ele>101.33333333333334</ele><time>2026-03-28T08:13:32Z</time></trkpt><trkpt lat="45.42307258907175" lon="9.311610282877913"><ele>100.66666666666667</ele><time>2026-03-28T08:13:33Z</time></trkpt><trkpt lat="45.42294323357093" lon="9.31172464359757"><ele>100.0</ele><time>2026-03-28T08:13:34Z</time></trkpt><trkpt lat="45.42281267873016" lon="9.311820450659015"><ele>100.0</ele><time>2026-03-28T08:13:35Z</time></trkpt><trkpt lat="45.422681774217445" lon="9.311899909053382"><ele>100.0</ele><time>2026-03-28T08:13:36Z</time></trkpt><trkpt lat="45.42254589983764" lon="9.311973242468273"><ele>100.0</ele><time>2026-03-28T08:13:37Z</time></trkpt><trkpt lat="45.42240389558279" lon="9.312035907446829"><ele>100.0</ele><time>2026-03-28T08:13:38Z</time></trkpt><trkpt lat="45.422250125478115" lon="9.312096323204159"><ele>99.66666666666667</ele><time>2026-03-28T08:13:39Z</time></trkpt><trkpt lat="45.42208185095006" lon="9.312158527114331"><ele>99.33333333333334</ele><time>2026-03-28T08:13:40Z</time></trkpt><trkpt lat="45.42190026107283" lon="9.312225975451085"><ele>99.0</ele><time>2026-03-28T08:13:41Z</time></trkpt><trkpt lat="45.42170945972822" lon="9.312303148598573"><ele>98.66666666666666</ele><time>2026-03-28T08:13:42Z</time></trkpt><trkpt lat="45.42150982088506" lon="9.312385741590733"><ele>98.33333333333333</ele><time>2026-03-28T08:13:43Z</time></trkpt><trkpt lat="45.42130502051405" lon="9.31246580582633"><ele>98.0</ele><time>2026-03-28T08:13:44Z</time></trkpt><trkpt lat="45.42109212906737" lon="9.312540904410193"><ele>98.0</ele><time>2026-03-28T08:13:45Z</time></trkpt><trkpt lat="45.42087340473901" lon="9.312612961707925"><ele>98.0</ele><time>2026-03-28T08:13:46Z</time></trkpt><trkpt lat="45.420651961353045" lon="9.312682349160285"><ele>97.5</ele><time>2026-03-28T08:13:47Z</time></trkpt><trkpt lat="45.42042680767822" lon="9.31275994877022"><ele>97.0</ele><time>2026-03-28T08:13:48Z</time></trkpt><trkpt lat="45.42020117824373" lon="9.312847235905817"><ele>97.0</ele><time>2026-03-28T08:13:49Z</time></trkpt><trkpt lat="45.41997668711638" lon="9.312934362147047"><ele>97.0</ele><time>2026-03-28T08:13:50Z</time></trkpt><trkpt lat="45.419757223463385" lon="9.313016717693156"><ele>96.5</ele><time>2026-03-28T08:13:51Z</time></trkpt><trkpt lat="45.41953909484432" lon="9.313096624909473"><ele>96.0</ele><time>2026-03-28T08:13:52Z</time></trkpt><trkpt lat="45.41932112822766" lon="9.313174054833231"><ele>96.0</ele><time>2026-03-28T08:13:53Z</time></trkpt><trkpt lat="45.41910532852004" lon="9.313251047280502"><ele>96.0</ele><time>2026-03-28T08:13:54Z</time></trkpt><trkpt lat="45.41889120813966" lon="9.31332833984532"><ele>96.0</ele><time>2026-03-28T08:13:55Z</time></trkpt><trkpt lat="45.418676679099036" lon="9.31340748916583"><ele>96.33333333333334</ele><time>2026-03-28T08:13:56Z</time></trkpt><trkpt lat="45.418461461967" lon="9.31348833473853"><ele>96.66666666666667</ele><time>2026-03-28T08:13:57Z</time></trkpt><trkpt lat="45.418246280438126" lon="9.313566964146045"><ele>97.0</ele><time>2026-03-28T08:13:58Z</time></trkpt><trkpt lat="45.41803040741121" lon="9.313643854933366"><ele>97.0</ele><time>2026-03-28T08:13:59Z</time></trkpt><trkpt lat="45.4178139504918" lon="9.31372124247632"><ele>97.0</ele><time>2026-03-28T08:14:00Z</time></trkpt><trkpt lat="45.41759770962592" lon="9.313799636980525"><ele>97.0</ele><time>2026-03-28T08:14:01Z</time></trkpt><trkpt lat="45.41738183105732" lon="9.31388044596919"><ele>96.66666666666667</ele><time>2026-03-28T08:14:02Z</time></trkpt><trkpt lat="45.41716666303832" lon="9.313960766299138"><ele>96.33333333333334</ele><time>2026-03-28T08:14:03Z</time></trkpt><trkpt lat="45.41695119863434" lon="9.314041105963023"><ele>96.0</ele><time>2026-03-28T08:14:04Z</time></trkpt><trkpt lat="45.416735582213576" lon="9.31412079045306"><ele>96.0</ele><time>2026-03-28T08:14:05Z</time></trkpt><trkpt lat="45.41651955372452" lon="9.314201960385885"><ele>96.0</ele><time>2026-03-28T08:14:06Z</time></trkpt><trkpt lat="45.41630361707098" lon="9.31428445300915"><ele>96.0</ele><time>2026-03-28T08:14:07Z</time></trkpt><trkpt lat="45.41608776781738" lon="9.314366738564424"><ele>96.0</ele><time>2026-03-28T08:14:08Z</time></trkpt><trkpt lat="45.41587206613992" lon="9.314445744907843"><ele>96.0</ele><time>2026-03-28T08:14:09Z</time></trkpt><trkpt lat="45.41565626586443" lon="9.314534038233495"><ele>96.0</ele><time>2026-03-28T08:14:10Z</time></trkpt><trkpt lat="45.4154395302101" lon="9.314617889024763"><ele>96.0</ele><time>2026-03-28T08:14:11Z</time></trkpt><trkpt lat="45.41522523154869" lon="9.314693224994851"><ele>96.0</ele><time>2026-03-28T08:14:12Z</time></trkpt><trkpt lat="45.41501063085712" lon="9.31477195506517"><ele>96.0</ele><time>2026-03-28T08:14:13Z</time></trkpt><trkpt lat="45.4147954894054" lon="9.314850534460673"><ele>96.0</ele><time>2026-03-28T08:14:14Z</time></trkpt><trkpt lat="45.414579267460695" lon="9.314925440961044"><ele>96.0</ele><time>2026-03-28T08:14:15Z</time></trkpt><trkpt lat="45.4143610682471" lon="9.314989344761617"><ele>96.0</ele><time>2026-03-28T08:14:16Z</time></trkpt><trkpt lat="45.41414090274668" lon="9.315033979139912"><ele>96.0</ele><time>2026-03-28T08:14:17Z</time></trkpt><trkpt lat="45.41391928868874" lon="9.315060521587599"><ele>96.0</ele><time>2026-03-28T08:14:18Z</time></trkpt><trkpt lat="45.41369723591201" lon="9.31507829693101"><ele>96.0</ele><time>2026-03-28T08:14:19Z</time></trkpt><trkpt lat="45.41349242073958" lon="9.31509792177735"><ele>95.33333333333333</ele><time>2026-03-28T08:14:19.999Z</time></trkpt><trkpt lat="45.41329587323808" lon="9.315119337662486"><ele>94.66666666666666</ele><time>2026-03-28T08:14:20.999Z</time></trkpt><trkpt lat="45.413093447524574" lon="9.315140572954965"><ele>94.0</ele><time>2026-03-28T08:14:21.999Z</time></trkpt><trkpt lat="45.41288993114319" lon="9.315164989798843"><ele>93.66666666666666</ele><time>2026-03-28T08:14:22.999Z</time></trkpt><trkpt lat="45.41268763573368" lon="9.315190853546849"><ele>93.33333333333333</ele><time>2026-03-28T08:14:23.999Z</time></trkpt><trkpt lat="45.41248405930586" lon="9.31521470390978"><ele>93.0</ele><time>2026-03-28T08:14:24.999Z</time></trkpt><trkpt lat="45.41227985965889" lon="9.315240728658758"><ele>93.33333333333333</ele><time>2026-03-28T08:14:25.999Z</time></trkpt><trkpt lat="45.41207527315169" lon="9.31526322969087"><ele>93.66666666666666</ele><time>2026-03-28T08:14:26.999Z</time></trkpt><trkpt lat="45.41186967659187" lon="9.315276259217116"><ele>94.0</ele><time>2026-03-28T08:14:27.999Z</time></trkpt><trkpt lat="45.41166595322771" lon="9.315295077831843"><ele>94.0</ele><time>2026-03-28T08:14:28.999Z</time></trkpt><trkpt lat="45.41146049354271" lon="9.315322339225322"><ele>94.0</ele><time>2026-03-28T08:14:29.999Z</time></trkpt><trkpt lat="45.411257782579185" lon="9.315363661983278"><ele>94.0</ele><time>2026-03-28T08:14:30.999Z</time></trkpt><trkpt lat="45.41105805509524" lon="9.315427631381622"><ele>94.0</ele><time>2026-03-28T08:14:31.999Z</time></trkpt><trkpt lat="45.41086588108682" lon="9.315520401987502"><ele>94.0</ele><time>2026-03-28T08:14:32.999Z</time></trkpt><trkpt lat="45.41067991739666" lon="9.315641665591418"><ele>94.0</ele><time>2026-03-28T08:14:33.999Z</time></trkpt><trkpt lat="45.41049293747431" lon="9.315761865363763"><ele>93.33333333333333</ele><time>2026-03-28T08:14:34.999Z</time></trkpt><trkpt lat="45.41029680821031" lon="9.31585427317445"><ele>92.66666666666667</ele><time>2026-03-28T08:14:35.999Z</time></trkpt><trkpt lat="45.41010816189861" lon="9.31595469152932"><ele>92.0</ele><time>2026-03-28T08:14:36.999Z</time></trkpt><trkpt lat="45.40993120155406" lon="9.316101283574291"><ele>92.0</ele><time>2026-03-28T08:14:37.999Z</time></trkpt><trkpt lat="45.40974652562216" lon="9.316217891406701"><ele>92.0</ele><time>2026-03-28T08:14:38.999Z</time></trkpt><trkpt lat="45.40955595659566" lon="9.316325293978773"><ele>92.0</ele><time>2026-03-28T08:14:39.999Z</time></trkpt><trkpt lat="45.409388295282234" lon="9.316486744324955"><ele>92.33333333333334</ele><time>2026-03-28T08:14:40.999Z</time></trkpt><trkpt lat="45.409212114621624" lon="9.316617609485451"><ele>92.66666666666667</ele><time>2026-03-28T08:14:41.999Z</time></trkpt><trkpt lat="45.409032379225046" lon="9.316751342282974"><ele>93.0</ele><time>2026-03-28T08:14:42.999Z</time></trkpt><trkpt lat="45.408860869889516" lon="9.316906725278532"><ele>92.66666666666667</ele><time>2026-03-28T08:14:43.999Z</time></trkpt><trkpt lat="45.408677764821356" lon="9.317027665346616"><ele>92.33333333333334</ele><time>2026-03-28T08:14:44.999Z</time></trkpt><trkpt lat="45.408504986171025" lon="9.317179735891367"><ele>92.0</ele><time>2026-03-28T08:14:45.999Z</time></trkpt><trkpt lat="45.40832203386032" lon="9.317306882745006"><ele>92.66666666666667</ele><time>2026-03-28T08:14:46.999Z</time></trkpt><trkpt lat="45.4081487642472" lon="9.317457736667386"><ele>93.33333333333333</ele><time>2026-03-28T08:14:47.999Z</time></trkpt><trkpt lat="45.40797589978243" lon="9.31760732891397"><ele>94.0</ele><time>2026-03-28T08:14:48.999Z</time></trkpt><trkpt lat="45.40778991254587" lon="9.317723044639044"><ele>94.0</ele><time>2026-03-28T08:14:49.999Z</time></trkpt><trkpt lat="45.40761990276583" lon="9.317884138931126"><ele>94.0</ele><time>2026-03-28T08:14:50.999Z</time></trkpt><trkpt lat="45.40743751337472" lon="9.318001579495416"><ele>94.0</ele><time>2026-03-28T08:14:51.999Z</time></trkpt><trkpt lat="45.4072543463066" lon="9.318132997810606"><ele>93.66666666666666</ele><time>2026-03-28T08:14:52.999Z</time></trkpt><trkpt lat="45.40707748994795" lon="9.31827847102342"><ele>93.33333333333333</ele><time>2026-03-28T08:14:53.999Z</time></trkpt><trkpt lat="45.406887970915264" lon="9.318390161700203"><ele>93.0</ele><time>2026-03-28T08:14:54.999Z</time></trkpt><trkpt lat="45.406704905532834" lon="9.318517074934082"><ele>93.0</ele><time>2026-03-28T08:14:55.999Z</time></trkpt><trkpt lat="45.40651950363739" lon="9.318644742890342"><ele>93.0</ele><time>2026-03-28T08:14:56.999Z</time></trkpt><trkpt lat="45.40633468876176" lon="9.318768100151853"><ele>93.0</ele><time>2026-03-28T08:14:57.999Z</time></trkpt><trkpt lat="45.40614824687765" lon="9.318891212333666"><ele>93.0</ele><time>2026-03-28T08:14:58.999Z</time></trkpt><trkpt lat="45.405954999290394" lon="9.319001708080036"><ele>93.0</ele><time>2026-03-28T08:14:59.999Z</time></trkpt><trkpt lat="45.40576169338116" lon="9.31911044676071"><ele>93.0</ele><time>2026-03-28T08:15:00.999Z</time></trkpt><trkpt lat="45.40556754236196" lon="9.319211182314465"><ele>93.33333333333333</ele><time>2026-03-28T08:15:01.999Z</time></trkpt><trkpt lat="45.40537278127707" lon="9.319304149305706"><ele>93.66666666666666</ele><time>2026-03-28T08:15:02.999Z</time></trkpt><trkpt lat="45.40517579188679" lon="9.319397396425991"><ele>94.0</ele><time>2026-03-28T08:15:03.999Z</time></trkpt><trkpt lat="45.404979377776456" lon="9.319488017329096"><ele>94.0</ele><time>2026-03-28T08:15:04.999Z</time></trkpt><trkpt lat="45.40478503894198" lon="9.319577358995431"><ele>94.0</ele><time>2026-03-28T08:15:05.999Z</time></trkpt><trkpt lat="45.40458877301361" lon="9.319667689562051"><ele>94.0</ele><time>2026-03-28T08:15:06.999Z</time></trkpt><trkpt lat="45.40439378125025" lon="9.319758734207468"><ele>93.66666666666666</ele><time>2026-03-28T08:15:07.999Z</time></trkpt><trkpt lat="45.40419887941028" lon="9.31985082628637"><ele>93.33333333333333</ele><time>2026-03-28T08:15:08.999Z</time></trkpt><trkpt lat="45.404003669108825" lon="9.319945615993912"><ele>93.0</ele><time>2026-03-28T08:15:09.999Z</time></trkpt><trkpt lat="45.403809204766524" lon="9.320041603476334"><ele>92.66666666666667</ele><time>2026-03-28T08:15:10.999Z</time></trkpt><trkpt lat="45.403615220697446" lon="9.32013608634615"><ele>92.33333333333334</ele><time>2026-03-28T08:15:11.999Z</time></trkpt><trkpt lat="45.403419210337404" lon="9.320228712960319"><ele>92.0</ele><time>2026-03-28T08:15:12.999Z</time></trkpt><trkpt lat="45.403223687783175" lon="9.320322809767982"><ele>92.0</ele><time>2026-03-28T08:15:13.999Z</time></trkpt><trkpt lat="45.403028633803984" lon="9.320414671418511"><ele>92.0</ele><time>2026-03-28T08:15:14.999Z</time></trkpt><trkpt lat="45.40283363620515" lon="9.320510187392648"><ele>92.0</ele><time>2026-03-28T08:15:15.999Z</time></trkpt><trkpt lat="45.40263832807657" lon="9.3206008031655"><ele>92.0</ele><time>2026-03-28T08:15:16.999Z</time></trkpt><trkpt lat="45.402442668709966" lon="9.320690594129537"><ele>92.0</ele><time>2026-03-28T08:15:17.999Z</time></trkpt><trkpt lat="45.40224584598466" lon="9.320781800475887"><ele>92.0</ele><time>2026-03-28T08:15:18.999Z</time></trkpt><trkpt lat="45.402050405341285" lon="9.320874324573614"><ele>91.0</ele><time>2026-03-28T08:15:19.999Z</time></trkpt><trkpt lat="45.401865235414924" lon="9.32096370224986"><ele>90.0</ele><time>2026-03-28T08:15:20.999Z</time></trkpt><trkpt lat="45.401692991611995" lon="9.321044280311652"><ele>89.0</ele><time>2026-03-28T08:15:21.999Z</time></trkpt><trkpt lat="45.40153197264501" lon="9.321123128972685"><ele>89.0</ele><time>2026-03-28T08:15:22.999Z</time></trkpt><trkpt lat="45.40137100232185" lon="9.321200870383423"><ele>89.0</ele><time>2026-03-28T08:15:23.999Z</time></trkpt><trkpt lat="45.4012097279701" lon="9.32128228447683"><ele>89.0</ele><time>2026-03-28T08:15:24.999Z</time></trkpt><trkpt lat="45.40104299251728" lon="9.321380312360825"><ele>89.66666666666667</ele><time>2026-03-28T08:15:25.999Z</time></trkpt><trkpt lat="45.400884398949025" lon="9.321499406903317"><ele>90.33333333333333</ele><time>2026-03-28T08:15:26.999Z</time></trkpt><trkpt lat="45.40072960284467" lon="9.321641364909647"><ele>91.0</ele><time>2026-03-28T08:15:27.999Z</time></trkpt><trkpt lat="45.40057235523854" lon="9.321796913002075"><ele>92.0</ele><time>2026-03-28T08:15:28.999Z</time></trkpt><trkpt lat="45.400413598609305" lon="9.321959922025979"><ele>93.0</ele><time>2026-03-28T08:15:29.999Z</time></trkpt><trkpt lat="45.40025262693513" lon="9.322128795730965"><ele>94.0</ele><time>2026-03-28T08:15:30.999Z</time></trkpt><trkpt lat="45.400087789062795" lon="9.322304412411977"><ele>94.0</ele><time>2026-03-28T08:15:31.999Z</time></trkpt><trkpt lat="45.39992412968498" lon="9.322489766932714"><ele>94.0</ele><time>2026-03-28T08:15:32.999Z</time></trkpt><trkpt lat="45.39975806922143" lon="9.322680189225656"><ele>94.0</ele><time>2026-03-28T08:15:33.999Z</time></trkpt><trkpt lat="45.39959436768919" lon="9.322865777196128"><ele>93.66666666666666</ele><time>2026-03-28T08:15:34.999Z</time></trkpt><trkpt lat="45.39942518047273" lon="9.323053180565614"><ele>93.33333333333333</ele><time>2026-03-28T08:15:35.999Z</time></trkpt><trkpt lat="45.399258204251915" lon="9.323234931329772"><ele>93.0</ele><time>2026-03-28T08:15:36.999Z</time></trkpt><trkpt lat="45.39908569129338" lon="9.323422419795039"><ele>93.0</ele><time>2026-03-28T08:15:38Z</time></trkpt><trkpt lat="45.398915468771364" lon="9.323602846801746"><ele>93.0</ele><time>2026-03-28T08:15:39Z</time></trkpt><trkpt lat="45.398744156353125" lon="9.323784204762713"><ele>93.0</ele><time>2026-03-28T08:15:40Z</time></trkpt><trkpt lat="45.39857218610206" lon="9.323957593320173"><ele>93.33333333333333</ele><time>2026-03-28T08:15:41Z</time></trkpt><trkpt lat="45.39840299009964" lon="9.324130933377296"><ele>93.66666666666666</ele><time>2026-03-28T08:15:42Z</time></trkpt><trkpt lat="45.39823436291914" lon="9.324309193182437"><ele>94.0</ele><time>2026-03-28T08:15:43Z</time></trkpt><trkpt lat="45.398065627983804" lon="9.32448730155824"><ele>93.66666666666666</ele><time>2026-03-28T08:15:44Z</time></trkpt><trkpt lat="45.397899620715286" lon="9.324665641131014"><ele>93.33333333333333</ele><time>2026-03-28T08:15:45Z</time></trkpt><trkpt lat="45.39773072825828" lon="9.32484083138392"><ele>93.0</ele><time>2026-03-28T08:15:46Z</time></trkpt><trkpt lat="45.39756087052833" lon="9.325017005863549"><ele>93.0</ele><time>2026-03-28T08:15:47Z</time></trkpt><trkpt lat="45.39739726632864" lon="9.325192665958037"><ele>93.0</ele><time>2026-03-28T08:15:48Z</time></trkpt><trkpt lat="45.39724477040992" lon="9.325357071895732"><ele>93.0</ele><time>2026-03-28T08:15:49Z</time></trkpt><trkpt lat="45.39709749210885" lon="9.325508153103955"><ele>93.0</ele><time>2026-03-28T08:15:50Z</time></trkpt><trkpt lat="45.396959051262556" lon="9.325649946915487"><ele>93.0</ele><time>2026-03-28T08:15:51Z</time></trkpt><trkpt lat="45.39683322366627" lon="9.325773852317587"><ele>93.0</ele><time>2026-03-28T08:15:52Z</time></trkpt><trkpt lat="45.39671431734691" lon="9.325887589004616"><ele>93.0</ele><time>2026-03-28T08:15:53Z</time></trkpt><trkpt lat="45.39659423442918" lon="9.325985305455452"><ele>93.0</ele><time>2026-03-28T08:15:54Z</time></trkpt><trkpt lat="45.396465253207595" lon="9.32601489283869"><ele>93.0</ele><time>2026-03-28T08:15:55Z</time></trkpt><trkpt lat="45.3963343707571" lon="9.326036854573113"><ele>93.0</ele><time>2026-03-28T08:15:56Z</time></trkpt><trkpt lat="45.396216011005514" lon="9.326114414947773"><ele>92.5</ele><time>2026-03-28T08:15:57Z</time></trkpt><trkpt lat="45.39613824312041" lon="9.326257490558909"><ele>92.0</ele><time>2026-03-28T08:15:58Z</time></trkpt><trkpt lat="45.39609017257601" lon="9.326440025132964"><ele>91.5</ele><time>2026-03-28T08:15:59Z</time></trkpt><trkpt lat="45.3960298300244" lon="9.326635463408467"><ele>91.0</ele><time>2026-03-28T08:16:00Z</time></trkpt><trkpt lat="45.3959176859718" lon="9.32679979483893"><ele>91.0</ele><time>2026-03-28T08:16:01Z</time></trkpt><trkpt lat="45.39576390310236" lon="9.32693090731829"><ele>91.0</ele><time>2026-03-28T08:16:02Z</time></trkpt><trkpt lat="45.395611240728364" lon="9.327084254697308"><ele>91.0</ele><time>2026-03-28T08:16:03Z</time></trkpt><trkpt lat="45.39546446127464" lon="9.327255740867692"><ele>91.66666666666666</ele><time>2026-03-28T08:16:04Z</time></trkpt><trkpt lat="45.39532145332161" lon="9.327415069663077"><ele>92.33333333333333</ele><time>2026-03-28T08:16:05Z</time></trkpt><trkpt lat="45.3951765280036" lon="9.327572809356425"><ele>93.0</ele><time>2026-03-28T08:16:06Z</time></trkpt><trkpt lat="45.395027357758465" lon="9.327732136968596"><ele>93.0</ele><time>2026-03-28T08:16:07Z</time></trkpt><trkpt lat="45.394876451073536" lon="9.327898077774865"><ele>93.0</ele><time>2026-03-28T08:16:08Z</time></trkpt><trkpt lat="45.394721170828014" lon="9.328068279254598"><ele>93.0</ele><time>2026-03-28T08:16:09Z</time></trkpt><trkpt lat="45.39456017086431" lon="9.328242402097215"><ele>92.66666666666667</ele><time>2026-03-28T08:16:10Z</time></trkpt><trkpt lat="45.394394774913685" lon="9.328416764500297"><ele>92.33333333333334</ele><time>2026-03-28T08:16:11Z</time></trkpt><trkpt lat="45.39422856569071" lon="9.328595082091013"><ele>92.0</ele><time>2026-03-28T08:16:12Z</time></trkpt><trkpt lat="45.3940592649833" lon="9.328774663761608"><ele>92.33333333333334</ele><time>2026-03-28T08:16:13Z</time></trkpt><trkpt lat="45.3938930689978" lon="9.328951003677135"><ele>92.66666666666667</ele><time>2026-03-28T08:16:14Z</time></trkpt><trkpt lat="45.393726191175666" lon="9.329125512121143"><ele>93.0</ele><time>2026-03-28T08:16:15Z</time></trkpt><trkpt lat="45.39356214643385" lon="9.32930415553291"><ele>92.33333333333333</ele><time>2026-03-28T08:16:16Z</time></trkpt><trkpt lat="45.39339828410995" lon="9.32948278469165"><ele>91.66666666666666</ele><time>2026-03-28T08:16:17Z</time></trkpt><trkpt lat="45.39323037946115" lon="9.329655688081154"><ele>91.0</ele><time>2026-03-28T08:16:18Z</time></trkpt><trkpt lat="45.39306046273274" lon="9.329830362462877"><ele>91.0</ele><time>2026-03-28T08:16:19Z</time></trkpt><trkpt lat="45.392894289624216" lon="9.330006858137851"><ele>91.0</ele><time>2026-03-28T08:16:20Z</time></trkpt><trkpt lat="45.392729578229506" lon="9.33018371423801"><ele>91.0</ele><time>2026-03-28T08:16:21Z</time></trkpt><trkpt lat="45.3925646588187" lon="9.330360311145242"><ele>91.0</ele><time>2026-03-28T08:16:22Z</time></trkpt><trkpt lat="45.39239929708381" lon="9.330535867984889"><ele>91.0</ele><time>2026-03-28T08:16:23Z</time></trkpt><trkpt lat="45.39223243755421" lon="9.330710693593376"><ele>91.0</ele><time>2026-03-28T08:16:23.999Z</time></trkpt><trkpt lat="45.39206542148923" lon="9.330884242122908"><ele>91.33333333333333</ele><time>2026-03-28T08:16:24.999Z</time></trkpt><trkpt lat="45.39190070790847" lon="9.331060193667886"><ele>91.66666666666667</ele><time>2026-03-28T08:16:25.999Z</time></trkpt><trkpt lat="45.39173481547656" lon="9.331238069231809"><ele>92.0</ele><time>2026-03-28T08:16:26.999Z</time></trkpt><trkpt lat="45.39156953948255" lon="9.331415038374518"><ele>92.0</ele><time>2026-03-28T08:16:27.999Z</time></trkpt><trkpt lat="45.39140297466647" lon="9.331590776591804"><ele>92.0</ele><time>2026-03-28T08:16:28.999Z</time></trkpt><trkpt lat="45.39123658350267" lon="9.331766621306564"><ele>92.0</ele><time>2026-03-28T08:16:29.999Z</time></trkpt><trkpt lat="45.391070532312945" lon="9.331945217530201"><ele>92.0</ele><time>2026-03-28T08:16:30.999Z</time></trkpt><trkpt lat="45.39090395695288" lon="9.332125434841691"><ele>92.0</ele><time>2026-03-28T08:16:31.999Z</time></trkpt><trkpt lat="45.39073662954635" lon="9.33230334460207"><ele>92.0</ele><time>2026-03-28T08:16:32.999Z</time></trkpt><trkpt lat="45.390569722207424" lon="9.332481960704953"><ele>92.0</ele><time>2026-03-28T08:16:33.999Z</time></trkpt><trkpt lat="45.3904027555594" lon="9.332661104702348"><ele>92.0</ele><time>2026-03-28T08:16:34.999Z</time></trkpt><trkpt lat="45.39023558876334" lon="9.33283983705288"><ele>92.0</ele><time>2026-03-28T08:16:35.999Z</time></trkpt><trkpt lat="45.390066232604255" lon="9.333017398315222"><ele>92.66666666666667</ele><time>2026-03-28T08:16:36.999Z</time></trkpt><trkpt lat="45.389898657693465" lon="9.33319549206208"><ele>93.33333333333333</ele><time>2026-03-28T08:16:37.999Z</time></trkpt><trkpt lat="45.389741434727334" lon="9.33336517985714"><ele>94.0</ele><time>2026-03-28T08:16:38.999Z</time></trkpt><trkpt lat="45.3895894152451" lon="9.333520966807242"><ele>94.0</ele><time>2026-03-28T08:16:39.999Z</time></trkpt><trkpt lat="45.38944677538103" lon="9.333664103932534"><ele>94.0</ele><time>2026-03-28T08:16:40.999Z</time></trkpt><trkpt lat="45.38930707092627" lon="9.333789140523303"><ele>94.0</ele><time>2026-03-28T08:16:41.999Z</time></trkpt><trkpt lat="45.38916949781332" lon="9.333891265768749"><ele>93.75</ele><time>2026-03-28T08:16:42.999Z</time></trkpt><trkpt lat="45.38903111803973" lon="9.333983313009032"><ele>93.5</ele><time>2026-03-28T08:16:43.999Z</time></trkpt><trkpt lat="45.38889927447792" lon="9.334058139709093"><ele>93.25</ele><time>2026-03-28T08:16:44.999Z</time></trkpt><trkpt lat="45.38877218913341" lon="9.334119862771164"><ele>93.0</ele><time>2026-03-28T08:16:45.999Z</time></trkpt><trkpt lat="45.3886522741959" lon="9.334169120901027"><ele>93.0</ele><time>2026-03-28T08:16:46.999Z</time></trkpt><trkpt lat="45.38853463838807" lon="9.334212402461016"><ele>93.0</ele><time>2026-03-28T08:16:47.999Z</time></trkpt><trkpt lat="45.38841667471584" lon="9.334250475143657"><ele>93.0</ele><time>2026-03-28T08:16:48.999Z</time></trkpt><trkpt lat="45.388297816511034" lon="9.334285329564196"><ele>93.0</ele><time>2026-03-28T08:16:49.999Z</time></trkpt><trkpt lat="45.3881753724187" lon="9.334319967296194"><ele>93.0</ele><time>2026-03-28T08:16:50.999Z</time></trkpt><trkpt lat="45.3880535306123" lon="9.334352974188514"><ele>93.0</ele><time>2026-03-28T08:16:51.999Z</time></trkpt><trkpt lat="45.3879271521518" lon="9.33438593221696"><ele>93.0</ele><time>2026-03-28T08:16:52.999Z</time></trkpt><trkpt lat="45.38779657727523" lon="9.33442571012648"><ele>93.0</ele><time>2026-03-28T08:16:53.999Z</time></trkpt><trkpt lat="45.38766411377935" lon="9.334463148412459"><ele>92.75</ele><time>2026-03-28T08:16:54.999Z</time></trkpt><trkpt lat="45.387530689386175" lon="9.33449987151835"><ele>92.5</ele><time>2026-03-28T08:16:55.999Z</time></trkpt><trkpt lat="45.387394267737044" lon="9.334535761335731"><ele>92.25</ele><time>2026-03-28T08:16:56.999Z</time></trkpt><trkpt lat="45.38725638772768" lon="9.334573265667848"><ele>92.0</ele><time>2026-03-28T08:16:57.999Z</time></trkpt><trkpt lat="45.38711490025207" lon="9.334611620428735"><ele>92.0</ele><time>2026-03-28T08:16:58.999Z</time></trkpt><trkpt lat="45.38696922187655" lon="9.33465028515626"><ele>92.0</ele><time>2026-03-28T08:16:59.999Z</time></trkpt><trkpt lat="45.38681998955823" lon="9.334686416408179"><ele>92.0</ele><time>2026-03-28T08:17:00.999Z</time></trkpt><trkpt lat="45.386665766934804" lon="9.334718787769832"><ele>91.66666666666667</ele><time>2026-03-28T08:17:01.999Z</time></trkpt><trkpt lat="45.386505380527936" lon="9.334751143693998"><ele>91.33333333333333</ele><time>2026-03-28T08:17:02.999Z</time></trkpt><trkpt lat="45.386342671837156" lon="9.334790012442653"><ele>91.0</ele><time>2026-03-28T08:17:03.999Z</time></trkpt><trkpt lat="45.38617608212856" lon="9.33483115890882"><ele>91.0</ele><time>2026-03-28T08:17:04.999Z</time></trkpt><trkpt lat="45.386006460649455" lon="9.33487951121421"><ele>91.0</ele><time>2026-03-28T08:17:05.999Z</time></trkpt><trkpt lat="45.3858365348997" lon="9.33493121466071"><ele>91.0</ele><time>2026-03-28T08:17:06.999Z</time></trkpt><trkpt lat="45.38566120263119" lon="9.33498461062515"><ele>91.33333333333333</ele><time>2026-03-28T08:17:07.999Z</time></trkpt><trkpt lat="45.38548379912787" lon="9.33504287129901"><ele>91.66666666666667</ele><time>2026-03-28T08:17:08.999Z</time></trkpt><trkpt lat="45.385308964840995" lon="9.335110440529865"><ele>92.0</ele><time>2026-03-28T08:17:09.999Z</time></trkpt><trkpt lat="45.3851341633594" lon="9.335195480529228"><ele>92.0</ele><time>2026-03-28T08:17:10.999Z</time></trkpt><trkpt lat="45.384957205195136" lon="9.33529772643019"><ele>92.0</ele><time>2026-03-28T08:17:11.999Z</time></trkpt><trkpt lat="45.384782154055436" lon="9.335412858413385"><ele>92.0</ele><time>2026-03-28T08:17:12.999Z</time></trkpt><trkpt lat="45.38460621563031" lon="9.335533438317043"><ele>92.33333333333334</ele><time>2026-03-28T08:17:13.999Z</time></trkpt><trkpt lat="45.38442471539328" lon="9.335655877274284"><ele>92.66666666666667</ele><time>2026-03-28T08:17:14.999Z</time></trkpt><trkpt lat="45.38424334907699" lon="9.335775780678029"><ele>93.0</ele><time>2026-03-28T08:17:15.999Z</time></trkpt><trkpt lat="45.38406153349606" lon="9.335896530882488"><ele>93.0</ele><time>2026-03-28T08:17:16.999Z</time></trkpt><trkpt lat="45.38387840778229" lon="9.336019730524123"><ele>93.0</ele><time>2026-03-28T08:17:17.999Z</time></trkpt><trkpt lat="45.38369613741731" lon="9.33614196849084"><ele>93.0</ele><time>2026-03-28T08:17:18.999Z</time></trkpt><trkpt lat="45.38351255972572" lon="9.336262878920522"><ele>92.66666666666667</ele><time>2026-03-28T08:17:19.999Z</time></trkpt><trkpt lat="45.3833297943795" lon="9.336387771357458"><ele>92.33333333333334</ele><time>2026-03-28T08:17:20.999Z</time></trkpt><trkpt lat="45.38315065061407" lon="9.336510396154026"><ele>92.0</ele><time>2026-03-28T08:17:21.999Z</time></trkpt><trkpt lat="45.38297199096637" lon="9.336623909757119"><ele>92.0</ele><time>2026-03-28T08:17:22.999Z</time></trkpt><trkpt lat="45.38279529029494" lon="9.3367408132591"><ele>92.0</ele><time>2026-03-28T08:17:23.999Z</time></trkpt><trkpt lat="45.382618329058396" lon="9.336868996584718"><ele>92.0</ele><time>2026-03-28T08:17:24.999Z</time></trkpt><trkpt lat="45.382447279676455" lon="9.337019668283132"><ele>92.0</ele><time>2026-03-28T08:17:25.999Z</time></trkpt><trkpt lat="45.38229104568729" lon="9.33719457779373"><ele>92.0</ele><time>2026-03-28T08:17:26.999Z</time></trkpt><trkpt lat="45.382145036935114" lon="9.337384940548976"><ele>92.0</ele><time>2026-03-28T08:17:27.999Z</time></trkpt><trkpt lat="45.38201277817636" lon="9.337590926062733"><ele>92.33333333333334</ele><time>2026-03-28T08:17:28.999Z</time></trkpt><trkpt lat="45.38189109474458" lon="9.337813099441503"><ele>92.66666666666667</ele><time>2026-03-28T08:17:29.999Z</time></trkpt><trkpt lat="45.38178376615291" lon="9.338047592407415"><ele>93.0</ele><time>2026-03-28T08:17:30.999Z</time></trkpt><trkpt lat="45.381689447456495" lon="9.338289085580138"><ele>93.0</ele><time>2026-03-28T08:17:31.999Z</time></trkpt><trkpt lat="45.38160077734917" lon="9.338529722531904"><ele>93.0</ele><time>2026-03-28T08:17:32.999Z</time></trkpt><trkpt lat="45.38151458361014" lon="9.338763908854558"><ele>93.0</ele><time>2026-03-28T08:17:33.999Z</time></trkpt><trkpt lat="45.38143251407084" lon="9.338983156876557"><ele>92.66666666666667</ele><time>2026-03-28T08:17:34.999Z</time></trkpt><trkpt lat="45.38135396233589" lon="9.339194410434299"><ele>92.33333333333334</ele><time>2026-03-28T08:17:35.999Z</time></trkpt><trkpt lat="45.38127999448986" lon="9.339391272758421"><ele>92.0</ele><time>2026-03-28T08:17:36.999Z</time></trkpt><trkpt lat="45.38120815456727" lon="9.339578289949348"><ele>91.5</ele><time>2026-03-28T08:17:37.999Z</time></trkpt><trkpt lat="45.38113993472046" lon="9.33975681858419"><ele>91.0</ele><time>2026-03-28T08:17:38.999Z</time></trkpt><trkpt lat="45.381074298939694" lon="9.339926537527147"><ele>90.5</ele><time>2026-03-28T08:17:39.999Z</time></trkpt><trkpt lat="45.3810137112908" lon="9.340087995116466"><ele>90.0</ele><time>2026-03-28T08:17:40.999Z</time></trkpt><trkpt lat="45.380956159737416" lon="9.340241806619966"><ele>90.0</ele><time>2026-03-28T08:17:41.998Z</time></trkpt><trkpt lat="45.380899637541354" lon="9.340378062115645"><ele>90.0</ele><time>2026-03-28T08:17:42.998Z</time></trkpt><trkpt lat="45.380841248205776" lon="9.340494960808524"><ele>90.0</ele><time>2026-03-28T08:17:44Z</time></trkpt><trkpt lat="45.38077632526235" lon="9.340582721755723"><ele>90.0</ele><time>2026-03-28T08:17:45Z</time></trkpt><trkpt lat="45.380697204924395" lon="9.340650849600417"><ele>90.0</ele><time>2026-03-28T08:17:46Z</time></trkpt><trkpt lat="45.38060280671853" lon="9.340719695463044"><ele>90.25</ele><time>2026-03-28T08:17:47Z</time></trkpt><trkpt lat="45.380513727799915" lon="9.340814214627168"><ele>90.5</ele><time>2026-03-28T08:17:48Z</time></trkpt><trkpt lat="45.38044889043383" lon="9.340953480167235"><ele>90.75</ele><time>2026-03-28T08:17:49Z</time></trkpt><trkpt lat="45.38041702888888" lon="9.341117717854681"><ele>91.0</ele><time>2026-03-28T08:17:50Z</time></trkpt><trkpt lat="45.3804251490956" lon="9.341309023643863"><ele>91.33333333333333</ele><time>2026-03-28T08:17:51Z</time></trkpt><trkpt lat="45.380423926071394" lon="9.34152126518708"><ele>91.66666666666667</ele><time>2026-03-28T08:17:52Z</time></trkpt><trkpt lat="45.380374324207835" lon="9.341753925989964"><ele>92.0</ele><time>2026-03-28T08:17:53Z</time></trkpt><trkpt lat="45.38029288585098" lon="9.342006990527413"><ele>91.66666666666667</ele><time>2026-03-28T08:17:54Z</time></trkpt><trkpt lat="45.38020429212509" lon="9.342272366884401"><ele>91.33333333333333</ele><time>2026-03-28T08:17:55Z</time></trkpt><trkpt lat="45.38015199241305" lon="9.342553387261788"><ele>91.0</ele><time>2026-03-28T08:17:56Z</time></trkpt><trkpt lat="45.38014174175312" lon="9.342843209038344"><ele>91.0</ele><time>2026-03-28T08:17:57Z</time></trkpt><trkpt lat="45.380146207790474" lon="9.343121766380564"><ele>91.0</ele><time>2026-03-28T08:17:58Z</time></trkpt><trkpt lat="45.38017681729025" lon="9.343383888626471"><ele>91.0</ele><time>2026-03-28T08:17:59Z</time></trkpt><trkpt lat="45.380219828572976" lon="9.343623924409888"><ele>91.0</ele><time>2026-03-28T08:18:00Z</time></trkpt><trkpt lat="45.38025007950076" lon="9.343873348273057"><ele>91.0</ele><time>2026-03-28T08:18:01Z</time></trkpt><trkpt lat="45.38028081212013" lon="9.344131734349778"><ele>91.0</ele><time>2026-03-28T08:18:02Z</time></trkpt><trkpt lat="45.38031409846183" lon="9.34439288237851"><ele>90.33333333333333</ele><time>2026-03-28T08:18:03Z</time></trkpt><trkpt lat="45.38034755215648" lon="9.344656004364206"><ele>89.66666666666667</ele><time>2026-03-28T08:18:04Z</time></trkpt><trkpt lat="45.38038081566442" lon="9.344921101774517"><ele>89.0</ele><time>2026-03-28T08:18:05Z</time></trkpt><trkpt lat="45.38041362803822" lon="9.345188547149775"><ele>89.0</ele><time>2026-03-28T08:18:06Z</time></trkpt><trkpt lat="45.380446431927105" lon="9.34545482425786"><ele>89.0</ele><time>2026-03-28T08:18:07Z</time></trkpt><trkpt lat="45.38047928015319" lon="9.34572249935748"><ele>89.0</ele><time>2026-03-28T08:18:08Z</time></trkpt><trkpt lat="45.38051210433416" lon="9.345988281342494"><ele>89.0</ele><time>2026-03-28T08:18:09Z</time></trkpt><trkpt lat="45.38054463088571" lon="9.346253898325552"><ele>89.0</ele><time>2026-03-28T08:18:10Z</time></trkpt><trkpt lat="45.38057885361574" lon="9.346519831277703"><ele>89.0</ele><time>2026-03-28T08:18:11Z</time></trkpt><trkpt lat="45.38061183059973" lon="9.346785649825438"><ele>89.0</ele><time>2026-03-28T08:18:12Z</time></trkpt><trkpt lat="45.38064366684779" lon="9.347051697999984"><ele>89.0</ele><time>2026-03-28T08:18:13Z</time></trkpt><trkpt lat="45.3806750788927" lon="9.347319298687264"><ele>89.0</ele><time>2026-03-28T08:18:14Z</time></trkpt><trkpt lat="45.38070466863895" lon="9.347585597919768"><ele>89.33333333333334</ele><time>2026-03-28T08:18:15Z</time></trkpt><trkpt lat="45.38073059831268" lon="9.34785405820026"><ele>89.66666666666667</ele><time>2026-03-28T08:18:16Z</time></trkpt><trkpt lat="45.380750644850856" lon="9.348123506360036"><ele>90.0</ele><time>2026-03-28T08:18:17Z</time></trkpt><trkpt lat="45.380770021450935" lon="9.348394190583594"><ele>90.33333333333333</ele><time>2026-03-28T08:18:18Z</time></trkpt><trkpt lat="45.38079054350895" lon="9.348664087921339"><ele>90.66666666666666</ele><time>2026-03-28T08:18:19Z</time></trkpt><trkpt lat="45.38081097542606" lon="9.348932664114933"><ele>91.0</ele><time>2026-03-28T08:18:20Z</time></trkpt><trkpt lat="45.38083313986701" lon="9.349201036372742"><ele>91.0</ele><time>2026-03-28T08:18:21Z</time></trkpt><trkpt lat="45.38085377867664" lon="9.349470708170156"><ele>91.0</ele><time>2026-03-28T08:18:22Z</time></trkpt><trkpt lat="45.380872362113706" lon="9.349727335073384"><ele>91.0</ele><time>2026-03-28T08:18:23Z</time></trkpt><trkpt lat="45.38089023279066" lon="9.349977478347347"><ele>91.0</ele><time>2026-03-28T08:18:24Z</time></trkpt><trkpt lat="45.38090610445514" lon="9.350213228850064"><ele>91.0</ele><time>2026-03-28T08:18:25Z</time></trkpt><trkpt lat="45.38092202764303" lon="9.350438369608211"><ele>91.0</ele><time>2026-03-28T08:18:26Z</time></trkpt><trkpt lat="45.38093257115806" lon="9.350652186796115"><ele>91.0</ele><time>2026-03-28T08:18:27Z</time></trkpt><trkpt lat="45.380930701256474" lon="9.350849566936454"><ele>91.0</ele><time>2026-03-28T08:18:28Z</time></trkpt><trkpt lat="45.380906221732346" lon="9.351011361398372"><ele>91.0</ele><time>2026-03-28T08:18:29Z</time></trkpt><trkpt lat="45.38086438379322" lon="9.351166630210454"><ele>91.0</ele><time>2026-03-28T08:18:30Z</time></trkpt><trkpt lat="45.380843859847005" lon="9.351339775500106"><ele>90.75</ele><time>2026-03-28T08:18:31Z</time></trkpt><trkpt lat="45.38088297548419" lon="9.351514873170453"><ele>90.5</ele><time>2026-03-28T08:18:32Z</time></trkpt><trkpt lat="45.380927049475524" lon="9.351705470173783"><ele>90.25</ele><time>2026-03-28T08:18:33Z</time></trkpt><trkpt lat="45.38092148611773" lon="9.35192095457777"><ele>90.0</ele><time>2026-03-28T08:18:33.999Z</time></trkpt><trkpt lat="45.38091112877223" lon="9.35214673950303"><ele>89.66666666666667</ele><time>2026-03-28T08:18:34.999Z</time></trkpt><trkpt lat="45.38089896820748" lon="9.352383222156906"><ele>89.33333333333334</ele><time>2026-03-28T08:18:35.999Z</time></trkpt><trkpt lat="45.38087676368669" lon="9.35262951067537"><ele>89.0</ele><time>2026-03-28T08:18:36.999Z</time></trkpt><trkpt lat="45.38084308621274" lon="9.352877070511227"><ele>89.33333333333334</ele><time>2026-03-28T08:18:37.999Z</time></trkpt><trkpt lat="45.38079598803433" lon="9.353122856238691"><ele>89.66666666666667</ele><time>2026-03-28T08:18:38.999Z</time></trkpt><trkpt lat="45.38074321467027" lon="9.353366822579527"><ele>90.0</ele><time>2026-03-28T08:18:39.999Z</time></trkpt><trkpt lat="45.380682545014466" lon="9.353609167199451"><ele>90.0</ele><time>2026-03-28T08:18:40.999Z</time></trkpt><trkpt lat="45.38061316302896" lon="9.353848297727778"><ele>90.0</ele><time>2026-03-28T08:18:41.999Z</time></trkpt><trkpt lat="45.38053267812274" lon="9.354082985783055"><ele>90.0</ele><time>2026-03-28T08:18:42.999Z</time></trkpt><trkpt lat="45.380446863202906" lon="9.354314085129694"><ele>89.33333333333333</ele><time>2026-03-28T08:18:43.999Z</time></trkpt><trkpt lat="45.38035492278907" lon="9.354541851415568"><ele>88.66666666666666</ele><time>2026-03-28T08:18:44.999Z</time></trkpt><trkpt lat="45.38025445146595" lon="9.354764663290924"><ele>88.0</ele><time>2026-03-28T08:18:45.999Z</time></trkpt><trkpt lat="45.380150969587525" lon="9.354984346358425"><ele>88.0</ele><time>2026-03-28T08:18:46.999Z</time></trkpt><trkpt lat="45.380048581152074" lon="9.35520359625234"><ele>88.0</ele><time>2026-03-28T08:18:47.999Z</time></trkpt><trkpt lat="45.37994303735923" lon="9.35542300285765"><ele>88.0</ele><time>2026-03-28T08:18:48.999Z</time></trkpt><trkpt lat="45.379838739279954" lon="9.35564184859463"><ele>88.66666666666666</ele><time>2026-03-28T08:18:49.999Z</time></trkpt><trkpt lat="45.37973701130564" lon="9.35585929607368"><ele>89.33333333333333</ele><time>2026-03-28T08:18:50.999Z</time></trkpt><trkpt lat="45.379639189375496" lon="9.356074542263839"><ele>90.0</ele><time>2026-03-28T08:18:51.999Z</time></trkpt><trkpt lat="45.37953921474861" lon="9.356285574736782"><ele>90.33333333333333</ele><time>2026-03-28T08:18:52.999Z</time></trkpt><trkpt lat="45.37943872608706" lon="9.356495279839063"><ele>90.66666666666666</ele><time>2026-03-28T08:18:53.999Z</time></trkpt><trkpt lat="45.37934118818977" lon="9.35670773145712"><ele>91.0</ele><time>2026-03-28T08:18:54.999Z</time></trkpt><trkpt lat="45.37924213137558" lon="9.35691617621196"><ele>91.0</ele><time>2026-03-28T08:18:55.999Z</time></trkpt><trkpt lat="45.37914099377455" lon="9.35710968686569"><ele>91.0</ele><time>2026-03-28T08:18:56.999Z</time></trkpt><trkpt lat="45.379032555923224" lon="9.35729728710781"><ele>91.0</ele><time>2026-03-28T08:18:57.999Z</time></trkpt><trkpt lat="45.37891878516921" lon="9.3574786729451"><ele>90.0</ele><time>2026-03-28T08:18:58.999Z</time></trkpt><trkpt lat="45.37880269637052" lon="9.357658214845381"><ele>89.0</ele><time>2026-03-28T08:18:59.999Z</time></trkpt><trkpt lat="45.37868251414383" lon="9.357836255162917"><ele>88.0</ele><time>2026-03-28T08:19:00.999Z</time></trkpt><trkpt lat="45.3785594342689" lon="9.358015674244863"><ele>88.33333333333333</ele><time>2026-03-28T08:19:01.999Z</time></trkpt><trkpt lat="45.3784401327569" lon="9.358199677845018"><ele>88.66666666666667</ele><time>2026-03-28T08:19:02.999Z</time></trkpt><trkpt lat="45.378332279048706" lon="9.358395133995527"><ele>89.0</ele><time>2026-03-28T08:19:03.999Z</time></trkpt><trkpt lat="45.37825516853024" lon="9.35859539507925"><ele>89.0</ele><time>2026-03-28T08:19:04.999Z</time></trkpt><trkpt lat="45.378181305618746" lon="9.358787778546064"><ele>89.0</ele><time>2026-03-28T08:19:05.999Z</time></trkpt><trkpt lat="45.378105781082745" lon="9.358958654936679"><ele>89.0</ele><time>2026-03-28T08:19:06.999Z</time></trkpt><trkpt lat="45.37800850361784" lon="9.35908026604241"><ele>89.0</ele><time>2026-03-28T08:19:07.999Z</time></trkpt><trkpt lat="45.37791311475288" lon="9.359166589049687"><ele>89.0</ele><time>2026-03-28T08:19:08.999Z</time></trkpt><trkpt lat="45.37784308079375" lon="9.359285016105543"><ele>89.0</ele><time>2026-03-28T08:19:09.999Z</time></trkpt><trkpt lat="45.37780148887272" lon="9.359446365782226"><ele>89.0</ele><time>2026-03-28T08:19:10.999Z</time></trkpt><trkpt lat="45.3777929401188" lon="9.359629170835593"><ele>89.0</ele><time>2026-03-28T08:19:11.999Z</time></trkpt><trkpt lat="45.37773768602908" lon="9.359804871092797"><ele>88.75</ele><time>2026-03-28T08:19:12.999Z</time></trkpt><trkpt lat="45.377643393536914" lon="9.359960142967559"><ele>88.5</ele><time>2026-03-28T08:19:13.999Z</time></trkpt><trkpt lat="45.377553670094684" lon="9.360130441233819"><ele>88.25</ele><time>2026-03-28T08:19:14.999Z</time></trkpt><trkpt lat="45.377464528742166" lon="9.360307633121957"><ele>88.0</ele><time>2026-03-28T08:19:15.999Z</time></trkpt><trkpt lat="45.37736727404603" lon="9.360486258882911"><ele>88.66666666666666</ele><time>2026-03-28T08:19:16.999Z</time></trkpt><trkpt lat="45.37726990604778" lon="9.360671517634447"><ele>89.33333333333333</ele><time>2026-03-28T08:19:17.999Z</time></trkpt><trkpt lat="45.37716887520556" lon="9.360861347304798"><ele>90.0</ele><time>2026-03-28T08:19:18.999Z</time></trkpt><trkpt lat="45.37706709543964" lon="9.361053805902758"><ele>90.33333333333333</ele><time>2026-03-28T08:19:19.999Z</time></trkpt><trkpt lat="45.37696299941138" lon="9.361254374123776"><ele>90.66666666666666</ele><time>2026-03-28T08:19:20.999Z</time></trkpt><trkpt lat="45.376853918286386" lon="9.361458886235813"><ele>91.0</ele><time>2026-03-28T08:19:21.999Z</time></trkpt><trkpt lat="45.37674581830398" lon="9.361667880058718"><ele>91.0</ele><time>2026-03-28T08:19:22.999Z</time></trkpt><trkpt lat="45.376632949015544" lon="9.36188109833991"><ele>91.0</ele><time>2026-03-28T08:19:23.999Z</time></trkpt><trkpt lat="45.37651810203182" lon="9.362096206241555"><ele>91.0</ele><time>2026-03-28T08:19:24.999Z</time></trkpt><trkpt lat="45.376403111492166" lon="9.3623124812948"><ele>91.33333333333333</ele><time>2026-03-28T08:19:25.999Z</time></trkpt><trkpt lat="45.376288387148506" lon="9.362530800467212"><ele>91.66666666666667</ele><time>2026-03-28T08:19:26.999Z</time></trkpt><trkpt lat="45.376170797338254" lon="9.362747794106934"><ele>92.0</ele><time>2026-03-28T08:19:27.999Z</time></trkpt><trkpt lat="45.37605337158663" lon="9.362963422569557"><ele>91.0</ele><time>2026-03-28T08:19:28.999Z</time></trkpt><trkpt lat="45.37593359410841" lon="9.363176770494714"><ele>90.0</ele><time>2026-03-28T08:19:29.999Z</time></trkpt><trkpt lat="45.375809856927425" lon="9.363385465822688"><ele>89.0</ele><time>2026-03-28T08:19:30.999Z</time></trkpt><trkpt lat="45.37567948490445" lon="9.36358567501164"><ele>89.0</ele><time>2026-03-28T08:19:31.999Z</time></trkpt><trkpt lat="45.37554182778372" lon="9.363777613751914"><ele>89.0</ele><time>2026-03-28T08:19:32.999Z</time></trkpt><trkpt lat="45.37539563683928" lon="9.363958888563086"><ele>89.0</ele><time>2026-03-28T08:19:33.999Z</time></trkpt><trkpt lat="45.37524301254852" lon="9.364131203949588"><ele>89.0</ele><time>2026-03-28T08:19:34.999Z</time></trkpt><trkpt lat="45.375087431430664" lon="9.364294845461911"><ele>89.0</ele><time>2026-03-28T08:19:35.999Z</time></trkpt><trkpt lat="45.374925612148175" lon="9.36444779389963"><ele>89.0</ele><time>2026-03-28T08:19:36.999Z</time></trkpt><trkpt lat="45.374756691778174" lon="9.364585029718782"><ele>89.33333333333334</ele><time>2026-03-28T08:19:37.999Z</time></trkpt><trkpt lat="45.37458313282273" lon="9.364706096011624"><ele>89.66666666666667</ele><time>2026-03-28T08:19:38.999Z</time></trkpt><trkpt lat="45.3744052481634" lon="9.364813850285696"><ele>90.0</ele><time>2026-03-28T08:19:39.999Z</time></trkpt><trkpt lat="45.37422393402608" lon="9.364907251075913"><ele>90.0</ele><time>2026-03-28T08:19:40.999Z</time></trkpt><trkpt lat="45.37403929124809" lon="9.364989002362869"><ele>90.0</ele><time>2026-03-28T08:19:41.999Z</time></trkpt><trkpt lat="45.373851918059614" lon="9.365058483386882"><ele>90.0</ele><time>2026-03-28T08:19:42.999Z</time></trkpt><trkpt lat="45.37366210768994" lon="9.365114112632423"><ele>89.66666666666667</ele><time>2026-03-28T08:19:43.999Z</time></trkpt><trkpt lat="45.373471253110786" lon="9.365154116370402"><ele>89.33333333333334</ele><time>2026-03-28T08:19:44.999Z</time></trkpt><trkpt lat="45.3732793840946" lon="9.365188904454037"><ele>89.0</ele><time>2026-03-28T08:19:45.999Z</time></trkpt><trkpt lat="45.373085001383544" lon="9.365220491206241"><ele>88.66666666666667</ele><time>2026-03-28T08:19:46.999Z</time></trkpt><trkpt lat="45.37289191669825" lon="9.365247998868703"><ele>88.33333333333333</ele><time>2026-03-28T08:19:47.999Z</time></trkpt><trkpt lat="45.37269854218588" lon="9.365274785871142"><ele>88.0</ele><time>2026-03-28T08:19:48.999Z</time></trkpt><trkpt lat="45.37250579470276" lon="9.365300755144883"><ele>88.0</ele><time>2026-03-28T08:19:50Z</time></trkpt><trkpt lat="45.37231360798643" lon="9.365326111978508"><ele>88.0</ele><time>2026-03-28T08:19:51Z</time></trkpt><trkpt lat="45.37212152187357" lon="9.365351280366857"><ele>88.0</ele><time>2026-03-28T08:19:52Z</time></trkpt><trkpt lat="45.37193050376253" lon="9.36537596099468"><ele>88.0</ele><time>2026-03-28T08:19:53Z</time></trkpt><trkpt lat="45.37173875959119" lon="9.365400164654769"><ele>88.0</ele><time>2026-03-28T08:19:54Z</time></trkpt><trkpt lat="45.37154567511502" lon="9.365422304657343"><ele>88.0</ele><time>2026-03-28T08:19:55Z</time></trkpt><trkpt lat="45.37135244603547" lon="9.36544382086221"><ele>88.33333333333333</ele><time>2026-03-28T08:19:56Z</time></trkpt><trkpt lat="45.37115886342998" lon="9.365466024788331"><ele>88.66666666666667</ele><time>2026-03-28T08:19:57Z</time></trkpt><trkpt lat="45.37096568347016" lon="9.365489072957278"><ele>89.0</ele><time>2026-03-28T08:19:58Z</time></trkpt><trkpt lat="45.37077305996002" lon="9.36551426834688"><ele>88.33333333333334</ele><time>2026-03-28T08:19:59Z</time></trkpt><trkpt lat="45.370581991216106" lon="9.365539582585338"><ele>87.66666666666667</ele><time>2026-03-28T08:20:00Z</time></trkpt><trkpt lat="45.3703908290061" lon="9.36556551147764"><ele>87.0</ele><time>2026-03-28T08:20:01Z</time></trkpt><trkpt lat="45.37019817756358" lon="9.365588501391409"><ele>87.0</ele><time>2026-03-28T08:20:02Z</time></trkpt><trkpt lat="45.3700066901594" lon="9.365613002449269"><ele>87.0</ele><time>2026-03-28T08:20:03Z</time></trkpt><trkpt lat="45.36981421028435" lon="9.365637034604816"><ele>87.0</ele><time>2026-03-28T08:20:04Z</time></trkpt><trkpt lat="45.369622919798815" lon="9.365657552049148"><ele>87.33333333333333</ele><time>2026-03-28T08:20:05Z</time></trkpt><trkpt lat="45.36942935001304" lon="9.365673390989294"><ele>87.66666666666666</ele><time>2026-03-28T08:20:06Z</time></trkpt><trkpt lat="45.36923443028057" lon="9.365679855364068"><ele>88.0</ele><time>2026-03-28T08:20:07Z</time></trkpt><trkpt lat="45.369039165855625" lon="9.365675794171837"><ele>88.0</ele><time>2026-03-28T08:20:08Z</time></trkpt><trkpt lat="45.36884448998282" lon="9.365658966723412"><ele>88.0</ele><time>2026-03-28T08:20:09Z</time></trkpt><trkpt lat="45.368650225067576" lon="9.365633379099377"><ele>88.0</ele><time>2026-03-28T08:20:10Z</time></trkpt><trkpt lat="45.36845594846018" lon="9.365597388541005"><ele>88.0</ele><time>2026-03-28T08:20:11Z</time></trkpt><trkpt lat="45.36826401151926" lon="9.365551763537868"><ele>88.0</ele><time>2026-03-28T08:20:12Z</time></trkpt><trkpt lat="45.36807297432472" lon="9.365500239540722"><ele>88.0</ele><time>2026-03-28T08:20:13Z</time></trkpt><trkpt lat="45.36788280805307" lon="9.365441848443563"><ele>88.0</ele><time>2026-03-28T08:20:14Z</time></trkpt><trkpt lat="45.36769485454604" lon="9.365373947239112"><ele>88.0</ele><time>2026-03-28T08:20:15Z</time></trkpt><trkpt lat="45.367508907730496" lon="9.365294227605279"><ele>88.0</ele><time>2026-03-28T08:20:16Z</time></trkpt><trkpt lat="45.36732588587411" lon="9.36520473789606"><ele>88.0</ele><time>2026-03-28T08:20:17Z</time></trkpt><trkpt lat="45.36714577185553" lon="9.365107724219571"><ele>88.0</ele><time>2026-03-28T08:20:18Z</time></trkpt><trkpt lat="45.366968136955386" lon="9.365000851244323"><ele>88.0</ele><time>2026-03-28T08:20:19Z</time></trkpt><trkpt lat="45.3668034892576" lon="9.364863559355301"><ele>88.0</ele><time>2026-03-28T08:20:20Z</time></trkpt><trkpt lat="45.36663886256318" lon="9.364769357326413"><ele>88.0</ele><time>2026-03-28T08:20:21Z</time></trkpt><trkpt lat="45.36649255775488" lon="9.364658980607352"><ele>88.0</ele><time>2026-03-28T08:20:22Z</time></trkpt><trkpt lat="45.366363796239206" lon="9.364531724687348"><ele>88.5</ele><time>2026-03-28T08:20:23Z</time></trkpt><trkpt lat="45.366232814570395" lon="9.364431235223316"><ele>89.0</ele><time>2026-03-28T08:20:24Z</time></trkpt><trkpt lat="45.36611075945356" lon="9.364336198184738"><ele>89.5</ele><time>2026-03-28T08:20:25Z</time></trkpt><trkpt lat="45.365996742730495" lon="9.36424625415105"><ele>90.0</ele><time>2026-03-28T08:20:26Z</time></trkpt><trkpt lat="45.36588781200448" lon="9.364181728377542"><ele>90.0</ele><time>2026-03-28T08:20:27Z</time></trkpt><trkpt lat="45.365811976845876" lon="9.36409768110576"><ele>90.0</ele><time>2026-03-28T08:20:28Z</time></trkpt><trkpt lat="45.36575258461549" lon="9.363999446964401"><ele>90.0</ele><time>2026-03-28T08:20:29Z</time></trkpt><trkpt lat="45.36571688559181" lon="9.363895994314442"><ele>90.0</ele><time>2026-03-28T08:20:30Z</time></trkpt><trkpt lat="45.36569861365563" lon="9.363802867157894"><ele>90.0</ele><time>2026-03-28T08:20:31Z</time></trkpt><trkpt lat="45.36571868323824" lon="9.363656960254406"><ele>90.0</ele><time>2026-03-28T08:20:33Z</time></trkpt><trkpt lat="45.36563000666954" lon="9.363546131911717"><ele>90.0</ele><time>2026-03-28T08:20:34Z</time></trkpt><trkpt lat="45.36554946703873" lon="9.363486971965736"><ele>90.0</ele><time>2026-03-28T08:20:35Z</time></trkpt><trkpt lat="45.36548015679752" lon="9.36344934152707"><ele>90.0</ele><time>2026-03-28T08:20:36Z</time></trkpt><trkpt lat="45.36537348285889" lon="9.363524754574756"><ele>90.0</ele><time>2026-03-28T08:20:37Z</time></trkpt><trkpt lat="45.36531062128413" lon="9.36363209075716"><ele>90.0</ele><time>2026-03-28T08:20:38Z</time></trkpt><trkpt lat="45.36527393629313" lon="9.363753803244093"><ele>89.5</ele><time>2026-03-28T08:20:39Z</time></trkpt><trkpt lat="45.365310753995864" lon="9.363899373767733"><ele>89.0</ele><time>2026-03-28T08:20:40Z</time></trkpt><trkpt lat="45.365357764236435" lon="9.364026296270266"><ele>88.5</ele><time>2026-03-28T08:20:41Z</time></trkpt><trkpt lat="45.36541978340239" lon="9.364158601369576"><ele>88.0</ele><time>2026-03-28T08:20:42Z</time></trkpt><trkpt lat="45.365468274659676" lon="9.364336296320465"><ele>88.0</ele><time>2026-03-28T08:20:43Z</time></trkpt><trkpt lat="45.365494350345784" lon="9.364535106253655"><ele>88.0</ele><time>2026-03-28T08:20:44Z</time></trkpt><trkpt lat="45.36552527519213" lon="9.364736123659284"><ele>88.0</ele><time>2026-03-28T08:20:44.999Z</time></trkpt><trkpt lat="45.36556246698321" lon="9.364938406050857"><ele>88.0</ele><time>2026-03-28T08:20:45.999Z</time></trkpt><trkpt lat="45.36559981950096" lon="9.365145062382185"><ele>87.66666666666666</ele><time>2026-03-28T08:20:46.999Z</time></trkpt><trkpt lat="45.36563787096663" lon="9.365357197865153"><ele>87.33333333333333</ele><time>2026-03-28T08:20:47.999Z</time></trkpt><trkpt lat="45.36567459938129" lon="9.365576847634902"><ele>87.0</ele><time>2026-03-28T08:20:48.999Z</time></trkpt><trkpt lat="45.36571400011153" lon="9.365802303540464"><ele>87.0</ele><time>2026-03-28T08:20:49.999Z</time></trkpt><trkpt lat="45.36575548774093" lon="9.36603272253034"><ele>87.0</ele><time>2026-03-28T08:20:50.999Z</time></trkpt><trkpt lat="45.36579899389617" lon="9.366267463500666"><ele>87.0</ele><time>2026-03-28T08:20:51.999Z</time></trkpt><trkpt lat="45.36583958454016" lon="9.366509388115544"><ele>87.0</ele><time>2026-03-28T08:20:52.999Z</time></trkpt><trkpt lat="45.36587686830955" lon="9.366755668738685"><ele>87.0</ele><time>2026-03-28T08:20:53.999Z</time></trkpt><trkpt lat="45.365919118626714" lon="9.367005764096493"><ele>87.0</ele><time>2026-03-28T08:20:54.999Z</time></trkpt><trkpt lat="45.36596452631872" lon="9.3672610424291"><ele>86.66666666666667</ele><time>2026-03-28T08:20:55.999Z</time></trkpt><trkpt lat="45.36600821188142" lon="9.36752251526417"><ele>86.33333333333334</ele><time>2026-03-28T08:20:56.999Z</time></trkpt><trkpt lat="45.36605179931943" lon="9.367786856555995"><ele>86.0</ele><time>2026-03-28T08:20:57.999Z</time></trkpt><trkpt lat="45.36609398640043" lon="9.368054721946667"><ele>86.0</ele><time>2026-03-28T08:20:58.999Z</time></trkpt><trkpt lat="45.36613875713806" lon="9.368325354885839"><ele>86.0</ele><time>2026-03-28T08:20:59.999Z</time></trkpt><trkpt lat="45.36619149778073" lon="9.36859648688058"><ele>86.0</ele><time>2026-03-28T08:21:00.999Z</time></trkpt><trkpt lat="45.36625351101826" lon="9.36886671413582"><ele>86.0</ele><time>2026-03-28T08:21:01.999Z</time></trkpt><trkpt lat="45.3663210293889" lon="9.369135723291967"><ele>86.0</ele><time>2026-03-28T08:21:02.999Z</time></trkpt><trkpt lat="45.366393307223795" lon="9.369398685647294"><ele>86.0</ele><time>2026-03-28T08:21:03.999Z</time></trkpt><trkpt lat="45.3664689394931" lon="9.369659244542586"><ele>86.33333333333334</ele><time>2026-03-28T08:21:04.999Z</time></trkpt><trkpt lat="45.36655089278759" lon="9.36991786307525"><ele>86.66666666666667</ele><time>2026-03-28T08:21:05.999Z</time></trkpt><trkpt lat="45.366638705841886" lon="9.370172571412311"><ele>87.0</ele><time>2026-03-28T08:21:06.999Z</time></trkpt><trkpt lat="45.36673464282832" lon="9.370420357684146"><ele>87.33333333333333</ele><time>2026-03-28T08:21:07.999Z</time></trkpt><trkpt lat="45.366838816803224" lon="9.370660402109063"><ele>87.66666666666666</ele><time>2026-03-28T08:21:08.999Z</time></trkpt><trkpt lat="45.36694737453633" lon="9.370898015249324"><ele>88.0</ele><time>2026-03-28T08:21:09.999Z</time></trkpt><trkpt lat="45.36705338612438" lon="9.371133010662822"><ele>87.66666666666666</ele><time>2026-03-28T08:21:10.999Z</time></trkpt><trkpt lat="45.367159467646474" lon="9.371375156332677"><ele>87.33333333333333</ele><time>2026-03-28T08:21:11.999Z</time></trkpt><trkpt lat="45.36726148360224" lon="9.371619276240612"><ele>87.0</ele><time>2026-03-28T08:21:12.999Z</time></trkpt><trkpt lat="45.3673594361714" lon="9.37186953486335"><ele>86.66666666666667</ele><time>2026-03-28T08:21:13.999Z</time></trkpt><trkpt lat="45.36744685104365" lon="9.372125269348265"><ele>86.33333333333334</ele><time>2026-03-28T08:21:14.999Z</time></trkpt><trkpt lat="45.36753025791263" lon="9.372383373123801"><ele>86.0</ele><time>2026-03-28T08:21:15.999Z</time></trkpt><trkpt lat="45.36760804125263" lon="9.372646309037991"><ele>86.0</ele><time>2026-03-28T08:21:16.999Z</time></trkpt><trkpt lat="45.36767992331209" lon="9.37290982776461"><ele>86.0</ele><time>2026-03-28T08:21:17.999Z</time></trkpt><trkpt lat="45.36774487684655" lon="9.373175895234036"><ele>86.0</ele><time>2026-03-28T08:21:18.999Z</time></trkpt><trkpt lat="45.367807511337965" lon="9.373442945274721"><ele>86.0</ele><time>2026-03-28T08:21:19.999Z</time></trkpt><trkpt lat="45.367870025078666" lon="9.373709086100677"><ele>86.0</ele><time>2026-03-28T08:21:20.999Z</time></trkpt><trkpt lat="45.367934071247845" lon="9.373976488126168"><ele>86.0</ele><time>2026-03-28T08:21:21.999Z</time></trkpt><trkpt lat="45.367999654393216" lon="9.37424970168069"><ele>86.0</ele><time>2026-03-28T08:21:22.999Z</time></trkpt><trkpt lat="45.36806522608547" lon="9.37453027264793"><ele>86.0</ele><time>2026-03-28T08:21:23.999Z</time></trkpt><trkpt lat="45.36813023878111" lon="9.374814381427399"><ele>86.0</ele><time>2026-03-28T08:21:24.999Z</time></trkpt><trkpt lat="45.36819313967619" lon="9.37510048262921"><ele>86.0</ele><time>2026-03-28T08:21:25.999Z</time></trkpt><trkpt lat="45.3682614352025" lon="9.375382349440205"><ele>86.0</ele><time>2026-03-28T08:21:26.999Z</time></trkpt><trkpt lat="45.368330307799795" lon="9.37566432857784"><ele>86.0</ele><time>2026-03-28T08:21:27.999Z</time></trkpt><trkpt lat="45.368396382325095" lon="9.375947061973601"><ele>86.33333333333334</ele><time>2026-03-28T08:21:28.999Z</time></trkpt><trkpt lat="45.36846279557205" lon="9.376229671578901"><ele>86.66666666666667</ele><time>2026-03-28T08:21:29.999Z</time></trkpt><trkpt lat="45.368529079289345" lon="9.376512981801817"><ele>87.0</ele><time>2026-03-28T08:21:30.999Z</time></trkpt><trkpt lat="45.36859494364754" lon="9.37679652298453"><ele>87.33333333333333</ele><time>2026-03-28T08:21:31.999Z</time></trkpt><trkpt lat="45.36866056918726" lon="9.377079987770971"><ele>87.66666666666666</ele><time>2026-03-28T08:21:32.999Z</time></trkpt><trkpt lat="45.36872730901956" lon="9.37736372098856"><ele>88.0</ele><time>2026-03-28T08:21:33.999Z</time></trkpt><trkpt lat="45.368794974492296" lon="9.377646054067176"><ele>87.66666666666666</ele><time>2026-03-28T08:21:34.999Z</time></trkpt><trkpt lat="45.36886095511677" lon="9.377930001944009"><ele>87.33333333333333</ele><time>2026-03-28T08:21:35.999Z</time></trkpt><trkpt lat="45.36892647524307" lon="9.378214256968992"><ele>87.0</ele><time>2026-03-28T08:21:36.999Z</time></trkpt><trkpt lat="45.36899079535389" lon="9.378499805060695"><ele>87.0</ele><time>2026-03-28T08:21:37.999Z</time></trkpt><trkpt lat="45.369056858588216" lon="9.378783783920563"><ele>87.0</ele><time>2026-03-28T08:21:38.999Z</time></trkpt><trkpt lat="45.369120935578465" lon="9.379068110243507"><ele>87.0</ele><time>2026-03-28T08:21:39.999Z</time></trkpt><trkpt lat="45.36918515924546" lon="9.379351629011078"><ele>87.0</ele><time>2026-03-28T08:21:40.999Z</time></trkpt><trkpt lat="45.36924920351798" lon="9.379635338130456"><ele>87.0</ele><time>2026-03-28T08:21:41.999Z</time></trkpt><trkpt lat="45.36931420193121" lon="9.379919667114637"><ele>87.0</ele><time>2026-03-28T08:21:42.999Z</time></trkpt><trkpt lat="45.36937984080556" lon="9.3802030920111"><ele>87.0</ele><time>2026-03-28T08:21:43.999Z</time></trkpt><trkpt lat="45.369444869607776" lon="9.380488576130409"><ele>87.0</ele><time>2026-03-28T08:21:44.999Z</time></trkpt><trkpt lat="45.369509785317085" lon="9.380772692899503"><ele>87.0</ele><time>2026-03-28T08:21:45.999Z</time></trkpt><trkpt lat="45.36957370975863" lon="9.38104985146619"><ele>87.0</ele><time>2026-03-28T08:21:46.999Z</time></trkpt><trkpt lat="45.36963598291958" lon="9.381325936345377"><ele>87.0</ele><time>2026-03-28T08:21:47.999Z</time></trkpt><trkpt lat="45.369699543978946" lon="9.381601167269976"><ele>87.0</ele><time>2026-03-28T08:21:48.999Z</time></trkpt><trkpt lat="45.369762563402105" lon="9.381879349948827"><ele>87.0</ele><time>2026-03-28T08:21:49.999Z</time></trkpt><trkpt lat="45.369825247112395" lon="9.382157192579767"><ele>87.0</ele><time>2026-03-28T08:21:50.999Z</time></trkpt><trkpt lat="45.369889605638384" lon="9.382432130958028"><ele>87.0</ele><time>2026-03-28T08:21:51.999Z</time></trkpt><trkpt lat="45.36995393600184" lon="9.382706329077068"><ele>87.0</ele><time>2026-03-28T08:21:52.999Z</time></trkpt><trkpt lat="45.37001878396195" lon="9.382981419351315"><ele>87.0</ele><time>2026-03-28T08:21:53.999Z</time></trkpt><trkpt lat="45.3700842241598" lon="9.383256440616577"><ele>87.0</ele><time>2026-03-28T08:21:54.999Z</time></trkpt><trkpt lat="45.370146901972085" lon="9.383533995405356"><ele>87.0</ele><time>2026-03-28T08:21:56Z</time></trkpt><trkpt lat="45.370204922558024" lon="9.383812962893433"><ele>87.0</ele><time>2026-03-28T08:21:57Z</time></trkpt><trkpt lat="45.370266656600556" lon="9.384088221048048"><ele>87.0</ele><time>2026-03-28T08:21:58Z</time></trkpt><trkpt lat="45.37033257531598" lon="9.384361194130491"><ele>87.0</ele><time>2026-03-28T08:21:59Z</time></trkpt><trkpt lat="45.370399592303976" lon="9.384635740425884"><ele>87.0</ele><time>2026-03-28T08:22:00Z</time></trkpt><trkpt lat="45.370466496180995" lon="9.384910228543783"><ele>87.0</ele><time>2026-03-28T08:22:01Z</time></trkpt><trkpt lat="45.37053627616699" lon="9.385179171853373"><ele>87.0</ele><time>2026-03-28T08:22:02Z</time></trkpt><trkpt lat="45.37058453932576" lon="9.38546792036101"><ele>87.0</ele><time>2026-03-28T08:22:03Z</time></trkpt><trkpt lat="45.370648163221624" lon="9.385741158739867"><ele>87.0</ele><time>2026-03-28T08:22:04Z</time></trkpt><trkpt lat="45.37071162921045" lon="9.386021160264422"><ele>86.66666666666667</ele><time>2026-03-28T08:22:05Z</time></trkpt><trkpt lat="45.37077355602248" lon="9.386296480083988"><ele>86.33333333333334</ele><time>2026-03-28T08:22:06Z</time></trkpt><trkpt lat="45.37083793082337" lon="9.386574091623286"><ele>86.0</ele><time>2026-03-28T08:22:07Z</time></trkpt><trkpt lat="45.37090089930924" lon="9.386852514125275"><ele>85.66666666666667</ele><time>2026-03-28T08:22:08Z</time></trkpt><trkpt lat="45.370963496716044" lon="9.38712962774577"><ele>85.33333333333333</ele><time>2026-03-28T08:22:09Z</time></trkpt><trkpt lat="45.37102563868283" lon="9.387405139538453"><ele>85.0</ele><time>2026-03-28T08:22:10Z</time></trkpt><trkpt lat="45.3710900061174" lon="9.38767925379789"><ele>85.66666666666666</ele><time>2026-03-28T08:22:11Z</time></trkpt><trkpt lat="45.371151893250534" lon="9.387956172320722"><ele>86.33333333333333</ele><time>2026-03-28T08:22:12Z</time></trkpt><trkpt lat="45.3712137852075" lon="9.388230103895689"><ele>87.0</ele><time>2026-03-28T08:22:13Z</time></trkpt><trkpt lat="45.37127511526976" lon="9.388505771768362"><ele>87.33333333333333</ele><time>2026-03-28T08:22:14Z</time></trkpt><trkpt lat="45.37133983464083" lon="9.38878030834172"><ele>87.66666666666666</ele><time>2026-03-28T08:22:15Z</time></trkpt><trkpt lat="45.37140482665395" lon="9.389054832159713"><ele>88.0</ele><time>2026-03-28T08:22:16Z</time></trkpt><trkpt lat="45.371468415829355" lon="9.389320096253284"><ele>88.0</ele><time>2026-03-28T08:22:17Z</time></trkpt><trkpt lat="45.371524044424966" lon="9.389559945457528"><ele>88.0</ele><time>2026-03-28T08:22:18Z</time></trkpt><trkpt lat="45.37157585138139" lon="9.389783242753822"><ele>88.0</ele><time>2026-03-28T08:22:19Z</time></trkpt><trkpt lat="45.37161603949293" lon="9.389998553743839"><ele>88.25</ele><time>2026-03-28T08:22:20Z</time></trkpt><trkpt lat="45.37164969285093" lon="9.39020619007124"><ele>88.5</ele><time>2026-03-28T08:22:21Z</time></trkpt><trkpt lat="45.37166377309056" lon="9.390403877406785"><ele>88.75</ele><time>2026-03-28T08:22:22Z</time></trkpt><trkpt lat="45.371671293506914" lon="9.390592935268812"><ele>89.0</ele><time>2026-03-28T08:22:23Z</time></trkpt><trkpt lat="45.371667650852075" lon="9.39076434501215"><ele>89.0</ele><time>2026-03-28T08:22:24Z</time></trkpt><trkpt lat="45.37166025843267" lon="9.390905919527686"><ele>89.0</ele><time>2026-03-28T08:22:25Z</time></trkpt><trkpt lat="45.37164326023275" lon="9.390997122952262"><ele>89.0</ele><time>2026-03-28T08:22:26Z</time></trkpt><trkpt lat="45.37162639697673" lon="9.391148972274058"><ele>89.0</ele><time>2026-03-28T08:22:28Z</time></trkpt><trkpt lat="45.37160521044352" lon="9.391275419162287"><ele>89.0</ele><time>2026-03-28T08:22:30Z</time></trkpt><trkpt lat="45.371558798573524" lon="9.39144869796034"><ele>88.80000000000001</ele><time>2026-03-28T08:22:32Z</time></trkpt><trkpt lat="45.37153567398451" lon="9.391553759332655"><ele>88.60000000000001</ele><time>2026-03-28T08:22:33Z</time></trkpt><trkpt lat="45.37154118326181" lon="9.391667207999427"><ele>88.4</ele><time>2026-03-28T08:22:34Z</time></trkpt><trkpt lat="45.37157619584959" lon="9.391776461572759"><ele>88.2</ele><time>2026-03-28T08:22:35Z</time></trkpt><trkpt lat="45.37161251226129" lon="9.391892334630416"><ele>88.0</ele><time>2026-03-28T08:22:36Z</time></trkpt><trkpt lat="45.371656245101256" lon="9.392053234186951"><ele>88.0</ele><time>2026-03-28T08:22:37Z</time></trkpt><trkpt lat="45.371684711820585" lon="9.39224609943496"><ele>88.0</ele><time>2026-03-28T08:22:38Z</time></trkpt><trkpt lat="45.37169954625982" lon="9.392469409257084"><ele>88.0</ele><time>2026-03-28T08:22:39Z</time></trkpt><trkpt lat="45.37170307415746" lon="9.392711490947754"><ele>88.0</ele><time>2026-03-28T08:22:40Z</time></trkpt><trkpt lat="45.37169306356065" lon="9.392966364678212"><ele>88.0</ele><time>2026-03-28T08:22:41Z</time></trkpt><trkpt lat="45.37168654336997" lon="9.39322226414765"><ele>88.0</ele><time>2026-03-28T08:22:42Z</time></trkpt><trkpt lat="45.371692857026126" lon="9.393472393206418"><ele>88.33333333333333</ele><time>2026-03-28T08:22:43Z</time></trkpt><trkpt lat="45.371700808673594" lon="9.393716292041209"><ele>88.66666666666667</ele><time>2026-03-28T08:22:44Z</time></trkpt><trkpt lat="45.37170553034654" lon="9.39395205086293"><ele>89.0</ele><time>2026-03-28T08:22:45Z</time></trkpt><trkpt lat="45.371703495224395" lon="9.394172626024945"><ele>89.0</ele><time>2026-03-28T08:22:46Z</time></trkpt><trkpt lat="45.371707287243794" lon="9.394378165346689"><ele>89.0</ele><time>2026-03-28T08:22:47Z</time></trkpt><trkpt lat="45.37171425316874" lon="9.394566521722634"><ele>89.0</ele><time>2026-03-28T08:22:48Z</time></trkpt><trkpt lat="45.37171941376182" lon="9.394744048170985"><ele>89.0</ele><time>2026-03-28T08:22:48.999Z</time></trkpt><trkpt lat="45.37172268333953" lon="9.39492998816292"><ele>88.66666666666667</ele><time>2026-03-28T08:22:49.999Z</time></trkpt><trkpt lat="45.371728864553866" lon="9.395145428877234"><ele>88.33333333333333</ele><time>2026-03-28T08:22:50.999Z</time></trkpt><trkpt lat="45.371735524962176" lon="9.395391302173506"><ele>88.0</ele><time>2026-03-28T08:22:51.999Z</time></trkpt><trkpt lat="45.37174318949408" lon="9.39566056574851"><ele>89.0</ele><time>2026-03-28T08:22:52.999Z</time></trkpt><trkpt lat="45.37174765986058" lon="9.395948512433305"><ele>90.0</ele><time>2026-03-28T08:22:53.999Z</time></trkpt><trkpt lat="45.37174259455908" lon="9.396246911223459"><ele>91.0</ele><time>2026-03-28T08:22:54.999Z</time></trkpt><trkpt lat="45.37173609185166" lon="9.396551088079013"><ele>91.0</ele><time>2026-03-28T08:22:55.999Z</time></trkpt><trkpt lat="45.37173549393366" lon="9.396849039601094"><ele>91.0</ele><time>2026-03-28T08:22:56.999Z</time></trkpt><trkpt lat="45.37174287317439" lon="9.397141537436525"><ele>91.0</ele><time>2026-03-28T08:22:57.999Z</time></trkpt><trkpt lat="45.371752904716615" lon="9.397426150152269"><ele>91.0</ele><time>2026-03-28T08:22:58.999Z</time></trkpt><trkpt lat="45.37175861500038" lon="9.397702625245339"><ele>91.0</ele><time>2026-03-28T08:22:59.999Z</time></trkpt><trkpt lat="45.37176232310145" lon="9.39797586979396"><ele>91.0</ele><time>2026-03-28T08:23:00.999Z</time></trkpt><trkpt lat="45.37176563466625" lon="9.39824878473237"><ele>91.33333333333333</ele><time>2026-03-28T08:23:01.999Z</time></trkpt><trkpt lat="45.37176968495436" lon="9.398516318818022"><ele>91.66666666666667</ele><time>2026-03-28T08:23:02.999Z</time></trkpt><trkpt lat="45.37177410797805" lon="9.39877428444224"><ele>92.0</ele><time>2026-03-28T08:23:03.999Z</time></trkpt><trkpt lat="45.371776902075666" lon="9.399020364832241"><ele>92.0</ele><time>2026-03-28T08:23:04.999Z</time></trkpt><trkpt lat="45.371778159347485" lon="9.399257494163306"><ele>92.0</ele><time>2026-03-28T08:23:05.999Z</time></trkpt><trkpt lat="45.37178706787424" lon="9.399476118099747"><ele>92.0</ele><time>2026-03-28T08:23:06.999Z</time></trkpt><trkpt lat="45.37179179315209" lon="9.399685287183889"><ele>91.75</ele><time>2026-03-28T08:23:07.999Z</time></trkpt><trkpt lat="45.3717898093519" lon="9.399880784374412"><ele>91.5</ele><time>2026-03-28T08:23:08.999Z</time></trkpt><trkpt lat="45.371781723344746" lon="9.400058235139818"><ele>91.25</ele><time>2026-03-28T08:23:09.999Z</time></trkpt><trkpt lat="45.37175597988691" lon="9.400207115957661"><ele>91.0</ele><time>2026-03-28T08:23:10.999Z</time></trkpt><trkpt lat="45.37175513785098" lon="9.400328150314238"><ele>91.0</ele><time>2026-03-28T08:23:11.999Z</time></trkpt><trkpt lat="45.37175703365721" lon="9.400423239788344"><ele>91.0</ele><time>2026-03-28T08:23:12.999Z</time></trkpt><trkpt lat="45.371559989660625" lon="9.400463858370806"><ele>91.0</ele><time>2026-03-28T08:23:13.999Z</time></trkpt><trkpt lat="45.37146076801046" lon="9.400431998788537"><ele>91.0</ele><time>2026-03-28T08:23:14.999Z</time></trkpt><trkpt lat="45.37133593363941" lon="9.40043548081811"><ele>91.0</ele><time>2026-03-28T08:23:15.999Z</time></trkpt><trkpt lat="45.37120303716676" lon="9.400447067586425"><ele>91.0</ele><time>2026-03-28T08:23:16.999Z</time></trkpt><trkpt lat="45.37106501517649" lon="9.400515814523466"><ele>91.0</ele><time>2026-03-28T08:23:17.999Z</time></trkpt><trkpt lat="45.37092195563952" lon="9.40058998465649"><ele>91.0</ele><time>2026-03-28T08:23:18.999Z</time></trkpt><trkpt lat="45.37077406757851" lon="9.400664510918947"><ele>90.66666666666666</ele><time>2026-03-28T08:23:19.999Z</time></trkpt><trkpt lat="45.37062401832069" lon="9.400743126201963"><ele>90.33333333333333</ele><time>2026-03-28T08:23:20.999Z</time></trkpt><trkpt lat="45.370469456826925" lon="9.400824548956415"><ele>90.0</ele><time>2026-03-28T08:23:21.999Z</time></trkpt><trkpt lat="45.37031313033193" lon="9.400912397286769"><ele>89.33333333333333</ele><time>2026-03-28T08:23:22.999Z</time></trkpt><trkpt lat="45.37015410791125" lon="9.401012323728635"><ele>88.66666666666666</ele><time>2026-03-28T08:23:23.999Z</time></trkpt><trkpt lat="45.36999790708148" lon="9.401121088767836"><ele>88.0</ele><time>2026-03-28T08:23:24.999Z</time></trkpt><trkpt lat="45.369839372064256" lon="9.40123191773093"><ele>88.0</ele><time>2026-03-28T08:23:25.999Z</time></trkpt><trkpt lat="45.36967443430565" lon="9.401331843515342"><ele>88.0</ele><time>2026-03-28T08:23:26.999Z</time></trkpt><trkpt lat="45.36949966109446" lon="9.401388826095507"><ele>88.0</ele><time>2026-03-28T08:23:27.999Z</time></trkpt><trkpt lat="45.36932470269743" lon="9.401448074425277"><ele>88.0</ele><time>2026-03-28T08:23:28.999Z</time></trkpt><trkpt lat="45.36915259118191" lon="9.401524054426659"><ele>88.0</ele><time>2026-03-28T08:23:29.999Z</time></trkpt><trkpt lat="45.3689785154499" lon="9.40157200309308"><ele>88.0</ele><time>2026-03-28T08:23:30.999Z</time></trkpt><trkpt lat="45.36880595093592" lon="9.401627544343334"><ele>88.33333333333333</ele><time>2026-03-28T08:23:31.999Z</time></trkpt><trkpt lat="45.368630531648414" lon="9.401689301401618"><ele>88.66666666666667</ele><time>2026-03-28T08:23:32.999Z</time></trkpt><trkpt lat="45.36845763261949" lon="9.401746812002935"><ele>89.0</ele><time>2026-03-28T08:23:33.999Z</time></trkpt><trkpt lat="45.36828271140396" lon="9.401804630667083"><ele>89.0</ele><time>2026-03-28T08:23:34.999Z</time></trkpt><trkpt lat="45.36810926981617" lon="9.401865661387458"><ele>89.0</ele><time>2026-03-28T08:23:35.999Z</time></trkpt><trkpt lat="45.36793536211047" lon="9.401930092867627"><ele>89.0</ele><time>2026-03-28T08:23:36.999Z</time></trkpt><trkpt lat="45.367761586721386" lon="9.401993203282464"><ele>89.0</ele><time>2026-03-28T08:23:37.999Z</time></trkpt><trkpt lat="45.36758602679173" lon="9.402052922639696"><ele>89.0</ele><time>2026-03-28T08:23:38.999Z</time></trkpt><trkpt lat="45.367409387564486" lon="9.40211426966876"><ele>89.0</ele><time>2026-03-28T08:23:39.999Z</time></trkpt><trkpt lat="45.36723497081643" lon="9.402190891946987"><ele>89.33333333333334</ele><time>2026-03-28T08:23:40.999Z</time></trkpt><trkpt lat="45.36707401543285" lon="9.402298291639495"><ele>89.66666666666667</ele><time>2026-03-28T08:23:41.999Z</time></trkpt><trkpt lat="45.36692905851276" lon="9.402453692553578"><ele>90.0</ele><time>2026-03-28T08:23:42.999Z</time></trkpt><trkpt lat="45.36680323534264" lon="9.402638936445067"><ele>90.0</ele><time>2026-03-28T08:23:43.999Z</time></trkpt><trkpt lat="45.366679186583774" lon="9.402825894195743"><ele>90.0</ele><time>2026-03-28T08:23:44.999Z</time></trkpt><trkpt lat="45.36654891111514" lon="9.403000972012743"><ele>90.0</ele><time>2026-03-28T08:23:45.999Z</time></trkpt><trkpt lat="45.3664130663908" lon="9.403168466544779"><ele>89.0</ele><time>2026-03-28T08:23:46.999Z</time></trkpt><trkpt lat="45.366278045677376" lon="9.403341454466212"><ele>88.0</ele><time>2026-03-28T08:23:47.999Z</time></trkpt><trkpt lat="45.366146116670336" lon="9.403522012117824"><ele>87.0</ele><time>2026-03-28T08:23:48.999Z</time></trkpt><trkpt lat="45.36601371918628" lon="9.403701097879878"><ele>87.66666666666667</ele><time>2026-03-28T08:23:49.999Z</time></trkpt><trkpt lat="45.36587969441868" lon="9.403883538188259"><ele>88.33333333333334</ele><time>2026-03-28T08:23:50.999Z</time></trkpt><trkpt lat="45.36575599132448" lon="9.404077355741487"><ele>89.0</ele><time>2026-03-28T08:23:51.999Z</time></trkpt><trkpt lat="45.36565025803734" lon="9.404289343174156"><ele>89.0</ele><time>2026-03-28T08:23:52.999Z</time></trkpt><trkpt lat="45.3655511649069" lon="9.404507742399918"><ele>89.0</ele><time>2026-03-28T08:23:53.999Z</time></trkpt><trkpt lat="45.36544831862724" lon="9.40472362988954"><ele>89.0</ele><time>2026-03-28T08:23:54.999Z</time></trkpt><trkpt lat="45.3653350671566" lon="9.404929644254848"><ele>88.66666666666667</ele><time>2026-03-28T08:23:55.999Z</time></trkpt><trkpt lat="45.365207861133584" lon="9.405116260306212"><ele>88.33333333333333</ele><time>2026-03-28T08:23:56.999Z</time></trkpt><trkpt lat="45.36505283510703" lon="9.40524932769109"><ele>88.0</ele><time>2026-03-28T08:23:57.999Z</time></trkpt><trkpt lat="45.36488866900509" lon="9.405354342355114"><ele>88.0</ele><time>2026-03-28T08:23:58.999Z</time></trkpt><trkpt lat="45.364725151539446" lon="9.405467792473258"><ele>88.0</ele><time>2026-03-28T08:23:59.999Z</time></trkpt><trkpt lat="45.36454776369214" lon="9.405537156268393"><ele>88.0</ele><time>2026-03-28T08:24:00.999Z</time></trkpt><trkpt lat="45.3643680244036" lon="9.405603079270922"><ele>88.0</ele><time>2026-03-28T08:24:02Z</time></trkpt><trkpt lat="45.36418809654494" lon="9.40566824804222"><ele>88.0</ele><time>2026-03-28T08:24:03Z</time></trkpt><trkpt lat="45.36400741673567" lon="9.405731531632672"><ele>88.0</ele><time>2026-03-28T08:24:04Z</time></trkpt><trkpt lat="45.36382762459608" lon="9.405791813249959"><ele>88.33333333333333</ele><time>2026-03-28T08:24:05Z</time></trkpt><trkpt lat="45.36364987638102" lon="9.405851771500604"><ele>88.66666666666667</ele><time>2026-03-28T08:24:06Z</time></trkpt><trkpt lat="45.36346939464219" lon="9.40591056330116"><ele>89.0</ele><time>2026-03-28T08:24:07Z</time></trkpt><trkpt lat="45.363290687336665" lon="9.405969377806898"><ele>89.0</ele><time>2026-03-28T08:24:08Z</time></trkpt><trkpt lat="45.36311180641794" lon="9.406028222915227"><ele>89.0</ele><time>2026-03-28T08:24:09Z</time></trkpt><trkpt lat="45.362930826612136" lon="9.406087078778986"><ele>89.0</ele><time>2026-03-28T08:24:10Z</time></trkpt><trkpt lat="45.36274933146651" lon="9.406145287597292"><ele>88.33333333333334</ele><time>2026-03-28T08:24:11Z</time></trkpt><trkpt lat="45.36256842597357" lon="9.406204158916704"><ele>87.66666666666667</ele><time>2026-03-28T08:24:12Z</time></trkpt><trkpt lat="45.36238914811411" lon="9.406263398051207"><ele>87.0</ele><time>2026-03-28T08:24:13Z</time></trkpt><trkpt lat="45.36220924529898" lon="9.406325558675809"><ele>87.66666666666667</ele><time>2026-03-28T08:24:14Z</time></trkpt><trkpt lat="45.36203043897379" lon="9.406390014593795"><ele>88.33333333333334</ele><time>2026-03-28T08:24:15Z</time></trkpt><trkpt lat="45.36185402337279" lon="9.406466001102055"><ele>89.0</ele><time>2026-03-28T08:24:16Z</time></trkpt><trkpt lat="45.361683989392695" lon="9.406568603614863"><ele>89.0</ele><time>2026-03-28T08:24:17Z</time></trkpt><trkpt lat="45.36151669325793" lon="9.406686577206449"><ele>89.0</ele><time>2026-03-28T08:24:18Z</time></trkpt><trkpt lat="45.361355337598226" lon="9.406814064713565"><ele>89.0</ele><time>2026-03-28T08:24:19Z</time></trkpt><trkpt lat="45.36119774068996" lon="9.406950435673805"><ele>88.66666666666667</ele><time>2026-03-28T08:24:20Z</time></trkpt><trkpt lat="45.3610454249615" lon="9.407093071922228"><ele>88.33333333333333</ele><time>2026-03-28T08:24:21Z</time></trkpt><trkpt lat="45.36089680067682" lon="9.407248641398063"><ele>88.0</ele><time>2026-03-28T08:24:22Z</time></trkpt><trkpt lat="45.360753435106375" lon="9.407412466652987"><ele>88.0</ele><time>2026-03-28T08:24:23Z</time></trkpt><trkpt lat="45.36061323640005" lon="9.407583634953614"><ele>88.0</ele><time>2026-03-28T08:24:24Z</time></trkpt><trkpt lat="45.36047589319509" lon="9.407759260917421"><ele>88.0</ele><time>2026-03-28T08:24:25Z</time></trkpt><trkpt lat="45.36033741381074" lon="9.407931068375936"><ele>89.66666666666666</ele><time>2026-03-28T08:24:26Z</time></trkpt><trkpt lat="45.36017759994815" lon="9.408061421119097"><ele>91.33333333333333</ele><time>2026-03-28T08:24:27Z</time></trkpt><trkpt lat="45.36001487648859" lon="9.408183340703456"><ele>93.0</ele><time>2026-03-28T08:24:28Z</time></trkpt><trkpt lat="45.35985373213468" lon="9.408307284199983"><ele>91.66666666666667</ele><time>2026-03-28T08:24:29Z</time></trkpt><trkpt lat="45.35967531957785" lon="9.408385223475488"><ele>90.33333333333334</ele><time>2026-03-28T08:24:30Z</time></trkpt><trkpt lat="45.359498289972784" lon="9.408457934605709"><ele>89.0</ele><time>2026-03-28T08:24:31Z</time></trkpt><trkpt lat="45.35931979736331" lon="9.408522367933182"><ele>89.0</ele><time>2026-03-28T08:24:32Z</time></trkpt><trkpt lat="45.35913757205588" lon="9.408579202590031"><ele>89.0</ele><time>2026-03-28T08:24:33Z</time></trkpt><trkpt lat="45.35895595904886" lon="9.408621798235002"><ele>89.0</ele><time>2026-03-28T08:24:34Z</time></trkpt><trkpt lat="45.35877541828839" lon="9.408661854622286"><ele>88.66666666666667</ele><time>2026-03-28T08:24:35Z</time></trkpt><trkpt lat="45.35859679561946" lon="9.408707455915934"><ele>88.33333333333333</ele><time>2026-03-28T08:24:36Z</time></trkpt><trkpt lat="45.35842191855383" lon="9.40875146619936"><ele>88.0</ele><time>2026-03-28T08:24:37Z</time></trkpt><trkpt lat="45.3582358988402" lon="9.408798226999618"><ele>88.0</ele><time>2026-03-28T08:24:38Z</time></trkpt><trkpt lat="45.35805804996069" lon="9.4088576415492"><ele>88.0</ele><time>2026-03-28T08:24:39Z</time></trkpt><trkpt lat="45.35788274706472" lon="9.408933217631951"><ele>88.0</ele><time>2026-03-28T08:24:40Z</time></trkpt><trkpt lat="45.3577073867426" lon="9.40901159458563"><ele>88.0</ele><time>2026-03-28T08:24:41Z</time></trkpt><trkpt lat="45.357528461928446" lon="9.409080400594023"><ele>88.0</ele><time>2026-03-28T08:24:42Z</time></trkpt><trkpt lat="45.357350371244785" lon="9.409147644336066"><ele>88.0</ele><time>2026-03-28T08:24:43Z</time></trkpt><trkpt lat="45.357175064314454" lon="9.409225972871488"><ele>88.0</ele><time>2026-03-28T08:24:44Z</time></trkpt><trkpt lat="45.35700506725267" lon="9.409329410581982"><ele>88.0</ele><time>2026-03-28T08:24:45Z</time></trkpt><trkpt lat="45.356845417817816" lon="9.409457655427468"><ele>88.0</ele><time>2026-03-28T08:24:46Z</time></trkpt><trkpt lat="45.35669636596028" lon="9.409608803155773"><ele>88.0</ele><time>2026-03-28T08:24:47Z</time></trkpt><trkpt lat="45.35655800696562" lon="9.409781055000774"><ele>88.0</ele><time>2026-03-28T08:24:48Z</time></trkpt><trkpt lat="45.35643465257206" lon="9.409974571047726"><ele>88.0</ele><time>2026-03-28T08:24:49Z</time></trkpt><trkpt lat="45.3563310808895" lon="9.410174555387364"><ele>87.66666666666666</ele><time>2026-03-28T08:24:50Z</time></trkpt><trkpt lat="45.35625013192551" lon="9.410374062487822"><ele>87.33333333333333</ele><time>2026-03-28T08:24:51Z</time></trkpt><trkpt lat="45.35618394774477" lon="9.410571628371551"><ele>87.0</ele><time>2026-03-28T08:24:52Z</time></trkpt><trkpt lat="45.356137783964755" lon="9.410764904296963"><ele>87.0</ele><time>2026-03-28T08:24:53Z</time></trkpt><trkpt lat="45.35610655898534" lon="9.410954662732502"><ele>87.0</ele><time>2026-03-28T08:24:53.999Z</time></trkpt><trkpt lat="45.35608768917726" lon="9.41113686276474"><ele>87.0</ele><time>2026-03-28T08:24:54.999Z</time></trkpt><trkpt lat="45.35607210323123" lon="9.411310598803679"><ele>87.0</ele><time>2026-03-28T08:24:55.999Z</time></trkpt><trkpt lat="45.3560452183841" lon="9.411466231002791"><ele>87.0</ele><time>2026-03-28T08:24:56.999Z</time></trkpt><trkpt lat="45.35599832333448" lon="9.411614650854002"><ele>87.0</ele><time>2026-03-28T08:24:57.999Z</time></trkpt><trkpt lat="45.355932871604004" lon="9.411760119210259"><ele>87.0</ele><time>2026-03-28T08:24:58.999Z</time></trkpt><trkpt lat="45.35585452005212" lon="9.411901687013726"><ele>87.0</ele><time>2026-03-28T08:24:59.999Z</time></trkpt><trkpt lat="45.355753346346496" lon="9.412027101288942"><ele>87.0</ele><time>2026-03-28T08:25:00.999Z</time></trkpt><trkpt lat="45.35563248205181" lon="9.412128195404547"><ele>87.0</ele><time>2026-03-28T08:25:01.999Z</time></trkpt><trkpt lat="45.35550021279579" lon="9.412220056719498"><ele>87.0</ele><time>2026-03-28T08:25:02.999Z</time></trkpt><trkpt lat="45.355363897816034" lon="9.41232142906343"><ele>87.0</ele><time>2026-03-28T08:25:03.999Z</time></trkpt><trkpt lat="45.35522454268981" lon="9.412433715446628"><ele>87.33333333333333</ele><time>2026-03-28T08:25:04.999Z</time></trkpt><trkpt lat="45.35507926468106" lon="9.412550349336051"><ele>87.66666666666666</ele><time>2026-03-28T08:25:05.999Z</time></trkpt><trkpt lat="45.354927442693814" lon="9.412663308353372"><ele>88.0</ele><time>2026-03-28T08:25:06.999Z</time></trkpt><trkpt lat="45.35477318165808" lon="9.412783685692656"><ele>87.66666666666666</ele><time>2026-03-28T08:25:07.999Z</time></trkpt><trkpt lat="45.35461893508924" lon="9.41291281794828"><ele>87.33333333333333</ele><time>2026-03-28T08:25:08.999Z</time></trkpt><trkpt lat="45.35446756252065" lon="9.413049671843618"><ele>87.0</ele><time>2026-03-28T08:25:09.999Z</time></trkpt><trkpt lat="45.35431802937619" lon="9.413190541085845"><ele>87.0</ele><time>2026-03-28T08:25:10.999Z</time></trkpt><trkpt lat="45.35417472574521" lon="9.413333299312185"><ele>87.0</ele><time>2026-03-28T08:25:11.999Z</time></trkpt><trkpt lat="45.35403859001868" lon="9.413473507482397"><ele>87.0</ele><time>2026-03-28T08:25:12.999Z</time></trkpt><trkpt lat="45.353908063375314" lon="9.413604529994897"><ele>87.25</ele><time>2026-03-28T08:25:13.999Z</time></trkpt><trkpt lat="45.35378378925738" lon="9.413728410617827"><ele>87.5</ele><time>2026-03-28T08:25:14.999Z</time></trkpt><trkpt lat="45.35366096925055" lon="9.413845330576109"><ele>87.75</ele><time>2026-03-28T08:25:15.999Z</time></trkpt><trkpt lat="45.353538165107835" lon="9.413958414119467"><ele>88.0</ele><time>2026-03-28T08:25:16.999Z</time></trkpt><trkpt lat="45.35342987270656" lon="9.414043251916906"><ele>88.0</ele><time>2026-03-28T08:25:17.999Z</time></trkpt><trkpt lat="45.353329217207495" lon="9.414078653695556"><ele>88.0</ele><time>2026-03-28T08:25:18.999Z</time></trkpt><trkpt lat="45.35321762436044" lon="9.414063048049014"><ele>88.0</ele><time>2026-03-28T08:25:19.999Z</time></trkpt><trkpt lat="45.35309769993852" lon="9.414010455097891"><ele>88.0</ele><time>2026-03-28T08:25:20.999Z</time></trkpt><trkpt lat="45.35296766460707" lon="9.413950016971324"><ele>86.66666666666666</ele><time>2026-03-28T08:25:21.999Z</time></trkpt><trkpt lat="45.35282750566798" lon="9.413886766053299"><ele>85.33333333333333</ele><time>2026-03-28T08:25:22.999Z</time></trkpt><trkpt lat="45.35268309169534" lon="9.413807045924816"><ele>84.0</ele><time>2026-03-28T08:25:23.999Z</time></trkpt><trkpt lat="45.35252577855482" lon="9.413743088520835"><ele>84.0</ele><time>2026-03-28T08:25:24.999Z</time></trkpt><trkpt lat="45.35236537550542" lon="9.41367597865511"><ele>84.0</ele><time>2026-03-28T08:25:25.999Z</time></trkpt><trkpt lat="45.35220232398767" lon="9.413607401167566"><ele>84.0</ele><time>2026-03-28T08:25:26.999Z</time></trkpt><trkpt lat="45.35204063828867" lon="9.41353524314798"><ele>84.33333333333333</ele><time>2026-03-28T08:25:27.999Z</time></trkpt><trkpt lat="45.35188129931921" lon="9.413459029226354"><ele>84.66666666666666</ele><time>2026-03-28T08:25:28.999Z</time></trkpt><trkpt lat="45.35172383040025" lon="9.413382104668376"><ele>85.0</ele><time>2026-03-28T08:25:29.999Z</time></trkpt><trkpt lat="45.35156784781983" lon="9.413306600748948"><ele>85.0</ele><time>2026-03-28T08:25:30.999Z</time></trkpt><trkpt lat="45.35141774212061" lon="9.413234039195501"><ele>85.0</ele><time>2026-03-28T08:25:31.999Z</time></trkpt><trkpt lat="45.3512670618753" lon="9.4131893342116"><ele>85.0</ele><time>2026-03-28T08:25:32.999Z</time></trkpt><trkpt lat="45.3511185603545" lon="9.413124414132396"><ele>85.0</ele><time>2026-03-28T08:25:33.999Z</time></trkpt><trkpt lat="45.35095852825378" lon="9.413126842348241"><ele>85.0</ele><time>2026-03-28T08:25:34.999Z</time></trkpt><trkpt lat="45.350793023544746" lon="9.413106987034073"><ele>85.0</ele><time>2026-03-28T08:25:35.999Z</time></trkpt><trkpt lat="45.35062438030818" lon="9.413077196424823"><ele>85.0</ele><time>2026-03-28T08:25:36.999Z</time></trkpt><trkpt lat="45.35045519099936" lon="9.41303984613976"><ele>85.0</ele><time>2026-03-28T08:25:37.999Z</time></trkpt><trkpt lat="45.35028486342288" lon="9.412983235072659"><ele>85.0</ele><time>2026-03-28T08:25:38.999Z</time></trkpt><trkpt lat="45.35011000099381" lon="9.412961480837646"><ele>85.0</ele><time>2026-03-28T08:25:39.999Z</time></trkpt><trkpt lat="45.349932021703665" lon="9.412943757676576"><ele>85.0</ele><time>2026-03-28T08:25:40.999Z</time></trkpt><trkpt lat="45.349752005987206" lon="9.41292824507043"><ele>85.0</ele><time>2026-03-28T08:25:41.999Z</time></trkpt><trkpt lat="45.3495724882982" lon="9.412907635989367"><ele>85.0</ele><time>2026-03-28T08:25:42.999Z</time></trkpt><trkpt lat="45.3493962993388" lon="9.412860865446056"><ele>85.0</ele><time>2026-03-28T08:25:43.999Z</time></trkpt><trkpt lat="45.349227154592114" lon="9.412784200007092"><ele>85.0</ele><time>2026-03-28T08:25:44.999Z</time></trkpt><trkpt lat="45.34907161836001" lon="9.412684856887955"><ele>85.0</ele><time>2026-03-28T08:25:45.999Z</time></trkpt><trkpt lat="45.34891615952074" lon="9.41257966907544"><ele>85.0</ele><time>2026-03-28T08:25:46.999Z</time></trkpt><trkpt lat="45.34876229910835" lon="9.412476529068334"><ele>85.0</ele><time>2026-03-28T08:25:47.999Z</time></trkpt><trkpt lat="45.34860785691416" lon="9.412372456761341"><ele>85.0</ele><time>2026-03-28T08:25:48.999Z</time></trkpt><trkpt lat="45.34845031936962" lon="9.412266959452275"><ele>85.0</ele><time>2026-03-28T08:25:49.999Z</time></trkpt><trkpt lat="45.34829013463306" lon="9.41216359511823"><ele>85.0</ele><time>2026-03-28T08:25:50.999Z</time></trkpt><trkpt lat="45.348118144030536" lon="9.412075753466583"><ele>84.66666666666666</ele><time>2026-03-28T08:25:51.999Z</time></trkpt><trkpt lat="45.34794201084906" lon="9.412001106206851"><ele>84.33333333333333</ele><time>2026-03-28T08:25:52.999Z</time></trkpt><trkpt lat="45.34776463372955" lon="9.411933620802458"><ele>84.0</ele><time>2026-03-28T08:25:53.999Z</time></trkpt><trkpt lat="45.34758573279362" lon="9.411870005669046"><ele>84.0</ele><time>2026-03-28T08:25:54.999Z</time></trkpt><trkpt lat="45.347407743917536" lon="9.411810007343153"><ele>84.0</ele><time>2026-03-28T08:25:55.999Z</time></trkpt><trkpt lat="45.34722408789465" lon="9.411757715747422"><ele>84.0</ele><time>2026-03-28T08:25:56.999Z</time></trkpt><trkpt lat="45.347032656510315" lon="9.411745493815245"><ele>83.66666666666667</ele><time>2026-03-28T08:25:57.999Z</time></trkpt><trkpt lat="45.34684363164422" lon="9.411758890220623"><ele>83.33333333333334</ele><time>2026-03-28T08:25:58.999Z</time></trkpt><trkpt lat="45.3466572309289" lon="9.41177681004729"><ele>83.0</ele><time>2026-03-28T08:25:59.999Z</time></trkpt><trkpt lat="45.34646990871886" lon="9.411792550097758"><ele>83.66666666666667</ele><time>2026-03-28T08:26:00.999Z</time></trkpt><trkpt lat="45.34628290329701" lon="9.411803773361125"><ele>84.33333333333333</ele><time>2026-03-28T08:26:01.999Z</time></trkpt><trkpt lat="45.34609481522605" lon="9.411815497965117"><ele>85.0</ele><time>2026-03-28T08:26:02.999Z</time></trkpt><trkpt lat="45.345910838747194" lon="9.41182933607594"><ele>85.0</ele><time>2026-03-28T08:26:03.999Z</time></trkpt><trkpt lat="45.34572324047829" lon="9.41184344660302"><ele>85.0</ele><time>2026-03-28T08:26:04.999Z</time></trkpt><trkpt lat="45.34553475969108" lon="9.411855464379247"><ele>85.0</ele><time>2026-03-28T08:26:05.999Z</time></trkpt><trkpt lat="45.345348672193964" lon="9.411859363581348"><ele>85.33333333333333</ele><time>2026-03-28T08:26:06.999Z</time></trkpt><trkpt lat="45.34516142835694" lon="9.411857411090505"><ele>85.66666666666667</ele><time>2026-03-28T08:26:08Z</time></trkpt><trkpt lat="45.344974833905106" lon="9.411855465370637"><ele>86.0</ele><time>2026-03-28T08:26:09Z</time></trkpt><trkpt lat="45.344786151919614" lon="9.411891347630734"><ele>85.66666666666667</ele><time>2026-03-28T08:26:10Z</time></trkpt><trkpt lat="45.344611864763245" lon="9.411973796032441"><ele>85.33333333333333</ele><time>2026-03-28T08:26:11Z</time></trkpt><trkpt lat="45.34443845580502" lon="9.412064748515446"><ele>85.0</ele><time>2026-03-28T08:26:12Z</time></trkpt><trkpt lat="45.34426162491707" lon="9.412161867406347"><ele>85.0</ele><time>2026-03-28T08:26:13Z</time></trkpt><trkpt lat="45.344092314627666" lon="9.412259723194452"><ele>85.0</ele><time>2026-03-28T08:26:14Z</time></trkpt><trkpt lat="45.34394053163731" lon="9.412350334996813"><ele>85.0</ele><time>2026-03-28T08:26:15Z</time></trkpt><trkpt lat="45.34379257013328" lon="9.412463285596019"><ele>84.66666666666666</ele><time>2026-03-28T08:26:16Z</time></trkpt><trkpt lat="45.34362151268686" lon="9.412483536921949"><ele>84.33333333333333</ele><time>2026-03-28T08:26:17Z</time></trkpt><trkpt lat="45.34346648859733" lon="9.412331189257248"><ele>84.0</ele><time>2026-03-28T08:26:18Z</time></trkpt><trkpt lat="45.343301025495045" lon="9.412241518013074"><ele>84.0</ele><time>2026-03-28T08:26:19Z</time></trkpt><trkpt lat="45.34312584095966" lon="9.412203581407205"><ele>84.0</ele><time>2026-03-28T08:26:20Z</time></trkpt><trkpt lat="45.34295942830351" lon="9.412186292971713"><ele>84.0</ele><time>2026-03-28T08:26:21Z</time></trkpt><trkpt lat="45.342802730118734" lon="9.412139147982463"><ele>84.33333333333333</ele><time>2026-03-28T08:26:22Z</time></trkpt><trkpt lat="45.342662247367805" lon="9.412035677813591"><ele>84.66666666666666</ele><time>2026-03-28T08:26:23Z</time></trkpt><trkpt lat="45.34251896789594" lon="9.4119219347866"><ele>85.0</ele><time>2026-03-28T08:26:24Z</time></trkpt><trkpt lat="45.342361324706864" lon="9.411823907802274"><ele>85.0</ele><time>2026-03-28T08:26:25Z</time></trkpt><trkpt lat="45.34220019574742" lon="9.41175422350855"><ele>85.0</ele><time>2026-03-28T08:26:26Z</time></trkpt><trkpt lat="45.34203154471921" lon="9.411707142014848"><ele>85.0</ele><time>2026-03-28T08:26:27Z</time></trkpt><trkpt lat="45.34185775202397" lon="9.411687486153143"><ele>85.0</ele><time>2026-03-28T08:26:28Z</time></trkpt><trkpt lat="45.341685403259675" lon="9.411684118353044"><ele>85.0</ele><time>2026-03-28T08:26:29Z</time></trkpt><trkpt lat="45.34151962472225" lon="9.411673725071452"><ele>85.0</ele><time>2026-03-28T08:26:30Z</time></trkpt><trkpt lat="45.341353150686416" lon="9.411649172252623"><ele>85.0</ele><time>2026-03-28T08:26:31Z</time></trkpt><trkpt lat="45.34119324061633" lon="9.411603553013325"><ele>85.0</ele><time>2026-03-28T08:26:32Z</time></trkpt><trkpt lat="45.34103253640867" lon="9.411540255832197"><ele>85.0</ele><time>2026-03-28T08:26:33Z</time></trkpt><trkpt lat="45.34087180667646" lon="9.411471204437538"><ele>85.0</ele><time>2026-03-28T08:26:34Z</time></trkpt><trkpt lat="45.34071114004046" lon="9.411402180276724"><ele>85.0</ele><time>2026-03-28T08:26:35Z</time></trkpt><trkpt lat="45.3405470283847" lon="9.411332782309135"><ele>85.0</ele><time>2026-03-28T08:26:36Z</time></trkpt><trkpt lat="45.34038373598197" lon="9.411266539382678"><ele>85.0</ele><time>2026-03-28T08:26:37Z</time></trkpt><trkpt lat="45.340216550567185" lon="9.411209582855882"><ele>85.0</ele><time>2026-03-28T08:26:38Z</time></trkpt><trkpt lat="45.34004879981906" lon="9.41116427374168"><ele>85.0</ele><time>2026-03-28T08:26:39Z</time></trkpt><trkpt lat="45.33988164636243" lon="9.411122024897278"><ele>84.66666666666666</ele><time>2026-03-28T08:26:40Z</time></trkpt><trkpt lat="45.33971471464718" lon="9.41109515918469"><ele>84.33333333333333</ele><time>2026-03-28T08:26:41Z</time></trkpt><trkpt lat="45.33955661341955" lon="9.411095405380134"><ele>84.0</ele><time>2026-03-28T08:26:42Z</time></trkpt><trkpt lat="45.33939601451461" lon="9.41113366979877"><ele>84.0</ele><time>2026-03-28T08:26:43Z</time></trkpt><trkpt lat="45.33924233890547" lon="9.411226511410433"><ele>84.0</ele><time>2026-03-28T08:26:44Z</time></trkpt><trkpt lat="45.339108499671596" lon="9.411369277184303"><ele>84.0</ele><time>2026-03-28T08:26:45Z</time></trkpt><trkpt lat="45.338971451706925" lon="9.411507484899195"><ele>84.0</ele><time>2026-03-28T08:26:46Z</time></trkpt><trkpt lat="45.338822950041205" lon="9.411613187821859"><ele>84.0</ele><time>2026-03-28T08:26:47Z</time></trkpt><trkpt lat="45.338683316210485" lon="9.41172240622877"><ele>84.0</ele><time>2026-03-28T08:26:48Z</time></trkpt><trkpt lat="45.338539213718164" lon="9.411731139210973"><ele>84.0</ele><time>2026-03-28T08:26:49Z</time></trkpt><trkpt lat="45.33842199984078" lon="9.411713494608207"><ele>84.0</ele><time>2026-03-28T08:26:50Z</time></trkpt><trkpt lat="45.33830870783054" lon="9.411690191220673"><ele>84.0</ele><time>2026-03-28T08:26:51Z</time></trkpt><trkpt lat="45.33821976602883" lon="9.411610857541968"><ele>84.0</ele><time>2026-03-28T08:26:52Z</time></trkpt><trkpt lat="45.33815261857774" lon="9.411519401110455"><ele>84.0</ele><time>2026-03-28T08:26:53Z</time></trkpt><trkpt lat="45.3381032612255" lon="9.41140462090255"><ele>84.2</ele><time>2026-03-28T08:26:54Z</time></trkpt><trkpt lat="45.338091929920594" lon="9.41126472854493"><ele>84.4</ele><time>2026-03-28T08:26:55Z</time></trkpt><trkpt lat="45.33809492308851" lon="9.411113332081104"><ele>84.6</ele><time>2026-03-28T08:26:56Z</time></trkpt><trkpt lat="45.338055152660466" lon="9.41098575922684"><ele>84.8</ele><time>2026-03-28T08:26:57Z</time></trkpt><trkpt lat="45.33798273669358" lon="9.410908209583484"><ele>85.0</ele><time>2026-03-28T08:26:58Z</time></trkpt><trkpt lat="45.33789663373612" lon="9.410883549794217"><ele>85.0</ele><time>2026-03-28T08:26:59Z</time></trkpt><trkpt lat="45.33781193764856" lon="9.410885245164332"><ele>85.0</ele><time>2026-03-28T08:26:59.999Z</time></trkpt><trkpt lat="45.337736049351335" lon="9.4110027027381"><ele>85.0</ele><time>2026-03-28T08:27:00.999Z</time></trkpt><trkpt lat="45.337673537014965" lon="9.411132402523805"><ele>85.0</ele><time>2026-03-28T08:27:01.999Z</time></trkpt><trkpt lat="45.337594580699516" lon="9.411262855309744"><ele>85.0</ele><time>2026-03-28T08:27:02.999Z</time></trkpt><trkpt lat="45.33748115220766" lon="9.411360770498533"><ele>85.0</ele><time>2026-03-28T08:27:03.999Z</time></trkpt><trkpt lat="45.33734832093322" lon="9.411436440134398"><ele>85.0</ele><time>2026-03-28T08:27:04.999Z</time></trkpt><trkpt lat="45.33720458231183" lon="9.411513389462488"><ele>85.0</ele><time>2026-03-28T08:27:05.999Z</time></trkpt><trkpt lat="45.33704953836518" lon="9.411590550207295"><ele>85.0</ele><time>2026-03-28T08:27:06.999Z</time></trkpt><trkpt lat="45.336883849825156" lon="9.411668330057667"><ele>85.0</ele><time>2026-03-28T08:27:07.999Z</time></trkpt><trkpt lat="45.3367088782991" lon="9.411745950057586"><ele>85.0</ele><time>2026-03-28T08:27:08.999Z</time></trkpt><trkpt lat="45.33652922846767" lon="9.411827380910173"><ele>84.66666666666666</ele><time>2026-03-28T08:27:09.999Z</time></trkpt><trkpt lat="45.33634291422093" lon="9.411912378256485"><ele>84.33333333333333</ele><time>2026-03-28T08:27:10.999Z</time></trkpt><trkpt lat="45.336151401377855" lon="9.411994993551355"><ele>84.0</ele><time>2026-03-28T08:27:11.999Z</time></trkpt><trkpt lat="45.33596077609768" lon="9.412076403023187"><ele>84.0</ele><time>2026-03-28T08:27:12.999Z</time></trkpt><trkpt lat="45.335772660292605" lon="9.412160111229722"><ele>84.0</ele><time>2026-03-28T08:27:13.999Z</time></trkpt><trkpt lat="45.335584799809965" lon="9.41224240326607"><ele>84.0</ele><time>2026-03-28T08:27:14.999Z</time></trkpt><trkpt lat="45.33539755809346" lon="9.412326879998112"><ele>84.0</ele><time>2026-03-28T08:27:15.999Z</time></trkpt><trkpt lat="45.335211971624055" lon="9.412415893187417"><ele>84.0</ele><time>2026-03-28T08:27:16.999Z</time></trkpt><trkpt lat="45.33502470704612" lon="9.412502233439932"><ele>84.0</ele><time>2026-03-28T08:27:17.999Z</time></trkpt><trkpt lat="45.33483679994826" lon="9.412582297561338"><ele>84.66666666666667</ele><time>2026-03-28T08:27:18.999Z</time></trkpt><trkpt lat="45.33464860724102" lon="9.412663347204575"><ele>85.33333333333334</ele><time>2026-03-28T08:27:19.999Z</time></trkpt><trkpt lat="45.33446084969527" lon="9.41273821461694"><ele>86.0</ele><time>2026-03-28T08:27:20.999Z</time></trkpt><trkpt lat="45.33427209352169" lon="9.412816988216193"><ele>86.0</ele><time>2026-03-28T08:27:21.999Z</time></trkpt><trkpt lat="45.33408477695764" lon="9.412904354625198"><ele>86.0</ele><time>2026-03-28T08:27:22.999Z</time></trkpt><trkpt lat="45.333899163266786" lon="9.413000305581372"><ele>86.0</ele><time>2026-03-28T08:27:23.999Z</time></trkpt><trkpt lat="45.33371736184515" lon="9.41310632074138"><ele>85.33333333333334</ele><time>2026-03-28T08:27:24.999Z</time></trkpt><trkpt lat="45.333538844604114" lon="9.413226109848182"><ele>84.66666666666667</ele><time>2026-03-28T08:27:25.999Z</time></trkpt><trkpt lat="45.333365515110195" lon="9.413357706918436"><ele>84.0</ele><time>2026-03-28T08:27:26.999Z</time></trkpt><trkpt lat="45.333195148932234" lon="9.413499708625448"><ele>84.0</ele><time>2026-03-28T08:27:27.999Z</time></trkpt><trkpt lat="45.33303091154442" lon="9.413652123244933"><ele>84.0</ele><time>2026-03-28T08:27:28.999Z</time></trkpt><trkpt lat="45.33287155794792" lon="9.413814975659703"><ele>84.0</ele><time>2026-03-28T08:27:29.999Z</time></trkpt><trkpt lat="45.332718822673584" lon="9.413990958110567"><ele>84.0</ele><time>2026-03-28T08:27:30.999Z</time></trkpt><trkpt lat="45.33257320268755" lon="9.414177065065553"><ele>84.0</ele><time>2026-03-28T08:27:31.999Z</time></trkpt><trkpt lat="45.33243586692755" lon="9.414377602908285"><ele>84.0</ele><time>2026-03-28T08:27:32.999Z</time></trkpt><trkpt lat="45.3323123787696" lon="9.414573675202789"><ele>83.66666666666667</ele><time>2026-03-28T08:27:33.999Z</time></trkpt><trkpt lat="45.33220083685134" lon="9.414769784906513"><ele>83.33333333333334</ele><time>2026-03-28T08:27:34.999Z</time></trkpt><trkpt lat="45.33209714740268" lon="9.414973286917961"><ele>83.0</ele><time>2026-03-28T08:27:35.999Z</time></trkpt><trkpt lat="45.33199859842773" lon="9.415176205789008"><ele>83.0</ele><time>2026-03-28T08:27:36.999Z</time></trkpt><trkpt lat="45.33191264018698" lon="9.415376558844878"><ele>83.0</ele><time>2026-03-28T08:27:37.999Z</time></trkpt><trkpt lat="45.33184083499343" lon="9.415571555328892"><ele>83.0</ele><time>2026-03-28T08:27:38.999Z</time></trkpt><trkpt lat="45.33176219124203" lon="9.415753965888877"><ele>83.0</ele><time>2026-03-28T08:27:39.999Z</time></trkpt><trkpt lat="45.331672580691745" lon="9.41590822703233"><ele>83.0</ele><time>2026-03-28T08:27:40.999Z</time></trkpt><trkpt lat="45.33156429847068" lon="9.416037640221266"><ele>83.0</ele><time>2026-03-28T08:27:41.999Z</time></trkpt><trkpt lat="45.33148912568098" lon="9.416148641697"><ele>83.0</ele><time>2026-03-28T08:27:42.999Z</time></trkpt><trkpt lat="45.33145729927738" lon="9.41628928315158"><ele>83.0</ele><time>2026-03-28T08:27:43.999Z</time></trkpt><trkpt lat="45.33146157862147" lon="9.416449994452279"><ele>83.0</ele><time>2026-03-28T08:27:44.999Z</time></trkpt><trkpt lat="45.331489549102294" lon="9.416620343529559"><ele>83.0</ele><time>2026-03-28T08:27:45.999Z</time></trkpt><trkpt lat="45.33150054698402" lon="9.41680476634439"><ele>83.0</ele><time>2026-03-28T08:27:46.999Z</time></trkpt><trkpt lat="45.331477264636575" lon="9.416994244199259"><ele>82.33333333333334</ele><time>2026-03-28T08:27:47.999Z</time></trkpt><trkpt lat="45.33145044442064" lon="9.417195857674919"><ele>81.66666666666667</ele><time>2026-03-28T08:27:48.999Z</time></trkpt><trkpt lat="45.33142774665356" lon="9.417411289138299"><ele>81.0</ele><time>2026-03-28T08:27:49.999Z</time></trkpt><trkpt lat="45.331413261532575" lon="9.417639704878145"><ele>81.0</ele><time>2026-03-28T08:27:50.999Z</time></trkpt><trkpt lat="45.33140716592548" lon="9.41788239939378"><ele>81.0</ele><time>2026-03-28T08:27:51.999Z</time></trkpt><trkpt lat="45.33140589304252" lon="9.418136087506557"><ele>81.0</ele><time>2026-03-28T08:27:52.999Z</time></trkpt><trkpt lat="45.33141043865675" lon="9.418397874768774"><ele>81.0</ele><time>2026-03-28T08:27:53.999Z</time></trkpt><trkpt lat="45.33142419267586" lon="9.418666912941504"><ele>81.0</ele><time>2026-03-28T08:27:54.999Z</time></trkpt><trkpt lat="45.331443850092626" lon="9.41894478538632"><ele>81.0</ele><time>2026-03-28T08:27:55.999Z</time></trkpt><trkpt lat="45.33146465171243" lon="9.41923001285275"><ele>81.0</ele><time>2026-03-28T08:27:56.999Z</time></trkpt><trkpt lat="45.331485658749045" lon="9.41951265375489"><ele>81.0</ele><time>2026-03-28T08:27:57.999Z</time></trkpt><trkpt lat="45.33150162398668" lon="9.419800668175043"><ele>81.0</ele><time>2026-03-28T08:27:58.999Z</time></trkpt><trkpt lat="45.33152063270009" lon="9.420089636068889"><ele>81.0</ele><time>2026-03-28T08:27:59.999Z</time></trkpt><trkpt lat="45.33153736522437" lon="9.420379786324018"><ele>81.0</ele><time>2026-03-28T08:28:00.999Z</time></trkpt><trkpt lat="45.33155536933485" lon="9.42066713285516"><ele>81.0</ele><time>2026-03-28T08:28:01.999Z</time></trkpt><trkpt lat="45.33157560868252" lon="9.420953317916007"><ele>81.0</ele><time>2026-03-28T08:28:02.999Z</time></trkpt><trkpt lat="45.331597264465955" lon="9.421241128225915"><ele>81.0</ele><time>2026-03-28T08:28:03.999Z</time></trkpt><trkpt lat="45.33161430795645" lon="9.421529699749069"><ele>81.0</ele><time>2026-03-28T08:28:04.999Z</time></trkpt><trkpt lat="45.331632849736295" lon="9.421815709655965"><ele>81.0</ele><time>2026-03-28T08:28:05.999Z</time></trkpt><trkpt lat="45.33164635900887" lon="9.422104381522033"><ele>81.0</ele><time>2026-03-28T08:28:06.999Z</time></trkpt><trkpt lat="45.33164903886473" lon="9.422395166967567"><ele>81.0</ele><time>2026-03-28T08:28:07.999Z</time></trkpt><trkpt lat="45.33163820074686" lon="9.422688309312411"><ele>81.0</ele><time>2026-03-28T08:28:08.999Z</time></trkpt><trkpt lat="45.331609017740846" lon="9.422976559440903"><ele>81.0</ele><time>2026-03-28T08:28:09.999Z</time></trkpt><trkpt lat="45.33155813187195" lon="9.423270570310768"><ele>81.0</ele><time>2026-03-28T08:28:10.999Z</time></trkpt><trkpt lat="45.3315002260397" lon="9.423565422266337"><ele>81.66666666666667</ele><time>2026-03-28T08:28:11.999Z</time></trkpt><trkpt lat="45.3314604706362" lon="9.4238692969302"><ele>82.33333333333334</ele><time>2026-03-28T08:28:12.999Z</time></trkpt><trkpt lat="45.33148485217277" lon="9.424140690005833"><ele>83.0</ele><time>2026-03-28T08:28:14Z</time></trkpt><trkpt lat="45.33146648740892" lon="9.424421333676886"><ele>82.33333333333334</ele><time>2026-03-28T08:28:15Z</time></trkpt><trkpt lat="45.33143946969039" lon="9.424703792316087"><ele>81.66666666666667</ele><time>2026-03-28T08:28:16Z</time></trkpt><trkpt lat="45.33141459787636" lon="9.42498286585227"><ele>81.0</ele><time>2026-03-28T08:28:17Z</time></trkpt><trkpt lat="45.331390865834074" lon="9.425244223541084"><ele>80.66666666666667</ele><time>2026-03-28T08:28:18Z</time></trkpt><trkpt lat="45.331367357769004" lon="9.425488676774412"><ele>80.33333333333334</ele><time>2026-03-28T08:28:19Z</time></trkpt><trkpt lat="45.33134457683225" lon="9.425722475270808"><ele>80.0</ele><time>2026-03-28T08:28:20Z</time></trkpt><trkpt lat="45.33132154525315" lon="9.425945109766527"><ele>80.0</ele><time>2026-03-28T08:28:21Z</time></trkpt><trkpt lat="45.33129719963392" lon="9.426163480820383"><ele>80.0</ele><time>2026-03-28T08:28:22Z</time></trkpt><trkpt lat="45.331274072149775" lon="9.426383627544409"><ele>80.0</ele><time>2026-03-28T08:28:23Z</time></trkpt><trkpt lat="45.33125457442236" lon="9.426608142964241"><ele>80.0</ele><time>2026-03-28T08:28:24Z</time></trkpt><trkpt lat="45.33123443966876" lon="9.426835217951428"><ele>80.0</ele><time>2026-03-28T08:28:25Z</time></trkpt><trkpt lat="45.331211246458835" lon="9.427064824461135"><ele>80.0</ele><time>2026-03-28T08:28:26Z</time></trkpt><trkpt lat="45.331186930636356" lon="9.427294235939955"><ele>80.0</ele><time>2026-03-28T08:28:27Z</time></trkpt><trkpt lat="45.33116040160193" lon="9.42752342778779"><ele>80.0</ele><time>2026-03-28T08:28:28Z</time></trkpt><trkpt lat="45.33113498713306" lon="9.427754675914752"><ele>80.0</ele><time>2026-03-28T08:28:29Z</time></trkpt><trkpt lat="45.33110802431048" lon="9.427987138353357"><ele>80.0</ele><time>2026-03-28T08:28:30Z</time></trkpt><trkpt lat="45.331084299498656" lon="9.428220558221405"><ele>80.0</ele><time>2026-03-28T08:28:31Z</time></trkpt><trkpt lat="45.33106805707107" lon="9.428455516685917"><ele>80.0</ele><time>2026-03-28T08:28:32Z</time></trkpt><trkpt lat="45.33104335473678" lon="9.428692518924521"><ele>80.66666666666667</ele><time>2026-03-28T08:28:33Z</time></trkpt><trkpt lat="45.33101710149863" lon="9.428926154404717"><ele>81.33333333333333</ele><time>2026-03-28T08:28:34Z</time></trkpt><trkpt lat="45.330993433816516" lon="9.42914905324534"><ele>82.0</ele><time>2026-03-28T08:28:35Z</time></trkpt><trkpt lat="45.33097289114726" lon="9.429371413146487"><ele>82.0</ele><time>2026-03-28T08:28:36Z</time></trkpt><trkpt lat="45.33095108964973" lon="9.429593621783196"><ele>82.0</ele><time>2026-03-28T08:28:37Z</time></trkpt><trkpt lat="45.33092717293783" lon="9.429817145367574"><ele>82.0</ele><time>2026-03-28T08:28:38Z</time></trkpt><trkpt lat="45.330900736301736" lon="9.430040227553963"><ele>83.0</ele><time>2026-03-28T08:28:39Z</time></trkpt><trkpt lat="45.33087159620554" lon="9.43026177957153"><ele>84.0</ele><time>2026-03-28T08:28:40Z</time></trkpt><trkpt lat="45.330839303175935" lon="9.430472887287538"><ele>85.0</ele><time>2026-03-28T08:28:41Z</time></trkpt><trkpt lat="45.330803684673576" lon="9.43067908727499"><ele>85.0</ele><time>2026-03-28T08:28:42Z</time></trkpt><trkpt lat="45.33076878609949" lon="9.430887142807741"><ele>85.0</ele><time>2026-03-28T08:28:43Z</time></trkpt><trkpt lat="45.33072986632795" lon="9.431093790153062"><ele>85.0</ele><time>2026-03-28T08:28:44Z</time></trkpt><trkpt lat="45.330683940965976" lon="9.431305821986344"><ele>84.0</ele><time>2026-03-28T08:28:45Z</time></trkpt><trkpt lat="45.330635274184154" lon="9.43151941394961"><ele>83.0</ele><time>2026-03-28T08:28:46Z</time></trkpt><trkpt lat="45.3305776656523" lon="9.43173139003525"><ele>82.0</ele><time>2026-03-28T08:28:47Z</time></trkpt><trkpt lat="45.330521069029075" lon="9.43194284058378"><ele>81.66666666666666</ele><time>2026-03-28T08:28:48Z</time></trkpt><trkpt lat="45.330465802680266" lon="9.432154730626152"><ele>81.33333333333333</ele><time>2026-03-28T08:28:49Z</time></trkpt><trkpt lat="45.33040898247938" lon="9.432363846118745"><ele>81.0</ele><time>2026-03-28T08:28:50Z</time></trkpt><trkpt lat="45.33035297366929" lon="9.432575500475261"><ele>81.0</ele><time>2026-03-28T08:28:51Z</time></trkpt><trkpt lat="45.330297463130776" lon="9.432796559171265"><ele>81.0</ele><time>2026-03-28T08:28:52Z</time></trkpt><trkpt lat="45.33024003715207" lon="9.433026533091889"><ele>81.0</ele><time>2026-03-28T08:28:53Z</time></trkpt><trkpt lat="45.33017998990483" lon="9.43326373241765"><ele>81.33333333333333</ele><time>2026-03-28T08:28:54Z</time></trkpt><trkpt lat="45.33011939479404" lon="9.433505361812173"><ele>81.66666666666666</ele><time>2026-03-28T08:28:55Z</time></trkpt><trkpt lat="45.330056208408024" lon="9.433750025853861"><ele>82.0</ele><time>2026-03-28T08:28:56Z</time></trkpt><trkpt lat="45.329992318672765" lon="9.433997140400535"><ele>82.66666666666666</ele><time>2026-03-28T08:28:57Z</time></trkpt><trkpt lat="45.32992879262276" lon="9.434247505883352"><ele>83.33333333333333</ele><time>2026-03-28T08:28:58Z</time></trkpt><trkpt lat="45.32984748213654" lon="9.434491351071117"><ele>84.0</ele><time>2026-03-28T08:28:59Z</time></trkpt><trkpt lat="45.329781078468834" lon="9.434744182548071"><ele>84.0</ele><time>2026-03-28T08:29:00Z</time></trkpt><trkpt lat="45.32972801602296" lon="9.435006414231937"><ele>84.0</ele><time>2026-03-28T08:29:01Z</time></trkpt><trkpt lat="45.32965810843515" lon="9.435261659840485"><ele>84.0</ele><time>2026-03-28T08:29:02Z</time></trkpt><trkpt lat="45.32958926455673" lon="9.435519840264828"><ele>84.0</ele><time>2026-03-28T08:29:03Z</time></trkpt><trkpt lat="45.32952148507901" lon="9.43577642763186"><ele>84.0</ele><time>2026-03-28T08:29:04Z</time></trkpt><trkpt lat="45.32945262266102" lon="9.436031555866728"><ele>84.0</ele><time>2026-03-28T08:29:05Z</time></trkpt><trkpt lat="45.329385570443456" lon="9.436286222322"><ele>83.33333333333333</ele><time>2026-03-28T08:29:06Z</time></trkpt><trkpt lat="45.32932066444096" lon="9.436541181794583"><ele>82.66666666666666</ele><time>2026-03-28T08:29:07Z</time></trkpt><trkpt lat="45.329254819173556" lon="9.436794608594326"><ele>82.0</ele><time>2026-03-28T08:29:08Z</time></trkpt><trkpt lat="45.32918895864681" lon="9.437045314818834"><ele>82.66666666666666</ele><time>2026-03-28T08:29:09Z</time></trkpt><trkpt lat="45.3291256274973" lon="9.437290256679521"><ele>83.33333333333333</ele><time>2026-03-28T08:29:10Z</time></trkpt><trkpt lat="45.32906448050905" lon="9.437521473477055"><ele>84.0</ele><time>2026-03-28T08:29:10.999Z</time></trkpt><trkpt lat="45.32900485385429" lon="9.437741942544692"><ele>84.0</ele><time>2026-03-28T08:29:11.999Z</time></trkpt><trkpt lat="45.32894530657626" lon="9.437958914102905"><ele>84.0</ele><time>2026-03-28T08:29:12.999Z</time></trkpt><trkpt lat="45.328886824877465" lon="9.43817846092698"><ele>84.0</ele><time>2026-03-28T08:29:13.999Z</time></trkpt><trkpt lat="45.328826825424954" lon="9.438399749218588"><ele>84.0</ele><time>2026-03-28T08:29:14.999Z</time></trkpt><trkpt lat="45.32876748406792" lon="9.43862285365818"><ele>84.0</ele><time>2026-03-28T08:29:15.999Z</time></trkpt><trkpt lat="45.328709619650944" lon="9.43884763144895"><ele>84.0</ele><time>2026-03-28T08:29:16.999Z</time></trkpt><trkpt lat="45.32865062753144" lon="9.439078551900423"><ele>84.0</ele><time>2026-03-28T08:29:17.999Z</time></trkpt><trkpt lat="45.32858978313822" lon="9.439309421308243"><ele>84.0</ele><time>2026-03-28T08:29:18.999Z</time></trkpt><trkpt lat="45.328527379891796" lon="9.439544871748964"><ele>84.0</ele><time>2026-03-28T08:29:19.999Z</time></trkpt><trkpt lat="45.328464006337" lon="9.439782191527039"><ele>84.0</ele><time>2026-03-28T08:29:20.999Z</time></trkpt><trkpt lat="45.32840111198074" lon="9.440022766881613"><ele>84.0</ele><time>2026-03-28T08:29:21.999Z</time></trkpt><trkpt lat="45.32833710951571" lon="9.440266703679468"><ele>84.0</ele><time>2026-03-28T08:29:22.999Z</time></trkpt><trkpt lat="45.328270844674186" lon="9.440502593167185"><ele>84.33333333333333</ele><time>2026-03-28T08:29:23.999Z</time></trkpt><trkpt lat="45.32821010539571" lon="9.440731408579607"><ele>84.66666666666666</ele><time>2026-03-28T08:29:24.999Z</time></trkpt><trkpt lat="45.32814666952889" lon="9.440951212086967"><ele>85.0</ele><time>2026-03-28T08:29:25.999Z</time></trkpt><trkpt lat="45.32808186601529" lon="9.441170100962792"><ele>83.66666666666666</ele><time>2026-03-28T08:29:26.999Z</time></trkpt><trkpt lat="45.32801193022336" lon="9.441398368509228"><ele>82.33333333333333</ele><time>2026-03-28T08:29:27.999Z</time></trkpt><trkpt lat="45.32792938617645" lon="9.441613061468258"><ele>81.0</ele><time>2026-03-28T08:29:28.999Z</time></trkpt><trkpt lat="45.32786120005053" lon="9.441824695240692"><ele>81.0</ele><time>2026-03-28T08:29:29.999Z</time></trkpt><trkpt lat="45.32779436256597" lon="9.442030746257235"><ele>81.0</ele><time>2026-03-28T08:29:30.999Z</time></trkpt><trkpt lat="45.327728339705835" lon="9.442228646278755"><ele>81.0</ele><time>2026-03-28T08:29:31.999Z</time></trkpt><trkpt lat="45.32767674846621" lon="9.442443672685497"><ele>81.33333333333333</ele><time>2026-03-28T08:29:32.999Z</time></trkpt><trkpt lat="45.32760492100582" lon="9.442651364534035"><ele>81.66666666666666</ele><time>2026-03-28T08:29:33.999Z</time></trkpt><trkpt lat="45.32753043926971" lon="9.442866723434102"><ele>82.0</ele><time>2026-03-28T08:29:34.999Z</time></trkpt><trkpt lat="45.32745678327064" lon="9.44309294692851"><ele>82.33333333333333</ele><time>2026-03-28T08:29:35.999Z</time></trkpt><trkpt lat="45.32738017758851" lon="9.443326572441507"><ele>82.66666666666667</ele><time>2026-03-28T08:29:36.999Z</time></trkpt><trkpt lat="45.32730141665534" lon="9.443564795463079"><ele>83.0</ele><time>2026-03-28T08:29:37.999Z</time></trkpt><trkpt lat="45.32721933471954" lon="9.443808687115554"><ele>82.33333333333334</ele><time>2026-03-28T08:29:38.999Z</time></trkpt><trkpt lat="45.32713151635013" lon="9.444061597709917"><ele>81.66666666666667</ele><time>2026-03-28T08:29:39.999Z</time></trkpt><trkpt lat="45.32704124977863" lon="9.444321641495886"><ele>81.0</ele><time>2026-03-28T08:29:40.999Z</time></trkpt><trkpt lat="45.32695397843167" lon="9.444591774587282"><ele>80.66666666666667</ele><time>2026-03-28T08:29:41.999Z</time></trkpt><trkpt lat="45.32686470458316" lon="9.444869916836298"><ele>80.33333333333334</ele><time>2026-03-28T08:29:42.999Z</time></trkpt><trkpt lat="45.32677282692692" lon="9.445152484411185"><ele>80.0</ele><time>2026-03-28T08:29:43.999Z</time></trkpt><trkpt lat="45.32667921846714" lon="9.445439083301322"><ele>80.5</ele><time>2026-03-28T08:29:44.999Z</time></trkpt><trkpt lat="45.32658431795489" lon="9.445728251907186"><ele>81.0</ele><time>2026-03-28T08:29:45.999Z</time></trkpt><trkpt lat="45.326489266098" lon="9.446021174267909"><ele>80.5</ele><time>2026-03-28T08:29:46.999Z</time></trkpt><trkpt lat="45.32639390070077" lon="9.446319284840287"><ele>80.0</ele><time>2026-03-28T08:29:47.999Z</time></trkpt><trkpt lat="45.32629466354955" lon="9.446620700141386"><ele>80.0</ele><time>2026-03-28T08:29:48.999Z</time></trkpt><trkpt lat="45.3261904213083" lon="9.446921245289982"><ele>80.0</ele><time>2026-03-28T08:29:49.999Z</time></trkpt><trkpt lat="45.32607979315496" lon="9.447219638923972"><ele>80.0</ele><time>2026-03-28T08:29:50.999Z</time></trkpt><trkpt lat="45.32596988330789" lon="9.447521961975138"><ele>80.0</ele><time>2026-03-28T08:29:51.999Z</time></trkpt><trkpt lat="45.325865517381345" lon="9.44783350198776"><ele>80.0</ele><time>2026-03-28T08:29:52.999Z</time></trkpt><trkpt lat="45.32576947929542" lon="9.448149842360896"><ele>80.0</ele><time>2026-03-28T08:29:53.999Z</time></trkpt><trkpt lat="45.32567024773206" lon="9.448467282724247"><ele>80.0</ele><time>2026-03-28T08:29:54.999Z</time></trkpt><trkpt lat="45.32556593988502" lon="9.448786341126208"><ele>80.0</ele><time>2026-03-28T08:29:55.999Z</time></trkpt><trkpt lat="45.325458053378995" lon="9.449103165919684"><ele>80.5</ele><time>2026-03-28T08:29:56.999Z</time></trkpt><trkpt lat="45.32535210875888" lon="9.449419803778524"><ele>81.0</ele><time>2026-03-28T08:29:57.999Z</time></trkpt><trkpt lat="45.32524869478832" lon="9.449734902092125"><ele>81.0</ele><time>2026-03-28T08:29:58.999Z</time></trkpt><trkpt lat="45.32514718784746" lon="9.450048429328422"><ele>81.0</ele><time>2026-03-28T08:29:59.999Z</time></trkpt><trkpt lat="45.32504793031159" lon="9.45035929413293"><ele>80.5</ele><time>2026-03-28T08:30:00.999Z</time></trkpt><trkpt lat="45.32495343625824" lon="9.450667430559339"><ele>80.0</ele><time>2026-03-28T08:30:01.999Z</time></trkpt><trkpt lat="45.32487208599759" lon="9.450978178272678"><ele>80.0</ele><time>2026-03-28T08:30:02.999Z</time></trkpt><trkpt lat="45.32480388229147" lon="9.451290547926913"><ele>80.0</ele><time>2026-03-28T08:30:03.999Z</time></trkpt><trkpt lat="45.32474477325291" lon="9.451601841606474"><ele>80.0</ele><time>2026-03-28T08:30:04.999Z</time></trkpt><trkpt lat="45.3246839082844" lon="9.451906333025919"><ele>80.0</ele><time>2026-03-28T08:30:05.999Z</time></trkpt><trkpt lat="45.32462148053013" lon="9.452203365373656"><ele>80.0</ele><time>2026-03-28T08:30:06.999Z</time></trkpt><trkpt lat="45.32456120640784" lon="9.452496233683767"><ele>80.33333333333334</ele><time>2026-03-28T08:30:07.999Z</time></trkpt><trkpt lat="45.32450291547661" lon="9.45278320107814"><ele>80.66666666666667</ele><time>2026-03-28T08:30:08.999Z</time></trkpt><trkpt lat="45.324445098271354" lon="9.45306379529754"><ele>81.0</ele><time>2026-03-28T08:30:09.999Z</time></trkpt><trkpt lat="45.324389980837914" lon="9.45333849535996"><ele>81.0</ele><time>2026-03-28T08:30:10.999Z</time></trkpt><trkpt lat="45.32433443085148" lon="9.453606779348776"><ele>81.0</ele><time>2026-03-28T08:30:11.999Z</time></trkpt><trkpt lat="45.324281519216235" lon="9.453867461366531"><ele>81.0</ele><time>2026-03-28T08:30:12.999Z</time></trkpt><trkpt lat="45.32422997785838" lon="9.454122654944745"><ele>81.0</ele><time>2026-03-28T08:30:13.999Z</time></trkpt><trkpt lat="45.324181718567814" lon="9.454373799455203"><ele>81.0</ele><time>2026-03-28T08:30:14.999Z</time></trkpt><trkpt lat="45.32413563021464" lon="9.454619008023858"><ele>81.0</ele><time>2026-03-28T08:30:15.999Z</time></trkpt><trkpt lat="45.324086465693256" lon="9.454858990738813"><ele>81.0</ele><time>2026-03-28T08:30:16.999Z</time></trkpt><trkpt lat="45.324037036316724" lon="9.455092113609158"><ele>81.0</ele><time>2026-03-28T08:30:17.999Z</time></trkpt><trkpt lat="45.323986718055764" lon="9.45532401414278"><ele>81.0</ele><time>2026-03-28T08:30:18.999Z</time></trkpt><trkpt lat="45.323934558759305" lon="9.455551444598031"><ele>80.66666666666667</ele><time>2026-03-28T08:30:20Z</time></trkpt><trkpt lat="45.32388008398001" lon="9.455775189372927"><ele>80.33333333333334</ele><time>2026-03-28T08:30:21Z</time></trkpt><trkpt lat="45.32381892945762" lon="9.455997474607305"><ele>80.0</ele><time>2026-03-28T08:30:22Z</time></trkpt><trkpt lat="45.323748585315926" lon="9.456223660651819"><ele>80.33333333333334</ele><time>2026-03-28T08:30:23Z</time></trkpt><trkpt lat="45.323668688425904" lon="9.456448359777392"><ele>80.66666666666667</ele><time>2026-03-28T08:30:24Z</time></trkpt><trkpt lat="45.32357794407021" lon="9.456671976263792"><ele>81.0</ele><time>2026-03-28T08:30:25Z</time></trkpt><trkpt lat="45.32347661081568" lon="9.456893276305065"><ele>81.0</ele><time>2026-03-28T08:30:26Z</time></trkpt><trkpt lat="45.32336370780998" lon="9.457112863358912"><ele>81.0</ele><time>2026-03-28T08:30:27Z</time></trkpt><trkpt lat="45.32324413400892" lon="9.45733663856216"><ele>81.0</ele><time>2026-03-28T08:30:28Z</time></trkpt><trkpt lat="45.32312142351907" lon="9.457564443959187"><ele>81.0</ele><time>2026-03-28T08:30:29Z</time></trkpt><trkpt lat="45.322997673947334" lon="9.457796872711898"><ele>81.0</ele><time>2026-03-28T08:30:30Z</time></trkpt><trkpt lat="45.32287398578117" lon="9.458032046428533"><ele>81.0</ele><time>2026-03-28T08:30:31Z</time></trkpt><trkpt lat="45.322748104966685" lon="9.458271350624393"><ele>81.0</ele><time>2026-03-28T08:30:32Z</time></trkpt><trkpt lat="45.322619001507796" lon="9.45851169754782"><ele>81.0</ele><time>2026-03-28T08:30:33Z</time></trkpt><trkpt lat="45.32248650866925" lon="9.458751142861297"><ele>81.0</ele><time>2026-03-28T08:30:34Z</time></trkpt><trkpt lat="45.32235156692031" lon="9.458992123374236"><ele>81.33333333333333</ele><time>2026-03-28T08:30:35Z</time></trkpt><trkpt lat="45.322215235151866" lon="9.459233456481382"><ele>81.66666666666666</ele><time>2026-03-28T08:30:36Z</time></trkpt><trkpt lat="45.32208325177531" lon="9.45947855685364"><ele>82.0</ele><time>2026-03-28T08:30:37Z</time></trkpt><trkpt lat="45.321949554933255" lon="9.459723721143346"><ele>81.0</ele><time>2026-03-28T08:30:38Z</time></trkpt><trkpt lat="45.32181315599255" lon="9.459975455080757"><ele>80.0</ele><time>2026-03-28T08:30:39Z</time></trkpt><trkpt lat="45.32167685772972" lon="9.460227967870319"><ele>79.0</ele><time>2026-03-28T08:30:40Z</time></trkpt><trkpt lat="45.32154280300434" lon="9.460481549875842"><ele>79.0</ele><time>2026-03-28T08:30:41Z</time></trkpt><trkpt lat="45.32140747988297" lon="9.460735427261932"><ele>79.0</ele><time>2026-03-28T08:30:42Z</time></trkpt><trkpt lat="45.32127328814527" lon="9.460988127660775"><ele>79.0</ele><time>2026-03-28T08:30:43Z</time></trkpt><trkpt lat="45.32113797953518" lon="9.461239301863536"><ele>79.33333333333333</ele><time>2026-03-28T08:30:44Z</time></trkpt><trkpt lat="45.32100430030938" lon="9.46148908559682"><ele>79.66666666666667</ele><time>2026-03-28T08:30:45Z</time></trkpt><trkpt lat="45.320870979696004" lon="9.461740092608027"><ele>80.0</ele><time>2026-03-28T08:30:46Z</time></trkpt><trkpt lat="45.320737267301745" lon="9.461992297981425"><ele>79.66666666666667</ele><time>2026-03-28T08:30:47Z</time></trkpt><trkpt lat="45.320603764218255" lon="9.462244305472224"><ele>79.33333333333333</ele><time>2026-03-28T08:30:48Z</time></trkpt><trkpt lat="45.32047059564535" lon="9.462496539278844"><ele>79.0</ele><time>2026-03-28T08:30:49Z</time></trkpt><trkpt lat="45.32033644397305" lon="9.462747789849026"><ele>79.0</ele><time>2026-03-28T08:30:50Z</time></trkpt><trkpt lat="45.32020568021765" lon="9.463003728121537"><ele>79.0</ele><time>2026-03-28T08:30:51Z</time></trkpt><trkpt lat="45.32007845906842" lon="9.463262743479392"><ele>79.0</ele><time>2026-03-28T08:30:52Z</time></trkpt><trkpt lat="45.319955245895116" lon="9.463516958344588"><ele>79.33333333333333</ele><time>2026-03-28T08:30:53Z</time></trkpt><trkpt lat="45.31983761167161" lon="9.463787250185243"><ele>79.66666666666667</ele><time>2026-03-28T08:30:54Z</time></trkpt><trkpt lat="45.31972527478467" lon="9.464061412895827"><ele>80.0</ele><time>2026-03-28T08:30:55Z</time></trkpt><trkpt lat="45.319620090233656" lon="9.464339680838773"><ele>79.33333333333334</ele><time>2026-03-28T08:30:56Z</time></trkpt><trkpt lat="45.31951975665134" lon="9.464620780884747"><ele>78.66666666666667</ele><time>2026-03-28T08:30:57Z</time></trkpt><trkpt lat="45.31942437039944" lon="9.464903696607005"><ele>78.0</ele><time>2026-03-28T08:30:58Z</time></trkpt><trkpt lat="45.31933036068893" lon="9.465190784382422"><ele>77.66666666666667</ele><time>2026-03-28T08:30:59Z</time></trkpt><trkpt lat="45.31923752066852" lon="9.465477681789881"><ele>77.33333333333334</ele><time>2026-03-28T08:31:00Z</time></trkpt><trkpt lat="45.31914566890427" lon="9.46576424730863"><ele>77.0</ele><time>2026-03-28T08:31:01Z</time></trkpt><trkpt lat="45.31905332123776" lon="9.466051706001391"><ele>77.0</ele><time>2026-03-28T08:31:02Z</time></trkpt><trkpt lat="45.318961509218255" lon="9.466340038439961"><ele>77.0</ele><time>2026-03-28T08:31:03Z</time></trkpt><trkpt lat="45.31887028177409" lon="9.466627863433663"><ele>77.0</ele><time>2026-03-28T08:31:04Z</time></trkpt><trkpt lat="45.318780964207626" lon="9.466915889126788"><ele>76.0</ele><time>2026-03-28T08:31:05Z</time></trkpt><trkpt lat="45.31869202963166" lon="9.467203446624945"><ele>75.0</ele><time>2026-03-28T08:31:06Z</time></trkpt><trkpt lat="45.318603261857184" lon="9.467492075732288"><ele>74.0</ele><time>2026-03-28T08:31:07Z</time></trkpt><trkpt lat="45.318511663647065" lon="9.46778112974091"><ele>73.66666666666667</ele><time>2026-03-28T08:31:08Z</time></trkpt><trkpt lat="45.31842119767424" lon="9.468068721054536"><ele>73.33333333333333</ele><time>2026-03-28T08:31:09Z</time></trkpt><trkpt lat="45.318330292086515" lon="9.468356394203639"><ele>73.0</ele><time>2026-03-28T08:31:09.999Z</time></trkpt><trkpt lat="45.31823841182338" lon="9.46864446461458"><ele>73.66666666666666</ele><time>2026-03-28T08:31:10.999Z</time></trkpt><trkpt lat="45.31814601642635" lon="9.468931848838475"><ele>74.33333333333333</ele><time>2026-03-28T08:31:11.999Z</time></trkpt><trkpt lat="45.31805202996149" lon="9.469219124661695"><ele>75.0</ele><time>2026-03-28T08:31:12.999Z</time></trkpt><trkpt lat="45.317956051417546" lon="9.469502623250879"><ele>76.0</ele><time>2026-03-28T08:31:13.999Z</time></trkpt><trkpt lat="45.31785501383699" lon="9.469783167778136"><ele>77.0</ele><time>2026-03-28T08:31:14.999Z</time></trkpt><trkpt lat="45.31774515190297" lon="9.47005642600045"><ele>78.0</ele><time>2026-03-28T08:31:15.999Z</time></trkpt><trkpt lat="45.31762255482944" lon="9.470319205359164"><ele>77.66666666666667</ele><time>2026-03-28T08:31:16.999Z</time></trkpt><trkpt lat="45.31748596326506" lon="9.470565334744936"><ele>77.33333333333334</ele><time>2026-03-28T08:31:17.999Z</time></trkpt><trkpt lat="45.3173397571657" lon="9.470802637410133"><ele>77.0</ele><time>2026-03-28T08:31:18.999Z</time></trkpt><trkpt lat="45.317187689508714" lon="9.471031981893955"><ele>76.66666666666667</ele><time>2026-03-28T08:31:19.999Z</time></trkpt><trkpt lat="45.31702813034977" lon="9.471251922992767"><ele>76.33333333333333</ele><time>2026-03-28T08:31:20.999Z</time></trkpt><trkpt lat="45.31686188027781" lon="9.471461538395433"><ele>76.0</ele><time>2026-03-28T08:31:21.999Z</time></trkpt><trkpt lat="45.31669045545256" lon="9.471663603495989"><ele>76.0</ele><time>2026-03-28T08:31:22.999Z</time></trkpt><trkpt lat="45.3165153741258" lon="9.471855328999553"><ele>76.0</ele><time>2026-03-28T08:31:23.999Z</time></trkpt><trkpt lat="45.31633171270731" lon="9.472034816828154"><ele>76.0</ele><time>2026-03-28T08:31:24.999Z</time></trkpt><trkpt lat="45.31613982018264" lon="9.47219587984378"><ele>76.0</ele><time>2026-03-28T08:31:25.999Z</time></trkpt><trkpt lat="45.31593992703396" lon="9.472333254034401"><ele>76.0</ele><time>2026-03-28T08:31:26.999Z</time></trkpt><trkpt lat="45.31573430159029" lon="9.472454764215236"><ele>76.0</ele><time>2026-03-28T08:31:27.999Z</time></trkpt><trkpt lat="45.31552544635162" lon="9.472562899205275"><ele>76.0</ele><time>2026-03-28T08:31:28.999Z</time></trkpt><trkpt lat="45.315312074706334" lon="9.472657045665132"><ele>76.0</ele><time>2026-03-28T08:31:29.999Z</time></trkpt><trkpt lat="45.31509755644664" lon="9.472737759639838"><ele>76.0</ele><time>2026-03-28T08:31:30.999Z</time></trkpt><trkpt lat="45.31487913484126" lon="9.472808810598272"><ele>76.66666666666666</ele><time>2026-03-28T08:31:31.999Z</time></trkpt><trkpt lat="45.31466052107309" lon="9.47287159588737"><ele>77.33333333333333</ele><time>2026-03-28T08:31:32.999Z</time></trkpt><trkpt lat="45.314440897807714" lon="9.472924842597582"><ele>78.0</ele><time>2026-03-28T08:31:33.999Z</time></trkpt><trkpt lat="45.31422151774976" lon="9.472964884059666"><ele>78.0</ele><time>2026-03-28T08:31:34.999Z</time></trkpt><trkpt lat="45.31399974217622" lon="9.47300426050583"><ele>78.0</ele><time>2026-03-28T08:31:35.999Z</time></trkpt><trkpt lat="45.31377877478654" lon="9.473043300539981"><ele>78.0</ele><time>2026-03-28T08:31:36.999Z</time></trkpt><trkpt lat="45.31355826866391" lon="9.47308286250024"><ele>78.33333333333333</ele><time>2026-03-28T08:31:37.999Z</time></trkpt><trkpt lat="45.3133375725494" lon="9.473121605910677"><ele>78.66666666666666</ele><time>2026-03-28T08:31:38.999Z</time></trkpt><trkpt lat="45.31311773690862" lon="9.473159811026234"><ele>79.0</ele><time>2026-03-28T08:31:39.999Z</time></trkpt><trkpt lat="45.31289969639824" lon="9.473197600949058"><ele>79.0</ele><time>2026-03-28T08:31:40.999Z</time></trkpt><trkpt lat="45.3126798534374" lon="9.473236543836387"><ele>79.0</ele><time>2026-03-28T08:31:41.999Z</time></trkpt><trkpt lat="45.312459513727745" lon="9.473274031788415"><ele>79.0</ele><time>2026-03-28T08:31:42.999Z</time></trkpt><trkpt lat="45.312240040241235" lon="9.473312365389113"><ele>79.33333333333333</ele><time>2026-03-28T08:31:43.999Z</time></trkpt><trkpt lat="45.312020675479836" lon="9.473350862792268"><ele>79.66666666666667</ele><time>2026-03-28T08:31:44.999Z</time></trkpt><trkpt lat="45.31180124239956" lon="9.473390179783241"><ele>80.0</ele><time>2026-03-28T08:31:45.999Z</time></trkpt><trkpt lat="45.31158206701923" lon="9.473427496671285"><ele>79.33333333333334</ele><time>2026-03-28T08:31:46.999Z</time></trkpt><trkpt lat="45.31136245215456" lon="9.473466851305684"><ele>78.66666666666667</ele><time>2026-03-28T08:31:47.999Z</time></trkpt><trkpt lat="45.31114342244537" lon="9.473507882640277"><ele>78.0</ele><time>2026-03-28T08:31:48.999Z</time></trkpt><trkpt lat="45.310922707368825" lon="9.473548730483984"><ele>78.0</ele><time>2026-03-28T08:31:49.999Z</time></trkpt><trkpt lat="45.31070161374952" lon="9.47358875657041"><ele>78.0</ele><time>2026-03-28T08:31:50.999Z</time></trkpt><trkpt lat="45.31048083884713" lon="9.473632233905251"><ele>78.0</ele><time>2026-03-28T08:31:51.999Z</time></trkpt><trkpt lat="45.310260847881636" lon="9.473671862293488"><ele>78.0</ele><time>2026-03-28T08:31:52.999Z</time></trkpt><trkpt lat="45.310056146946685" lon="9.473708354206506"><ele>78.0</ele><time>2026-03-28T08:31:53.999Z</time></trkpt><trkpt lat="45.30985895553112" lon="9.473747024578556"><ele>78.0</ele><time>2026-03-28T08:31:54.999Z</time></trkpt><trkpt lat="45.30965463372366" lon="9.473783567057326"><ele>77.0</ele><time>2026-03-28T08:31:55.999Z</time></trkpt><trkpt lat="45.30944847477205" lon="9.473833321035068"><ele>76.0</ele><time>2026-03-28T08:31:56.999Z</time></trkpt><trkpt lat="45.30924371670021" lon="9.473896277368052"><ele>75.0</ele><time>2026-03-28T08:31:57.999Z</time></trkpt><trkpt lat="45.30904330167768" lon="9.47398536582942"><ele>75.33333333333333</ele><time>2026-03-28T08:31:58.999Z</time></trkpt><trkpt lat="45.30884210125786" lon="9.474091331704408"><ele>75.66666666666666</ele><time>2026-03-28T08:31:59.999Z</time></trkpt><trkpt lat="45.30863978419809" lon="9.474214464389231"><ele>76.0</ele><time>2026-03-28T08:32:00.999Z</time></trkpt><trkpt lat="45.308435075693964" lon="9.474345517925842"><ele>76.0</ele><time>2026-03-28T08:32:01.999Z</time></trkpt><trkpt lat="45.308230651394794" lon="9.474485858182833"><ele>76.0</ele><time>2026-03-28T08:32:02.999Z</time></trkpt><trkpt lat="45.30802950197496" lon="9.474638619228857"><ele>75.5</ele><time>2026-03-28T08:32:03.999Z</time></trkpt><trkpt lat="45.30783130688398" lon="9.47480537124332"><ele>75.0</ele><time>2026-03-28T08:32:04.999Z</time></trkpt><trkpt lat="45.307638550595215" lon="9.474988208973055"><ele>75.0</ele><time>2026-03-28T08:32:05.999Z</time></trkpt><trkpt lat="45.307452298958296" lon="9.475184521882646"><ele>75.0</ele><time>2026-03-28T08:32:06.999Z</time></trkpt><trkpt lat="45.307270921774" lon="9.475393183213873"><ele>76.5</ele><time>2026-03-28T08:32:07.999Z</time></trkpt><trkpt lat="45.307096276629125" lon="9.475612165670077"><ele>78.0</ele><time>2026-03-28T08:32:08.999Z</time></trkpt><trkpt lat="45.30693141570514" lon="9.475843941239997"><ele>78.0</ele><time>2026-03-28T08:32:09.999Z</time></trkpt><trkpt lat="45.30677082095062" lon="9.47608651386175"><ele>78.0</ele><time>2026-03-28T08:32:10.999Z</time></trkpt><trkpt lat="45.30659070042571" lon="9.476292513239876"><ele>77.5</ele><time>2026-03-28T08:32:11.999Z</time></trkpt><trkpt lat="45.30647870353161" lon="9.476604938936024"><ele>77.0</ele><time>2026-03-28T08:32:12.999Z</time></trkpt><trkpt lat="45.30633986274493" lon="9.476872509091624"><ele>77.0</ele><time>2026-03-28T08:32:13.999Z</time></trkpt><trkpt lat="45.3062087613352" lon="9.477155217859435"><ele>77.0</ele><time>2026-03-28T08:32:14.999Z</time></trkpt><trkpt lat="45.30608401164553" lon="9.477433545049044"><ele>77.0</ele><time>2026-03-28T08:32:15.999Z</time></trkpt><trkpt lat="45.3059599055584" lon="9.477711667219957"><ele>77.0</ele><time>2026-03-28T08:32:16.999Z</time></trkpt><trkpt lat="45.305835412009884" lon="9.477996676420984"><ele>77.5</ele><time>2026-03-28T08:32:17.999Z</time></trkpt><trkpt lat="45.30570802618147" lon="9.478279557822072"><ele>78.0</ele><time>2026-03-28T08:32:18.999Z</time></trkpt><trkpt lat="45.305581835424974" lon="9.478561567769637"><ele>77.0</ele><time>2026-03-28T08:32:19.999Z</time></trkpt><trkpt lat="45.30545635544333" lon="9.478844401350017"><ele>76.0</ele><time>2026-03-28T08:32:20.999Z</time></trkpt><trkpt lat="45.3053293976728" lon="9.479123767043156"><ele>76.0</ele><time>2026-03-28T08:32:21.999Z</time></trkpt><trkpt lat="45.305195539950375" lon="9.479399604971482"><ele>76.0</ele><time>2026-03-28T08:32:22.999Z</time></trkpt><trkpt lat="45.305052216172" lon="9.479664459843855"><ele>76.5</ele><time>2026-03-28T08:32:23.999Z</time></trkpt><trkpt lat="45.304899578433584" lon="9.479917409232005"><ele>77.0</ele><time>2026-03-28T08:32:24.999Z</time></trkpt><trkpt lat="45.30474240377004" lon="9.48015708342067"><ele>76.66666666666667</ele><time>2026-03-28T08:32:26Z</time></trkpt><trkpt lat="45.30458647485365" lon="9.480390833340682"><ele>76.33333333333333</ele><time>2026-03-28T08:32:27Z</time></trkpt><trkpt lat="45.30443787077201" lon="9.480622458199138"><ele>76.0</ele><time>2026-03-28T08:32:28Z</time></trkpt><trkpt lat="45.304294646174924" lon="9.480852426194643"><ele>76.0</ele><time>2026-03-28T08:32:29Z</time></trkpt><trkpt lat="45.30415506305732" lon="9.481079452023922"><ele>76.0</ele><time>2026-03-28T08:32:30Z</time></trkpt><trkpt lat="45.30402077563398" lon="9.48129956174982"><ele>76.0</ele><time>2026-03-28T08:32:31Z</time></trkpt><trkpt lat="45.30389629862382" lon="9.481508790925346"><ele>75.33333333333333</ele><time>2026-03-28T08:32:32Z</time></trkpt><trkpt lat="45.30376875368353" lon="9.48172066025325"><ele>74.66666666666667</ele><time>2026-03-28T08:32:33Z</time></trkpt><trkpt lat="45.303639202709974" lon="9.481930980441357"><ele>74.0</ele><time>2026-03-28T08:32:34Z</time></trkpt><trkpt lat="45.303509127627166" lon="9.482138969747327"><ele>75.33333333333334</ele><time>2026-03-28T08:32:35Z</time></trkpt><trkpt lat="45.30337748191837" lon="9.482347473102301"><ele>76.66666666666667</ele><time>2026-03-28T08:32:36Z</time></trkpt><trkpt lat="45.303245726559716" lon="9.482556504654037"><ele>78.0</ele><time>2026-03-28T08:32:37Z</time></trkpt><trkpt lat="45.30311523019543" lon="9.482764069166159"><ele>77.33333333333333</ele><time>2026-03-28T08:32:38Z</time></trkpt><trkpt lat="45.302985809803346" lon="9.482971478642694"><ele>76.66666666666666</ele><time>2026-03-28T08:32:39Z</time></trkpt><trkpt lat="45.30285461352204" lon="9.483178616259657"><ele>76.0</ele><time>2026-03-28T08:32:40Z</time></trkpt><trkpt lat="45.30272495808039" lon="9.483386662928307"><ele>76.0</ele><time>2026-03-28T08:32:41Z</time></trkpt><trkpt lat="45.302598672942274" lon="9.483594669101187"><ele>76.0</ele><time>2026-03-28T08:32:42Z</time></trkpt><trkpt lat="45.30247283699325" lon="9.483803537311099"><ele>76.0</ele><time>2026-03-28T08:32:43Z</time></trkpt><trkpt lat="45.302346756720084" lon="9.484013103532984"><ele>76.33333333333333</ele><time>2026-03-28T08:32:44Z</time></trkpt><trkpt lat="45.3022218893155" lon="9.484223108137805"><ele>76.66666666666667</ele><time>2026-03-28T08:32:45Z</time></trkpt><trkpt lat="45.30209496209465" lon="9.4844328106222"><ele>77.0</ele><time>2026-03-28T08:32:46Z</time></trkpt><trkpt lat="45.30196883578821" lon="9.484644461402919"><ele>77.0</ele><time>2026-03-28T08:32:47Z</time></trkpt><trkpt lat="45.301843748258214" lon="9.484860188009671"><ele>77.0</ele><time>2026-03-28T08:32:48Z</time></trkpt><trkpt lat="45.30172167099575" lon="9.485079200487963"><ele>77.0</ele><time>2026-03-28T08:32:49Z</time></trkpt><trkpt lat="45.301603213719815" lon="9.48530394681825"><ele>77.33333333333334</ele><time>2026-03-28T08:32:50Z</time></trkpt><trkpt lat="45.30148786675227" lon="9.48553504135324"><ele>77.66666666666667</ele><time>2026-03-28T08:32:51Z</time></trkpt><trkpt lat="45.30137747037024" lon="9.485771093297101"><ele>78.0</ele><time>2026-03-28T08:32:52Z</time></trkpt><trkpt lat="45.30127030750308" lon="9.486012268247988"><ele>77.0</ele><time>2026-03-28T08:32:53Z</time></trkpt><trkpt lat="45.30116826453699" lon="9.4862563654681"><ele>76.0</ele><time>2026-03-28T08:32:54Z</time></trkpt><trkpt lat="45.30106814548177" lon="9.486501993744762"><ele>75.0</ele><time>2026-03-28T08:32:55Z</time></trkpt><trkpt lat="45.30096935006909" lon="9.4867482338884"><ele>75.0</ele><time>2026-03-28T08:32:56Z</time></trkpt><trkpt lat="45.300876472419034" lon="9.48700025249461"><ele>75.0</ele><time>2026-03-28T08:32:57Z</time></trkpt><trkpt lat="45.30078522869599" lon="9.487252063722824"><ele>75.0</ele><time>2026-03-28T08:32:58Z</time></trkpt><trkpt lat="45.30069751731971" lon="9.487504765922155"><ele>74.66666666666667</ele><time>2026-03-28T08:32:59Z</time></trkpt><trkpt lat="45.30060661615849" lon="9.487756745969145"><ele>74.33333333333334</ele><time>2026-03-28T08:33:00Z</time></trkpt><trkpt lat="45.30051975947248" lon="9.488008742496634"><ele>74.0</ele><time>2026-03-28T08:33:01Z</time></trkpt><trkpt lat="45.300431447333786" lon="9.488261300582534"><ele>74.0</ele><time>2026-03-28T08:33:02Z</time></trkpt><trkpt lat="45.30034654891538" lon="9.488515400144726"><ele>74.0</ele><time>2026-03-28T08:33:03Z</time></trkpt><trkpt lat="45.30026337740999" lon="9.488771337720111"><ele>74.0</ele><time>2026-03-28T08:33:04Z</time></trkpt><trkpt lat="45.30017922040879" lon="9.489023957860006"><ele>74.0</ele><time>2026-03-28T08:33:05Z</time></trkpt><trkpt lat="45.300091804898905" lon="9.489274371879054"><ele>74.0</ele><time>2026-03-28T08:33:06Z</time></trkpt><trkpt lat="45.30000434125545" lon="9.489524584387397"><ele>74.0</ele><time>2026-03-28T08:33:07Z</time></trkpt><trkpt lat="45.29991745639375" lon="9.489778050694866"><ele>74.0</ele><time>2026-03-28T08:33:08Z</time></trkpt><trkpt lat="45.29982975620641" lon="9.490035866850581"><ele>74.0</ele><time>2026-03-28T08:33:09Z</time></trkpt><trkpt lat="45.29974550255874" lon="9.490301446984423"><ele>74.0</ele><time>2026-03-28T08:33:10Z</time></trkpt><trkpt lat="45.29967062905489" lon="9.490574962049802"><ele>74.33333333333334</ele><time>2026-03-28T08:33:11Z</time></trkpt><trkpt lat="45.299608462862565" lon="9.490855715089022"><ele>74.66666666666667</ele><time>2026-03-28T08:33:12Z</time></trkpt><trkpt lat="45.29955662170376" lon="9.491139670871696"><ele>75.0</ele><time>2026-03-28T08:33:13Z</time></trkpt><trkpt lat="45.299504394053024" lon="9.491425094464171"><ele>75.33333333333333</ele><time>2026-03-28T08:33:14Z</time></trkpt><trkpt lat="45.299448895880516" lon="9.491710805048225"><ele>75.66666666666666</ele><time>2026-03-28T08:33:15Z</time></trkpt><trkpt lat="45.29939491831442" lon="9.491996280351678"><ele>76.0</ele><time>2026-03-28T08:33:15.999Z</time></trkpt><trkpt lat="45.299340474423516" lon="9.492282531673323"><ele>76.0</ele><time>2026-03-28T08:33:16.999Z</time></trkpt><trkpt lat="45.299286686823585" lon="9.492568300711438"><ele>76.0</ele><time>2026-03-28T08:33:17.999Z</time></trkpt><trkpt lat="45.29923268457663" lon="9.492853381343492"><ele>76.0</ele><time>2026-03-28T08:33:18.999Z</time></trkpt><trkpt lat="45.299180150648475" lon="9.493139022668522"><ele>76.0</ele><time>2026-03-28T08:33:19.999Z</time></trkpt><trkpt lat="45.29912659258052" lon="9.49342492836555"><ele>76.0</ele><time>2026-03-28T08:33:20.999Z</time></trkpt><trkpt lat="45.2990726476223" lon="9.493709549884295"><ele>76.0</ele><time>2026-03-28T08:33:21.999Z</time></trkpt><trkpt lat="45.299017322428476" lon="9.493995059662984"><ele>76.0</ele><time>2026-03-28T08:33:22.999Z</time></trkpt><trkpt lat="45.29896327750898" lon="9.494279824898706"><ele>76.0</ele><time>2026-03-28T08:33:23.999Z</time></trkpt><trkpt lat="45.29890960124014" lon="9.494565683329068"><ele>76.0</ele><time>2026-03-28T08:33:24.999Z</time></trkpt><trkpt lat="45.29885739050646" lon="9.494851264335782"><ele>76.0</ele><time>2026-03-28T08:33:25.999Z</time></trkpt><trkpt lat="45.298804302439414" lon="9.495135412921716"><ele>76.0</ele><time>2026-03-28T08:33:26.999Z</time></trkpt><trkpt lat="45.298750592943975" lon="9.495419779836904"><ele>76.0</ele><time>2026-03-28T08:33:27.999Z</time></trkpt><trkpt lat="45.2986972928383" lon="9.495705324209574"><ele>76.0</ele><time>2026-03-28T08:33:28.999Z</time></trkpt><trkpt lat="45.298644743430664" lon="9.495990840911743"><ele>76.0</ele><time>2026-03-28T08:33:29.999Z</time></trkpt><trkpt lat="45.29859062574223" lon="9.496277147968208"><ele>76.0</ele><time>2026-03-28T08:33:30.999Z</time></trkpt><trkpt lat="45.298535818008034" lon="9.496561296425337"><ele>76.0</ele><time>2026-03-28T08:33:31.999Z</time></trkpt><trkpt lat="45.298480331296325" lon="9.496845785016506"><ele>76.0</ele><time>2026-03-28T08:33:32.999Z</time></trkpt><trkpt lat="45.29842797315751" lon="9.497113053209402"><ele>76.0</ele><time>2026-03-28T08:33:33.999Z</time></trkpt><trkpt lat="45.298380444263174" lon="9.497366324068754"><ele>76.0</ele><time>2026-03-28T08:33:34.999Z</time></trkpt><trkpt lat="45.29833384751725" lon="9.497610362854035"><ele>76.0</ele><time>2026-03-28T08:33:35.999Z</time></trkpt><trkpt lat="45.29829182218462" lon="9.49784256462279"><ele>76.0</ele><time>2026-03-28T08:33:36.999Z</time></trkpt><trkpt lat="45.298248806293046" lon="9.49806920440635"><ele>76.33333333333333</ele><time>2026-03-28T08:33:37.999Z</time></trkpt><trkpt lat="45.29820521914817" lon="9.498299045069786"><ele>76.66666666666667</ele><time>2026-03-28T08:33:38.999Z</time></trkpt><trkpt lat="45.29816145068155" lon="9.498530516541745"><ele>77.0</ele><time>2026-03-28T08:33:39.999Z</time></trkpt><trkpt lat="45.298117049080616" lon="9.498764156996446"><ele>76.33333333333334</ele><time>2026-03-28T08:33:40.999Z</time></trkpt><trkpt lat="45.298072890432486" lon="9.49899972557713"><ele>75.66666666666667</ele><time>2026-03-28T08:33:41.999Z</time></trkpt><trkpt lat="45.2980295539124" lon="9.499235923380304"><ele>75.0</ele><time>2026-03-28T08:33:42.999Z</time></trkpt><trkpt lat="45.297986337664945" lon="9.499473394996624"><ele>75.0</ele><time>2026-03-28T08:33:43.999Z</time></trkpt><trkpt lat="45.29794280991149" lon="9.499712119547398"><ele>75.0</ele><time>2026-03-28T08:33:44.999Z</time></trkpt><trkpt lat="45.29789914256982" lon="9.499953479987402"><ele>75.0</ele><time>2026-03-28T08:33:45.999Z</time></trkpt><trkpt lat="45.297856316634075" lon="9.500195469744337"><ele>75.66666666666667</ele><time>2026-03-28T08:33:46.999Z</time></trkpt><trkpt lat="45.297815079232734" lon="9.500438961373323"><ele>76.33333333333334</ele><time>2026-03-28T08:33:47.999Z</time></trkpt><trkpt lat="45.2977745957883" lon="9.500680891034824"><ele>77.0</ele><time>2026-03-28T08:33:48.999Z</time></trkpt><trkpt lat="45.297737130690436" lon="9.500911688646028"><ele>77.0</ele><time>2026-03-28T08:33:49.999Z</time></trkpt><trkpt lat="45.297697132111956" lon="9.501136461174557"><ele>77.0</ele><time>2026-03-28T08:33:50.999Z</time></trkpt><trkpt lat="45.29765568395367" lon="9.501357641131024"><ele>77.0</ele><time>2026-03-28T08:33:51.999Z</time></trkpt><trkpt lat="45.29761708221052" lon="9.50156756793008"><ele>76.75</ele><time>2026-03-28T08:33:52.999Z</time></trkpt><trkpt lat="45.29757856279085" lon="9.501767546701648"><ele>76.5</ele><time>2026-03-28T08:33:53.999Z</time></trkpt><trkpt lat="45.297542671985596" lon="9.501956355805804"><ele>76.25</ele><time>2026-03-28T08:33:54.999Z</time></trkpt><trkpt lat="45.29751017228964" lon="9.5021317402767"><ele>76.0</ele><time>2026-03-28T08:33:55.999Z</time></trkpt><trkpt lat="45.297481848681684" lon="9.502281675008156"><ele>76.0</ele><time>2026-03-28T08:33:56.999Z</time></trkpt><trkpt lat="45.29745226902669" lon="9.502420612753083"><ele>76.0</ele><time>2026-03-28T08:33:57.999Z</time></trkpt><trkpt lat="45.29742570065853" lon="9.502532895582547"><ele>76.0</ele><time>2026-03-28T08:33:58.999Z</time></trkpt><trkpt lat="45.29739457589945" lon="9.502625327388571"><ele>76.0</ele><time>2026-03-28T08:33:59.999Z</time></trkpt><trkpt lat="45.297318109611496" lon="9.502765657758081"><ele>76.0</ele><time>2026-03-28T08:34:01.999Z</time></trkpt><trkpt lat="45.29725823730993" lon="9.50284609117687"><ele>75.8</ele><time>2026-03-28T08:34:02.999Z</time></trkpt><trkpt lat="45.297198625234955" lon="9.502940696455875"><ele>75.6</ele><time>2026-03-28T08:34:03.999Z</time></trkpt><trkpt lat="45.29716525166571" lon="9.503070492916699"><ele>75.4</ele><time>2026-03-28T08:34:04.999Z</time></trkpt><trkpt lat="45.29717135598051" lon="9.503222586898843"><ele>75.2</ele><time>2026-03-28T08:34:05.999Z</time></trkpt><trkpt lat="45.297202867840205" lon="9.50338079427339"><ele>75.0</ele><time>2026-03-28T08:34:06.999Z</time></trkpt><trkpt lat="45.29722371535723" lon="9.503550066327373"><ele>75.0</ele><time>2026-03-28T08:34:07.999Z</time></trkpt><trkpt lat="45.2972176167243" lon="9.503735622543802"><ele>75.0</ele><time>2026-03-28T08:34:08.999Z</time></trkpt><trkpt lat="45.29718754625905" lon="9.503931840769242"><ele>75.0</ele><time>2026-03-28T08:34:09.999Z</time></trkpt><trkpt lat="45.297143691573396" lon="9.504155242070738"><ele>75.0</ele><time>2026-03-28T08:34:10.999Z</time></trkpt><trkpt lat="45.29710080271315" lon="9.504399115838957"><ele>75.33333333333333</ele><time>2026-03-28T08:34:11.999Z</time></trkpt><trkpt lat="45.29705396424791" lon="9.504658943364014"><ele>75.66666666666666</ele><time>2026-03-28T08:34:12.999Z</time></trkpt><trkpt lat="45.297003203801545" lon="9.504924878056924"><ele>76.0</ele><time>2026-03-28T08:34:13.999Z</time></trkpt><trkpt lat="45.29695055415907" lon="9.505197319198732"><ele>75.66666666666666</ele><time>2026-03-28T08:34:14.999Z</time></trkpt><trkpt lat="45.29689749214449" lon="9.505477572587255"><ele>75.33333333333333</ele><time>2026-03-28T08:34:15.999Z</time></trkpt><trkpt lat="45.296845433410894" lon="9.50576381400184"><ele>75.0</ele><time>2026-03-28T08:34:16.999Z</time></trkpt><trkpt lat="45.29679122893334" lon="9.506049004355244"><ele>75.0</ele><time>2026-03-28T08:34:17.999Z</time></trkpt><trkpt lat="45.296740810845556" lon="9.506326939513864"><ele>75.0</ele><time>2026-03-28T08:34:18.999Z</time></trkpt><trkpt lat="45.296691711227965" lon="9.506591430664772"><ele>75.0</ele><time>2026-03-28T08:34:19.999Z</time></trkpt><trkpt lat="45.296639938235664" lon="9.506857119131709"><ele>75.33333333333333</ele><time>2026-03-28T08:34:20.999Z</time></trkpt><trkpt lat="45.296588721811816" lon="9.507127391574684"><ele>75.66666666666666</ele><time>2026-03-28T08:34:21.999Z</time></trkpt><trkpt lat="45.29653796646229" lon="9.507399924735818"><ele>76.0</ele><time>2026-03-28T08:34:22.999Z</time></trkpt><trkpt lat="45.29648668390225" lon="9.507672984971553"><ele>76.0</ele><time>2026-03-28T08:34:23.999Z</time></trkpt><trkpt lat="45.296434569066705" lon="9.507947800209335"><ele>76.0</ele><time>2026-03-28T08:34:24.999Z</time></trkpt><trkpt lat="45.29638217186912" lon="9.5082249161924"><ele>76.0</ele><time>2026-03-28T08:34:25.999Z</time></trkpt><trkpt lat="45.29633021247645" lon="9.508502498451902"><ele>75.33333333333333</ele><time>2026-03-28T08:34:26.999Z</time></trkpt><trkpt lat="45.29627894244171" lon="9.508781645795853"><ele>74.66666666666667</ele><time>2026-03-28T08:34:27.999Z</time></trkpt><trkpt lat="45.29622435658339" lon="9.509061441355302"><ele>74.0</ele><time>2026-03-28T08:34:28.999Z</time></trkpt><trkpt lat="45.296172001063255" lon="9.509340163917484"><ele>74.33333333333334</ele><time>2026-03-28T08:34:29.999Z</time></trkpt><trkpt lat="45.296121578266515" lon="9.509620317396736"><ele>74.66666666666667</ele><time>2026-03-28T08:34:30.999Z</time></trkpt><trkpt lat="45.2960679948223" lon="9.509902032032361"><ele>75.0</ele><time>2026-03-28T08:34:32Z</time></trkpt><trkpt lat="45.29601180206648" lon="9.510182635088272"><ele>75.0</ele><time>2026-03-28T08:34:33Z</time></trkpt><trkpt lat="45.29595442616586" lon="9.510461779720865"><ele>75.0</ele><time>2026-03-28T08:34:34Z</time></trkpt><trkpt lat="45.29589627934748" lon="9.510739275808827"><ele>75.0</ele><time>2026-03-28T08:34:35Z</time></trkpt><trkpt lat="45.295841702838594" lon="9.511016745230858"><ele>75.33333333333333</ele><time>2026-03-28T08:34:36Z</time></trkpt><trkpt lat="45.295789625904504" lon="9.511295536772947"><ele>75.66666666666666</ele><time>2026-03-28T08:34:37Z</time></trkpt><trkpt lat="45.295744945146666" lon="9.511573087886827"><ele>76.0</ele><time>2026-03-28T08:34:38Z</time></trkpt><trkpt lat="45.29570774233818" lon="9.511849905505091"><ele>76.0</ele><time>2026-03-28T08:34:39Z</time></trkpt><trkpt lat="45.29562618366692" lon="9.512119338289724"><ele>76.0</ele><time>2026-03-28T08:34:40Z</time></trkpt><trkpt lat="45.295573366656726" lon="9.512392522449813"><ele>76.0</ele><time>2026-03-28T08:34:41Z</time></trkpt><trkpt lat="45.29551874589716" lon="9.512669598527745"><ele>75.33333333333333</ele><time>2026-03-28T08:34:42Z</time></trkpt><trkpt lat="45.29547059350096" lon="9.5129416154354"><ele>74.66666666666667</ele><time>2026-03-28T08:34:43Z</time></trkpt><trkpt lat="45.29541562881389" lon="9.513221423829572"><ele>74.0</ele><time>2026-03-28T08:34:44Z</time></trkpt><trkpt lat="45.295365000300826" lon="9.513502675589978"><ele>75.0</ele><time>2026-03-28T08:34:45Z</time></trkpt><trkpt lat="45.29531314502023" lon="9.513783490157731"><ele>76.0</ele><time>2026-03-28T08:34:46Z</time></trkpt><trkpt lat="45.295262163228045" lon="9.514066600347377"><ele>77.0</ele><time>2026-03-28T08:34:47Z</time></trkpt><trkpt lat="45.29521013902467" lon="9.514354070612617"><ele>77.33333333333334</ele><time>2026-03-28T08:34:48Z</time></trkpt><trkpt lat="45.295153135878834" lon="9.514634426244445"><ele>77.66666666666667</ele><time>2026-03-28T08:34:49Z</time></trkpt><trkpt lat="45.295097693938644" lon="9.51492064091473"><ele>78.0</ele><time>2026-03-28T08:34:50Z</time></trkpt><trkpt lat="45.29504346691996" lon="9.515206219342561"><ele>77.66666666666667</ele><time>2026-03-28T08:34:51Z</time></trkpt><trkpt lat="45.29499218168076" lon="9.51548545934803"><ele>77.33333333333334</ele><time>2026-03-28T08:34:52Z</time></trkpt><trkpt lat="45.29494181941313" lon="9.515765628287339"><ele>77.0</ele><time>2026-03-28T08:34:53Z</time></trkpt><trkpt lat="45.294892037401965" lon="9.516054027376654"><ele>77.0</ele><time>2026-03-28T08:34:54Z</time></trkpt><trkpt lat="45.29484019758654" lon="9.516336556398317"><ele>77.0</ele><time>2026-03-28T08:34:55Z</time></trkpt><trkpt lat="45.2947880828454" lon="9.516607527382789"><ele>77.0</ele><time>2026-03-28T08:34:56Z</time></trkpt><trkpt lat="45.29474375290539" lon="9.516863491453554"><ele>76.33333333333334</ele><time>2026-03-28T08:34:57Z</time></trkpt><trkpt lat="45.29470182148223" lon="9.51710984431533"><ele>75.66666666666667</ele><time>2026-03-28T08:34:58Z</time></trkpt><trkpt lat="45.294660808992404" lon="9.517346522746521"><ele>75.0</ele><time>2026-03-28T08:34:59Z</time></trkpt><trkpt lat="45.29462113258912" lon="9.517574455394053"><ele>75.0</ele><time>2026-03-28T08:35:00Z</time></trkpt><trkpt lat="45.29457942190075" lon="9.51781120775583"><ele>75.0</ele><time>2026-03-28T08:35:01Z</time></trkpt><trkpt lat="45.294532518421065" lon="9.518052689326412"><ele>75.0</ele><time>2026-03-28T08:35:02Z</time></trkpt><trkpt lat="45.29447985472257" lon="9.518287341903097"><ele>74.66666666666667</ele><time>2026-03-28T08:35:03Z</time></trkpt><trkpt lat="45.294422839051194" lon="9.518521596585497"><ele>74.33333333333334</ele><time>2026-03-28T08:35:04Z</time></trkpt><trkpt lat="45.29436136796138" lon="9.518751181752718"><ele>74.0</ele><time>2026-03-28T08:35:05Z</time></trkpt><trkpt lat="45.29429576290444" lon="9.518976236693087"><ele>74.0</ele><time>2026-03-28T08:35:06Z</time></trkpt><trkpt lat="45.29423728257031" lon="9.519210233380129"><ele>74.0</ele><time>2026-03-28T08:35:07Z</time></trkpt><trkpt lat="45.294190110491975" lon="9.51943813219781"><ele>74.0</ele><time>2026-03-28T08:35:08Z</time></trkpt><trkpt lat="45.29415589219369" lon="9.519663060935697"><ele>74.0</ele><time>2026-03-28T08:35:09Z</time></trkpt><trkpt lat="45.29413435292728" lon="9.519889768287706"><ele>74.0</ele><time>2026-03-28T08:35:10Z</time></trkpt><trkpt lat="45.29412554378175" lon="9.520114688909585"><ele>74.0</ele><time>2026-03-28T08:35:11Z</time></trkpt><trkpt lat="45.29413174620251" lon="9.520341752026056"><ele>73.0</ele><time>2026-03-28T08:35:12Z</time></trkpt><trkpt lat="45.294146771697214" lon="9.520568434343359"><ele>72.0</ele><time>2026-03-28T08:35:13Z</time></trkpt><trkpt lat="45.29416795818267" lon="9.520787664912888"><ele>71.0</ele><time>2026-03-28T08:35:14Z</time></trkpt><trkpt lat="45.294183730115826" lon="9.52100224823004"><ele>71.0</ele><time>2026-03-28T08:35:15Z</time></trkpt><trkpt lat="45.29419647414251" lon="9.521204141068763"><ele>71.0</ele><time>2026-03-28T08:35:16Z</time></trkpt><trkpt lat="45.294204479711006" lon="9.521392429688444"><ele>71.0</ele><time>2026-03-28T08:35:17Z</time></trkpt><trkpt lat="45.29419959238451" lon="9.521565450373982"><ele>71.0</ele><time>2026-03-28T08:35:18Z</time></trkpt><trkpt lat="45.294198143071746" lon="9.52172304719281"><ele>71.5</ele><time>2026-03-28T08:35:19Z</time></trkpt><trkpt lat="45.29418716310779" lon="9.521874410771884"><ele>72.0</ele><time>2026-03-28T08:35:20Z</time></trkpt><trkpt lat="45.294174307329506" lon="9.52203449506963"><ele>72.5</ele><time>2026-03-28T08:35:21Z</time></trkpt><trkpt lat="45.294167555937655" lon="9.522206693773402"><ele>73.0</ele><time>2026-03-28T08:35:22Z</time></trkpt><trkpt lat="45.29415889728046" lon="9.522384368558154"><ele>73.0</ele><time>2026-03-28T08:35:23Z</time></trkpt><trkpt lat="45.29414262571392" lon="9.52256147026077"><ele>73.0</ele><time>2026-03-28T08:35:24Z</time></trkpt><trkpt lat="45.2941071427206" lon="9.522724896589844"><ele>73.0</ele><time>2026-03-28T08:35:25Z</time></trkpt><trkpt lat="45.294051575267936" lon="9.522883735727405"><ele>73.0</ele><time>2026-03-28T08:35:26Z</time></trkpt><trkpt lat="45.29398059312957" lon="9.523036707708288"><ele>73.75</ele><time>2026-03-28T08:35:26.999Z</time></trkpt><trkpt lat="45.29389362738724" lon="9.523188482304652"><ele>74.5</ele><time>2026-03-28T08:35:27.999Z</time></trkpt><trkpt lat="45.29380765055017" lon="9.523346896128334"><ele>75.25</ele><time>2026-03-28T08:35:28.999Z</time></trkpt><trkpt lat="45.29371021138793" lon="9.523503867525447"><ele>76.0</ele><time>2026-03-28T08:35:29.999Z</time></trkpt><trkpt lat="45.293613868443835" lon="9.523672031572636"><ele>75.33333333333333</ele><time>2026-03-28T08:35:30.999Z</time></trkpt><trkpt lat="45.29351379834022" lon="9.523851525169901"><ele>74.66666666666667</ele><time>2026-03-28T08:35:31.999Z</time></trkpt><trkpt lat="45.29338320155655" lon="9.524029850286308"><ele>74.0</ele><time>2026-03-28T08:35:32.999Z</time></trkpt><trkpt lat="45.29326479620809" lon="9.524229720735983"><ele>74.0</ele><time>2026-03-28T08:35:33.999Z</time></trkpt><trkpt lat="45.29314888491015" lon="9.524449914676257"><ele>74.0</ele><time>2026-03-28T08:35:34.999Z</time></trkpt><trkpt lat="45.29302129209904" lon="9.524652283277828"><ele>74.0</ele><time>2026-03-28T08:35:35.999Z</time></trkpt><trkpt lat="45.29290344726393" lon="9.524854119312058"><ele>74.0</ele><time>2026-03-28T08:35:36.999Z</time></trkpt><trkpt lat="45.292785433958876" lon="9.525047703955938"><ele>74.0</ele><time>2026-03-28T08:35:37.999Z</time></trkpt><trkpt lat="45.29267131207168" lon="9.525241015985062"><ele>74.0</ele><time>2026-03-28T08:35:38.999Z</time></trkpt><trkpt lat="45.29255921913502" lon="9.52542464083427"><ele>74.0</ele><time>2026-03-28T08:35:39.999Z</time></trkpt><trkpt lat="45.29244700811572" lon="9.52561106274883"><ele>74.0</ele><time>2026-03-28T08:35:40.999Z</time></trkpt><trkpt lat="45.292336689060285" lon="9.525792156541833"><ele>74.0</ele><time>2026-03-28T08:35:41.999Z</time></trkpt><trkpt lat="45.29222936125876" lon="9.525972255417111"><ele>74.0</ele><time>2026-03-28T08:35:42.999Z</time></trkpt><trkpt lat="45.29212524977101" lon="9.526146508840274"><ele>74.0</ele><time>2026-03-28T08:35:43.999Z</time></trkpt><trkpt lat="45.29202017174883" lon="9.526321322506737"><ele>74.0</ele><time>2026-03-28T08:35:44.999Z</time></trkpt><trkpt lat="45.29191334859013" lon="9.526491991726942"><ele>74.0</ele><time>2026-03-28T08:35:45.999Z</time></trkpt><trkpt lat="45.29181065292002" lon="9.526664098512684"><ele>74.0</ele><time>2026-03-28T08:35:46.999Z</time></trkpt><trkpt lat="45.29171423493071" lon="9.526832394530608"><ele>74.0</ele><time>2026-03-28T08:35:47.999Z</time></trkpt><trkpt lat="45.29161165575568" lon="9.526999286759414"><ele>73.66666666666667</ele><time>2026-03-28T08:35:48.999Z</time></trkpt><trkpt lat="45.291512720770505" lon="9.527170006392675"><ele>73.33333333333333</ele><time>2026-03-28T08:35:49.999Z</time></trkpt><trkpt lat="45.29141337635104" lon="9.527342763769134"><ele>73.0</ele><time>2026-03-28T08:35:50.999Z</time></trkpt><trkpt lat="45.29131355367476" lon="9.527505979819841"><ele>73.75</ele><time>2026-03-28T08:35:51.999Z</time></trkpt><trkpt lat="45.29121954141076" lon="9.527657544957894"><ele>74.5</ele><time>2026-03-28T08:35:52.999Z</time></trkpt><trkpt lat="45.29113077296463" lon="9.527799057664456"><ele>75.25</ele><time>2026-03-28T08:35:53.999Z</time></trkpt><trkpt lat="45.291039650013275" lon="9.527946731095925"><ele>76.0</ele><time>2026-03-28T08:35:54.999Z</time></trkpt><trkpt lat="45.290945803586915" lon="9.52811149057197"><ele>76.0</ele><time>2026-03-28T08:35:55.999Z</time></trkpt><trkpt lat="45.290850003614814" lon="9.528281141671854"><ele>76.0</ele><time>2026-03-28T08:35:56.999Z</time></trkpt><trkpt lat="45.290751825471055" lon="9.528458363226292"><ele>76.0</ele><time>2026-03-28T08:35:57.999Z</time></trkpt><trkpt lat="45.29064574667024" lon="9.528635302714338"><ele>76.0</ele><time>2026-03-28T08:35:58.999Z</time></trkpt><trkpt lat="45.2905364313368" lon="9.528813372680732"><ele>76.0</ele><time>2026-03-28T08:35:59.999Z</time></trkpt><trkpt lat="45.29042271299753" lon="9.528995050558516"><ele>76.0</ele><time>2026-03-28T08:36:00.999Z</time></trkpt><trkpt lat="45.290308819607645" lon="9.529183090984068"><ele>76.0</ele><time>2026-03-28T08:36:01.999Z</time></trkpt><trkpt lat="45.29019610962419" lon="9.52936802367048"><ele>76.0</ele><time>2026-03-28T08:36:02.999Z</time></trkpt><trkpt lat="45.29011007180949" lon="9.529513358943033"><ele>76.0</ele><time>2026-03-28T08:36:03.999Z</time></trkpt><trkpt lat="45.29002982072386" lon="9.529646831217603"><ele>76.0</ele><time>2026-03-28T08:36:04.999Z</time></trkpt><trkpt lat="45.289950457641844" lon="9.529776502424955"><ele>76.0</ele><time>2026-03-28T08:36:05.999Z</time></trkpt><trkpt lat="45.28987176550797" lon="9.529901503663833"><ele>76.0</ele><time>2026-03-28T08:36:06.999Z</time></trkpt><trkpt lat="45.289800245879334" lon="9.530016098026769"><ele>76.0</ele><time>2026-03-28T08:36:07.999Z</time></trkpt><trkpt lat="45.28973798185647" lon="9.530111112560919"><ele>76.0</ele><time>2026-03-28T08:36:08.999Z</time></trkpt><trkpt lat="45.28967963873555" lon="9.530198247534337"><ele>76.0</ele><time>2026-03-28T08:36:09.999Z</time></trkpt><trkpt lat="45.28963067391339" lon="9.530279597751191"><ele>75.8</ele><time>2026-03-28T08:36:10.999Z</time></trkpt><trkpt lat="45.28957958521835" lon="9.530354124981132"><ele>75.6</ele><time>2026-03-28T08:36:11.999Z</time></trkpt><trkpt lat="45.289525041898955" lon="9.530443199096853"><ele>75.4</ele><time>2026-03-28T08:36:12.999Z</time></trkpt><trkpt lat="45.289465760448074" lon="9.5305589802899"><ele>75.2</ele><time>2026-03-28T08:36:13.999Z</time></trkpt><trkpt lat="45.28939693639384" lon="9.530693310176337"><ele>75.0</ele><time>2026-03-28T08:36:14.999Z</time></trkpt><trkpt lat="45.289304887136694" lon="9.530829755869341"><ele>74.66666666666667</ele><time>2026-03-28T08:36:15.999Z</time></trkpt><trkpt lat="45.289211499220144" lon="9.53101149289736"><ele>74.33333333333334</ele><time>2026-03-28T08:36:16.999Z</time></trkpt><trkpt lat="45.28909806067213" lon="9.531190933006995"><ele>74.0</ele><time>2026-03-28T08:36:17.999Z</time></trkpt><trkpt lat="45.28898071666052" lon="9.531380888103387"><ele>73.66666666666667</ele><time>2026-03-28T08:36:18.999Z</time></trkpt><trkpt lat="45.28886342954304" lon="9.531575262597022"><ele>73.33333333333333</ele><time>2026-03-28T08:36:19.999Z</time></trkpt><trkpt lat="45.288744438951966" lon="9.531771983011666"><ele>73.0</ele><time>2026-03-28T08:36:20.999Z</time></trkpt><trkpt lat="45.288623931255664" lon="9.531967737980704"><ele>73.66666666666666</ele><time>2026-03-28T08:36:21.999Z</time></trkpt><trkpt lat="45.28850452530838" lon="9.532158545699541"><ele>74.33333333333333</ele><time>2026-03-28T08:36:22.999Z</time></trkpt><trkpt lat="45.28838581955626" lon="9.532352128865986"><ele>75.0</ele><time>2026-03-28T08:36:23.999Z</time></trkpt><trkpt lat="45.2882714165464" lon="9.53253641889348"><ele>75.0</ele><time>2026-03-28T08:36:24.999Z</time></trkpt><trkpt lat="45.288155632310634" lon="9.53272477728833"><ele>75.0</ele><time>2026-03-28T08:36:25.999Z</time></trkpt><trkpt lat="45.28804081390095" lon="9.532911984248548"><ele>75.0</ele><time>2026-03-28T08:36:26.999Z</time></trkpt><trkpt lat="45.287926769297435" lon="9.533096025115574"><ele>74.33333333333333</ele><time>2026-03-28T08:36:27.999Z</time></trkpt><trkpt lat="45.28781022859981" lon="9.533281815322447"><ele>73.66666666666666</ele><time>2026-03-28T08:36:28.999Z</time></trkpt><trkpt lat="45.287694126358566" lon="9.533468839938593"><ele>73.0</ele><time>2026-03-28T08:36:29.999Z</time></trkpt><trkpt lat="45.287572225255055" lon="9.533654279448625"><ele>73.0</ele><time>2026-03-28T08:36:30.999Z</time></trkpt><trkpt lat="45.28744117625887" lon="9.533830411346555"><ele>73.0</ele><time>2026-03-28T08:36:31.999Z</time></trkpt><trkpt lat="45.287305520386596" lon="9.53400404154095"><ele>73.0</ele><time>2026-03-28T08:36:32.999Z</time></trkpt><trkpt lat="45.287167416648174" lon="9.534175892888266"><ele>73.0</ele><time>2026-03-28T08:36:33.999Z</time></trkpt><trkpt lat="45.28702112408872" lon="9.534338246251261"><ele>73.0</ele><time>2026-03-28T08:36:34.999Z</time></trkpt><trkpt lat="45.28687448953042" lon="9.534503852168958"><ele>73.0</ele><time>2026-03-28T08:36:35.999Z</time></trkpt><trkpt lat="45.28672301501625" lon="9.534669904724739"><ele>73.0</ele><time>2026-03-28T08:36:37Z</time></trkpt><trkpt lat="45.286568968842225" lon="9.534832431332452"><ele>73.0</ele><time>2026-03-28T08:36:38Z</time></trkpt><trkpt lat="45.286411079802825" lon="9.534986754556094"><ele>73.0</ele><time>2026-03-28T08:36:39Z</time></trkpt><trkpt lat="45.28625634564091" lon="9.535140921172644"><ele>73.66666666666666</ele><time>2026-03-28T08:36:40Z</time></trkpt><trkpt lat="45.28610066302874" lon="9.535293193938937"><ele>74.33333333333333</ele><time>2026-03-28T08:36:41Z</time></trkpt><trkpt lat="45.285935479633714" lon="9.535420695820237"><ele>75.0</ele><time>2026-03-28T08:36:42Z</time></trkpt><trkpt lat="45.28578531713871" lon="9.53556286866534"><ele>74.0</ele><time>2026-03-28T08:36:43Z</time></trkpt><trkpt lat="45.285640412878166" lon="9.535702283279734"><ele>73.0</ele><time>2026-03-28T08:36:44Z</time></trkpt><trkpt lat="45.28551113274597" lon="9.535855166406721"><ele>72.0</ele><time>2026-03-28T08:36:45Z</time></trkpt><trkpt lat="45.285372188267026" lon="9.535960347931043"><ele>72.0</ele><time>2026-03-28T08:36:46Z</time></trkpt><trkpt lat="45.28524227139256" lon="9.536085360302836"><ele>72.0</ele><time>2026-03-28T08:36:47Z</time></trkpt><trkpt lat="45.285119201456574" lon="9.536227822308396"><ele>72.0</ele><time>2026-03-28T08:36:48Z</time></trkpt><trkpt lat="45.28498621810018" lon="9.536353467715005"><ele>72.0</ele><time>2026-03-28T08:36:49Z</time></trkpt><trkpt lat="45.28485645773487" lon="9.536475927753058"><ele>72.0</ele><time>2026-03-28T08:36:50Z</time></trkpt><trkpt lat="45.284726113606546" lon="9.5365983079994"><ele>72.0</ele><time>2026-03-28T08:36:51Z</time></trkpt><trkpt lat="45.284599133866855" lon="9.536721757785173"><ele>72.5</ele><time>2026-03-28T08:36:52Z</time></trkpt><trkpt lat="45.284469912860125" lon="9.536842060579378"><ele>73.0</ele><time>2026-03-28T08:36:53Z</time></trkpt><trkpt lat="45.284346724231" lon="9.536958977005687"><ele>73.5</ele><time>2026-03-28T08:36:54Z</time></trkpt><trkpt lat="45.284218557502655" lon="9.537050901583733"><ele>74.0</ele><time>2026-03-28T08:36:55Z</time></trkpt><trkpt lat="45.284108054450755" lon="9.537180351046569"><ele>74.0</ele><time>2026-03-28T08:36:56Z</time></trkpt><trkpt lat="45.28398979064862" lon="9.537280327274697"><ele>74.0</ele><time>2026-03-28T08:36:57Z</time></trkpt><trkpt lat="45.283877643477396" lon="9.537377697415547"><ele>74.0</ele><time>2026-03-28T08:36:58Z</time></trkpt><trkpt lat="45.28376064121279" lon="9.537473744899804"><ele>74.0</ele><time>2026-03-28T08:36:59Z</time></trkpt><trkpt lat="45.283637483090885" lon="9.53758409024598"><ele>74.0</ele><time>2026-03-28T08:37:00Z</time></trkpt><trkpt lat="45.28351013165341" lon="9.53770859258922"><ele>74.0</ele><time>2026-03-28T08:37:01Z</time></trkpt><trkpt lat="45.28337266866718" lon="9.537847977665622"><ele>74.0</ele><time>2026-03-28T08:37:02Z</time></trkpt><trkpt lat="45.283213176227285" lon="9.53798610441425"><ele>73.66666666666667</ele><time>2026-03-28T08:37:03Z</time></trkpt><trkpt lat="45.283045653894575" lon="9.538146086567274"><ele>73.33333333333333</ele><time>2026-03-28T08:37:04Z</time></trkpt><trkpt lat="45.28287115105569" lon="9.53832156461248"><ele>73.0</ele><time>2026-03-28T08:37:05Z</time></trkpt><trkpt lat="45.28270649648911" lon="9.538517955652585"><ele>73.0</ele><time>2026-03-28T08:37:06Z</time></trkpt><trkpt lat="45.282533583529876" lon="9.538688123393252"><ele>73.0</ele><time>2026-03-28T08:37:07Z</time></trkpt><trkpt lat="45.28236669570526" lon="9.538847863897251"><ele>73.0</ele><time>2026-03-28T08:37:08Z</time></trkpt><trkpt lat="45.28220103581476" lon="9.539006125066791"><ele>72.66666666666666</ele><time>2026-03-28T08:37:09Z</time></trkpt><trkpt lat="45.2820405820451" lon="9.539156353717244"><ele>72.33333333333333</ele><time>2026-03-28T08:37:10Z</time></trkpt><trkpt lat="45.28188376831334" lon="9.539305954937056"><ele>72.0</ele><time>2026-03-28T08:37:11Z</time></trkpt><trkpt lat="45.28172640642689" lon="9.539455599061421"><ele>71.66666666666667</ele><time>2026-03-28T08:37:12Z</time></trkpt><trkpt lat="45.28156861033533" lon="9.539606136857044"><ele>71.33333333333334</ele><time>2026-03-28T08:37:13Z</time></trkpt><trkpt lat="45.281413513326804" lon="9.53976025318426"><ele>71.0</ele><time>2026-03-28T08:37:14Z</time></trkpt><trkpt lat="45.28125223254418" lon="9.539915110636079"><ele>71.0</ele><time>2026-03-28T08:37:15Z</time></trkpt><trkpt lat="45.281087023833265" lon="9.540069716847869"><ele>71.0</ele><time>2026-03-28T08:37:16Z</time></trkpt><trkpt lat="45.280919637362146" lon="9.54022490474726"><ele>71.0</ele><time>2026-03-28T08:37:17Z</time></trkpt><trkpt lat="45.280753013238474" lon="9.540383539489259"><ele>72.0</ele><time>2026-03-28T08:37:18Z</time></trkpt><trkpt lat="45.28058687600222" lon="9.540545880042774"><ele>73.0</ele><time>2026-03-28T08:37:19Z</time></trkpt><trkpt lat="45.280417602847656" lon="9.540702113817318"><ele>74.0</ele><time>2026-03-28T08:37:20Z</time></trkpt><trkpt lat="45.28024947812529" lon="9.540860744177742"><ele>74.0</ele><time>2026-03-28T08:37:21Z</time></trkpt><trkpt lat="45.28008012889451" lon="9.541017772254648"><ele>74.0</ele><time>2026-03-28T08:37:22Z</time></trkpt><trkpt lat="45.279914482626296" lon="9.541178692444435"><ele>74.0</ele><time>2026-03-28T08:37:23Z</time></trkpt><trkpt lat="45.279749506744466" lon="9.541338517240597"><ele>73.0</ele><time>2026-03-28T08:37:24Z</time></trkpt><trkpt lat="45.27959258762274" lon="9.541485968388725"><ele>72.0</ele><time>2026-03-28T08:37:25Z</time></trkpt><trkpt lat="45.27944414785208" lon="9.541631440827924"><ele>71.0</ele><time>2026-03-28T08:37:26Z</time></trkpt><trkpt lat="45.279292022456396" lon="9.541783546237149"><ele>71.0</ele><time>2026-03-28T08:37:27Z</time></trkpt><trkpt lat="45.27913500666905" lon="9.541931546084001"><ele>71.0</ele><time>2026-03-28T08:37:28Z</time></trkpt><trkpt lat="45.278976038282" lon="9.542079686140527"><ele>71.0</ele><time>2026-03-28T08:37:29Z</time></trkpt><trkpt lat="45.278815902546285" lon="9.542231507149207"><ele>71.0</ele><time>2026-03-28T08:37:29.999Z</time></trkpt><trkpt lat="45.278654774410775" lon="9.54238717989901"><ele>71.0</ele><time>2026-03-28T08:37:30.999Z</time></trkpt><trkpt lat="45.27849230707153" lon="9.542543905846815"><ele>71.0</ele><time>2026-03-28T08:37:31.999Z</time></trkpt><trkpt lat="45.278327750368575" lon="9.542698715449156"><ele>71.0</ele><time>2026-03-28T08:37:32.999Z</time></trkpt><trkpt lat="45.278163454547624" lon="9.54285565924709"><ele>71.0</ele><time>2026-03-28T08:37:33.999Z</time></trkpt><trkpt lat="45.27799929355794" lon="9.543013568360694"><ele>71.0</ele><time>2026-03-28T08:37:34.999Z</time></trkpt><trkpt lat="45.27783470681924" lon="9.543171899291856"><ele>71.33333333333334</ele><time>2026-03-28T08:37:35.999Z</time></trkpt><trkpt lat="45.277669931597735" lon="9.543329582742548"><ele>71.66666666666667</ele><time>2026-03-28T08:37:36.999Z</time></trkpt><trkpt lat="45.27750541878429" lon="9.543486948175596"><ele>72.0</ele><time>2026-03-28T08:37:37.999Z</time></trkpt><trkpt lat="45.27734192200431" lon="9.543642358861426"><ele>72.33333333333333</ele><time>2026-03-28T08:37:38.999Z</time></trkpt><trkpt lat="45.27718092734111" lon="9.543798264747066"><ele>72.66666666666666</ele><time>2026-03-28T08:37:39.999Z</time></trkpt><trkpt lat="45.27701920045263" lon="9.54395223252825"><ele>73.0</ele><time>2026-03-28T08:37:40.999Z</time></trkpt><trkpt lat="45.276857353813895" lon="9.544104784064896"><ele>73.0</ele><time>2026-03-28T08:37:41.999Z</time></trkpt><trkpt lat="45.27669683484845" lon="9.54425580263092"><ele>73.0</ele><time>2026-03-28T08:37:42.999Z</time></trkpt><trkpt lat="45.27653856686982" lon="9.544407214693686"><ele>73.0</ele><time>2026-03-28T08:37:43.999Z</time></trkpt><trkpt lat="45.276380554307266" lon="9.544557583740575"><ele>72.33333333333333</ele><time>2026-03-28T08:37:44.999Z</time></trkpt><trkpt lat="45.27622363095748" lon="9.544710859147068"><ele>71.66666666666667</ele><time>2026-03-28T08:37:45.999Z</time></trkpt><trkpt lat="45.276063998967764" lon="9.544864749974689"><ele>71.0</ele><time>2026-03-28T08:37:46.999Z</time></trkpt><trkpt lat="45.27590170246966" lon="9.545018048587966"><ele>71.0</ele><time>2026-03-28T08:37:47.999Z</time></trkpt><trkpt lat="45.27573901174575" lon="9.545171957620632"><ele>71.0</ele><time>2026-03-28T08:37:48.999Z</time></trkpt><trkpt lat="45.275573443815446" lon="9.545330567411163"><ele>71.0</ele><time>2026-03-28T08:37:49.999Z</time></trkpt><trkpt lat="45.27540300593029" lon="9.545492919953782"><ele>71.0</ele><time>2026-03-28T08:37:50.999Z</time></trkpt><trkpt lat="45.27522871364173" lon="9.54565736309355"><ele>71.0</ele><time>2026-03-28T08:37:51.999Z</time></trkpt><trkpt lat="45.27505157937875" lon="9.545825680154326"><ele>71.0</ele><time>2026-03-28T08:37:52.999Z</time></trkpt><trkpt lat="45.27487288582583" lon="9.546000626081943"><ele>71.0</ele><time>2026-03-28T08:37:53.999Z</time></trkpt><trkpt lat="45.27469283054631" lon="9.546174787572658"><ele>71.0</ele><time>2026-03-28T08:37:54.999Z</time></trkpt><trkpt lat="45.27451212725926" lon="9.546352632434953"><ele>71.0</ele><time>2026-03-28T08:37:55.999Z</time></trkpt><trkpt lat="45.27432724286752" lon="9.546532550872826"><ele>71.0</ele><time>2026-03-28T08:37:56.999Z</time></trkpt><trkpt lat="45.274131499851066" lon="9.546692517904194"><ele>71.0</ele><time>2026-03-28T08:37:57.999Z</time></trkpt><trkpt lat="45.2739453639731" lon="9.546869699312817"><ele>71.0</ele><time>2026-03-28T08:37:58.999Z</time></trkpt><trkpt lat="45.273758490054355" lon="9.547047583263387"><ele>71.0</ele><time>2026-03-28T08:37:59.999Z</time></trkpt><trkpt lat="45.273579359431835" lon="9.547246396172666"><ele>71.0</ele><time>2026-03-28T08:38:00.999Z</time></trkpt><trkpt lat="45.27339100709525" lon="9.54742376318177"><ele>71.0</ele><time>2026-03-28T08:38:01.999Z</time></trkpt><trkpt lat="45.27320214752279" lon="9.547599764363996"><ele>70.66666666666667</ele><time>2026-03-28T08:38:02.999Z</time></trkpt><trkpt lat="45.2730157440646" lon="9.547774928964632"><ele>70.33333333333333</ele><time>2026-03-28T08:38:03.999Z</time></trkpt><trkpt lat="45.27283325522741" lon="9.547950665658945"><ele>70.0</ele><time>2026-03-28T08:38:04.999Z</time></trkpt><trkpt lat="45.27265293378555" lon="9.548125995041147"><ele>70.0</ele><time>2026-03-28T08:38:05.999Z</time></trkpt><trkpt lat="45.27247438933683" lon="9.548296931949196"><ele>70.0</ele><time>2026-03-28T08:38:06.999Z</time></trkpt><trkpt lat="45.27229692658191" lon="9.548467465356326"><ele>70.0</ele><time>2026-03-28T08:38:07.999Z</time></trkpt><trkpt lat="45.27210912303913" lon="9.548619955857045"><ele>70.33333333333333</ele><time>2026-03-28T08:38:08.999Z</time></trkpt><trkpt lat="45.271932922318854" lon="9.548788125657254"><ele>70.66666666666667</ele><time>2026-03-28T08:38:09.999Z</time></trkpt><trkpt lat="45.27175542176129" lon="9.548957536039307"><ele>71.0</ele><time>2026-03-28T08:38:10.999Z</time></trkpt><trkpt lat="45.271579122082215" lon="9.549125800281859"><ele>71.0</ele><time>2026-03-28T08:38:11.999Z</time></trkpt><trkpt lat="45.27140268923954" lon="9.549294191619603"><ele>71.0</ele><time>2026-03-28T08:38:12.999Z</time></trkpt><trkpt lat="45.271227034624175" lon="9.549461840201177"><ele>71.0</ele><time>2026-03-28T08:38:13.999Z</time></trkpt><trkpt lat="45.27105719231142" lon="9.549623941372559"><ele>71.0</ele><time>2026-03-28T08:38:14.999Z</time></trkpt><trkpt lat="45.27089413010245" lon="9.549779571500602"><ele>71.0</ele><time>2026-03-28T08:38:15.999Z</time></trkpt><trkpt lat="45.27073613302941" lon="9.54993036735074"><ele>71.0</ele><time>2026-03-28T08:38:16.999Z</time></trkpt><trkpt lat="45.270582203428184" lon="9.55007728109136"><ele>70.66666666666667</ele><time>2026-03-28T08:38:17.999Z</time></trkpt><trkpt lat="45.270428449745" lon="9.550224026945981"><ele>70.33333333333333</ele><time>2026-03-28T08:38:18.999Z</time></trkpt><trkpt lat="45.270273747115276" lon="9.550371560045168"><ele>70.0</ele><time>2026-03-28T08:38:19.999Z</time></trkpt><trkpt lat="45.27011861802931" lon="9.550519204394222"><ele>70.0</ele><time>2026-03-28T08:38:20.999Z</time></trkpt><trkpt lat="45.2699607095705" lon="9.550669494031958"><ele>70.0</ele><time>2026-03-28T08:38:21.999Z</time></trkpt><trkpt lat="45.26980163721648" lon="9.55082089111828"><ele>70.0</ele><time>2026-03-28T08:38:22.999Z</time></trkpt><trkpt lat="45.26964275758685" lon="9.550972105125028"><ele>70.0</ele><time>2026-03-28T08:38:23.999Z</time></trkpt><trkpt lat="45.26948335067515" lon="9.551123821062543"><ele>70.0</ele><time>2026-03-28T08:38:24.999Z</time></trkpt><trkpt lat="45.26932297739031" lon="9.551276458306079"><ele>70.0</ele><time>2026-03-28T08:38:25.999Z</time></trkpt><trkpt lat="45.26916085405528" lon="9.551430759441956"><ele>70.0</ele><time>2026-03-28T08:38:26.999Z</time></trkpt><trkpt lat="45.26899827792012" lon="9.551585491551826"><ele>70.0</ele><time>2026-03-28T08:38:27.999Z</time></trkpt><trkpt lat="45.268834592268526" lon="9.55174127963593"><ele>70.0</ele><time>2026-03-28T08:38:28.999Z</time></trkpt><trkpt lat="45.268669346263636" lon="9.551898552815295"><ele>69.66666666666666</ele><time>2026-03-28T08:38:29.999Z</time></trkpt><trkpt lat="45.26850626497206" lon="9.552053765664944"><ele>69.33333333333333</ele><time>2026-03-28T08:38:30.999Z</time></trkpt><trkpt lat="45.26834282417695" lon="9.552209320318564"><ele>69.0</ele><time>2026-03-28T08:38:31.999Z</time></trkpt><trkpt lat="45.26817924537129" lon="9.55236500575713"><ele>69.0</ele><time>2026-03-28T08:38:32.999Z</time></trkpt><trkpt lat="45.268015676768066" lon="9.552520681485541"><ele>69.0</ele><time>2026-03-28T08:38:33.999Z</time></trkpt><trkpt lat="45.267862715619515" lon="9.552700676281784"><ele>69.0</ele><time>2026-03-28T08:38:34.999Z</time></trkpt><trkpt lat="45.267699011710526" lon="9.552854853580358"><ele>69.0</ele><time>2026-03-28T08:38:35.999Z</time></trkpt><trkpt lat="45.26753384807451" lon="9.553007914021489"><ele>69.0</ele><time>2026-03-28T08:38:36.999Z</time></trkpt><trkpt lat="45.26736821743433" lon="9.553161372375294"><ele>69.0</ele><time>2026-03-28T08:38:37.999Z</time></trkpt><trkpt lat="45.26720413820405" lon="9.553316245166279"><ele>69.0</ele><time>2026-03-28T08:38:38.999Z</time></trkpt><trkpt lat="45.267040068367756" lon="9.55347185304665"><ele>69.0</ele><time>2026-03-28T08:38:39.999Z</time></trkpt><trkpt lat="45.266877617771044" lon="9.553627565299456"><ele>69.0</ele><time>2026-03-28T08:38:40.999Z</time></trkpt><trkpt lat="45.26671318172799" lon="9.553782757128488"><ele>69.33333333333333</ele><time>2026-03-28T08:38:41.999Z</time></trkpt><trkpt lat="45.2665486724349" lon="9.55393768057122"><ele>69.66666666666666</ele><time>2026-03-28T08:38:43Z</time></trkpt><trkpt lat="45.266383595702294" lon="9.554092493043207"><ele>70.0</ele><time>2026-03-28T08:38:44Z</time></trkpt><trkpt lat="45.26621790326901" lon="9.554247388606193"><ele>70.0</ele><time>2026-03-28T08:38:45Z</time></trkpt><trkpt lat="45.26605345347537" lon="9.55440241636793"><ele>70.0</ele><time>2026-03-28T08:38:46Z</time></trkpt><trkpt lat="45.265890869082305" lon="9.554559611762219"><ele>70.0</ele><time>2026-03-28T08:38:47Z</time></trkpt><trkpt lat="45.26572589044886" lon="9.554716393149493"><ele>70.0</ele><time>2026-03-28T08:38:48Z</time></trkpt><trkpt lat="45.2655617583831" lon="9.554872983800358"><ele>70.0</ele><time>2026-03-28T08:38:49Z</time></trkpt><trkpt lat="45.26539776209928" lon="9.555028746927565"><ele>70.0</ele><time>2026-03-28T08:38:50Z</time></trkpt><trkpt lat="45.26523240308609" lon="9.555183802079576"><ele>70.0</ele><time>2026-03-28T08:38:51Z</time></trkpt><trkpt lat="45.26506657180959" lon="9.555336943097105"><ele>70.0</ele><time>2026-03-28T08:38:52Z</time></trkpt><trkpt lat="45.26490109699193" lon="9.555490836891924"><ele>70.0</ele><time>2026-03-28T08:38:53Z</time></trkpt><trkpt lat="45.264734679076135" lon="9.555645429830863"><ele>70.0</ele><time>2026-03-28T08:38:54Z</time></trkpt><trkpt lat="45.26457098303621" lon="9.555804576668375"><ele>70.0</ele><time>2026-03-28T08:38:55Z</time></trkpt><trkpt lat="45.26440745464117" lon="9.555961761640017"><ele>70.0</ele><time>2026-03-28T08:38:56Z</time></trkpt><trkpt lat="45.264242959083184" lon="9.556116658603049"><ele>70.0</ele><time>2026-03-28T08:38:57Z</time></trkpt><trkpt lat="45.26407798889402" lon="9.556272700926527"><ele>70.0</ele><time>2026-03-28T08:38:58Z</time></trkpt><trkpt lat="45.26391144076683" lon="9.556426596737168"><ele>70.0</ele><time>2026-03-28T08:38:59Z</time></trkpt><trkpt lat="45.26374477090633" lon="9.556580607457404"><ele>70.0</ele><time>2026-03-28T08:39:00Z</time></trkpt><trkpt lat="45.26357776221581" lon="9.556732004139269"><ele>70.0</ele><time>2026-03-28T08:39:01Z</time></trkpt><trkpt lat="45.26341190490674" lon="9.556886323495664"><ele>70.0</ele><time>2026-03-28T08:39:02Z</time></trkpt><trkpt lat="45.26324449146464" lon="9.557038000191445"><ele>70.33333333333333</ele><time>2026-03-28T08:39:03Z</time></trkpt><trkpt lat="45.263073691424715" lon="9.557183838861977"><ele>70.66666666666667</ele><time>2026-03-28T08:39:04Z</time></trkpt><trkpt lat="45.26290424234672" lon="9.557331479685455"><ele>71.0</ele><time>2026-03-28T08:39:05Z</time></trkpt><trkpt lat="45.262734532234134" lon="9.557477012367167"><ele>71.0</ele><time>2026-03-28T08:39:06Z</time></trkpt><trkpt lat="45.262566120270584" lon="9.557624752593997"><ele>71.0</ele><time>2026-03-28T08:39:07Z</time></trkpt><trkpt lat="45.262399013428436" lon="9.557774383106327"><ele>71.0</ele><time>2026-03-28T08:39:08Z</time></trkpt><trkpt lat="45.26223683740975" lon="9.557933388405408"><ele>71.0</ele><time>2026-03-28T08:39:09Z</time></trkpt><trkpt lat="45.26207800681386" lon="9.558095781255886"><ele>71.0</ele><time>2026-03-28T08:39:10Z</time></trkpt><trkpt lat="45.26191895073016" lon="9.558260390034"><ele>71.0</ele><time>2026-03-28T08:39:11Z</time></trkpt><trkpt lat="45.26175502537524" lon="9.55841745058744"><ele>71.0</ele><time>2026-03-28T08:39:12Z</time></trkpt><trkpt lat="45.26159431757225" lon="9.558575984372643"><ele>71.0</ele><time>2026-03-28T08:39:13Z</time></trkpt><trkpt lat="45.26143256139169" lon="9.558738063819831"><ele>71.0</ele><time>2026-03-28T08:39:14Z</time></trkpt><trkpt lat="45.26126980440574" lon="9.55889836618131"><ele>70.33333333333334</ele><time>2026-03-28T08:39:15Z</time></trkpt><trkpt lat="45.26110627058736" lon="9.559057495727572"><ele>69.66666666666667</ele><time>2026-03-28T08:39:16Z</time></trkpt><trkpt lat="45.26094169854793" lon="9.559218947024693"><ele>69.0</ele><time>2026-03-28T08:39:17Z</time></trkpt><trkpt lat="45.26077960823982" lon="9.55938040675645"><ele>69.0</ele><time>2026-03-28T08:39:18Z</time></trkpt><trkpt lat="45.260616642962034" lon="9.559542880403313"><ele>69.0</ele><time>2026-03-28T08:39:19Z</time></trkpt><trkpt lat="45.260454505247466" lon="9.559707191441193"><ele>69.0</ele><time>2026-03-28T08:39:20Z</time></trkpt><trkpt lat="45.26029193546592" lon="9.559867915687576"><ele>69.66666666666667</ele><time>2026-03-28T08:39:21Z</time></trkpt><trkpt lat="45.26012772381063" lon="9.56002853873686"><ele>70.33333333333334</ele><time>2026-03-28T08:39:22Z</time></trkpt><trkpt lat="45.2599661126843" lon="9.56019086065363"><ele>71.0</ele><time>2026-03-28T08:39:23Z</time></trkpt><trkpt lat="45.259802581973496" lon="9.560352363866576"><ele>70.66666666666667</ele><time>2026-03-28T08:39:24Z</time></trkpt><trkpt lat="45.259641009616495" lon="9.560514241997272"><ele>70.33333333333333</ele><time>2026-03-28T08:39:25Z</time></trkpt><trkpt lat="45.259477753013506" lon="9.560674503239067"><ele>70.0</ele><time>2026-03-28T08:39:26Z</time></trkpt><trkpt lat="45.25931534480432" lon="9.560835302880722"><ele>70.0</ele><time>2026-03-28T08:39:27Z</time></trkpt><trkpt lat="45.25915324165471" lon="9.560994903857104"><ele>70.0</ele><time>2026-03-28T08:39:28Z</time></trkpt><trkpt lat="45.25899059015364" lon="9.561151565056413"><ele>70.0</ele><time>2026-03-28T08:39:29Z</time></trkpt><trkpt lat="45.25882769926221" lon="9.561312375316565"><ele>70.0</ele><time>2026-03-28T08:39:30Z</time></trkpt><trkpt lat="45.25866516127425" lon="9.561471973418369"><ele>70.0</ele><time>2026-03-28T08:39:31Z</time></trkpt><trkpt lat="45.258502312835624" lon="9.561632484483349"><ele>70.0</ele><time>2026-03-28T08:39:32Z</time></trkpt><trkpt lat="45.25834011022213" lon="9.56179346673539"><ele>70.0</ele><time>2026-03-28T08:39:33Z</time></trkpt><trkpt lat="45.258175803026994" lon="9.56195370493082"><ele>70.0</ele><time>2026-03-28T08:39:34Z</time></trkpt><trkpt lat="45.258013002238165" lon="9.562112999785239"><ele>70.0</ele><time>2026-03-28T08:39:34.999Z</time></trkpt><trkpt lat="45.25785161739648" lon="9.562275110691687"><ele>70.0</ele><time>2026-03-28T08:39:35.999Z</time></trkpt><trkpt lat="45.25768855130947" lon="9.56243444889369"><ele>70.0</ele><time>2026-03-28T08:39:36.999Z</time></trkpt><trkpt lat="45.257524025463255" lon="9.562593815563057"><ele>70.0</ele><time>2026-03-28T08:39:37.999Z</time></trkpt><trkpt lat="45.25736206942465" lon="9.562754873469883"><ele>70.0</ele><time>2026-03-28T08:39:38.999Z</time></trkpt><trkpt lat="45.25720166822931" lon="9.562918693811307"><ele>70.0</ele><time>2026-03-28T08:39:39.999Z</time></trkpt><trkpt lat="45.25703950489192" lon="9.563079872826311"><ele>70.0</ele><time>2026-03-28T08:39:40.999Z</time></trkpt><trkpt lat="45.25687690696755" lon="9.563241288966557"><ele>70.0</ele><time>2026-03-28T08:39:41.999Z</time></trkpt><trkpt lat="45.256713141015176" lon="9.563401508605304"><ele>70.0</ele><time>2026-03-28T08:39:42.999Z</time></trkpt><trkpt lat="45.2565500683701" lon="9.563561949792328"><ele>70.0</ele><time>2026-03-28T08:39:43.999Z</time></trkpt><trkpt lat="45.256386916095224" lon="9.56372473178388"><ele>69.66666666666666</ele><time>2026-03-28T08:39:44.999Z</time></trkpt><trkpt lat="45.256225777783214" lon="9.563888514815094"><ele>69.33333333333333</ele><time>2026-03-28T08:39:45.999Z</time></trkpt><trkpt lat="45.25606631364885" lon="9.564055784216306"><ele>69.0</ele><time>2026-03-28T08:39:46.999Z</time></trkpt><trkpt lat="45.25590869820749" lon="9.56422329511315"><ele>69.0</ele><time>2026-03-28T08:39:47.999Z</time></trkpt><trkpt lat="45.255749153800856" lon="9.564388059459741"><ele>69.0</ele><time>2026-03-28T08:39:48.999Z</time></trkpt><trkpt lat="45.25558597041548" lon="9.564550487494776"><ele>69.0</ele><time>2026-03-28T08:39:49.999Z</time></trkpt><trkpt lat="45.255425459022824" lon="9.564716360468463"><ele>68.66666666666667</ele><time>2026-03-28T08:39:50.999Z</time></trkpt><trkpt lat="45.25526550611201" lon="9.56488223504508"><ele>68.33333333333334</ele><time>2026-03-28T08:39:51.999Z</time></trkpt><trkpt lat="45.25510631126764" lon="9.56504872744658"><ele>68.0</ele><time>2026-03-28T08:39:52.999Z</time></trkpt><trkpt lat="45.254947339584625" lon="9.565214088766291"><ele>68.66666666666667</ele><time>2026-03-28T08:39:53.999Z</time></trkpt><trkpt lat="45.25478771884394" lon="9.565379788328318"><ele>69.33333333333333</ele><time>2026-03-28T08:39:54.999Z</time></trkpt><trkpt lat="45.25461914073168" lon="9.5655263789908"><ele>70.0</ele><time>2026-03-28T08:39:55.999Z</time></trkpt><trkpt lat="45.25445890077832" lon="9.565692759466101"><ele>70.0</ele><time>2026-03-28T08:39:56.999Z</time></trkpt><trkpt lat="45.254298947947625" lon="9.565858087207978"><ele>70.0</ele><time>2026-03-28T08:39:57.999Z</time></trkpt><trkpt lat="45.254138905088816" lon="9.56602350800323"><ele>70.0</ele><time>2026-03-28T08:39:58.999Z</time></trkpt><trkpt lat="45.25397885740679" lon="9.566188933782824"><ele>69.33333333333333</ele><time>2026-03-28T08:39:59.999Z</time></trkpt><trkpt lat="45.25382866672494" lon="9.566373161120937"><ele>68.66666666666667</ele><time>2026-03-28T08:40:00.999Z</time></trkpt><trkpt lat="45.25366771418934" lon="9.566538524832733"><ele>68.0</ele><time>2026-03-28T08:40:01.999Z</time></trkpt><trkpt lat="45.253505882319146" lon="9.566702171375303"><ele>68.0</ele><time>2026-03-28T08:40:02.999Z</time></trkpt><trkpt lat="45.2533446166473" lon="9.566864452031943"><ele>68.0</ele><time>2026-03-28T08:40:03.999Z</time></trkpt><trkpt lat="45.25318414204513" lon="9.567028603269154"><ele>68.0</ele><time>2026-03-28T08:40:04.999Z</time></trkpt><trkpt lat="45.25302402231788" lon="9.567194071329116"><ele>68.0</ele><time>2026-03-28T08:40:05.999Z</time></trkpt><trkpt lat="45.2528626547261" lon="9.56735772192892"><ele>68.0</ele><time>2026-03-28T08:40:06.999Z</time></trkpt><trkpt lat="45.25270107833967" lon="9.567522598967923"><ele>68.0</ele><time>2026-03-28T08:40:07.999Z</time></trkpt><trkpt lat="45.252540591595356" lon="9.567688440450762"><ele>68.0</ele><time>2026-03-28T08:40:08.999Z</time></trkpt><trkpt lat="45.25237994864459" lon="9.56785437893747"><ele>68.0</ele><time>2026-03-28T08:40:09.999Z</time></trkpt><trkpt lat="45.252218658773415" lon="9.568020176076327"><ele>68.0</ele><time>2026-03-28T08:40:10.999Z</time></trkpt><trkpt lat="45.25205986556876" lon="9.568187569000132"><ele>67.66666666666667</ele><time>2026-03-28T08:40:11.999Z</time></trkpt><trkpt lat="45.25189906850018" lon="9.56835299679157"><ele>67.33333333333333</ele><time>2026-03-28T08:40:12.999Z</time></trkpt><trkpt lat="45.25173738686428" lon="9.568516257217498"><ele>67.0</ele><time>2026-03-28T08:40:13.999Z</time></trkpt><trkpt lat="45.25157519776161" lon="9.568678704077858"><ele>68.33333333333333</ele><time>2026-03-28T08:40:14.999Z</time></trkpt><trkpt lat="45.25141497393907" lon="9.568841525409768"><ele>69.66666666666667</ele><time>2026-03-28T08:40:15.999Z</time></trkpt><trkpt lat="45.25125390409014" lon="9.569002251905827"><ele>71.0</ele><time>2026-03-28T08:40:16.999Z</time></trkpt><trkpt lat="45.251092417450536" lon="9.569163282398168"><ele>71.0</ele><time>2026-03-28T08:40:17.999Z</time></trkpt><trkpt lat="45.25093025615991" lon="9.569325256086566"><ele>71.0</ele><time>2026-03-28T08:40:18.999Z</time></trkpt><trkpt lat="45.25076963606037" lon="9.569492023927364"><ele>71.0</ele><time>2026-03-28T08:40:19.999Z</time></trkpt><trkpt lat="45.25061206842867" lon="9.569664742468898"><ele>70.33333333333334</ele><time>2026-03-28T08:40:20.999Z</time></trkpt><trkpt lat="45.25045694698569" lon="9.569840845045169"><ele>69.66666666666667</ele><time>2026-03-28T08:40:21.999Z</time></trkpt><trkpt lat="45.25030247239491" lon="9.570018542295958"><ele>69.0</ele><time>2026-03-28T08:40:22.999Z</time></trkpt><trkpt lat="45.25014688603224" lon="9.570193791370235"><ele>68.66666666666667</ele><time>2026-03-28T08:40:23.999Z</time></trkpt><trkpt lat="45.24999306717333" lon="9.570371876583888"><ele>68.33333333333334</ele><time>2026-03-28T08:40:24.999Z</time></trkpt><trkpt lat="45.24984036463558" lon="9.570549965366377"><ele>68.0</ele><time>2026-03-28T08:40:25.999Z</time></trkpt><trkpt lat="45.249689338791256" lon="9.570731803858134"><ele>68.0</ele><time>2026-03-28T08:40:26.999Z</time></trkpt><trkpt lat="45.24953800068841" lon="9.57091435782647"><ele>68.0</ele><time>2026-03-28T08:40:27.999Z</time></trkpt><trkpt lat="45.24938881148588" lon="9.571098807599514"><ele>68.0</ele><time>2026-03-28T08:40:28.999Z</time></trkpt><trkpt lat="45.24923917208872" lon="9.571281494775743"><ele>68.0</ele><time>2026-03-28T08:40:29.999Z</time></trkpt><trkpt lat="45.24908517830165" lon="9.57146037875099"><ele>68.0</ele><time>2026-03-28T08:40:30.999Z</time></trkpt><trkpt lat="45.248927623443585" lon="9.57163595779306"><ele>68.0</ele><time>2026-03-28T08:40:31.999Z</time></trkpt><trkpt lat="45.248772357209056" lon="9.571811169819249"><ele>68.0</ele><time>2026-03-28T08:40:32.999Z</time></trkpt><trkpt lat="45.24860738945358" lon="9.571966942988306"><ele>68.0</ele><time>2026-03-28T08:40:33.999Z</time></trkpt><trkpt lat="45.24845309792925" lon="9.57214224770175"><ele>68.0</ele><time>2026-03-28T08:40:34.999Z</time></trkpt><trkpt lat="45.24830740798419" lon="9.572336401473951"><ele>68.0</ele><time>2026-03-28T08:40:35.999Z</time></trkpt><trkpt lat="45.248151417475036" lon="9.572508246407432"><ele>68.0</ele><time>2026-03-28T08:40:36.999Z</time></trkpt><trkpt lat="45.24799578093587" lon="9.572680282004047"><ele>68.0</ele><time>2026-03-28T08:40:37.999Z</time></trkpt><trkpt lat="45.24783997557167" lon="9.572855895237918"><ele>68.0</ele><time>2026-03-28T08:40:38.999Z</time></trkpt><trkpt lat="45.24768553635371" lon="9.57303181988674"><ele>68.0</ele><time>2026-03-28T08:40:39.999Z</time></trkpt><trkpt lat="45.247529035146535" lon="9.57321008698349"><ele>68.0</ele><time>2026-03-28T08:40:40.999Z</time></trkpt><trkpt lat="45.24736825213643" lon="9.573391659006068"><ele>68.0</ele><time>2026-03-28T08:40:41.999Z</time></trkpt><trkpt lat="45.247200307006764" lon="9.573576103820008"><ele>68.0</ele><time>2026-03-28T08:40:42.999Z</time></trkpt><trkpt lat="45.247033237784784" lon="9.573768732981637"><ele>68.0</ele><time>2026-03-28T08:40:43.999Z</time></trkpt><trkpt lat="45.2468644022311" lon="9.57396495657902"><ele>68.0</ele><time>2026-03-28T08:40:44.999Z</time></trkpt><trkpt lat="45.246694322007194" lon="9.574163674718926"><ele>68.0</ele><time>2026-03-28T08:40:45.999Z</time></trkpt><trkpt lat="45.246513150332326" lon="9.574339322707635"><ele>68.0</ele><time>2026-03-28T08:40:46.999Z</time></trkpt><trkpt lat="45.246342384450784" lon="9.574533126140263"><ele>67.66666666666667</ele><time>2026-03-28T08:40:47.999Z</time></trkpt><trkpt lat="45.24617055068174" lon="9.57472716968853"><ele>67.33333333333333</ele><time>2026-03-28T08:40:49Z</time></trkpt><trkpt lat="45.245998582524756" lon="9.574921364903382"><ele>67.0</ele><time>2026-03-28T08:40:50Z</time></trkpt><trkpt lat="45.245825682491606" lon="9.575116612437752"><ele>67.0</ele><time>2026-03-28T08:40:51Z</time></trkpt><trkpt lat="45.24565360868844" lon="9.575310927057048"><ele>67.0</ele><time>2026-03-28T08:40:52Z</time></trkpt><trkpt lat="45.24548161996876" lon="9.575505145615885"><ele>67.0</ele><time>2026-03-28T08:40:53Z</time></trkpt><trkpt lat="45.245310689261046" lon="9.57569816920352"><ele>66.66666666666666</ele><time>2026-03-28T08:40:54Z</time></trkpt><trkpt lat="45.245150329346224" lon="9.575908362177275"><ele>66.33333333333333</ele><time>2026-03-28T08:40:55Z</time></trkpt><trkpt lat="45.244978824950024" lon="9.576101742268161"><ele>66.0</ele><time>2026-03-28T08:40:56Z</time></trkpt><trkpt lat="45.2447986220366" lon="9.576276671133474"><ele>66.33333333333333</ele><time>2026-03-28T08:40:57Z</time></trkpt><trkpt lat="45.244627775800254" lon="9.576470467575126"><ele>66.66666666666666</ele><time>2026-03-28T08:40:58Z</time></trkpt><trkpt lat="45.24445677291366" lon="9.576664441680498"><ele>67.0</ele><time>2026-03-28T08:40:59Z</time></trkpt><trkpt lat="45.24428683462315" lon="9.576858701286731"><ele>67.0</ele><time>2026-03-28T08:41:00Z</time></trkpt><trkpt lat="45.24411758680914" lon="9.5770527129622"><ele>67.0</ele><time>2026-03-28T08:41:01Z</time></trkpt><trkpt lat="45.24394774293039" lon="9.5772483366316"><ele>67.0</ele><time>2026-03-28T08:41:02Z</time></trkpt><trkpt lat="45.24378811292754" lon="9.577460186918357"><ele>67.0</ele><time>2026-03-28T08:41:03Z</time></trkpt><trkpt lat="45.24361003379746" lon="9.57763731345409"><ele>67.0</ele><time>2026-03-28T08:41:04Z</time></trkpt><trkpt lat="45.24345774477324" lon="9.577862211535166"><ele>67.0</ele><time>2026-03-28T08:41:05Z</time></trkpt><trkpt lat="45.24330170028635" lon="9.578077950879182"><ele>67.0</ele><time>2026-03-28T08:41:06Z</time></trkpt><trkpt lat="45.2431553393381" lon="9.578306277255683"><ele>67.0</ele><time>2026-03-28T08:41:07Z</time></trkpt><trkpt lat="45.24301590003809" lon="9.578545321305404"><ele>67.0</ele><time>2026-03-28T08:41:08Z</time></trkpt><trkpt lat="45.24288287108699" lon="9.578790689301211"><ele>67.0</ele><time>2026-03-28T08:41:09Z</time></trkpt><trkpt lat="45.242749620564254" lon="9.57903693782035"><ele>67.0</ele><time>2026-03-28T08:41:10Z</time></trkpt><trkpt lat="45.24261615218939" lon="9.579285163358302"><ele>67.0</ele><time>2026-03-28T08:41:11Z</time></trkpt><trkpt lat="45.242480535511284" lon="9.579529511941827"><ele>67.33333333333333</ele><time>2026-03-28T08:41:12Z</time></trkpt><trkpt lat="45.242346190501294" lon="9.57977418150195"><ele>67.66666666666667</ele><time>2026-03-28T08:41:13Z</time></trkpt><trkpt lat="45.242212882080764" lon="9.580019309404792"><ele>68.0</ele><time>2026-03-28T08:41:14Z</time></trkpt><trkpt lat="45.24208091418028" lon="9.580267021285945"><ele>67.33333333333334</ele><time>2026-03-28T08:41:15Z</time></trkpt><trkpt lat="45.241948073946084" lon="9.580513576208068"><ele>66.66666666666667</ele><time>2026-03-28T08:41:16Z</time></trkpt><trkpt lat="45.24181402491075" lon="9.580759402247997"><ele>66.0</ele><time>2026-03-28T08:41:17Z</time></trkpt><trkpt lat="45.24167969757561" lon="9.581005130518847"><ele>66.33333333333333</ele><time>2026-03-28T08:41:18Z</time></trkpt><trkpt lat="45.24154794404084" lon="9.58125130159671"><ele>66.66666666666666</ele><time>2026-03-28T08:41:19Z</time></trkpt><trkpt lat="45.24141640952128" lon="9.581498191228517"><ele>67.0</ele><time>2026-03-28T08:41:20Z</time></trkpt><trkpt lat="45.24128243967657" lon="9.581743910933028"><ele>67.0</ele><time>2026-03-28T08:41:21Z</time></trkpt><trkpt lat="45.24114977883144" lon="9.581990480995806"><ele>67.0</ele><time>2026-03-28T08:41:22Z</time></trkpt><trkpt lat="45.241015989510124" lon="9.582235500364085"><ele>67.0</ele><time>2026-03-28T08:41:23Z</time></trkpt><trkpt lat="45.24088233839071" lon="9.582481824446841"><ele>67.0</ele><time>2026-03-28T08:41:24Z</time></trkpt><trkpt lat="45.240749265720616" lon="9.582728456519924"><ele>67.0</ele><time>2026-03-28T08:41:25Z</time></trkpt><trkpt lat="45.24061632665233" lon="9.5829747201837"><ele>67.0</ele><time>2026-03-28T08:41:26Z</time></trkpt><trkpt lat="45.240482750518645" lon="9.5832189527268"><ele>66.0</ele><time>2026-03-28T08:41:27Z</time></trkpt><trkpt lat="45.24034743554869" lon="9.583463104381263"><ele>65.0</ele><time>2026-03-28T08:41:28Z</time></trkpt><trkpt lat="45.24021539846154" lon="9.583709731588616"><ele>64.0</ele><time>2026-03-28T08:41:29Z</time></trkpt><trkpt lat="45.24008522771408" lon="9.58395737844974"><ele>64.0</ele><time>2026-03-28T08:41:30Z</time></trkpt><trkpt lat="45.2399549049014" lon="9.584204034184976"><ele>64.0</ele><time>2026-03-28T08:41:31Z</time></trkpt><trkpt lat="45.239824826241815" lon="9.584451347327933"><ele>64.0</ele><time>2026-03-28T08:41:32Z</time></trkpt><trkpt lat="45.239691824399095" lon="9.584697225533162"><ele>65.0</ele><time>2026-03-28T08:41:33Z</time></trkpt><trkpt lat="45.239555497691285" lon="9.584941168392486"><ele>66.0</ele><time>2026-03-28T08:41:34Z</time></trkpt><trkpt lat="45.23942015910645" lon="9.585186116618173"><ele>67.0</ele><time>2026-03-28T08:41:35Z</time></trkpt><trkpt lat="45.2392856349591" lon="9.585431622783478"><ele>67.0</ele><time>2026-03-28T08:41:36Z</time></trkpt><trkpt lat="45.239152134570524" lon="9.585677347658176"><ele>67.0</ele><time>2026-03-28T08:41:37Z</time></trkpt><trkpt lat="45.23902178027128" lon="9.585924471381542"><ele>67.0</ele><time>2026-03-28T08:41:38Z</time></trkpt><trkpt lat="45.23888911020509" lon="9.586170845298223"><ele>66.33333333333333</ele><time>2026-03-28T08:41:39Z</time></trkpt><trkpt lat="45.238756488281" lon="9.586415878708934"><ele>65.66666666666667</ele><time>2026-03-28T08:41:39.999Z</time></trkpt><trkpt lat="45.23862371513373" lon="9.586661510054515"><ele>65.0</ele><time>2026-03-28T08:41:40.999Z</time></trkpt><trkpt lat="45.238491580783915" lon="9.586907664968855"><ele>65.0</ele><time>2026-03-28T08:41:41.999Z</time></trkpt><trkpt lat="45.238356974491666" lon="9.587152639664126"><ele>65.0</ele><time>2026-03-28T08:41:42.999Z</time></trkpt><trkpt lat="45.23822242621871" lon="9.587401998061047"><ele>65.0</ele><time>2026-03-28T08:41:43.999Z</time></trkpt><trkpt lat="45.23808699790264" lon="9.58764063330907"><ele>65.33333333333334</ele><time>2026-03-28T08:41:44.999Z</time></trkpt><trkpt lat="45.23794921592082" lon="9.587881197866007"><ele>65.66666666666667</ele><time>2026-03-28T08:41:45.999Z</time></trkpt><trkpt lat="45.23781007243388" lon="9.588120059073537"><ele>66.0</ele><time>2026-03-28T08:41:46.999Z</time></trkpt><trkpt lat="45.23767118127491" lon="9.588357440981781"><ele>66.0</ele><time>2026-03-28T08:41:47.999Z</time></trkpt><trkpt lat="45.23753119795255" lon="9.588595654542464"><ele>66.0</ele><time>2026-03-28T08:41:48.999Z</time></trkpt><trkpt lat="45.237392019765856" lon="9.588833806672556"><ele>66.0</ele><time>2026-03-28T08:41:49.999Z</time></trkpt><trkpt lat="45.237254532044815" lon="9.589072965364979"><ele>65.66666666666667</ele><time>2026-03-28T08:41:50.999Z</time></trkpt><trkpt lat="45.23711556573839" lon="9.589311633588357"><ele>65.33333333333334</ele><time>2026-03-28T08:41:51.999Z</time></trkpt><trkpt lat="45.23697507220832" lon="9.58954814409663"><ele>65.0</ele><time>2026-03-28T08:41:52.999Z</time></trkpt><trkpt lat="45.23683479950502" lon="9.589785442265034"><ele>66.0</ele><time>2026-03-28T08:41:53.999Z</time></trkpt><trkpt lat="45.23669401234781" lon="9.590022475865128"><ele>67.0</ele><time>2026-03-28T08:41:54.999Z</time></trkpt><trkpt lat="45.236552325837565" lon="9.59025765372554"><ele>68.0</ele><time>2026-03-28T08:41:55.999Z</time></trkpt><trkpt lat="45.23640896674808" lon="9.590490990236244"><ele>68.0</ele><time>2026-03-28T08:41:56.999Z</time></trkpt><trkpt lat="45.236267502743836" lon="9.590725354995065"><ele>68.0</ele><time>2026-03-28T08:41:57.999Z</time></trkpt><trkpt lat="45.236126577570964" lon="9.590961444455882"><ele>68.0</ele><time>2026-03-28T08:41:58.999Z</time></trkpt><trkpt lat="45.23598315688568" lon="9.591195222030573"><ele>68.0</ele><time>2026-03-28T08:41:59.999Z</time></trkpt><trkpt lat="45.235843984986964" lon="9.59143298107637"><ele>68.0</ele><time>2026-03-28T08:42:00.999Z</time></trkpt><trkpt lat="45.23571079736962" lon="9.591678731898329"><ele>68.0</ele><time>2026-03-28T08:42:01.999Z</time></trkpt><trkpt lat="45.23557273232669" lon="9.591919922420287"><ele>67.0</ele><time>2026-03-28T08:42:02.999Z</time></trkpt><trkpt lat="45.235434400853634" lon="9.592159467144837"><ele>66.0</ele><time>2026-03-28T08:42:03.999Z</time></trkpt><trkpt lat="45.235294983559484" lon="9.592397374381619"><ele>65.0</ele><time>2026-03-28T08:42:04.999Z</time></trkpt><trkpt lat="45.235153536234144" lon="9.592633457852774"><ele>64.66666666666667</ele><time>2026-03-28T08:42:05.999Z</time></trkpt><trkpt lat="45.2350101039859" lon="9.592868706169902"><ele>64.33333333333333</ele><time>2026-03-28T08:42:06.999Z</time></trkpt><trkpt lat="45.23486607330366" lon="9.593101599919123"><ele>64.0</ele><time>2026-03-28T08:42:07.999Z</time></trkpt><trkpt lat="45.23472083946198" lon="9.593332858046004"><ele>64.33333333333333</ele><time>2026-03-28T08:42:08.999Z</time></trkpt><trkpt lat="45.234571552242365" lon="9.593559180641925"><ele>64.66666666666667</ele><time>2026-03-28T08:42:09.999Z</time></trkpt><trkpt lat="45.23441859253041" lon="9.593781303388003"><ele>65.0</ele><time>2026-03-28T08:42:10.999Z</time></trkpt><trkpt lat="45.2342646556741" lon="9.593999490099037"><ele>65.0</ele><time>2026-03-28T08:42:11.999Z</time></trkpt><trkpt lat="45.234106630087204" lon="9.59421269780169"><ele>65.0</ele><time>2026-03-28T08:42:12.999Z</time></trkpt><trkpt lat="45.23394677837257" lon="9.594421560924763"><ele>65.0</ele><time>2026-03-28T08:42:13.999Z</time></trkpt><trkpt lat="45.233783039289534" lon="9.594624422517546"><ele>65.33333333333334</ele><time>2026-03-28T08:42:14.999Z</time></trkpt><trkpt lat="45.23361613740503" lon="9.594823314713286"><ele>65.66666666666667</ele><time>2026-03-28T08:42:15.999Z</time></trkpt><trkpt lat="45.233445131529024" lon="9.595017583606612"><ele>66.0</ele><time>2026-03-28T08:42:16.999Z</time></trkpt><trkpt lat="45.23327176732455" lon="9.595206385273057"><ele>65.33333333333333</ele><time>2026-03-28T08:42:17.999Z</time></trkpt><trkpt lat="45.2330928330096" lon="9.595385662850456"><ele>64.66666666666666</ele><time>2026-03-28T08:42:18.999Z</time></trkpt><trkpt lat="45.232910081596145" lon="9.595555231177636"><ele>64.0</ele><time>2026-03-28T08:42:19.999Z</time></trkpt><trkpt lat="45.23272600406496" lon="9.595721716629164"><ele>64.0</ele><time>2026-03-28T08:42:20.999Z</time></trkpt><trkpt lat="45.232541787721665" lon="9.595887480100297"><ele>64.0</ele><time>2026-03-28T08:42:21.999Z</time></trkpt><trkpt lat="45.23235415958135" lon="9.596045644339307"><ele>64.0</ele><time>2026-03-28T08:42:22.999Z</time></trkpt><trkpt lat="45.23216410354341" lon="9.596195523450893"><ele>64.33333333333333</ele><time>2026-03-28T08:42:23.999Z</time></trkpt><trkpt lat="45.23197123957005" lon="9.59633787285907"><ele>64.66666666666667</ele><time>2026-03-28T08:42:24.999Z</time></trkpt><trkpt lat="45.231775653132566" lon="9.596474930481525"><ele>65.0</ele><time>2026-03-28T08:42:25.999Z</time></trkpt><trkpt lat="45.23157895162403" lon="9.596606286858588"><ele>65.33333333333334</ele><time>2026-03-28T08:42:26.999Z</time></trkpt><trkpt lat="45.231378721372785" lon="9.596729251024549"><ele>65.66666666666667</ele><time>2026-03-28T08:42:27.999Z</time></trkpt><trkpt lat="45.2311784862654" lon="9.596849566331375"><ele>66.0</ele><time>2026-03-28T08:42:28.999Z</time></trkpt><trkpt lat="45.23097704492772" lon="9.596975625564433"><ele>66.0</ele><time>2026-03-28T08:42:29.999Z</time></trkpt><trkpt lat="45.23077944931469" lon="9.5970994145239"><ele>66.0</ele><time>2026-03-28T08:42:30.999Z</time></trkpt><trkpt lat="45.23058067924114" lon="9.597224380494492"><ele>66.0</ele><time>2026-03-28T08:42:31.999Z</time></trkpt><trkpt lat="45.230381188862616" lon="9.597348374424632"><ele>66.0</ele><time>2026-03-28T08:42:32.999Z</time></trkpt><trkpt lat="45.23018181125916" lon="9.597472103986153"><ele>66.0</ele><time>2026-03-28T08:42:33.999Z</time></trkpt><trkpt lat="45.22998278445046" lon="9.597598091818245"><ele>66.0</ele><time>2026-03-28T08:42:34.999Z</time></trkpt><trkpt lat="45.22978250080001" lon="9.597722648882645"><ele>65.66666666666667</ele><time>2026-03-28T08:42:35.999Z</time></trkpt><trkpt lat="45.22958279815179" lon="9.597847228492508"><ele>65.33333333333334</ele><time>2026-03-28T08:42:36.999Z</time></trkpt><trkpt lat="45.22938293106068" lon="9.597969660337283"><ele>65.0</ele><time>2026-03-28T08:42:37.999Z</time></trkpt><trkpt lat="45.22918201881674" lon="9.598094765360088"><ele>65.0</ele><time>2026-03-28T08:42:38.999Z</time></trkpt><trkpt lat="45.22898281923325" lon="9.598220317643731"><ele>65.0</ele><time>2026-03-28T08:42:39.999Z</time></trkpt><trkpt lat="45.2287853979312" lon="9.598346202227855"><ele>65.0</ele><time>2026-03-28T08:42:40.999Z</time></trkpt><trkpt lat="45.22858709943661" lon="9.598472442994288"><ele>65.0</ele><time>2026-03-28T08:42:41.999Z</time></trkpt><trkpt lat="45.22838704275764" lon="9.598597367622975"><ele>65.0</ele><time>2026-03-28T08:42:42.999Z</time></trkpt><trkpt lat="45.22818637817707" lon="9.598721432905077"><ele>65.0</ele><time>2026-03-28T08:42:43.999Z</time></trkpt><trkpt lat="45.22798649439159" lon="9.598843878878364"><ele>65.0</ele><time>2026-03-28T08:42:44.999Z</time></trkpt><trkpt lat="45.227786324096996" lon="9.598964762353036"><ele>65.0</ele><time>2026-03-28T08:42:45.999Z</time></trkpt><trkpt lat="45.227586088085054" lon="9.599086799071092"><ele>65.0</ele><time>2026-03-28T08:42:46.999Z</time></trkpt><trkpt lat="45.22738594345791" lon="9.599210999312978"><ele>65.0</ele><time>2026-03-28T08:42:47.999Z</time></trkpt><trkpt lat="45.227186729355466" lon="9.599337635185048"><ele>65.0</ele><time>2026-03-28T08:42:48.999Z</time></trkpt><trkpt lat="45.22698715911175" lon="9.599464403880514"><ele>65.0</ele><time>2026-03-28T08:42:49.999Z</time></trkpt><trkpt lat="45.22678747789099" lon="9.599590197537726"><ele>65.0</ele><time>2026-03-28T08:42:50.999Z</time></trkpt><trkpt lat="45.22658815257242" lon="9.59971534165938"><ele>65.0</ele><time>2026-03-28T08:42:51.999Z</time></trkpt><trkpt lat="45.22638713318619" lon="9.599840486777072"><ele>65.0</ele><time>2026-03-28T08:42:52.999Z</time></trkpt><trkpt lat="45.22618659472951" lon="9.599965972297056"><ele>65.0</ele><time>2026-03-28T08:42:53.999Z</time></trkpt><trkpt lat="45.225987610000374" lon="9.600094394334072"><ele>65.0</ele><time>2026-03-28T08:42:55Z</time></trkpt><trkpt lat="45.22578857716175" lon="9.600218353962749"><ele>65.0</ele><time>2026-03-28T08:42:56Z</time></trkpt><trkpt lat="45.22558900831249" lon="9.60034311502952"><ele>64.66666666666667</ele><time>2026-03-28T08:42:57Z</time></trkpt><trkpt lat="45.22538897903097" lon="9.600466171382328"><ele>64.33333333333333</ele><time>2026-03-28T08:42:58Z</time></trkpt><trkpt lat="45.22519004324337" lon="9.60059171707951"><ele>64.0</ele><time>2026-03-28T08:42:59Z</time></trkpt><trkpt lat="45.22498484729724" lon="9.600696216020193"><ele>64.0</ele><time>2026-03-28T08:43:00Z</time></trkpt><trkpt lat="45.22478505450093" lon="9.600819839983837"><ele>64.0</ele><time>2026-03-28T08:43:01Z</time></trkpt><trkpt lat="45.22458506106416" lon="9.600943588076754"><ele>64.0</ele><time>2026-03-28T08:43:02Z</time></trkpt><trkpt lat="45.22439016112862" lon="9.601086849347164"><ele>64.33333333333333</ele><time>2026-03-28T08:43:03Z</time></trkpt><trkpt lat="45.22419092502673" lon="9.601206001742217"><ele>64.66666666666667</ele><time>2026-03-28T08:43:04Z</time></trkpt><trkpt lat="45.223992496836196" lon="9.601330017176707"><ele>65.0</ele><time>2026-03-28T08:43:05Z</time></trkpt><trkpt lat="45.22379506391456" lon="9.601456812299698"><ele>64.33333333333334</ele><time>2026-03-28T08:43:06Z</time></trkpt><trkpt lat="45.2235968425782" lon="9.601584851338378"><ele>63.66666666666667</ele><time>2026-03-28T08:43:07Z</time></trkpt><trkpt lat="45.22339773467189" lon="9.601709660170162"><ele>63.0</ele><time>2026-03-28T08:43:08Z</time></trkpt><trkpt lat="45.22319854522093" lon="9.601834701513178"><ele>63.33333333333333</ele><time>2026-03-28T08:43:09Z</time></trkpt><trkpt lat="45.223000972406716" lon="9.60196198987681"><ele>63.666666666666664</ele><time>2026-03-28T08:43:10Z</time></trkpt><trkpt lat="45.22280264001484" lon="9.602088449250324"><ele>64.0</ele><time>2026-03-28T08:43:11Z</time></trkpt><trkpt lat="45.222599362573625" lon="9.602208201439568"><ele>64.0</ele><time>2026-03-28T08:43:12Z</time></trkpt><trkpt lat="45.22240090364993" lon="9.602333586552218"><ele>64.0</ele><time>2026-03-28T08:43:13Z</time></trkpt><trkpt lat="45.22220269486847" lon="9.602460530610431"><ele>64.0</ele><time>2026-03-28T08:43:14Z</time></trkpt><trkpt lat="45.22200448910411" lon="9.602586002176565"><ele>64.0</ele><time>2026-03-28T08:43:15Z</time></trkpt><trkpt lat="45.22180515891594" lon="9.602707432883085"><ele>64.0</ele><time>2026-03-28T08:43:16Z</time></trkpt><trkpt lat="45.22160629370571" lon="9.602830788411278"><ele>64.0</ele><time>2026-03-28T08:43:17Z</time></trkpt><trkpt lat="45.22140775128892" lon="9.602954107563441"><ele>64.0</ele><time>2026-03-28T08:43:18Z</time></trkpt><trkpt lat="45.221207987298286" lon="9.603078311483824"><ele>64.0</ele><time>2026-03-28T08:43:19Z</time></trkpt><trkpt lat="45.22100894833999" lon="9.603204650160624"><ele>64.0</ele><time>2026-03-28T08:43:20Z</time></trkpt><trkpt lat="45.22081014441344" lon="9.603332925382556"><ele>63.666666666666664</ele><time>2026-03-28T08:43:21Z</time></trkpt><trkpt lat="45.22061029703567" lon="9.603458387990935"><ele>63.33333333333333</ele><time>2026-03-28T08:43:22Z</time></trkpt><trkpt lat="45.22041167196583" lon="9.603585597027227"><ele>63.0</ele><time>2026-03-28T08:43:23Z</time></trkpt><trkpt lat="45.220211575783985" lon="9.603711537697647"><ele>63.0</ele><time>2026-03-28T08:43:24Z</time></trkpt><trkpt lat="45.22001182352968" lon="9.603836475949196"><ele>63.0</ele><time>2026-03-28T08:43:25Z</time></trkpt><trkpt lat="45.21981217885214" lon="9.60396298461563"><ele>63.0</ele><time>2026-03-28T08:43:26Z</time></trkpt><trkpt lat="45.2196120369813" lon="9.604088753880015"><ele>63.33333333333333</ele><time>2026-03-28T08:43:27Z</time></trkpt><trkpt lat="45.21941088963932" lon="9.604213570476324"><ele>63.666666666666664</ele><time>2026-03-28T08:43:28Z</time></trkpt><trkpt lat="45.219211048715" lon="9.604338866623497"><ele>64.0</ele><time>2026-03-28T08:43:29Z</time></trkpt><trkpt lat="45.21901111667163" lon="9.604464026388117"><ele>64.33333333333333</ele><time>2026-03-28T08:43:30Z</time></trkpt><trkpt lat="45.21881120693027" lon="9.604591054847445"><ele>64.66666666666667</ele><time>2026-03-28T08:43:31Z</time></trkpt><trkpt lat="45.21861348499817" lon="9.604714838817348"><ele>65.0</ele><time>2026-03-28T08:43:32Z</time></trkpt><trkpt lat="45.21841390908255" lon="9.604841141702687"><ele>65.0</ele><time>2026-03-28T08:43:33Z</time></trkpt><trkpt lat="45.21821602301376" lon="9.604964536117674"><ele>65.0</ele><time>2026-03-28T08:43:34Z</time></trkpt><trkpt lat="45.21801582405021" lon="9.605088062975398"><ele>65.0</ele><time>2026-03-28T08:43:35Z</time></trkpt><trkpt lat="45.21781527556171" lon="9.605212709285562"><ele>65.0</ele><time>2026-03-28T08:43:36Z</time></trkpt><trkpt lat="45.217616094076085" lon="9.605337438213379"><ele>65.0</ele><time>2026-03-28T08:43:37Z</time></trkpt><trkpt lat="45.21741575721044" lon="9.605463436828373"><ele>65.0</ele><time>2026-03-28T08:43:38Z</time></trkpt><trkpt lat="45.217215663726186" lon="9.605591337636021"><ele>65.0</ele><time>2026-03-28T08:43:39Z</time></trkpt><trkpt lat="45.21701573769127" lon="9.60571976031169"><ele>65.0</ele><time>2026-03-28T08:43:40Z</time></trkpt><trkpt lat="45.21681820823356" lon="9.605848322162716"><ele>65.0</ele><time>2026-03-28T08:43:41Z</time></trkpt><trkpt lat="45.216618427767365" lon="9.60597257580582"><ele>64.66666666666667</ele><time>2026-03-28T08:43:42Z</time></trkpt><trkpt lat="45.216419319513214" lon="9.606097436191934"><ele>64.33333333333333</ele><time>2026-03-28T08:43:43Z</time></trkpt><trkpt lat="45.2162192777559" lon="9.60622167691877"><ele>64.0</ele><time>2026-03-28T08:43:44Z</time></trkpt><trkpt lat="45.21601934781835" lon="9.60634731314347"><ele>64.0</ele><time>2026-03-28T08:43:45Z</time></trkpt><trkpt lat="45.215818949360475" lon="9.606471736306293"><ele>64.0</ele><time>2026-03-28T08:43:46Z</time></trkpt><trkpt lat="45.215619209663636" lon="9.606597453762447"><ele>64.0</ele><time>2026-03-28T08:43:47Z</time></trkpt><trkpt lat="45.21541731988258" lon="9.606722059620028"><ele>64.0</ele><time>2026-03-28T08:43:48Z</time></trkpt><trkpt lat="45.21521873025482" lon="9.60684656532029"><ele>64.0</ele><time>2026-03-28T08:43:49Z</time></trkpt><trkpt lat="45.215018453376835" lon="9.60697374953517"><ele>64.0</ele><time>2026-03-28T08:43:50Z</time></trkpt><trkpt lat="45.214818445015396" lon="9.6071018741383"><ele>64.33333333333333</ele><time>2026-03-28T08:43:51Z</time></trkpt><trkpt lat="45.21461913474613" lon="9.60722750211584"><ele>64.66666666666667</ele><time>2026-03-28T08:43:52Z</time></trkpt><trkpt lat="45.214419151651896" lon="9.607352934319021"><ele>65.0</ele><time>2026-03-28T08:43:52.999Z</time></trkpt><trkpt lat="45.2142211457859" lon="9.607481442184536"><ele>65.0</ele><time>2026-03-28T08:43:53.999Z</time></trkpt><trkpt lat="45.214020503150316" lon="9.60760754624815"><ele>65.0</ele><time>2026-03-28T08:43:54.999Z</time></trkpt><trkpt lat="45.2138192039501" lon="9.607730384919325"><ele>65.0</ele><time>2026-03-28T08:43:55.999Z</time></trkpt><trkpt lat="45.21361847227728" lon="9.607851963841163"><ele>64.33333333333334</ele><time>2026-03-28T08:43:56.999Z</time></trkpt><trkpt lat="45.213417227046186" lon="9.607976362451558"><ele>63.66666666666667</ele><time>2026-03-28T08:43:57.999Z</time></trkpt><trkpt lat="45.21321841983388" lon="9.608102676271697"><ele>63.0</ele><time>2026-03-28T08:43:58.999Z</time></trkpt><trkpt lat="45.21301849142187" lon="9.608228441149146"><ele>63.0</ele><time>2026-03-28T08:43:59.999Z</time></trkpt><trkpt lat="45.212816591823085" lon="9.608351373927238"><ele>63.0</ele><time>2026-03-28T08:44:00.999Z</time></trkpt><trkpt lat="45.21261625823809" lon="9.60847651972518"><ele>63.0</ele><time>2026-03-28T08:44:01.999Z</time></trkpt><trkpt lat="45.21241495974907" lon="9.608602824421089"><ele>63.0</ele><time>2026-03-28T08:44:02.999Z</time></trkpt><trkpt lat="45.212215608125895" lon="9.608728488167822"><ele>63.0</ele><time>2026-03-28T08:44:03.999Z</time></trkpt><trkpt lat="45.21201619211649" lon="9.608854291346903"><ele>63.0</ele><time>2026-03-28T08:44:04.999Z</time></trkpt><trkpt lat="45.211815380104646" lon="9.60898088732042"><ele>63.0</ele><time>2026-03-28T08:44:05.999Z</time></trkpt><trkpt lat="45.21161633562544" lon="9.6091089383498"><ele>63.0</ele><time>2026-03-28T08:44:06.999Z</time></trkpt><trkpt lat="45.211418026444605" lon="9.609234551946289"><ele>63.0</ele><time>2026-03-28T08:44:07.999Z</time></trkpt><trkpt lat="45.21121830638504" lon="9.609360173773128"><ele>63.0</ele><time>2026-03-28T08:44:08.999Z</time></trkpt><trkpt lat="45.211018490255" lon="9.60948496706198"><ele>63.0</ele><time>2026-03-28T08:44:09.999Z</time></trkpt><trkpt lat="45.21082014688059" lon="9.609610027929595"><ele>63.0</ele><time>2026-03-28T08:44:10.999Z</time></trkpt><trkpt lat="45.210622467462684" lon="9.609734812911547"><ele>63.0</ele><time>2026-03-28T08:44:11.999Z</time></trkpt><trkpt lat="45.21042350059438" lon="9.609861533156392"><ele>63.0</ele><time>2026-03-28T08:44:12.999Z</time></trkpt><trkpt lat="45.21022550993427" lon="9.609985329275244"><ele>63.0</ele><time>2026-03-28T08:44:13.999Z</time></trkpt><trkpt lat="45.21002823710724" lon="9.610107151054274"><ele>63.0</ele><time>2026-03-28T08:44:14.999Z</time></trkpt><trkpt lat="45.209828901768226" lon="9.610229608966968"><ele>63.0</ele><time>2026-03-28T08:44:15.999Z</time></trkpt><trkpt lat="45.20962985449835" lon="9.610356343850484"><ele>63.0</ele><time>2026-03-28T08:44:16.999Z</time></trkpt><trkpt lat="45.209432915132574" lon="9.610480172708002"><ele>63.33333333333333</ele><time>2026-03-28T08:44:17.999Z</time></trkpt><trkpt lat="45.209231954387334" lon="9.610599284653718"><ele>63.666666666666664</ele><time>2026-03-28T08:44:18.999Z</time></trkpt><trkpt lat="45.20902688274515" lon="9.610708264882117"><ele>64.0</ele><time>2026-03-28T08:44:19.999Z</time></trkpt><trkpt lat="45.208816056538566" lon="9.610796491838418"><ele>64.33333333333333</ele><time>2026-03-28T08:44:20.999Z</time></trkpt><trkpt lat="45.20859986197857" lon="9.610833529918882"><ele>64.66666666666667</ele><time>2026-03-28T08:44:21.999Z</time></trkpt><trkpt lat="45.20838870286293" lon="9.610890888181412"><ele>65.0</ele><time>2026-03-28T08:44:22.999Z</time></trkpt><trkpt lat="45.20817123025913" lon="9.6109220305061"><ele>64.66666666666667</ele><time>2026-03-28T08:44:23.999Z</time></trkpt><trkpt lat="45.20795475719191" lon="9.610952265606628"><ele>64.33333333333333</ele><time>2026-03-28T08:44:24.999Z</time></trkpt><trkpt lat="45.207737859019865" lon="9.61095849301175"><ele>64.0</ele><time>2026-03-28T08:44:25.999Z</time></trkpt><trkpt lat="45.207518517134666" lon="9.610983385434954"><ele>64.0</ele><time>2026-03-28T08:44:26.999Z</time></trkpt><trkpt lat="45.207299573184144" lon="9.611008556369658"><ele>64.0</ele><time>2026-03-28T08:44:27.999Z</time></trkpt><trkpt lat="45.207078710088915" lon="9.611041300049573"><ele>64.0</ele><time>2026-03-28T08:44:28.999Z</time></trkpt><trkpt lat="45.20686183569727" lon="9.61108374003684"><ele>64.0</ele><time>2026-03-28T08:44:29.999Z</time></trkpt><trkpt lat="45.206653793099605" lon="9.611156761993206"><ele>64.0</ele><time>2026-03-28T08:44:30.999Z</time></trkpt><trkpt lat="45.20646428096793" lon="9.611254981692603"><ele>64.0</ele><time>2026-03-28T08:44:31.999Z</time></trkpt><trkpt lat="45.20629519443558" lon="9.61137317547021"><ele>63.33333333333333</ele><time>2026-03-28T08:44:32.999Z</time></trkpt><trkpt lat="45.20614190587381" lon="9.611501080664391"><ele>62.66666666666667</ele><time>2026-03-28T08:44:33.999Z</time></trkpt><trkpt lat="45.20599250329988" lon="9.61165495660268"><ele>62.0</ele><time>2026-03-28T08:44:34.999Z</time></trkpt><trkpt lat="45.20584607800236" lon="9.611811642905215"><ele>62.0</ele><time>2026-03-28T08:44:35.999Z</time></trkpt><trkpt lat="45.20570031807322" lon="9.611966527999902"><ele>62.0</ele><time>2026-03-28T08:44:36.999Z</time></trkpt><trkpt lat="45.205559399618615" lon="9.612116310549057"><ele>62.0</ele><time>2026-03-28T08:44:37.999Z</time></trkpt><trkpt lat="45.205421432140895" lon="9.61226481491662"><ele>62.66666666666667</ele><time>2026-03-28T08:44:38.999Z</time></trkpt><trkpt lat="45.20528336406105" lon="9.612413428407152"><ele>63.33333333333333</ele><time>2026-03-28T08:44:39.999Z</time></trkpt><trkpt lat="45.20514511938684" lon="9.612562051560056"><ele>64.0</ele><time>2026-03-28T08:44:40.999Z</time></trkpt><trkpt lat="45.20500801237279" lon="9.612709401934508"><ele>63.666666666666664</ele><time>2026-03-28T08:44:41.999Z</time></trkpt><trkpt lat="45.20487199261095" lon="9.612852681326597"><ele>63.33333333333333</ele><time>2026-03-28T08:44:42.999Z</time></trkpt><trkpt lat="45.204736718209" lon="9.612993482934165"><ele>63.0</ele><time>2026-03-28T08:44:43.999Z</time></trkpt><trkpt lat="45.20460081753034" lon="9.613131489870693"><ele>63.0</ele><time>2026-03-28T08:44:44.999Z</time></trkpt><trkpt lat="45.204479988355324" lon="9.613306427688245"><ele>63.0</ele><time>2026-03-28T08:44:45.999Z</time></trkpt><trkpt lat="45.20434722984685" lon="9.613451712310583"><ele>63.0</ele><time>2026-03-28T08:44:46.999Z</time></trkpt><trkpt lat="45.20421426647923" lon="9.613593801470738"><ele>62.66666666666667</ele><time>2026-03-28T08:44:47.999Z</time></trkpt><trkpt lat="45.20408264409336" lon="9.613734131520134"><ele>62.333333333333336</ele><time>2026-03-28T08:44:48.999Z</time></trkpt><trkpt lat="45.20395517543563" lon="9.613868327210598"><ele>62.0</ele><time>2026-03-28T08:44:49.999Z</time></trkpt><trkpt lat="45.20383660643599" lon="9.613994479470428"><ele>62.0</ele><time>2026-03-28T08:44:50.999Z</time></trkpt><trkpt lat="45.203718914306634" lon="9.614122609875842"><ele>62.0</ele><time>2026-03-28T08:44:51.999Z</time></trkpt><trkpt lat="45.20360467961758" lon="9.614237904141078"><ele>62.0</ele><time>2026-03-28T08:44:52.999Z</time></trkpt><trkpt lat="45.203490256942935" lon="9.614359383312118"><ele>62.0</ele><time>2026-03-28T08:44:53.999Z</time></trkpt><trkpt lat="45.203375724254656" lon="9.61448239895129"><ele>62.25</ele><time>2026-03-28T08:44:54.999Z</time></trkpt><trkpt lat="45.203246369220956" lon="9.614574924934066"><ele>62.5</ele><time>2026-03-28T08:44:55.999Z</time></trkpt><trkpt lat="45.20313356920161" lon="9.614694609472094"><ele>62.75</ele><time>2026-03-28T08:44:56.999Z</time></trkpt><trkpt lat="45.20302079204963" lon="9.614814087843166"><ele>63.0</ele><time>2026-03-28T08:44:57.999Z</time></trkpt><trkpt lat="45.20290729215455" lon="9.614933797639655"><ele>63.0</ele><time>2026-03-28T08:44:58.999Z</time></trkpt><trkpt lat="45.20279378503964" lon="9.615052579774252"><ele>63.0</ele><time>2026-03-28T08:44:59.999Z</time></trkpt><trkpt lat="45.202681110991186" lon="9.615170489698594"><ele>63.0</ele><time>2026-03-28T08:45:01Z</time></trkpt><trkpt lat="45.202571381397185" lon="9.615285417786078"><ele>63.0</ele><time>2026-03-28T08:45:02Z</time></trkpt><trkpt lat="45.202464224943064" lon="9.615397631654231"><ele>63.0</ele><time>2026-03-28T08:45:03Z</time></trkpt><trkpt lat="45.202359700274904" lon="9.615507089579424"><ele>63.0</ele><time>2026-03-28T08:45:04Z</time></trkpt><trkpt lat="45.20225697556168" lon="9.615617080948747"><ele>63.0</ele><time>2026-03-28T08:45:05Z</time></trkpt><trkpt lat="45.20215549672939" lon="9.615735217851162"><ele>63.0</ele><time>2026-03-28T08:45:06Z</time></trkpt><trkpt lat="45.20205803347681" lon="9.61585830557023"><ele>63.25</ele><time>2026-03-28T08:45:07Z</time></trkpt><trkpt lat="45.20197246935999" lon="9.615993307105182"><ele>63.5</ele><time>2026-03-28T08:45:08Z</time></trkpt><trkpt lat="45.201905254074724" lon="9.61616006786061"><ele>63.75</ele><time>2026-03-28T08:45:09Z</time></trkpt><trkpt lat="45.20186138669932" lon="9.6163265045682"><ele>64.0</ele><time>2026-03-28T08:45:10Z</time></trkpt><trkpt lat="45.20179061827241" lon="9.616504624602339"><ele>64.0</ele><time>2026-03-28T08:45:11Z</time></trkpt><trkpt lat="45.20174586386583" lon="9.616654332013823"><ele>64.0</ele><time>2026-03-28T08:45:12Z</time></trkpt><trkpt lat="45.201703916713946" lon="9.616793720551062"><ele>64.0</ele><time>2026-03-28T08:45:13Z</time></trkpt><trkpt lat="45.201664240968164" lon="9.616922674906933"><ele>64.0</ele><time>2026-03-28T08:45:14Z</time></trkpt><trkpt lat="45.201631513731456" lon="9.617029045240317"><ele>64.0</ele><time>2026-03-28T08:45:15Z</time></trkpt><trkpt lat="45.201611625499275" lon="9.617151772122943"><ele>64.0</ele><time>2026-03-28T08:45:17Z</time></trkpt><trkpt lat="45.201570902985736" lon="9.617247193019296"><ele>64.0</ele><time>2026-03-28T08:45:43Z</time></trkpt><trkpt lat="45.201520664888285" lon="9.617421368393314"><ele>64.0</ele><time>2026-03-28T08:45:45Z</time></trkpt><trkpt lat="45.2014883528276" lon="9.617533290846211"><ele>64.0</ele><time>2026-03-28T08:45:46Z</time></trkpt><trkpt lat="45.201449325040706" lon="9.617663361578755"><ele>64.0</ele><time>2026-03-28T08:45:47Z</time></trkpt><trkpt lat="45.20140541975352" lon="9.617796377187627"><ele>63.5</ele><time>2026-03-28T08:45:48Z</time></trkpt><trkpt lat="45.20135790435467" lon="9.617942849990683"><ele>63.0</ele><time>2026-03-28T08:45:49Z</time></trkpt><trkpt lat="45.20130928791447" lon="9.618101686087716"><ele>62.5</ele><time>2026-03-28T08:45:50Z</time></trkpt><trkpt lat="45.20125542404834" lon="9.618273310933448"><ele>62.0</ele><time>2026-03-28T08:45:51Z</time></trkpt><trkpt lat="45.20120259162419" lon="9.618454182364786"><ele>62.0</ele><time>2026-03-28T08:45:51.999Z</time></trkpt><trkpt lat="45.20114094006663" lon="9.618645617464926"><ele>62.0</ele><time>2026-03-28T08:45:52.999Z</time></trkpt><trkpt lat="45.201078646238365" lon="9.61884540011057"><ele>62.0</ele><time>2026-03-28T08:45:53.999Z</time></trkpt><trkpt lat="45.20101333959297" lon="9.619046417196"><ele>62.0</ele><time>2026-03-28T08:45:54.999Z</time></trkpt><trkpt lat="45.2009467613777" lon="9.61925640522014"><ele>62.0</ele><time>2026-03-28T08:45:55.999Z</time></trkpt><trkpt lat="45.20087848843013" lon="9.619472766080639"><ele>62.0</ele><time>2026-03-28T08:45:56.999Z</time></trkpt><trkpt lat="45.20080554429854" lon="9.619686942944135"><ele>62.66666666666667</ele><time>2026-03-28T08:45:57.999Z</time></trkpt><trkpt lat="45.20072316075069" lon="9.6198961024532"><ele>63.33333333333333</ele><time>2026-03-28T08:45:58.999Z</time></trkpt><trkpt lat="45.200633104300145" lon="9.620099042814795"><ele>64.0</ele><time>2026-03-28T08:45:59.999Z</time></trkpt><trkpt lat="45.200532068709904" lon="9.62029498676587"><ele>63.33333333333333</ele><time>2026-03-28T08:46:00.999Z</time></trkpt><trkpt lat="45.20042397528542" lon="9.620485761485845"><ele>62.66666666666667</ele><time>2026-03-28T08:46:01.999Z</time></trkpt><trkpt lat="45.20031006930616" lon="9.620668874995015"><ele>62.0</ele><time>2026-03-28T08:46:02.999Z</time></trkpt><trkpt lat="45.20019358357318" lon="9.620844711082384"><ele>62.0</ele><time>2026-03-28T08:46:03.999Z</time></trkpt><trkpt lat="45.20007766233927" lon="9.62101218415746"><ele>62.0</ele><time>2026-03-28T08:46:04.999Z</time></trkpt><trkpt lat="45.19996270945444" lon="9.62117920122148"><ele>62.0</ele><time>2026-03-28T08:46:05.999Z</time></trkpt><trkpt lat="45.19984722227169" lon="9.62135029431329"><ele>61.66666666666667</ele><time>2026-03-28T08:46:06.999Z</time></trkpt><trkpt lat="45.19973064692461" lon="9.621518536408587"><ele>61.33333333333333</ele><time>2026-03-28T08:46:07.999Z</time></trkpt><trkpt lat="45.19961672880409" lon="9.621685917376126"><ele>61.0</ele><time>2026-03-28T08:46:08.999Z</time></trkpt><trkpt lat="45.19950253634432" lon="9.621852100175094"><ele>61.33333333333333</ele><time>2026-03-28T08:46:09.999Z</time></trkpt><trkpt lat="45.199383098434105" lon="9.622013145029038"><ele>61.66666666666667</ele><time>2026-03-28T08:46:10.999Z</time></trkpt><trkpt lat="45.19926577455396" lon="9.622175410635574"><ele>62.0</ele><time>2026-03-28T08:46:11.999Z</time></trkpt><trkpt lat="45.199149696372935" lon="9.622340040278608"><ele>62.0</ele><time>2026-03-28T08:46:12.999Z</time></trkpt><trkpt lat="45.199035602727946" lon="9.622510188653214"><ele>62.0</ele><time>2026-03-28T08:46:13.999Z</time></trkpt><trkpt lat="45.198908462333684" lon="9.622661575443862"><ele>62.0</ele><time>2026-03-28T08:46:14.999Z</time></trkpt><trkpt lat="45.19879202490865" lon="9.622826639394662"><ele>61.333333333333336</ele><time>2026-03-28T08:46:15.999Z</time></trkpt><trkpt lat="45.19867401456729" lon="9.622993218347125"><ele>60.66666666666667</ele><time>2026-03-28T08:46:16.999Z</time></trkpt><trkpt lat="45.1985567602318" lon="9.62315828788014"><ele>60.0</ele><time>2026-03-28T08:46:17.999Z</time></trkpt><trkpt lat="45.19845065524984" lon="9.623339433227576"><ele>60.0</ele><time>2026-03-28T08:46:18.999Z</time></trkpt><trkpt lat="45.19833103175177" lon="9.6235034155933"><ele>60.0</ele><time>2026-03-28T08:46:19.999Z</time></trkpt><trkpt lat="45.198210485042104" lon="9.62366477440121"><ele>60.0</ele><time>2026-03-28T08:46:20.999Z</time></trkpt><trkpt lat="45.19809100397219" lon="9.623830295378175"><ele>60.0</ele><time>2026-03-28T08:46:21.999Z</time></trkpt><trkpt lat="45.19797158827585" lon="9.623995975661401"><ele>60.0</ele><time>2026-03-28T08:46:22.999Z</time></trkpt><trkpt lat="45.19784919408805" lon="9.624157572502899"><ele>60.0</ele><time>2026-03-28T08:46:23.999Z</time></trkpt><trkpt lat="45.19772706589752" lon="9.62431876043291"><ele>60.0</ele><time>2026-03-28T08:46:24.999Z</time></trkpt><trkpt lat="45.19759896527013" lon="9.624470807264686"><ele>60.0</ele><time>2026-03-28T08:46:25.999Z</time></trkpt><trkpt lat="45.197467253485385" lon="9.624615738010451"><ele>60.0</ele><time>2026-03-28T08:46:26.999Z</time></trkpt><trkpt lat="45.197333862760296" lon="9.624756047832692"><ele>60.0</ele><time>2026-03-28T08:46:27.999Z</time></trkpt><trkpt lat="45.19719295694375" lon="9.624895380081467"><ele>60.0</ele><time>2026-03-28T08:46:28.999Z</time></trkpt><trkpt lat="45.19704546206116" lon="9.625029999268389"><ele>60.0</ele><time>2026-03-28T08:46:29.999Z</time></trkpt><trkpt lat="45.19689499761405" lon="9.625162940109766"><ele>60.0</ele><time>2026-03-28T08:46:30.999Z</time></trkpt><trkpt lat="45.19673619896974" lon="9.625292377722783"><ele>60.0</ele><time>2026-03-28T08:46:31.999Z</time></trkpt><trkpt lat="45.19657693023031" lon="9.625419025338584"><ele>60.0</ele><time>2026-03-28T08:46:32.999Z</time></trkpt><trkpt lat="45.19641599831324" lon="9.62554606843505"><ele>60.33333333333333</ele><time>2026-03-28T08:46:33.999Z</time></trkpt><trkpt lat="45.19625640944655" lon="9.62567676977155"><ele>60.666666666666664</ele><time>2026-03-28T08:46:34.999Z</time></trkpt><trkpt lat="45.19609777349658" lon="9.625809292935443"><ele>61.0</ele><time>2026-03-28T08:46:35.999Z</time></trkpt><trkpt lat="45.19593900745536" lon="9.625940336397635"><ele>61.0</ele><time>2026-03-28T08:46:36.999Z</time></trkpt><trkpt lat="45.19577088794816" lon="9.62605426181891"><ele>61.0</ele><time>2026-03-28T08:46:37.999Z</time></trkpt><trkpt lat="45.19561611688972" lon="9.626206204169033"><ele>61.0</ele><time>2026-03-28T08:46:38.999Z</time></trkpt><trkpt lat="45.19545279168564" lon="9.626338065436178"><ele>62.0</ele><time>2026-03-28T08:46:39.999Z</time></trkpt><trkpt lat="45.19529078982501" lon="9.626471691823147"><ele>63.0</ele><time>2026-03-28T08:46:40.999Z</time></trkpt><trkpt lat="45.195128309790576" lon="9.626604108940734"><ele>64.0</ele><time>2026-03-28T08:46:41.999Z</time></trkpt><trkpt lat="45.194965089703295" lon="9.626734817527776"><ele>63.0</ele><time>2026-03-28T08:46:42.999Z</time></trkpt><trkpt lat="45.19480174929822" lon="9.626864342247472"><ele>62.0</ele><time>2026-03-28T08:46:43.999Z</time></trkpt><trkpt lat="45.19464047254634" lon="9.626998581371456"><ele>61.0</ele><time>2026-03-28T08:46:44.999Z</time></trkpt><trkpt lat="45.19447689884678" lon="9.627130449076267"><ele>61.0</ele><time>2026-03-28T08:46:45.999Z</time></trkpt><trkpt lat="45.19431494006844" lon="9.627263702959096"><ele>61.0</ele><time>2026-03-28T08:46:46.999Z</time></trkpt><trkpt lat="45.19415251957836" lon="9.627395860804404"><ele>61.0</ele><time>2026-03-28T08:46:47.999Z</time></trkpt><trkpt lat="45.19398970807096" lon="9.627527220510665"><ele>61.0</ele><time>2026-03-28T08:46:48.999Z</time></trkpt><trkpt lat="45.193827150844754" lon="9.62766161088733"><ele>61.0</ele><time>2026-03-28T08:46:49.999Z</time></trkpt><trkpt lat="45.19366791013697" lon="9.6277987297533"><ele>61.0</ele><time>2026-03-28T08:46:50.999Z</time></trkpt><trkpt lat="45.19350065206123" lon="9.627919826551846"><ele>61.0</ele><time>2026-03-28T08:46:51.999Z</time></trkpt><trkpt lat="45.19334380505145" lon="9.628067661360697"><ele>61.0</ele><time>2026-03-28T08:46:52.999Z</time></trkpt><trkpt lat="45.19319597938666" lon="9.628233751418207"><ele>61.0</ele><time>2026-03-28T08:46:53.999Z</time></trkpt><trkpt lat="45.193057021623815" lon="9.62841282269128"><ele>61.33333333333333</ele><time>2026-03-28T08:46:54.999Z</time></trkpt><trkpt lat="45.192921882230934" lon="9.62859651512708"><ele>61.66666666666667</ele><time>2026-03-28T08:46:55.999Z</time></trkpt><trkpt lat="45.19279070470089" lon="9.628786335948522"><ele>62.0</ele><time>2026-03-28T08:46:56.999Z</time></trkpt><trkpt lat="45.19266094714398" lon="9.628976982144142"><ele>62.0</ele><time>2026-03-28T08:46:57.999Z</time></trkpt><trkpt lat="45.19254319155701" lon="9.629183649535134"><ele>62.0</ele><time>2026-03-28T08:46:58.999Z</time></trkpt><trkpt lat="45.19241251639814" lon="9.629372976123962"><ele>62.0</ele><time>2026-03-28T08:46:59.999Z</time></trkpt><trkpt lat="45.19228285622196" lon="9.62956520957486"><ele>62.0</ele><time>2026-03-28T08:47:00.999Z</time></trkpt><trkpt lat="45.19215322975709" lon="9.62975704359994"><ele>62.0</ele><time>2026-03-28T08:47:01.999Z</time></trkpt><trkpt lat="45.1920230959118" lon="9.629945757746514"><ele>62.0</ele><time>2026-03-28T08:47:02.999Z</time></trkpt><trkpt lat="45.191892258104055" lon="9.630136255930182"><ele>62.66666666666667</ele><time>2026-03-28T08:47:03.999Z</time></trkpt><trkpt lat="45.19176201470574" lon="9.630327689790976"><ele>63.33333333333333</ele><time>2026-03-28T08:47:04.999Z</time></trkpt><trkpt lat="45.19163250200608" lon="9.630517964022353"><ele>64.0</ele><time>2026-03-28T08:47:05.999Z</time></trkpt><trkpt lat="45.19150231355218" lon="9.630707268923857"><ele>64.0</ele><time>2026-03-28T08:47:07Z</time></trkpt><trkpt lat="45.19137222436257" lon="9.63089738707373"><ele>64.0</ele><time>2026-03-28T08:47:08Z</time></trkpt><trkpt lat="45.191243497164244" lon="9.631089293771248"><ele>64.0</ele><time>2026-03-28T08:47:09Z</time></trkpt><trkpt lat="45.19111847254611" lon="9.631284552534392"><ele>63.666666666666664</ele><time>2026-03-28T08:47:10Z</time></trkpt><trkpt lat="45.19099162950322" lon="9.631479547000172"><ele>63.33333333333333</ele><time>2026-03-28T08:47:11Z</time></trkpt><trkpt lat="45.19086858908364" lon="9.631678271693614"><ele>63.0</ele><time>2026-03-28T08:47:12Z</time></trkpt><trkpt lat="45.19074802601238" lon="9.631884264139877"><ele>64.0</ele><time>2026-03-28T08:47:13Z</time></trkpt><trkpt lat="45.19063491947438" lon="9.63209365899776"><ele>65.0</ele><time>2026-03-28T08:47:14Z</time></trkpt><trkpt lat="45.19052567696876" lon="9.632308373865252"><ele>66.0</ele><time>2026-03-28T08:47:15Z</time></trkpt><trkpt lat="45.190420340322255" lon="9.63252791611235"><ele>66.0</ele><time>2026-03-28T08:47:16Z</time></trkpt><trkpt lat="45.190317867335644" lon="9.632750511658058"><ele>66.0</ele><time>2026-03-28T08:47:17Z</time></trkpt><trkpt lat="45.19021891684158" lon="9.632976148174603"><ele>66.0</ele><time>2026-03-28T08:47:18Z</time></trkpt><trkpt lat="45.1901244731089" lon="9.633204346157632"><ele>65.66666666666667</ele><time>2026-03-28T08:47:19Z</time></trkpt><trkpt lat="45.19003429714235" lon="9.63343639966213"><ele>65.33333333333334</ele><time>2026-03-28T08:47:20Z</time></trkpt><trkpt lat="45.18994772914681" lon="9.633670969878871"><ele>65.0</ele><time>2026-03-28T08:47:21Z</time></trkpt><trkpt lat="45.189866235164615" lon="9.633908930191932"><ele>65.33333333333334</ele><time>2026-03-28T08:47:22Z</time></trkpt><trkpt lat="45.18978563736726" lon="9.634148293587952"><ele>65.66666666666667</ele><time>2026-03-28T08:47:23Z</time></trkpt><trkpt lat="45.18970775734888" lon="9.634388756112767"><ele>66.0</ele><time>2026-03-28T08:47:24Z</time></trkpt><trkpt lat="45.18963426865922" lon="9.634630214034027"><ele>66.0</ele><time>2026-03-28T08:47:25Z</time></trkpt><trkpt lat="45.18954232165784" lon="9.63486118734594"><ele>66.0</ele><time>2026-03-28T08:47:26Z</time></trkpt><trkpt lat="45.18946200825518" lon="9.635101721601075"><ele>66.0</ele><time>2026-03-28T08:47:27Z</time></trkpt><trkpt lat="45.18938291877413" lon="9.63534162189574"><ele>64.33333333333333</ele><time>2026-03-28T08:47:28Z</time></trkpt><trkpt lat="45.18930677054787" lon="9.635583140060886"><ele>62.666666666666664</ele><time>2026-03-28T08:47:29Z</time></trkpt><trkpt lat="45.18923143865421" lon="9.635825870952704"><ele>61.0</ele><time>2026-03-28T08:47:30Z</time></trkpt><trkpt lat="45.189156594392074" lon="9.636067030624945"><ele>60.0</ele><time>2026-03-28T08:47:31Z</time></trkpt><trkpt lat="45.18908720619537" lon="9.636317345682325"><ele>59.0</ele><time>2026-03-28T08:47:32Z</time></trkpt><trkpt lat="45.189022139475675" lon="9.63656773167033"><ele>58.0</ele><time>2026-03-28T08:47:33Z</time></trkpt><trkpt lat="45.18897558747213" lon="9.636825285422535"><ele>58.0</ele><time>2026-03-28T08:47:34Z</time></trkpt><trkpt lat="45.18891893311741" lon="9.637076972337718"><ele>58.0</ele><time>2026-03-28T08:47:35Z</time></trkpt><trkpt lat="45.18886156069781" lon="9.637330971960365"><ele>58.0</ele><time>2026-03-28T08:47:36Z</time></trkpt><trkpt lat="45.18880048851724" lon="9.637580840342375"><ele>58.33333333333333</ele><time>2026-03-28T08:47:37Z</time></trkpt><trkpt lat="45.18873981696106" lon="9.63783007795715"><ele>58.66666666666667</ele><time>2026-03-28T08:47:38Z</time></trkpt><trkpt lat="45.18868318709472" lon="9.63808168718019"><ele>59.0</ele><time>2026-03-28T08:47:39Z</time></trkpt><trkpt lat="45.18862514240751" lon="9.638334151346886"><ele>59.0</ele><time>2026-03-28T08:47:40Z</time></trkpt><trkpt lat="45.188565995960175" lon="9.638585649916626"><ele>59.0</ele><time>2026-03-28T08:47:41Z</time></trkpt><trkpt lat="45.18850918743112" lon="9.638836797376994"><ele>59.0</ele><time>2026-03-28T08:47:42Z</time></trkpt><trkpt lat="45.1884529985394" lon="9.639087853983291"><ele>60.333333333333336</ele><time>2026-03-28T08:47:43Z</time></trkpt><trkpt lat="45.18839663101137" lon="9.639341377560125"><ele>61.66666666666667</ele><time>2026-03-28T08:47:44Z</time></trkpt><trkpt lat="45.18833895154338" lon="9.639596226693664"><ele>63.0</ele><time>2026-03-28T08:47:45Z</time></trkpt><trkpt lat="45.18827994621934" lon="9.639853640817561"><ele>64.0</ele><time>2026-03-28T08:47:46Z</time></trkpt><trkpt lat="45.18822076918875" lon="9.640108978039715"><ele>65.0</ele><time>2026-03-28T08:47:47Z</time></trkpt><trkpt lat="45.18816390790433" lon="9.640364617549722"><ele>66.0</ele><time>2026-03-28T08:47:48Z</time></trkpt><trkpt lat="45.18810803779674" lon="9.640621302145195"><ele>64.66666666666667</ele><time>2026-03-28T08:47:49Z</time></trkpt><trkpt lat="45.18805228386221" lon="9.640876871055118"><ele>63.333333333333336</ele><time>2026-03-28T08:47:50Z</time></trkpt><trkpt lat="45.187994354140436" lon="9.641132754805588"><ele>62.0</ele><time>2026-03-28T08:47:51Z</time></trkpt><trkpt lat="45.18792994931651" lon="9.641384997658598"><ele>62.0</ele><time>2026-03-28T08:47:52Z</time></trkpt><trkpt lat="45.18785587398558" lon="9.641633423921583"><ele>62.0</ele><time>2026-03-28T08:47:53Z</time></trkpt><trkpt lat="45.187768909711416" lon="9.641873704684297"><ele>62.0</ele><time>2026-03-28T08:47:54Z</time></trkpt><trkpt lat="45.187673421474514" lon="9.642106293249341"><ele>62.333333333333336</ele><time>2026-03-28T08:47:55Z</time></trkpt><trkpt lat="45.18756784377306" lon="9.642329666471328"><ele>62.66666666666667</ele><time>2026-03-28T08:47:56Z</time></trkpt><trkpt lat="45.187451407762104" lon="9.642542214414732"><ele>63.0</ele><time>2026-03-28T08:47:56.999Z</time></trkpt><trkpt lat="45.18732760636142" lon="9.642747589618958"><ele>63.66666666666667</ele><time>2026-03-28T08:47:57.999Z</time></trkpt><trkpt lat="45.187198144918234" lon="9.642944663510178"><ele>64.33333333333334</ele><time>2026-03-28T08:47:58.999Z</time></trkpt><trkpt lat="45.18705566888084" lon="9.6431255184159"><ele>65.0</ele><time>2026-03-28T08:47:59.999Z</time></trkpt><trkpt lat="45.186923929423116" lon="9.643321513773078"><ele>65.0</ele><time>2026-03-28T08:48:00.999Z</time></trkpt><trkpt lat="45.18679095847303" lon="9.643519594069938"><ele>65.0</ele><time>2026-03-28T08:48:01.999Z</time></trkpt><trkpt lat="45.18665693754231" lon="9.643719825303453"><ele>65.0</ele><time>2026-03-28T08:48:02.999Z</time></trkpt><trkpt lat="45.186522390401095" lon="9.643919876123409"><ele>63.66666666666667</ele><time>2026-03-28T08:48:03.999Z</time></trkpt><trkpt lat="45.186387384362675" lon="9.644120194021284"><ele>62.33333333333333</ele><time>2026-03-28T08:48:04.999Z</time></trkpt><trkpt lat="45.18625499605075" lon="9.644316627810962"><ele>61.0</ele><time>2026-03-28T08:48:05.999Z</time></trkpt><trkpt lat="45.18612967819954" lon="9.644502570666347"><ele>61.0</ele><time>2026-03-28T08:48:06.999Z</time></trkpt><trkpt lat="45.186009126246375" lon="9.644681442030727"><ele>61.0</ele><time>2026-03-28T08:48:07.999Z</time></trkpt><trkpt lat="45.18589306878636" lon="9.644854258552009"><ele>61.0</ele><time>2026-03-28T08:48:08.999Z</time></trkpt><trkpt lat="45.185777403718184" lon="9.645028871218889"><ele>61.0</ele><time>2026-03-28T08:48:09.999Z</time></trkpt><trkpt lat="45.18567271246209" lon="9.645219998237046"><ele>61.0</ele><time>2026-03-28T08:48:10.999Z</time></trkpt><trkpt lat="45.18554467111088" lon="9.645380158934513"><ele>61.0</ele><time>2026-03-28T08:48:11.999Z</time></trkpt><trkpt lat="45.18543348705433" lon="9.64554618052701"><ele>61.0</ele><time>2026-03-28T08:48:12.999Z</time></trkpt><trkpt lat="45.18532728003688" lon="9.645704550319401"><ele>61.0</ele><time>2026-03-28T08:48:13.999Z</time></trkpt><trkpt lat="45.18522275330318" lon="9.645860414583739"><ele>61.0</ele><time>2026-03-28T08:48:14.999Z</time></trkpt><trkpt lat="45.18512181452713" lon="9.646011072549687"><ele>60.666666666666664</ele><time>2026-03-28T08:48:15.999Z</time></trkpt><trkpt lat="45.185021120598506" lon="9.646161918353691"><ele>60.33333333333333</ele><time>2026-03-28T08:48:16.999Z</time></trkpt><trkpt lat="45.18491780079455" lon="9.646316697878532"><ele>60.0</ele><time>2026-03-28T08:48:17.999Z</time></trkpt><trkpt lat="45.1848126643643" lon="9.646474198810537"><ele>61.0</ele><time>2026-03-28T08:48:18.999Z</time></trkpt><trkpt lat="45.18470563008333" lon="9.646634542839477"><ele>62.0</ele><time>2026-03-28T08:48:19.999Z</time></trkpt><trkpt lat="45.18459782758265" lon="9.646798103827464"><ele>63.0</ele><time>2026-03-28T08:48:20.999Z</time></trkpt><trkpt lat="45.184490883350904" lon="9.646959167853069"><ele>62.75</ele><time>2026-03-28T08:48:21.999Z</time></trkpt><trkpt lat="45.18438344379239" lon="9.647120743050731"><ele>62.5</ele><time>2026-03-28T08:48:22.999Z</time></trkpt><trkpt lat="45.18427884418048" lon="9.647275716755576"><ele>62.25</ele><time>2026-03-28T08:48:23.999Z</time></trkpt><trkpt lat="45.184185970499804" lon="9.647420584500553"><ele>62.0</ele><time>2026-03-28T08:48:24.999Z</time></trkpt><trkpt lat="45.18411561837765" lon="9.6475660132745"><ele>62.0</ele><time>2026-03-28T08:48:25.999Z</time></trkpt><trkpt lat="45.18402189809613" lon="9.647634099728272"><ele>62.0</ele><time>2026-03-28T08:48:26.999Z</time></trkpt><trkpt lat="45.183928722329" lon="9.647673061605335"><ele>62.0</ele><time>2026-03-28T08:48:27.999Z</time></trkpt><trkpt lat="45.183860804258806" lon="9.647743149098792"><ele>62.0</ele><time>2026-03-28T08:48:28.999Z</time></trkpt><trkpt lat="45.18380632471513" lon="9.647870402646571"><ele>62.0</ele><time>2026-03-28T08:48:29.999Z</time></trkpt><trkpt lat="45.18373966550031" lon="9.647998197230947"><ele>62.0</ele><time>2026-03-28T08:48:30.999Z</time></trkpt><trkpt lat="45.18366119096474" lon="9.648106596148608"><ele>62.0</ele><time>2026-03-28T08:48:31.999Z</time></trkpt><trkpt lat="45.183583541339246" lon="9.648204257509533"><ele>62.0</ele><time>2026-03-28T08:48:32.999Z</time></trkpt><trkpt lat="45.18349938968221" lon="9.64830810257069"><ele>62.0</ele><time>2026-03-28T08:48:33.999Z</time></trkpt><trkpt lat="45.18339136051824" lon="9.648389163451684"><ele>62.0</ele><time>2026-03-28T08:48:34.999Z</time></trkpt><trkpt lat="45.183286939129225" lon="9.64849963019623"><ele>62.0</ele><time>2026-03-28T08:48:35.999Z</time></trkpt><trkpt lat="45.183179427050696" lon="9.648614062966905"><ele>62.0</ele><time>2026-03-28T08:48:36.999Z</time></trkpt><trkpt lat="45.18307014690649" lon="9.648730377759295"><ele>62.0</ele><time>2026-03-28T08:48:37.999Z</time></trkpt><trkpt lat="45.182959849163126" lon="9.648845933003734"><ele>62.0</ele><time>2026-03-28T08:48:38.999Z</time></trkpt><trkpt lat="45.18285135460865" lon="9.648960091039337"><ele>62.25</ele><time>2026-03-28T08:48:39.999Z</time></trkpt><trkpt lat="45.18274259756724" lon="9.649075085185183"><ele>62.5</ele><time>2026-03-28T08:48:40.999Z</time></trkpt><trkpt lat="45.182633076017346" lon="9.649191021732062"><ele>62.75</ele><time>2026-03-28T08:48:41.999Z</time></trkpt><trkpt lat="45.18252830629347" lon="9.649301802436824"><ele>63.0</ele><time>2026-03-28T08:48:42.999Z</time></trkpt><trkpt lat="45.18242316492984" lon="9.649412976111567"><ele>63.0</ele><time>2026-03-28T08:48:43.999Z</time></trkpt><trkpt lat="45.18231883682092" lon="9.6495232898713"><ele>63.0</ele><time>2026-03-28T08:48:44.999Z</time></trkpt><trkpt lat="45.18221792027538" lon="9.649629996332683"><ele>63.0</ele><time>2026-03-28T08:48:45.999Z</time></trkpt><trkpt lat="45.18212966954092" lon="9.649752199913202"><ele>63.0</ele><time>2026-03-28T08:48:46.999Z</time></trkpt><trkpt lat="45.18203173686904" lon="9.649846826650698"><ele>63.0</ele><time>2026-03-28T08:48:47.999Z</time></trkpt><trkpt lat="45.181939229320236" lon="9.649937948345856"><ele>63.0</ele><time>2026-03-28T08:48:48.999Z</time></trkpt><trkpt lat="45.18184905494458" lon="9.650023921201964"><ele>63.0</ele><time>2026-03-28T08:48:49.999Z</time></trkpt><trkpt lat="45.181758755684974" lon="9.65012001861945"><ele>63.0</ele><time>2026-03-28T08:48:50.999Z</time></trkpt><trkpt lat="45.18166835503233" lon="9.650216249385501"><ele>63.0</ele><time>2026-03-28T08:48:51.999Z</time></trkpt><trkpt lat="45.18158746000323" lon="9.650300676957137"><ele>63.2</ele><time>2026-03-28T08:48:52.999Z</time></trkpt><trkpt lat="45.18151579983364" lon="9.65037826928881"><ele>63.4</ele><time>2026-03-28T08:48:53.999Z</time></trkpt><trkpt lat="45.181452190116325" lon="9.650443441195725"><ele>63.60000000000001</ele><time>2026-03-28T08:48:54.999Z</time></trkpt><trkpt lat="45.18140297693384" lon="9.650503156299607"><ele>63.800000000000004</ele><time>2026-03-28T08:48:55.999Z</time></trkpt><trkpt lat="45.1813135096126" lon="9.650601533067746"><ele>64.0</ele><time>2026-03-28T08:48:57.999Z</time></trkpt><trkpt lat="45.18123213711467" lon="9.650698145908247"><ele>64.0</ele><time>2026-03-28T08:48:59.999Z</time></trkpt><trkpt lat="45.18116871034117" lon="9.650777031453723"><ele>64.0</ele><time>2026-03-28T08:49:00.999Z</time></trkpt><trkpt lat="45.18109335951582" lon="9.6508658347955"><ele>64.0</ele><time>2026-03-28T08:49:01.999Z</time></trkpt><trkpt lat="45.18100286117571" lon="9.650962426005869"><ele>64.0</ele><time>2026-03-28T08:49:02.999Z</time></trkpt><trkpt lat="45.18090417702021" lon="9.651059198882153"><ele>64.0</ele><time>2026-03-28T08:49:03.999Z</time></trkpt><trkpt lat="45.18080906589611" lon="9.65115147814643"><ele>64.25</ele><time>2026-03-28T08:49:04.999Z</time></trkpt><trkpt lat="45.180715274853775" lon="9.651249289240704"><ele>64.5</ele><time>2026-03-28T08:49:05.999Z</time></trkpt><trkpt lat="45.18062155752987" lon="9.651349498529758"><ele>64.75</ele><time>2026-03-28T08:49:06.999Z</time></trkpt><trkpt lat="45.180526981976875" lon="9.651449399315581"><ele>65.0</ele><time>2026-03-28T08:49:07.999Z</time></trkpt><trkpt lat="45.18043228351354" lon="9.651550304415577"><ele>65.25</ele><time>2026-03-28T08:49:08.999Z</time></trkpt><trkpt lat="45.180338938845566" lon="9.651650671653503"><ele>65.5</ele><time>2026-03-28T08:49:09.999Z</time></trkpt><trkpt lat="45.18024547301459" lon="9.651749517060317"><ele>65.75</ele><time>2026-03-28T08:49:10.999Z</time></trkpt><trkpt lat="45.18015363917338" lon="9.651847976442747"><ele>66.0</ele><time>2026-03-28T08:49:11.999Z</time></trkpt><trkpt lat="45.180065934721995" lon="9.651941244532082"><ele>66.16666666666667</ele><time>2026-03-28T08:49:13Z</time></trkpt><trkpt lat="45.179984295565205" lon="9.652023962816317"><ele>66.33333333333333</ele><time>2026-03-28T08:49:14Z</time></trkpt><trkpt lat="45.179910699971295" lon="9.652093869309654"><ele>66.5</ele><time>2026-03-28T08:49:15Z</time></trkpt><trkpt lat="45.17984619200361" lon="9.652145923045964"><ele>66.66666666666666</ele><time>2026-03-28T08:49:16Z</time></trkpt><trkpt lat="45.17978595377463" lon="9.65218134577338"><ele>66.83333333333333</ele><time>2026-03-28T08:49:17Z</time></trkpt><trkpt lat="45.17968780897052" lon="9.652230201302697"><ele>67.0</ele><time>2026-03-28T08:49:19Z</time></trkpt><trkpt lat="45.1795642137661" lon="9.652258744892885"><ele>66.5</ele><time>2026-03-28T08:49:21Z</time></trkpt><trkpt lat="45.179494937395745" lon="9.652273288695781"><ele>66.0</ele><time>2026-03-28T08:49:22Z</time></trkpt><trkpt lat="45.17943645049846" lon="9.652306745260274"><ele>65.5</ele><time>2026-03-28T08:49:23Z</time></trkpt><trkpt lat="45.17937231129639" lon="9.65229318349288"><ele>65.0</ele><time>2026-03-28T08:49:24Z</time></trkpt><trkpt lat="45.179268371403374" lon="9.65233079158849"><ele>64.5</ele><time>2026-03-28T08:49:26Z</time></trkpt><trkpt lat="45.1792045338244" lon="9.652338592371187"><ele>64.0</ele><time>2026-03-28T08:49:28Z</time></trkpt><trkpt lat="45.179078521486566" lon="9.652332290982923"><ele>64.0</ele><time>2026-03-28T08:49:53Z</time></trkpt><trkpt lat="45.1789960475379" lon="9.652358037055137"><ele>64.0</ele><time>2026-03-28T08:49:54Z</time></trkpt><trkpt lat="45.1789007798757" lon="9.652404680526791"><ele>64.0</ele><time>2026-03-28T08:49:55Z</time></trkpt><trkpt lat="45.17879701605866" lon="9.65249054415376"><ele>64.0</ele><time>2026-03-28T08:49:56Z</time></trkpt><trkpt lat="45.178689428752925" lon="9.652594659064928"><ele>64.0</ele><time>2026-03-28T08:49:57Z</time></trkpt><trkpt lat="45.17857186206228" lon="9.652710967354395"><ele>64.0</ele><time>2026-03-28T08:49:58Z</time></trkpt><trkpt lat="45.17845501449973" lon="9.65282480423742"><ele>64.0</ele><time>2026-03-28T08:49:59Z</time></trkpt><trkpt lat="45.17833934485025" lon="9.652933867568104"><ele>64.0</ele><time>2026-03-28T08:50:00Z</time></trkpt><trkpt lat="45.178227188118186" lon="9.653045520452727"><ele>64.0</ele><time>2026-03-28T08:50:01Z</time></trkpt><trkpt lat="45.17811722228744" lon="9.653158439403706"><ele>63.5</ele><time>2026-03-28T08:50:02Z</time></trkpt><trkpt lat="45.17800553126085" lon="9.653267021458324"><ele>63.0</ele><time>2026-03-28T08:50:03Z</time></trkpt><trkpt lat="45.177899826018695" lon="9.65338046429808"><ele>62.5</ele><time>2026-03-28T08:50:04Z</time></trkpt><trkpt lat="45.17779431002618" lon="9.65349400620198"><ele>62.0</ele><time>2026-03-28T08:50:05Z</time></trkpt><trkpt lat="45.17769064554575" lon="9.653605816834254"><ele>62.0</ele><time>2026-03-28T08:50:06Z</time></trkpt><trkpt lat="45.17758809359934" lon="9.653713028613343"><ele>62.0</ele><time>2026-03-28T08:50:06.999Z</time></trkpt><trkpt lat="45.17748671096308" lon="9.653821245166295"><ele>62.0</ele><time>2026-03-28T08:50:07.999Z</time></trkpt><trkpt lat="45.17738867676053" lon="9.653928339083604"><ele>62.0</ele><time>2026-03-28T08:50:08.999Z</time></trkpt><trkpt lat="45.17729204968584" lon="9.654034596547758"><ele>61.5</ele><time>2026-03-28T08:50:09.999Z</time></trkpt><trkpt lat="45.17719639529238" lon="9.654137313366473"><ele>61.0</ele><time>2026-03-28T08:50:10.999Z</time></trkpt><trkpt lat="45.177103116749976" lon="9.654240828760411"><ele>60.5</ele><time>2026-03-28T08:50:11.999Z</time></trkpt><trkpt lat="45.177012565264974" lon="9.654344863263542"><ele>60.0</ele><time>2026-03-28T08:50:12.999Z</time></trkpt><trkpt lat="45.17691957682985" lon="9.654446817943535"><ele>60.25</ele><time>2026-03-28T08:50:13.999Z</time></trkpt><trkpt lat="45.17682832292994" lon="9.654550343539032"><ele>60.5</ele><time>2026-03-28T08:50:14.999Z</time></trkpt><trkpt lat="45.17673764891641" lon="9.654654397547763"><ele>60.75</ele><time>2026-03-28T08:50:15.999Z</time></trkpt><trkpt lat="45.17664631585619" lon="9.654759058642425"><ele>61.0</ele><time>2026-03-28T08:50:16.999Z</time></trkpt><trkpt lat="45.17655349409188" lon="9.654861307334095"><ele>61.0</ele><time>2026-03-28T08:50:17.999Z</time></trkpt><trkpt lat="45.17645600666516" lon="9.654957204485013"><ele>61.0</ele><time>2026-03-28T08:50:18.999Z</time></trkpt><trkpt lat="45.17635639180895" lon="9.655046061320007"><ele>61.0</ele><time>2026-03-28T08:50:19.999Z</time></trkpt><trkpt lat="45.17625698296822" lon="9.655125393202791"><ele>61.0</ele><time>2026-03-28T08:50:20.999Z</time></trkpt><trkpt lat="45.17615721502109" lon="9.655195405737249"><ele>61.0</ele><time>2026-03-28T08:50:21.999Z</time></trkpt><trkpt lat="45.17605166991309" lon="9.655243279715217"><ele>60.99999999999999</ele><time>2026-03-28T08:50:22.999Z</time></trkpt><trkpt lat="45.17595032848201" lon="9.655258492438707"><ele>60.99999999999999</ele><time>2026-03-28T08:50:23.999Z</time></trkpt><trkpt lat="45.175860199843655" lon="9.655266637271543"><ele>61.0</ele><time>2026-03-28T08:50:24.999Z</time></trkpt><trkpt lat="45.175773926946164" lon="9.655297061770101"><ele>61.0</ele><time>2026-03-28T08:50:25.999Z</time></trkpt><trkpt lat="45.175706369271566" lon="9.655360070963306"><ele>61.4</ele><time>2026-03-28T08:50:26.999Z</time></trkpt><trkpt lat="45.175651682334966" lon="9.655457297242926"><ele>61.8</ele><time>2026-03-28T08:50:27.999Z</time></trkpt><trkpt lat="45.17560011540634" lon="9.655578799394146"><ele>62.199999999999996</ele><time>2026-03-28T08:50:28.999Z</time></trkpt><trkpt lat="45.175525896650896" lon="9.655707967928556"><ele>62.599999999999994</ele><time>2026-03-28T08:50:29.999Z</time></trkpt><trkpt lat="45.17541569813553" lon="9.655818180585829"><ele>63.0</ele><time>2026-03-28T08:50:30.999Z</time></trkpt><trkpt lat="45.17531349804941" lon="9.655936503380573"><ele>63.0</ele><time>2026-03-28T08:50:31.999Z</time></trkpt><trkpt lat="45.17517334684837" lon="9.656008458059292"><ele>63.0</ele><time>2026-03-28T08:50:32.999Z</time></trkpt><trkpt lat="45.175054785105644" lon="9.656103318437138"><ele>63.0</ele><time>2026-03-28T08:50:33.999Z</time></trkpt><trkpt lat="45.17493478375601" lon="9.656191948019565"><ele>63.0</ele><time>2026-03-28T08:50:34.999Z</time></trkpt><trkpt lat="45.17482430234917" lon="9.656269632571005"><ele>62.0</ele><time>2026-03-28T08:50:35.999Z</time></trkpt><trkpt lat="45.17472034935112" lon="9.656334049620343"><ele>61.0</ele><time>2026-03-28T08:50:36.999Z</time></trkpt><trkpt lat="45.17461008445252" lon="9.656389032861384"><ele>60.0</ele><time>2026-03-28T08:50:37.999Z</time></trkpt><trkpt lat="45.174489568508186" lon="9.656428467424448"><ele>59.0</ele><time>2026-03-28T08:50:38.999Z</time></trkpt><trkpt lat="45.174367487267396" lon="9.656468664787011"><ele>59.0</ele><time>2026-03-28T08:50:39.999Z</time></trkpt><trkpt lat="45.17425930111918" lon="9.656542353591076"><ele>59.0</ele><time>2026-03-28T08:50:40.999Z</time></trkpt><trkpt lat="45.17417034187388" lon="9.65665519702185"><ele>59.0</ele><time>2026-03-28T08:50:41.999Z</time></trkpt><trkpt lat="45.17408840683578" lon="9.656788923652135"><ele>59.0</ele><time>2026-03-28T08:50:42.999Z</time></trkpt><trkpt lat="45.17399338327666" lon="9.656905265391726"><ele>59.0</ele><time>2026-03-28T08:50:43.999Z</time></trkpt><trkpt lat="45.173882792176215" lon="9.65700700673021"><ele>59.0</ele><time>2026-03-28T08:50:44.999Z</time></trkpt><trkpt lat="45.17376536396439" lon="9.657106641083937"><ele>59.0</ele><time>2026-03-28T08:50:45.999Z</time></trkpt><trkpt lat="45.17363334808857" lon="9.657183972915966"><ele>59.0</ele><time>2026-03-28T08:50:46.999Z</time></trkpt><trkpt lat="45.173514238680184" lon="9.65730942927107"><ele>59.0</ele><time>2026-03-28T08:50:47.999Z</time></trkpt><trkpt lat="45.173383936226365" lon="9.657411360881499"><ele>59.0</ele><time>2026-03-28T08:50:48.999Z</time></trkpt><trkpt lat="45.17325013650925" lon="9.657517675328839"><ele>59.0</ele><time>2026-03-28T08:50:49.999Z</time></trkpt><trkpt lat="45.17311356835958" lon="9.657630857582639"><ele>58.66666666666667</ele><time>2026-03-28T08:50:50.999Z</time></trkpt><trkpt lat="45.17297479144694" lon="9.657739089852326"><ele>58.33333333333333</ele><time>2026-03-28T08:50:51.999Z</time></trkpt><trkpt lat="45.17283414655491" lon="9.65784184951147"><ele>58.0</ele><time>2026-03-28T08:50:52.999Z</time></trkpt><trkpt lat="45.172692340720005" lon="9.657936396514042"><ele>58.0</ele><time>2026-03-28T08:50:53.999Z</time></trkpt><trkpt lat="45.17255197947616" lon="9.658031790445127"><ele>58.0</ele><time>2026-03-28T08:50:54.999Z</time></trkpt><trkpt lat="45.17241045995833" lon="9.658127439067822"><ele>58.0</ele><time>2026-03-28T08:50:55.999Z</time></trkpt><trkpt lat="45.172266706462324" lon="9.658221584892921"><ele>58.0</ele><time>2026-03-28T08:50:56.999Z</time></trkpt><trkpt lat="45.17212417537818" lon="9.658317173895412"><ele>58.0</ele><time>2026-03-28T08:50:57.999Z</time></trkpt><trkpt lat="45.171980769809096" lon="9.65841324576092"><ele>58.0</ele><time>2026-03-28T08:50:58.999Z</time></trkpt><trkpt lat="45.17184110870495" lon="9.6585070318821"><ele>58.0</ele><time>2026-03-28T08:50:59.999Z</time></trkpt><trkpt lat="45.1717036430641" lon="9.65859743267761"><ele>58.0</ele><time>2026-03-28T08:51:00.999Z</time></trkpt><trkpt lat="45.17157285208411" lon="9.658684487454074"><ele>58.0</ele><time>2026-03-28T08:51:01.999Z</time></trkpt><trkpt lat="45.171449987200795" lon="9.658763109258162"><ele>58.0</ele><time>2026-03-28T08:51:02.999Z</time></trkpt><trkpt lat="45.171334635491185" lon="9.658832005160379"><ele>57.75</ele><time>2026-03-28T08:51:03.999Z</time></trkpt><trkpt lat="45.17121590453027" lon="9.658900626995143"><ele>57.5</ele><time>2026-03-28T08:51:04.999Z</time></trkpt><trkpt lat="45.17108847720116" lon="9.658973026318762"><ele>57.25</ele><time>2026-03-28T08:51:05.999Z</time></trkpt><trkpt lat="45.17095242719974" lon="9.659043556120391"><ele>57.0</ele><time>2026-03-28T08:51:06.999Z</time></trkpt><trkpt lat="45.170806820704314" lon="9.659109878497711"><ele>57.33333333333333</ele><time>2026-03-28T08:51:07.999Z</time></trkpt><trkpt lat="45.17065434719208" lon="9.6591700381544"><ele>57.666666666666664</ele><time>2026-03-28T08:51:08.999Z</time></trkpt><trkpt lat="45.170489192940195" lon="9.659224390418258"><ele>58.0</ele><time>2026-03-28T08:51:09.999Z</time></trkpt><trkpt lat="45.17030810913517" lon="9.659250580731904"><ele>58.0</ele><time>2026-03-28T08:51:10.999Z</time></trkpt><trkpt lat="45.170120114612025" lon="9.659295930389277"><ele>58.0</ele><time>2026-03-28T08:51:11.999Z</time></trkpt><trkpt lat="45.16991938035162" lon="9.6593313716786"><ele>58.0</ele><time>2026-03-28T08:51:12.999Z</time></trkpt><trkpt lat="45.169712764968835" lon="9.65936268234075"><ele>58.666666666666664</ele><time>2026-03-28T08:51:13.999Z</time></trkpt><trkpt lat="45.169499067863626" lon="9.65940230343639"><ele>59.33333333333333</ele><time>2026-03-28T08:51:14.999Z</time></trkpt><trkpt lat="45.16928378905869" lon="9.659446288060083"><ele>60.0</ele><time>2026-03-28T08:51:15.999Z</time></trkpt><trkpt lat="45.16907203736781" lon="9.659510577681704"><ele>59.33333333333333</ele><time>2026-03-28T08:51:16.999Z</time></trkpt><trkpt lat="45.16885875512708" lon="9.659558318283526"><ele>58.666666666666664</ele><time>2026-03-28T08:51:17.999Z</time></trkpt><trkpt lat="45.168643694274934" lon="9.659584189858261"><ele>58.0</ele><time>2026-03-28T08:51:19Z</time></trkpt><trkpt lat="45.16843688876464" lon="9.659637840573673"><ele>58.0</ele><time>2026-03-28T08:51:20Z</time></trkpt><trkpt lat="45.16824169247338" lon="9.659694477893492"><ele>58.0</ele><time>2026-03-28T08:51:21Z</time></trkpt><trkpt lat="45.16805732160149" lon="9.659754954318855"><ele>58.0</ele><time>2026-03-28T08:51:22Z</time></trkpt><trkpt lat="45.16788279059028" lon="9.659814458742042"><ele>58.0</ele><time>2026-03-28T08:51:23Z</time></trkpt><trkpt lat="45.16771534356086" lon="9.659893659180437"><ele>58.0</ele><time>2026-03-28T08:51:24Z</time></trkpt><trkpt lat="45.167544932116485" lon="9.659952110919336"><ele>58.0</ele><time>2026-03-28T08:51:25Z</time></trkpt><trkpt lat="45.16737629901322" lon="9.660015424883266"><ele>58.33333333333333</ele><time>2026-03-28T08:51:26Z</time></trkpt><trkpt lat="45.167204843044196" lon="9.660076071440724"><ele>58.66666666666667</ele><time>2026-03-28T08:51:27Z</time></trkpt><trkpt lat="45.16703183356084" lon="9.660136135291438"><ele>59.0</ele><time>2026-03-28T08:51:28Z</time></trkpt><trkpt lat="45.16685517276466" lon="9.660175570456007"><ele>59.0</ele><time>2026-03-28T08:51:29Z</time></trkpt><trkpt lat="45.16668113965202" lon="9.660237148957355"><ele>59.0</ele><time>2026-03-28T08:51:30Z</time></trkpt><trkpt lat="45.16650836875221" lon="9.660298200134111"><ele>59.0</ele><time>2026-03-28T08:51:31Z</time></trkpt><trkpt lat="45.16633489268781" lon="9.660359179230149"><ele>58.66666666666667</ele><time>2026-03-28T08:51:32Z</time></trkpt><trkpt lat="45.16616300153855" lon="9.66041960316621"><ele>58.33333333333333</ele><time>2026-03-28T08:51:33Z</time></trkpt><trkpt lat="45.16599189771743" lon="9.660479748366697"><ele>58.0</ele><time>2026-03-28T08:51:34Z</time></trkpt><trkpt lat="45.165830147372816" lon="9.660575863169163"><ele>57.666666666666664</ele><time>2026-03-28T08:51:35Z</time></trkpt><trkpt lat="45.16567359944227" lon="9.660642084918084"><ele>57.33333333333333</ele><time>2026-03-28T08:51:36Z</time></trkpt><trkpt lat="45.165527964566245" lon="9.66072006548994"><ele>57.0</ele><time>2026-03-28T08:51:37Z</time></trkpt><trkpt lat="45.16539669398988" lon="9.660832058720946"><ele>57.0</ele><time>2026-03-28T08:51:38Z</time></trkpt><trkpt lat="45.165270578801554" lon="9.660957038805035"><ele>57.0</ele><time>2026-03-28T08:51:39Z</time></trkpt><trkpt lat="45.1651858646271" lon="9.661141630502007"><ele>57.0</ele><time>2026-03-28T08:51:40Z</time></trkpt><trkpt lat="45.1651064836922" lon="9.6613091277824"><ele>57.0</ele><time>2026-03-28T08:51:41Z</time></trkpt><trkpt lat="45.16502549968461" lon="9.661457140106062"><ele>57.0</ele><time>2026-03-28T08:51:42Z</time></trkpt><trkpt lat="45.164965065112725" lon="9.66160516533307"><ele>57.0</ele><time>2026-03-28T08:51:43Z</time></trkpt><trkpt lat="45.16487517087946" lon="9.661701413070803"><ele>57.0</ele><time>2026-03-28T08:51:44Z</time></trkpt><trkpt lat="45.16477530210985" lon="9.661756993455262"><ele>57.0</ele><time>2026-03-28T08:51:45Z</time></trkpt><trkpt lat="45.16467190301401" lon="9.66182319328098"><ele>57.0</ele><time>2026-03-28T08:51:46Z</time></trkpt><trkpt lat="45.164577549345694" lon="9.661922932110471"><ele>57.0</ele><time>2026-03-28T08:51:47Z</time></trkpt><trkpt lat="45.16452157173194" lon="9.662098601759382"><ele>57.0</ele><time>2026-03-28T08:51:48Z</time></trkpt><trkpt lat="45.16442677912713" lon="9.662215531322131"><ele>57.0</ele><time>2026-03-28T08:51:49Z</time></trkpt><trkpt lat="45.16430575857235" lon="9.662287981220457"><ele>57.0</ele><time>2026-03-28T08:51:50Z</time></trkpt><trkpt lat="45.16416435619327" lon="9.66229028916408"><ele>57.0</ele><time>2026-03-28T08:51:51Z</time></trkpt><trkpt lat="45.164024077893856" lon="9.662302468999906"><ele>57.0</ele><time>2026-03-28T08:51:52Z</time></trkpt><trkpt lat="45.163888943816545" lon="9.662279035518832"><ele>57.0</ele><time>2026-03-28T08:51:53Z</time></trkpt><trkpt lat="45.16375381075889" lon="9.66222891617565"><ele>57.0</ele><time>2026-03-28T08:51:54Z</time></trkpt><trkpt lat="45.16361552366123" lon="9.662172736739604"><ele>57.0</ele><time>2026-03-28T08:51:55Z</time></trkpt><trkpt lat="45.16349885815269" lon="9.662056443072455"><ele>57.0</ele><time>2026-03-28T08:51:56Z</time></trkpt><trkpt lat="45.163376536670214" lon="9.66196229121558"><ele>56.75</ele><time>2026-03-28T08:51:57Z</time></trkpt><trkpt lat="45.16328423441218" lon="9.66186264440891"><ele>56.5</ele><time>2026-03-28T08:51:58Z</time></trkpt><trkpt lat="45.16324194915194" lon="9.661764513347356"><ele>56.25</ele><time>2026-03-28T08:51:59Z</time></trkpt><trkpt lat="45.16314711330758" lon="9.661612571960932"><ele>56.0</ele><time>2026-03-28T08:52:01Z</time></trkpt><trkpt lat="45.16266182451998" lon="9.661998348668483"><ele>56.0</ele><time>2026-03-28T08:52:02Z</time></trkpt><trkpt lat="45.16252859002865" lon="9.66202171745228"><ele>56.0</ele><time>2026-03-28T08:52:03Z</time></trkpt><trkpt lat="45.16240187183045" lon="9.662061029720444"><ele>56.0</ele><time>2026-03-28T08:52:04Z</time></trkpt><trkpt lat="45.16228437849431" lon="9.662094410275646"><ele>56.0</ele><time>2026-03-28T08:52:05Z</time></trkpt><trkpt lat="45.16217162045414" lon="9.662124035369006"><ele>56.0</ele><time>2026-03-28T08:52:06Z</time></trkpt><trkpt lat="45.16205426527099" lon="9.662171413790256"><ele>56.0</ele><time>2026-03-28T08:52:07Z</time></trkpt><trkpt lat="45.161934411973625" lon="9.662245000906983"><ele>56.0</ele><time>2026-03-28T08:52:08Z</time></trkpt><trkpt lat="45.16181240591537" lon="9.66235675897423"><ele>56.0</ele><time>2026-03-28T08:52:09Z</time></trkpt><trkpt lat="45.16168742230208" lon="9.662503064274523"><ele>56.0</ele><time>2026-03-28T08:52:10Z</time></trkpt><trkpt lat="45.16155056993244" lon="9.662651548122396"><ele>56.0</ele><time>2026-03-28T08:52:10.999Z</time></trkpt><trkpt lat="45.16140702255035" lon="9.6627977418707"><ele>56.0</ele><time>2026-03-28T08:52:11.999Z</time></trkpt><trkpt lat="45.16126114888246" lon="9.662944073161457"><ele>55.66666666666667</ele><time>2026-03-28T08:52:12.999Z</time></trkpt><trkpt lat="45.16111516487396" lon="9.6630780672171"><ele>55.33333333333333</ele><time>2026-03-28T08:52:13.999Z</time></trkpt><trkpt lat="45.16097356058664" lon="9.66319615310314"><ele>55.0</ele><time>2026-03-28T08:52:14.999Z</time></trkpt><trkpt lat="45.16083733634277" lon="9.66330683407753"><ele>54.666666666666664</ele><time>2026-03-28T08:52:15.999Z</time></trkpt><trkpt lat="45.160698651668284" lon="9.66341792940429"><ele>54.33333333333333</ele><time>2026-03-28T08:52:16.999Z</time></trkpt><trkpt lat="45.16055288438322" lon="9.663531782772065"><ele>54.0</ele><time>2026-03-28T08:52:17.999Z</time></trkpt><trkpt lat="45.160400070341105" lon="9.663651643159367"><ele>54.0</ele><time>2026-03-28T08:52:18.999Z</time></trkpt><trkpt lat="45.160240979563284" lon="9.663778715008723"><ele>54.0</ele><time>2026-03-28T08:52:19.999Z</time></trkpt><trkpt lat="45.16007896908504" lon="9.663913146035224"><ele>54.0</ele><time>2026-03-28T08:52:20.999Z</time></trkpt><trkpt lat="45.159908834153285" lon="9.664051436075336"><ele>54.33333333333333</ele><time>2026-03-28T08:52:21.999Z</time></trkpt><trkpt lat="45.15973151355075" lon="9.66418613716282"><ele>54.666666666666664</ele><time>2026-03-28T08:52:22.999Z</time></trkpt><trkpt lat="45.15954863537582" lon="9.664320881053085"><ele>55.0</ele><time>2026-03-28T08:52:23.999Z</time></trkpt><trkpt lat="45.15936028949742" lon="9.66445123166022"><ele>55.0</ele><time>2026-03-28T08:52:24.999Z</time></trkpt><trkpt lat="45.15916978808991" lon="9.664583604116"><ele>55.0</ele><time>2026-03-28T08:52:25.999Z</time></trkpt><trkpt lat="45.15898087001376" lon="9.664718895465404"><ele>55.0</ele><time>2026-03-28T08:52:26.999Z</time></trkpt><trkpt lat="45.15879689940644" lon="9.664849107297469"><ele>54.666666666666664</ele><time>2026-03-28T08:52:27.999Z</time></trkpt><trkpt lat="45.158618307304685" lon="9.664974702125956"><ele>54.33333333333333</ele><time>2026-03-28T08:52:28.999Z</time></trkpt><trkpt lat="45.1584450028291" lon="9.665099771467217"><ele>54.0</ele><time>2026-03-28T08:52:29.999Z</time></trkpt><trkpt lat="45.1582700064195" lon="9.665227536876742"><ele>53.33333333333333</ele><time>2026-03-28T08:52:30.999Z</time></trkpt><trkpt lat="45.1580955336792" lon="9.665353857240278"><ele>52.666666666666664</ele><time>2026-03-28T08:52:31.999Z</time></trkpt><trkpt lat="45.15792794544539" lon="9.665474885263365"><ele>52.0</ele><time>2026-03-28T08:52:32.999Z</time></trkpt><trkpt lat="45.15776462378862" lon="9.665589728783141"><ele>52.0</ele><time>2026-03-28T08:52:33.999Z</time></trkpt><trkpt lat="45.1575961188657" lon="9.66571349725414"><ele>52.0</ele><time>2026-03-28T08:52:34.999Z</time></trkpt><trkpt lat="45.1574291499304" lon="9.665836735818766"><ele>52.0</ele><time>2026-03-28T08:52:35.999Z</time></trkpt><trkpt lat="45.15726760924276" lon="9.66595669793507"><ele>51.666666666666664</ele><time>2026-03-28T08:52:36.999Z</time></trkpt><trkpt lat="45.15711211003959" lon="9.666078273987177"><ele>51.33333333333333</ele><time>2026-03-28T08:52:37.999Z</time></trkpt><trkpt lat="45.15695754153289" lon="9.666194670853038"><ele>51.0</ele><time>2026-03-28T08:52:38.999Z</time></trkpt><trkpt lat="45.15680624866262" lon="9.666305388107324"><ele>51.66666666666667</ele><time>2026-03-28T08:52:39.999Z</time></trkpt><trkpt lat="45.15665437119254" lon="9.66641470275262"><ele>52.333333333333336</ele><time>2026-03-28T08:52:40.999Z</time></trkpt><trkpt lat="45.15650119505843" lon="9.666521119367477"><ele>53.0</ele><time>2026-03-28T08:52:41.999Z</time></trkpt><trkpt lat="45.156340662834786" lon="9.666628291464837"><ele>52.0</ele><time>2026-03-28T08:52:42.999Z</time></trkpt><trkpt lat="45.156176088011435" lon="9.666748437707032"><ele>51.0</ele><time>2026-03-28T08:52:43.999Z</time></trkpt><trkpt lat="45.156002467455345" lon="9.666889906434683"><ele>50.0</ele><time>2026-03-28T08:52:44.999Z</time></trkpt><trkpt lat="45.15583165223009" lon="9.667019213802122"><ele>50.333333333333336</ele><time>2026-03-28T08:52:45.999Z</time></trkpt><trkpt lat="45.15566752867812" lon="9.667126129127244"><ele>50.66666666666667</ele><time>2026-03-28T08:52:46.999Z</time></trkpt><trkpt lat="45.15551191732945" lon="9.667237429062357"><ele>51.0</ele><time>2026-03-28T08:52:47.999Z</time></trkpt><trkpt lat="45.155358517099195" lon="9.667369337088921"><ele>51.0</ele><time>2026-03-28T08:52:48.999Z</time></trkpt><trkpt lat="45.15519520377424" lon="9.667506039108629"><ele>51.0</ele><time>2026-03-28T08:52:49.999Z</time></trkpt><trkpt lat="45.155021973384336" lon="9.667630207580114"><ele>51.0</ele><time>2026-03-28T08:52:50.999Z</time></trkpt><trkpt lat="45.154847336547284" lon="9.667754049567685"><ele>52.0</ele><time>2026-03-28T08:52:51.999Z</time></trkpt><trkpt lat="45.15466980253026" lon="9.667882453067463"><ele>53.0</ele><time>2026-03-28T08:52:52.999Z</time></trkpt><trkpt lat="45.15448789516487" lon="9.668013421529746"><ele>54.0</ele><time>2026-03-28T08:52:53.999Z</time></trkpt><trkpt lat="45.15430436742711" lon="9.668146648761741"><ele>54.0</ele><time>2026-03-28T08:52:54.999Z</time></trkpt><trkpt lat="45.154115229085065" lon="9.66828240831997"><ele>54.0</ele><time>2026-03-28T08:52:55.999Z</time></trkpt><trkpt lat="45.15392220343868" lon="9.668422997074567"><ele>54.0</ele><time>2026-03-28T08:52:56.999Z</time></trkpt><trkpt lat="45.15370878631421" lon="9.668574423334361"><ele>55.5</ele><time>2026-03-28T08:52:57.999Z</time></trkpt><trkpt lat="45.153483667138424" lon="9.66873386494739"><ele>57.0</ele><time>2026-03-28T08:52:58.999Z</time></trkpt><trkpt lat="45.153254444820185" lon="9.668901249786675"><ele>56.5</ele><time>2026-03-28T08:52:59.999Z</time></trkpt><trkpt lat="45.15302316811032" lon="9.669065227770355"><ele>56.0</ele><time>2026-03-28T08:53:00.999Z</time></trkpt><trkpt lat="45.15279988923199" lon="9.669228083823853"><ele>56.0</ele><time>2026-03-28T08:53:01.999Z</time></trkpt><trkpt lat="45.15258080332622" lon="9.669384915551731"><ele>56.0</ele><time>2026-03-28T08:53:02.999Z</time></trkpt><trkpt lat="45.15236694245736" lon="9.669538454378973"><ele>57.0</ele><time>2026-03-28T08:53:03.999Z</time></trkpt><trkpt lat="45.152155280964934" lon="9.669690677750001"><ele>58.0</ele><time>2026-03-28T08:53:04.999Z</time></trkpt><trkpt lat="45.15194561862656" lon="9.669843869310204"><ele>58.0</ele><time>2026-03-28T08:53:05.999Z</time></trkpt><trkpt lat="45.15173636513735" lon="9.669994870460021"><ele>58.0</ele><time>2026-03-28T08:53:06.999Z</time></trkpt><trkpt lat="45.151528074803146" lon="9.670144381637801"><ele>57.0</ele><time>2026-03-28T08:53:07.999Z</time></trkpt><trkpt lat="45.15131987548325" lon="9.670291621392943"><ele>56.0</ele><time>2026-03-28T08:53:08.999Z</time></trkpt><trkpt lat="45.151114713437735" lon="9.67043674461557"><ele>56.0</ele><time>2026-03-28T08:53:09.999Z</time></trkpt><trkpt lat="45.15090987767945" lon="9.67058243870241"><ele>56.0</ele><time>2026-03-28T08:53:10.999Z</time></trkpt><trkpt lat="45.15070629886498" lon="9.670729407539412"><ele>54.5</ele><time>2026-03-28T08:53:11.999Z</time></trkpt><trkpt lat="45.15050456021063" lon="9.670875852863524"><ele>53.0</ele><time>2026-03-28T08:53:12.999Z</time></trkpt><trkpt lat="45.150300638383634" lon="9.671019934888461"><ele>53.5</ele><time>2026-03-28T08:53:13.999Z</time></trkpt><trkpt lat="45.15009663359248" lon="9.671162226243466"><ele>54.0</ele><time>2026-03-28T08:53:14.999Z</time></trkpt><trkpt lat="45.14989513744809" lon="9.671306520818195"><ele>54.0</ele><time>2026-03-28T08:53:15.999Z</time></trkpt><trkpt lat="45.14969156896714" lon="9.671452978827666"><ele>54.0</ele><time>2026-03-28T08:53:16.999Z</time></trkpt><trkpt lat="45.1494890539433" lon="9.6716018819364"><ele>54.0</ele><time>2026-03-28T08:53:17.999Z</time></trkpt><trkpt lat="45.149285480721495" lon="9.671750532082875"><ele>54.0</ele><time>2026-03-28T08:53:18.999Z</time></trkpt><trkpt lat="45.149080995290895" lon="9.671896194660587"><ele>55.5</ele><time>2026-03-28T08:53:19.999Z</time></trkpt><trkpt lat="45.14887741528877" lon="9.672044301620025"><ele>57.0</ele><time>2026-03-28T08:53:20.999Z</time></trkpt><trkpt lat="45.14867295624226" lon="9.672188026258272"><ele>57.0</ele><time>2026-03-28T08:53:21.999Z</time></trkpt><trkpt lat="45.14847632710499" lon="9.672321988453396"><ele>57.0</ele><time>2026-03-28T08:53:22.999Z</time></trkpt><trkpt lat="45.14828100015927" lon="9.67244494878902"><ele>57.0</ele><time>2026-03-28T08:53:23.999Z</time></trkpt><trkpt lat="45.14808497432233" lon="9.672563444521833"><ele>57.0</ele><time>2026-03-28T08:53:25Z</time></trkpt><trkpt lat="45.147883668519036" lon="9.672683685815723"><ele>57.0</ele><time>2026-03-28T08:53:26Z</time></trkpt><trkpt lat="45.147677722469396" lon="9.672801220478012"><ele>57.0</ele><time>2026-03-28T08:53:27Z</time></trkpt><trkpt lat="45.1474648893614" lon="9.672916650035692"><ele>54.5</ele><time>2026-03-28T08:53:28Z</time></trkpt><trkpt lat="45.14724677368083" lon="9.673029137981857"><ele>52.0</ele><time>2026-03-28T08:53:29Z</time></trkpt><trkpt lat="45.14702412284765" lon="9.673138937590895"><ele>52.0</ele><time>2026-03-28T08:53:30Z</time></trkpt><trkpt lat="45.14679751758615" lon="9.673244453504728"><ele>52.0</ele><time>2026-03-28T08:53:31Z</time></trkpt><trkpt lat="45.146566782067744" lon="9.673346756750421"><ele>50.5</ele><time>2026-03-28T08:53:32Z</time></trkpt><trkpt lat="45.14632977422783" lon="9.673441819277016"><ele>49.0</ele><time>2026-03-28T08:53:33Z</time></trkpt><trkpt lat="45.14608983309537" lon="9.67353247603024"><ele>51.0</ele><time>2026-03-28T08:53:34Z</time></trkpt><trkpt lat="45.145844460229085" lon="9.673616479459827"><ele>53.0</ele><time>2026-03-28T08:53:35Z</time></trkpt><trkpt lat="45.14559637813035" lon="9.673695434600335"><ele>54.0</ele><time>2026-03-28T08:53:36Z</time></trkpt><trkpt lat="45.14534779450514" lon="9.673771486372914"><ele>55.0</ele><time>2026-03-28T08:53:37Z</time></trkpt><trkpt lat="45.14509969767282" lon="9.673843327756938"><ele>54.0</ele><time>2026-03-28T08:53:38Z</time></trkpt><trkpt lat="45.14485362881623" lon="9.673918343776249"><ele>53.0</ele><time>2026-03-28T08:53:39Z</time></trkpt><trkpt lat="45.14460926540962" lon="9.673992013359982"><ele>53.0</ele><time>2026-03-28T08:53:40Z</time></trkpt><trkpt lat="45.14436696977846" lon="9.6740629747789"><ele>53.0</ele><time>2026-03-28T08:53:41Z</time></trkpt><trkpt lat="45.144125273018396" lon="9.674132369690097"><ele>52.5</ele><time>2026-03-28T08:53:42Z</time></trkpt><trkpt lat="45.14388355586816" lon="9.674199518259444"><ele>52.0</ele><time>2026-03-28T08:53:43Z</time></trkpt><trkpt lat="45.143643570975435" lon="9.674268145022499"><ele>52.0</ele><time>2026-03-28T08:53:44Z</time></trkpt><trkpt lat="45.14340461046286" lon="9.674339897127306"><ele>52.0</ele><time>2026-03-28T08:53:45Z</time></trkpt><trkpt lat="45.14316631412825" lon="9.674409512287243"><ele>51.5</ele><time>2026-03-28T08:53:46Z</time></trkpt><trkpt lat="45.142928917640425" lon="9.674478995982923"><ele>51.0</ele><time>2026-03-28T08:53:47Z</time></trkpt><trkpt lat="45.14269138187191" lon="9.67454723797208"><ele>51.0</ele><time>2026-03-28T08:53:48Z</time></trkpt><trkpt lat="45.142456675917735" lon="9.674613345375535"><ele>51.0</ele><time>2026-03-28T08:53:49Z</time></trkpt><trkpt lat="45.142223617104555" lon="9.674679070873086"><ele>50.0</ele><time>2026-03-28T08:53:50Z</time></trkpt><trkpt lat="45.14199146557902" lon="9.67474530406096"><ele>49.0</ele><time>2026-03-28T08:53:51Z</time></trkpt><trkpt lat="45.14176085882707" lon="9.674813440280108"><ele>49.0</ele><time>2026-03-28T08:53:52Z</time></trkpt><trkpt lat="45.14153048329913" lon="9.674876537337559"><ele>49.0</ele><time>2026-03-28T08:53:53Z</time></trkpt><trkpt lat="45.14130132941062" lon="9.674939147180881"><ele>49.0</ele><time>2026-03-28T08:53:54Z</time></trkpt><trkpt lat="45.14107347408117" lon="9.67500162095721"><ele>49.0</ele><time>2026-03-28T08:53:55Z</time></trkpt><trkpt lat="45.140847903262824" lon="9.675066754735058"><ele>48.0</ele><time>2026-03-28T08:53:56Z</time></trkpt><trkpt lat="45.14062090872682" lon="9.675132055477167"><ele>47.0</ele><time>2026-03-28T08:53:57Z</time></trkpt><trkpt lat="45.14039391153023" lon="9.675198351261676"><ele>47.0</ele><time>2026-03-28T08:53:58Z</time></trkpt><trkpt lat="45.1401657958241" lon="9.675265068486242"><ele>47.0</ele><time>2026-03-28T08:53:59Z</time></trkpt><trkpt lat="45.13993744296279" lon="9.675332482379105"><ele>46.5</ele><time>2026-03-28T08:54:00Z</time></trkpt><trkpt lat="45.13970947428505" lon="9.675400495177753"><ele>46.0</ele><time>2026-03-28T08:54:01Z</time></trkpt><trkpt lat="45.139481655305644" lon="9.675469290267053"><ele>46.0</ele><time>2026-03-28T08:54:02Z</time></trkpt><trkpt lat="45.139251816941275" lon="9.675538422754451"><ele>46.0</ele><time>2026-03-28T08:54:03Z</time></trkpt><trkpt lat="45.139021456962794" lon="9.675607530882452"><ele>46.5</ele><time>2026-03-28T08:54:04Z</time></trkpt><trkpt lat="45.13878868761895" lon="9.675673097916818"><ele>47.0</ele><time>2026-03-28T08:54:05Z</time></trkpt><trkpt lat="45.1385548116063" lon="9.675741819521392"><ele>47.0</ele><time>2026-03-28T08:54:06Z</time></trkpt><trkpt lat="45.13831995197571" lon="9.675814125633714"><ele>47.0</ele><time>2026-03-28T08:54:07Z</time></trkpt><trkpt lat="45.13808474484982" lon="9.675890638814522"><ele>46.5</ele><time>2026-03-28T08:54:08Z</time></trkpt><trkpt lat="45.13784786932066" lon="9.675974907639867"><ele>46.0</ele><time>2026-03-28T08:54:09Z</time></trkpt><trkpt lat="45.13761264212939" lon="9.676066240130103"><ele>47.0</ele><time>2026-03-28T08:54:10Z</time></trkpt><trkpt lat="45.13737831229432" lon="9.676165963437686"><ele>48.0</ele><time>2026-03-28T08:54:11Z</time></trkpt><trkpt lat="45.1371463297778" lon="9.676273812591319"><ele>48.0</ele><time>2026-03-28T08:54:12Z</time></trkpt><trkpt lat="45.136914833070854" lon="9.67638877924749"><ele>48.0</ele><time>2026-03-28T08:54:13Z</time></trkpt><trkpt lat="45.136686725861324" lon="9.676507491527477"><ele>46.5</ele><time>2026-03-28T08:54:14Z</time></trkpt><trkpt lat="45.136462341347965" lon="9.676632542169157"><ele>45.0</ele><time>2026-03-28T08:54:14.999Z</time></trkpt><trkpt lat="45.13624174867685" lon="9.676762864090216"><ele>45.0</ele><time>2026-03-28T08:54:15.999Z</time></trkpt><trkpt lat="45.13602322299703" lon="9.67689660349114"><ele>45.0</ele><time>2026-03-28T08:54:16.999Z</time></trkpt><trkpt lat="45.13580725903129" lon="9.677035067676286"><ele>45.0</ele><time>2026-03-28T08:54:17.999Z</time></trkpt><trkpt lat="45.13559514958827" lon="9.6771826529442"><ele>45.0</ele><time>2026-03-28T08:54:18.999Z</time></trkpt><trkpt lat="45.135385641508414" lon="9.677334513938774"><ele>45.0</ele><time>2026-03-28T08:54:19.999Z</time></trkpt><trkpt lat="45.135178925500625" lon="9.677493098300118"><ele>45.0</ele><time>2026-03-28T08:54:20.999Z</time></trkpt><trkpt lat="45.13497522919697" lon="9.677657397183069"><ele>46.0</ele><time>2026-03-28T08:54:21.999Z</time></trkpt><trkpt lat="45.134773126242024" lon="9.677826762616666"><ele>47.0</ele><time>2026-03-28T08:54:22.999Z</time></trkpt><trkpt lat="45.134574074218996" lon="9.678001895044515"><ele>47.0</ele><time>2026-03-28T08:54:23.999Z</time></trkpt><trkpt lat="45.13437449793891" lon="9.678182582691933"><ele>47.0</ele><time>2026-03-28T08:54:24.999Z</time></trkpt><trkpt lat="45.13418109513364" lon="9.678370008416818"><ele>46.0</ele><time>2026-03-28T08:54:25.999Z</time></trkpt><trkpt lat="45.13399004755476" lon="9.678563649751712"><ele>45.0</ele><time>2026-03-28T08:54:26.999Z</time></trkpt><trkpt lat="45.133800873261485" lon="9.678761311932046"><ele>44.5</ele><time>2026-03-28T08:54:27.999Z</time></trkpt><trkpt lat="45.133612001555115" lon="9.678957958443545"><ele>44.0</ele><time>2026-03-28T08:54:28.999Z</time></trkpt><trkpt lat="45.133423434759685" lon="9.679153859423693"><ele>44.0</ele><time>2026-03-28T08:54:29.999Z</time></trkpt><trkpt lat="45.13323512348731" lon="9.67934867688917"><ele>44.0</ele><time>2026-03-28T08:54:30.999Z</time></trkpt><trkpt lat="45.13304681276842" lon="9.679544460914268"><ele>44.5</ele><time>2026-03-28T08:54:31.999Z</time></trkpt><trkpt lat="45.13285966741738" lon="9.679741794616485"><ele>45.0</ele><time>2026-03-28T08:54:32.999Z</time></trkpt><trkpt lat="45.1326732771873" lon="9.679937565500511"><ele>45.0</ele><time>2026-03-28T08:54:33.999Z</time></trkpt><trkpt lat="45.132486956406304" lon="9.680133153432772"><ele>45.0</ele><time>2026-03-28T08:54:34.999Z</time></trkpt><trkpt lat="45.13230023532828" lon="9.680328785473812"><ele>46.0</ele><time>2026-03-28T08:54:35.999Z</time></trkpt><trkpt lat="45.132114464472686" lon="9.68052432802817"><ele>47.0</ele><time>2026-03-28T08:54:36.999Z</time></trkpt><trkpt lat="45.131928644747866" lon="9.680719881951934"><ele>47.0</ele><time>2026-03-28T08:54:37.999Z</time></trkpt><trkpt lat="45.13174292239657" lon="9.68091355734002"><ele>47.0</ele><time>2026-03-28T08:54:38.999Z</time></trkpt><trkpt lat="45.131556831015" lon="9.68110656107692"><ele>47.0</ele><time>2026-03-28T08:54:39.999Z</time></trkpt><trkpt lat="45.1313722327172" lon="9.681298909842045"><ele>47.0</ele><time>2026-03-28T08:54:40.999Z</time></trkpt><trkpt lat="45.13118648953116" lon="9.681493096020235"><ele>47.0</ele><time>2026-03-28T08:54:41.999Z</time></trkpt><trkpt lat="45.13100125284979" lon="9.681687328625909"><ele>47.0</ele><time>2026-03-28T08:54:42.999Z</time></trkpt><trkpt lat="45.130816353169514" lon="9.681880017973334"><ele>46.0</ele><time>2026-03-28T08:54:43.999Z</time></trkpt><trkpt lat="45.13063001651522" lon="9.682071843217727"><ele>45.0</ele><time>2026-03-28T08:54:44.999Z</time></trkpt><trkpt lat="45.13044513202473" lon="9.682266623841826"><ele>45.0</ele><time>2026-03-28T08:54:45.999Z</time></trkpt><trkpt lat="45.13026023321787" lon="9.68246183719062"><ele>45.0</ele><time>2026-03-28T08:54:46.999Z</time></trkpt><trkpt lat="45.13007761656857" lon="9.682657524530013"><ele>45.5</ele><time>2026-03-28T08:54:47.999Z</time></trkpt><trkpt lat="45.12989652842153" lon="9.682853391680105"><ele>46.0</ele><time>2026-03-28T08:54:48.999Z</time></trkpt><trkpt lat="45.129712376682676" lon="9.683045528868004"><ele>46.5</ele><time>2026-03-28T08:54:49.999Z</time></trkpt><trkpt lat="45.12952618175928" lon="9.683234641873279"><ele>47.0</ele><time>2026-03-28T08:54:50.999Z</time></trkpt><trkpt lat="45.12933792075643" lon="9.683419311722725"><ele>47.0</ele><time>2026-03-28T08:54:51.999Z</time></trkpt><trkpt lat="45.129146622358306" lon="9.683601374320226"><ele>47.0</ele><time>2026-03-28T08:54:52.999Z</time></trkpt><trkpt lat="45.1289524617989" lon="9.68377667962809"><ele>47.5</ele><time>2026-03-28T08:54:53.999Z</time></trkpt><trkpt lat="45.12875620509471" lon="9.683945695961386"><ele>48.0</ele><time>2026-03-28T08:54:54.999Z</time></trkpt><trkpt lat="45.128556048867786" lon="9.6841093017863"><ele>48.0</ele><time>2026-03-28T08:54:55.999Z</time></trkpt><trkpt lat="45.128353453381" lon="9.684264765647017"><ele>48.0</ele><time>2026-03-28T08:54:56.999Z</time></trkpt><trkpt lat="45.12814940878306" lon="9.684411980717902"><ele>48.0</ele><time>2026-03-28T08:54:57.999Z</time></trkpt><trkpt lat="45.1279412576173" lon="9.684551168283303"><ele>48.0</ele><time>2026-03-28T08:54:58.999Z</time></trkpt><trkpt lat="45.12772993734852" lon="9.68468306092259"><ele>48.0</ele><time>2026-03-28T08:54:59.999Z</time></trkpt><trkpt lat="45.12751507949724" lon="9.68480622975258"><ele>48.0</ele><time>2026-03-28T08:55:00.999Z</time></trkpt><trkpt lat="45.127298874791215" lon="9.684920250658681"><ele>47.5</ele><time>2026-03-28T08:55:01.999Z</time></trkpt><trkpt lat="45.12708208997137" lon="9.685035490028204"><ele>47.0</ele><time>2026-03-28T08:55:02.999Z</time></trkpt><trkpt lat="45.12686506566462" lon="9.685146355669431"><ele>47.0</ele><time>2026-03-28T08:55:03.999Z</time></trkpt><trkpt lat="45.12664644989257" lon="9.68524979906427"><ele>47.0</ele><time>2026-03-28T08:55:04.999Z</time></trkpt><trkpt lat="45.126426244663556" lon="9.685349498669662"><ele>46.0</ele><time>2026-03-28T08:55:05.999Z</time></trkpt><trkpt lat="45.126204532368256" lon="9.685444288184254"><ele>45.0</ele><time>2026-03-28T08:55:06.999Z</time></trkpt><trkpt lat="45.12598395700023" lon="9.685538844367755"><ele>45.0</ele><time>2026-03-28T08:55:07.999Z</time></trkpt><trkpt lat="45.12576100726029" lon="9.685628355132144"><ele>45.0</ele><time>2026-03-28T08:55:08.999Z</time></trkpt><trkpt lat="45.12553506806253" lon="9.685709692072074"><ele>45.5</ele><time>2026-03-28T08:55:09.999Z</time></trkpt><trkpt lat="45.125311973521896" lon="9.685789363136015"><ele>46.0</ele><time>2026-03-28T08:55:10.999Z</time></trkpt><trkpt lat="45.12508655042325" lon="9.685863856922595"><ele>46.0</ele><time>2026-03-28T08:55:11.999Z</time></trkpt><trkpt lat="45.12486084276297" lon="9.685934173803673"><ele>46.0</ele><time>2026-03-28T08:55:12.999Z</time></trkpt><trkpt lat="45.12463330093308" lon="9.686001331032912"><ele>46.0</ele><time>2026-03-28T08:55:13.999Z</time></trkpt><trkpt lat="45.1244067660651" lon="9.686069252027139"><ele>46.0</ele><time>2026-03-28T08:55:14.999Z</time></trkpt><trkpt lat="45.12418069283767" lon="9.686130218018269"><ele>46.0</ele><time>2026-03-28T08:55:15.999Z</time></trkpt><trkpt lat="45.12395347432435" lon="9.686187990651426"><ele>46.0</ele><time>2026-03-28T08:55:16.999Z</time></trkpt><trkpt lat="45.12372518516822" lon="9.68624255128831"><ele>46.0</ele><time>2026-03-28T08:55:17.999Z</time></trkpt><trkpt lat="45.123497123073925" lon="9.686293298162216"><ele>46.0</ele><time>2026-03-28T08:55:18.999Z</time></trkpt><trkpt lat="45.123268773003076" lon="9.686337505764028"><ele>45.5</ele><time>2026-03-28T08:55:19.999Z</time></trkpt><trkpt lat="45.123040243475096" lon="9.686377786693626"><ele>45.0</ele><time>2026-03-28T08:55:20.999Z</time></trkpt><trkpt lat="45.12281236619547" lon="9.686416059162909"><ele>45.0</ele><time>2026-03-28T08:55:21.999Z</time></trkpt><trkpt lat="45.12258557955871" lon="9.686454535052656"><ele>45.0</ele><time>2026-03-28T08:55:22.999Z</time></trkpt><trkpt lat="45.122358301507056" lon="9.686497994403837"><ele>44.5</ele><time>2026-03-28T08:55:23.999Z</time></trkpt><trkpt lat="45.12212958596532" lon="9.686538356746446"><ele>44.0</ele><time>2026-03-28T08:55:24.999Z</time></trkpt><trkpt lat="45.12190057593564" lon="9.686580368171642"><ele>44.0</ele><time>2026-03-28T08:55:25.999Z</time></trkpt><trkpt lat="45.12167331243047" lon="9.686622676630323"><ele>44.0</ele><time>2026-03-28T08:55:26.999Z</time></trkpt><trkpt lat="45.121444495587866" lon="9.686663845549358"><ele>44.0</ele><time>2026-03-28T08:55:27.999Z</time></trkpt><trkpt lat="45.121217023632056" lon="9.686701474513011"><ele>44.0</ele><time>2026-03-28T08:55:28.999Z</time></trkpt><trkpt lat="45.12098750269017" lon="9.68673769416657"><ele>44.0</ele><time>2026-03-28T08:55:29.999Z</time></trkpt><trkpt lat="45.120758427944736" lon="9.686773086552561"><ele>44.0</ele><time>2026-03-28T08:55:31Z</time></trkpt><trkpt lat="45.12052889072987" lon="9.686808528863677"><ele>42.5</ele><time>2026-03-28T08:55:32Z</time></trkpt><trkpt lat="45.12030030016082" lon="9.686844665350089"><ele>41.0</ele><time>2026-03-28T08:55:33Z</time></trkpt><trkpt lat="45.12007161969895" lon="9.686883177622201"><ele>42.5</ele><time>2026-03-28T08:55:34Z</time></trkpt><trkpt lat="45.119842293271525" lon="9.686923293069094"><ele>44.0</ele><time>2026-03-28T08:55:35Z</time></trkpt><trkpt lat="45.1196138459105" lon="9.686967046975461"><ele>45.0</ele><time>2026-03-28T08:55:36Z</time></trkpt><trkpt lat="45.119384136187264" lon="9.687007428249597"><ele>46.0</ele><time>2026-03-28T08:55:37Z</time></trkpt><trkpt lat="45.119154727266945" lon="9.687049378778468"><ele>46.0</ele><time>2026-03-28T08:55:38Z</time></trkpt><trkpt lat="45.1189262511066" lon="9.687090279875875"><ele>46.0</ele><time>2026-03-28T08:55:39Z</time></trkpt><trkpt lat="45.11869671645925" lon="9.687131359171406"><ele>46.0</ele><time>2026-03-28T08:55:40Z</time></trkpt><trkpt lat="45.11846708289148" lon="9.687171164247685"><ele>46.0</ele><time>2026-03-28T08:55:41Z</time></trkpt><trkpt lat="45.1182365920727" lon="9.687209592313003"><ele>45.5</ele><time>2026-03-28T08:55:42Z</time></trkpt><trkpt lat="45.11800694476048" lon="9.687251254243083"><ele>45.0</ele><time>2026-03-28T08:55:43Z</time></trkpt><trkpt lat="45.11777811811721" lon="9.687291806186991"><ele>45.0</ele><time>2026-03-28T08:55:44Z</time></trkpt><trkpt lat="45.11754974159679" lon="9.687333886874317"><ele>45.0</ele><time>2026-03-28T08:55:45Z</time></trkpt><trkpt lat="45.11732125434038" lon="9.687376505238172"><ele>44.5</ele><time>2026-03-28T08:55:46Z</time></trkpt><trkpt lat="45.1170939017132" lon="9.68742106509814"><ele>44.0</ele><time>2026-03-28T08:55:47Z</time></trkpt><trkpt lat="45.1168671662136" lon="9.687463726441457"><ele>44.0</ele><time>2026-03-28T08:55:48Z</time></trkpt><trkpt lat="45.11663869239653" lon="9.68750457262085"><ele>44.0</ele><time>2026-03-28T08:55:49Z</time></trkpt><trkpt lat="45.116409136638225" lon="9.687545668405216"><ele>45.0</ele><time>2026-03-28T08:55:50Z</time></trkpt><trkpt lat="45.11618035341521" lon="9.687584353628765"><ele>46.0</ele><time>2026-03-28T08:55:51Z</time></trkpt><trkpt lat="45.115952317489075" lon="9.68761922596768"><ele>46.5</ele><time>2026-03-28T08:55:52Z</time></trkpt><trkpt lat="45.11572251397734" lon="9.687652776387504"><ele>47.0</ele><time>2026-03-28T08:55:53Z</time></trkpt><trkpt lat="45.11549282859738" lon="9.687679740872536"><ele>47.0</ele><time>2026-03-28T08:55:54Z</time></trkpt><trkpt lat="45.11526363260238" lon="9.687696944508346"><ele>47.0</ele><time>2026-03-28T08:55:55Z</time></trkpt><trkpt lat="45.11503289789486" lon="9.6877068756027"><ele>46.0</ele><time>2026-03-28T08:55:56Z</time></trkpt><trkpt lat="45.11480106970525" lon="9.687705685117912"><ele>45.0</ele><time>2026-03-28T08:55:57Z</time></trkpt><trkpt lat="45.11457042308438" lon="9.68769879146585"><ele>45.0</ele><time>2026-03-28T08:55:58Z</time></trkpt><trkpt lat="45.11434071480652" lon="9.68768473866821"><ele>45.0</ele><time>2026-03-28T08:55:59Z</time></trkpt><trkpt lat="45.11411100498725" lon="9.687655781324583"><ele>45.5</ele><time>2026-03-28T08:56:00Z</time></trkpt><trkpt lat="45.11388150568367" lon="9.687615465590348"><ele>46.0</ele><time>2026-03-28T08:56:01Z</time></trkpt><trkpt lat="45.11365259541559" lon="9.687570016736064"><ele>46.0</ele><time>2026-03-28T08:56:02Z</time></trkpt><trkpt lat="45.113425734375575" lon="9.68751790718262"><ele>46.0</ele><time>2026-03-28T08:56:03Z</time></trkpt><trkpt lat="45.11319971243282" lon="9.687456365638758"><ele>45.5</ele><time>2026-03-28T08:56:04Z</time></trkpt><trkpt lat="45.1129765150718" lon="9.68738582980688"><ele>45.0</ele><time>2026-03-28T08:56:05Z</time></trkpt><trkpt lat="45.1127547711983" lon="9.687303230835793"><ele>45.0</ele><time>2026-03-28T08:56:06Z</time></trkpt><trkpt lat="45.11253334605869" lon="9.687212311607514"><ele>45.0</ele><time>2026-03-28T08:56:07Z</time></trkpt><trkpt lat="45.112313634541536" lon="9.687118429802709"><ele>45.0</ele><time>2026-03-28T08:56:08Z</time></trkpt><trkpt lat="45.112096390734244" lon="9.68702104286899"><ele>45.0</ele><time>2026-03-28T08:56:09Z</time></trkpt><trkpt lat="45.11187628728744" lon="9.68692354373668"><ele>45.0</ele><time>2026-03-28T08:56:10Z</time></trkpt><trkpt lat="45.111656556310926" lon="9.686828057128423"><ele>45.0</ele><time>2026-03-28T08:56:11Z</time></trkpt><trkpt lat="45.11143617995982" lon="9.686731736428312"><ele>46.0</ele><time>2026-03-28T08:56:12Z</time></trkpt><trkpt lat="45.11121713945626" lon="9.686632221451614"><ele>47.0</ele><time>2026-03-28T08:56:13Z</time></trkpt><trkpt lat="45.11099773297852" lon="9.686531014049631"><ele>47.0</ele><time>2026-03-28T08:56:14Z</time></trkpt><trkpt lat="45.11077825835827" lon="9.686430047456499"><ele>47.0</ele><time>2026-03-28T08:56:15Z</time></trkpt><trkpt lat="45.11056512345001" lon="9.686336238360603"><ele>47.33333333333333</ele><time>2026-03-28T08:56:16Z</time></trkpt><trkpt lat="45.110363880391056" lon="9.686248734090057"><ele>47.666666666666664</ele><time>2026-03-28T08:56:17Z</time></trkpt><trkpt lat="45.11016944245314" lon="9.686169131272308"><ele>48.0</ele><time>2026-03-28T08:56:18Z</time></trkpt><trkpt lat="45.10997952848566" lon="9.686090663371964"><ele>47.333333333333336</ele><time>2026-03-28T08:56:19Z</time></trkpt><trkpt lat="45.109787321883005" lon="9.68601003213863"><ele>46.66666666666667</ele><time>2026-03-28T08:56:20Z</time></trkpt><trkpt lat="45.109592714465215" lon="9.685930007983098"><ele>46.0</ele><time>2026-03-28T08:56:21Z</time></trkpt><trkpt lat="45.10939833436178" lon="9.685853085901806"><ele>46.0</ele><time>2026-03-28T08:56:22Z</time></trkpt><trkpt lat="45.10920685315868" lon="9.685775102711366"><ele>46.0</ele><time>2026-03-28T08:56:23Z</time></trkpt><trkpt lat="45.1090215547392" lon="9.68569962742739"><ele>46.0</ele><time>2026-03-28T08:56:24Z</time></trkpt><trkpt lat="45.108842631046585" lon="9.685628274251021"><ele>45.333333333333336</ele><time>2026-03-28T08:56:25Z</time></trkpt><trkpt lat="45.108664292041546" lon="9.685555807718249"><ele>44.666666666666664</ele><time>2026-03-28T08:56:26Z</time></trkpt><trkpt lat="45.10848807679916" lon="9.68548263747806"><ele>44.0</ele><time>2026-03-28T08:56:27Z</time></trkpt><trkpt lat="45.10831296011734" lon="9.68540982898348"><ele>44.666666666666664</ele><time>2026-03-28T08:56:27.999Z</time></trkpt><trkpt lat="45.108142566902025" lon="9.685338526155148"><ele>45.333333333333336</ele><time>2026-03-28T08:56:28.999Z</time></trkpt><trkpt lat="45.10798075310835" lon="9.685270984744955"><ele>46.0</ele><time>2026-03-28T08:56:29.999Z</time></trkpt><trkpt lat="45.10782500184537" lon="9.685207166086837"><ele>46.0</ele><time>2026-03-28T08:56:30.999Z</time></trkpt><trkpt lat="45.107671534022685" lon="9.685148704102325"><ele>46.0</ele><time>2026-03-28T08:56:31.999Z</time></trkpt><trkpt lat="45.10752118961703" lon="9.685093298308049"><ele>46.0</ele><time>2026-03-28T08:56:32.999Z</time></trkpt><trkpt lat="45.10737578994323" lon="9.685041654332862"><ele>45.75</ele><time>2026-03-28T08:56:33.999Z</time></trkpt><trkpt lat="45.107234382606194" lon="9.684998830008219"><ele>45.5</ele><time>2026-03-28T08:56:34.999Z</time></trkpt><trkpt lat="45.10709324175992" lon="9.684967150031165"><ele>45.25</ele><time>2026-03-28T08:56:35.999Z</time></trkpt><trkpt lat="45.106958970198114" lon="9.684942779104901"><ele>45.0</ele><time>2026-03-28T08:56:36.999Z</time></trkpt><trkpt lat="45.10683213749227" lon="9.684918970356701"><ele>45.0</ele><time>2026-03-28T08:56:37.999Z</time></trkpt><trkpt lat="45.10671196059901" lon="9.684895572288621"><ele>45.0</ele><time>2026-03-28T08:56:38.999Z</time></trkpt><trkpt lat="45.10660138957795" lon="9.684873552350433"><ele>45.0</ele><time>2026-03-28T08:56:39.999Z</time></trkpt><trkpt lat="45.10650062075459" lon="9.684854123987806"><ele>45.0</ele><time>2026-03-28T08:56:40.999Z</time></trkpt><trkpt lat="45.10640799140499" lon="9.684836090465742"><ele>45.0</ele><time>2026-03-28T08:56:41.999Z</time></trkpt><trkpt lat="45.10632227842327" lon="9.684818614037818"><ele>45.0</ele><time>2026-03-28T08:56:42.999Z</time></trkpt><trkpt lat="45.1062436308215" lon="9.684798267593735"><ele>45.0</ele><time>2026-03-28T08:56:43.999Z</time></trkpt><trkpt lat="45.106172622726895" lon="9.684773952613636"><ele>45.0</ele><time>2026-03-28T08:56:44.999Z</time></trkpt><trkpt lat="45.106110061319605" lon="9.684747735290864"><ele>45.0</ele><time>2026-03-28T08:56:45.999Z</time></trkpt><trkpt lat="45.10599997597473" lon="9.684690770931285"><ele>45.0</ele><time>2026-03-28T08:56:47.999Z</time></trkpt><trkpt lat="45.10588082809978" lon="9.684588067325594"><ele>45.0</ele><time>2026-03-28T08:56:49.999Z</time></trkpt><trkpt lat="45.105793372689114" lon="9.684548978686278"><ele>45.0</ele><time>2026-03-28T08:56:50.999Z</time></trkpt><trkpt lat="45.105687448995205" lon="9.684583020513037"><ele>45.0</ele><time>2026-03-28T08:56:51.999Z</time></trkpt><trkpt lat="45.10557818705604" lon="9.684593166899989"><ele>45.0</ele><time>2026-03-28T08:56:52.999Z</time></trkpt><trkpt lat="45.10544998382152" lon="9.684599079983238"><ele>45.0</ele><time>2026-03-28T08:56:53.999Z</time></trkpt><trkpt lat="45.10530697186903" lon="9.684602184736214"><ele>45.0</ele><time>2026-03-28T08:56:54.999Z</time></trkpt><trkpt lat="45.105165682836606" lon="9.684614649721562"><ele>45.0</ele><time>2026-03-28T08:56:55.999Z</time></trkpt><trkpt lat="45.1050287427144" lon="9.684633554601811"><ele>45.0</ele><time>2026-03-28T08:56:56.999Z</time></trkpt><trkpt lat="45.104882319106146" lon="9.684657752990251"><ele>45.0</ele><time>2026-03-28T08:56:57.999Z</time></trkpt><trkpt lat="45.104725337359675" lon="9.6846831315978"><ele>45.0</ele><time>2026-03-28T08:56:58.999Z</time></trkpt><trkpt lat="45.10457663383877" lon="9.684704371870458"><ele>45.0</ele><time>2026-03-28T08:56:59.999Z</time></trkpt><trkpt lat="45.1044400003655" lon="9.684726252433661"><ele>45.0</ele><time>2026-03-28T08:57:00.999Z</time></trkpt><trkpt lat="45.10429327861379" lon="9.684748246989232"><ele>45.0</ele><time>2026-03-28T08:57:01.999Z</time></trkpt><trkpt lat="45.104141234713445" lon="9.684765629962266"><ele>45.333333333333336</ele><time>2026-03-28T08:57:02.999Z</time></trkpt><trkpt lat="45.10398708267596" lon="9.684778862751221"><ele>45.66666666666667</ele><time>2026-03-28T08:57:03.999Z</time></trkpt><trkpt lat="45.10382800134609" lon="9.68479386868362"><ele>46.0</ele><time>2026-03-28T08:57:04.999Z</time></trkpt><trkpt lat="45.10366889498697" lon="9.684806072358123"><ele>46.0</ele><time>2026-03-28T08:57:05.999Z</time></trkpt><trkpt lat="45.103510126950894" lon="9.6848187053487"><ele>46.0</ele><time>2026-03-28T08:57:06.999Z</time></trkpt><trkpt lat="45.10335417781614" lon="9.684834256752874"><ele>46.0</ele><time>2026-03-28T08:57:07.999Z</time></trkpt><trkpt lat="45.10319899032269" lon="9.684821843356891"><ele>46.25</ele><time>2026-03-28T08:57:08.999Z</time></trkpt><trkpt lat="45.10304639332223" lon="9.684829038561768"><ele>46.5</ele><time>2026-03-28T08:57:09.999Z</time></trkpt><trkpt lat="45.10289961218777" lon="9.684837631876889"><ele>46.75</ele><time>2026-03-28T08:57:10.999Z</time></trkpt><trkpt lat="45.102753567629" lon="9.684868402983133"><ele>47.0</ele><time>2026-03-28T08:57:11.999Z</time></trkpt><trkpt lat="45.10261061077704" lon="9.684876056576089"><ele>47.0</ele><time>2026-03-28T08:57:12.999Z</time></trkpt><trkpt lat="45.10246920424661" lon="9.684884031936502"><ele>47.0</ele><time>2026-03-28T08:57:13.999Z</time></trkpt><trkpt lat="45.102328651657096" lon="9.684892202933797"><ele>47.0</ele><time>2026-03-28T08:57:14.999Z</time></trkpt><trkpt lat="45.10218862542616" lon="9.684898956566942"><ele>47.0</ele><time>2026-03-28T08:57:15.999Z</time></trkpt><trkpt lat="45.102048379714915" lon="9.684904576910968"><ele>46.25</ele><time>2026-03-28T08:57:16.999Z</time></trkpt><trkpt lat="45.10190913258487" lon="9.684907388417193"><ele>45.5</ele><time>2026-03-28T08:57:17.999Z</time></trkpt><trkpt lat="45.10177180147272" lon="9.684912722830463"><ele>44.75</ele><time>2026-03-28T08:57:18.999Z</time></trkpt><trkpt lat="45.10164691197609" lon="9.684922289412704"><ele>44.0</ele><time>2026-03-28T08:57:19.999Z</time></trkpt><trkpt lat="45.10153206786018" lon="9.684930221767521"><ele>44.0</ele><time>2026-03-28T08:57:20.999Z</time></trkpt><trkpt lat="45.101424756509964" lon="9.684935910640336"><ele>44.0</ele><time>2026-03-28T08:57:21.999Z</time></trkpt><trkpt lat="45.10132085058898" lon="9.684925097040916"><ele>44.0</ele><time>2026-03-28T08:57:22.999Z</time></trkpt><trkpt lat="45.10122061982362" lon="9.684876096514406"><ele>44.0</ele><time>2026-03-28T08:57:23.999Z</time></trkpt><trkpt lat="45.101127086730294" lon="9.684836529290882"><ele>44.0</ele><time>2026-03-28T08:57:24.999Z</time></trkpt><trkpt lat="45.10103944045573" lon="9.684873390640506"><ele>44.0</ele><time>2026-03-28T08:57:25.999Z</time></trkpt><trkpt lat="45.10095012099746" lon="9.684953761547394"><ele>44.0</ele><time>2026-03-28T08:57:26.999Z</time></trkpt><trkpt lat="45.10084514637836" lon="9.685026241264175"><ele>44.0</ele><time>2026-03-28T08:57:27.999Z</time></trkpt><trkpt lat="45.100730832385025" lon="9.68509933435802"><ele>44.0</ele><time>2026-03-28T08:57:28.999Z</time></trkpt><trkpt lat="45.100607808398024" lon="9.685183169324501"><ele>44.666666666666664</ele><time>2026-03-28T08:57:29.999Z</time></trkpt><trkpt lat="45.10047727482952" lon="9.685271715222301"><ele>45.333333333333336</ele><time>2026-03-28T08:57:30.999Z</time></trkpt><trkpt lat="45.10034319433679" lon="9.685367961880209"><ele>46.0</ele><time>2026-03-28T08:57:31.999Z</time></trkpt><trkpt lat="45.100206394528016" lon="9.68547286285182"><ele>46.0</ele><time>2026-03-28T08:57:32.999Z</time></trkpt><trkpt lat="45.100059891590945" lon="9.685561671192225"><ele>46.0</ele><time>2026-03-28T08:57:33.999Z</time></trkpt><trkpt lat="45.09992322417301" lon="9.685670796010914"><ele>46.0</ele><time>2026-03-28T08:57:34.999Z</time></trkpt><trkpt lat="45.09980125641824" lon="9.685789301161472"><ele>46.0</ele><time>2026-03-28T08:57:35.999Z</time></trkpt><trkpt lat="45.099667948382894" lon="9.68588496237812"><ele>46.0</ele><time>2026-03-28T08:57:37Z</time></trkpt><trkpt lat="45.09952681576537" lon="9.685964083902624"><ele>46.0</ele><time>2026-03-28T08:57:38Z</time></trkpt><trkpt lat="45.0993908982145" lon="9.686062883429349"><ele>46.0</ele><time>2026-03-28T08:57:39Z</time></trkpt><trkpt lat="45.09926846090366" lon="9.686196610502636"><ele>46.0</ele><time>2026-03-28T08:57:40Z</time></trkpt><trkpt lat="45.09913673023666" lon="9.68629375435776"><ele>46.0</ele><time>2026-03-28T08:57:41Z</time></trkpt><trkpt lat="45.0990069174172" lon="9.686390596032636"><ele>46.0</ele><time>2026-03-28T08:57:42Z</time></trkpt><trkpt lat="45.09887793580274" lon="9.686485980157595"><ele>46.0</ele><time>2026-03-28T08:57:43Z</time></trkpt><trkpt lat="45.09875068248835" lon="9.686581803553395"><ele>46.0</ele><time>2026-03-28T08:57:44Z</time></trkpt><trkpt lat="45.09862280924783" lon="9.686678042499423"><ele>46.0</ele><time>2026-03-28T08:57:45Z</time></trkpt><trkpt lat="45.098492606116956" lon="9.686777309714437"><ele>46.0</ele><time>2026-03-28T08:57:46Z</time></trkpt><trkpt lat="45.09836009887603" lon="9.686875751875066"><ele>46.0</ele><time>2026-03-28T08:57:47Z</time></trkpt><trkpt lat="45.09821992037967" lon="9.686947522174284"><ele>46.0</ele><time>2026-03-28T08:57:48Z</time></trkpt><trkpt lat="45.09810216289842" lon="9.687036916074167"><ele>46.0</ele><time>2026-03-28T08:57:49Z</time></trkpt><trkpt lat="45.09799336900466" lon="9.68711960677974"><ele>45.4</ele><time>2026-03-28T08:57:50Z</time></trkpt><trkpt lat="45.09789278669005" lon="9.687196056128434"><ele>44.8</ele><time>2026-03-28T08:57:51Z</time></trkpt><trkpt lat="45.097798112329635" lon="9.687268015035912"><ele>44.199999999999996</ele><time>2026-03-28T08:57:52Z</time></trkpt><trkpt lat="45.09770849684958" lon="9.687335167222068"><ele>43.599999999999994</ele><time>2026-03-28T08:57:53Z</time></trkpt><trkpt lat="45.09762864891331" lon="9.687394359950606"><ele>43.0</ele><time>2026-03-28T08:57:54Z</time></trkpt><trkpt lat="45.09755409417938" lon="9.687425075596535"><ele>43.0</ele><time>2026-03-28T08:57:55Z</time></trkpt><trkpt lat="45.09747679437351" lon="9.687411844301518"><ele>43.0</ele><time>2026-03-28T08:57:56Z</time></trkpt><trkpt lat="45.09739402640403" lon="9.687420119654831"><ele>43.0</ele><time>2026-03-28T08:57:57Z</time></trkpt><trkpt lat="45.09733193509988" lon="9.687476189454621"><ele>43.0</ele><time>2026-03-28T08:57:58Z</time></trkpt><trkpt lat="45.097287187259056" lon="9.687572554938377"><ele>43.0</ele><time>2026-03-28T08:57:59Z</time></trkpt><trkpt lat="45.097229232135774" lon="9.687708743662942"><ele>43.0</ele><time>2026-03-28T08:58:00Z</time></trkpt><trkpt lat="45.097136813181926" lon="9.687829621247868"><ele>43.75</ele><time>2026-03-28T08:58:01Z</time></trkpt><trkpt lat="45.09700082598817" lon="9.687878960750181"><ele>44.5</ele><time>2026-03-28T08:58:02Z</time></trkpt><trkpt lat="45.096869254988476" lon="9.68797883795799"><ele>45.25</ele><time>2026-03-28T08:58:03Z</time></trkpt><trkpt lat="45.09673101641672" lon="9.688083750594483"><ele>46.0</ele><time>2026-03-28T08:58:04Z</time></trkpt><trkpt lat="45.09658464959878" lon="9.688193888011126"><ele>47.0</ele><time>2026-03-28T08:58:05Z</time></trkpt><trkpt lat="45.09643191001252" lon="9.688304575116472"><ele>48.0</ele><time>2026-03-28T08:58:06Z</time></trkpt><trkpt lat="45.09626988177475" lon="9.688412485022752"><ele>49.0</ele><time>2026-03-28T08:58:07Z</time></trkpt><trkpt lat="45.09609949287369" lon="9.688505019152636"><ele>49.0</ele><time>2026-03-28T08:58:08Z</time></trkpt><trkpt lat="45.0959237185043" lon="9.688578022581515"><ele>49.0</ele><time>2026-03-28T08:58:09Z</time></trkpt><trkpt lat="45.095748212577355" lon="9.68863707336633"><ele>49.0</ele><time>2026-03-28T08:58:10Z</time></trkpt><trkpt lat="45.095578997438416" lon="9.688689376249235"><ele>48.33333333333333</ele><time>2026-03-28T08:58:11Z</time></trkpt><trkpt lat="45.09541467197457" lon="9.688740167715773"><ele>47.666666666666664</ele><time>2026-03-28T08:58:12Z</time></trkpt><trkpt lat="45.09524853273031" lon="9.688791519842743"><ele>47.0</ele><time>2026-03-28T08:58:13Z</time></trkpt><trkpt lat="45.09509460675903" lon="9.688839096970959"><ele>47.0</ele><time>2026-03-28T08:58:14Z</time></trkpt><trkpt lat="45.094950198669544" lon="9.688883732188613"><ele>47.0</ele><time>2026-03-28T08:58:15Z</time></trkpt><trkpt lat="45.09481083574072" lon="9.688926770294376"><ele>47.0</ele><time>2026-03-28T08:58:16Z</time></trkpt><trkpt lat="45.094673058570415" lon="9.688969295069782"><ele>47.0</ele><time>2026-03-28T08:58:17Z</time></trkpt><trkpt lat="45.09453762183985" lon="9.68903465052849"><ele>47.0</ele><time>2026-03-28T08:58:18Z</time></trkpt><trkpt lat="45.09439743109452" lon="9.689076668896753"><ele>47.0</ele><time>2026-03-28T08:58:19Z</time></trkpt><trkpt lat="45.09425699054907" lon="9.689115999469525"><ele>47.0</ele><time>2026-03-28T08:58:20Z</time></trkpt><trkpt lat="45.09411319784729" lon="9.689157442743698"><ele>47.0</ele><time>2026-03-28T08:58:21Z</time></trkpt><trkpt lat="45.09396749807726" lon="9.689203142403786"><ele>46.33333333333333</ele><time>2026-03-28T08:58:22Z</time></trkpt><trkpt lat="45.09381169238632" lon="9.689224195945105"><ele>45.666666666666664</ele><time>2026-03-28T08:58:23Z</time></trkpt><trkpt lat="45.09365861952905" lon="9.689291523074893"><ele>45.0</ele><time>2026-03-28T08:58:24Z</time></trkpt><trkpt lat="45.093497215791466" lon="9.689336483095294"><ele>45.0</ele><time>2026-03-28T08:58:25Z</time></trkpt><trkpt lat="45.093329430937715" lon="9.689363119456536"><ele>45.0</ele><time>2026-03-28T08:58:26Z</time></trkpt><trkpt lat="45.09315890655168" lon="9.689412851746876"><ele>45.0</ele><time>2026-03-28T08:58:27Z</time></trkpt><trkpt lat="45.092990222621246" lon="9.689487744432999"><ele>44.666666666666664</ele><time>2026-03-28T08:58:28Z</time></trkpt><trkpt lat="45.09281361654852" lon="9.689540585194969"><ele>44.33333333333333</ele><time>2026-03-28T08:58:29Z</time></trkpt><trkpt lat="45.09263431761048" lon="9.689596039761263"><ele>44.0</ele><time>2026-03-28T08:58:29.999Z</time></trkpt><trkpt lat="45.09245418038558" lon="9.689651295270266"><ele>44.33333333333333</ele><time>2026-03-28T08:58:30.999Z</time></trkpt><trkpt lat="45.09227860816281" lon="9.689714282554386"><ele>44.666666666666664</ele><time>2026-03-28T08:58:31.999Z</time></trkpt><trkpt lat="45.09209931318034" lon="9.689769114332234"><ele>45.0</ele><time>2026-03-28T08:58:32.999Z</time></trkpt><trkpt lat="45.09192171673988" lon="9.68982212570604"><ele>45.0</ele><time>2026-03-28T08:58:33.999Z</time></trkpt><trkpt lat="45.09174696409234" lon="9.689876874547188"><ele>45.0</ele><time>2026-03-28T08:58:34.999Z</time></trkpt><trkpt lat="45.09157066472207" lon="9.689908155696813"><ele>45.0</ele><time>2026-03-28T08:58:35.999Z</time></trkpt><trkpt lat="45.091403297845055" lon="9.689984784702858"><ele>45.0</ele><time>2026-03-28T08:58:36.999Z</time></trkpt><trkpt lat="45.0912321753003" lon="9.690027053418182"><ele>45.0</ele><time>2026-03-28T08:58:37.999Z</time></trkpt><trkpt lat="45.09105570932482" lon="9.690048317321802"><ele>45.0</ele><time>2026-03-28T08:58:38.999Z</time></trkpt><trkpt lat="45.090877383086855" lon="9.690042580243153"><ele>45.666666666666664</ele><time>2026-03-28T08:58:39.999Z</time></trkpt><trkpt lat="45.090695869784874" lon="9.690013822482465"><ele>46.33333333333333</ele><time>2026-03-28T08:58:40.999Z</time></trkpt><trkpt lat="45.090513783253435" lon="9.689970756493873"><ele>47.0</ele><time>2026-03-28T08:58:41.999Z</time></trkpt><trkpt lat="45.09032900833556" lon="9.689923232209356"><ele>47.0</ele><time>2026-03-28T08:58:42.999Z</time></trkpt><trkpt lat="45.09014178677241" lon="9.689879586916714"><ele>47.0</ele><time>2026-03-28T08:58:43.999Z</time></trkpt><trkpt lat="45.0899512444723" lon="9.68983777387669"><ele>47.0</ele><time>2026-03-28T08:58:44.999Z</time></trkpt><trkpt lat="45.089760483758766" lon="9.689793283516295"><ele>47.0</ele><time>2026-03-28T08:58:45.999Z</time></trkpt><trkpt lat="45.08956897840216" lon="9.689747027356661"><ele>47.0</ele><time>2026-03-28T08:58:46.999Z</time></trkpt><trkpt lat="45.08937785036734" lon="9.689702730161422"><ele>47.0</ele><time>2026-03-28T08:58:47.999Z</time></trkpt><trkpt lat="45.089186379009305" lon="9.689658081008435"><ele>46.666666666666664</ele><time>2026-03-28T08:58:48.999Z</time></trkpt><trkpt lat="45.089001076885715" lon="9.689590005657653"><ele>46.333333333333336</ele><time>2026-03-28T08:58:49.999Z</time></trkpt><trkpt lat="45.088809758049074" lon="9.689543725023686"><ele>46.0</ele><time>2026-03-28T08:58:50.999Z</time></trkpt><trkpt lat="45.088619636600676" lon="9.689497734011093"><ele>46.0</ele><time>2026-03-28T08:58:51.999Z</time></trkpt><trkpt lat="45.088430148552796" lon="9.6894518962789"><ele>46.0</ele><time>2026-03-28T08:58:52.999Z</time></trkpt><trkpt lat="45.08824199170573" lon="9.689406380477335"><ele>46.0</ele><time>2026-03-28T08:58:53.999Z</time></trkpt><trkpt lat="45.08805565548759" lon="9.689361305109463"><ele>46.0</ele><time>2026-03-28T08:58:54.999Z</time></trkpt><trkpt lat="45.08787152175907" lon="9.689316762551273"><ele>46.0</ele><time>2026-03-28T08:58:55.999Z</time></trkpt><trkpt lat="45.08768892169383" lon="9.689272535132964"><ele>46.0</ele><time>2026-03-28T08:58:56.999Z</time></trkpt><trkpt lat="45.08750528471802" lon="9.689227892143869"><ele>45.66666666666667</ele><time>2026-03-28T08:58:57.999Z</time></trkpt><trkpt lat="45.08732887468319" lon="9.689185748455216"><ele>45.333333333333336</ele><time>2026-03-28T08:58:58.999Z</time></trkpt><trkpt lat="45.087158469901645" lon="9.689149466387594"><ele>45.0</ele><time>2026-03-28T08:58:59.999Z</time></trkpt><trkpt lat="45.086989305927084" lon="9.689135534669738"><ele>45.0</ele><time>2026-03-28T08:59:00.999Z</time></trkpt><trkpt lat="45.08681981507244" lon="9.6891437604797"><ele>45.0</ele><time>2026-03-28T08:59:01.999Z</time></trkpt><trkpt lat="45.08664917220613" lon="9.689180953693668"><ele>45.0</ele><time>2026-03-28T08:59:02.999Z</time></trkpt><trkpt lat="45.0864823875239" lon="9.689242528265785"><ele>45.0</ele><time>2026-03-28T08:59:03.999Z</time></trkpt><trkpt lat="45.08631782994494" lon="9.689336019268776"><ele>45.0</ele><time>2026-03-28T08:59:04.999Z</time></trkpt><trkpt lat="45.086161498214864" lon="9.689445498643314"><ele>45.0</ele><time>2026-03-28T08:59:05.999Z</time></trkpt><trkpt lat="45.08600468634034" lon="9.68956040758806"><ele>45.0</ele><time>2026-03-28T08:59:06.999Z</time></trkpt><trkpt lat="45.08584686565168" lon="9.689675274976393"><ele>45.0</ele><time>2026-03-28T08:59:07.999Z</time></trkpt><trkpt lat="45.08568555406971" lon="9.68979010927392"><ele>45.0</ele><time>2026-03-28T08:59:08.999Z</time></trkpt><trkpt lat="45.08552341675411" lon="9.689905531360417"><ele>45.0</ele><time>2026-03-28T08:59:09.999Z</time></trkpt><trkpt lat="45.0853588793779" lon="9.690022409740727"><ele>45.0</ele><time>2026-03-28T08:59:10.999Z</time></trkpt><trkpt lat="45.085193644887845" lon="9.69014044152081"><ele>45.0</ele><time>2026-03-28T08:59:11.999Z</time></trkpt><trkpt lat="45.085032960499966" lon="9.690276579245584"><ele>45.333333333333336</ele><time>2026-03-28T08:59:12.999Z</time></trkpt><trkpt lat="45.08486570121062" lon="9.690396736895893"><ele>45.66666666666667</ele><time>2026-03-28T08:59:13.999Z</time></trkpt><trkpt lat="45.084698526779626" lon="9.69051541266094"><ele>46.0</ele><time>2026-03-28T08:59:14.999Z</time></trkpt><trkpt lat="45.08452807064094" lon="9.690615880544563"><ele>46.0</ele><time>2026-03-28T08:59:15.999Z</time></trkpt><trkpt lat="45.08436460980024" lon="9.690732480830203"><ele>46.0</ele><time>2026-03-28T08:59:16.999Z</time></trkpt><trkpt lat="45.084209098488174" lon="9.690868825828804"><ele>46.0</ele><time>2026-03-28T08:59:17.999Z</time></trkpt><trkpt lat="45.084038360672494" lon="9.690957272280574"><ele>46.66666666666667</ele><time>2026-03-28T08:59:18.999Z</time></trkpt><trkpt lat="45.08387151006164" lon="9.691063265424535"><ele>47.333333333333336</ele><time>2026-03-28T08:59:19.999Z</time></trkpt><trkpt lat="45.08370418813044" lon="9.691169457686525"><ele>48.0</ele><time>2026-03-28T08:59:20.999Z</time></trkpt><trkpt lat="45.08353571994864" lon="9.691271059959343"><ele>48.0</ele><time>2026-03-28T08:59:21.999Z</time></trkpt><trkpt lat="45.083367378876076" lon="9.691372893081763"><ele>48.0</ele><time>2026-03-28T08:59:22.999Z</time></trkpt><trkpt lat="45.08320008928435" lon="9.691472654601057"><ele>48.0</ele><time>2026-03-28T08:59:23.999Z</time></trkpt><trkpt lat="45.083051341248314" lon="9.691625181709046"><ele>48.0</ele><time>2026-03-28T08:59:24.999Z</time></trkpt><trkpt lat="45.08290997419326" lon="9.69175949351541"><ele>48.0</ele><time>2026-03-28T08:59:25.999Z</time></trkpt><trkpt lat="45.082783457998275" lon="9.691893527109011"><ele>48.0</ele><time>2026-03-28T08:59:26.999Z</time></trkpt><trkpt lat="45.082522977180844" lon="9.691904364557223"><ele>48.33333333333333</ele><time>2026-03-28T08:59:27.999Z</time></trkpt><trkpt lat="45.08235169306982" lon="9.692009667527934"><ele>48.666666666666664</ele><time>2026-03-28T08:59:28.999Z</time></trkpt><trkpt lat="45.082177545963454" lon="9.69211101614855"><ele>49.0</ele><time>2026-03-28T08:59:29.999Z</time></trkpt><trkpt lat="45.08200249783874" lon="9.692205809424477"><ele>49.0</ele><time>2026-03-28T08:59:30.999Z</time></trkpt><trkpt lat="45.0818260158538" lon="9.69227773796885"><ele>49.0</ele><time>2026-03-28T08:59:31.999Z</time></trkpt><trkpt lat="45.08164273739834" lon="9.692244627030073"><ele>49.0</ele><time>2026-03-28T08:59:32.999Z</time></trkpt><trkpt lat="45.08146808977458" lon="9.69226041303914"><ele>48.0</ele><time>2026-03-28T08:59:33.999Z</time></trkpt><trkpt lat="45.08130210792095" lon="9.692279780269027"><ele>47.0</ele><time>2026-03-28T08:59:34.999Z</time></trkpt><trkpt lat="45.08113362356053" lon="9.692312384060179"><ele>46.0</ele><time>2026-03-28T08:59:35.999Z</time></trkpt><trkpt lat="45.08096920375652" lon="9.692386790463612"><ele>46.0</ele><time>2026-03-28T08:59:36.999Z</time></trkpt><trkpt lat="45.08081768276212" lon="9.69248480380462"><ele>46.0</ele><time>2026-03-28T08:59:37.999Z</time></trkpt><trkpt lat="45.08067955497766" lon="9.69262560016914"><ele>46.0</ele><time>2026-03-28T08:59:38.999Z</time></trkpt><trkpt lat="45.08056057543812" lon="9.692820229723909"><ele>46.333333333333336</ele><time>2026-03-28T08:59:39.999Z</time></trkpt><trkpt lat="45.080477438659365" lon="9.693047913160395"><ele>46.666666666666664</ele><time>2026-03-28T08:59:40.999Z</time></trkpt><trkpt lat="45.080419894937776" lon="9.693291879965788"><ele>47.0</ele><time>2026-03-28T08:59:41.999Z</time></trkpt><trkpt lat="45.08037005982852" lon="9.693538702792502"><ele>46.666666666666664</ele><time>2026-03-28T08:59:43Z</time></trkpt><trkpt lat="45.080315504928116" lon="9.693781709269135"><ele>46.333333333333336</ele><time>2026-03-28T08:59:44Z</time></trkpt><trkpt lat="45.080256527478554" lon="9.694026462425347"><ele>46.0</ele><time>2026-03-28T08:59:45Z</time></trkpt><trkpt lat="45.080197134612106" lon="9.694269721593756"><ele>46.333333333333336</ele><time>2026-03-28T08:59:46Z</time></trkpt><trkpt lat="45.08013356633249" lon="9.694513133459717"><ele>46.666666666666664</ele><time>2026-03-28T08:59:47Z</time></trkpt><trkpt lat="45.08007295425201" lon="9.694755628342723"><ele>47.0</ele><time>2026-03-28T08:59:48Z</time></trkpt><trkpt lat="45.080009481373" lon="9.69499425298833"><ele>47.0</ele><time>2026-03-28T08:59:49Z</time></trkpt><trkpt lat="45.07994352422168" lon="9.695232824041328"><ele>47.0</ele><time>2026-03-28T08:59:50Z</time></trkpt><trkpt lat="45.07987206917974" lon="9.695466900077758"><ele>47.0</ele><time>2026-03-28T08:59:51Z</time></trkpt><trkpt lat="45.07980868495346" lon="9.695705743760268"><ele>46.666666666666664</ele><time>2026-03-28T08:59:52Z</time></trkpt><trkpt lat="45.07974654600286" lon="9.695943487414352"><ele>46.333333333333336</ele><time>2026-03-28T08:59:53Z</time></trkpt><trkpt lat="45.079682322096815" lon="9.696182341411873"><ele>46.0</ele><time>2026-03-28T08:59:54Z</time></trkpt><trkpt lat="45.07961829801081" lon="9.696420019386249"><ele>46.0</ele><time>2026-03-28T08:59:55Z</time></trkpt><trkpt lat="45.07955321186775" lon="9.696654788223"><ele>46.0</ele><time>2026-03-28T08:59:56Z</time></trkpt><trkpt lat="45.07948433425524" lon="9.69689195029222"><ele>46.0</ele><time>2026-03-28T08:59:57Z</time></trkpt><trkpt lat="45.07940832840916" lon="9.697125416192547"><ele>46.333333333333336</ele><time>2026-03-28T08:59:58Z</time></trkpt><trkpt lat="45.07934284122376" lon="9.697362314902906"><ele>46.666666666666664</ele><time>2026-03-28T08:59:59Z</time></trkpt><trkpt lat="45.07927729998094" lon="9.697599409175039"><ele>47.0</ele><time>2026-03-28T09:00:00Z</time></trkpt><trkpt lat="45.079211731021125" lon="9.697836603707788"><ele>47.0</ele><time>2026-03-28T09:00:01Z</time></trkpt><trkpt lat="45.07914624438157" lon="9.698073500441621"><ele>47.0</ele><time>2026-03-28T09:00:02Z</time></trkpt><trkpt lat="45.07908113203282" lon="9.698310447901958"><ele>47.0</ele><time>2026-03-28T09:00:03Z</time></trkpt><trkpt lat="45.079031845768434" lon="9.698556016231981"><ele>46.33333333333333</ele><time>2026-03-28T09:00:04Z</time></trkpt><trkpt lat="45.07895181054464" lon="9.698785697691964"><ele>45.666666666666664</ele><time>2026-03-28T09:00:05Z</time></trkpt><trkpt lat="45.07888770457667" lon="9.699021283771291"><ele>45.0</ele><time>2026-03-28T09:00:06Z</time></trkpt><trkpt lat="45.078822358192205" lon="9.69926142842211"><ele>45.0</ele><time>2026-03-28T09:00:07Z</time></trkpt><trkpt lat="45.0787567966501" lon="9.699498595869947"><ele>45.0</ele><time>2026-03-28T09:00:08Z</time></trkpt><trkpt lat="45.0787053701046" lon="9.699744933468146"><ele>45.0</ele><time>2026-03-28T09:00:09Z</time></trkpt><trkpt lat="45.078640295064694" lon="9.699982523840038"><ele>45.0</ele><time>2026-03-28T09:00:10Z</time></trkpt><trkpt lat="45.07855942247006" lon="9.700211322729123"><ele>45.0</ele><time>2026-03-28T09:00:11Z</time></trkpt><trkpt lat="45.07849402511947" lon="9.700447284351846"><ele>45.0</ele><time>2026-03-28T09:00:12Z</time></trkpt><trkpt lat="45.078427120057285" lon="9.700684996189976"><ele>45.333333333333336</ele><time>2026-03-28T09:00:13Z</time></trkpt><trkpt lat="45.07835939126665" lon="9.700922312174669"><ele>45.66666666666667</ele><time>2026-03-28T09:00:14Z</time></trkpt><trkpt lat="45.07830487447327" lon="9.701160724413747"><ele>46.0</ele><time>2026-03-28T09:00:15Z</time></trkpt><trkpt lat="45.07823377565752" lon="9.70137332775338"><ele>46.0</ele><time>2026-03-28T09:00:16Z</time></trkpt><trkpt lat="45.07816314667668" lon="9.701574296713133"><ele>46.0</ele><time>2026-03-28T09:00:17Z</time></trkpt><trkpt lat="45.078099074851" lon="9.701762437422218"><ele>46.0</ele><time>2026-03-28T09:00:18Z</time></trkpt><trkpt lat="45.07802131630843" lon="9.70192619786815"><ele>46.0</ele><time>2026-03-28T09:00:19Z</time></trkpt><trkpt lat="45.07795882238695" lon="9.702088798410605"><ele>45.5</ele><time>2026-03-28T09:00:20Z</time></trkpt><trkpt lat="45.07790117822513" lon="9.702238857579973"><ele>45.0</ele><time>2026-03-28T09:00:21Z</time></trkpt><trkpt lat="45.07785681244312" lon="9.702400072932951"><ele>44.5</ele><time>2026-03-28T09:00:22Z</time></trkpt><trkpt lat="45.077778426803995" lon="9.702550618328319"><ele>44.0</ele><time>2026-03-28T09:00:23Z</time></trkpt><trkpt lat="45.077710978787316" lon="9.702706514342243"><ele>43.75</ele><time>2026-03-28T09:00:24Z</time></trkpt><trkpt lat="45.077643276504155" lon="9.702850177420565"><ele>43.5</ele><time>2026-03-28T09:00:25Z</time></trkpt><trkpt lat="45.07757578603353" lon="9.702982249861547"><ele>43.25</ele><time>2026-03-28T09:00:26Z</time></trkpt><trkpt lat="45.07750760806413" lon="9.70311015272981"><ele>43.0</ele><time>2026-03-28T09:00:27Z</time></trkpt><trkpt lat="45.077481200373946" lon="9.703271871859789"><ele>43.16666666666667</ele><time>2026-03-28T09:00:28Z</time></trkpt><trkpt lat="45.077427032896864" lon="9.703376289448503"><ele>43.333333333333336</ele><time>2026-03-28T09:00:29Z</time></trkpt><trkpt lat="45.07737559529433" lon="9.703461371247805"><ele>43.5</ele><time>2026-03-28T09:00:29.999Z</time></trkpt><trkpt lat="45.077330742237294" lon="9.703534167795226"><ele>43.666666666666664</ele><time>2026-03-28T09:00:30.999Z</time></trkpt><trkpt lat="45.07728162954115" lon="9.703610331438165"><ele>43.83333333333333</ele><time>2026-03-28T09:00:31.999Z</time></trkpt><trkpt lat="45.07722320951999" lon="9.703694978108484"><ele>44.0</ele><time>2026-03-28T09:00:32.999Z</time></trkpt><trkpt lat="45.07715255758602" lon="9.703759119159214"><ele>44.2</ele><time>2026-03-28T09:00:33.999Z</time></trkpt><trkpt lat="45.07708205044987" lon="9.703836186831257"><ele>44.400000000000006</ele><time>2026-03-28T09:00:34.999Z</time></trkpt><trkpt lat="45.077026105409836" lon="9.703936464312566"><ele>44.6</ele><time>2026-03-28T09:00:35.999Z</time></trkpt><trkpt lat="45.07700471881674" lon="9.704064242342527"><ele>44.8</ele><time>2026-03-28T09:00:36.999Z</time></trkpt><trkpt lat="45.07698989528913" lon="9.70419385369004"><ele>45.0</ele><time>2026-03-28T09:00:37.999Z</time></trkpt><trkpt lat="45.0769449062271" lon="9.70430911264703"><ele>45.0</ele><time>2026-03-28T09:00:38.999Z</time></trkpt><trkpt lat="45.076862946596" lon="9.704405489150865"><ele>45.0</ele><time>2026-03-28T09:00:39.999Z</time></trkpt><trkpt lat="45.07676167192371" lon="9.704485633509925"><ele>45.0</ele><time>2026-03-28T09:00:40.999Z</time></trkpt><trkpt lat="45.076642062702696" lon="9.704533081670482"><ele>45.0</ele><time>2026-03-28T09:00:41.999Z</time></trkpt><trkpt lat="45.07653614532419" lon="9.704619167679414"><ele>45.75</ele><time>2026-03-28T09:00:42.999Z</time></trkpt><trkpt lat="45.07643475177609" lon="9.704726158785636"><ele>46.5</ele><time>2026-03-28T09:00:43.999Z</time></trkpt><trkpt lat="45.076323483183266" lon="9.704820362874981"><ele>47.25</ele><time>2026-03-28T09:00:44.999Z</time></trkpt><trkpt lat="45.07619632157756" lon="9.704883217038562"><ele>48.0</ele><time>2026-03-28T09:00:45.999Z</time></trkpt><trkpt lat="45.07607296961933" lon="9.704976375556107"><ele>48.0</ele><time>2026-03-28T09:00:46.999Z</time></trkpt><trkpt lat="45.07595015340989" lon="9.705075125244168"><ele>48.0</ele><time>2026-03-28T09:00:47.999Z</time></trkpt><trkpt lat="45.075824934257746" lon="9.705179018937745"><ele>48.0</ele><time>2026-03-28T09:00:48.999Z</time></trkpt><trkpt lat="45.07569833515477" lon="9.705284019838587"><ele>48.0</ele><time>2026-03-28T09:00:49.999Z</time></trkpt><trkpt lat="45.075568868919056" lon="9.705391398617815"><ele>48.0</ele><time>2026-03-28T09:00:50.999Z</time></trkpt><trkpt lat="45.07543449297829" lon="9.70550232088179"><ele>48.0</ele><time>2026-03-28T09:00:51.999Z</time></trkpt><trkpt lat="45.07529873307078" lon="9.705613813848688"><ele>48.0</ele><time>2026-03-28T09:00:52.999Z</time></trkpt><trkpt lat="45.075160746102576" lon="9.705726123048324"><ele>48.0</ele><time>2026-03-28T09:00:53.999Z</time></trkpt><trkpt lat="45.07502021861213" lon="9.705837652008487"><ele>48.0</ele><time>2026-03-28T09:00:54.999Z</time></trkpt><trkpt lat="45.07487733021349" lon="9.705951453815322"><ele>48.0</ele><time>2026-03-28T09:00:55.999Z</time></trkpt><trkpt lat="45.074733440539845" lon="9.706067095481684"><ele>47.666666666666664</ele><time>2026-03-28T09:00:56.999Z</time></trkpt><trkpt lat="45.07458662735443" lon="9.706185504748548"><ele>47.33333333333333</ele><time>2026-03-28T09:00:57.999Z</time></trkpt><trkpt lat="45.074435870012074" lon="9.706307095167318"><ele>47.0</ele><time>2026-03-28T09:00:58.999Z</time></trkpt><trkpt lat="45.07428407062144" lon="9.706429309549648"><ele>47.0</ele><time>2026-03-28T09:00:59.999Z</time></trkpt><trkpt lat="45.07413025887675" lon="9.706553107184195"><ele>47.0</ele><time>2026-03-28T09:01:00.999Z</time></trkpt><trkpt lat="45.07397495691954" lon="9.706678104301718"><ele>47.0</ele><time>2026-03-28T09:01:01.999Z</time></trkpt><trkpt lat="45.07381754703377" lon="9.706804780438764"><ele>47.33333333333333</ele><time>2026-03-28T09:01:02.999Z</time></trkpt><trkpt lat="45.07365698271368" lon="9.706933945114944"><ele>47.666666666666664</ele><time>2026-03-28T09:01:03.999Z</time></trkpt><trkpt lat="45.0734917227905" lon="9.707066925719367"><ele>48.0</ele><time>2026-03-28T09:01:04.999Z</time></trkpt><trkpt lat="45.07332518800799" lon="9.707201204721772"><ele>47.0</ele><time>2026-03-28T09:01:05.999Z</time></trkpt><trkpt lat="45.07315552675792" lon="9.70733800463564"><ele>46.0</ele><time>2026-03-28T09:01:06.999Z</time></trkpt><trkpt lat="45.072985434613" lon="9.707475151988783"><ele>45.0</ele><time>2026-03-28T09:01:07.999Z</time></trkpt><trkpt lat="45.07281264138033" lon="9.707615016592724"><ele>45.666666666666664</ele><time>2026-03-28T09:01:08.999Z</time></trkpt><trkpt lat="45.07263938311238" lon="9.707755273265414"><ele>46.33333333333333</ele><time>2026-03-28T09:01:09.999Z</time></trkpt><trkpt lat="45.07246811993067" lon="9.707893914922234"><ele>47.0</ele><time>2026-03-28T09:01:10.999Z</time></trkpt><trkpt lat="45.07230301510593" lon="9.708051149185362"><ele>47.0</ele><time>2026-03-28T09:01:11.999Z</time></trkpt><trkpt lat="45.072128889408" lon="9.70819085332061"><ele>47.0</ele><time>2026-03-28T09:01:12.999Z</time></trkpt><trkpt lat="45.07195917004911" lon="9.708330235918238"><ele>47.0</ele><time>2026-03-28T09:01:13.999Z</time></trkpt><trkpt lat="45.07178880944594" lon="9.708473291336643"><ele>47.0</ele><time>2026-03-28T09:01:14.999Z</time></trkpt><trkpt lat="45.071617297550745" lon="9.708613037874162"><ele>47.0</ele><time>2026-03-28T09:01:15.999Z</time></trkpt><trkpt lat="45.07144325447797" lon="9.70875096365475"><ele>47.0</ele><time>2026-03-28T09:01:16.999Z</time></trkpt><trkpt lat="45.07127214743676" lon="9.708889740512994"><ele>47.666666666666664</ele><time>2026-03-28T09:01:17.999Z</time></trkpt><trkpt lat="45.07110033590164" lon="9.709029085991627"><ele>48.33333333333333</ele><time>2026-03-28T09:01:18.999Z</time></trkpt><trkpt lat="45.07092954780751" lon="9.709167254808786"><ele>49.0</ele><time>2026-03-28T09:01:19.999Z</time></trkpt><trkpt lat="45.07076811636004" lon="9.70929827631201"><ele>49.0</ele><time>2026-03-28T09:01:20.999Z</time></trkpt><trkpt lat="45.07061349507246" lon="9.709423427858093"><ele>49.0</ele><time>2026-03-28T09:01:21.999Z</time></trkpt><trkpt lat="45.07046266290221" lon="9.709540024112174"><ele>49.0</ele><time>2026-03-28T09:01:22.999Z</time></trkpt><trkpt lat="45.07030854346588" lon="9.7096468761762"><ele>49.0</ele><time>2026-03-28T09:01:23.999Z</time></trkpt><trkpt lat="45.07013969820868" lon="9.70968731139766"><ele>49.0</ele><time>2026-03-28T09:01:24.999Z</time></trkpt><trkpt lat="45.06997902442138" lon="9.70970300731414"><ele>49.0</ele><time>2026-03-28T09:01:25.999Z</time></trkpt><trkpt lat="45.069819182552976" lon="9.709695254943338"><ele>49.666666666666664</ele><time>2026-03-28T09:01:26.999Z</time></trkpt><trkpt lat="45.069656678336905" lon="9.709689114883467"><ele>50.33333333333333</ele><time>2026-03-28T09:01:27.999Z</time></trkpt><trkpt lat="45.06950123662667" lon="9.709614799357826"><ele>51.0</ele><time>2026-03-28T09:01:28.999Z</time></trkpt><trkpt lat="45.06935180819757" lon="9.709526431898258"><ele>51.0</ele><time>2026-03-28T09:01:29.999Z</time></trkpt><trkpt lat="45.06920374331539" lon="9.7094234618836"><ele>51.0</ele><time>2026-03-28T09:01:30.999Z</time></trkpt><trkpt lat="45.069056869100145" lon="9.709317257243796"><ele>51.0</ele><time>2026-03-28T09:01:31.999Z</time></trkpt><trkpt lat="45.06891316553602" lon="9.709212052449214"><ele>50.66666666666667</ele><time>2026-03-28T09:01:32.999Z</time></trkpt><trkpt lat="45.06876695833603" lon="9.709104040853521"><ele>50.333333333333336</ele><time>2026-03-28T09:01:33.999Z</time></trkpt><trkpt lat="45.0686208634042" lon="9.708996270920187"><ele>50.0</ele><time>2026-03-28T09:01:34.999Z</time></trkpt><trkpt lat="45.068472643428755" lon="9.708886065378266"><ele>50.0</ele><time>2026-03-28T09:01:35.999Z</time></trkpt><trkpt lat="45.068322593283455" lon="9.70877486283608"><ele>50.0</ele><time>2026-03-28T09:01:36.999Z</time></trkpt><trkpt lat="45.06817237159236" lon="9.708663940993825"><ele>50.0</ele><time>2026-03-28T09:01:37.999Z</time></trkpt><trkpt lat="45.06802053333466" lon="9.708552231299969"><ele>49.333333333333336</ele><time>2026-03-28T09:01:38.999Z</time></trkpt><trkpt lat="45.06786599865784" lon="9.708438484539672"><ele>48.66666666666667</ele><time>2026-03-28T09:01:39.999Z</time></trkpt><trkpt lat="45.06771172860696" lon="9.708324930905071"><ele>48.0</ele><time>2026-03-28T09:01:40.999Z</time></trkpt><trkpt lat="45.06754699217746" lon="9.708229741021267"><ele>48.0</ele><time>2026-03-28T09:01:41.999Z</time></trkpt><trkpt lat="45.06739718397865" lon="9.70809299098762"><ele>48.0</ele><time>2026-03-28T09:01:42.999Z</time></trkpt><trkpt lat="45.06723736733218" lon="9.707976930898369"><ele>48.0</ele><time>2026-03-28T09:01:43.999Z</time></trkpt><trkpt lat="45.06707798741567" lon="9.707861180718613"><ele>48.0</ele><time>2026-03-28T09:01:44.999Z</time></trkpt><trkpt lat="45.066909615407596" lon="9.707764868901492"><ele>48.0</ele><time>2026-03-28T09:01:45.999Z</time></trkpt><trkpt lat="45.066747868468696" lon="9.707645764637622"><ele>48.0</ele><time>2026-03-28T09:01:46.998Z</time></trkpt><trkpt lat="45.06658509715065" lon="9.70752813681309"><ele>47.333333333333336</ele><time>2026-03-28T09:01:47.998Z</time></trkpt><trkpt lat="45.06642749883045" lon="9.707388353016155"><ele>46.66666666666667</ele><time>2026-03-28T09:01:49Z</time></trkpt><trkpt lat="45.06626278676146" lon="9.707268905681294"><ele>46.0</ele><time>2026-03-28T09:01:50Z</time></trkpt><trkpt lat="45.0660885903297" lon="9.707167666902404"><ele>46.0</ele><time>2026-03-28T09:01:51Z</time></trkpt><trkpt lat="45.06592322060818" lon="9.707047752665028"><ele>46.0</ele><time>2026-03-28T09:01:52Z</time></trkpt><trkpt lat="45.06575733873977" lon="9.706925687930505"><ele>46.0</ele><time>2026-03-28T09:01:53Z</time></trkpt><trkpt lat="45.06559095919337" lon="9.706804613726764"><ele>45.66666666666667</ele><time>2026-03-28T09:01:54Z</time></trkpt><trkpt lat="45.06543480530077" lon="9.70666459231446"><ele>45.333333333333336</ele><time>2026-03-28T09:01:55Z</time></trkpt><trkpt lat="45.065276242120554" lon="9.706548664399538"><ele>45.0</ele><time>2026-03-28T09:01:56Z</time></trkpt><trkpt lat="45.06512236788939" lon="9.706436164654816"><ele>45.0</ele><time>2026-03-28T09:01:57Z</time></trkpt><trkpt lat="45.06496404734146" lon="9.70634458323039"><ele>45.0</ele><time>2026-03-28T09:01:58Z</time></trkpt><trkpt lat="45.064816876834605" lon="9.70623512442921"><ele>45.0</ele><time>2026-03-28T09:01:59Z</time></trkpt><trkpt lat="45.06467141939964" lon="9.70612845812598"><ele>46.33333333333333</ele><time>2026-03-28T09:02:00Z</time></trkpt><trkpt lat="45.0645306219877" lon="9.706026707123865"><ele>47.666666666666664</ele><time>2026-03-28T09:02:01Z</time></trkpt><trkpt lat="45.06438894915505" lon="9.705926205299118"><ele>49.0</ele><time>2026-03-28T09:02:02Z</time></trkpt><trkpt lat="45.064249903960516" lon="9.70582382025254"><ele>48.0</ele><time>2026-03-28T09:02:03Z</time></trkpt><trkpt lat="45.06411121814788" lon="9.705723245315783"><ele>47.0</ele><time>2026-03-28T09:02:04Z</time></trkpt><trkpt lat="45.06397573496751" lon="9.705624127253483"><ele>46.0</ele><time>2026-03-28T09:02:05Z</time></trkpt><trkpt lat="45.063840868055216" lon="9.705526780435527"><ele>46.0</ele><time>2026-03-28T09:02:06Z</time></trkpt><trkpt lat="45.063708314522565" lon="9.705429004643257"><ele>46.0</ele><time>2026-03-28T09:02:07Z</time></trkpt><trkpt lat="45.06357610231544" lon="9.705331546810072"><ele>46.0</ele><time>2026-03-28T09:02:08Z</time></trkpt><trkpt lat="45.06344275000506" lon="9.705235509486366"><ele>46.0</ele><time>2026-03-28T09:02:09Z</time></trkpt><trkpt lat="45.06331930561069" lon="9.70511981484841"><ele>47.0</ele><time>2026-03-28T09:02:10Z</time></trkpt><trkpt lat="45.063187014427456" lon="9.70502297119476"><ele>48.0</ele><time>2026-03-28T09:02:11Z</time></trkpt><trkpt lat="45.06305434169217" lon="9.704925850245335"><ele>49.0</ele><time>2026-03-28T09:02:12Z</time></trkpt><trkpt lat="45.06291462255311" lon="9.704846560676513"><ele>50.0</ele><time>2026-03-28T09:02:13Z</time></trkpt><trkpt lat="45.062779393558664" lon="9.704747649399332"><ele>50.0</ele><time>2026-03-28T09:02:14Z</time></trkpt><trkpt lat="45.06264388356923" lon="9.704647447481918"><ele>50.0</ele><time>2026-03-28T09:02:15Z</time></trkpt><trkpt lat="45.062508088936035" lon="9.704546463972312"><ele>50.0</ele><time>2026-03-28T09:02:16Z</time></trkpt><trkpt lat="45.0623706164644" lon="9.704445781139055"><ele>49.0</ele><time>2026-03-28T09:02:17Z</time></trkpt><trkpt lat="45.06223230429567" lon="9.704346302318983"><ele>48.0</ele><time>2026-03-28T09:02:18Z</time></trkpt><trkpt lat="45.062092546371666" lon="9.704244966518587"><ele>47.0</ele><time>2026-03-28T09:02:19Z</time></trkpt><trkpt lat="45.061950728962294" lon="9.704140251298721"><ele>47.0</ele><time>2026-03-28T09:02:20Z</time></trkpt><trkpt lat="45.06180835336587" lon="9.704035843275564"><ele>47.0</ele><time>2026-03-28T09:02:21Z</time></trkpt><trkpt lat="45.06166307745809" lon="9.703932323232458"><ele>47.0</ele><time>2026-03-28T09:02:22Z</time></trkpt><trkpt lat="45.061514359357155" lon="9.703824107990147"><ele>45.33333333333333</ele><time>2026-03-28T09:02:23Z</time></trkpt><trkpt lat="45.0613674714254" lon="9.7037094040616"><ele>43.666666666666664</ele><time>2026-03-28T09:02:24Z</time></trkpt><trkpt lat="45.06121707967396" lon="9.703601915942356"><ele>42.0</ele><time>2026-03-28T09:02:25Z</time></trkpt><trkpt lat="45.06107083132318" lon="9.703474774926436"><ele>41.666666666666664</ele><time>2026-03-28T09:02:26Z</time></trkpt><trkpt lat="45.06091669518966" lon="9.703362450648566"><ele>41.33333333333333</ele><time>2026-03-28T09:02:27Z</time></trkpt><trkpt lat="45.06076268037667" lon="9.703250214700457"><ele>41.0</ele><time>2026-03-28T09:02:28Z</time></trkpt><trkpt lat="45.06061041844134" lon="9.703139256208226"><ele>41.0</ele><time>2026-03-28T09:02:29Z</time></trkpt><trkpt lat="45.06046031371766" lon="9.703030284130122"><ele>41.0</ele><time>2026-03-28T09:02:30Z</time></trkpt><trkpt lat="45.06031742980454" lon="9.702926856419841"><ele>41.0</ele><time>2026-03-28T09:02:31Z</time></trkpt><trkpt lat="45.06018169698633" lon="9.702828605105417"><ele>41.0</ele><time>2026-03-28T09:02:32Z</time></trkpt><trkpt lat="45.06004074297838" lon="9.702751456129516"><ele>41.0</ele><time>2026-03-28T09:02:33Z</time></trkpt><trkpt lat="45.059907424236926" lon="9.702652168239633"><ele>41.0</ele><time>2026-03-28T09:02:34Z</time></trkpt><trkpt lat="45.05977367620017" lon="9.702554516641577"><ele>45.0</ele><time>2026-03-28T09:02:35Z</time></trkpt><trkpt lat="45.05963922965842" lon="9.702454488474498"><ele>49.0</ele><time>2026-03-28T09:02:36Z</time></trkpt><trkpt lat="45.0595084914563" lon="9.702347588231044"><ele>53.0</ele><time>2026-03-28T09:02:37Z</time></trkpt><trkpt lat="45.059381130098494" lon="9.702231157365292"><ele>53.0</ele><time>2026-03-28T09:02:38Z</time></trkpt><trkpt lat="45.05925895697746" lon="9.702101414968915"><ele>53.0</ele><time>2026-03-28T09:02:38.999Z</time></trkpt><trkpt lat="45.05914613124743" lon="9.70196713122353"><ele>53.0</ele><time>2026-03-28T09:02:39.999Z</time></trkpt><trkpt lat="45.0590391463423" lon="9.701835660510458"><ele>53.0</ele><time>2026-03-28T09:02:40.999Z</time></trkpt><trkpt lat="45.05893811759988" lon="9.701710166043844"><ele>52.5</ele><time>2026-03-28T09:02:41.999Z</time></trkpt><trkpt lat="45.058843999619455" lon="9.70159026352584"><ele>52.0</ele><time>2026-03-28T09:02:42.999Z</time></trkpt><trkpt lat="45.05874910463207" lon="9.70147102077274"><ele>51.5</ele><time>2026-03-28T09:02:43.999Z</time></trkpt><trkpt lat="45.05866244347468" lon="9.701359542347713"><ele>51.0</ele><time>2026-03-28T09:02:44.999Z</time></trkpt><trkpt lat="45.058576051554454" lon="9.701248628837032"><ele>51.0</ele><time>2026-03-28T09:02:45.999Z</time></trkpt><trkpt lat="45.05848931838178" lon="9.701136085650194"><ele>51.0</ele><time>2026-03-28T09:02:46.999Z</time></trkpt><trkpt lat="45.058403565380054" lon="9.701027090490847"><ele>51.0</ele><time>2026-03-28T09:02:47.999Z</time></trkpt><trkpt lat="45.05832144149209" lon="9.70092307565812"><ele>51.0</ele><time>2026-03-28T09:02:48.999Z</time></trkpt><trkpt lat="45.05824176360798" lon="9.700819889817565"><ele>51.599999999999994</ele><time>2026-03-28T09:02:49.999Z</time></trkpt><trkpt lat="45.05816519633123" lon="9.70072251663507"><ele>52.2</ele><time>2026-03-28T09:02:50.999Z</time></trkpt><trkpt lat="45.058091869935154" lon="9.700628383981899"><ele>52.800000000000004</ele><time>2026-03-28T09:02:51.999Z</time></trkpt><trkpt lat="45.05802143774025" lon="9.700537279248055"><ele>53.400000000000006</ele><time>2026-03-28T09:02:52.999Z</time></trkpt><trkpt lat="45.057954275988706" lon="9.700448394158206"><ele>54.0</ele><time>2026-03-28T09:02:53.999Z</time></trkpt><trkpt lat="45.057889744085706" lon="9.700364385613433"><ele>54.0</ele><time>2026-03-28T09:02:54.999Z</time></trkpt><trkpt lat="45.05782637011105" lon="9.700282485075942"><ele>54.0</ele><time>2026-03-28T09:02:55.999Z</time></trkpt><trkpt lat="45.057766420168235" lon="9.700204638904474"><ele>54.0</ele><time>2026-03-28T09:02:56.999Z</time></trkpt><trkpt lat="45.05771029033854" lon="9.700131383581587"><ele>54.0</ele><time>2026-03-28T09:02:57.999Z</time></trkpt><trkpt lat="45.05765969509926" lon="9.700061484433558"><ele>54.0</ele><time>2026-03-28T09:02:58.999Z</time></trkpt><trkpt lat="45.05762094759735" lon="9.699986294982445"><ele>54.0</ele><time>2026-03-28T09:02:59.999Z</time></trkpt><trkpt lat="45.05758372792237" lon="9.699852942482435"><ele>53.666666666666664</ele><time>2026-03-28T09:03:01.999Z</time></trkpt><trkpt lat="45.0575704193138" lon="9.69973141666322"><ele>53.33333333333333</ele><time>2026-03-28T09:03:03.999Z</time></trkpt><trkpt lat="45.05757668038626" lon="9.699582581955815"><ele>53.0</ele><time>2026-03-28T09:03:05.999Z</time></trkpt><trkpt lat="45.057609855945415" lon="9.699451898621477"><ele>52.666666666666664</ele><time>2026-03-28T09:03:07.999Z</time></trkpt><trkpt lat="45.057648654302895" lon="9.699344871072574"><ele>52.33333333333333</ele><time>2026-03-28T09:03:09.999Z</time></trkpt><trkpt lat="45.05767551532997" lon="9.699247824209182"><ele>52.0</ele><time>2026-03-28T09:03:11.999Z</time></trkpt><trkpt lat="45.0577119236038" lon="9.699174374969825"><ele>51.99999999999999</ele><time>2026-03-28T09:05:29.999Z</time></trkpt><trkpt lat="45.057691162337534" lon="9.699063366918528"><ele>52.0</ele><time>2026-03-28T09:06:28Z</time></trkpt><trkpt lat="45.05762226892121" lon="9.699024885570912"><ele>52.0</ele><time>2026-03-28T09:06:30Z</time></trkpt><trkpt lat="45.05754327336184" lon="9.699071072890373"><ele>52.0</ele><time>2026-03-28T09:06:32Z</time></trkpt><trkpt lat="45.057507658277345" lon="9.699152424268318"><ele>51.99999999999999</ele><time>2026-03-28T09:06:34Z</time></trkpt><trkpt lat="45.05749624145117" lon="9.699260607188148"><ele>52.0</ele><time>2026-03-28T09:06:37Z</time></trkpt><trkpt lat="45.057478310931295" lon="9.699363619209628"><ele>52.400000000000006</ele><time>2026-03-28T09:06:41Z</time></trkpt><trkpt lat="45.05742838355597" lon="9.699451679723728"><ele>52.800000000000004</ele><time>2026-03-28T09:06:43Z</time></trkpt><trkpt lat="45.057378290595146" lon="9.699546810254889"><ele>53.2</ele><time>2026-03-28T09:06:45Z</time></trkpt><trkpt lat="45.0573076248427" lon="9.699668396805135"><ele>53.6</ele><time>2026-03-28T09:06:47Z</time></trkpt><trkpt lat="45.05726102414557" lon="9.699808219145229"><ele>54.0</ele><time>2026-03-28T09:06:49Z</time></trkpt><trkpt lat="45.05722771729636" lon="9.699964845453044"><ele>54.0</ele><time>2026-03-28T09:06:51Z</time></trkpt><trkpt lat="45.05720418328777" lon="9.700059323939088"><ele>54.0</ele><time>2026-03-28T09:06:52Z</time></trkpt><trkpt lat="45.057176531758884" lon="9.70016126482814"><ele>54.0</ele><time>2026-03-28T09:06:53Z</time></trkpt><trkpt lat="45.05714799202533" lon="9.700255275797856"><ele>54.0</ele><time>2026-03-28T09:06:53.999Z</time></trkpt><trkpt lat="45.05711771222599" lon="9.700333974541252"><ele>54.0</ele><time>2026-03-28T09:06:54.999Z</time></trkpt><trkpt lat="45.057083300838656" lon="9.700412542568422"><ele>54.0</ele><time>2026-03-28T09:06:55.999Z</time></trkpt><trkpt lat="45.05705266374925" lon="9.70049900981663"><ele>54.0</ele><time>2026-03-28T09:06:56.999Z</time></trkpt><trkpt lat="45.05702522049707" lon="9.700582124521455"><ele>54.166666666666664</ele><time>2026-03-28T09:06:57.999Z</time></trkpt><trkpt lat="45.05697056210165" lon="9.700740196731319"><ele>54.33333333333333</ele><time>2026-03-28T09:06:59.999Z</time></trkpt><trkpt lat="45.05694074989867" lon="9.700825043095863"><ele>54.5</ele><time>2026-03-28T09:07:00.999Z</time></trkpt><trkpt lat="45.05691127674588" lon="9.700922701046688"><ele>54.666666666666664</ele><time>2026-03-28T09:07:01.999Z</time></trkpt><trkpt lat="45.05687982675162" lon="9.701025253133897"><ele>54.83333333333333</ele><time>2026-03-28T09:07:02.999Z</time></trkpt><trkpt lat="45.05684753129647" lon="9.701126414051425"><ele>55.0</ele><time>2026-03-28T09:07:03.999Z</time></trkpt><trkpt lat="45.05680751698482" lon="9.701228866558578"><ele>54.666666666666664</ele><time>2026-03-28T09:07:04.999Z</time></trkpt><trkpt lat="45.056764540401275" lon="9.701335244455148"><ele>54.33333333333333</ele><time>2026-03-28T09:07:05.999Z</time></trkpt><trkpt lat="45.056723468048645" lon="9.701424714094703"><ele>54.0</ele><time>2026-03-28T09:07:06.999Z</time></trkpt><trkpt lat="45.05669160073765" lon="9.701508241102953"><ele>53.66666666666667</ele><time>2026-03-28T09:07:07.999Z</time></trkpt><trkpt lat="45.056656830062984" lon="9.70158342547411"><ele>53.333333333333336</ele><time>2026-03-28T09:07:08.999Z</time></trkpt><trkpt lat="45.056644064089156" lon="9.701720466232851"><ele>53.0</ele><time>2026-03-28T09:07:10.999Z</time></trkpt><trkpt lat="45.056722930616026" lon="9.701782291600619"><ele>53.00000000000001</ele><time>2026-03-28T09:07:12.999Z</time></trkpt><trkpt lat="45.056808696195404" lon="9.70167752791197"><ele>53.0</ele><time>2026-03-28T09:07:14.999Z</time></trkpt><trkpt lat="45.05680589318709" lon="9.701568585800748"><ele>53.0</ele><time>2026-03-28T09:07:16.999Z</time></trkpt><trkpt lat="45.05685737887678" lon="9.701513875782954"><ele>53.0</ele><time>2026-03-28T09:07:17.999Z</time></trkpt><trkpt lat="45.05688633174927" lon="9.70140816647464"><ele>53.00000000000001</ele><time>2026-03-28T09:07:19.999Z</time></trkpt><trkpt lat="45.05690971676341" lon="9.701314985963837"><ele>53.0</ele><time>2026-03-28T09:07:21.999Z</time></trkpt><trkpt lat="45.05693699816499" lon="9.701223942995748"><ele>53.00000000000001</ele><time>2026-03-28T09:07:23.999Z</time></trkpt><trkpt lat="45.05698715128973" lon="9.70112798003112"><ele>53.0</ele><time>2026-03-28T09:07:26.999Z</time></trkpt><trkpt lat="45.05702923255755" lon="9.701039350424557"><ele>53.0</ele><time>2026-03-28T09:07:29.999Z</time></trkpt><trkpt lat="45.05699076319279" lon="9.70112342959478"><ele>53.0</ele><time>2026-03-28T09:10:49Z</time></trkpt><trkpt lat="45.05700769673796" lon="9.701209981858684"><ele>53.00000000000001</ele><time>2026-03-28T09:11:28.999Z</time></trkpt><trkpt lat="45.05693766521834" lon="9.70113044016455"><ele>53.0</ele><time>2026-03-28T09:12:01.999Z</time></trkpt><trkpt lat="45.056986835503245" lon="9.701204943667863"><ele>53.0</ele><time>2026-03-28T09:12:19Z</time></trkpt><trkpt lat="45.05705227466056" lon="9.701222264361176"><ele>53.0</ele><time>2026-03-28T09:12:46Z</time></trkpt><trkpt lat="45.056914390504595" lon="9.701086610958942"><ele>53.0</ele><time>2026-03-28T09:12:51Z</time></trkpt><trkpt lat="45.056862661906045" lon="9.700947829503356"><ele>53.0</ele><time>2026-03-28T09:12:52Z</time></trkpt><trkpt lat="45.05691261120084" lon="9.701128568829215"><ele>53.66666666666667</ele><time>2026-03-28T09:14:35.015Z</time></trkpt><trkpt lat="45.05675932764826" lon="9.700813484300394"><ele>54.33333333333333</ele><time>2026-03-28T09:15:52.997Z</time></trkpt><trkpt lat="45.056851499793495" lon="9.700936197139875"><ele>55.0</ele><time>2026-03-28T09:15:58Z</time></trkpt><trkpt lat="45.05688136776284" lon="9.701038278337942"><ele>54.99999999999999</ele><time>2026-03-28T09:16:04Z</time></trkpt><trkpt lat="45.05690886398683" lon="9.701131600417026"><ele>55.0</ele><time>2026-03-28T09:16:15Z</time></trkpt><trkpt lat="45.05693396943147" lon="9.701215933928939"><ele>55.0</ele><time>2026-03-28T09:16:58.999Z</time></trkpt><trkpt lat="45.05700078586652" lon="9.701278462512331"><ele>55.0</ele><time>2026-03-28T09:45:12.999Z</time></trkpt><trkpt lat="45.05702205127098" lon="9.701179038574933"><ele>55.0</ele><time>2026-03-28T09:45:44Z</time></trkpt><trkpt lat="45.05707149046851" lon="9.701094257078221"><ele>54.99999999999999</ele><time>2026-03-28T09:45:51Z</time></trkpt><trkpt lat="45.05702633617724" lon="9.701025449326869"><ele>55.0</ele><time>2026-03-28T09:52:10Z</time></trkpt><trkpt lat="45.056993422072146" lon="9.700942745557043"><ele>54.99999999999999</ele><time>2026-03-28T09:52:16Z</time></trkpt><trkpt lat="45.0570488881087" lon="9.700822506547812"><ele>55.0</ele><time>2026-03-28T09:52:18Z</time></trkpt><trkpt lat="45.057093340389876" lon="9.700751484662353"><ele>55.0</ele><time>2026-03-28T09:52:20Z</time></trkpt><trkpt lat="45.05714404204021" lon="9.700641465772271"><ele>55.0</ele><time>2026-03-28T09:52:23Z</time></trkpt><trkpt lat="45.057188101174084" lon="9.700530706198226"><ele>54.99999999999999</ele><time>2026-03-28T09:52:26Z</time></trkpt><trkpt lat="45.05721575882429" lon="9.700448750717173"><ele>55.0</ele><time>2026-03-28T09:52:28Z</time></trkpt><trkpt lat="45.0572500713069" lon="9.70035634081848"><ele>54.99999999999999</ele><time>2026-03-28T09:52:31Z</time></trkpt><trkpt lat="45.05728036214197" lon="9.700261306607814"><ele>55.0</ele><time>2026-03-28T09:52:33Z</time></trkpt><trkpt lat="45.05731786995396" lon="9.700158105510083"><ele>55.0</ele><time>2026-03-28T09:52:35Z</time></trkpt><trkpt lat="45.05736451156254" lon="9.70006723882661"><ele>55.0</ele><time>2026-03-28T09:52:37Z</time></trkpt><trkpt lat="45.05743059359874" lon="9.699960869732154"><ele>54.99999999999999</ele><time>2026-03-28T09:52:39Z</time></trkpt><trkpt lat="45.0574670723402" lon="9.699882616715135"><ele>55.0</ele><time>2026-03-28T09:52:40Z</time></trkpt><trkpt lat="45.05749019618578" lon="9.699729849680642"><ele>54.83333333333333</ele><time>2026-03-28T09:52:42Z</time></trkpt><trkpt lat="45.057416706781105" lon="9.699619014763329"><ele>54.666666666666664</ele><time>2026-03-28T09:52:44Z</time></trkpt><trkpt lat="45.05735735564209" lon="9.699588354132777"><ele>54.5</ele><time>2026-03-28T09:52:45Z</time></trkpt><trkpt lat="45.057293701308964" lon="9.699557283633544"><ele>54.33333333333333</ele><time>2026-03-28T09:52:46Z</time></trkpt><trkpt lat="45.05720310024538" lon="9.699488499316796"><ele>54.166666666666664</ele><time>2026-03-28T09:52:48Z</time></trkpt><trkpt lat="45.05713948841007" lon="9.699418038774681"><ele>54.0</ele><time>2026-03-28T09:52:50Z</time></trkpt><trkpt lat="45.05704319609536" lon="9.699329574734383"><ele>53.833333333333336</ele><time>2026-03-28T09:52:51.999Z</time></trkpt><trkpt lat="45.05699272737741" lon="9.699275051252997"><ele>53.66666666666667</ele><time>2026-03-28T09:52:52.999Z</time></trkpt><trkpt lat="45.05694371196217" lon="9.699212835431279"><ele>53.5</ele><time>2026-03-28T09:52:53.999Z</time></trkpt><trkpt lat="45.05689568750593" lon="9.699152994642144"><ele>53.333333333333336</ele><time>2026-03-28T09:52:54.999Z</time></trkpt><trkpt lat="45.05685635430226" lon="9.699075083052549"><ele>53.16666666666667</ele><time>2026-03-28T09:52:55.999Z</time></trkpt><trkpt lat="45.056807948135685" lon="9.69901307462294"><ele>53.0</ele><time>2026-03-28T09:52:56.999Z</time></trkpt><trkpt lat="45.056713641729985" lon="9.69889226784684"><ele>53.0</ele><time>2026-03-28T09:52:58.999Z</time></trkpt><trkpt lat="45.056619612003956" lon="9.698771815526793"><ele>53.0</ele><time>2026-03-28T09:53:00.999Z</time></trkpt><trkpt lat="45.05657291575179" lon="9.698711997499167"><ele>53.0</ele><time>2026-03-28T09:53:01.999Z</time></trkpt><trkpt lat="45.0565259567388" lon="9.698651845472362"><ele>53.0</ele><time>2026-03-28T09:53:02.999Z</time></trkpt><trkpt lat="45.05647895317218" lon="9.698591639352902"><ele>53.0</ele><time>2026-03-28T09:53:03.999Z</time></trkpt><trkpt lat="45.05643062310573" lon="9.698529734153674"><ele>53.0</ele><time>2026-03-28T09:53:04.999Z</time></trkpt><trkpt lat="45.05638297012178" lon="9.698468696198656"><ele>53.0</ele><time>2026-03-28T09:53:05.999Z</time></trkpt><trkpt lat="45.05633486040879" lon="9.698407073238165"><ele>52.85714285714286</ele><time>2026-03-28T09:53:06.999Z</time></trkpt><trkpt lat="45.05628675877868" lon="9.698345460624875"><ele>52.71428571428571</ele><time>2026-03-28T09:53:07.999Z</time></trkpt><trkpt lat="45.05623915393754" lon="9.69828448433414"><ele>52.57142857142857</ele><time>2026-03-28T09:53:08.999Z</time></trkpt><trkpt lat="45.05619151667378" lon="9.698223466522263"><ele>52.42857142857143</ele><time>2026-03-28T09:53:09.999Z</time></trkpt><trkpt lat="45.05614408400937" lon="9.698162710795692"><ele>52.28571428571429</ele><time>2026-03-28T09:53:10.999Z</time></trkpt><trkpt lat="45.0560961547121" lon="9.698101318912565"><ele>52.14285714285714</ele><time>2026-03-28T09:53:11.999Z</time></trkpt><trkpt lat="45.05604826474175" lon="9.698039977414938"><ele>52.0</ele><time>2026-03-28T09:53:12.999Z</time></trkpt><trkpt lat="45.05599936219487" lon="9.697977338929874"><ele>52.0</ele><time>2026-03-28T09:53:13.999Z</time></trkpt><trkpt lat="45.055948463382826" lon="9.697912143463807"><ele>52.0</ele><time>2026-03-28T09:53:14.999Z</time></trkpt><trkpt lat="45.05589630667607" lon="9.697845574024305"><ele>52.0</ele><time>2026-03-28T09:53:15.999Z</time></trkpt><trkpt lat="45.0558432904524" lon="9.697777944854826"><ele>52.0</ele><time>2026-03-28T09:53:16.999Z</time></trkpt><trkpt lat="45.05579099333607" lon="9.697711233411802"><ele>52.0</ele><time>2026-03-28T09:53:17.999Z</time></trkpt><trkpt lat="45.055741004392075" lon="9.697647224054133"><ele>52.0</ele><time>2026-03-28T09:53:18.999Z</time></trkpt><trkpt lat="45.05569094990875" lon="9.697583189446082"><ele>52.0</ele><time>2026-03-28T09:53:19.999Z</time></trkpt><trkpt lat="45.05560150894745" lon="9.6974687678761"><ele>53.33333333333333</ele><time>2026-03-28T09:53:21.999Z</time></trkpt><trkpt lat="45.055525815320394" lon="9.69737193318794"><ele>54.666666666666664</ele><time>2026-03-28T09:53:23.999Z</time></trkpt><trkpt lat="45.0554413725921" lon="9.697263905851692"><ele>56.0</ele><time>2026-03-28T09:53:25.999Z</time></trkpt><trkpt lat="45.05539391149221" lon="9.697203188923336"><ele>57.33333333333333</ele><time>2026-03-28T09:53:26.999Z</time></trkpt><trkpt lat="45.05534379424567" lon="9.697139074050536"><ele>58.666666666666664</ele><time>2026-03-28T09:53:27.999Z</time></trkpt><trkpt lat="45.05529505391373" lon="9.697076720671044"><ele>60.0</ele><time>2026-03-28T09:53:28.999Z</time></trkpt><trkpt lat="45.05524746311009" lon="9.69701583833984"><ele>60.0</ele><time>2026-03-28T09:53:29.999Z</time></trkpt><trkpt lat="45.055170098764165" lon="9.696917085955317"><ele>60.0</ele><time>2026-03-28T09:53:31.999Z</time></trkpt><trkpt lat="45.05509201807313" lon="9.696817377007939"><ele>60.0</ele><time>2026-03-28T09:53:33.999Z</time></trkpt><trkpt lat="45.05502188020374" lon="9.69672781104913"><ele>60.0</ele><time>2026-03-28T09:53:35.999Z</time></trkpt><trkpt lat="45.05496272672312" lon="9.696656521392239"><ele>60.0</ele><time>2026-03-28T09:53:37.999Z</time></trkpt><trkpt lat="45.05491277152291" lon="9.696587864028574"><ele>60.0</ele><time>2026-03-28T09:53:39.999Z</time></trkpt><trkpt lat="45.054941834062056" lon="9.696451462836496"><ele>60.0</ele><time>2026-03-28T09:53:41.999Z</time></trkpt><trkpt lat="45.05499386711901" lon="9.696327317333628"><ele>60.0</ele><time>2026-03-28T09:53:44Z</time></trkpt><trkpt lat="45.0550685598577" lon="9.69620496970998"><ele>60.0</ele><time>2026-03-28T09:53:46Z</time></trkpt><trkpt lat="45.05515334228365" lon="9.69607603271673"><ele>60.0</ele><time>2026-03-28T09:53:48Z</time></trkpt><trkpt lat="45.05522963173608" lon="9.695956106427435"><ele>60.2</ele><time>2026-03-28T09:53:50Z</time></trkpt><trkpt lat="45.05530161889063" lon="9.695833740525902"><ele>60.4</ele><time>2026-03-28T09:53:52Z</time></trkpt><trkpt lat="45.05536719894841" lon="9.695695192872147"><ele>60.599999999999994</ele><time>2026-03-28T09:53:54Z</time></trkpt><trkpt lat="45.05543934655928" lon="9.695553932455576"><ele>60.8</ele><time>2026-03-28T09:53:56Z</time></trkpt><trkpt lat="45.05548034853098" lon="9.695478163545133"><ele>61.0</ele><time>2026-03-28T09:53:57Z</time></trkpt><trkpt lat="45.05552291695044" lon="9.695404864918398"><ele>60.99999999999999</ele><time>2026-03-28T09:53:58Z</time></trkpt><trkpt lat="45.055565222697254" lon="9.695329368457815"><ele>61.0</ele><time>2026-03-28T09:53:59Z</time></trkpt><trkpt lat="45.05560062696148" lon="9.695246408951244"><ele>61.0</ele><time>2026-03-28T09:54:00Z</time></trkpt><trkpt lat="45.055636685355836" lon="9.695168262478559"><ele>61.0</ele><time>2026-03-28T09:54:01Z</time></trkpt><trkpt lat="45.05570583972343" lon="9.6950478295279"><ele>60.99999999999999</ele><time>2026-03-28T09:54:03Z</time></trkpt><trkpt lat="45.05576708663965" lon="9.694950151494107"><ele>61.0</ele><time>2026-03-28T09:54:05Z</time></trkpt><trkpt lat="45.05583431286698" lon="9.69483383058437"><ele>60.666666666666664</ele><time>2026-03-28T09:54:07Z</time></trkpt><trkpt lat="45.0558899873561" lon="9.694739441980323"><ele>60.33333333333333</ele><time>2026-03-28T09:54:09Z</time></trkpt><trkpt lat="45.05593224626002" lon="9.694643601472483"><ele>60.0</ele><time>2026-03-28T09:54:11Z</time></trkpt><trkpt lat="45.05599074510059" lon="9.694488058730867"><ele>59.66666666666667</ele><time>2026-03-28T09:54:13Z</time></trkpt><trkpt lat="45.05602507338337" lon="9.69440006776793"><ele>59.333333333333336</ele><time>2026-03-28T09:54:14Z</time></trkpt><trkpt lat="45.056068612534624" lon="9.694316489292916"><ele>59.0</ele><time>2026-03-28T09:54:15Z</time></trkpt><trkpt lat="45.05611336181399" lon="9.69422919208021"><ele>59.00000000000001</ele><time>2026-03-28T09:54:16Z</time></trkpt><trkpt lat="45.05614745222849" lon="9.694138639998988"><ele>59.0</ele><time>2026-03-28T09:54:17Z</time></trkpt><trkpt lat="45.05616035867542" lon="9.69404533617691"><ele>59.0</ele><time>2026-03-28T09:54:18Z</time></trkpt><trkpt lat="45.05615738381497" lon="9.693949626335748"><ele>59.0</ele><time>2026-03-28T09:54:19Z</time></trkpt><trkpt lat="45.056156627575895" lon="9.693856332224025"><ele>59.00000000000001</ele><time>2026-03-28T09:54:20Z</time></trkpt><trkpt lat="45.056089803320006" lon="9.693701383725125"><ele>59.0</ele><time>2026-03-28T09:54:22Z</time></trkpt><trkpt lat="45.0560205633979" lon="9.693567789657267"><ele>59.0</ele><time>2026-03-28T09:54:24Z</time></trkpt><trkpt lat="45.05597607349428" lon="9.693427342196062"><ele>59.0</ele><time>2026-03-28T09:54:26Z</time></trkpt><trkpt lat="45.05602309606388" lon="9.693281541703426"><ele>59.0</ele><time>2026-03-28T09:54:28Z</time></trkpt><trkpt lat="45.05606177502178" lon="9.693169816778903"><ele>59.0</ele><time>2026-03-28T09:54:30Z</time></trkpt><trkpt lat="45.055940004117666" lon="9.693056298737467"><ele>59.00000000000001</ele><time>2026-03-28T09:54:31Z</time></trkpt><trkpt lat="45.05588306739807" lon="9.692995706722394"><ele>59.0</ele><time>2026-03-28T09:54:32Z</time></trkpt><trkpt lat="45.05583066193145" lon="9.692930145802087"><ele>59.0</ele><time>2026-03-28T09:54:33Z</time></trkpt><trkpt lat="45.05577409482248" lon="9.692876238588266"><ele>59.0</ele><time>2026-03-28T09:54:34Z</time></trkpt><trkpt lat="45.055730919585685" lon="9.692807264681628"><ele>59.00000000000001</ele><time>2026-03-28T09:54:35Z</time></trkpt><trkpt lat="45.05568325150466" lon="9.692738452221473"><ele>59.0</ele><time>2026-03-28T09:54:36Z</time></trkpt><trkpt lat="45.05560507639657" lon="9.692615898648382"><ele>59.6</ele><time>2026-03-28T09:54:38Z</time></trkpt><trkpt lat="45.05553391339999" lon="9.69252429591566"><ele>60.2</ele><time>2026-03-28T09:54:40Z</time></trkpt><trkpt lat="45.05546387971139" lon="9.692454491426233"><ele>60.800000000000004</ele><time>2026-03-28T09:54:42Z</time></trkpt><trkpt lat="45.05541815333952" lon="9.692362021261834"><ele>61.400000000000006</ele><time>2026-03-28T09:54:45Z</time></trkpt><trkpt lat="45.05550169032547" lon="9.692231504838007"><ele>62.0</ele><time>2026-03-28T09:54:47Z</time></trkpt><trkpt lat="45.05554049014419" lon="9.692153356613055"><ele>62.00000000000001</ele><time>2026-03-28T09:54:48Z</time></trkpt><trkpt lat="45.055628219364124" lon="9.692037644407772"><ele>62.0</ele><time>2026-03-28T09:54:50Z</time></trkpt><trkpt lat="45.05566094933481" lon="9.691959779056127"><ele>62.0</ele><time>2026-03-28T09:54:51Z</time></trkpt><trkpt lat="45.05570999061398" lon="9.691888426036709"><ele>62.0</ele><time>2026-03-28T09:54:52Z</time></trkpt><trkpt lat="45.05575718642492" lon="9.691818859645236"><ele>62.00000000000001</ele><time>2026-03-28T09:54:53Z</time></trkpt><trkpt lat="45.05580327950138" lon="9.691741868252823"><ele>62.0</ele><time>2026-03-28T09:54:54Z</time></trkpt><trkpt lat="45.055851047566804" lon="9.691659860634307"><ele>61.50000000000001</ele><time>2026-03-28T09:54:55Z</time></trkpt><trkpt lat="45.05590249108156" lon="9.691574177125736"><ele>61.0</ele><time>2026-03-28T09:54:56Z</time></trkpt><trkpt lat="45.05594973637371" lon="9.691497065236565"><ele>60.5</ele><time>2026-03-28T09:54:57Z</time></trkpt><trkpt lat="45.055992405063556" lon="9.691426552471702"><ele>60.0</ele><time>2026-03-28T09:54:58Z</time></trkpt><trkpt lat="45.05606098077563" lon="9.691354705053863"><ele>59.50000000000001</ele><time>2026-03-28T09:54:59.999Z</time></trkpt><trkpt lat="45.056102284292606" lon="9.691265258447528"><ele>59.0</ele><time>2026-03-28T09:55:02.999Z</time></trkpt><trkpt lat="45.05615349159573" lon="9.691191611914466"><ele>59.00000000000001</ele><time>2026-03-28T09:55:04.999Z</time></trkpt><trkpt lat="45.05622190963635" lon="9.691084829595608"><ele>59.0</ele><time>2026-03-28T09:55:06.999Z</time></trkpt><trkpt lat="45.056307675029565" lon="9.690967581164141"><ele>59.0</ele><time>2026-03-28T09:55:08.999Z</time></trkpt><trkpt lat="45.05635193481295" lon="9.690901839249177"><ele>59.0</ele><time>2026-03-28T09:55:09.999Z</time></trkpt><trkpt lat="45.056397718773276" lon="9.690837638944906"><ele>59.00000000000001</ele><time>2026-03-28T09:55:10.999Z</time></trkpt><trkpt lat="45.056443958495954" lon="9.690770402218497"><ele>59.0</ele><time>2026-03-28T09:55:11.999Z</time></trkpt><trkpt lat="45.05649668600444" lon="9.690697808713288"><ele>59.0</ele><time>2026-03-28T09:55:12.999Z</time></trkpt><trkpt lat="45.05655898069098" lon="9.690632321744143"><ele>59.0</ele><time>2026-03-28T09:55:13.999Z</time></trkpt><trkpt lat="45.056611661592676" lon="9.690580859570634"><ele>59.0</ele><time>2026-03-28T09:55:14.999Z</time></trkpt><trkpt lat="45.05666790540183" lon="9.690529419949405"><ele>59.0</ele><time>2026-03-28T09:55:15.999Z</time></trkpt><trkpt lat="45.05672521626084" lon="9.690460709534932"><ele>59.0</ele><time>2026-03-28T09:55:16.999Z</time></trkpt><trkpt lat="45.05679134601607" lon="9.690402454826254"><ele>59.0</ele><time>2026-03-28T09:55:17.999Z</time></trkpt><trkpt lat="45.05684620269298" lon="9.690320737322562"><ele>59.0</ele><time>2026-03-28T09:55:18.999Z</time></trkpt><trkpt lat="45.05691466278375" lon="9.690254379363255"><ele>58.42857142857142</ele><time>2026-03-28T09:55:19.999Z</time></trkpt><trkpt lat="45.05697994498007" lon="9.69019487083435"><ele>57.85714285714286</ele><time>2026-03-28T09:55:20.999Z</time></trkpt><trkpt lat="45.05703708709541" lon="9.690126391442389"><ele>57.285714285714285</ele><time>2026-03-28T09:55:21.999Z</time></trkpt><trkpt lat="45.057092626655255" lon="9.69006250832877"><ele>56.71428571428571</ele><time>2026-03-28T09:55:22.999Z</time></trkpt><trkpt lat="45.0571422363225" lon="9.68999362702363"><ele>56.14285714285714</ele><time>2026-03-28T09:55:23.999Z</time></trkpt><trkpt lat="45.057198964767124" lon="9.689929699430435"><ele>55.57142857142857</ele><time>2026-03-28T09:55:24.999Z</time></trkpt><trkpt lat="45.05725511342055" lon="9.68986416502902"><ele>55.0</ele><time>2026-03-28T09:55:25.999Z</time></trkpt><trkpt lat="45.05731496069582" lon="9.689796889710182"><ele>54.99999999999999</ele><time>2026-03-28T09:55:26.999Z</time></trkpt><trkpt lat="45.057374808199825" lon="9.68972789729877"><ele>55.0</ele><time>2026-03-28T09:55:27.999Z</time></trkpt><trkpt lat="45.05743020088558" lon="9.689655680152944"><ele>55.0</ele><time>2026-03-28T09:55:28.999Z</time></trkpt><trkpt lat="45.05749207828456" lon="9.689595794133549"><ele>55.0</ele><time>2026-03-28T09:55:29.999Z</time></trkpt><trkpt lat="45.057554040415546" lon="9.6895418437269"><ele>55.0</ele><time>2026-03-28T09:55:30.999Z</time></trkpt><trkpt lat="45.057615193608825" lon="9.689495011476502"><ele>54.99999999999999</ele><time>2026-03-28T09:55:31.999Z</time></trkpt><trkpt lat="45.057672374449226" lon="9.689446559533996"><ele>55.0</ele><time>2026-03-28T09:55:32.999Z</time></trkpt><trkpt lat="45.05772860865262" lon="9.689394516313325"><ele>54.42857142857142</ele><time>2026-03-28T09:55:33.999Z</time></trkpt><trkpt lat="45.05778659293649" lon="9.689343321691195"><ele>53.857142857142854</ele><time>2026-03-28T09:55:34.999Z</time></trkpt><trkpt lat="45.05784372649678" lon="9.68929069875118"><ele>53.285714285714285</ele><time>2026-03-28T09:55:35.999Z</time></trkpt><trkpt lat="45.057899526611024" lon="9.689234251863354"><ele>52.71428571428571</ele><time>2026-03-28T09:55:36.999Z</time></trkpt><trkpt lat="45.05795620185055" lon="9.68918457970114"><ele>52.142857142857146</ele><time>2026-03-28T09:55:37.999Z</time></trkpt><trkpt lat="45.05802469249962" lon="9.689144237579193"><ele>51.57142857142857</ele><time>2026-03-28T09:55:38.999Z</time></trkpt><trkpt lat="45.05808360286753" lon="9.689094246120833"><ele>51.0</ele><time>2026-03-28T09:55:39.999Z</time></trkpt><trkpt lat="45.058145373695744" lon="9.68904524366515"><ele>51.0</ele><time>2026-03-28T09:55:40.999Z</time></trkpt><trkpt lat="45.05821031870274" lon="9.6890007266667"><ele>51.0</ele><time>2026-03-28T09:55:41.999Z</time></trkpt><trkpt lat="45.058271551267936" lon="9.68895319642676"><ele>51.0</ele><time>2026-03-28T09:55:42.999Z</time></trkpt><trkpt lat="45.058337648305226" lon="9.688909492405466"><ele>51.0</ele><time>2026-03-28T09:55:43.999Z</time></trkpt><trkpt lat="45.058401076200596" lon="9.688858366877117"><ele>51.0</ele><time>2026-03-28T09:55:44.999Z</time></trkpt><trkpt lat="45.05846331544536" lon="9.688805031078005"><ele>51.0</ele><time>2026-03-28T09:55:45.999Z</time></trkpt><trkpt lat="45.05852667428199" lon="9.6887546645528"><ele>51.0</ele><time>2026-03-28T09:55:46.999Z</time></trkpt><trkpt lat="45.05859007605887" lon="9.688705581094249"><ele>51.0</ele><time>2026-03-28T09:55:47.999Z</time></trkpt><trkpt lat="45.05865106383337" lon="9.688659295911764"><ele>51.0</ele><time>2026-03-28T09:55:48.999Z</time></trkpt><trkpt lat="45.05874037217839" lon="9.688583877993974"><ele>51.0</ele><time>2026-03-28T09:55:51Z</time></trkpt><trkpt lat="45.05881911550765" lon="9.688404358273313"><ele>51.0</ele><time>2026-03-28T09:55:55Z</time></trkpt><trkpt lat="45.058732310641396" lon="9.688354294399637"><ele>51.0</ele><time>2026-03-28T09:55:56Z</time></trkpt><trkpt lat="45.05868144133227" lon="9.688212876312594"><ele>51.0</ele><time>2026-03-28T09:55:58Z</time></trkpt><trkpt lat="45.05863332769239" lon="9.688049014540379"><ele>51.0</ele><time>2026-03-28T09:56:00Z</time></trkpt><trkpt lat="45.05855721558183" lon="9.687925678145502"><ele>51.0</ele><time>2026-03-28T09:56:02Z</time></trkpt><trkpt lat="45.05850170959978" lon="9.687873110012262"><ele>51.0</ele><time>2026-03-28T09:56:03Z</time></trkpt><trkpt lat="45.058426650313514" lon="9.687835267630122"><ele>51.0</ele><time>2026-03-28T09:56:04Z</time></trkpt><trkpt lat="45.058344092195476" lon="9.687800836422497"><ele>51.0</ele><time>2026-03-28T09:56:05Z</time></trkpt><trkpt lat="45.058264651874055" lon="9.687762504784695"><ele>51.0</ele><time>2026-03-28T09:56:06Z</time></trkpt><trkpt lat="45.05818599836362" lon="9.687719031306031"><ele>51.0</ele><time>2026-03-28T09:56:07Z</time></trkpt><trkpt lat="45.05810917468041" lon="9.68767828656758"><ele>51.0</ele><time>2026-03-28T09:56:08Z</time></trkpt><trkpt lat="45.05804102111302" lon="9.687627479603629"><ele>51.0</ele><time>2026-03-28T09:56:09Z</time></trkpt><trkpt lat="45.057977247746855" lon="9.687592874115582"><ele>51.0</ele><time>2026-03-28T09:56:10Z</time></trkpt><trkpt lat="45.05791364828999" lon="9.687553903483652"><ele>51.0</ele><time>2026-03-28T09:56:11Z</time></trkpt><trkpt lat="45.057850262750094" lon="9.687502880286878"><ele>51.0</ele><time>2026-03-28T09:56:12Z</time></trkpt><trkpt lat="45.05778156845307" lon="9.687464600648887"><ele>51.0</ele><time>2026-03-28T09:56:13Z</time></trkpt><trkpt lat="45.05771098759236" lon="9.687421197263426"><ele>51.0</ele><time>2026-03-28T09:56:14Z</time></trkpt><trkpt lat="45.05763885680471" lon="9.687376889071967"><ele>51.0</ele><time>2026-03-28T09:56:15Z</time></trkpt><trkpt lat="45.05756180841173" lon="9.687336339194319"><ele>51.0</ele><time>2026-03-28T09:56:16Z</time></trkpt><trkpt lat="45.05749329822202" lon="9.687301562145766"><ele>51.166666666666664</ele><time>2026-03-28T09:56:17Z</time></trkpt><trkpt lat="45.05742702897342" lon="9.687251663090292"><ele>51.33333333333333</ele><time>2026-03-28T09:56:18Z</time></trkpt><trkpt lat="45.05735539920219" lon="9.687217484749226"><ele>51.5</ele><time>2026-03-28T09:56:19Z</time></trkpt><trkpt lat="45.057279026049734" lon="9.687185991820703"><ele>51.666666666666664</ele><time>2026-03-28T09:56:20Z</time></trkpt><trkpt lat="45.05720677699437" lon="9.687151731687848"><ele>51.83333333333333</ele><time>2026-03-28T09:56:21Z</time></trkpt><trkpt lat="45.05712964916298" lon="9.687125398987838"><ele>52.0</ele><time>2026-03-28T09:56:22Z</time></trkpt><trkpt lat="45.05705789292099" lon="9.687094878918252"><ele>51.99999999999999</ele><time>2026-03-28T09:56:23Z</time></trkpt><trkpt lat="45.056973717876005" lon="9.687065832300421"><ele>52.0</ele><time>2026-03-28T09:56:24Z</time></trkpt><trkpt lat="45.05689280327703" lon="9.687041980976675"><ele>52.0</ele><time>2026-03-28T09:56:25Z</time></trkpt><trkpt lat="45.05681873409768" lon="9.686990448739492"><ele>52.0</ele><time>2026-03-28T09:56:26Z</time></trkpt><trkpt lat="45.05673925349793" lon="9.686966913925415"><ele>51.99999999999999</ele><time>2026-03-28T09:56:27Z</time></trkpt><trkpt lat="45.05666259799621" lon="9.686939972297937"><ele>52.0</ele><time>2026-03-28T09:56:28Z</time></trkpt><trkpt lat="45.05658168804018" lon="9.68691204278444"><ele>52.49999999999999</ele><time>2026-03-28T09:56:29Z</time></trkpt><trkpt lat="45.0565121045876" lon="9.686862347051274"><ele>53.0</ele><time>2026-03-28T09:56:30Z</time></trkpt><trkpt lat="45.056431009470415" lon="9.686848282668139"><ele>53.5</ele><time>2026-03-28T09:56:31Z</time></trkpt><trkpt lat="45.056361716909656" lon="9.686799696848798"><ele>54.0</ele><time>2026-03-28T09:56:32Z</time></trkpt><trkpt lat="45.05628193924086" lon="9.686783487891296"><ele>54.49999999999999</ele><time>2026-03-28T09:56:33Z</time></trkpt><trkpt lat="45.056204755500225" lon="9.686756316114684"><ele>55.0</ele><time>2026-03-28T09:56:34Z</time></trkpt><trkpt lat="45.056133473243015" lon="9.68670525182095"><ele>54.99999999999999</ele><time>2026-03-28T09:56:35Z</time></trkpt><trkpt lat="45.05605475350215" lon="9.686684637051822"><ele>55.0</ele><time>2026-03-28T09:56:36Z</time></trkpt><trkpt lat="45.05597556074929" lon="9.686658867794069"><ele>55.0</ele><time>2026-03-28T09:56:37Z</time></trkpt><trkpt lat="45.05589734437921" lon="9.686628127858159"><ele>55.0</ele><time>2026-03-28T09:56:38Z</time></trkpt><trkpt lat="45.05582191096096" lon="9.686591923220478"><ele>54.99999999999999</ele><time>2026-03-28T09:56:39Z</time></trkpt><trkpt lat="45.0557464008099" lon="9.686563560637486"><ele>55.0</ele><time>2026-03-28T09:56:40Z</time></trkpt><trkpt lat="45.05566941983781" lon="9.686525168492599"><ele>55.49999999999999</ele><time>2026-03-28T09:56:41Z</time></trkpt><trkpt lat="45.05559322774854" lon="9.686497656262283"><ele>56.0</ele><time>2026-03-28T09:56:42Z</time></trkpt><trkpt lat="45.0555186398353" lon="9.686470556750535"><ele>56.5</ele><time>2026-03-28T09:56:43Z</time></trkpt><trkpt lat="45.05544051360624" lon="9.686438483482277"><ele>57.0</ele><time>2026-03-28T09:56:44Z</time></trkpt><trkpt lat="45.05536480643086" lon="9.686394297596044"><ele>57.49999999999999</ele><time>2026-03-28T09:56:45Z</time></trkpt><trkpt lat="45.05529989346663" lon="9.68636886846095"><ele>58.0</ele><time>2026-03-28T09:56:46Z</time></trkpt><trkpt lat="45.05521389905698" lon="9.686338360859134"><ele>57.99999999999999</ele><time>2026-03-28T09:56:48Z</time></trkpt><trkpt lat="45.05513336371372" lon="9.68631007967297"><ele>58.0</ele><time>2026-03-28T09:57:02.999Z</time></trkpt><trkpt lat="45.05502541125326" lon="9.686261897482874"><ele>58.0</ele><time>2026-03-28T09:57:04.999Z</time></trkpt><trkpt lat="45.054954716401085" lon="9.686233392411287"><ele>58.0</ele><time>2026-03-28T09:57:05.999Z</time></trkpt><trkpt lat="45.05488783797039" lon="9.686208513683347"><ele>57.99999999999999</ele><time>2026-03-28T09:57:06.999Z</time></trkpt><trkpt lat="45.05481992571735" lon="9.686183385906372"><ele>58.0</ele><time>2026-03-28T09:57:07.999Z</time></trkpt><trkpt lat="45.054749826956915" lon="9.686161332911801"><ele>58.33333333333333</ele><time>2026-03-28T09:57:08.999Z</time></trkpt><trkpt lat="45.05468242386166" lon="9.686142068005987"><ele>58.666666666666664</ele><time>2026-03-28T09:57:09.999Z</time></trkpt><trkpt lat="45.05461864430735" lon="9.686127048132303"><ele>59.0</ele><time>2026-03-28T09:57:10.999Z</time></trkpt><trkpt lat="45.05449166682701" lon="9.686064009574853"><ele>59.33333333333333</ele><time>2026-03-28T09:57:12.999Z</time></trkpt><trkpt lat="45.0544322193222" lon="9.686032989252757"><ele>59.666666666666664</ele><time>2026-03-28T09:57:13.999Z</time></trkpt><trkpt lat="45.05432624663323" lon="9.686001203398787"><ele>60.0</ele><time>2026-03-28T09:57:15.999Z</time></trkpt><trkpt lat="45.05425460591219" lon="9.685983700821783"><ele>60.0</ele><time>2026-03-28T09:57:17.999Z</time></trkpt><trkpt lat="45.05417964073447" lon="9.685957964462823"><ele>60.0</ele><time>2026-03-28T09:57:20.999Z</time></trkpt><trkpt lat="45.05410877956862" lon="9.685922167359735"><ele>60.0</ele><time>2026-03-28T09:57:25.999Z</time></trkpt><trkpt lat="45.054023717948965" lon="9.685981994476593"><ele>60.0</ele><time>2026-03-28T09:57:29.999Z</time></trkpt><trkpt lat="45.054024363090875" lon="9.686073077669358"><ele>60.0</ele><time>2026-03-28T09:57:31.999Z</time></trkpt><trkpt lat="45.05400158640075" lon="9.686183912513334"><ele>60.0</ele><time>2026-03-28T09:57:34.999Z</time></trkpt><trkpt lat="45.053992694223915" lon="9.686354626146525"><ele>60.333333333333336</ele><time>2026-03-28T09:57:36.999Z</time></trkpt><trkpt lat="45.05399173839657" lon="9.686451246957722"><ele>60.66666666666667</ele><time>2026-03-28T09:57:37.999Z</time></trkpt><trkpt lat="45.05400210210736" lon="9.686547313200084"><ele>61.0</ele><time>2026-03-28T09:57:38.999Z</time></trkpt><trkpt lat="45.05399252127006" lon="9.686638127592792"><ele>61.333333333333336</ele><time>2026-03-28T09:57:39.999Z</time></trkpt><trkpt lat="45.05399683759551" lon="9.686811723343085"><ele>61.66666666666667</ele><time>2026-03-28T09:57:41.999Z</time></trkpt><trkpt lat="45.053992209338666" lon="9.686977366575695"><ele>62.0</ele><time>2026-03-28T09:57:43.999Z</time></trkpt><trkpt lat="45.053988641987175" lon="9.687126349613548"><ele>62.00000000000001</ele><time>2026-03-28T09:57:45.999Z</time></trkpt><trkpt lat="45.053980426191536" lon="9.687236520859797"><ele>62.0</ele><time>2026-03-28T09:57:49.999Z</time></trkpt><trkpt lat="45.053986048562535" lon="9.687357740820362"><ele>62.0</ele><time>2026-03-28T09:58:18Z</time></trkpt><trkpt lat="45.053981051936354" lon="9.68748409577771"><ele>62.0</ele><time>2026-03-28T09:58:20Z</time></trkpt><trkpt lat="45.05395536721438" lon="9.68762223652772"><ele>62.00000000000001</ele><time>2026-03-28T09:58:22Z</time></trkpt><trkpt lat="45.05394306369162" lon="9.687745543758902"><ele>62.0</ele><time>2026-03-28T09:58:24Z</time></trkpt><trkpt lat="45.05392934935003" lon="9.68788859067387"><ele>62.16666666666667</ele><time>2026-03-28T09:58:26Z</time></trkpt><trkpt lat="45.05390926175945" lon="9.688043132383306"><ele>62.333333333333336</ele><time>2026-03-28T09:58:28Z</time></trkpt><trkpt lat="45.05389236697093" lon="9.688184469356955"><ele>62.5</ele><time>2026-03-28T09:58:30Z</time></trkpt><trkpt lat="45.05388914112155" lon="9.688288052961322"><ele>62.66666666666667</ele><time>2026-03-28T09:58:32Z</time></trkpt><trkpt lat="45.05390360700869" lon="9.688377177400564"><ele>62.833333333333336</ele><time>2026-03-28T09:58:36Z</time></trkpt><trkpt lat="45.05388545664979" lon="9.688471252374297"><ele>63.0</ele><time>2026-03-28T09:58:59Z</time></trkpt><trkpt lat="45.053993384530834" lon="9.688509149266695"><ele>63.0</ele><time>2026-03-28T10:00:10Z</time></trkpt><trkpt lat="45.05402242711581" lon="9.688393934085038"><ele>63.0</ele><time>2026-03-28T10:00:16Z</time></trkpt><trkpt lat="45.05406660871373" lon="9.688305355605316"><ele>63.0</ele><time>2026-03-28T10:00:18Z</time></trkpt><trkpt lat="45.054111242799486" lon="9.68822371207108"><ele>63.0</ele><time>2026-03-28T10:00:20Z</time></trkpt><trkpt lat="45.054167036851005" lon="9.688160149018632"><ele>63.0</ele><time>2026-03-28T10:00:22Z</time></trkpt><trkpt lat="45.05421450415199" lon="9.68805923450333"><ele>63.0</ele><time>2026-03-28T10:00:24Z</time></trkpt><trkpt lat="45.05429444498881" lon="9.68798650106466"><ele>63.0</ele><time>2026-03-28T10:00:26Z</time></trkpt><trkpt lat="45.0543713712736" lon="9.687885956867252"><ele>63.0</ele><time>2026-03-28T10:00:28Z</time></trkpt><trkpt lat="45.05445647543396" lon="9.687786834057626"><ele>63.0</ele><time>2026-03-28T10:00:30Z</time></trkpt><trkpt lat="45.054509094849784" lon="9.687731144809817"><ele>63.0</ele><time>2026-03-28T10:00:31Z</time></trkpt><trkpt lat="45.05455210076554" lon="9.687657590027813"><ele>63.0</ele><time>2026-03-28T10:00:32Z</time></trkpt><trkpt lat="45.0546200142536" lon="9.687618452959027"><ele>63.0</ele><time>2026-03-28T10:00:33Z</time></trkpt><trkpt lat="45.0547086771172" lon="9.687525219258513"><ele>63.0</ele><time>2026-03-28T10:00:35Z</time></trkpt><trkpt lat="45.054805915994606" lon="9.687446831324609"><ele>63.0</ele><time>2026-03-28T10:00:37Z</time></trkpt><trkpt lat="45.05488304519377" lon="9.68737565432347"><ele>63.0</ele><time>2026-03-28T10:00:39Z</time></trkpt><trkpt lat="45.05494953639149" lon="9.687273549914941"><ele>63.0</ele><time>2026-03-28T10:00:41Z</time></trkpt><trkpt lat="45.054984449806824" lon="9.687109874797244"><ele>63.0</ele><time>2026-03-28T10:00:43Z</time></trkpt><trkpt lat="45.055005870984274" lon="9.687010929102131"><ele>62.0</ele><time>2026-03-28T10:00:44Z</time></trkpt><trkpt lat="45.055033614185156" lon="9.686917049284732"><ele>61.0</ele><time>2026-03-28T10:00:45Z</time></trkpt><trkpt lat="45.05507427882648" lon="9.686769708221668"><ele>60.0</ele><time>2026-03-28T10:00:47Z</time></trkpt><trkpt lat="45.055099365103395" lon="9.686627849583592"><ele>59.0</ele><time>2026-03-28T10:00:49Z</time></trkpt><trkpt lat="45.05513346030146" lon="9.686498544676779"><ele>58.0</ele><time>2026-03-28T10:00:51Z</time></trkpt><trkpt lat="45.05515063277164" lon="9.686370045830314"><ele>57.99999999999999</ele><time>2026-03-28T10:00:53Z</time></trkpt><trkpt lat="45.05514317507447" lon="9.686257373290767"><ele>58.0</ele><time>2026-03-28T10:00:57Z</time></trkpt><trkpt lat="45.055053139249445" lon="9.686226206366127"><ele>58.0</ele><time>2026-03-28T10:00:59Z</time></trkpt><trkpt lat="45.05498707314622" lon="9.686213432535796"><ele>58.0</ele><time>2026-03-28T10:01:00Z</time></trkpt><trkpt lat="45.05491789800056" lon="9.68619603138965"><ele>57.99999999999999</ele><time>2026-03-28T10:01:01Z</time></trkpt><trkpt lat="45.05484004680444" lon="9.686176862043238"><ele>58.0</ele><time>2026-03-28T10:01:02Z</time></trkpt><trkpt lat="45.05475453511673" lon="9.686143844990184"><ele>58.4</ele><time>2026-03-28T10:01:03Z</time></trkpt><trkpt lat="45.05465850122508" lon="9.686113839806486"><ele>58.8</ele><time>2026-03-28T10:01:04Z</time></trkpt><trkpt lat="45.05456034009778" lon="9.686081897831798"><ele>59.2</ele><time>2026-03-28T10:01:05Z</time></trkpt><trkpt lat="45.054463282985864" lon="9.686051690907078"><ele>59.6</ele><time>2026-03-28T10:01:06Z</time></trkpt><trkpt lat="45.054374083972554" lon="9.6860234910325"><ele>60.0</ele><time>2026-03-28T10:01:07Z</time></trkpt><trkpt lat="45.05429959113556" lon="9.685999704056991"><ele>60.0</ele><time>2026-03-28T10:01:08Z</time></trkpt><trkpt lat="45.05423643043198" lon="9.685976159710153"><ele>60.0</ele><time>2026-03-28T10:01:09Z</time></trkpt><trkpt lat="45.054132566481876" lon="9.685952720084895"><ele>60.0</ele><time>2026-03-28T10:01:11Z</time></trkpt><trkpt lat="45.05406921403595" lon="9.685933637079446"><ele>60.0</ele><time>2026-03-28T10:01:14Z</time></trkpt><trkpt lat="45.054034060753665" lon="9.68604990261988"><ele>60.0</ele><time>2026-03-28T10:01:16Z</time></trkpt><trkpt lat="45.05401744859462" lon="9.686153880982333"><ele>60.0</ele><time>2026-03-28T10:01:18Z</time></trkpt><trkpt lat="45.054012536139055" lon="9.686283675281713"><ele>60.4</ele><time>2026-03-28T10:01:20Z</time></trkpt><trkpt lat="45.05395404736835" lon="9.686366889658352"><ele>60.8</ele><time>2026-03-28T10:01:23Z</time></trkpt><trkpt lat="45.053871716261035" lon="9.6863559460171"><ele>61.2</ele><time>2026-03-28T10:01:25Z</time></trkpt><trkpt lat="45.05376619150374" lon="9.686325664354447"><ele>61.6</ele><time>2026-03-28T10:01:26.999Z</time></trkpt><trkpt lat="45.05365322993875" lon="9.686308421746684"><ele>62.0</ele><time>2026-03-28T10:01:28.999Z</time></trkpt><trkpt lat="45.05353341002179" lon="9.686290378812632"><ele>62.0</ele><time>2026-03-28T10:01:30.999Z</time></trkpt><trkpt lat="45.053469672838645" lon="9.686265830989358"><ele>62.00000000000001</ele><time>2026-03-28T10:01:31.999Z</time></trkpt><trkpt lat="45.05340256595621" lon="9.686247940812807"><ele>62.0</ele><time>2026-03-28T10:01:32.999Z</time></trkpt><trkpt lat="45.05333241971406" lon="9.68623431805637"><ele>62.0</ele><time>2026-03-28T10:01:33.999Z</time></trkpt><trkpt lat="45.0532644523585" lon="9.686209775817819"><ele>62.00000000000001</ele><time>2026-03-28T10:01:34.999Z</time></trkpt><trkpt lat="45.053194846690886" lon="9.686180166852896"><ele>62.0</ele><time>2026-03-28T10:01:35.999Z</time></trkpt><trkpt lat="45.0531308238415" lon="9.686167618618557"><ele>62.0</ele><time>2026-03-28T10:01:36.999Z</time></trkpt><trkpt lat="45.05304961563586" lon="9.686166951170431"><ele>62.00000000000001</ele><time>2026-03-28T10:01:38.999Z</time></trkpt><trkpt lat="45.05297827029104" lon="9.686176558221497"><ele>62.0</ele><time>2026-03-28T10:01:41.999Z</time></trkpt><trkpt lat="45.052967039553046" lon="9.686069660814734"><ele>62.0</ele><time>2026-03-28T10:01:42.999Z</time></trkpt><trkpt lat="45.05295266191109" lon="9.685909969375365"><ele>62.0</ele><time>2026-03-28T10:01:44.999Z</time></trkpt><trkpt lat="45.05293177733407" lon="9.685751469945057"><ele>62.00000000000001</ele><time>2026-03-28T10:01:46.999Z</time></trkpt><trkpt lat="45.05292185689569" lon="9.685660044662027"><ele>62.0</ele><time>2026-03-28T10:01:47.999Z</time></trkpt><trkpt lat="45.052891106775235" lon="9.685571893148229"><ele>62.00000000000001</ele><time>2026-03-28T10:01:48.999Z</time></trkpt><trkpt lat="45.052873668677755" lon="9.685485966861764"><ele>62.0</ele><time>2026-03-28T10:01:49.999Z</time></trkpt><trkpt lat="45.05285876770678" lon="9.685398091807665"><ele>62.0</ele><time>2026-03-28T10:01:50.999Z</time></trkpt><trkpt lat="45.05281857470799" lon="9.685252579906416"><ele>62.0</ele><time>2026-03-28T10:01:52.999Z</time></trkpt><trkpt lat="45.052775886575176" lon="9.685097718022602"><ele>62.00000000000001</ele><time>2026-03-28T10:01:54.999Z</time></trkpt><trkpt lat="45.052748867238385" lon="9.685003798598986"><ele>62.0</ele><time>2026-03-28T10:01:55.999Z</time></trkpt><trkpt lat="45.05273319833949" lon="9.684899814239323"><ele>62.00000000000001</ele><time>2026-03-28T10:01:56.999Z</time></trkpt><trkpt lat="45.05268895055455" lon="9.684812817537775"><ele>62.0</ele><time>2026-03-28T10:01:57.999Z</time></trkpt><trkpt lat="45.05263925713596" lon="9.684739507357463"><ele>62.0</ele><time>2026-03-28T10:01:58.999Z</time></trkpt><trkpt lat="45.05260285332525" lon="9.684663693053489"><ele>62.0</ele><time>2026-03-28T10:01:59.999Z</time></trkpt><trkpt lat="45.05252817599533" lon="9.684537152355647"><ele>62.00000000000001</ele><time>2026-03-28T10:02:01.999Z</time></trkpt><trkpt lat="45.05246501979412" lon="9.684427001217783"><ele>62.0</ele><time>2026-03-28T10:02:03.999Z</time></trkpt><trkpt lat="45.05240478112628" lon="9.684336282484503"><ele>61.400000000000006</ele><time>2026-03-28T10:02:05.999Z</time></trkpt><trkpt lat="45.05234402992642" lon="9.68423002070964"><ele>60.800000000000004</ele><time>2026-03-28T10:02:08Z</time></trkpt><trkpt lat="45.05228825755839" lon="9.684155855194309"><ele>60.2</ele><time>2026-03-28T10:02:10Z</time></trkpt><trkpt lat="45.0521962513194" lon="9.684087542758645"><ele>59.6</ele><time>2026-03-28T10:02:12Z</time></trkpt><trkpt lat="45.05210386367236" lon="9.684194872894828"><ele>59.0</ele><time>2026-03-28T10:02:14Z</time></trkpt><trkpt lat="45.052045198503315" lon="9.684263026411916"><ele>59.0</ele><time>2026-03-28T10:02:15Z</time></trkpt><trkpt lat="45.05198134409844" lon="9.684337208451945"><ele>59.00000000000001</ele><time>2026-03-28T10:02:16Z</time></trkpt><trkpt lat="45.05190909967086" lon="9.684421137506149"><ele>59.00000000000001</ele><time>2026-03-28T10:02:17Z</time></trkpt><trkpt lat="45.051837293919576" lon="9.684504556582478"><ele>59.0</ele><time>2026-03-28T10:02:18Z</time></trkpt><trkpt lat="45.05176033510167" lon="9.684593798314486"><ele>59.0</ele><time>2026-03-28T10:02:19Z</time></trkpt><trkpt lat="45.05168325435418" lon="9.684683226039242"><ele>59.0</ele><time>2026-03-28T10:02:20Z</time></trkpt><trkpt lat="45.05160381524278" lon="9.684775645223102"><ele>59.00000000000001</ele><time>2026-03-28T10:02:21Z</time></trkpt><trkpt lat="45.05152789137537" lon="9.684864668234345"><ele>59.00000000000001</ele><time>2026-03-28T10:02:22Z</time></trkpt><trkpt lat="45.05145245351341" lon="9.684954055281795"><ele>59.0</ele><time>2026-03-28T10:02:23Z</time></trkpt><trkpt lat="45.051379757789896" lon="9.685040102545088"><ele>59.0</ele><time>2026-03-28T10:02:24Z</time></trkpt><trkpt lat="45.051303422808864" lon="9.685130457030501"><ele>59.0</ele><time>2026-03-28T10:02:25Z</time></trkpt><trkpt lat="45.05124507068809" lon="9.68524673925289"><ele>59.00000000000001</ele><time>2026-03-28T10:02:26Z</time></trkpt><trkpt lat="45.05116988811105" lon="9.685334804949463"><ele>59.00000000000001</ele><time>2026-03-28T10:02:27Z</time></trkpt><trkpt lat="45.051097172555195" lon="9.685427660106814"><ele>59.0</ele><time>2026-03-28T10:02:28Z</time></trkpt><trkpt lat="45.051019930314915" lon="9.685517606735223"><ele>59.0</ele><time>2026-03-28T10:02:29Z</time></trkpt><trkpt lat="45.05094629837858" lon="9.685602991278946"><ele>59.00000000000001</ele><time>2026-03-28T10:02:30Z</time></trkpt><trkpt lat="45.05087294556313" lon="9.685693801767698"><ele>59.0</ele><time>2026-03-28T10:02:31Z</time></trkpt><trkpt lat="45.050798681283425" lon="9.6857777268583"><ele>59.0</ele><time>2026-03-28T10:02:32Z</time></trkpt><trkpt lat="45.05072832123665" lon="9.685862576520112"><ele>59.0</ele><time>2026-03-28T10:02:33Z</time></trkpt><trkpt lat="45.050662770713274" lon="9.685939754518664"><ele>59.00000000000001</ele><time>2026-03-28T10:02:34Z</time></trkpt><trkpt lat="45.050605772202665" lon="9.686016684525775"><ele>59.0</ele><time>2026-03-28T10:02:35Z</time></trkpt><trkpt lat="45.05054414820622" lon="9.686066300865727"><ele>60.00000000000001</ele><time>2026-03-28T10:02:36Z</time></trkpt><trkpt lat="45.05047325226912" lon="9.686154490930496"><ele>61.0</ele><time>2026-03-28T10:02:38Z</time></trkpt><trkpt lat="45.05041920006976" lon="9.686221577448597"><ele>62.0</ele><time>2026-03-28T10:02:40Z</time></trkpt><trkpt lat="45.05035743124232" lon="9.686298236989286"><ele>63.0</ele><time>2026-03-28T10:02:43Z</time></trkpt><trkpt lat="45.05030294277849" lon="9.686393097391223"><ele>64.0</ele><time>2026-03-28T10:02:45Z</time></trkpt><trkpt lat="45.05023321262237" lon="9.686459045058964"><ele>65.0</ele><time>2026-03-28T10:02:47Z</time></trkpt><trkpt lat="45.05016616403643" lon="9.686544266401997"><ele>65.0</ele><time>2026-03-28T10:02:49Z</time></trkpt><trkpt lat="45.05008310191369" lon="9.686571862319267"><ele>65.0</ele><time>2026-03-28T10:02:51Z</time></trkpt><trkpt lat="45.049983185398624" lon="9.686500351245591"><ele>65.0</ele><time>2026-03-28T10:02:53Z</time></trkpt><trkpt lat="45.049924911456685" lon="9.686466210258693"><ele>65.0</ele><time>2026-03-28T10:02:54Z</time></trkpt><trkpt lat="45.04985655853767" lon="9.686431209297226"><ele>65.0</ele><time>2026-03-28T10:02:55Z</time></trkpt><trkpt lat="45.04978472559998" lon="9.686387225207852"><ele>65.0</ele><time>2026-03-28T10:02:56Z</time></trkpt><trkpt lat="45.04970644131897" lon="9.686339129093508"><ele>64.8</ele><time>2026-03-28T10:02:57Z</time></trkpt><trkpt lat="45.049624925599865" lon="9.6862822949637"><ele>64.6</ele><time>2026-03-28T10:02:58Z</time></trkpt><trkpt lat="45.04954188350474" lon="9.686231555247788"><ele>64.4</ele><time>2026-03-28T10:02:59Z</time></trkpt><trkpt lat="45.04945581353134" lon="9.68618503967907"><ele>64.2</ele><time>2026-03-28T10:03:00Z</time></trkpt><trkpt lat="45.04936815414871" lon="9.686132949457972"><ele>64.0</ele><time>2026-03-28T10:03:01Z</time></trkpt><trkpt lat="45.049281811620816" lon="9.686084449518521"><ele>64.0</ele><time>2026-03-28T10:03:02Z</time></trkpt><trkpt lat="45.04919527473838" lon="9.686039953144519"><ele>64.0</ele><time>2026-03-28T10:03:03Z</time></trkpt><trkpt lat="45.049112959342345" lon="9.685989575280239"><ele>64.0</ele><time>2026-03-28T10:03:04Z</time></trkpt><trkpt lat="45.0490270796336" lon="9.68593929936966"><ele>64.0</ele><time>2026-03-28T10:03:05Z</time></trkpt><trkpt lat="45.04894380623779" lon="9.685884190201751"><ele>64.0</ele><time>2026-03-28T10:03:06Z</time></trkpt><trkpt lat="45.04885631550736" lon="9.685836336830222"><ele>63.2</ele><time>2026-03-28T10:03:07Z</time></trkpt><trkpt lat="45.04876751548116" lon="9.68578776494746"><ele>62.400000000000006</ele><time>2026-03-28T10:03:08Z</time></trkpt><trkpt lat="45.04868909073011" lon="9.685718730266668"><ele>61.6</ele><time>2026-03-28T10:03:09Z</time></trkpt><trkpt lat="45.048600969056054" lon="9.685691995865778"><ele>60.8</ele><time>2026-03-28T10:03:10Z</time></trkpt><trkpt lat="45.048525583762334" lon="9.685628520633529"><ele>60.0</ele><time>2026-03-28T10:03:11Z</time></trkpt><trkpt lat="45.04844681819255" lon="9.685579930316022"><ele>60.0</ele><time>2026-03-28T10:03:12Z</time></trkpt><trkpt lat="45.048363742099845" lon="9.685531292884072"><ele>60.0</ele><time>2026-03-28T10:03:13Z</time></trkpt><trkpt lat="45.04828455745959" lon="9.685483975554053"><ele>60.0</ele><time>2026-03-28T10:03:14Z</time></trkpt><trkpt lat="45.04821118152895" lon="9.685428111334735"><ele>60.0</ele><time>2026-03-28T10:03:15Z</time></trkpt><trkpt lat="45.04815868528255" lon="9.685359610590352"><ele>60.0</ele><time>2026-03-28T10:03:16Z</time></trkpt><trkpt lat="45.048111316432866" lon="9.685300387959005"><ele>60.0</ele><time>2026-03-28T10:03:17Z</time></trkpt><trkpt lat="45.04800270086144" lon="9.68525722030045"><ele>60.166666666666664</ele><time>2026-03-28T10:03:19Z</time></trkpt><trkpt lat="45.04795956546575" lon="9.68534733246252"><ele>60.33333333333333</ele><time>2026-03-28T10:03:20Z</time></trkpt><trkpt lat="45.04793214980741" lon="9.685438686521072"><ele>60.5</ele><time>2026-03-28T10:03:21Z</time></trkpt><trkpt lat="45.04790258267994" lon="9.685528888464813"><ele>60.666666666666664</ele><time>2026-03-28T10:03:22Z</time></trkpt><trkpt lat="45.047857708147376" lon="9.68561429716708"><ele>60.83333333333333</ele><time>2026-03-28T10:03:23Z</time></trkpt><trkpt lat="45.04781208851242" lon="9.685706682896468"><ele>61.0</ele><time>2026-03-28T10:03:24Z</time></trkpt><trkpt lat="45.04776157497346" lon="9.685800889499268"><ele>60.99999999999999</ele><time>2026-03-28T10:03:25Z</time></trkpt><trkpt lat="45.04771211784322" lon="9.685892268890854"><ele>61.0</ele><time>2026-03-28T10:03:26Z</time></trkpt><trkpt lat="45.04766700670758" lon="9.685980820510624"><ele>61.0</ele><time>2026-03-28T10:03:27Z</time></trkpt><trkpt lat="45.047628577071464" lon="9.686061183746498"><ele>61.0</ele><time>2026-03-28T10:03:28Z</time></trkpt><trkpt lat="45.047563274830885" lon="9.686198134598529"><ele>60.99999999999999</ele><time>2026-03-28T10:03:30Z</time></trkpt><trkpt lat="45.047508398764506" lon="9.686310174769545"><ele>61.0</ele><time>2026-03-28T10:03:32Z</time></trkpt><trkpt lat="45.04746028710311" lon="9.686404645866256"><ele>61.0</ele><time>2026-03-28T10:03:34Z</time></trkpt><trkpt lat="45.047382542821076" lon="9.68648917863925"><ele>60.99999999999999</ele><time>2026-03-28T10:03:37Z</time></trkpt><trkpt lat="45.047295993678645" lon="9.686456826770973"><ele>60.99999999999999</ele><time>2026-03-28T10:03:38.999Z</time></trkpt><trkpt lat="45.047219662722576" lon="9.686332454816338"><ele>61.0</ele><time>2026-03-28T10:03:40.999Z</time></trkpt><trkpt lat="45.04713941689696" lon="9.686220103929525"><ele>61.0</ele><time>2026-03-28T10:03:42.999Z</time></trkpt><trkpt lat="45.04706122244016" lon="9.686118450241722"><ele>60.99999999999999</ele><time>2026-03-28T10:03:44.999Z</time></trkpt><trkpt lat="45.04698861595828" lon="9.686016864426307"><ele>61.0</ele><time>2026-03-28T10:03:46.999Z</time></trkpt><trkpt lat="45.04692652137403" lon="9.685931215973426"><ele>61.0</ele><time>2026-03-28T10:03:48.999Z</time></trkpt><trkpt lat="45.0468767877611" lon="9.685870495696642"><ele>61.0</ele><time>2026-03-28T10:03:50.999Z</time></trkpt><trkpt lat="45.04682943728972" lon="9.685807219329869"><ele>60.99999999999999</ele><time>2026-03-28T10:03:52.999Z</time></trkpt><trkpt lat="45.04677512882806" lon="9.685735115481679"><ele>61.0</ele><time>2026-03-28T10:03:54.999Z</time></trkpt><trkpt lat="45.04671321048765" lon="9.685621258429848"><ele>61.0</ele><time>2026-03-28T10:03:57.999Z</time></trkpt><trkpt lat="45.04666953949379" lon="9.685511773169118"><ele>60.99999999999999</ele><time>2026-03-28T10:03:59.999Z</time></trkpt><trkpt lat="45.04659922544372" lon="9.685415898408248"><ele>60.99999999999999</ele><time>2026-03-28T10:04:01.999Z</time></trkpt><trkpt lat="45.04651079951143" lon="9.685356986908971"><ele>61.0</ele><time>2026-03-28T10:04:03.999Z</time></trkpt><trkpt lat="45.04644539664181" lon="9.685272860533457"><ele>61.0</ele><time>2026-03-28T10:04:05.999Z</time></trkpt><trkpt lat="45.0463742599074" lon="9.685167520304889"><ele>61.666666666666664</ele><time>2026-03-28T10:04:07.999Z</time></trkpt><trkpt lat="45.046290389582296" lon="9.68506796417625"><ele>62.33333333333333</ele><time>2026-03-28T10:04:09.999Z</time></trkpt><trkpt lat="45.04620679600112" lon="9.684976506556515"><ele>63.0</ele><time>2026-03-28T10:04:11.999Z</time></trkpt><trkpt lat="45.04616459577155" lon="9.684909999925573"><ele>63.66666666666667</ele><time>2026-03-28T10:04:12.999Z</time></trkpt><trkpt lat="45.046110910193306" lon="9.684842537557323"><ele>64.33333333333334</ele><time>2026-03-28T10:04:14Z</time></trkpt><trkpt lat="45.04606296622964" lon="9.684768965366112"><ele>65.0</ele><time>2026-03-28T10:04:15Z</time></trkpt><trkpt lat="45.046006992793636" lon="9.684693139914646"><ele>65.0</ele><time>2026-03-28T10:04:16Z</time></trkpt><trkpt lat="45.045945231936116" lon="9.684610110879834"><ele>65.0</ele><time>2026-03-28T10:04:17Z</time></trkpt><trkpt lat="45.04589317525162" lon="9.684539812522944"><ele>65.0</ele><time>2026-03-28T10:04:18Z</time></trkpt><trkpt lat="45.045847735986364" lon="9.684450986336296"><ele>65.0</ele><time>2026-03-28T10:04:19Z</time></trkpt><trkpt lat="45.0457857310502" lon="9.684362289990027"><ele>65.0</ele><time>2026-03-28T10:04:20Z</time></trkpt><trkpt lat="45.04569444004015" lon="9.684221798820055"><ele>66.16666666666667</ele><time>2026-03-28T10:04:22Z</time></trkpt><trkpt lat="45.045638295509036" lon="9.684155603510117"><ele>67.33333333333334</ele><time>2026-03-28T10:04:23Z</time></trkpt><trkpt lat="45.04558333442415" lon="9.684086233205388"><ele>68.5</ele><time>2026-03-28T10:04:24Z</time></trkpt><trkpt lat="45.045523306432216" lon="9.684021625273713"><ele>69.66666666666667</ele><time>2026-03-28T10:04:25Z</time></trkpt><trkpt lat="45.04546742673594" lon="9.683948837418656"><ele>70.83333333333333</ele><time>2026-03-28T10:04:26Z</time></trkpt><trkpt lat="45.04540434028833" lon="9.683877747861878"><ele>72.0</ele><time>2026-03-28T10:04:27Z</time></trkpt><trkpt lat="45.04535018569661" lon="9.683792807503378"><ele>72.0</ele><time>2026-03-28T10:04:28Z</time></trkpt><trkpt lat="45.045291239011924" lon="9.683712239307317"><ele>72.0</ele><time>2026-03-28T10:04:29Z</time></trkpt><trkpt lat="45.0452339698952" lon="9.683632482038831"><ele>72.0</ele><time>2026-03-28T10:04:30Z</time></trkpt><trkpt lat="45.045177406404584" lon="9.683552581080377"><ele>72.0</ele><time>2026-03-28T10:04:31Z</time></trkpt><trkpt lat="45.045116688603564" lon="9.683480577144445"><ele>72.0</ele><time>2026-03-28T10:04:32Z</time></trkpt><trkpt lat="45.04506110237331" lon="9.683405894219181"><ele>72.0</ele><time>2026-03-28T10:04:33Z</time></trkpt><trkpt lat="45.04499403373596" lon="9.683348091836232"><ele>70.8</ele><time>2026-03-28T10:04:34Z</time></trkpt><trkpt lat="45.04491056133752" lon="9.68332376444971"><ele>69.6</ele><time>2026-03-28T10:04:35Z</time></trkpt><trkpt lat="45.04482208896984" lon="9.683363391372994"><ele>68.39999999999999</ele><time>2026-03-28T10:04:36Z</time></trkpt><trkpt lat="45.0447325158906" lon="9.683388246148805"><ele>67.2</ele><time>2026-03-28T10:04:37Z</time></trkpt><trkpt lat="45.04463770334932" lon="9.683414616170008"><ele>66.0</ele><time>2026-03-28T10:04:38Z</time></trkpt><trkpt lat="45.04454092394489" lon="9.6834262741335"><ele>66.0</ele><time>2026-03-28T10:04:39Z</time></trkpt><trkpt lat="45.04444257463434" lon="9.683437559149713"><ele>66.0</ele><time>2026-03-28T10:04:40Z</time></trkpt><trkpt lat="45.04434852124318" lon="9.683449906217088"><ele>66.0</ele><time>2026-03-28T10:04:41Z</time></trkpt><trkpt lat="45.04426508948476" lon="9.683459515039317"><ele>66.0</ele><time>2026-03-28T10:04:42Z</time></trkpt><trkpt lat="45.044179822530054" lon="9.683466194215969"><ele>66.0</ele><time>2026-03-28T10:04:43Z</time></trkpt><trkpt lat="45.04409019554941" lon="9.683467338411631"><ele>65.66666666666667</ele><time>2026-03-28T10:04:44Z</time></trkpt><trkpt lat="45.04400354320644" lon="9.683477363875763"><ele>65.33333333333333</ele><time>2026-03-28T10:04:45Z</time></trkpt><trkpt lat="45.04392901145804" lon="9.683483124040304"><ele>65.0</ele><time>2026-03-28T10:04:46Z</time></trkpt><trkpt lat="45.04386444286563" lon="9.683492720349982"><ele>64.66666666666666</ele><time>2026-03-28T10:04:47Z</time></trkpt><trkpt lat="45.04373462186167" lon="9.683517133229795"><ele>64.33333333333333</ele><time>2026-03-28T10:04:49Z</time></trkpt><trkpt lat="45.04366074801871" lon="9.683525668283417"><ele>64.0</ele><time>2026-03-28T10:04:50Z</time></trkpt><trkpt lat="45.0435769935302" lon="9.683532904067954"><ele>64.0</ele><time>2026-03-28T10:04:51Z</time></trkpt><trkpt lat="45.04348422244811" lon="9.68354155006818"><ele>64.0</ele><time>2026-03-28T10:04:52Z</time></trkpt><trkpt lat="45.04338535975907" lon="9.683542320903921"><ele>64.0</ele><time>2026-03-28T10:04:53Z</time></trkpt><trkpt lat="45.043284623568425" lon="9.683547108709073"><ele>64.0</ele><time>2026-03-28T10:04:54Z</time></trkpt><trkpt lat="45.043185959778484" lon="9.683552792694583"><ele>64.0</ele><time>2026-03-28T10:04:55Z</time></trkpt><trkpt lat="45.04309773869445" lon="9.683561253716393"><ele>64.16666666666666</ele><time>2026-03-28T10:04:56Z</time></trkpt><trkpt lat="45.043013731298586" lon="9.683567728250125"><ele>64.33333333333333</ele><time>2026-03-28T10:04:57Z</time></trkpt><trkpt lat="45.042930674989584" lon="9.683581023068959"><ele>64.5</ele><time>2026-03-28T10:04:58Z</time></trkpt><trkpt lat="45.04284573230223" lon="9.683594396786246"><ele>64.66666666666667</ele><time>2026-03-28T10:04:59Z</time></trkpt><trkpt lat="45.04275645053726" lon="9.683605661754076"><ele>64.83333333333334</ele><time>2026-03-28T10:05:00Z</time></trkpt><trkpt lat="45.04266646562905" lon="9.68361294291083"><ele>65.0</ele><time>2026-03-28T10:05:01Z</time></trkpt><trkpt lat="45.042577527008646" lon="9.683620206345987"><ele>64.83333333333334</ele><time>2026-03-28T10:05:02Z</time></trkpt><trkpt lat="45.042503035897084" lon="9.68362985394367"><ele>64.66666666666667</ele><time>2026-03-28T10:05:04Z</time></trkpt><trkpt lat="45.04243602425209" lon="9.683669781537153"><ele>64.5</ele><time>2026-03-28T10:06:39Z</time></trkpt><trkpt lat="45.04234079865426" lon="9.683678031676262"><ele>64.33333333333333</ele><time>2026-03-28T10:06:41Z</time></trkpt><trkpt lat="45.04225850434409" lon="9.683686372054057"><ele>64.16666666666666</ele><time>2026-03-28T10:06:42Z</time></trkpt><trkpt lat="45.042171378514084" lon="9.683694614848319"><ele>64.0</ele><time>2026-03-28T10:06:43Z</time></trkpt><trkpt lat="45.04206874025192" lon="9.683703825167358"><ele>64.0</ele><time>2026-03-28T10:06:44Z</time></trkpt><trkpt lat="45.0419625227037" lon="9.683712319464764"><ele>64.0</ele><time>2026-03-28T10:06:45Z</time></trkpt><trkpt lat="45.04185142854125" lon="9.68372245351379"><ele>64.0</ele><time>2026-03-28T10:06:46Z</time></trkpt><trkpt lat="45.04173630911576" lon="9.683738259225775"><ele>64.0</ele><time>2026-03-28T10:06:47Z</time></trkpt><trkpt lat="45.04163135869372" lon="9.683753543361302"><ele>64.0</ele><time>2026-03-28T10:06:48Z</time></trkpt><trkpt lat="45.041538403902564" lon="9.683765439334621"><ele>64.16666666666666</ele><time>2026-03-28T10:06:49Z</time></trkpt><trkpt lat="45.04145218734318" lon="9.683771047447564"><ele>64.33333333333333</ele><time>2026-03-28T10:06:50Z</time></trkpt><trkpt lat="45.041372986832364" lon="9.683778910262594"><ele>64.5</ele><time>2026-03-28T10:06:51Z</time></trkpt><trkpt lat="45.0412944657704" lon="9.683783626963628"><ele>64.66666666666667</ele><time>2026-03-28T10:06:52Z</time></trkpt><trkpt lat="45.04121364495442" lon="9.683788161201937"><ele>64.83333333333334</ele><time>2026-03-28T10:06:53Z</time></trkpt><trkpt lat="45.04112616463958" lon="9.683798243453436"><ele>65.0</ele><time>2026-03-28T10:06:54Z</time></trkpt><trkpt lat="45.0410363566317" lon="9.683813798997035"><ele>65.0</ele><time>2026-03-28T10:06:55Z</time></trkpt><trkpt lat="45.0409436167711" lon="9.683823033968903"><ele>65.0</ele><time>2026-03-28T10:06:56Z</time></trkpt><trkpt lat="45.04085072202188" lon="9.683829360250407"><ele>65.0</ele><time>2026-03-28T10:06:57Z</time></trkpt><trkpt lat="45.040767245358666" lon="9.683835343924175"><ele>65.0</ele><time>2026-03-28T10:06:58Z</time></trkpt><trkpt lat="45.04068495622689" lon="9.683843477880352"><ele>65.0</ele><time>2026-03-28T10:06:59Z</time></trkpt><trkpt lat="45.04059690619843" lon="9.683852252586533"><ele>65.0</ele><time>2026-03-28T10:07:00Z</time></trkpt><trkpt lat="45.04050637921265" lon="9.68386570528737"><ele>64.83333333333334</ele><time>2026-03-28T10:07:01Z</time></trkpt><trkpt lat="45.04042094434533" lon="9.68387639863122"><ele>64.66666666666667</ele><time>2026-03-28T10:07:02Z</time></trkpt><trkpt lat="45.04034292526944" lon="9.683887739433091"><ele>64.5</ele><time>2026-03-28T10:07:03Z</time></trkpt><trkpt lat="45.040269975141335" lon="9.68389702718986"><ele>64.33333333333333</ele><time>2026-03-28T10:07:04Z</time></trkpt><trkpt lat="45.04020713109206" lon="9.683902351277156"><ele>64.16666666666666</ele><time>2026-03-28T10:07:05Z</time></trkpt><trkpt lat="45.04011609543882" lon="9.683903947646584"><ele>64.0</ele><time>2026-03-28T10:07:07Z</time></trkpt><trkpt lat="45.03998678744757" lon="9.683919587687516"><ele>63.6</ele><time>2026-03-28T10:07:09Z</time></trkpt><trkpt lat="45.03992195621322" lon="9.683921732917431"><ele>63.2</ele><time>2026-03-28T10:07:10Z</time></trkpt><trkpt lat="45.03982238306572" lon="9.683913365641637"><ele>62.800000000000004</ele><time>2026-03-28T10:07:12Z</time></trkpt><trkpt lat="45.03973649558462" lon="9.683908642685871"><ele>62.400000000000006</ele><time>2026-03-28T10:07:17Z</time></trkpt><trkpt lat="45.03964943856731" lon="9.683898650862847"><ele>62.0</ele><time>2026-03-28T10:07:19Z</time></trkpt><trkpt lat="45.03953638584982" lon="9.683921597015447"><ele>62.00000000000001</ele><time>2026-03-28T10:07:21Z</time></trkpt><trkpt lat="45.03941875821715" lon="9.683988863002709"><ele>62.0</ele><time>2026-03-28T10:07:23Z</time></trkpt><trkpt lat="45.03935352541303" lon="9.68402515724147"><ele>62.0</ele><time>2026-03-28T10:07:24Z</time></trkpt><trkpt lat="45.039283749204984" lon="9.684030769679662"><ele>62.0</ele><time>2026-03-28T10:07:25Z</time></trkpt><trkpt lat="45.03921637938316" lon="9.684038748363688"><ele>62.00000000000001</ele><time>2026-03-28T10:07:26Z</time></trkpt><trkpt lat="45.03914620687928" lon="9.68404094522914"><ele>62.0</ele><time>2026-03-28T10:07:27Z</time></trkpt><trkpt lat="45.039070474481" lon="9.684048232868204"><ele>62.400000000000006</ele><time>2026-03-28T10:07:28Z</time></trkpt><trkpt lat="45.03900249458447" lon="9.684053759136091"><ele>62.800000000000004</ele><time>2026-03-28T10:07:29Z</time></trkpt><trkpt lat="45.03889753228604" lon="9.684054781559464"><ele>63.2</ele><time>2026-03-28T10:07:31Z</time></trkpt><trkpt lat="45.0387742499597" lon="9.684045503153582"><ele>63.6</ele><time>2026-03-28T10:07:32.999Z</time></trkpt><trkpt lat="45.038697907031676" lon="9.684034922947486"><ele>64.0</ele><time>2026-03-28T10:07:33.999Z</time></trkpt><trkpt lat="45.03862059790432" lon="9.684066234449027"><ele>64.0</ele><time>2026-03-28T10:07:34.999Z</time></trkpt><trkpt lat="45.03854027346568" lon="9.68410942704352"><ele>64.0</ele><time>2026-03-28T10:07:35.999Z</time></trkpt><trkpt lat="45.03844078277197" lon="9.684139178617018"><ele>64.0</ele><time>2026-03-28T10:07:36.999Z</time></trkpt><trkpt lat="45.03834476019919" lon="9.684143429869376"><ele>64.0</ele><time>2026-03-28T10:07:37.999Z</time></trkpt><trkpt lat="45.03824626407194" lon="9.684153710485754"><ele>64.0</ele><time>2026-03-28T10:07:38.999Z</time></trkpt><trkpt lat="45.03814559380386" lon="9.684163869066042"><ele>64.0</ele><time>2026-03-28T10:07:39.999Z</time></trkpt><trkpt lat="45.038044987756315" lon="9.684173586472918"><ele>64.0</ele><time>2026-03-28T10:07:40.999Z</time></trkpt><trkpt lat="45.037945018076044" lon="9.684181355784949"><ele>64.0</ele><time>2026-03-28T10:07:41.999Z</time></trkpt><trkpt lat="45.037844593416445" lon="9.684189376901777"><ele>64.0</ele><time>2026-03-28T10:07:42.999Z</time></trkpt><trkpt lat="45.037744085099064" lon="9.684203292055347"><ele>64.0</ele><time>2026-03-28T10:07:43.999Z</time></trkpt><trkpt lat="45.03764678280725" lon="9.684215959144028"><ele>63.99999999999999</ele><time>2026-03-28T10:07:44.999Z</time></trkpt><trkpt lat="45.037558014695165" lon="9.684227457771192"><ele>64.0</ele><time>2026-03-28T10:07:45.999Z</time></trkpt><trkpt lat="45.03747650898894" lon="9.68423583541743"><ele>64.0</ele><time>2026-03-28T10:07:46.999Z</time></trkpt><trkpt lat="45.03740197225615" lon="9.68424295047342"><ele>64.0</ele><time>2026-03-28T10:07:47.999Z</time></trkpt><trkpt lat="45.03733188096849" lon="9.684249047815333"><ele>63.99999999999999</ele><time>2026-03-28T10:07:48.999Z</time></trkpt><trkpt lat="45.03726789757501" lon="9.684252773986998"><ele>64.0</ele><time>2026-03-28T10:07:49.999Z</time></trkpt><trkpt lat="45.03714890863913" lon="9.684243890984199"><ele>63.83333333333333</ele><time>2026-03-28T10:07:51.999Z</time></trkpt><trkpt lat="45.03704627384561" lon="9.684244752849473"><ele>63.666666666666664</ele><time>2026-03-28T10:07:53.999Z</time></trkpt><trkpt lat="45.03697135670241" lon="9.684263686544725"><ele>63.5</ele><time>2026-03-28T10:07:56.999Z</time></trkpt><trkpt lat="45.03690603464916" lon="9.684310403349462"><ele>63.33333333333333</ele><time>2026-03-28T10:07:59.999Z</time></trkpt><trkpt lat="45.036838025968834" lon="9.684326024386225"><ele>63.166666666666664</ele><time>2026-03-28T10:08:01.999Z</time></trkpt><trkpt lat="45.036767274927655" lon="9.684322670447099"><ele>63.0</ele><time>2026-03-28T10:08:09.999Z</time></trkpt><trkpt lat="45.036669095053156" lon="9.684326088308554"><ele>63.4</ele><time>2026-03-28T10:08:11.999Z</time></trkpt><trkpt lat="45.03660535650963" lon="9.684324064128239"><ele>63.8</ele><time>2026-03-28T10:08:12.999Z</time></trkpt><trkpt lat="45.03649352060061" lon="9.684327202425845"><ele>64.2</ele><time>2026-03-28T10:08:14.999Z</time></trkpt><trkpt lat="45.03638320034568" lon="9.684346269347246"><ele>64.6</ele><time>2026-03-28T10:08:16.999Z</time></trkpt><trkpt lat="45.03629413641343" lon="9.684363228155998"><ele>65.0</ele><time>2026-03-28T10:08:18.999Z</time></trkpt><trkpt lat="45.036196816994256" lon="9.68437647004895"><ele>65.0</ele><time>2026-03-28T10:08:20.999Z</time></trkpt><trkpt lat="45.036076372676526" lon="9.684380506192825"><ele>65.0</ele><time>2026-03-28T10:08:22.999Z</time></trkpt><trkpt lat="45.03600091034233" lon="9.684380267058419"><ele>65.0</ele><time>2026-03-28T10:08:23.999Z</time></trkpt><trkpt lat="45.03588135900557" lon="9.684391106173452"><ele>65.0</ele><time>2026-03-28T10:08:24.999Z</time></trkpt><trkpt lat="45.03574092911272" lon="9.684404646781553"><ele>65.0</ele><time>2026-03-28T10:08:26Z</time></trkpt><trkpt lat="45.03563491082364" lon="9.684416551828656"><ele>65.0</ele><time>2026-03-28T10:08:27Z</time></trkpt><trkpt lat="45.035548560745916" lon="9.684427526349918"><ele>65.0</ele><time>2026-03-28T10:08:28Z</time></trkpt><trkpt lat="45.03547667970907" lon="9.684434067208183"><ele>65.0</ele><time>2026-03-28T10:08:29Z</time></trkpt><trkpt lat="45.03540033981831" lon="9.68444348186977"><ele>65.0</ele><time>2026-03-28T10:08:30Z</time></trkpt><trkpt lat="45.03531673080393" lon="9.684454526333448"><ele>65.0</ele><time>2026-03-28T10:08:31Z</time></trkpt><trkpt lat="45.035238673664914" lon="9.684464884460613"><ele>64.83333333333334</ele><time>2026-03-28T10:08:32Z</time></trkpt><trkpt lat="45.03516684141712" lon="9.684472269433371"><ele>64.66666666666667</ele><time>2026-03-28T10:08:33Z</time></trkpt><trkpt lat="45.035102870140996" lon="9.684479110398895"><ele>64.5</ele><time>2026-03-28T10:08:34Z</time></trkpt><trkpt lat="45.034986531071596" lon="9.684502348232217"><ele>64.33333333333333</ele><time>2026-03-28T10:08:36Z</time></trkpt><trkpt lat="45.034880366838536" lon="9.684525578027015"><ele>64.16666666666666</ele><time>2026-03-28T10:08:38Z</time></trkpt><trkpt lat="45.03480164408962" lon="9.684544078682942"><ele>64.0</ele><time>2026-03-28T10:08:40Z</time></trkpt><trkpt lat="45.03466342345886" lon="9.684575002399093"><ele>64.4</ele><time>2026-03-28T10:08:42Z</time></trkpt><trkpt lat="45.03456865755492" lon="9.684596378365647"><ele>64.80000000000001</ele><time>2026-03-28T10:08:43Z</time></trkpt><trkpt lat="45.03446331494145" lon="9.684617186021528"><ele>65.19999999999999</ele><time>2026-03-28T10:08:44Z</time></trkpt><trkpt lat="45.03435744255258" lon="9.684642382704133"><ele>65.6</ele><time>2026-03-28T10:08:45Z</time></trkpt><trkpt lat="45.03424732173129" lon="9.684665714550253"><ele>66.0</ele><time>2026-03-28T10:08:46Z</time></trkpt><trkpt lat="45.03413369969913" lon="9.684690010267595"><ele>66.5</ele><time>2026-03-28T10:08:47Z</time></trkpt><trkpt lat="45.03401871861075" lon="9.684715841005236"><ele>67.0</ele><time>2026-03-28T10:08:48Z</time></trkpt><trkpt lat="45.0339033108183" lon="9.684747866379093"><ele>67.5</ele><time>2026-03-28T10:08:49Z</time></trkpt><trkpt lat="45.03378785117282" lon="9.684780956100798"><ele>68.0</ele><time>2026-03-28T10:08:50Z</time></trkpt><trkpt lat="45.03366784794234" lon="9.684811456841368"><ele>68.0</ele><time>2026-03-28T10:08:51Z</time></trkpt><trkpt lat="45.03354857835994" lon="9.684845003557873"><ele>68.0</ele><time>2026-03-28T10:08:52Z</time></trkpt><trkpt lat="45.033431206714425" lon="9.684880017614603"><ele>68.0</ele><time>2026-03-28T10:08:53Z</time></trkpt><trkpt lat="45.03331552736541" lon="9.684911791737997"><ele>68.0</ele><time>2026-03-28T10:08:54Z</time></trkpt><trkpt lat="45.03320169225991" lon="9.684947587272331"><ele>67.4</ele><time>2026-03-28T10:08:55Z</time></trkpt><trkpt lat="45.03309120726919" lon="9.684988215743777"><ele>66.8</ele><time>2026-03-28T10:08:56Z</time></trkpt><trkpt lat="45.03298242821583" lon="9.685025965028363"><ele>66.2</ele><time>2026-03-28T10:08:57Z</time></trkpt><trkpt lat="45.032882324782044" lon="9.685062452895936"><ele>65.6</ele><time>2026-03-28T10:08:58Z</time></trkpt><trkpt lat="45.03279364484496" lon="9.685096352046518"><ele>65.0</ele><time>2026-03-28T10:08:59Z</time></trkpt><trkpt lat="45.03270989619454" lon="9.685126414059225"><ele>65.0</ele><time>2026-03-28T10:09:00Z</time></trkpt><trkpt lat="45.032625224014026" lon="9.685154613634065"><ele>65.0</ele><time>2026-03-28T10:09:01Z</time></trkpt><trkpt lat="45.032543541912794" lon="9.685180811516755"><ele>65.0</ele><time>2026-03-28T10:09:02Z</time></trkpt><trkpt lat="45.03246960679812" lon="9.685208423095041"><ele>65.0</ele><time>2026-03-28T10:09:03Z</time></trkpt><trkpt lat="45.03239734490847" lon="9.685229791003511"><ele>65.0</ele><time>2026-03-28T10:09:04Z</time></trkpt><trkpt lat="45.032326807579295" lon="9.685254608453453"><ele>65.0</ele><time>2026-03-28T10:09:05Z</time></trkpt><trkpt lat="45.032256576135254" lon="9.6852793838473"><ele>64.83333333333334</ele><time>2026-03-28T10:09:06Z</time></trkpt><trkpt lat="45.03219014893433" lon="9.685302504886225"><ele>64.66666666666667</ele><time>2026-03-28T10:09:07Z</time></trkpt><trkpt lat="45.032129366944005" lon="9.685328823950938"><ele>64.5</ele><time>2026-03-28T10:09:08Z</time></trkpt><trkpt lat="45.03201276137447" lon="9.685370403473465"><ele>64.33333333333333</ele><time>2026-03-28T10:09:10Z</time></trkpt><trkpt lat="45.031949444092476" lon="9.68539793716827"><ele>64.16666666666666</ele><time>2026-03-28T10:09:11Z</time></trkpt><trkpt lat="45.03187747502996" lon="9.685427007428228"><ele>64.0</ele><time>2026-03-28T10:09:12Z</time></trkpt><trkpt lat="45.031800827620195" lon="9.685460828365914"><ele>63.99999999999999</ele><time>2026-03-28T10:09:13Z</time></trkpt><trkpt lat="45.03171682052579" lon="9.685494986744237"><ele>64.0</ele><time>2026-03-28T10:09:14Z</time></trkpt><trkpt lat="45.03163081325262" lon="9.685524596452451"><ele>64.0</ele><time>2026-03-28T10:09:15Z</time></trkpt><trkpt lat="45.031543670408375" lon="9.685552741282581"><ele>64.0</ele><time>2026-03-28T10:09:16Z</time></trkpt><trkpt lat="45.03146030536241" lon="9.685584197575924"><ele>63.99999999999999</ele><time>2026-03-28T10:09:17Z</time></trkpt><trkpt lat="45.03138266405578" lon="9.68561176537821"><ele>64.0</ele><time>2026-03-28T10:09:18Z</time></trkpt><trkpt lat="45.031314928412115" lon="9.685634521880488"><ele>64.33333333333333</ele><time>2026-03-28T10:09:19Z</time></trkpt><trkpt lat="45.03122316272018" lon="9.685661468656276"><ele>64.66666666666666</ele><time>2026-03-28T10:09:21Z</time></trkpt><trkpt lat="45.03114550558062" lon="9.685691186783911"><ele>65.0</ele><time>2026-03-28T10:09:23Z</time></trkpt><trkpt lat="45.031070035466115" lon="9.685721137783345"><ele>65.33333333333333</ele><time>2026-03-28T10:09:25Z</time></trkpt><trkpt lat="45.03098027452497" lon="9.685752395327544"><ele>65.66666666666667</ele><time>2026-03-28T10:09:27Z</time></trkpt><trkpt lat="45.030884324530525" lon="9.685775819545363"><ele>66.0</ele><time>2026-03-28T10:09:29Z</time></trkpt><trkpt lat="45.03077641025955" lon="9.685742189824637"><ele>66.0</ele><time>2026-03-28T10:09:31Z</time></trkpt><trkpt lat="45.030671653210874" lon="9.685635653507"><ele>66.0</ele><time>2026-03-28T10:09:33Z</time></trkpt><trkpt lat="45.03062172653519" lon="9.685567195977148"><ele>66.0</ele><time>2026-03-28T10:09:34Z</time></trkpt><trkpt lat="45.030567488943866" lon="9.685514608896781"><ele>66.0</ele><time>2026-03-28T10:09:35Z</time></trkpt><trkpt lat="45.030553944605295" lon="9.68539751496013"><ele>66.0</ele><time>2026-03-28T10:09:36Z</time></trkpt><trkpt lat="45.03052453048998" lon="9.685310195935578"><ele>66.0</ele><time>2026-03-28T10:09:37Z</time></trkpt><trkpt lat="45.03048953997642" lon="9.685218254665928"><ele>66.0</ele><time>2026-03-28T10:09:37.999Z</time></trkpt><trkpt lat="45.03044862688743" lon="9.685125256434038"><ele>66.0</ele><time>2026-03-28T10:09:38.999Z</time></trkpt><trkpt lat="45.03040552980358" lon="9.685033138089977"><ele>66.0</ele><time>2026-03-28T10:09:39.999Z</time></trkpt><trkpt lat="45.030360402674646" lon="9.684939217951834"><ele>66.0</ele><time>2026-03-28T10:09:40.999Z</time></trkpt><trkpt lat="45.030314539388065" lon="9.684846062916614"><ele>66.0</ele><time>2026-03-28T10:09:41.999Z</time></trkpt><trkpt lat="45.03026576764983" lon="9.684751883158182"><ele>66.0</ele><time>2026-03-28T10:09:42.999Z</time></trkpt><trkpt lat="45.03021706382308" lon="9.684655669787285"><ele>66.0</ele><time>2026-03-28T10:09:43.999Z</time></trkpt><trkpt lat="45.030168857543416" lon="9.684557389629319"><ele>66.0</ele><time>2026-03-28T10:09:44.999Z</time></trkpt><trkpt lat="45.03012255113515" lon="9.684456769641178"><ele>66.0</ele><time>2026-03-28T10:09:45.999Z</time></trkpt><trkpt lat="45.030075584246816" lon="9.684355164635736"><ele>66.0</ele><time>2026-03-28T10:09:46.999Z</time></trkpt><trkpt lat="45.03002548567933" lon="9.684254224031221"><ele>66.0</ele><time>2026-03-28T10:09:47.999Z</time></trkpt><trkpt lat="45.029976757232305" lon="9.684152609032768"><ele>66.0</ele><time>2026-03-28T10:09:48.999Z</time></trkpt><trkpt lat="45.029927198424005" lon="9.684049766730876"><ele>65.66666666666667</ele><time>2026-03-28T10:09:49.999Z</time></trkpt><trkpt lat="45.02988275309808" lon="9.68394490278758"><ele>65.33333333333333</ele><time>2026-03-28T10:09:50.999Z</time></trkpt><trkpt lat="45.0298378100185" lon="9.683840193683796"><ele>65.0</ele><time>2026-03-28T10:09:51.999Z</time></trkpt><trkpt lat="45.02979558811263" lon="9.683734671351587"><ele>64.66666666666666</ele><time>2026-03-28T10:09:52.999Z</time></trkpt><trkpt lat="45.02974833363138" lon="9.683632625419047"><ele>64.33333333333333</ele><time>2026-03-28T10:09:53.999Z</time></trkpt><trkpt lat="45.029690327640516" lon="9.683539472592267"><ele>64.0</ele><time>2026-03-28T10:09:54.999Z</time></trkpt><trkpt lat="45.02963104275998" lon="9.68345026718729"><ele>63.99999999999999</ele><time>2026-03-28T10:09:55.999Z</time></trkpt><trkpt lat="45.02956793328126" lon="9.68337324638496"><ele>64.0</ele><time>2026-03-28T10:09:56.999Z</time></trkpt><trkpt lat="45.02951068956152" lon="9.68331011510889"><ele>64.0</ele><time>2026-03-28T10:09:57.999Z</time></trkpt><trkpt lat="45.02945547126215" lon="9.683255239318244"><ele>64.0</ele><time>2026-03-28T10:09:58.999Z</time></trkpt><trkpt lat="45.029372005462555" lon="9.683171652877043"><ele>63.99999999999999</ele><time>2026-03-28T10:10:00.999Z</time></trkpt><trkpt lat="45.02931411341925" lon="9.683116924753032"><ele>64.0</ele><time>2026-03-28T10:10:02.999Z</time></trkpt><trkpt lat="45.029250068003634" lon="9.683054769410873"><ele>63.99999999999999</ele><time>2026-03-28T10:10:07.999Z</time></trkpt><trkpt lat="45.029190411262206" lon="9.682990960313132"><ele>64.0</ele><time>2026-03-28T10:10:20.999Z</time></trkpt><trkpt lat="45.02915238805999" lon="9.682913666946595"><ele>64.0</ele><time>2026-03-28T10:10:23.999Z</time></trkpt><trkpt lat="45.029084907361096" lon="9.682814770418307"><ele>64.0</ele><time>2026-03-28T10:10:26.999Z</time></trkpt><trkpt lat="45.0290602648377" lon="9.682722480460715"><ele>63.99999999999999</ele><time>2026-03-28T10:10:27.999Z</time></trkpt><trkpt lat="45.0290394685674" lon="9.682608643672049"><ele>64.0</ele><time>2026-03-28T10:10:28.999Z</time></trkpt><trkpt lat="45.02901520309178" lon="9.682490389891695"><ele>64.60000000000001</ele><time>2026-03-28T10:10:29.999Z</time></trkpt><trkpt lat="45.02898343429594" lon="9.682373531013326"><ele>65.2</ele><time>2026-03-28T10:10:30.999Z</time></trkpt><trkpt lat="45.02893790219576" lon="9.682259436392403"><ele>65.80000000000001</ele><time>2026-03-28T10:10:32Z</time></trkpt><trkpt lat="45.02888320392079" lon="9.682145533375172"><ele>66.4</ele><time>2026-03-28T10:10:33Z</time></trkpt><trkpt lat="45.028812960303505" lon="9.682041055775878"><ele>67.0</ele><time>2026-03-28T10:10:34Z</time></trkpt><trkpt lat="45.02873175485408" lon="9.68194175730434"><ele>66.75</ele><time>2026-03-28T10:10:35Z</time></trkpt><trkpt lat="45.028638325579735" lon="9.681853707360816"><ele>66.5</ele><time>2026-03-28T10:10:36Z</time></trkpt><trkpt lat="45.028530744671485" lon="9.681790259192526"><ele>66.25</ele><time>2026-03-28T10:10:37Z</time></trkpt><trkpt lat="45.02841491076318" lon="9.681751067340835"><ele>66.0</ele><time>2026-03-28T10:10:38Z</time></trkpt><trkpt lat="45.02829773200221" lon="9.681735050252485"><ele>66.0</ele><time>2026-03-28T10:10:39Z</time></trkpt><trkpt lat="45.02818009740312" lon="9.68174336903576"><ele>66.0</ele><time>2026-03-28T10:10:40Z</time></trkpt><trkpt lat="45.02806762744844" lon="9.681772769459466"><ele>66.0</ele><time>2026-03-28T10:10:41Z</time></trkpt><trkpt lat="45.027962080853044" lon="9.681821650582101"><ele>66.0</ele><time>2026-03-28T10:10:42Z</time></trkpt><trkpt lat="45.02786348482264" lon="9.681871311874016"><ele>66.0</ele><time>2026-03-28T10:10:43Z</time></trkpt><trkpt lat="45.027762304559275" lon="9.681903020942876"><ele>66.0</ele><time>2026-03-28T10:10:44Z</time></trkpt><trkpt lat="45.02765540194826" lon="9.681900963816297"><ele>66.0</ele><time>2026-03-28T10:10:45Z</time></trkpt><trkpt lat="45.027546850373774" lon="9.681876996294294"><ele>66.0</ele><time>2026-03-28T10:10:46Z</time></trkpt><trkpt lat="45.0274360945886" lon="9.681829371649723"><ele>66.0</ele><time>2026-03-28T10:10:47Z</time></trkpt><trkpt lat="45.02733587189373" lon="9.681742968788026"><ele>65.75</ele><time>2026-03-28T10:10:48Z</time></trkpt><trkpt lat="45.02724710851159" lon="9.681624505031305"><ele>65.5</ele><time>2026-03-28T10:10:49Z</time></trkpt><trkpt lat="45.0271720255453" lon="9.681483457037928"><ele>65.25</ele><time>2026-03-28T10:10:50Z</time></trkpt><trkpt lat="45.02710013418699" lon="9.681347875277163"><ele>65.0</ele><time>2026-03-28T10:10:51Z</time></trkpt><trkpt lat="45.02701483418705" lon="9.681217996265868"><ele>65.25</ele><time>2026-03-28T10:10:52Z</time></trkpt><trkpt lat="45.02691716328574" lon="9.681098458678873"><ele>65.5</ele><time>2026-03-28T10:10:53Z</time></trkpt><trkpt lat="45.02681078378287" lon="9.68098442078803"><ele>65.75</ele><time>2026-03-28T10:10:54Z</time></trkpt><trkpt lat="45.02669681713898" lon="9.68088025860081"><ele>66.0</ele><time>2026-03-28T10:10:55Z</time></trkpt><trkpt lat="45.02657410448132" lon="9.680791713780291"><ele>66.25</ele><time>2026-03-28T10:10:56Z</time></trkpt><trkpt lat="45.026449590577464" lon="9.680697986833584"><ele>66.5</ele><time>2026-03-28T10:10:57Z</time></trkpt><trkpt lat="45.02631556860846" lon="9.680631740953967"><ele>66.75</ele><time>2026-03-28T10:10:58Z</time></trkpt><trkpt lat="45.0261831296711" lon="9.68056757553495"><ele>67.0</ele><time>2026-03-28T10:10:59Z</time></trkpt><trkpt lat="45.02605392032329" lon="9.68050509747306"><ele>67.0</ele><time>2026-03-28T10:11:00Z</time></trkpt><trkpt lat="45.02592163636411" lon="9.680441117870517"><ele>67.0</ele><time>2026-03-28T10:11:01Z</time></trkpt><trkpt lat="45.0257880471222" lon="9.680376876589168"><ele>67.0</ele><time>2026-03-28T10:11:02Z</time></trkpt><trkpt lat="45.02565616185659" lon="9.680313511771816"><ele>67.0</ele><time>2026-03-28T10:11:03Z</time></trkpt><trkpt lat="45.025526087305444" lon="9.680251016903062"><ele>67.5</ele><time>2026-03-28T10:11:04Z</time></trkpt><trkpt lat="45.02539664001786" lon="9.680189197494203"><ele>68.0</ele><time>2026-03-28T10:11:05Z</time></trkpt><trkpt lat="45.02526720387275" lon="9.68012799774033"><ele>68.5</ele><time>2026-03-28T10:11:06Z</time></trkpt><trkpt lat="45.02513784924069" lon="9.6800668365311"><ele>69.0</ele><time>2026-03-28T10:11:07Z</time></trkpt><trkpt lat="45.02500768805431" lon="9.680005556774569"><ele>68.75</ele><time>2026-03-28T10:11:08Z</time></trkpt><trkpt lat="45.024876204768184" lon="9.679943743186119"><ele>68.5</ele><time>2026-03-28T10:11:09Z</time></trkpt><trkpt lat="45.02474403482748" lon="9.679881608632181"><ele>68.25</ele><time>2026-03-28T10:11:10Z</time></trkpt><trkpt lat="45.02461348392689" lon="9.679820233353961"><ele>68.0</ele><time>2026-03-28T10:11:11Z</time></trkpt><trkpt lat="45.02448372117528" lon="9.679759228630246"><ele>68.0</ele><time>2026-03-28T10:11:12Z</time></trkpt><trkpt lat="45.0243539706656" lon="9.679698229663558"><ele>68.0</ele><time>2026-03-28T10:11:13Z</time></trkpt><trkpt lat="45.02421677445905" lon="9.679655949969058"><ele>68.0</ele><time>2026-03-28T10:11:14Z</time></trkpt><trkpt lat="45.02408525404545" lon="9.67958993206286"><ele>68.0</ele><time>2026-03-28T10:11:15Z</time></trkpt><trkpt lat="45.02395478815194" lon="9.67952134830011"><ele>68.25</ele><time>2026-03-28T10:11:16Z</time></trkpt><trkpt lat="45.02382502127046" lon="9.679448190509987"><ele>68.5</ele><time>2026-03-28T10:11:17Z</time></trkpt><trkpt lat="45.02369323202422" lon="9.679379857561715"><ele>68.75</ele><time>2026-03-28T10:11:18Z</time></trkpt><trkpt lat="45.02356663374019" lon="9.679292499193279"><ele>69.0</ele><time>2026-03-28T10:11:19Z</time></trkpt><trkpt lat="45.02343638773133" lon="9.679229092309136"><ele>69.5</ele><time>2026-03-28T10:11:20Z</time></trkpt><trkpt lat="45.02330919645782" lon="9.679178378949313"><ele>70.0</ele><time>2026-03-28T10:11:21Z</time></trkpt><trkpt lat="45.02318769414543" lon="9.679144474537942"><ele>70.5</ele><time>2026-03-28T10:11:22Z</time></trkpt><trkpt lat="45.02306427395936" lon="9.679110943323199"><ele>71.0</ele><time>2026-03-28T10:11:23Z</time></trkpt><trkpt lat="45.02293826199351" lon="9.679076429799006"><ele>71.0</ele><time>2026-03-28T10:11:24Z</time></trkpt><trkpt lat="45.02280941851138" lon="9.679040005690647"><ele>71.0</ele><time>2026-03-28T10:11:25Z</time></trkpt><trkpt lat="45.022677999423436" lon="9.679002853461675"><ele>71.0</ele><time>2026-03-28T10:11:26Z</time></trkpt><trkpt lat="45.02254146287445" lon="9.678984687509981"><ele>71.0</ele><time>2026-03-28T10:11:27Z</time></trkpt><trkpt lat="45.02240850753721" lon="9.67893757096531"><ele>71.0</ele><time>2026-03-28T10:11:28Z</time></trkpt><trkpt lat="45.02227412863418" lon="9.678887898821298"><ele>71.0</ele><time>2026-03-28T10:11:29Z</time></trkpt><trkpt lat="45.02213821796182" lon="9.678827400890999"><ele>71.0</ele><time>2026-03-28T10:11:30Z</time></trkpt><trkpt lat="45.02200215136558" lon="9.678760361452298"><ele>71.0</ele><time>2026-03-28T10:11:31Z</time></trkpt><trkpt lat="45.02186342023857" lon="9.67868637956276"><ele>71.0</ele><time>2026-03-28T10:11:32Z</time></trkpt><trkpt lat="45.02172399696926" lon="9.678610724224407"><ele>71.0</ele><time>2026-03-28T10:11:33Z</time></trkpt><trkpt lat="45.02158386511346" lon="9.678533087297495"><ele>71.0</ele><time>2026-03-28T10:11:34Z</time></trkpt><trkpt lat="45.02143995738389" lon="9.67845490065286"><ele>71.33333333333334</ele><time>2026-03-28T10:11:35Z</time></trkpt><trkpt lat="45.02129573167255" lon="9.678374161194471"><ele>71.66666666666667</ele><time>2026-03-28T10:11:36Z</time></trkpt><trkpt lat="45.02115010581799" lon="9.678293371170922"><ele>72.0</ele><time>2026-03-28T10:11:36.999Z</time></trkpt><trkpt lat="45.02100427033525" lon="9.678208719784749"><ele>72.0</ele><time>2026-03-28T10:11:37.999Z</time></trkpt><trkpt lat="45.02086426661349" lon="9.678129331732892"><ele>72.0</ele><time>2026-03-28T10:11:38.999Z</time></trkpt><trkpt lat="45.020721580785576" lon="9.678048326528504"><ele>72.0</ele><time>2026-03-28T10:11:39.999Z</time></trkpt><trkpt lat="45.0205768190251" lon="9.677966203488877"><ele>72.0</ele><time>2026-03-28T10:11:40.999Z</time></trkpt><trkpt lat="45.020430150397814" lon="9.677882130452144"><ele>72.0</ele><time>2026-03-28T10:11:41.999Z</time></trkpt><trkpt lat="45.020280384488984" lon="9.677799473473518"><ele>72.0</ele><time>2026-03-28T10:11:42.999Z</time></trkpt><trkpt lat="45.02013080946841" lon="9.677719463398649"><ele>72.33333333333333</ele><time>2026-03-28T10:11:43.999Z</time></trkpt><trkpt lat="45.01998173491121" lon="9.677636566283793"><ele>72.66666666666666</ele><time>2026-03-28T10:11:44.999Z</time></trkpt><trkpt lat="45.019831068734824" lon="9.67754779064376"><ele>73.0</ele><time>2026-03-28T10:11:45.999Z</time></trkpt><trkpt lat="45.019678440906844" lon="9.677461914914334"><ele>73.0</ele><time>2026-03-28T10:11:46.999Z</time></trkpt><trkpt lat="45.01952341717952" lon="9.67737711448514"><ele>73.0</ele><time>2026-03-28T10:11:47.999Z</time></trkpt><trkpt lat="45.01936667308806" lon="9.677293221431691"><ele>73.0</ele><time>2026-03-28T10:11:48.999Z</time></trkpt><trkpt lat="45.01920782688364" lon="9.677209488999388"><ele>73.0</ele><time>2026-03-28T10:11:49.999Z</time></trkpt><trkpt lat="45.019047993675244" lon="9.67712519381018"><ele>73.0</ele><time>2026-03-28T10:11:50.999Z</time></trkpt><trkpt lat="45.01889264792729" lon="9.6770396868038"><ele>73.0</ele><time>2026-03-28T10:11:51.999Z</time></trkpt><trkpt lat="45.0187498098227" lon="9.67695902036753"><ele>73.0</ele><time>2026-03-28T10:11:52.999Z</time></trkpt><trkpt lat="45.01861574259572" lon="9.676883980509215"><ele>73.0</ele><time>2026-03-28T10:11:53.999Z</time></trkpt><trkpt lat="45.01849494413427" lon="9.676818272250504"><ele>73.0</ele><time>2026-03-28T10:11:54.999Z</time></trkpt><trkpt lat="45.01838651988747" lon="9.676752887365865"><ele>73.0</ele><time>2026-03-28T10:11:55.999Z</time></trkpt><trkpt lat="45.01828110625509" lon="9.67669574943532"><ele>73.0</ele><time>2026-03-28T10:11:56.999Z</time></trkpt><trkpt lat="45.01818634958694" lon="9.67664137559612"><ele>73.0</ele><time>2026-03-28T10:11:57.999Z</time></trkpt><trkpt lat="45.018089817142005" lon="9.676586692490467"><ele>73.0</ele><time>2026-03-28T10:11:58.999Z</time></trkpt><trkpt lat="45.01798789274967" lon="9.67653012614852"><ele>73.0</ele><time>2026-03-28T10:11:59.999Z</time></trkpt><trkpt lat="45.01788398551225" lon="9.676471923893589"><ele>73.0</ele><time>2026-03-28T10:12:00.999Z</time></trkpt><trkpt lat="45.017777887997006" lon="9.676414182120574"><ele>73.0</ele><time>2026-03-28T10:12:01.999Z</time></trkpt><trkpt lat="45.01766883918751" lon="9.676357421980105"><ele>73.0</ele><time>2026-03-28T10:12:02.999Z</time></trkpt><trkpt lat="45.01755745389425" lon="9.676300668264652"><ele>73.0</ele><time>2026-03-28T10:12:03.999Z</time></trkpt><trkpt lat="45.01744506534486" lon="9.676241130682397"><ele>73.0</ele><time>2026-03-28T10:12:04.999Z</time></trkpt><trkpt lat="45.01732960980692" lon="9.676178906974533"><ele>73.0</ele><time>2026-03-28T10:12:05.999Z</time></trkpt><trkpt lat="45.0172112339015" lon="9.676114780234643"><ele>73.0</ele><time>2026-03-28T10:12:06.999Z</time></trkpt><trkpt lat="45.01709690894221" lon="9.67602774048062"><ele>73.0</ele><time>2026-03-28T10:12:07.999Z</time></trkpt><trkpt lat="45.016972519505245" lon="9.675965802309554"><ele>73.0</ele><time>2026-03-28T10:12:08.999Z</time></trkpt><trkpt lat="45.01684451058228" lon="9.675903233650907"><ele>73.0</ele><time>2026-03-28T10:12:09.999Z</time></trkpt><trkpt lat="45.016713613318416" lon="9.67584339398534"><ele>73.0</ele><time>2026-03-28T10:12:10.999Z</time></trkpt><trkpt lat="45.016582393798984" lon="9.675783407000193"><ele>73.0</ele><time>2026-03-28T10:12:11.999Z</time></trkpt><trkpt lat="45.01644956137395" lon="9.675722583625973"><ele>73.0</ele><time>2026-03-28T10:12:12.999Z</time></trkpt><trkpt lat="45.01631523253377" lon="9.675660459804963"><ele>73.25</ele><time>2026-03-28T10:12:13.999Z</time></trkpt><trkpt lat="45.016179012228214" lon="9.675598014775874"><ele>73.5</ele><time>2026-03-28T10:12:14.999Z</time></trkpt><trkpt lat="45.01604098700242" lon="9.675534722241405"><ele>73.75</ele><time>2026-03-28T10:12:15.999Z</time></trkpt><trkpt lat="45.01590228731471" lon="9.67547112041738"><ele>74.0</ele><time>2026-03-28T10:12:16.999Z</time></trkpt><trkpt lat="45.0157607683844" lon="9.675405720425262"><ele>73.0</ele><time>2026-03-28T10:12:17.999Z</time></trkpt><trkpt lat="45.01561762883217" lon="9.675339142173899"><ele>72.0</ele><time>2026-03-28T10:12:18.999Z</time></trkpt><trkpt lat="45.015471807472125" lon="9.675271316496199"><ele>71.0</ele><time>2026-03-28T10:12:19.999Z</time></trkpt><trkpt lat="45.0153240146447" lon="9.675202575719082"><ele>71.0</ele><time>2026-03-28T10:12:20.999Z</time></trkpt><trkpt lat="45.01517003503935" lon="9.67515541158636"><ele>71.0</ele><time>2026-03-28T10:12:21.999Z</time></trkpt><trkpt lat="45.01501874603396" lon="9.67508413082358"><ele>71.0</ele><time>2026-03-28T10:12:22.999Z</time></trkpt><trkpt lat="45.014866654905624" lon="9.675012622290994"><ele>71.66666666666667</ele><time>2026-03-28T10:12:23.999Z</time></trkpt><trkpt lat="45.01471223000434" lon="9.674940788001535"><ele>72.33333333333333</ele><time>2026-03-28T10:12:24.999Z</time></trkpt><trkpt lat="45.014562153576826" lon="9.674846767245475"><ele>73.0</ele><time>2026-03-28T10:12:25.999Z</time></trkpt><trkpt lat="45.01440847928685" lon="9.674774852157654"><ele>73.0</ele><time>2026-03-28T10:12:26.999Z</time></trkpt><trkpt lat="45.014254957168724" lon="9.674703008348041"><ele>73.0</ele><time>2026-03-28T10:12:27.999Z</time></trkpt><trkpt lat="45.01410287370433" lon="9.674631260080355"><ele>73.0</ele><time>2026-03-28T10:12:28.999Z</time></trkpt><trkpt lat="45.01394927875987" lon="9.674558434324172"><ele>73.33333333333333</ele><time>2026-03-28T10:12:29.999Z</time></trkpt><trkpt lat="45.013790750903496" lon="9.674504963080878"><ele>73.66666666666667</ele><time>2026-03-28T10:12:30.999Z</time></trkpt><trkpt lat="45.01363704992591" lon="9.674430222384407"><ele>74.0</ele><time>2026-03-28T10:12:31.999Z</time></trkpt><trkpt lat="45.013482584302324" lon="9.674358917270192"><ele>74.0</ele><time>2026-03-28T10:12:32.999Z</time></trkpt><trkpt lat="45.01332839413549" lon="9.674286301700926"><ele>74.0</ele><time>2026-03-28T10:12:33.999Z</time></trkpt><trkpt lat="45.013173699405925" lon="9.674212142103814"><ele>74.0</ele><time>2026-03-28T10:12:34.999Z</time></trkpt><trkpt lat="45.013019823677425" lon="9.674136427143493"><ele>73.66666666666667</ele><time>2026-03-28T10:12:35.999Z</time></trkpt><trkpt lat="45.012867154692835" lon="9.674060472419216"><ele>73.33333333333333</ele><time>2026-03-28T10:12:36.999Z</time></trkpt><trkpt lat="45.01271324837402" lon="9.67398180144135"><ele>73.0</ele><time>2026-03-28T10:12:38Z</time></trkpt><trkpt lat="45.01255896711167" lon="9.6739061314285"><ele>73.33333333333333</ele><time>2026-03-28T10:12:39Z</time></trkpt><trkpt lat="45.01240609702726" lon="9.673832483389464"><ele>73.66666666666667</ele><time>2026-03-28T10:12:40Z</time></trkpt><trkpt lat="45.01225329218161" lon="9.673757232419447"><ele>74.0</ele><time>2026-03-28T10:12:41Z</time></trkpt><trkpt lat="45.01210452283592" lon="9.67365892835064"><ele>74.33333333333334</ele><time>2026-03-28T10:12:42Z</time></trkpt><trkpt lat="45.01195040434203" lon="9.673581914312395"><ele>74.66666666666667</ele><time>2026-03-28T10:12:43Z</time></trkpt><trkpt lat="45.01179725747375" lon="9.67350538580215"><ele>75.0</ele><time>2026-03-28T10:12:44Z</time></trkpt><trkpt lat="45.01164417426038" lon="9.673428889073765"><ele>75.33333333333333</ele><time>2026-03-28T10:12:45Z</time></trkpt><trkpt lat="45.01149136804578" lon="9.673352530834359"><ele>75.66666666666666</ele><time>2026-03-28T10:12:46Z</time></trkpt><trkpt lat="45.01134749694427" lon="9.673285367309072"><ele>76.0</ele><time>2026-03-28T10:12:47Z</time></trkpt><trkpt lat="45.011213882399524" lon="9.673223136426982"><ele>76.0</ele><time>2026-03-28T10:12:48Z</time></trkpt><trkpt lat="45.011089946960325" lon="9.673165413655829"><ele>76.0</ele><time>2026-03-28T10:12:49Z</time></trkpt><trkpt lat="45.01097360040858" lon="9.673111225347851"><ele>76.0</ele><time>2026-03-28T10:12:50Z</time></trkpt><trkpt lat="45.01086384894691" lon="9.673060108641538"><ele>76.0</ele><time>2026-03-28T10:12:51Z</time></trkpt><trkpt lat="45.01075283259465" lon="9.67305707013064"><ele>75.25</ele><time>2026-03-28T10:12:52Z</time></trkpt><trkpt lat="45.010656081634174" lon="9.673018303863369"><ele>74.5</ele><time>2026-03-28T10:12:53Z</time></trkpt><trkpt lat="45.01055856247926" lon="9.672954270398407"><ele>73.75</ele><time>2026-03-28T10:12:54Z</time></trkpt><trkpt lat="45.01046281381491" lon="9.672852420148708"><ele>73.0</ele><time>2026-03-28T10:12:55Z</time></trkpt><trkpt lat="45.01034319389626" lon="9.672813837886963"><ele>73.0</ele><time>2026-03-28T10:12:56Z</time></trkpt><trkpt lat="45.010204472602624" lon="9.67280683933052"><ele>73.0</ele><time>2026-03-28T10:12:57Z</time></trkpt><trkpt lat="45.010078929612405" lon="9.672719990651972"><ele>73.0</ele><time>2026-03-28T10:12:58Z</time></trkpt><trkpt lat="45.00995269052439" lon="9.672625762569153"><ele>73.0</ele><time>2026-03-28T10:12:59Z</time></trkpt><trkpt lat="45.00982565210544" lon="9.672547702786922"><ele>73.25</ele><time>2026-03-28T10:13:00Z</time></trkpt><trkpt lat="45.00969454915313" lon="9.67247820959587"><ele>73.5</ele><time>2026-03-28T10:13:01Z</time></trkpt><trkpt lat="45.00957040282239" lon="9.672388855076571"><ele>73.75</ele><time>2026-03-28T10:13:02Z</time></trkpt><trkpt lat="45.00943706360577" lon="9.672315988109746"><ele>74.0</ele><time>2026-03-28T10:13:03Z</time></trkpt><trkpt lat="45.00929697991022" lon="9.672240696838987"><ele>75.0</ele><time>2026-03-28T10:13:04Z</time></trkpt><trkpt lat="45.00915265247528" lon="9.672166929449778"><ele>76.0</ele><time>2026-03-28T10:13:05Z</time></trkpt><trkpt lat="45.009005108442196" lon="9.672091518093447"><ele>77.0</ele><time>2026-03-28T10:13:06Z</time></trkpt><trkpt lat="45.00885212019527" lon="9.672013324083284"><ele>76.66666666666667</ele><time>2026-03-28T10:13:07Z</time></trkpt><trkpt lat="45.00869696842327" lon="9.671934024291929"><ele>76.33333333333333</ele><time>2026-03-28T10:13:08Z</time></trkpt><trkpt lat="45.008538289843315" lon="9.671852921845767"><ele>76.0</ele><time>2026-03-28T10:13:09Z</time></trkpt><trkpt lat="45.00837788082065" lon="9.671770935023394"><ele>76.33333333333333</ele><time>2026-03-28T10:13:10Z</time></trkpt><trkpt lat="45.00821506839822" lon="9.671688333458004"><ele>76.66666666666667</ele><time>2026-03-28T10:13:11Z</time></trkpt><trkpt lat="45.00805024310164" lon="9.67160866608016"><ele>77.0</ele><time>2026-03-28T10:13:12Z</time></trkpt><trkpt lat="45.00788537419468" lon="9.671528750153637"><ele>77.0</ele><time>2026-03-28T10:13:13Z</time></trkpt><trkpt lat="45.007719511288194" lon="9.671452913863241"><ele>77.0</ele><time>2026-03-28T10:13:14Z</time></trkpt><trkpt lat="45.00755367670444" lon="9.671377074032002"><ele>77.0</ele><time>2026-03-28T10:13:15Z</time></trkpt><trkpt lat="45.00738766322442" lon="9.671301336287781"><ele>77.0</ele><time>2026-03-28T10:13:16Z</time></trkpt><trkpt lat="45.0072197386742" lon="9.671226074988745"><ele>77.0</ele><time>2026-03-28T10:13:17Z</time></trkpt><trkpt lat="45.007051155160156" lon="9.671150518360022"><ele>77.0</ele><time>2026-03-28T10:13:18Z</time></trkpt><trkpt lat="45.006881956467645" lon="9.671075495220299"><ele>77.0</ele><time>2026-03-28T10:13:19Z</time></trkpt><trkpt lat="45.00671099463328" lon="9.670999823090902"><ele>77.0</ele><time>2026-03-28T10:13:20Z</time></trkpt><trkpt lat="45.00653916107313" lon="9.670923765101378"><ele>77.0</ele><time>2026-03-28T10:13:21Z</time></trkpt><trkpt lat="45.00636689943189" lon="9.670847517639652"><ele>77.0</ele><time>2026-03-28T10:13:22Z</time></trkpt><trkpt lat="45.00619458837404" lon="9.67077124830731"><ele>77.0</ele><time>2026-03-28T10:13:23Z</time></trkpt><trkpt lat="45.00602088300032" lon="9.67069436180793"><ele>77.0</ele><time>2026-03-28T10:13:24Z</time></trkpt><trkpt lat="45.00584688004233" lon="9.67061689590961"><ele>77.0</ele><time>2026-03-28T10:13:25Z</time></trkpt><trkpt lat="45.00567311333982" lon="9.670538738442684"><ele>77.0</ele><time>2026-03-28T10:13:26Z</time></trkpt><trkpt lat="45.005499640581746" lon="9.670460715047723"><ele>77.0</ele><time>2026-03-28T10:13:27Z</time></trkpt><trkpt lat="45.00532716120129" lon="9.670382966567619"><ele>77.0</ele><time>2026-03-28T10:13:28Z</time></trkpt><trkpt lat="45.005155850625215" lon="9.67029865628082"><ele>77.0</ele><time>2026-03-28T10:13:29Z</time></trkpt><trkpt lat="45.00498566612994" lon="9.670214900184265"><ele>77.0</ele><time>2026-03-28T10:13:30Z</time></trkpt><trkpt lat="45.00481655476853" lon="9.67013167223546"><ele>77.66666666666667</ele><time>2026-03-28T10:13:31Z</time></trkpt><trkpt lat="45.00464763393771" lon="9.670048538067535"><ele>78.33333333333333</ele><time>2026-03-28T10:13:32Z</time></trkpt><trkpt lat="45.00447841214259" lon="9.669965255778257"><ele>79.0</ele><time>2026-03-28T10:13:33Z</time></trkpt><trkpt lat="45.004308256343656" lon="9.669881513817284"><ele>79.0</ele><time>2026-03-28T10:13:34Z</time></trkpt><trkpt lat="45.00413803294107" lon="9.669797738574298"><ele>79.0</ele><time>2026-03-28T10:13:35Z</time></trkpt><trkpt lat="45.0039671719628" lon="9.669713835644137"><ele>79.0</ele><time>2026-03-28T10:13:36Z</time></trkpt><trkpt lat="45.00378872454492" lon="9.66966641392605"><ele>79.0</ele><time>2026-03-28T10:13:37Z</time></trkpt><trkpt lat="45.00361905254187" lon="9.669582923080181"><ele>79.0</ele><time>2026-03-28T10:13:38Z</time></trkpt><trkpt lat="45.003448676583346" lon="9.669499370052046"><ele>79.0</ele><time>2026-03-28T10:13:39Z</time></trkpt><trkpt lat="45.00327817775269" lon="9.669415230571007"><ele>79.33333333333333</ele><time>2026-03-28T10:13:40Z</time></trkpt><trkpt lat="45.003115113379145" lon="9.669299543858987"><ele>79.66666666666667</ele><time>2026-03-28T10:13:41Z</time></trkpt><trkpt lat="45.002944126060584" lon="9.669218664355279"><ele>80.0</ele><time>2026-03-28T10:13:42Z</time></trkpt><trkpt lat="45.002773094453424" lon="9.669137762917808"><ele>80.0</ele><time>2026-03-28T10:13:43Z</time></trkpt><trkpt lat="45.00260240400167" lon="9.6690550245089"><ele>80.0</ele><time>2026-03-28T10:13:43.999Z</time></trkpt><trkpt lat="45.00243103774945" lon="9.668972333758143"><ele>80.0</ele><time>2026-03-28T10:13:44.999Z</time></trkpt><trkpt lat="45.00226040253712" lon="9.668889995756864"><ele>80.33333333333334</ele><time>2026-03-28T10:13:45.999Z</time></trkpt><trkpt lat="45.00208979606692" lon="9.668807671619211"><ele>80.66666666666667</ele><time>2026-03-28T10:13:46.999Z</time></trkpt><trkpt lat="45.001918104222504" lon="9.66872482373879"><ele>81.0</ele><time>2026-03-28T10:13:47.999Z</time></trkpt><trkpt lat="45.00174632002714" lon="9.668641930820382"><ele>80.66666666666667</ele><time>2026-03-28T10:13:48.999Z</time></trkpt><trkpt lat="45.00156471982234" lon="9.668601026259868"><ele>80.33333333333334</ele><time>2026-03-28T10:13:49.999Z</time></trkpt><trkpt lat="45.00139280675207" lon="9.66851867140754"><ele>80.0</ele><time>2026-03-28T10:13:50.999Z</time></trkpt><trkpt lat="45.00123470209229" lon="9.668442097685732"><ele>80.0</ele><time>2026-03-28T10:13:51.999Z</time></trkpt><trkpt lat="45.00108092894463" lon="9.668367098044623"><ele>80.0</ele><time>2026-03-28T10:13:52.999Z</time></trkpt><trkpt lat="45.000937086481855" lon="9.668251079111043"><ele>80.0</ele><time>2026-03-28T10:13:53.999Z</time></trkpt><trkpt lat="45.0007809286291" lon="9.668176653112058"><ele>80.0</ele><time>2026-03-28T10:13:54.999Z</time></trkpt><trkpt lat="45.000625746612826" lon="9.668102596640901"><ele>80.0</ele><time>2026-03-28T10:13:55.999Z</time></trkpt><trkpt lat="45.00047104297631" lon="9.668028770752167"><ele>80.0</ele><time>2026-03-28T10:13:56.999Z</time></trkpt><trkpt lat="45.00031625687636" lon="9.66795432137651"><ele>80.0</ele><time>2026-03-28T10:13:57.999Z</time></trkpt><trkpt lat="45.00016118568279" lon="9.667879796560188"><ele>80.0</ele><time>2026-03-28T10:13:58.999Z</time></trkpt><trkpt lat="45.00000637158276" lon="9.667804189429678"><ele>80.0</ele><time>2026-03-28T10:13:59.999Z</time></trkpt><trkpt lat="44.99985126494359" lon="9.667728680295516"><ele>79.66666666666667</ele><time>2026-03-28T10:14:00.999Z</time></trkpt><trkpt lat="44.99969695759839" lon="9.667653537228583"><ele>79.33333333333333</ele><time>2026-03-28T10:14:01.999Z</time></trkpt><trkpt lat="44.99954236378201" lon="9.667577906209958"><ele>79.0</ele><time>2026-03-28T10:14:02.999Z</time></trkpt><trkpt lat="44.99938813894675" lon="9.667502455696766"><ele>79.0</ele><time>2026-03-28T10:14:03.999Z</time></trkpt><trkpt lat="44.99923491698205" lon="9.667427495811499"><ele>79.0</ele><time>2026-03-28T10:14:04.999Z</time></trkpt><trkpt lat="44.99908066829695" lon="9.667352034053845"><ele>79.0</ele><time>2026-03-28T10:14:05.999Z</time></trkpt><trkpt lat="44.99892733429259" lon="9.667274551045747"><ele>79.33333333333333</ele><time>2026-03-28T10:14:06.999Z</time></trkpt><trkpt lat="44.99877333185415" lon="9.667197051038748"><ele>79.66666666666667</ele><time>2026-03-28T10:14:07.999Z</time></trkpt><trkpt lat="44.99862156412954" lon="9.66711984032017"><ele>80.0</ele><time>2026-03-28T10:14:08.999Z</time></trkpt><trkpt lat="44.998469151258135" lon="9.667039434266844"><ele>80.33333333333334</ele><time>2026-03-28T10:14:09.999Z</time></trkpt><trkpt lat="44.998320799282524" lon="9.666961170652291"><ele>80.66666666666667</ele><time>2026-03-28T10:14:10.999Z</time></trkpt><trkpt lat="44.998178994274525" lon="9.666884190526975"><ele>81.0</ele><time>2026-03-28T10:14:11.999Z</time></trkpt><trkpt lat="44.99803281348713" lon="9.666827623712503"><ele>81.0</ele><time>2026-03-28T10:14:12.999Z</time></trkpt><trkpt lat="44.997892660591795" lon="9.666746270441408"><ele>81.0</ele><time>2026-03-28T10:14:13.999Z</time></trkpt><trkpt lat="44.99774904625941" lon="9.666665536381727"><ele>81.0</ele><time>2026-03-28T10:14:14.999Z</time></trkpt><trkpt lat="44.997604782349725" lon="9.666580483544694"><ele>81.66666666666667</ele><time>2026-03-28T10:14:15.999Z</time></trkpt><trkpt lat="44.99745974015549" lon="9.666489114403918"><ele>82.33333333333334</ele><time>2026-03-28T10:14:16.999Z</time></trkpt><trkpt lat="44.99731517635585" lon="9.666398055371642"><ele>83.0</ele><time>2026-03-28T10:14:17.999Z</time></trkpt><trkpt lat="44.99717153314157" lon="9.6663031951036"><ele>83.0</ele><time>2026-03-28T10:14:18.999Z</time></trkpt><trkpt lat="44.997035364812575" lon="9.666210207386714"><ele>83.0</ele><time>2026-03-28T10:14:19.999Z</time></trkpt><trkpt lat="44.996899815918766" lon="9.666116378059353"><ele>83.0</ele><time>2026-03-28T10:14:20.999Z</time></trkpt><trkpt lat="44.99676095562714" lon="9.666024190895486"><ele>83.66666666666667</ele><time>2026-03-28T10:14:21.999Z</time></trkpt><trkpt lat="44.99661871324672" lon="9.665939239211855"><ele>84.33333333333333</ele><time>2026-03-28T10:14:22.999Z</time></trkpt><trkpt lat="44.9964725056374" lon="9.665865834025231"><ele>85.0</ele><time>2026-03-28T10:14:23.999Z</time></trkpt><trkpt lat="44.99632161949931" lon="9.665798217271487"><ele>85.0</ele><time>2026-03-28T10:14:24.999Z</time></trkpt><trkpt lat="44.99616614413719" lon="9.665739661006258"><ele>85.0</ele><time>2026-03-28T10:14:25.999Z</time></trkpt><trkpt lat="44.996009265934504" lon="9.665688258225618"><ele>85.0</ele><time>2026-03-28T10:14:26.999Z</time></trkpt><trkpt lat="44.99585656601223" lon="9.665616503410899"><ele>84.66666666666666</ele><time>2026-03-28T10:14:27.999Z</time></trkpt><trkpt lat="44.99570154564945" lon="9.665562717349873"><ele>84.33333333333333</ele><time>2026-03-28T10:14:28.999Z</time></trkpt><trkpt lat="44.99554472318187" lon="9.665527615549536"><ele>84.0</ele><time>2026-03-28T10:14:29.999Z</time></trkpt><trkpt lat="44.99539400729367" lon="9.665465334382397"><ele>84.0</ele><time>2026-03-28T10:14:30.999Z</time></trkpt><trkpt lat="44.99524502804891" lon="9.665399585715448"><ele>84.0</ele><time>2026-03-28T10:14:31.999Z</time></trkpt><trkpt lat="44.995098329226025" lon="9.66532785304304"><ele>84.0</ele><time>2026-03-28T10:14:32.999Z</time></trkpt><trkpt lat="44.99495217842875" lon="9.665252794872654"><ele>84.33333333333333</ele><time>2026-03-28T10:14:33.999Z</time></trkpt><trkpt lat="44.99480519258475" lon="9.665177652984807"><ele>84.66666666666666</ele><time>2026-03-28T10:14:34.999Z</time></trkpt><trkpt lat="44.99465711105809" lon="9.665105835605141"><ele>85.0</ele><time>2026-03-28T10:14:35.999Z</time></trkpt><trkpt lat="44.99450693599027" lon="9.665039358437985"><ele>85.0</ele><time>2026-03-28T10:14:36.999Z</time></trkpt><trkpt lat="44.994357926290625" lon="9.664971798569708"><ele>85.0</ele><time>2026-03-28T10:14:37.999Z</time></trkpt><trkpt lat="44.994210135994784" lon="9.664904733551113"><ele>85.0</ele><time>2026-03-28T10:14:38.999Z</time></trkpt><trkpt lat="44.99406040611834" lon="9.664838685244048"><ele>85.0</ele><time>2026-03-28T10:14:39.999Z</time></trkpt><trkpt lat="44.99391101701869" lon="9.664771500897192"><ele>85.0</ele><time>2026-03-28T10:14:40.999Z</time></trkpt><trkpt lat="44.99376187856297" lon="9.664705386073635"><ele>85.0</ele><time>2026-03-28T10:14:41.999Z</time></trkpt><trkpt lat="44.99361150213444" lon="9.664639904514672"><ele>85.0</ele><time>2026-03-28T10:14:42.999Z</time></trkpt><trkpt lat="44.993461096236004" lon="9.664574752772662"><ele>85.0</ele><time>2026-03-28T10:14:44Z</time></trkpt><trkpt lat="44.99331078906709" lon="9.66450867887093"><ele>85.0</ele><time>2026-03-28T10:14:45Z</time></trkpt><trkpt lat="44.993159425111195" lon="9.664447408439742"><ele>85.0</ele><time>2026-03-28T10:14:46Z</time></trkpt><trkpt lat="44.99300745045956" lon="9.664387856489414"><ele>85.0</ele><time>2026-03-28T10:14:47Z</time></trkpt><trkpt lat="44.992855368864284" lon="9.664331050501747"><ele>85.0</ele><time>2026-03-28T10:14:48Z</time></trkpt><trkpt lat="44.99270385927808" lon="9.66427286236907"><ele>85.0</ele><time>2026-03-28T10:14:49Z</time></trkpt><trkpt lat="44.99255279951094" lon="9.66421486668756"><ele>85.0</ele><time>2026-03-28T10:14:50Z</time></trkpt><trkpt lat="44.99240082764074" lon="9.664157927907018"><ele>85.0</ele><time>2026-03-28T10:14:51Z</time></trkpt><trkpt lat="44.992247531940514" lon="9.664101175773816"><ele>85.0</ele><time>2026-03-28T10:14:52Z</time></trkpt><trkpt lat="44.99209499579346" lon="9.664044071359605"><ele>85.0</ele><time>2026-03-28T10:14:53Z</time></trkpt><trkpt lat="44.99194209720075" lon="9.663989227849864"><ele>85.0</ele><time>2026-03-28T10:14:54Z</time></trkpt><trkpt lat="44.99178817158647" lon="9.663933225745366"><ele>85.0</ele><time>2026-03-28T10:14:55Z</time></trkpt><trkpt lat="44.9916351302892" lon="9.663876144099522"><ele>85.0</ele><time>2026-03-28T10:14:56Z</time></trkpt><trkpt lat="44.99148176283635" lon="9.663822128251839"><ele>85.0</ele><time>2026-03-28T10:14:57Z</time></trkpt><trkpt lat="44.991328205720265" lon="9.663768539503824"><ele>85.0</ele><time>2026-03-28T10:14:58Z</time></trkpt><trkpt lat="44.9911746076156" lon="9.663715909452804"><ele>85.0</ele><time>2026-03-28T10:14:59Z</time></trkpt><trkpt lat="44.99102058112921" lon="9.663661081606714"><ele>85.0</ele><time>2026-03-28T10:15:00Z</time></trkpt><trkpt lat="44.99086799949927" lon="9.663607366632954"><ele>84.0</ele><time>2026-03-28T10:15:01Z</time></trkpt><trkpt lat="44.99071473012923" lon="9.66355408754778"><ele>83.0</ele><time>2026-03-28T10:15:02Z</time></trkpt><trkpt lat="44.99055793284714" lon="9.663500335160649"><ele>82.0</ele><time>2026-03-28T10:15:03Z</time></trkpt><trkpt lat="44.990397830288444" lon="9.663444386679076"><ele>82.0</ele><time>2026-03-28T10:15:04Z</time></trkpt><trkpt lat="44.990239406053846" lon="9.663363852552271"><ele>82.0</ele><time>2026-03-28T10:15:05Z</time></trkpt><trkpt lat="44.99007629935058" lon="9.663304986015016"><ele>82.0</ele><time>2026-03-28T10:15:06Z</time></trkpt><trkpt lat="44.989908377703586" lon="9.66326621496146"><ele>82.0</ele><time>2026-03-28T10:15:07Z</time></trkpt><trkpt lat="44.989744616596575" lon="9.66320394994016"><ele>82.0</ele><time>2026-03-28T10:15:08Z</time></trkpt><trkpt lat="44.98958066303309" lon="9.663144386229414"><ele>82.0</ele><time>2026-03-28T10:15:09Z</time></trkpt><trkpt lat="44.98941673365153" lon="9.663083068865452"><ele>82.0</ele><time>2026-03-28T10:15:10Z</time></trkpt><trkpt lat="44.98925265150776" lon="9.663021180523007"><ele>82.0</ele><time>2026-03-28T10:15:11Z</time></trkpt><trkpt lat="44.98908696637075" lon="9.66295417236685"><ele>82.0</ele><time>2026-03-28T10:15:12Z</time></trkpt><trkpt lat="44.98892093987748" lon="9.662881449616773"><ele>82.66666666666666</ele><time>2026-03-28T10:15:13Z</time></trkpt><trkpt lat="44.98875610775779" lon="9.662805626382939"><ele>83.33333333333333</ele><time>2026-03-28T10:15:14Z</time></trkpt><trkpt lat="44.988591637864104" lon="9.66272269357891"><ele>84.0</ele><time>2026-03-28T10:15:15Z</time></trkpt><trkpt lat="44.98842759956895" lon="9.662639324122202"><ele>84.33333333333333</ele><time>2026-03-28T10:15:16Z</time></trkpt><trkpt lat="44.98826235613252" lon="9.662552992028612"><ele>84.66666666666666</ele><time>2026-03-28T10:15:17Z</time></trkpt><trkpt lat="44.98809416941887" lon="9.662463924731162"><ele>85.0</ele><time>2026-03-28T10:15:18Z</time></trkpt><trkpt lat="44.98792257526128" lon="9.66237509826951"><ele>85.0</ele><time>2026-03-28T10:15:19Z</time></trkpt><trkpt lat="44.98775641254738" lon="9.662260124449448"><ele>85.0</ele><time>2026-03-28T10:15:20Z</time></trkpt><trkpt lat="44.987583309234246" lon="9.662165578159291"><ele>85.0</ele><time>2026-03-28T10:15:21Z</time></trkpt><trkpt lat="44.98741039945504" lon="9.662072034293134"><ele>85.0</ele><time>2026-03-28T10:15:22Z</time></trkpt><trkpt lat="44.987231106445655" lon="9.66199787051333"><ele>85.0</ele><time>2026-03-28T10:15:23Z</time></trkpt><trkpt lat="44.98705651430651" lon="9.66190047029223"><ele>85.0</ele><time>2026-03-28T10:15:24Z</time></trkpt><trkpt lat="44.98687953878986" lon="9.661806302436126"><ele>85.33333333333333</ele><time>2026-03-28T10:15:25Z</time></trkpt><trkpt lat="44.986709490736246" lon="9.661688918043755"><ele>85.66666666666667</ele><time>2026-03-28T10:15:26Z</time></trkpt><trkpt lat="44.98653356815505" lon="9.661592726206377"><ele>86.0</ele><time>2026-03-28T10:15:27Z</time></trkpt><trkpt lat="44.98635771699556" lon="9.661498427508347"><ele>86.33333333333334</ele><time>2026-03-28T10:15:28Z</time></trkpt><trkpt lat="44.986180194275136" lon="9.661407533586162"><ele>86.66666666666667</ele><time>2026-03-28T10:15:29Z</time></trkpt><trkpt lat="44.985999823253586" lon="9.661322985857225"><ele>87.0</ele><time>2026-03-28T10:15:30Z</time></trkpt><trkpt lat="44.98581655843004" lon="9.66125050998547"><ele>87.0</ele><time>2026-03-28T10:15:31Z</time></trkpt><trkpt lat="44.985631642608325" lon="9.66118983823323"><ele>87.0</ele><time>2026-03-28T10:15:32Z</time></trkpt><trkpt lat="44.985448139100235" lon="9.661132340865413"><ele>87.0</ele><time>2026-03-28T10:15:33Z</time></trkpt><trkpt lat="44.98526384864901" lon="9.661078258546965"><ele>87.33333333333333</ele><time>2026-03-28T10:15:34Z</time></trkpt><trkpt lat="44.98507742450473" lon="9.661024163998736"><ele>87.66666666666666</ele><time>2026-03-28T10:15:35Z</time></trkpt><trkpt lat="44.984892213976075" lon="9.660973280762047"><ele>88.0</ele><time>2026-03-28T10:15:36Z</time></trkpt><trkpt lat="44.9847058322856" lon="9.6609220757863"><ele>88.0</ele><time>2026-03-28T10:15:37Z</time></trkpt><trkpt lat="44.984515401139866" lon="9.660869758301553"><ele>88.0</ele><time>2026-03-28T10:15:38Z</time></trkpt><trkpt lat="44.98432482276414" lon="9.660817400355757"><ele>88.0</ele><time>2026-03-28T10:15:39Z</time></trkpt><trkpt lat="44.984134205934204" lon="9.660765031851472"><ele>87.66666666666666</ele><time>2026-03-28T10:15:40Z</time></trkpt><trkpt lat="44.98394329685179" lon="9.6607125830486"><ele>87.33333333333333</ele><time>2026-03-28T10:15:41Z</time></trkpt><trkpt lat="44.98375243027748" lon="9.660660145929027"><ele>87.0</ele><time>2026-03-28T10:15:42Z</time></trkpt><trkpt lat="44.98356122786268" lon="9.660608603965551"><ele>87.0</ele><time>2026-03-28T10:15:43Z</time></trkpt><trkpt lat="44.983369792558975" lon="9.660557056554715"><ele>87.0</ele><time>2026-03-28T10:15:44Z</time></trkpt><trkpt lat="44.983180134050365" lon="9.660505987538963"><ele>87.0</ele><time>2026-03-28T10:15:45Z</time></trkpt><trkpt lat="44.98298921477695" lon="9.660454110597051"><ele>87.66666666666667</ele><time>2026-03-28T10:15:46Z</time></trkpt><trkpt lat="44.982798104306106" lon="9.660401988056842"><ele>88.33333333333334</ele><time>2026-03-28T10:15:47Z</time></trkpt><trkpt lat="44.98260790810527" lon="9.660350114924734"><ele>89.0</ele><time>2026-03-28T10:15:48Z</time></trkpt><trkpt lat="44.98241694395508" lon="9.660298032311632"><ele>89.0</ele><time>2026-03-28T10:15:48.999Z</time></trkpt><trkpt lat="44.982223957559995" lon="9.660245398176091"><ele>89.0</ele><time>2026-03-28T10:15:49.999Z</time></trkpt><trkpt lat="44.982028971851335" lon="9.660192218718606"><ele>89.0</ele><time>2026-03-28T10:15:50.999Z</time></trkpt><trkpt lat="44.98183292494218" lon="9.66013848895667"><ele>89.0</ele><time>2026-03-28T10:15:51.999Z</time></trkpt><trkpt lat="44.981636693805115" lon="9.660084528102896"><ele>89.0</ele><time>2026-03-28T10:15:52.999Z</time></trkpt><trkpt lat="44.981441940519666" lon="9.660030973692253"><ele>89.0</ele><time>2026-03-28T10:15:53.999Z</time></trkpt><trkpt lat="44.98124629971476" lon="9.659977175209265"><ele>89.0</ele><time>2026-03-28T10:15:54.999Z</time></trkpt><trkpt lat="44.98105161332814" lon="9.659923641151225"><ele>89.0</ele><time>2026-03-28T10:15:55.999Z</time></trkpt><trkpt lat="44.98085575768241" lon="9.659869783604687"><ele>89.0</ele><time>2026-03-28T10:15:56.999Z</time></trkpt><trkpt lat="44.98066041678166" lon="9.659816190192753"><ele>89.0</ele><time>2026-03-28T10:15:57.999Z</time></trkpt><trkpt lat="44.98046495236105" lon="9.659762975597546"><ele>89.0</ele><time>2026-03-28T10:15:58.999Z</time></trkpt><trkpt lat="44.98026989347272" lon="9.659710100246793"><ele>89.0</ele><time>2026-03-28T10:15:59.999Z</time></trkpt><trkpt lat="44.98007446950266" lon="9.659657487816736"><ele>89.0</ele><time>2026-03-28T10:16:00.999Z</time></trkpt><trkpt lat="44.97987945996725" lon="9.65960472023499"><ele>89.0</ele><time>2026-03-28T10:16:01.999Z</time></trkpt><trkpt lat="44.979683978918295" lon="9.659550218080744"><ele>89.0</ele><time>2026-03-28T10:16:02.999Z</time></trkpt><trkpt lat="44.97948645613708" lon="9.659515796611013"><ele>89.0</ele><time>2026-03-28T10:16:03.999Z</time></trkpt><trkpt lat="44.97929126591123" lon="9.65946308700987"><ele>89.0</ele><time>2026-03-28T10:16:04.999Z</time></trkpt><trkpt lat="44.97909801204273" lon="9.659388625335305"><ele>89.0</ele><time>2026-03-28T10:16:05.999Z</time></trkpt><trkpt lat="44.97890107980143" lon="9.659349415586009"><ele>89.33333333333334</ele><time>2026-03-28T10:16:06.999Z</time></trkpt><trkpt lat="44.97870640644507" lon="9.659296440752597"><ele>89.66666666666667</ele><time>2026-03-28T10:16:07.999Z</time></trkpt><trkpt lat="44.978510613221445" lon="9.659253274631329"><ele>90.0</ele><time>2026-03-28T10:16:08.999Z</time></trkpt><trkpt lat="44.97831504652678" lon="9.659206098523503"><ele>90.0</ele><time>2026-03-28T10:16:09.999Z</time></trkpt><trkpt lat="44.97811937728949" lon="9.659154032726414"><ele>90.0</ele><time>2026-03-28T10:16:10.999Z</time></trkpt><trkpt lat="44.97792887005006" lon="9.659064497213517"><ele>90.0</ele><time>2026-03-28T10:16:11.999Z</time></trkpt><trkpt lat="44.97773342079581" lon="9.65901015694404"><ele>90.0</ele><time>2026-03-28T10:16:12.999Z</time></trkpt><trkpt lat="44.97753807934075" lon="9.658955846646224"><ele>90.0</ele><time>2026-03-28T10:16:13.999Z</time></trkpt><trkpt lat="44.97734239262633" lon="9.658901744876538"><ele>90.0</ele><time>2026-03-28T10:16:14.999Z</time></trkpt><trkpt lat="44.9771463987581" lon="9.658848478858127"><ele>90.33333333333333</ele><time>2026-03-28T10:16:15.999Z</time></trkpt><trkpt lat="44.97695049081494" lon="9.658795236191711"><ele>90.66666666666666</ele><time>2026-03-28T10:16:16.999Z</time></trkpt><trkpt lat="44.97675576559556" lon="9.658741920968719"><ele>91.0</ele><time>2026-03-28T10:16:17.999Z</time></trkpt><trkpt lat="44.97656017621" lon="9.658687705095144"><ele>91.33333333333333</ele><time>2026-03-28T10:16:18.999Z</time></trkpt><trkpt lat="44.9763610227065" lon="9.658655374771188"><ele>91.66666666666667</ele><time>2026-03-28T10:16:19.999Z</time></trkpt><trkpt lat="44.97616599192921" lon="9.658599982639865"><ele>92.0</ele><time>2026-03-28T10:16:20.999Z</time></trkpt><trkpt lat="44.97597082200416" lon="9.658540877766674"><ele>92.33333333333334</ele><time>2026-03-28T10:16:21.999Z</time></trkpt><trkpt lat="44.97577706870525" lon="9.658476066109644"><ele>92.66666666666667</ele><time>2026-03-28T10:16:22.999Z</time></trkpt><trkpt lat="44.97559050119076" lon="9.658378403095284"><ele>93.0</ele><time>2026-03-28T10:16:23.999Z</time></trkpt><trkpt lat="44.975401745988684" lon="9.658292489851446"><ele>93.0</ele><time>2026-03-28T10:16:24.999Z</time></trkpt><trkpt lat="44.975213615511706" lon="9.658202470767682"><ele>93.0</ele><time>2026-03-28T10:16:25.999Z</time></trkpt><trkpt lat="44.9750257026806" lon="9.658109603740696"><ele>93.0</ele><time>2026-03-28T10:16:26.999Z</time></trkpt><trkpt lat="44.974838707198344" lon="9.658015363132703"><ele>93.33333333333333</ele><time>2026-03-28T10:16:27.999Z</time></trkpt><trkpt lat="44.97465273416887" lon="9.657919187588469"><ele>93.66666666666666</ele><time>2026-03-28T10:16:28.999Z</time></trkpt><trkpt lat="44.97446634459484" lon="9.65782279661767"><ele>94.0</ele><time>2026-03-28T10:16:29.999Z</time></trkpt><trkpt lat="44.974280242174395" lon="9.657726181521557"><ele>93.66666666666666</ele><time>2026-03-28T10:16:30.999Z</time></trkpt><trkpt lat="44.9740938653895" lon="9.657629089304818"><ele>93.33333333333333</ele><time>2026-03-28T10:16:31.999Z</time></trkpt><trkpt lat="44.97390745454925" lon="9.657531979344006"><ele>93.0</ele><time>2026-03-28T10:16:32.999Z</time></trkpt><trkpt lat="44.973720783563806" lon="9.657434733861008"><ele>93.0</ele><time>2026-03-28T10:16:33.999Z</time></trkpt><trkpt lat="44.97353501882031" lon="9.65733796048755"><ele>93.0</ele><time>2026-03-28T10:16:34.999Z</time></trkpt><trkpt lat="44.9733490028125" lon="9.657241056183924"><ele>93.0</ele><time>2026-03-28T10:16:35.999Z</time></trkpt><trkpt lat="44.9731626941598" lon="9.657144267623112"><ele>93.66666666666667</ele><time>2026-03-28T10:16:36.999Z</time></trkpt><trkpt lat="44.97297671332341" lon="9.657047594259968"><ele>94.33333333333334</ele><time>2026-03-28T10:16:37.999Z</time></trkpt><trkpt lat="44.972790060686116" lon="9.656950500909392"><ele>95.0</ele><time>2026-03-28T10:16:38.999Z</time></trkpt><trkpt lat="44.97260395046798" lon="9.656852894500387"><ele>95.33333333333334</ele><time>2026-03-28T10:16:39.999Z</time></trkpt><trkpt lat="44.97241736281687" lon="9.656755877278746"><ele>95.66666666666667</ele><time>2026-03-28T10:16:40.999Z</time></trkpt><trkpt lat="44.972232528520315" lon="9.656658472954634"><ele>96.0</ele><time>2026-03-28T10:16:41.999Z</time></trkpt><trkpt lat="44.9720346946493" lon="9.65660137194256"><ele>96.0</ele><time>2026-03-28T10:16:42.999Z</time></trkpt><trkpt lat="44.97184695039529" lon="9.656502173671194"><ele>96.0</ele><time>2026-03-28T10:16:43.999Z</time></trkpt><trkpt lat="44.97166108293646" lon="9.656402195703901"><ele>96.0</ele><time>2026-03-28T10:16:44.999Z</time></trkpt><trkpt lat="44.97147570999967" lon="9.656302667952161"><ele>96.0</ele><time>2026-03-28T10:16:45.999Z</time></trkpt><trkpt lat="44.97129757540526" lon="9.656175083317898"><ele>96.0</ele><time>2026-03-28T10:16:46.999Z</time></trkpt><trkpt lat="44.971111135122875" lon="9.656079063219437"><ele>96.0</ele><time>2026-03-28T10:16:47.999Z</time></trkpt><trkpt lat="44.970924942255266" lon="9.655983153897642"><ele>96.0</ele><time>2026-03-28T10:16:48.999Z</time></trkpt><trkpt lat="44.970730340098314" lon="9.655917516000203"><ele>96.0</ele><time>2026-03-28T10:16:50Z</time></trkpt><trkpt lat="44.970544480182404" lon="9.655821319317345"><ele>96.0</ele><time>2026-03-28T10:16:51Z</time></trkpt><trkpt lat="44.97035899580564" lon="9.655723110995854"><ele>96.0</ele><time>2026-03-28T10:16:52Z</time></trkpt><trkpt lat="44.97017514780123" lon="9.655623877215435"><ele>96.0</ele><time>2026-03-28T10:16:53Z</time></trkpt><trkpt lat="44.96999522296849" lon="9.655502624665008"><ele>96.0</ele><time>2026-03-28T10:16:54Z</time></trkpt><trkpt lat="44.96980407040704" lon="9.655428373726538"><ele>96.0</ele><time>2026-03-28T10:16:55Z</time></trkpt><trkpt lat="44.969623802679045" lon="9.655310276393294"><ele>96.0</ele><time>2026-03-28T10:16:56Z</time></trkpt><trkpt lat="44.969438402902064" lon="9.655214662194545"><ele>96.0</ele><time>2026-03-28T10:16:57Z</time></trkpt><trkpt lat="44.96925248432314" lon="9.655119254608847"><ele>96.33333333333334</ele><time>2026-03-28T10:16:58Z</time></trkpt><trkpt lat="44.96906544452877" lon="9.655023078152485"><ele>96.66666666666667</ele><time>2026-03-28T10:16:59Z</time></trkpt><trkpt lat="44.96887330846872" lon="9.654947159467719"><ele>97.0</ele><time>2026-03-28T10:17:00Z</time></trkpt><trkpt lat="44.96868654132136" lon="9.654849335940293"><ele>97.0</ele><time>2026-03-28T10:17:01Z</time></trkpt><trkpt lat="44.96850079768272" lon="9.654751344150856"><ele>97.0</ele><time>2026-03-28T10:17:02Z</time></trkpt><trkpt lat="44.96831355541138" lon="9.654654055054776"><ele>97.0</ele><time>2026-03-28T10:17:03Z</time></trkpt><trkpt lat="44.968127360388515" lon="9.654558295778575"><ele>97.0</ele><time>2026-03-28T10:17:04Z</time></trkpt><trkpt lat="44.96794102737356" lon="9.654463772202865"><ele>97.0</ele><time>2026-03-28T10:17:05Z</time></trkpt><trkpt lat="44.96775518354515" lon="9.654370154921908"><ele>97.0</ele><time>2026-03-28T10:17:06Z</time></trkpt><trkpt lat="44.9675695249731" lon="9.654275509738579"><ele>97.66666666666667</ele><time>2026-03-28T10:17:07Z</time></trkpt><trkpt lat="44.96738327722394" lon="9.65417903183979"><ele>98.33333333333334</ele><time>2026-03-28T10:17:08Z</time></trkpt><trkpt lat="44.967196935485696" lon="9.654082422723764"><ele>99.0</ele><time>2026-03-28T10:17:09Z</time></trkpt><trkpt lat="44.96701016707361" lon="9.653985590767888"><ele>99.0</ele><time>2026-03-28T10:17:10Z</time></trkpt><trkpt lat="44.96682393731637" lon="9.653890196256594"><ele>99.0</ele><time>2026-03-28T10:17:11Z</time></trkpt><trkpt lat="44.96663860646798" lon="9.65379464499418"><ele>99.0</ele><time>2026-03-28T10:17:12Z</time></trkpt><trkpt lat="44.9664534036578" lon="9.653697365214155"><ele>99.0</ele><time>2026-03-28T10:17:13Z</time></trkpt><trkpt lat="44.96626770403371" lon="9.653599990496945"><ele>99.0</ele><time>2026-03-28T10:17:14Z</time></trkpt><trkpt lat="44.966082250634635" lon="9.653502202870483"><ele>99.0</ele><time>2026-03-28T10:17:15Z</time></trkpt><trkpt lat="44.96589714584182" lon="9.653404476085084"><ele>99.33333333333334</ele><time>2026-03-28T10:17:16Z</time></trkpt><trkpt lat="44.96571093166035" lon="9.653308670364575"><ele>99.66666666666667</ele><time>2026-03-28T10:17:17Z</time></trkpt><trkpt lat="44.96552429942246" lon="9.653209382995113"><ele>100.0</ele><time>2026-03-28T10:17:18Z</time></trkpt><trkpt lat="44.96533765910403" lon="9.653110642811981"><ele>100.0</ele><time>2026-03-28T10:17:19Z</time></trkpt><trkpt lat="44.965151645346864" lon="9.653012775881173"><ele>100.0</ele><time>2026-03-28T10:17:20Z</time></trkpt><trkpt lat="44.96496562814816" lon="9.652912470018329"><ele>100.0</ele><time>2026-03-28T10:17:21Z</time></trkpt><trkpt lat="44.964781235421995" lon="9.65280812409072"><ele>100.33333333333334</ele><time>2026-03-28T10:17:22Z</time></trkpt><trkpt lat="44.964599073865344" lon="9.652695169585975"><ele>100.66666666666666</ele><time>2026-03-28T10:17:23Z</time></trkpt><trkpt lat="44.964420937199414" lon="9.652570775781935"><ele>101.0</ele><time>2026-03-28T10:17:24Z</time></trkpt><trkpt lat="44.964245566692405" lon="9.652440176958564"><ele>101.33333333333333</ele><time>2026-03-28T10:17:25Z</time></trkpt><trkpt lat="44.96406904512699" lon="9.652306491789176"><ele>101.66666666666666</ele><time>2026-03-28T10:17:26Z</time></trkpt><trkpt lat="44.963892998100164" lon="9.65217178048194"><ele>102.0</ele><time>2026-03-28T10:17:27Z</time></trkpt><trkpt lat="44.96372605196902" lon="9.65201349542593"><ele>101.66666666666666</ele><time>2026-03-28T10:17:28Z</time></trkpt><trkpt lat="44.96355998267049" lon="9.651882039329024"><ele>101.33333333333333</ele><time>2026-03-28T10:17:29Z</time></trkpt><trkpt lat="44.9634025142069" lon="9.651757391472598"><ele>101.0</ele><time>2026-03-28T10:17:30Z</time></trkpt><trkpt lat="44.96324880093759" lon="9.651635716177916"><ele>101.0</ele><time>2026-03-28T10:17:31Z</time></trkpt><trkpt lat="44.96309121129121" lon="9.651510972360112"><ele>101.0</ele><time>2026-03-28T10:17:32Z</time></trkpt><trkpt lat="44.962931084870476" lon="9.651384220484285"><ele>101.0</ele><time>2026-03-28T10:17:33Z</time></trkpt><trkpt lat="44.96276905052689" lon="9.651255958381435"><ele>101.0</ele><time>2026-03-28T10:17:34Z</time></trkpt><trkpt lat="44.96259796889076" lon="9.651146435193846"><ele>101.0</ele><time>2026-03-28T10:17:35Z</time></trkpt><trkpt lat="44.96243516875051" lon="9.65101720067125"><ele>101.0</ele><time>2026-03-28T10:17:36Z</time></trkpt><trkpt lat="44.9622729141404" lon="9.650889081862566"><ele>101.33333333333333</ele><time>2026-03-28T10:17:37Z</time></trkpt><trkpt lat="44.96211056649057" lon="9.65076089410634"><ele>101.66666666666666</ele><time>2026-03-28T10:17:38Z</time></trkpt><trkpt lat="44.96194901798229" lon="9.6506327877851"><ele>102.0</ele><time>2026-03-28T10:17:39Z</time></trkpt><trkpt lat="44.96179591045383" lon="9.650485542946841"><ele>102.33333333333334</ele><time>2026-03-28T10:17:40Z</time></trkpt><trkpt lat="44.96163445415387" lon="9.65035771940041"><ele>102.66666666666667</ele><time>2026-03-28T10:17:41Z</time></trkpt><trkpt lat="44.96147950476682" lon="9.650235047351881"><ele>103.0</ele><time>2026-03-28T10:17:42Z</time></trkpt><trkpt lat="44.96133585594927" lon="9.650121321830037"><ele>102.33333333333334</ele><time>2026-03-28T10:17:43Z</time></trkpt><trkpt lat="44.961200874928466" lon="9.650014458551826"><ele>101.66666666666666</ele><time>2026-03-28T10:17:44Z</time></trkpt><trkpt lat="44.96106863827586" lon="9.649909767832295"><ele>101.0</ele><time>2026-03-28T10:17:45Z</time></trkpt><trkpt lat="44.960933700043775" lon="9.649802936740443"><ele>101.33333333333333</ele><time>2026-03-28T10:17:46Z</time></trkpt><trkpt lat="44.96079333472533" lon="9.649692537025324"><ele>101.66666666666666</ele><time>2026-03-28T10:17:47Z</time></trkpt><trkpt lat="44.960650540124426" lon="9.64958002173435"><ele>102.0</ele><time>2026-03-28T10:17:48Z</time></trkpt><trkpt lat="44.960505008276925" lon="9.649465349581655"><ele>102.0</ele><time>2026-03-28T10:17:49Z</time></trkpt><trkpt lat="44.96036127000892" lon="9.64935144826916"><ele>102.0</ele><time>2026-03-28T10:17:49.999Z</time></trkpt><trkpt lat="44.96021700230708" lon="9.649236738714654"><ele>102.0</ele><time>2026-03-28T10:17:50.999Z</time></trkpt><trkpt lat="44.960065799667994" lon="9.649142021529736"><ele>102.66666666666666</ele><time>2026-03-28T10:17:51.999Z</time></trkpt><trkpt lat="44.95992274213157" lon="9.64902424232188"><ele>103.33333333333333</ele><time>2026-03-28T10:17:52.999Z</time></trkpt><trkpt lat="44.95977963674447" lon="9.648909004141354"><ele>104.0</ele><time>2026-03-28T10:17:53.999Z</time></trkpt><trkpt lat="44.95963418077818" lon="9.648795706293534"><ele>104.0</ele><time>2026-03-28T10:17:54.999Z</time></trkpt><trkpt lat="44.95949074700251" lon="9.648683225729767"><ele>104.0</ele><time>2026-03-28T10:17:55.999Z</time></trkpt><trkpt lat="44.95934630444425" lon="9.64856949136241"><ele>104.0</ele><time>2026-03-28T10:17:56.999Z</time></trkpt><trkpt lat="44.959202969790304" lon="9.648453834924187"><ele>104.33333333333333</ele><time>2026-03-28T10:17:57.999Z</time></trkpt><trkpt lat="44.959059930243754" lon="9.648339488365542"><ele>104.66666666666666</ele><time>2026-03-28T10:17:58.999Z</time></trkpt><trkpt lat="44.958915563463215" lon="9.648225846741111"><ele>105.0</ele><time>2026-03-28T10:17:59.999Z</time></trkpt><trkpt lat="44.95877188956849" lon="9.648110673671995"><ele>105.0</ele><time>2026-03-28T10:18:00.999Z</time></trkpt><trkpt lat="44.95862812730695" lon="9.647996330196943"><ele>105.0</ele><time>2026-03-28T10:18:01.999Z</time></trkpt><trkpt lat="44.958483854187506" lon="9.64788255665115"><ele>105.0</ele><time>2026-03-28T10:18:02.999Z</time></trkpt><trkpt lat="44.958341483698575" lon="9.647768356369415"><ele>105.0</ele><time>2026-03-28T10:18:03.999Z</time></trkpt><trkpt lat="44.95819698771697" lon="9.647656653927724"><ele>105.0</ele><time>2026-03-28T10:18:04.999Z</time></trkpt><trkpt lat="44.95805261241366" lon="9.647545602497905"><ele>105.0</ele><time>2026-03-28T10:18:05.999Z</time></trkpt><trkpt lat="44.95790888268908" lon="9.647432537411747"><ele>105.0</ele><time>2026-03-28T10:18:06.999Z</time></trkpt><trkpt lat="44.95776453554372" lon="9.64732110614039"><ele>105.0</ele><time>2026-03-28T10:18:07.999Z</time></trkpt><trkpt lat="44.957628456789934" lon="9.64719179741847"><ele>105.0</ele><time>2026-03-28T10:18:08.999Z</time></trkpt><trkpt lat="44.957484925848846" lon="9.647078632727835"><ele>105.66666666666666</ele><time>2026-03-28T10:18:09.999Z</time></trkpt><trkpt lat="44.95734170547937" lon="9.646964838361448"><ele>106.33333333333333</ele><time>2026-03-28T10:18:10.999Z</time></trkpt><trkpt lat="44.95719780187433" lon="9.646850404651259"><ele>107.0</ele><time>2026-03-28T10:18:11.999Z</time></trkpt><trkpt lat="44.95705469722942" lon="9.646736606268517"><ele>107.0</ele><time>2026-03-28T10:18:12.999Z</time></trkpt><trkpt lat="44.95691351863116" lon="9.646619292078643"><ele>107.0</ele><time>2026-03-28T10:18:13.999Z</time></trkpt><trkpt lat="44.956770606645996" lon="9.646499418388869"><ele>107.0</ele><time>2026-03-28T10:18:14.999Z</time></trkpt><trkpt lat="44.956625045894505" lon="9.64637430384375"><ele>107.0</ele><time>2026-03-28T10:18:15.999Z</time></trkpt><trkpt lat="44.956470226134826" lon="9.646257745439309"><ele>107.0</ele><time>2026-03-28T10:18:16.999Z</time></trkpt><trkpt lat="44.95632238665548" lon="9.646115419587284"><ele>107.0</ele><time>2026-03-28T10:18:17.999Z</time></trkpt><trkpt lat="44.956177197183834" lon="9.645968724346345"><ele>107.0</ele><time>2026-03-28T10:18:18.999Z</time></trkpt><trkpt lat="44.956041725881896" lon="9.645796708927982"><ele>107.0</ele><time>2026-03-28T10:18:19.999Z</time></trkpt><trkpt lat="44.955890708217034" lon="9.645658708417258"><ele>107.0</ele><time>2026-03-28T10:18:20.999Z</time></trkpt><trkpt lat="44.95574917958396" lon="9.645493183427744"><ele>107.66666666666666</ele><time>2026-03-28T10:18:21.999Z</time></trkpt><trkpt lat="44.95561010877702" lon="9.645325580762087"><ele>108.33333333333334</ele><time>2026-03-28T10:18:22.999Z</time></trkpt><trkpt lat="44.95547357381835" lon="9.645156095766728"><ele>109.0</ele><time>2026-03-28T10:18:23.999Z</time></trkpt><trkpt lat="44.955338797287375" lon="9.64498380608207"><ele>109.33333333333334</ele><time>2026-03-28T10:18:24.999Z</time></trkpt><trkpt lat="44.95520676548288" lon="9.644807921784837"><ele>109.66666666666666</ele><time>2026-03-28T10:18:25.999Z</time></trkpt><trkpt lat="44.95507619060063" lon="9.644633560587655"><ele>110.0</ele><time>2026-03-28T10:18:26.999Z</time></trkpt><trkpt lat="44.954944344251444" lon="9.644458960085363"><ele>110.0</ele><time>2026-03-28T10:18:27.999Z</time></trkpt><trkpt lat="44.954811643882714" lon="9.644286664142333"><ele>110.0</ele><time>2026-03-28T10:18:28.999Z</time></trkpt><trkpt lat="44.954676949958156" lon="9.644116263360866"><ele>110.0</ele><time>2026-03-28T10:18:29.999Z</time></trkpt><trkpt lat="44.95454306869573" lon="9.64394626399021"><ele>110.0</ele><time>2026-03-28T10:18:30.999Z</time></trkpt><trkpt lat="44.95442151006517" lon="9.643756279561014"><ele>110.0</ele><time>2026-03-28T10:18:31.999Z</time></trkpt><trkpt lat="44.95429063602261" lon="9.643583109232416"><ele>110.0</ele><time>2026-03-28T10:18:32.999Z</time></trkpt><trkpt lat="44.95415997493923" lon="9.643410220407983"><ele>111.0</ele><time>2026-03-28T10:18:33.999Z</time></trkpt><trkpt lat="44.95402900147778" lon="9.643236918574624"><ele>112.0</ele><time>2026-03-28T10:18:34.999Z</time></trkpt><trkpt lat="44.95388818441306" lon="9.643079662088965"><ele>113.0</ele><time>2026-03-28T10:18:35.999Z</time></trkpt><trkpt lat="44.95375948788527" lon="9.642903663361066"><ele>113.0</ele><time>2026-03-28T10:18:36.999Z</time></trkpt><trkpt lat="44.95362813067767" lon="9.642728925604207"><ele>113.0</ele><time>2026-03-28T10:18:37.999Z</time></trkpt><trkpt lat="44.95349671411816" lon="9.642554312101941"><ele>113.0</ele><time>2026-03-28T10:18:38.999Z</time></trkpt><trkpt lat="44.95336127142932" lon="9.642384984929933"><ele>113.0</ele><time>2026-03-28T10:18:39.999Z</time></trkpt><trkpt lat="44.953224877793176" lon="9.642217123477936"><ele>113.0</ele><time>2026-03-28T10:18:40.999Z</time></trkpt><trkpt lat="44.953087497703486" lon="9.642049013696624"><ele>113.0</ele><time>2026-03-28T10:18:41.999Z</time></trkpt><trkpt lat="44.952951660721816" lon="9.641883670465823"><ele>113.0</ele><time>2026-03-28T10:18:42.999Z</time></trkpt><trkpt lat="44.952811205056996" lon="9.641719684165563"><ele>113.0</ele><time>2026-03-28T10:18:43.999Z</time></trkpt><trkpt lat="44.95267089207386" lon="9.641559755008611"><ele>113.0</ele><time>2026-03-28T10:18:44.999Z</time></trkpt><trkpt lat="44.952527913330876" lon="9.64140417035258"><ele>113.33333333333333</ele><time>2026-03-28T10:18:45.999Z</time></trkpt><trkpt lat="44.9523845205205" lon="9.641249602629545"><ele>113.66666666666666</ele><time>2026-03-28T10:18:46.999Z</time></trkpt><trkpt lat="44.95223994532734" lon="9.64109843682018"><ele>114.0</ele><time>2026-03-28T10:18:47.999Z</time></trkpt><trkpt lat="44.95209628340379" lon="9.640946519467645"><ele>114.0</ele><time>2026-03-28T10:18:48.999Z</time></trkpt><trkpt lat="44.951952197046815" lon="9.640797335709419"><ele>114.0</ele><time>2026-03-28T10:18:49.999Z</time></trkpt><trkpt lat="44.951805399501566" lon="9.640650241882303"><ele>114.0</ele><time>2026-03-28T10:18:50.999Z</time></trkpt><trkpt lat="44.95165924305755" lon="9.640504638147755"><ele>114.0</ele><time>2026-03-28T10:18:51.999Z</time></trkpt><trkpt lat="44.951509594209206" lon="9.640361515569085"><ele>114.0</ele><time>2026-03-28T10:18:52.999Z</time></trkpt><trkpt lat="44.95136123287008" lon="9.640218959083013"><ele>114.0</ele><time>2026-03-28T10:18:53.999Z</time></trkpt><trkpt lat="44.95121011521769" lon="9.640081595928608"><ele>114.0</ele><time>2026-03-28T10:18:54.999Z</time></trkpt><trkpt lat="44.95105739380208" lon="9.63994811284214"><ele>114.0</ele><time>2026-03-28T10:18:56Z</time></trkpt><trkpt lat="44.95090516933735" lon="9.639814110294187"><ele>114.0</ele><time>2026-03-28T10:18:57Z</time></trkpt><trkpt lat="44.9507512201869" lon="9.639681297225925"><ele>114.66666666666666</ele><time>2026-03-28T10:18:58Z</time></trkpt><trkpt lat="44.95059627070421" lon="9.639550841294204"><ele>115.33333333333333</ele><time>2026-03-28T10:18:59Z</time></trkpt><trkpt lat="44.95044145345167" lon="9.63942373947479"><ele>116.0</ele><time>2026-03-28T10:19:00Z</time></trkpt><trkpt lat="44.95028477033298" lon="9.639298940680973"><ele>116.33333333333333</ele><time>2026-03-28T10:19:01Z</time></trkpt><trkpt lat="44.95012654940546" lon="9.639175543592952"><ele>116.66666666666666</ele><time>2026-03-28T10:19:02Z</time></trkpt><trkpt lat="44.94996735316587" lon="9.639058388094558"><ele>117.0</ele><time>2026-03-28T10:19:03Z</time></trkpt><trkpt lat="44.94980750530745" lon="9.638937240004568"><ele>117.0</ele><time>2026-03-28T10:19:04Z</time></trkpt><trkpt lat="44.949646910528465" lon="9.638819636156974"><ele>117.0</ele><time>2026-03-28T10:19:05Z</time></trkpt><trkpt lat="44.94948790178967" lon="9.638704683445052"><ele>117.0</ele><time>2026-03-28T10:19:06Z</time></trkpt><trkpt lat="44.9493280203798" lon="9.638586813664455"><ele>117.66666666666666</ele><time>2026-03-28T10:19:07Z</time></trkpt><trkpt lat="44.94916837782133" lon="9.638472383751035"><ele>118.33333333333333</ele><time>2026-03-28T10:19:08Z</time></trkpt><trkpt lat="44.94900455445518" lon="9.638362446929852"><ele>119.0</ele><time>2026-03-28T10:19:09Z</time></trkpt><trkpt lat="44.94884153390197" lon="9.638250692166775"><ele>119.0</ele><time>2026-03-28T10:19:10Z</time></trkpt><trkpt lat="44.94868043425459" lon="9.63813720527275"><ele>119.0</ele><time>2026-03-28T10:19:11Z</time></trkpt><trkpt lat="44.948521305863416" lon="9.638022301298028"><ele>119.0</ele><time>2026-03-28T10:19:12Z</time></trkpt><trkpt lat="44.948359906295465" lon="9.637909038043247"><ele>119.0</ele><time>2026-03-28T10:19:13Z</time></trkpt><trkpt lat="44.94819780111255" lon="9.637795717221698"><ele>119.0</ele><time>2026-03-28T10:19:14Z</time></trkpt><trkpt lat="44.9480430857697" lon="9.637662297810634"><ele>119.0</ele><time>2026-03-28T10:19:15Z</time></trkpt><trkpt lat="44.94788337687885" lon="9.637548886364092"><ele>119.0</ele><time>2026-03-28T10:19:16Z</time></trkpt><trkpt lat="44.94772204862503" lon="9.63743779812368"><ele>119.0</ele><time>2026-03-28T10:19:17Z</time></trkpt><trkpt lat="44.94756274769561" lon="9.637323599880318"><ele>119.0</ele><time>2026-03-28T10:19:18Z</time></trkpt><trkpt lat="44.94740218062115" lon="9.637211398459925"><ele>119.0</ele><time>2026-03-28T10:19:19Z</time></trkpt><trkpt lat="44.947233725765955" lon="9.637120416115172"><ele>119.0</ele><time>2026-03-28T10:19:20Z</time></trkpt><trkpt lat="44.947072531365635" lon="9.637008002629065"><ele>119.0</ele><time>2026-03-28T10:19:21Z</time></trkpt><trkpt lat="44.94691086456867" lon="9.636895809703379"><ele>119.0</ele><time>2026-03-28T10:19:22Z</time></trkpt><trkpt lat="44.94674947705164" lon="9.636782541268065"><ele>119.0</ele><time>2026-03-28T10:19:23Z</time></trkpt><trkpt lat="44.94658860635248" lon="9.636667729806867"><ele>119.0</ele><time>2026-03-28T10:19:24Z</time></trkpt><trkpt lat="44.94642722336504" lon="9.636551248214248"><ele>120.0</ele><time>2026-03-28T10:19:25Z</time></trkpt><trkpt lat="44.94626600064845" lon="9.636437884346542"><ele>121.0</ele><time>2026-03-28T10:19:26Z</time></trkpt><trkpt lat="44.9461041926387" lon="9.636324079355385"><ele>122.0</ele><time>2026-03-28T10:19:27Z</time></trkpt><trkpt lat="44.94594161754996" lon="9.636213142034537"><ele>121.66666666666666</ele><time>2026-03-28T10:19:28Z</time></trkpt><trkpt lat="44.94578114996971" lon="9.636101566261361"><ele>121.33333333333334</ele><time>2026-03-28T10:19:29Z</time></trkpt><trkpt lat="44.94562006253169" lon="9.63598756647403"><ele>121.0</ele><time>2026-03-28T10:19:30Z</time></trkpt><trkpt lat="44.9454653484964" lon="9.635855662661049"><ele>121.0</ele><time>2026-03-28T10:19:31Z</time></trkpt><trkpt lat="44.94530553556253" lon="9.635740941186171"><ele>121.0</ele><time>2026-03-28T10:19:32Z</time></trkpt><trkpt lat="44.94514531915182" lon="9.635625220354232"><ele>121.0</ele><time>2026-03-28T10:19:33Z</time></trkpt><trkpt lat="44.944984304508" lon="9.635508742610016"><ele>121.0</ele><time>2026-03-28T10:19:34Z</time></trkpt><trkpt lat="44.9448246140009" lon="9.635393261732743"><ele>121.0</ele><time>2026-03-28T10:19:35Z</time></trkpt><trkpt lat="44.94466244028567" lon="9.63527872398692"><ele>121.0</ele><time>2026-03-28T10:19:36Z</time></trkpt><trkpt lat="44.94450094421535" lon="9.635165449082848"><ele>121.0</ele><time>2026-03-28T10:19:37Z</time></trkpt><trkpt lat="44.944332264232926" lon="9.635072822796289"><ele>121.0</ele><time>2026-03-28T10:19:38Z</time></trkpt><trkpt lat="44.94417780729808" lon="9.634939225356584"><ele>121.0</ele><time>2026-03-28T10:19:39Z</time></trkpt><trkpt lat="44.94400925698999" lon="9.634848083552894"><ele>120.66666666666667</ele><time>2026-03-28T10:19:40Z</time></trkpt><trkpt lat="44.94384967052471" lon="9.63473516385157"><ele>120.33333333333334</ele><time>2026-03-28T10:19:41Z</time></trkpt><trkpt lat="44.94369900175762" lon="9.634625893667302"><ele>120.0</ele><time>2026-03-28T10:19:42Z</time></trkpt><trkpt lat="44.9435576951341" lon="9.634523199449609"><ele>120.0</ele><time>2026-03-28T10:19:43Z</time></trkpt><trkpt lat="44.94341439378756" lon="9.634414993323443"><ele>120.0</ele><time>2026-03-28T10:19:44Z</time></trkpt><trkpt lat="44.94327435552858" lon="9.63429601786007"><ele>120.0</ele><time>2026-03-28T10:19:45Z</time></trkpt><trkpt lat="44.94313415780369" lon="9.634171099075923"><ele>120.33333333333334</ele><time>2026-03-28T10:19:46Z</time></trkpt><trkpt lat="44.942995870002036" lon="9.634045405475598"><ele>120.66666666666667</ele><time>2026-03-28T10:19:47Z</time></trkpt><trkpt lat="44.94286167561306" lon="9.633915838469983"><ele>121.0</ele><time>2026-03-28T10:19:48Z</time></trkpt><trkpt lat="44.94273510717125" lon="9.633790529598517"><ele>121.0</ele><time>2026-03-28T10:19:49Z</time></trkpt><trkpt lat="44.94261997509084" lon="9.633665939615234"><ele>121.0</ele><time>2026-03-28T10:19:50Z</time></trkpt><trkpt lat="44.94251233827662" lon="9.633552609846165"><ele>121.0</ele><time>2026-03-28T10:19:51Z</time></trkpt><trkpt lat="44.94241446260334" lon="9.633450056831482"><ele>121.0</ele><time>2026-03-28T10:19:52Z</time></trkpt><trkpt lat="44.94231761502505" lon="9.633349516700827"><ele>121.5</ele><time>2026-03-28T10:19:53Z</time></trkpt><trkpt lat="44.94221478170336" lon="9.633246307018402"><ele>122.0</ele><time>2026-03-28T10:19:54Z</time></trkpt><trkpt lat="44.9421132803652" lon="9.63314616380852"><ele>122.5</ele><time>2026-03-28T10:19:55Z</time></trkpt><trkpt lat="44.94201600843777" lon="9.633044513873761"><ele>123.0</ele><time>2026-03-28T10:19:56Z</time></trkpt><trkpt lat="44.94191559527706" lon="9.632939002166816"><ele>123.0</ele><time>2026-03-28T10:19:57Z</time></trkpt><trkpt lat="44.941809899100214" lon="9.632829536907268"><ele>123.0</ele><time>2026-03-28T10:19:58Z</time></trkpt><trkpt lat="44.94169987238867" lon="9.632714713769072"><ele>123.0</ele><time>2026-03-28T10:19:59Z</time></trkpt><trkpt lat="44.94158798269973" lon="9.63259877324947"><ele>123.0</ele><time>2026-03-28T10:20:00Z</time></trkpt><trkpt lat="44.941471106546736" lon="9.632480025951374"><ele>124.0</ele><time>2026-03-28T10:20:01Z</time></trkpt><trkpt lat="44.941348096906246" lon="9.632356226852979"><ele>125.0</ele><time>2026-03-28T10:20:02Z</time></trkpt><trkpt lat="44.941222765394976" lon="9.632229600092396"><ele>126.0</ele><time>2026-03-28T10:20:03Z</time></trkpt><trkpt lat="44.94109898100205" lon="9.63210966719401"><ele>126.0</ele><time>2026-03-28T10:20:04Z</time></trkpt><trkpt lat="44.94096630098015" lon="9.631967643466355"><ele>126.0</ele><time>2026-03-28T10:20:05Z</time></trkpt><trkpt lat="44.94082969704148" lon="9.63183500433733"><ele>126.0</ele><time>2026-03-28T10:20:06Z</time></trkpt><trkpt lat="44.94069118560539" lon="9.631691748995602"><ele>126.0</ele><time>2026-03-28T10:20:06.999Z</time></trkpt><trkpt lat="44.940555824620326" lon="9.631539155725854"><ele>126.0</ele><time>2026-03-28T10:20:07.999Z</time></trkpt><trkpt lat="44.94042803136731" lon="9.631368214106667"><ele>126.0</ele><time>2026-03-28T10:20:08.999Z</time></trkpt><trkpt lat="44.940285327033145" lon="9.631215684679502"><ele>126.33333333333334</ele><time>2026-03-28T10:20:09.999Z</time></trkpt><trkpt lat="44.94015351653624" lon="9.631042781238397"><ele>126.66666666666667</ele><time>2026-03-28T10:20:10.999Z</time></trkpt><trkpt lat="44.94003384107952" lon="9.630854409055878"><ele>127.0</ele><time>2026-03-28T10:20:11.999Z</time></trkpt><trkpt lat="44.939908656988585" lon="9.630681714238069"><ele>128.0</ele><time>2026-03-28T10:20:12.999Z</time></trkpt><trkpt lat="44.93978226770422" lon="9.630516795848312"><ele>129.0</ele><time>2026-03-28T10:20:13.999Z</time></trkpt><trkpt lat="44.939665989009214" lon="9.630334316748923"><ele>130.0</ele><time>2026-03-28T10:20:14.999Z</time></trkpt><trkpt lat="44.93955182562134" lon="9.630151287139388"><ele>130.0</ele><time>2026-03-28T10:20:15.999Z</time></trkpt><trkpt lat="44.93944058672994" lon="9.629971879880019"><ele>130.0</ele><time>2026-03-28T10:20:16.999Z</time></trkpt><trkpt lat="44.939331178617415" lon="9.629798659315501"><ele>130.0</ele><time>2026-03-28T10:20:17.999Z</time></trkpt><trkpt lat="44.93922545818476" lon="9.629619987121112"><ele>130.33333333333334</ele><time>2026-03-28T10:20:18.999Z</time></trkpt><trkpt lat="44.939119546083475" lon="9.629439246981553"><ele>130.66666666666666</ele><time>2026-03-28T10:20:19.999Z</time></trkpt><trkpt lat="44.93901097622933" lon="9.629259258914972"><ele>131.0</ele><time>2026-03-28T10:20:20.999Z</time></trkpt><trkpt lat="44.93890042593035" lon="9.629081305562897"><ele>131.0</ele><time>2026-03-28T10:20:21.999Z</time></trkpt><trkpt lat="44.938785219506464" lon="9.628910271271808"><ele>131.0</ele><time>2026-03-28T10:20:22.999Z</time></trkpt><trkpt lat="44.938665717074336" lon="9.62874396773291"><ele>131.0</ele><time>2026-03-28T10:20:23.999Z</time></trkpt><trkpt lat="44.93854085692966" lon="9.628581875427628"><ele>131.33333333333331</ele><time>2026-03-28T10:20:24.999Z</time></trkpt><trkpt lat="44.93841441071502" lon="9.628421553187374"><ele>131.66666666666666</ele><time>2026-03-28T10:20:25.999Z</time></trkpt><trkpt lat="44.93828181126806" lon="9.628263997660293"><ele>132.0</ele><time>2026-03-28T10:20:26.999Z</time></trkpt><trkpt lat="44.93814468230571" lon="9.628109936263703"><ele>132.0</ele><time>2026-03-28T10:20:27.999Z</time></trkpt><trkpt lat="44.93800630210077" lon="9.627960136516469"><ele>132.0</ele><time>2026-03-28T10:20:28.999Z</time></trkpt><trkpt lat="44.93787630959376" lon="9.627792438858238"><ele>132.0</ele><time>2026-03-28T10:20:29.999Z</time></trkpt><trkpt lat="44.93773473422592" lon="9.627640343417047"><ele>132.0</ele><time>2026-03-28T10:20:30.999Z</time></trkpt><trkpt lat="44.93759175085062" lon="9.62749135145977"><ele>132.0</ele><time>2026-03-28T10:20:31.999Z</time></trkpt><trkpt lat="44.93744877190111" lon="9.62733883820543"><ele>132.0</ele><time>2026-03-28T10:20:32.999Z</time></trkpt><trkpt lat="44.93729500618036" lon="9.627202575304723"><ele>132.0</ele><time>2026-03-28T10:20:33.999Z</time></trkpt><trkpt lat="44.93715080503958" lon="9.627048025718246"><ele>132.0</ele><time>2026-03-28T10:20:34.999Z</time></trkpt><trkpt lat="44.93701598239462" lon="9.626875344893936"><ele>132.0</ele><time>2026-03-28T10:20:35.999Z</time></trkpt><trkpt lat="44.93686999375364" lon="9.62672067425777"><ele>133.0</ele><time>2026-03-28T10:20:36.999Z</time></trkpt><trkpt lat="44.936714860180665" lon="9.62658463630425"><ele>134.0</ele><time>2026-03-28T10:20:37.999Z</time></trkpt><trkpt lat="44.93656936567409" lon="9.626430553372987"><ele>135.0</ele><time>2026-03-28T10:20:38.999Z</time></trkpt><trkpt lat="44.93642512788738" lon="9.626277450985874"><ele>135.0</ele><time>2026-03-28T10:20:39.999Z</time></trkpt><trkpt lat="44.93629120420706" lon="9.626104594250519"><ele>135.0</ele><time>2026-03-28T10:20:40.999Z</time></trkpt><trkpt lat="44.936148685870705" lon="9.625950869541324"><ele>135.0</ele><time>2026-03-28T10:20:41.999Z</time></trkpt><trkpt lat="44.93600550282779" lon="9.62579723681683"><ele>134.66666666666666</ele><time>2026-03-28T10:20:42.999Z</time></trkpt><trkpt lat="44.935861712547904" lon="9.625643277324547"><ele>134.33333333333331</ele><time>2026-03-28T10:20:43.999Z</time></trkpt><trkpt lat="44.93571851718997" lon="9.625489984736836"><ele>134.0</ele><time>2026-03-28T10:20:44.999Z</time></trkpt><trkpt lat="44.9355740090948" lon="9.625336187061142"><ele>134.0</ele><time>2026-03-28T10:20:45.999Z</time></trkpt><trkpt lat="44.93543003203797" lon="9.625182954681307"><ele>134.0</ele><time>2026-03-28T10:20:46.999Z</time></trkpt><trkpt lat="44.93527900463972" lon="9.625047674230446"><ele>134.0</ele><time>2026-03-28T10:20:47.999Z</time></trkpt><trkpt lat="44.93513516828832" lon="9.624894878311276"><ele>133.66666666666666</ele><time>2026-03-28T10:20:48.999Z</time></trkpt><trkpt lat="44.93499237930059" lon="9.624741958401275"><ele>133.33333333333334</ele><time>2026-03-28T10:20:49.999Z</time></trkpt><trkpt lat="44.93485030548129" lon="9.624584495685049"><ele>133.0</ele><time>2026-03-28T10:20:50.999Z</time></trkpt><trkpt lat="44.934707872809604" lon="9.624427849470338"><ele>132.0</ele><time>2026-03-28T10:20:51.999Z</time></trkpt><trkpt lat="44.93456537807766" lon="9.624273118153544"><ele>131.0</ele><time>2026-03-28T10:20:52.999Z</time></trkpt><trkpt lat="44.934422760647415" lon="9.624117535451923"><ele>130.0</ele><time>2026-03-28T10:20:53.999Z</time></trkpt><trkpt lat="44.93428174694499" lon="9.623961858532931"><ele>130.66666666666669</ele><time>2026-03-28T10:20:54.999Z</time></trkpt><trkpt lat="44.93414093207549" lon="9.623803744234566"><ele>131.33333333333334</ele><time>2026-03-28T10:20:55.999Z</time></trkpt><trkpt lat="44.933999755555966" lon="9.62364706395038"><ele>132.0</ele><time>2026-03-28T10:20:56.999Z</time></trkpt><trkpt lat="44.93385756927549" lon="9.623490151582704"><ele>132.0</ele><time>2026-03-28T10:20:57.999Z</time></trkpt><trkpt lat="44.93371529418214" lon="9.623332818204814"><ele>132.0</ele><time>2026-03-28T10:20:58.999Z</time></trkpt><trkpt lat="44.93357215238147" lon="9.623175405543506"><ele>132.0</ele><time>2026-03-28T10:20:59.999Z</time></trkpt><trkpt lat="44.933442221571276" lon="9.622999360270343"><ele>133.0</ele><time>2026-03-28T10:21:00.999Z</time></trkpt><trkpt lat="44.93330106973233" lon="9.622839967020008"><ele>134.0</ele><time>2026-03-28T10:21:02Z</time></trkpt><trkpt lat="44.933160678894225" lon="9.622681517372667"><ele>135.0</ele><time>2026-03-28T10:21:03Z</time></trkpt><trkpt lat="44.93301941402089" lon="9.622522161061653"><ele>135.0</ele><time>2026-03-28T10:21:04Z</time></trkpt><trkpt lat="44.93287884389465" lon="9.622363588450286"><ele>135.0</ele><time>2026-03-28T10:21:05Z</time></trkpt><trkpt lat="44.93273789840514" lon="9.62220590481217"><ele>135.0</ele><time>2026-03-28T10:21:06Z</time></trkpt><trkpt lat="44.932585330750705" lon="9.622064703278804"><ele>135.0</ele><time>2026-03-28T10:21:07Z</time></trkpt><trkpt lat="44.93244500181057" lon="9.621904080708912"><ele>135.0</ele><time>2026-03-28T10:21:08Z</time></trkpt><trkpt lat="44.932304051060314" lon="9.621742461577448"><ele>135.0</ele><time>2026-03-28T10:21:09Z</time></trkpt><trkpt lat="44.93216284636484" lon="9.621582898441131"><ele>135.0</ele><time>2026-03-28T10:21:10Z</time></trkpt><trkpt lat="44.93202056803984" lon="9.621423465936068"><ele>135.0</ele><time>2026-03-28T10:21:11Z</time></trkpt><trkpt lat="44.93187877992548" lon="9.621264652177029"><ele>135.0</ele><time>2026-03-28T10:21:12Z</time></trkpt><trkpt lat="44.931739180189" lon="9.621103836908512"><ele>134.66666666666666</ele><time>2026-03-28T10:21:13Z</time></trkpt><trkpt lat="44.93160354319003" lon="9.620947567837424"><ele>134.33333333333331</ele><time>2026-03-28T10:21:14Z</time></trkpt><trkpt lat="44.931471658325876" lon="9.620795512028602"><ele>134.0</ele><time>2026-03-28T10:21:15Z</time></trkpt><trkpt lat="44.93133861845094" lon="9.620644262272549"><ele>134.0</ele><time>2026-03-28T10:21:16Z</time></trkpt><trkpt lat="44.93120439457653" lon="9.62049445614921"><ele>134.0</ele><time>2026-03-28T10:21:17Z</time></trkpt><trkpt lat="44.93106883503799" lon="9.62034671274736"><ele>134.0</ele><time>2026-03-28T10:21:18Z</time></trkpt><trkpt lat="44.93093181772568" lon="9.620197599383156"><ele>134.66666666666666</ele><time>2026-03-28T10:21:19Z</time></trkpt><trkpt lat="44.9307913965982" lon="9.620053310316097"><ele>135.33333333333334</ele><time>2026-03-28T10:21:20Z</time></trkpt><trkpt lat="44.93066129196096" lon="9.619891321462896"><ele>136.0</ele><time>2026-03-28T10:21:21Z</time></trkpt><trkpt lat="44.9305225915749" lon="9.619746134489985"><ele>136.0</ele><time>2026-03-28T10:21:22Z</time></trkpt><trkpt lat="44.93038490772662" lon="9.619603421850826"><ele>136.0</ele><time>2026-03-28T10:21:23Z</time></trkpt><trkpt lat="44.93024536350355" lon="9.619462331831388"><ele>136.0</ele><time>2026-03-28T10:21:24Z</time></trkpt><trkpt lat="44.93010470291125" lon="9.619321417929482"><ele>135.33333333333334</ele><time>2026-03-28T10:21:25Z</time></trkpt><trkpt lat="44.929964078049395" lon="9.619180538260395"><ele>134.66666666666666</ele><time>2026-03-28T10:21:26Z</time></trkpt><trkpt lat="44.92982494686141" lon="9.619040211504911"><ele>134.0</ele><time>2026-03-28T10:21:27Z</time></trkpt><trkpt lat="44.929687572667504" lon="9.618894833244573"><ele>134.0</ele><time>2026-03-28T10:21:28Z</time></trkpt><trkpt lat="44.929550524588315" lon="9.618749452085934"><ele>134.0</ele><time>2026-03-28T10:21:29Z</time></trkpt><trkpt lat="44.92941074938243" lon="9.618606171241307"><ele>134.0</ele><time>2026-03-28T10:21:30Z</time></trkpt><trkpt lat="44.92927125998068" lon="9.618465606198205"><ele>134.66666666666666</ele><time>2026-03-28T10:21:31Z</time></trkpt><trkpt lat="44.92913383858719" lon="9.61832712516859"><ele>135.33333333333334</ele><time>2026-03-28T10:21:32Z</time></trkpt><trkpt lat="44.92900478624723" lon="9.61819584471056"><ele>136.0</ele><time>2026-03-28T10:21:33Z</time></trkpt><trkpt lat="44.928878896171334" lon="9.61806371330952"><ele>136.0</ele><time>2026-03-28T10:21:34Z</time></trkpt><trkpt lat="44.92875819145125" lon="9.617936099999024"><ele>136.0</ele><time>2026-03-28T10:21:35Z</time></trkpt><trkpt lat="44.92863496804237" lon="9.617815355783994"><ele>136.0</ele><time>2026-03-28T10:21:36Z</time></trkpt><trkpt lat="44.92851694433212" lon="9.61768530807625"><ele>136.0</ele><time>2026-03-28T10:21:37Z</time></trkpt><trkpt lat="44.9284000814681" lon="9.617543782350717"><ele>136.0</ele><time>2026-03-28T10:21:38Z</time></trkpt><trkpt lat="44.92828453817917" lon="9.617392905760953"><ele>136.0</ele><time>2026-03-28T10:21:39Z</time></trkpt><trkpt lat="44.9281717438241" lon="9.61723126703632"><ele>136.0</ele><time>2026-03-28T10:21:40Z</time></trkpt><trkpt lat="44.92806127220418" lon="9.617060502740406"><ele>136.0</ele><time>2026-03-28T10:21:41Z</time></trkpt><trkpt lat="44.92795018648119" lon="9.616884789362738"><ele>136.0</ele><time>2026-03-28T10:21:42Z</time></trkpt><trkpt lat="44.92783648655733" lon="9.616701852700755"><ele>135.33333333333334</ele><time>2026-03-28T10:21:43Z</time></trkpt><trkpt lat="44.92772034051141" lon="9.616513965832361"><ele>134.66666666666666</ele><time>2026-03-28T10:21:44Z</time></trkpt><trkpt lat="44.927601421098494" lon="9.61632085705308"><ele>134.0</ele><time>2026-03-28T10:21:45Z</time></trkpt><trkpt lat="44.927480379589845" lon="9.61612457884518"><ele>134.0</ele><time>2026-03-28T10:21:46Z</time></trkpt><trkpt lat="44.927356197328656" lon="9.615924472700875"><ele>134.0</ele><time>2026-03-28T10:21:47Z</time></trkpt><trkpt lat="44.92723050417238" lon="9.615721931781348"><ele>134.0</ele><time>2026-03-28T10:21:48Z</time></trkpt><trkpt lat="44.92710148210283" lon="9.615518991323075"><ele>134.0</ele><time>2026-03-28T10:21:49Z</time></trkpt><trkpt lat="44.92696215065208" lon="9.615324584690734"><ele>134.0</ele><time>2026-03-28T10:21:50Z</time></trkpt><trkpt lat="44.92681867462706" lon="9.61514765331991"><ele>134.0</ele><time>2026-03-28T10:21:51Z</time></trkpt><trkpt lat="44.92667945856616" lon="9.61496761235183"><ele>134.0</ele><time>2026-03-28T10:21:52Z</time></trkpt><trkpt lat="44.92653297871646" lon="9.614807332573873"><ele>134.0</ele><time>2026-03-28T10:21:53Z</time></trkpt><trkpt lat="44.92638837135931" lon="9.614664118037025"><ele>134.0</ele><time>2026-03-28T10:21:54Z</time></trkpt><trkpt lat="44.926245658970196" lon="9.614526286719464"><ele>134.0</ele><time>2026-03-28T10:21:55Z</time></trkpt><trkpt lat="44.92609455917283" lon="9.61438514097873"><ele>134.0</ele><time>2026-03-28T10:21:56Z</time></trkpt><trkpt lat="44.925937944943385" lon="9.614245956490484"><ele>134.0</ele><time>2026-03-28T10:21:57Z</time></trkpt><trkpt lat="44.925776906147185" lon="9.614104785361004"><ele>134.0</ele><time>2026-03-28T10:21:58Z</time></trkpt><trkpt lat="44.925613082991724" lon="9.61396131491499"><ele>134.0</ele><time>2026-03-28T10:21:59Z</time></trkpt><trkpt lat="44.92544916583" lon="9.613817761814252"><ele>134.0</ele><time>2026-03-28T10:22:00Z</time></trkpt><trkpt lat="44.925284532982616" lon="9.613673583660724"><ele>133.66666666666666</ele><time>2026-03-28T10:22:01Z</time></trkpt><trkpt lat="44.92511963478149" lon="9.613529171391395"><ele>133.33333333333334</ele><time>2026-03-28T10:22:02Z</time></trkpt><trkpt lat="44.92495582100023" lon="9.613384617323375"><ele>133.0</ele><time>2026-03-28T10:22:03Z</time></trkpt><trkpt lat="44.92479121579719" lon="9.613238031126174"><ele>133.0</ele><time>2026-03-28T10:22:04Z</time></trkpt><trkpt lat="44.92462820222008" lon="9.613092681932267"><ele>133.0</ele><time>2026-03-28T10:22:05Z</time></trkpt><trkpt lat="44.92446328971232" lon="9.612945108363153"><ele>133.0</ele><time>2026-03-28T10:22:06Z</time></trkpt><trkpt lat="44.92430070849464" lon="9.612800764318283"><ele>132.33333333333334</ele><time>2026-03-28T10:22:06.999Z</time></trkpt><trkpt lat="44.92413594947477" lon="9.612654486785557"><ele>131.66666666666666</ele><time>2026-03-28T10:22:07.999Z</time></trkpt><trkpt lat="44.923971048284756" lon="9.612510251906272"><ele>131.0</ele><time>2026-03-28T10:22:08.999Z</time></trkpt><trkpt lat="44.923805993730284" lon="9.612366616254844"><ele>131.0</ele><time>2026-03-28T10:22:09.999Z</time></trkpt><trkpt lat="44.9236394891195" lon="9.612224754702027"><ele>131.0</ele><time>2026-03-28T10:22:10.999Z</time></trkpt><trkpt lat="44.92347631464612" lon="9.612079990605148"><ele>131.0</ele><time>2026-03-28T10:22:11.999Z</time></trkpt><trkpt lat="44.923316690185004" lon="9.611929759386753"><ele>131.66666666666666</ele><time>2026-03-28T10:22:12.999Z</time></trkpt><trkpt lat="44.92315685691453" lon="9.611775600277461"><ele>132.33333333333334</ele><time>2026-03-28T10:22:13.999Z</time></trkpt><trkpt lat="44.922999919937354" lon="9.611616892160189"><ele>133.0</ele><time>2026-03-28T10:22:14.999Z</time></trkpt><trkpt lat="44.92284673668467" lon="9.611452256172177"><ele>133.0</ele><time>2026-03-28T10:22:15.999Z</time></trkpt><trkpt lat="44.9226939740075" lon="9.611283233372985"><ele>133.0</ele><time>2026-03-28T10:22:16.999Z</time></trkpt><trkpt lat="44.9225414852133" lon="9.611114459850242"><ele>133.0</ele><time>2026-03-28T10:22:17.999Z</time></trkpt><trkpt lat="44.92238989291719" lon="9.610946678555496"><ele>132.33333333333334</ele><time>2026-03-28T10:22:18.999Z</time></trkpt><trkpt lat="44.92223742136327" lon="9.610777924115004"><ele>131.66666666666666</ele><time>2026-03-28T10:22:19.999Z</time></trkpt><trkpt lat="44.92208456989256" lon="9.610608749153135"><ele>131.0</ele><time>2026-03-28T10:22:20.999Z</time></trkpt><trkpt lat="44.92193369854513" lon="9.610441765802166"><ele>131.0</ele><time>2026-03-28T10:22:21.999Z</time></trkpt><trkpt lat="44.92178682982044" lon="9.610280383010277"><ele>131.0</ele><time>2026-03-28T10:22:22.999Z</time></trkpt><trkpt lat="44.92164330251012" lon="9.610122951353173"><ele>131.0</ele><time>2026-03-28T10:22:23.999Z</time></trkpt><trkpt lat="44.921504577827505" lon="9.609968982870145"><ele>131.33333333333331</ele><time>2026-03-28T10:22:24.999Z</time></trkpt><trkpt lat="44.92136651326649" lon="9.609816694373734"><ele>131.66666666666666</ele><time>2026-03-28T10:22:25.999Z</time></trkpt><trkpt lat="44.92122793441902" lon="9.609663869617256"><ele>132.0</ele><time>2026-03-28T10:22:26.999Z</time></trkpt><trkpt lat="44.92108917946765" lon="9.609508674513988"><ele>131.66666666666666</ele><time>2026-03-28T10:22:27.999Z</time></trkpt><trkpt lat="44.9209538153915" lon="9.609355023322804"><ele>131.33333333333331</ele><time>2026-03-28T10:22:28.999Z</time></trkpt><trkpt lat="44.920817643861184" lon="9.609206717325208"><ele>131.0</ele><time>2026-03-28T10:22:29.999Z</time></trkpt><trkpt lat="44.92068079530415" lon="9.609060037820667"><ele>131.66666666666666</ele><time>2026-03-28T10:22:30.999Z</time></trkpt><trkpt lat="44.92053788378234" lon="9.608925540673814"><ele>132.33333333333334</ele><time>2026-03-28T10:22:31.999Z</time></trkpt><trkpt lat="44.9204052156036" lon="9.60878551848366"><ele>133.0</ele><time>2026-03-28T10:22:32.999Z</time></trkpt><trkpt lat="44.920274711956424" lon="9.608652748380756"><ele>133.0</ele><time>2026-03-28T10:22:33.999Z</time></trkpt><trkpt lat="44.92014506890752" lon="9.608532213065924"><ele>133.0</ele><time>2026-03-28T10:22:34.999Z</time></trkpt><trkpt lat="44.92002010807848" lon="9.60842713428047"><ele>133.0</ele><time>2026-03-28T10:22:35.999Z</time></trkpt><trkpt lat="44.919903064519765" lon="9.608308642171602"><ele>133.0</ele><time>2026-03-28T10:22:36.999Z</time></trkpt><trkpt lat="44.91978295148352" lon="9.608218135026643"><ele>133.5</ele><time>2026-03-28T10:22:37.999Z</time></trkpt><trkpt lat="44.9196662704319" lon="9.608135544567387"><ele>134.0</ele><time>2026-03-28T10:22:38.999Z</time></trkpt><trkpt lat="44.919549343719545" lon="9.608055860507044"><ele>134.5</ele><time>2026-03-28T10:22:39.999Z</time></trkpt><trkpt lat="44.91943044794039" lon="9.607975423352926"><ele>135.0</ele><time>2026-03-28T10:22:40.999Z</time></trkpt><trkpt lat="44.91930996023564" lon="9.607894788917601"><ele>135.25</ele><time>2026-03-28T10:22:41.999Z</time></trkpt><trkpt lat="44.91919084433648" lon="9.607816250578903"><ele>135.5</ele><time>2026-03-28T10:22:42.999Z</time></trkpt><trkpt lat="44.919076971861074" lon="9.60774116939278"><ele>135.75</ele><time>2026-03-28T10:22:43.999Z</time></trkpt><trkpt lat="44.91896709976239" lon="9.60766868175423"><ele>136.0</ele><time>2026-03-28T10:22:44.999Z</time></trkpt><trkpt lat="44.918834420465174" lon="9.607632448161782"><ele>136.0</ele><time>2026-03-28T10:22:45.999Z</time></trkpt><trkpt lat="44.918703201419376" lon="9.607554879544995"><ele>136.0</ele><time>2026-03-28T10:22:46.999Z</time></trkpt><trkpt lat="44.918567231973505" lon="9.607465170855399"><ele>136.0</ele><time>2026-03-28T10:22:47.999Z</time></trkpt><trkpt lat="44.91842313311251" lon="9.6073723342333"><ele>137.0</ele><time>2026-03-28T10:22:48.999Z</time></trkpt><trkpt lat="44.91828450481746" lon="9.607224182248876"><ele>138.0</ele><time>2026-03-28T10:22:49.999Z</time></trkpt><trkpt lat="44.918122163915925" lon="9.607114416397152"><ele>139.0</ele><time>2026-03-28T10:22:50.999Z</time></trkpt><trkpt lat="44.91795579907178" lon="9.607003440910624"><ele>138.66666666666669</ele><time>2026-03-28T10:22:51.999Z</time></trkpt><trkpt lat="44.917790361664714" lon="9.60688066134485"><ele>138.33333333333334</ele><time>2026-03-28T10:22:52.999Z</time></trkpt><trkpt lat="44.91763049017964" lon="9.606751980784757"><ele>138.0</ele><time>2026-03-28T10:22:53.999Z</time></trkpt><trkpt lat="44.917476579379475" lon="9.60660927610414"><ele>139.0</ele><time>2026-03-28T10:22:54.999Z</time></trkpt><trkpt lat="44.91732174939759" lon="9.60647796690383"><ele>140.0</ele><time>2026-03-28T10:22:55.999Z</time></trkpt><trkpt lat="44.91719074488898" lon="9.606331679397924"><ele>141.0</ele><time>2026-03-28T10:22:56.999Z</time></trkpt><trkpt lat="44.917074803372216" lon="9.606192577541009"><ele>141.0</ele><time>2026-03-28T10:22:57.999Z</time></trkpt><trkpt lat="44.91695851621036" lon="9.60606178181183"><ele>141.0</ele><time>2026-03-28T10:22:58.999Z</time></trkpt><trkpt lat="44.9168374288833" lon="9.605931543049033"><ele>141.0</ele><time>2026-03-28T10:22:59.999Z</time></trkpt><trkpt lat="44.91671313445626" lon="9.605809956278284"><ele>141.0</ele><time>2026-03-28T10:23:00.999Z</time></trkpt><trkpt lat="44.916591225625815" lon="9.605679521054114"><ele>141.0</ele><time>2026-03-28T10:23:01.999Z</time></trkpt><trkpt lat="44.9164751772097" lon="9.605537122415646"><ele>141.0</ele><time>2026-03-28T10:23:02.999Z</time></trkpt><trkpt lat="44.91636315824497" lon="9.605386046006531"><ele>141.0</ele><time>2026-03-28T10:23:03.999Z</time></trkpt><trkpt lat="44.91625651467797" lon="9.605227873655167"><ele>141.0</ele><time>2026-03-28T10:23:04.999Z</time></trkpt><trkpt lat="44.91615576014011" lon="9.605066455846426"><ele>141.0</ele><time>2026-03-28T10:23:05.999Z</time></trkpt><trkpt lat="44.91605935916308" lon="9.604896679815923"><ele>141.0</ele><time>2026-03-28T10:23:06.999Z</time></trkpt><trkpt lat="44.915968102683095" lon="9.604720837572355"><ele>141.0</ele><time>2026-03-28T10:23:08Z</time></trkpt><trkpt lat="44.91588518751149" lon="9.604540412708742"><ele>141.0</ele><time>2026-03-28T10:23:09Z</time></trkpt><trkpt lat="44.915807194123" lon="9.604354061792591"><ele>141.66666666666666</ele><time>2026-03-28T10:23:10Z</time></trkpt><trkpt lat="44.9157302183691" lon="9.604162544906998"><ele>142.33333333333331</ele><time>2026-03-28T10:23:11Z</time></trkpt><trkpt lat="44.91564990773896" lon="9.60396695690968"><ele>143.0</ele><time>2026-03-28T10:23:12Z</time></trkpt><trkpt lat="44.91557054864148" lon="9.6037634736915"><ele>142.33333333333331</ele><time>2026-03-28T10:23:13Z</time></trkpt><trkpt lat="44.915487123265834" lon="9.603554433507332"><ele>141.66666666666666</ele><time>2026-03-28T10:23:14Z</time></trkpt><trkpt lat="44.91539897902944" lon="9.603341199645998"><ele>141.0</ele><time>2026-03-28T10:23:15Z</time></trkpt><trkpt lat="44.91530786913391" lon="9.603121558906446"><ele>141.0</ele><time>2026-03-28T10:23:16Z</time></trkpt><trkpt lat="44.915216553092776" lon="9.60289130107268"><ele>141.0</ele><time>2026-03-28T10:23:17Z</time></trkpt><trkpt lat="44.9151278094253" lon="9.602650040255162"><ele>141.0</ele><time>2026-03-28T10:23:18Z</time></trkpt><trkpt lat="44.9150378603422" lon="9.602407410958005"><ele>139.66666666666666</ele><time>2026-03-28T10:23:19Z</time></trkpt><trkpt lat="44.914940759061864" lon="9.602160294135494"><ele>138.33333333333331</ele><time>2026-03-28T10:23:20Z</time></trkpt><trkpt lat="44.914840294516054" lon="9.601913154160965"><ele>137.0</ele><time>2026-03-28T10:23:21Z</time></trkpt><trkpt lat="44.91474238586104" lon="9.60167056949532"><ele>136.33333333333331</ele><time>2026-03-28T10:23:22Z</time></trkpt><trkpt lat="44.91464482923696" lon="9.6014279790803"><ele>135.66666666666666</ele><time>2026-03-28T10:23:23Z</time></trkpt><trkpt lat="44.9145506318519" lon="9.601181043655506"><ele>135.0</ele><time>2026-03-28T10:23:24Z</time></trkpt><trkpt lat="44.91445176131251" lon="9.600938559025458"><ele>134.66666666666666</ele><time>2026-03-28T10:23:25Z</time></trkpt><trkpt lat="44.914353565741976" lon="9.600696117621604"><ele>134.33333333333331</ele><time>2026-03-28T10:23:26Z</time></trkpt><trkpt lat="44.91425445961112" lon="9.600452571526512"><ele>134.0</ele><time>2026-03-28T10:23:27Z</time></trkpt><trkpt lat="44.91415711306404" lon="9.600208917310695"><ele>134.66666666666666</ele><time>2026-03-28T10:23:28Z</time></trkpt><trkpt lat="44.91405987576278" lon="9.599965599715496"><ele>135.33333333333334</ele><time>2026-03-28T10:23:29Z</time></trkpt><trkpt lat="44.913962261803974" lon="9.599724216398132"><ele>136.0</ele><time>2026-03-28T10:23:30Z</time></trkpt><trkpt lat="44.91386427370292" lon="9.599482754380631"><ele>136.33333333333334</ele><time>2026-03-28T10:23:31Z</time></trkpt><trkpt lat="44.91376739651971" lon="9.599245876083275"><ele>136.66666666666666</ele><time>2026-03-28T10:23:32Z</time></trkpt><trkpt lat="44.91368106282446" lon="9.59902472319218"><ele>137.0</ele><time>2026-03-28T10:23:33Z</time></trkpt><trkpt lat="44.91360094643282" lon="9.59881384663309"><ele>137.33333333333331</ele><time>2026-03-28T10:23:34Z</time></trkpt><trkpt lat="44.91352509106025" lon="9.59861318818458"><ele>137.66666666666666</ele><time>2026-03-28T10:23:35Z</time></trkpt><trkpt lat="44.91345018397578" lon="9.598424608981183"><ele>138.0</ele><time>2026-03-28T10:23:36Z</time></trkpt><trkpt lat="44.91337685716272" lon="9.598246225656956"><ele>138.0</ele><time>2026-03-28T10:23:37Z</time></trkpt><trkpt lat="44.913305975600686" lon="9.59807641188586"><ele>138.0</ele><time>2026-03-28T10:23:38Z</time></trkpt><trkpt lat="44.91323451131825" lon="9.597902388958437"><ele>138.0</ele><time>2026-03-28T10:23:39Z</time></trkpt><trkpt lat="44.91316299053709" lon="9.597727193148511"><ele>138.0</ele><time>2026-03-28T10:23:40Z</time></trkpt><trkpt lat="44.913091287762605" lon="9.59754822521578"><ele>138.0</ele><time>2026-03-28T10:23:41Z</time></trkpt><trkpt lat="44.91301645932842" lon="9.597372219046738"><ele>138.0</ele><time>2026-03-28T10:23:42Z</time></trkpt><trkpt lat="44.91293222842624" lon="9.59720595348731"><ele>138.0</ele><time>2026-03-28T10:23:43Z</time></trkpt><trkpt lat="44.91283463398265" lon="9.597055991584382"><ele>138.0</ele><time>2026-03-28T10:23:44Z</time></trkpt><trkpt lat="44.91272982976317" lon="9.596914821928138"><ele>138.0</ele><time>2026-03-28T10:23:45Z</time></trkpt><trkpt lat="44.91261670330256" lon="9.596783742507467"><ele>138.0</ele><time>2026-03-28T10:23:46Z</time></trkpt><trkpt lat="44.91249779225821" lon="9.596665585315689"><ele>138.0</ele><time>2026-03-28T10:23:47Z</time></trkpt><trkpt lat="44.91237338281563" lon="9.59656199949137"><ele>138.0</ele><time>2026-03-28T10:23:48Z</time></trkpt><trkpt lat="44.912250292055944" lon="9.596472504839937"><ele>138.25</ele><time>2026-03-28T10:23:49Z</time></trkpt><trkpt lat="44.9121316888347" lon="9.59639248140915"><ele>138.5</ele><time>2026-03-28T10:23:50Z</time></trkpt><trkpt lat="44.91201229195781" lon="9.596319385918756"><ele>138.75</ele><time>2026-03-28T10:23:51Z</time></trkpt><trkpt lat="44.91188976287384" lon="9.596247440662355"><ele>139.0</ele><time>2026-03-28T10:23:52Z</time></trkpt><trkpt lat="44.91175517273888" lon="9.596177538896649"><ele>136.66666666666669</ele><time>2026-03-28T10:23:53Z</time></trkpt><trkpt lat="44.911616133178995" lon="9.59610626233829"><ele>134.33333333333334</ele><time>2026-03-28T10:23:54Z</time></trkpt><trkpt lat="44.91147107861005" lon="9.596040952303007"><ele>132.0</ele><time>2026-03-28T10:23:55Z</time></trkpt><trkpt lat="44.91132743920976" lon="9.595947392837934"><ele>132.0</ele><time>2026-03-28T10:23:56Z</time></trkpt><trkpt lat="44.9111765582356" lon="9.595868784218956"><ele>132.0</ele><time>2026-03-28T10:23:57Z</time></trkpt><trkpt lat="44.9110224456547" lon="9.59581368444849"><ele>132.0</ele><time>2026-03-28T10:23:58Z</time></trkpt><trkpt lat="44.91088297617382" lon="9.595737077383314"><ele>132.75</ele><time>2026-03-28T10:23:59Z</time></trkpt><trkpt lat="44.91074896228108" lon="9.595667988274528"><ele>133.5</ele><time>2026-03-28T10:24:00Z</time></trkpt><trkpt lat="44.91062231190532" lon="9.59557367890498"><ele>134.25</ele><time>2026-03-28T10:24:01Z</time></trkpt><trkpt lat="44.910492802731504" lon="9.595493737395811"><ele>135.0</ele><time>2026-03-28T10:24:02Z</time></trkpt><trkpt lat="44.91035450130944" lon="9.595422496323765"><ele>134.25</ele><time>2026-03-28T10:24:03Z</time></trkpt><trkpt lat="44.910233245819335" lon="9.595308599037548"><ele>133.5</ele><time>2026-03-28T10:24:04Z</time></trkpt><trkpt lat="44.91011063944806" lon="9.595182297595628"><ele>132.75</ele><time>2026-03-28T10:24:05Z</time></trkpt><trkpt lat="44.909993184642055" lon="9.595045828748168"><ele>132.0</ele><time>2026-03-28T10:24:06Z</time></trkpt><trkpt lat="44.90988411281872" lon="9.594896327602095"><ele>132.0</ele><time>2026-03-28T10:24:07Z</time></trkpt><trkpt lat="44.90977972983942" lon="9.59474344529516"><ele>132.0</ele><time>2026-03-28T10:24:08Z</time></trkpt><trkpt lat="44.90967839361369" lon="9.59458672838468"><ele>132.0</ele><time>2026-03-28T10:24:09Z</time></trkpt><trkpt lat="44.90957775535948" lon="9.594431798064477"><ele>131.66666666666666</ele><time>2026-03-28T10:24:10Z</time></trkpt><trkpt lat="44.90947736169601" lon="9.59427550651038"><ele>131.33333333333331</ele><time>2026-03-28T10:24:11Z</time></trkpt><trkpt lat="44.90937647326729" lon="9.594115680588503"><ele>131.0</ele><time>2026-03-28T10:24:12Z</time></trkpt><trkpt lat="44.909272345672875" lon="9.593952896927693"><ele>132.0</ele><time>2026-03-28T10:24:13Z</time></trkpt><trkpt lat="44.90916557618367" lon="9.593791941349068"><ele>133.0</ele><time>2026-03-28T10:24:14Z</time></trkpt><trkpt lat="44.90905883556478" lon="9.593628970354052"><ele>134.0</ele><time>2026-03-28T10:24:15Z</time></trkpt><trkpt lat="44.90895215138301" lon="9.593462557971558"><ele>134.0</ele><time>2026-03-28T10:24:16Z</time></trkpt><trkpt lat="44.90884430885729" lon="9.593295710499682"><ele>134.0</ele><time>2026-03-28T10:24:16.999Z</time></trkpt><trkpt lat="44.908737489123965" lon="9.593125957207956"><ele>134.0</ele><time>2026-03-28T10:24:17.999Z</time></trkpt><trkpt lat="44.908629313123214" lon="9.592961035989276"><ele>134.0</ele><time>2026-03-28T10:24:18.999Z</time></trkpt><trkpt lat="44.90851859948093" lon="9.592797535164022"><ele>134.0</ele><time>2026-03-28T10:24:19.999Z</time></trkpt><trkpt lat="44.90840335399791" lon="9.592646949448744"><ele>134.0</ele><time>2026-03-28T10:24:20.999Z</time></trkpt><trkpt lat="44.90828144609938" lon="9.592505901554611"><ele>134.0</ele><time>2026-03-28T10:24:21.999Z</time></trkpt><trkpt lat="44.90814519188279" lon="9.592385881240952"><ele>134.0</ele><time>2026-03-28T10:24:22.999Z</time></trkpt><trkpt lat="44.9080087190632" lon="9.592271013130144"><ele>134.0</ele><time>2026-03-28T10:24:23.999Z</time></trkpt><trkpt lat="44.907866560844916" lon="9.592152677681947"><ele>134.0</ele><time>2026-03-28T10:24:24.999Z</time></trkpt><trkpt lat="44.90772018662649" lon="9.592032551987566"><ele>134.0</ele><time>2026-03-28T10:24:25.999Z</time></trkpt><trkpt lat="44.90757376931792" lon="9.591913236003428"><ele>134.0</ele><time>2026-03-28T10:24:26.999Z</time></trkpt><trkpt lat="44.90742525185606" lon="9.591796397496884"><ele>134.33333333333331</ele><time>2026-03-28T10:24:27.999Z</time></trkpt><trkpt lat="44.90727851279573" lon="9.591679678093763"><ele>134.66666666666666</ele><time>2026-03-28T10:24:28.999Z</time></trkpt><trkpt lat="44.90714011450822" lon="9.591539014786871"><ele>135.0</ele><time>2026-03-28T10:24:29.999Z</time></trkpt><trkpt lat="44.90699462509631" lon="9.591418798596074"><ele>135.0</ele><time>2026-03-28T10:24:30.999Z</time></trkpt><trkpt lat="44.90683983250884" lon="9.59131713599016"><ele>135.0</ele><time>2026-03-28T10:24:31.999Z</time></trkpt><trkpt lat="44.90669255559726" lon="9.591195122066003"><ele>135.0</ele><time>2026-03-28T10:24:32.999Z</time></trkpt><trkpt lat="44.90654743703038" lon="9.59107392833171"><ele>136.66666666666666</ele><time>2026-03-28T10:24:33.999Z</time></trkpt><trkpt lat="44.9064010696994" lon="9.590956819108577"><ele>138.33333333333331</ele><time>2026-03-28T10:24:34.999Z</time></trkpt><trkpt lat="44.90625506422906" lon="9.590835017394745"><ele>140.0</ele><time>2026-03-28T10:24:35.999Z</time></trkpt><trkpt lat="44.90611703510101" lon="9.590693541387902"><ele>140.0</ele><time>2026-03-28T10:24:36.999Z</time></trkpt><trkpt lat="44.905969613605514" lon="9.590571769036625"><ele>140.0</ele><time>2026-03-28T10:24:37.999Z</time></trkpt><trkpt lat="44.905824645030386" lon="9.590452021159578"><ele>140.0</ele><time>2026-03-28T10:24:38.999Z</time></trkpt><trkpt lat="44.905679756558804" lon="9.590332339463233"><ele>140.0</ele><time>2026-03-28T10:24:39.999Z</time></trkpt><trkpt lat="44.905534225488225" lon="9.590212259162943"><ele>140.0</ele><time>2026-03-28T10:24:40.999Z</time></trkpt><trkpt lat="44.90538752202395" lon="9.59009143614079"><ele>140.0</ele><time>2026-03-28T10:24:41.999Z</time></trkpt><trkpt lat="44.905240979838645" lon="9.589970745942363"><ele>140.0</ele><time>2026-03-28T10:24:42.999Z</time></trkpt><trkpt lat="44.90509376880972" lon="9.58984950489511"><ele>140.0</ele><time>2026-03-28T10:24:43.999Z</time></trkpt><trkpt lat="44.90494767761453" lon="9.589729501669773"><ele>140.0</ele><time>2026-03-28T10:24:44.999Z</time></trkpt><trkpt lat="44.904801101534304" lon="9.589609145691606"><ele>140.33333333333331</ele><time>2026-03-28T10:24:45.999Z</time></trkpt><trkpt lat="44.90465470043802" lon="9.589489202364513"><ele>140.66666666666666</ele><time>2026-03-28T10:24:46.999Z</time></trkpt><trkpt lat="44.90450799618062" lon="9.58936918359668"><ele>141.0</ele><time>2026-03-28T10:24:47.999Z</time></trkpt><trkpt lat="44.904352134303814" lon="9.589267174271665"><ele>144.66666666666666</ele><time>2026-03-28T10:24:48.999Z</time></trkpt><trkpt lat="44.904204789742735" lon="9.589146433494019"><ele>148.33333333333331</ele><time>2026-03-28T10:24:49.999Z</time></trkpt><trkpt lat="44.90406729237961" lon="9.589008567819162"><ele>152.0</ele><time>2026-03-28T10:24:50.999Z</time></trkpt><trkpt lat="44.90391966652737" lon="9.588887885578808"><ele>152.0</ele><time>2026-03-28T10:24:51.999Z</time></trkpt><trkpt lat="44.90377337657625" lon="9.588768295396878"><ele>152.0</ele><time>2026-03-28T10:24:52.999Z</time></trkpt><trkpt lat="44.903625988340174" lon="9.588647807400369"><ele>152.0</ele><time>2026-03-28T10:24:53.999Z</time></trkpt><trkpt lat="44.90347689735427" lon="9.588526137713894"><ele>152.0</ele><time>2026-03-28T10:24:54.999Z</time></trkpt><trkpt lat="44.90332896026704" lon="9.588405692867715"><ele>152.0</ele><time>2026-03-28T10:24:55.999Z</time></trkpt><trkpt lat="44.9031867994281" lon="9.588290474113986"><ele>152.0</ele><time>2026-03-28T10:24:56.999Z</time></trkpt><trkpt lat="44.903059151761624" lon="9.588187321135338"><ele>152.0</ele><time>2026-03-28T10:24:57.999Z</time></trkpt><trkpt lat="44.90293872350627" lon="9.588088696999675"><ele>152.0</ele><time>2026-03-28T10:24:58.999Z</time></trkpt><trkpt lat="44.90281386425497" lon="9.588007679240828"><ele>152.0</ele><time>2026-03-28T10:24:59.999Z</time></trkpt><trkpt lat="44.902702543644054" lon="9.587908820026044"><ele>152.0</ele><time>2026-03-28T10:25:00.999Z</time></trkpt><trkpt lat="44.90260529629425" lon="9.587817394906857"><ele>153.75</ele><time>2026-03-28T10:25:01.999Z</time></trkpt><trkpt lat="44.90250925598352" lon="9.587736964739667"><ele>155.5</ele><time>2026-03-28T10:25:02.999Z</time></trkpt><trkpt lat="44.90241743383689" lon="9.587651880926089"><ele>157.25</ele><time>2026-03-28T10:25:03.999Z</time></trkpt><trkpt lat="44.902313773453336" lon="9.587570576272563"><ele>159.0</ele><time>2026-03-28T10:25:04.999Z</time></trkpt><trkpt lat="44.90221280658266" lon="9.587477251100873"><ele>159.0</ele><time>2026-03-28T10:25:05.999Z</time></trkpt><trkpt lat="44.90210806786821" lon="9.587383456596735"><ele>159.0</ele><time>2026-03-28T10:25:06.999Z</time></trkpt><trkpt lat="44.90199771451894" lon="9.58728612245035"><ele>159.0</ele><time>2026-03-28T10:25:07.999Z</time></trkpt><trkpt lat="44.901880573845894" lon="9.587190406472558"><ele>159.0</ele><time>2026-03-28T10:25:08.999Z</time></trkpt><trkpt lat="44.90175774556969" lon="9.587086366129045"><ele>159.0</ele><time>2026-03-28T10:25:09.999Z</time></trkpt><trkpt lat="44.901627947328166" lon="9.586978658451699"><ele>159.0</ele><time>2026-03-28T10:25:10.999Z</time></trkpt><trkpt lat="44.90149216995615" lon="9.586870131748567"><ele>159.0</ele><time>2026-03-28T10:25:11.999Z</time></trkpt><trkpt lat="44.90134432344473" lon="9.586757355157225"><ele>159.0</ele><time>2026-03-28T10:25:12.999Z</time></trkpt><trkpt lat="44.90119187189486" lon="9.586638771376535"><ele>159.0</ele><time>2026-03-28T10:25:14Z</time></trkpt><trkpt lat="44.90103130943871" lon="9.586522815427696"><ele>159.0</ele><time>2026-03-28T10:25:15Z</time></trkpt><trkpt lat="44.90085822060248" lon="9.586410568840403"><ele>157.66666666666666</ele><time>2026-03-28T10:25:16Z</time></trkpt><trkpt lat="44.90068853124439" lon="9.586310264258806"><ele>156.33333333333331</ele><time>2026-03-28T10:25:17Z</time></trkpt><trkpt lat="44.90053900451706" lon="9.58620129279686"><ele>155.0</ele><time>2026-03-28T10:25:18Z</time></trkpt><trkpt lat="44.90038219549777" lon="9.586138227978545"><ele>155.0</ele><time>2026-03-28T10:25:19Z</time></trkpt><trkpt lat="44.900220133677045" lon="9.586079402956459"><ele>155.0</ele><time>2026-03-28T10:25:20Z</time></trkpt><trkpt lat="44.90005549611106" lon="9.586020534169817"><ele>155.0</ele><time>2026-03-28T10:25:21Z</time></trkpt><trkpt lat="44.89988791964416" lon="9.585964189150971"><ele>157.66666666666666</ele><time>2026-03-28T10:25:22Z</time></trkpt><trkpt lat="44.8997204821222" lon="9.585912216278798"><ele>160.33333333333334</ele><time>2026-03-28T10:25:23Z</time></trkpt><trkpt lat="44.899552540135176" lon="9.585869173575079"><ele>163.0</ele><time>2026-03-28T10:25:24Z</time></trkpt><trkpt lat="44.899396726077946" lon="9.585823703123147"><ele>165.0</ele><time>2026-03-28T10:25:25Z</time></trkpt><trkpt lat="44.89924927354901" lon="9.585778229883399"><ele>167.0</ele><time>2026-03-28T10:25:26Z</time></trkpt><trkpt lat="44.899100517967334" lon="9.585727274033985"><ele>169.0</ele><time>2026-03-28T10:25:27Z</time></trkpt><trkpt lat="44.89895823791601" lon="9.58567773906868"><ele>169.0</ele><time>2026-03-28T10:25:28Z</time></trkpt><trkpt lat="44.89882701322814" lon="9.585630211017056"><ele>169.0</ele><time>2026-03-28T10:25:29Z</time></trkpt><trkpt lat="44.89869069054006" lon="9.58559400931681"><ele>169.0</ele><time>2026-03-28T10:25:30Z</time></trkpt><trkpt lat="44.898544042213" lon="9.585579377760759"><ele>169.0</ele><time>2026-03-28T10:25:31Z</time></trkpt><trkpt lat="44.89839175645768" lon="9.585600440523676"><ele>170.66666666666669</ele><time>2026-03-28T10:25:32Z</time></trkpt><trkpt lat="44.898238781624634" lon="9.58568931650455"><ele>172.33333333333334</ele><time>2026-03-28T10:25:33Z</time></trkpt><trkpt lat="44.898098972134626" lon="9.585785301968"><ele>174.0</ele><time>2026-03-28T10:25:34Z</time></trkpt><trkpt lat="44.89795815160673" lon="9.58585939992314"><ele>174.0</ele><time>2026-03-28T10:25:35Z</time></trkpt><trkpt lat="44.897816205716936" lon="9.585897757812003"><ele>174.0</ele><time>2026-03-28T10:25:36Z</time></trkpt><trkpt lat="44.89767489698139" lon="9.585887679357768"><ele>174.0</ele><time>2026-03-28T10:25:37Z</time></trkpt><trkpt lat="44.89753420802254" lon="9.585826861937313"><ele>174.0</ele><time>2026-03-28T10:25:38Z</time></trkpt><trkpt lat="44.897388574436654" lon="9.585746388233462"><ele>175.66666666666666</ele><time>2026-03-28T10:25:39Z</time></trkpt><trkpt lat="44.89723527591897" lon="9.585678898899177"><ele>177.33333333333331</ele><time>2026-03-28T10:25:40Z</time></trkpt><trkpt lat="44.89708803125694" lon="9.585575465784235"><ele>179.0</ele><time>2026-03-28T10:25:41Z</time></trkpt><trkpt lat="44.89692977987424" lon="9.585484415886212"><ele>179.0</ele><time>2026-03-28T10:25:42Z</time></trkpt><trkpt lat="44.89676653317536" lon="9.585389282966059"><ele>179.0</ele><time>2026-03-28T10:25:43Z</time></trkpt><trkpt lat="44.89660794538307" lon="9.585293158896762"><ele>179.0</ele><time>2026-03-28T10:25:44Z</time></trkpt><trkpt lat="44.896437427144654" lon="9.585186914808405"><ele>179.33333333333331</ele><time>2026-03-28T10:25:45Z</time></trkpt><trkpt lat="44.89625074736749" lon="9.585121022788506"><ele>179.66666666666666</ele><time>2026-03-28T10:25:46Z</time></trkpt><trkpt lat="44.89607157064215" lon="9.585069662421212"><ele>180.0</ele><time>2026-03-28T10:25:47Z</time></trkpt><trkpt lat="44.89588958965788" lon="9.585024790321992"><ele>180.0</ele><time>2026-03-28T10:25:48Z</time></trkpt><trkpt lat="44.89570499074431" lon="9.58499845115384"><ele>180.0</ele><time>2026-03-28T10:25:49Z</time></trkpt><trkpt lat="44.895514608100726" lon="9.585043962110298"><ele>180.0</ele><time>2026-03-28T10:25:50Z</time></trkpt><trkpt lat="44.895327679427425" lon="9.585094948771479"><ele>180.0</ele><time>2026-03-28T10:25:51Z</time></trkpt><trkpt lat="44.89513622258647" lon="9.585147170536592"><ele>180.0</ele><time>2026-03-28T10:25:52Z</time></trkpt><trkpt lat="44.89495045807346" lon="9.585194454506654"><ele>180.0</ele><time>2026-03-28T10:25:53Z</time></trkpt><trkpt lat="44.89476299386152" lon="9.58522826605798"><ele>181.0</ele><time>2026-03-28T10:25:54Z</time></trkpt><trkpt lat="44.894574582592995" lon="9.585241044345562"><ele>182.0</ele><time>2026-03-28T10:25:55Z</time></trkpt><trkpt lat="44.8943913321308" lon="9.585249630725105"><ele>183.0</ele><time>2026-03-28T10:25:56Z</time></trkpt><trkpt lat="44.89420084625954" lon="9.585255499834803"><ele>183.0</ele><time>2026-03-28T10:25:57Z</time></trkpt><trkpt lat="44.89401058634424" lon="9.585260841375314"><ele>183.0</ele><time>2026-03-28T10:25:58Z</time></trkpt><trkpt lat="44.893822500550485" lon="9.585266424886003"><ele>183.0</ele><time>2026-03-28T10:25:59Z</time></trkpt><trkpt lat="44.89363740291724" lon="9.585272017448318"><ele>183.0</ele><time>2026-03-28T10:26:00Z</time></trkpt><trkpt lat="44.893453727358974" lon="9.585277698378444"><ele>183.0</ele><time>2026-03-28T10:26:01Z</time></trkpt><trkpt lat="44.89326014184921" lon="9.585283685816707"><ele>183.0</ele><time>2026-03-28T10:26:02Z</time></trkpt><trkpt lat="44.893072334475455" lon="9.58528949454374"><ele>183.66666666666666</ele><time>2026-03-28T10:26:03Z</time></trkpt><trkpt lat="44.8928906949303" lon="9.585294978755352"><ele>184.33333333333331</ele><time>2026-03-28T10:26:04Z</time></trkpt><trkpt lat="44.892710874253844" lon="9.585300019383032"><ele>185.0</ele><time>2026-03-28T10:26:05Z</time></trkpt><trkpt lat="44.89253296240569" lon="9.58530500650283"><ele>187.0</ele><time>2026-03-28T10:26:06Z</time></trkpt><trkpt lat="44.892352229726626" lon="9.58531007269417"><ele>189.0</ele><time>2026-03-28T10:26:07Z</time></trkpt><trkpt lat="44.892170042153" lon="9.585315978074972"><ele>191.0</ele><time>2026-03-28T10:26:08Z</time></trkpt><trkpt lat="44.89198866389939" lon="9.585322078648932"><ele>191.0</ele><time>2026-03-28T10:26:09Z</time></trkpt><trkpt lat="44.891808229447435" lon="9.58532814747766"><ele>191.0</ele><time>2026-03-28T10:26:10Z</time></trkpt><trkpt lat="44.891635213356125" lon="9.585333966768479"><ele>191.0</ele><time>2026-03-28T10:26:11Z</time></trkpt><trkpt lat="44.89145148548403" lon="9.585342388186724"><ele>191.0</ele><time>2026-03-28T10:26:12Z</time></trkpt><trkpt lat="44.89126705526974" lon="9.585350163333423"><ele>191.0</ele><time>2026-03-28T10:26:13Z</time></trkpt><trkpt lat="44.891083193873605" lon="9.58535724332127"><ele>191.0</ele><time>2026-03-28T10:26:14Z</time></trkpt><trkpt lat="44.89090235214487" lon="9.585364380409638"><ele>191.0</ele><time>2026-03-28T10:26:14.999Z</time></trkpt><trkpt lat="44.89072421710266" lon="9.585374472173653"><ele>191.0</ele><time>2026-03-28T10:26:15.999Z</time></trkpt><trkpt lat="44.89054706388407" lon="9.58539175731699"><ele>191.0</ele><time>2026-03-28T10:26:16.999Z</time></trkpt><trkpt lat="44.89036780644776" lon="9.585421261587632"><ele>191.0</ele><time>2026-03-28T10:26:17.999Z</time></trkpt><trkpt lat="44.89020157249561" lon="9.58546789451961"><ele>191.0</ele><time>2026-03-28T10:26:18.999Z</time></trkpt><trkpt lat="44.890035456288075" lon="9.585526493052706"><ele>191.0</ele><time>2026-03-28T10:26:19.999Z</time></trkpt><trkpt lat="44.889870102728445" lon="9.585565143187592"><ele>191.66666666666666</ele><time>2026-03-28T10:26:20.999Z</time></trkpt><trkpt lat="44.889710050194985" lon="9.585572074538625"><ele>192.33333333333331</ele><time>2026-03-28T10:26:21.999Z</time></trkpt><trkpt lat="44.88956003684747" lon="9.585472743247077"><ele>193.0</ele><time>2026-03-28T10:26:22.999Z</time></trkpt><trkpt lat="44.88942324463397" lon="9.585338076689393"><ele>191.66666666666666</ele><time>2026-03-28T10:26:23.999Z</time></trkpt><trkpt lat="44.88929280997117" lon="9.585185807073154"><ele>190.33333333333331</ele><time>2026-03-28T10:26:24.999Z</time></trkpt><trkpt lat="44.88917594964818" lon="9.585003677146124"><ele>189.0</ele><time>2026-03-28T10:26:25.999Z</time></trkpt><trkpt lat="44.889072907855535" lon="9.584817471429034"><ele>189.0</ele><time>2026-03-28T10:26:26.999Z</time></trkpt><trkpt lat="44.888975430430676" lon="9.584626097921772"><ele>189.0</ele><time>2026-03-28T10:26:27.999Z</time></trkpt><trkpt lat="44.88887849679133" lon="9.584436408348674"><ele>189.0</ele><time>2026-03-28T10:26:28.999Z</time></trkpt><trkpt lat="44.88876135503392" lon="9.584270957367172"><ele>187.33333333333334</ele><time>2026-03-28T10:26:29.999Z</time></trkpt><trkpt lat="44.88862538386197" lon="9.584153689613615"><ele>185.66666666666669</ele><time>2026-03-28T10:26:30.999Z</time></trkpt><trkpt lat="44.88846696797725" lon="9.584101837194439"><ele>184.0</ele><time>2026-03-28T10:26:31.999Z</time></trkpt><trkpt lat="44.88831016413964" lon="9.584104745213843"><ele>184.0</ele><time>2026-03-28T10:26:32.999Z</time></trkpt><trkpt lat="44.88815167312313" lon="9.584108319439006"><ele>184.0</ele><time>2026-03-28T10:26:33.999Z</time></trkpt><trkpt lat="44.88799444842343" lon="9.584142370095686"><ele>184.0</ele><time>2026-03-28T10:26:34.999Z</time></trkpt><trkpt lat="44.8878487981507" lon="9.584147325499986"><ele>184.0</ele><time>2026-03-28T10:26:35.999Z</time></trkpt><trkpt lat="44.887708279629905" lon="9.584098865862257"><ele>184.0</ele><time>2026-03-28T10:26:36.999Z</time></trkpt><trkpt lat="44.887599866100395" lon="9.58396296175267"><ele>184.0</ele><time>2026-03-28T10:26:37.999Z</time></trkpt><trkpt lat="44.88750740278307" lon="9.583804606859538"><ele>184.0</ele><time>2026-03-28T10:26:38.999Z</time></trkpt><trkpt lat="44.88742118224018" lon="9.583643791714758"><ele>182.66666666666669</ele><time>2026-03-28T10:26:39.999Z</time></trkpt><trkpt lat="44.887316583852765" lon="9.58350072608325"><ele>181.33333333333334</ele><time>2026-03-28T10:26:40.999Z</time></trkpt><trkpt lat="44.88717701585499" lon="9.583404343311214"><ele>180.0</ele><time>2026-03-28T10:26:41.999Z</time></trkpt><trkpt lat="44.88703804547794" lon="9.58332868755676"><ele>180.0</ele><time>2026-03-28T10:26:42.999Z</time></trkpt><trkpt lat="44.88687190477634" lon="9.58332673268368"><ele>180.0</ele><time>2026-03-28T10:26:43.999Z</time></trkpt><trkpt lat="44.88671678086646" lon="9.583356877376414"><ele>180.0</ele><time>2026-03-28T10:26:44.999Z</time></trkpt><trkpt lat="44.88657520875911" lon="9.58338783034348"><ele>179.75</ele><time>2026-03-28T10:26:45.999Z</time></trkpt><trkpt lat="44.886433544947465" lon="9.583391211234488"><ele>179.5</ele><time>2026-03-28T10:26:46.999Z</time></trkpt><trkpt lat="44.88628958690342" lon="9.583347533671194"><ele>179.25</ele><time>2026-03-28T10:26:47.999Z</time></trkpt><trkpt lat="44.886172830252335" lon="9.583205907308422"><ele>179.0</ele><time>2026-03-28T10:26:48.999Z</time></trkpt><trkpt lat="44.88608463044707" lon="9.583022782740912"><ele>179.33333333333331</ele><time>2026-03-28T10:26:49.999Z</time></trkpt><trkpt lat="44.886003929502905" lon="9.582841567957013"><ele>179.66666666666666</ele><time>2026-03-28T10:26:50.999Z</time></trkpt><trkpt lat="44.88590881089202" lon="9.58267141611477"><ele>180.0</ele><time>2026-03-28T10:26:51.999Z</time></trkpt><trkpt lat="44.88582025006491" lon="9.582490347184992"><ele>180.0</ele><time>2026-03-28T10:26:52.999Z</time></trkpt><trkpt lat="44.885735711707376" lon="9.58230826926584"><ele>180.0</ele><time>2026-03-28T10:26:53.999Z</time></trkpt><trkpt lat="44.88564914807656" lon="9.582127747206373"><ele>180.0</ele><time>2026-03-28T10:26:54.999Z</time></trkpt><trkpt lat="44.88558124465768" lon="9.581928625717579"><ele>178.0</ele><time>2026-03-28T10:26:55.999Z</time></trkpt><trkpt lat="44.88554329257702" lon="9.581712919764447"><ele>176.0</ele><time>2026-03-28T10:26:56.999Z</time></trkpt><trkpt lat="44.885523423625266" lon="9.581490228218579"><ele>174.0</ele><time>2026-03-28T10:26:57.999Z</time></trkpt><trkpt lat="44.88551088246319" lon="9.5812669805288"><ele>173.33333333333334</ele><time>2026-03-28T10:26:58.999Z</time></trkpt><trkpt lat="44.88548843974979" lon="9.581039721390184"><ele>172.66666666666669</ele><time>2026-03-28T10:26:59.999Z</time></trkpt><trkpt lat="44.88544378939312" lon="9.580815007964272"><ele>172.0</ele><time>2026-03-28T10:27:00.999Z</time></trkpt><trkpt lat="44.885369886476084" lon="9.580607271286048"><ele>172.0</ele><time>2026-03-28T10:27:01.999Z</time></trkpt><trkpt lat="44.88528130642452" lon="9.580414274246777"><ele>172.0</ele><time>2026-03-28T10:27:02.999Z</time></trkpt><trkpt lat="44.885209672771595" lon="9.580211207125943"><ele>172.0</ele><time>2026-03-28T10:27:03.999Z</time></trkpt><trkpt lat="44.885134348491576" lon="9.580012318830208"><ele>173.75</ele><time>2026-03-28T10:27:04.999Z</time></trkpt><trkpt lat="44.88506905741069" lon="9.579818880171649"><ele>175.5</ele><time>2026-03-28T10:27:05.999Z</time></trkpt><trkpt lat="44.88503246777389" lon="9.579612589299936"><ele>177.25</ele><time>2026-03-28T10:27:06.999Z</time></trkpt><trkpt lat="44.88498907914488" lon="9.579414979188709"><ele>179.0</ele><time>2026-03-28T10:27:07.999Z</time></trkpt><trkpt lat="44.884945952495976" lon="9.579223304692139"><ele>179.0</ele><time>2026-03-28T10:27:08.999Z</time></trkpt><trkpt lat="44.88492068897804" lon="9.579037057917892"><ele>179.0</ele><time>2026-03-28T10:27:09.999Z</time></trkpt><trkpt lat="44.884888857159794" lon="9.578851142690006"><ele>179.0</ele><time>2026-03-28T10:27:10.999Z</time></trkpt><trkpt lat="44.88484903506527" lon="9.578656621799135"><ele>179.0</ele><time>2026-03-28T10:27:11.999Z</time></trkpt><trkpt lat="44.884812110976796" lon="9.578452968599263"><ele>178.33333333333331</ele><time>2026-03-28T10:27:12.999Z</time></trkpt><trkpt lat="44.88476983391369" lon="9.578244717753092"><ele>177.66666666666666</ele><time>2026-03-28T10:27:13.999Z</time></trkpt><trkpt lat="44.884739923858135" lon="9.578022992461753"><ele>177.0</ele><time>2026-03-28T10:27:14.999Z</time></trkpt><trkpt lat="44.88471569082909" lon="9.577799038788774"><ele>174.66666666666666</ele><time>2026-03-28T10:27:15.999Z</time></trkpt><trkpt lat="44.884698025890344" lon="9.577564720278044"><ele>172.33333333333331</ele><time>2026-03-28T10:27:16.999Z</time></trkpt><trkpt lat="44.884699018989224" lon="9.577336473061033"><ele>170.0</ele><time>2026-03-28T10:27:17.999Z</time></trkpt><trkpt lat="44.88468528746494" lon="9.577120879770717"><ele>168.75</ele><time>2026-03-28T10:27:18.999Z</time></trkpt><trkpt lat="44.88469193689922" lon="9.576917895142266"><ele>167.5</ele><time>2026-03-28T10:27:20Z</time></trkpt><trkpt lat="44.88469175908095" lon="9.576723299158335"><ele>166.25</ele><time>2026-03-28T10:27:21Z</time></trkpt><trkpt lat="44.88465629860627" lon="9.576541431089368"><ele>165.0</ele><time>2026-03-28T10:27:22Z</time></trkpt><trkpt lat="44.88459086628169" lon="9.576380937708683"><ele>165.0</ele><time>2026-03-28T10:27:23Z</time></trkpt><trkpt lat="44.88448876295549" lon="9.57626180793988"><ele>165.0</ele><time>2026-03-28T10:27:24Z</time></trkpt><trkpt lat="44.884377692372354" lon="9.576139399177153"><ele>165.0</ele><time>2026-03-28T10:27:25Z</time></trkpt><trkpt lat="44.884242097142106" lon="9.57605689312806"><ele>165.0</ele><time>2026-03-28T10:27:26Z</time></trkpt><trkpt lat="44.88411793308484" lon="9.57593050870225"><ele>165.5</ele><time>2026-03-28T10:27:27Z</time></trkpt><trkpt lat="44.883996747701524" lon="9.575802661227476"><ele>166.0</ele><time>2026-03-28T10:27:28Z</time></trkpt><trkpt lat="44.88389523791585" lon="9.575653724658128"><ele>166.5</ele><time>2026-03-28T10:27:29Z</time></trkpt><trkpt lat="44.88384901989332" lon="9.575463795068076"><ele>167.0</ele><time>2026-03-28T10:27:30Z</time></trkpt><trkpt lat="44.88383733313602" lon="9.575248220567364"><ele>167.0</ele><time>2026-03-28T10:27:31Z</time></trkpt><trkpt lat="44.88384046585767" lon="9.57502971995999"><ele>167.0</ele><time>2026-03-28T10:27:32Z</time></trkpt><trkpt lat="44.883849966766654" lon="9.57481146513413"><ele>167.0</ele><time>2026-03-28T10:27:33Z</time></trkpt><trkpt lat="44.88387609770257" lon="9.57460610429623"><ele>167.25</ele><time>2026-03-28T10:27:34Z</time></trkpt><trkpt lat="44.883910552791654" lon="9.574414177551244"><ele>167.5</ele><time>2026-03-28T10:27:35Z</time></trkpt><trkpt lat="44.88394067600154" lon="9.5742195233945"><ele>167.75</ele><time>2026-03-28T10:27:36Z</time></trkpt><trkpt lat="44.88395385738202" lon="9.574015376888639"><ele>168.0</ele><time>2026-03-28T10:27:37Z</time></trkpt><trkpt lat="44.883942038786174" lon="9.573803402683756"><ele>168.0</ele><time>2026-03-28T10:27:38Z</time></trkpt><trkpt lat="44.88390291215594" lon="9.573587966771731"><ele>168.0</ele><time>2026-03-28T10:27:39Z</time></trkpt><trkpt lat="44.883832846430714" lon="9.573382219747135"><ele>168.0</ele><time>2026-03-28T10:27:40Z</time></trkpt><trkpt lat="44.88375305324355" lon="9.573176289364788"><ele>168.0</ele><time>2026-03-28T10:27:41Z</time></trkpt><trkpt lat="44.88368848109625" lon="9.57295673790721"><ele>168.0</ele><time>2026-03-28T10:27:42Z</time></trkpt><trkpt lat="44.883606260832465" lon="9.572743319045248"><ele>168.0</ele><time>2026-03-28T10:27:43Z</time></trkpt><trkpt lat="44.88352259138998" lon="9.572518618593419"><ele>168.33333333333334</ele><time>2026-03-28T10:27:44Z</time></trkpt><trkpt lat="44.883456865600394" lon="9.57227975005774"><ele>168.66666666666669</ele><time>2026-03-28T10:27:45Z</time></trkpt><trkpt lat="44.88336712995061" lon="9.572058192586736"><ele>169.0</ele><time>2026-03-28T10:27:46Z</time></trkpt><trkpt lat="44.883279849939534" lon="9.571830468984682"><ele>169.0</ele><time>2026-03-28T10:27:47Z</time></trkpt><trkpt lat="44.883212655896656" lon="9.57159323372241"><ele>169.0</ele><time>2026-03-28T10:27:48Z</time></trkpt><trkpt lat="44.88312337854248" lon="9.571371003689714"><ele>169.0</ele><time>2026-03-28T10:27:49Z</time></trkpt><trkpt lat="44.88304490109127" lon="9.571138551763564"><ele>167.66666666666669</ele><time>2026-03-28T10:27:50Z</time></trkpt><trkpt lat="44.88297009526093" lon="9.570905928374037"><ele>166.33333333333334</ele><time>2026-03-28T10:27:51Z</time></trkpt><trkpt lat="44.88287737140005" lon="9.570685076547353"><ele>165.0</ele><time>2026-03-28T10:27:52Z</time></trkpt><trkpt lat="44.88279959869646" lon="9.570450358737865"><ele>164.33333333333334</ele><time>2026-03-28T10:27:53Z</time></trkpt><trkpt lat="44.882735993390014" lon="9.570213851387726"><ele>163.66666666666669</ele><time>2026-03-28T10:27:54Z</time></trkpt><trkpt lat="44.88264221716391" lon="9.5699944973652"><ele>163.0</ele><time>2026-03-28T10:27:55Z</time></trkpt><trkpt lat="44.88256130957701" lon="9.569763019720938"><ele>165.66666666666669</ele><time>2026-03-28T10:27:56Z</time></trkpt><trkpt lat="44.88249648563739" lon="9.569522783208646"><ele>168.33333333333334</ele><time>2026-03-28T10:27:57Z</time></trkpt><trkpt lat="44.88240566342637" lon="9.56929926763372"><ele>171.0</ele><time>2026-03-28T10:27:58Z</time></trkpt><trkpt lat="44.88231564983421" lon="9.569075682747346"><ele>171.0</ele><time>2026-03-28T10:27:59Z</time></trkpt><trkpt lat="44.88224996236574" lon="9.56883727126129"><ele>171.0</ele><time>2026-03-28T10:28:00Z</time></trkpt><trkpt lat="44.882167431444515" lon="9.56860712382661"><ele>171.0</ele><time>2026-03-28T10:28:01Z</time></trkpt><trkpt lat="44.88207931355512" lon="9.568379389000825"><ele>169.66666666666666</ele><time>2026-03-28T10:28:02Z</time></trkpt><trkpt lat="44.88200086307811" lon="9.568144961469189"><ele>168.33333333333331</ele><time>2026-03-28T10:28:03Z</time></trkpt><trkpt lat="44.881917760926925" lon="9.56791225631978"><ele>167.0</ele><time>2026-03-28T10:28:04Z</time></trkpt><trkpt lat="44.8818298260299" lon="9.567685664629735"><ele>169.66666666666666</ele><time>2026-03-28T10:28:05Z</time></trkpt><trkpt lat="44.88172538754785" lon="9.56747005394014"><ele>172.33333333333334</ele><time>2026-03-28T10:28:06Z</time></trkpt><trkpt lat="44.88161551664122" lon="9.567265297248676"><ele>175.0</ele><time>2026-03-28T10:28:07Z</time></trkpt><trkpt lat="44.88148801335685" lon="9.567079082453713"><ele>173.0</ele><time>2026-03-28T10:28:08Z</time></trkpt><trkpt lat="44.88135280443374" lon="9.566900609991759"><ele>171.0</ele><time>2026-03-28T10:28:09Z</time></trkpt><trkpt lat="44.881221384402444" lon="9.566721867015081"><ele>169.0</ele><time>2026-03-28T10:28:10Z</time></trkpt><trkpt lat="44.88109022782305" lon="9.566538867892573"><ele>169.0</ele><time>2026-03-28T10:28:11Z</time></trkpt><trkpt lat="44.88095967549904" lon="9.56635605466024"><ele>169.0</ele><time>2026-03-28T10:28:12Z</time></trkpt><trkpt lat="44.88082845252112" lon="9.566177105988434"><ele>169.0</ele><time>2026-03-28T10:28:13Z</time></trkpt><trkpt lat="44.88069367821701" lon="9.565998488686658"><ele>169.0</ele><time>2026-03-28T10:28:14Z</time></trkpt><trkpt lat="44.880559981397425" lon="9.565819972361464"><ele>169.0</ele><time>2026-03-28T10:28:15Z</time></trkpt><trkpt lat="44.88042407858352" lon="9.565642889968954"><ele>169.0</ele><time>2026-03-28T10:28:16Z</time></trkpt><trkpt lat="44.880290350431046" lon="9.565464323845084"><ele>170.66666666666669</ele><time>2026-03-28T10:28:17Z</time></trkpt><trkpt lat="44.88015469559074" lon="9.565287090009631"><ele>172.33333333333334</ele><time>2026-03-28T10:28:18Z</time></trkpt><trkpt lat="44.880021660544706" lon="9.565105155737461"><ele>174.0</ele><time>2026-03-28T10:28:19Z</time></trkpt><trkpt lat="44.8798888843145" lon="9.564925016344652"><ele>174.0</ele><time>2026-03-28T10:28:20Z</time></trkpt><trkpt lat="44.87975815126323" lon="9.564744356704027"><ele>174.0</ele><time>2026-03-28T10:28:20.999Z</time></trkpt><trkpt lat="44.879630895837046" lon="9.564560213799165"><ele>174.0</ele><time>2026-03-28T10:28:21.999Z</time></trkpt><trkpt lat="44.8794980208228" lon="9.564384106708832"><ele>176.33333333333334</ele><time>2026-03-28T10:28:22.999Z</time></trkpt><trkpt lat="44.879364975371956" lon="9.564208460693328"><ele>178.66666666666669</ele><time>2026-03-28T10:28:23.999Z</time></trkpt><trkpt lat="44.879244159411144" lon="9.564027089151402"><ele>181.0</ele><time>2026-03-28T10:28:24.999Z</time></trkpt><trkpt lat="44.87911400715569" lon="9.563850781209231"><ele>176.0</ele><time>2026-03-28T10:28:25.999Z</time></trkpt><trkpt lat="44.87898238367839" lon="9.563672115657015"><ele>171.0</ele><time>2026-03-28T10:28:26.999Z</time></trkpt><trkpt lat="44.87885043599865" lon="9.563493009890882"><ele>166.0</ele><time>2026-03-28T10:28:27.999Z</time></trkpt><trkpt lat="44.87872378230117" lon="9.56332147631877"><ele>166.0</ele><time>2026-03-28T10:28:28.999Z</time></trkpt><trkpt lat="44.87860983836169" lon="9.563171464160082"><ele>166.0</ele><time>2026-03-28T10:28:29.999Z</time></trkpt><trkpt lat="44.87849804086162" lon="9.563032341466378"><ele>166.0</ele><time>2026-03-28T10:28:30.999Z</time></trkpt><trkpt lat="44.87838593460896" lon="9.562899633836924"><ele>168.66666666666669</ele><time>2026-03-28T10:28:31.999Z</time></trkpt><trkpt lat="44.87826083451351" lon="9.56278308826072"><ele>171.33333333333334</ele><time>2026-03-28T10:28:32.999Z</time></trkpt><trkpt lat="44.87814334386529" lon="9.562650757275701"><ele>174.0</ele><time>2026-03-28T10:28:33.999Z</time></trkpt><trkpt lat="44.878022504607934" lon="9.562519431519714"><ele>174.0</ele><time>2026-03-28T10:28:34.999Z</time></trkpt><trkpt lat="44.877899661488655" lon="9.562386712536702"><ele>174.0</ele><time>2026-03-28T10:28:35.999Z</time></trkpt><trkpt lat="44.87777717611603" lon="9.56225124127818"><ele>174.0</ele><time>2026-03-28T10:28:36.999Z</time></trkpt><trkpt lat="44.87765170248685" lon="9.562119461942965"><ele>174.33333333333334</ele><time>2026-03-28T10:28:37.999Z</time></trkpt><trkpt lat="44.87752920199757" lon="9.561983217194884"><ele>174.66666666666669</ele><time>2026-03-28T10:28:38.999Z</time></trkpt><trkpt lat="44.877402795703006" lon="9.5618460827146"><ele>175.0</ele><time>2026-03-28T10:28:39.999Z</time></trkpt><trkpt lat="44.877264202607876" lon="9.56171901115781"><ele>175.0</ele><time>2026-03-28T10:28:40.999Z</time></trkpt><trkpt lat="44.87712438987087" lon="9.56158349325306"><ele>175.0</ele><time>2026-03-28T10:28:41.999Z</time></trkpt><trkpt lat="44.8769937141655" lon="9.56144815691115"><ele>175.0</ele><time>2026-03-28T10:28:42.999Z</time></trkpt><trkpt lat="44.87686725864016" lon="9.56131254078318"><ele>175.0</ele><time>2026-03-28T10:28:43.999Z</time></trkpt><trkpt lat="44.876733230876894" lon="9.561190956959802"><ele>175.0</ele><time>2026-03-28T10:28:44.999Z</time></trkpt><trkpt lat="44.876588396657745" lon="9.561094370725169"><ele>175.0</ele><time>2026-03-28T10:28:45.999Z</time></trkpt><trkpt lat="44.876441130978904" lon="9.561005309836633"><ele>175.0</ele><time>2026-03-28T10:28:46.999Z</time></trkpt><trkpt lat="44.87629738866712" lon="9.56094023330787"><ele>175.0</ele><time>2026-03-28T10:28:47.999Z</time></trkpt><trkpt lat="44.876144735435375" lon="9.560927032730211"><ele>175.0</ele><time>2026-03-28T10:28:48.999Z</time></trkpt><trkpt lat="44.8759897861975" lon="9.560908639066222"><ele>175.25</ele><time>2026-03-28T10:28:49.999Z</time></trkpt><trkpt lat="44.87584535695606" lon="9.560915008752001"><ele>175.5</ele><time>2026-03-28T10:28:50.999Z</time></trkpt><trkpt lat="44.87570351688106" lon="9.560941618704938"><ele>175.75</ele><time>2026-03-28T10:28:51.999Z</time></trkpt><trkpt lat="44.875553403989464" lon="9.560933722871585"><ele>176.0</ele><time>2026-03-28T10:28:52.999Z</time></trkpt><trkpt lat="44.87540900398046" lon="9.560969266761093"><ele>176.0</ele><time>2026-03-28T10:28:53.999Z</time></trkpt><trkpt lat="44.875271585609916" lon="9.561002970555826"><ele>176.0</ele><time>2026-03-28T10:28:54.999Z</time></trkpt><trkpt lat="44.875131678545465" lon="9.561035389740093"><ele>176.0</ele><time>2026-03-28T10:28:55.999Z</time></trkpt><trkpt lat="44.87499871469548" lon="9.56106191846102"><ele>176.0</ele><time>2026-03-28T10:28:56.999Z</time></trkpt><trkpt lat="44.87486785499051" lon="9.561073056086078"><ele>176.25</ele><time>2026-03-28T10:28:57.999Z</time></trkpt><trkpt lat="44.87472951904141" lon="9.561058593535087"><ele>176.5</ele><time>2026-03-28T10:28:58.999Z</time></trkpt><trkpt lat="44.87460983417835" lon="9.560977963002172"><ele>176.75</ele><time>2026-03-28T10:28:59.999Z</time></trkpt><trkpt lat="44.874496720803265" lon="9.560880613834595"><ele>177.0</ele><time>2026-03-28T10:29:00.999Z</time></trkpt><trkpt lat="44.874368259451714" lon="9.560786326020692"><ele>177.66666666666666</ele><time>2026-03-28T10:29:01.999Z</time></trkpt><trkpt lat="44.87422683151285" lon="9.56069573758454"><ele>178.33333333333331</ele><time>2026-03-28T10:29:02.999Z</time></trkpt><trkpt lat="44.87408599469363" lon="9.560594725544924"><ele>179.0</ele><time>2026-03-28T10:29:03.999Z</time></trkpt><trkpt lat="44.87393186292375" lon="9.560488675824551"><ele>179.0</ele><time>2026-03-28T10:29:04.999Z</time></trkpt><trkpt lat="44.87378018420219" lon="9.560383380078202"><ele>179.0</ele><time>2026-03-28T10:29:05.999Z</time></trkpt><trkpt lat="44.8736325041743" lon="9.560251162661075"><ele>179.0</ele><time>2026-03-28T10:29:06.999Z</time></trkpt><trkpt lat="44.87347886173779" lon="9.560139482155352"><ele>179.66666666666666</ele><time>2026-03-28T10:29:07.999Z</time></trkpt><trkpt lat="44.873332207582266" lon="9.560032279893807"><ele>180.33333333333334</ele><time>2026-03-28T10:29:08.999Z</time></trkpt><trkpt lat="44.87319527511131" lon="9.559931785409416"><ele>181.0</ele><time>2026-03-28T10:29:09.999Z</time></trkpt><trkpt lat="44.87306478094505" lon="9.559852861154292"><ele>181.0</ele><time>2026-03-28T10:29:10.999Z</time></trkpt><trkpt lat="44.872932110577004" lon="9.55976264100543"><ele>181.0</ele><time>2026-03-28T10:29:11.999Z</time></trkpt><trkpt lat="44.87280226067729" lon="9.55967032868847"><ele>181.0</ele><time>2026-03-28T10:29:12.999Z</time></trkpt><trkpt lat="44.8726760808387" lon="9.559579678043665"><ele>181.0</ele><time>2026-03-28T10:29:13.999Z</time></trkpt><trkpt lat="44.872554845395356" lon="9.559465490837155"><ele>180.25</ele><time>2026-03-28T10:29:14.999Z</time></trkpt><trkpt lat="44.87242764786533" lon="9.559365723352212"><ele>179.5</ele><time>2026-03-28T10:29:15.999Z</time></trkpt><trkpt lat="44.87230428747138" lon="9.559243007066554"><ele>178.75</ele><time>2026-03-28T10:29:16.999Z</time></trkpt><trkpt lat="44.872195163699956" lon="9.559106699156615"><ele>178.0</ele><time>2026-03-28T10:29:17.999Z</time></trkpt><trkpt lat="44.872124528601326" lon="9.558928808251206"><ele>178.0</ele><time>2026-03-28T10:29:18.999Z</time></trkpt><trkpt lat="44.8720731088925" lon="9.558756088773276"><ele>178.0</ele><time>2026-03-28T10:29:19.999Z</time></trkpt><trkpt lat="44.872019014731485" lon="9.558592361258912"><ele>178.0</ele><time>2026-03-28T10:29:20.999Z</time></trkpt><trkpt lat="44.87196427401141" lon="9.55842350497733"><ele>178.0</ele><time>2026-03-28T10:29:21.999Z</time></trkpt><trkpt lat="44.87190583854865" lon="9.55825635750266"><ele>178.0</ele><time>2026-03-28T10:29:22.999Z</time></trkpt><trkpt lat="44.87183185557912" lon="9.55810126629673"><ele>178.0</ele><time>2026-03-28T10:29:23.999Z</time></trkpt><trkpt lat="44.871747371987006" lon="9.557984526143107"><ele>178.0</ele><time>2026-03-28T10:29:24.999Z</time></trkpt><trkpt lat="44.871672558903946" lon="9.557887805826399"><ele>178.0</ele><time>2026-03-28T10:29:26Z</time></trkpt><trkpt lat="44.87159386326151" lon="9.557803290289286"><ele>178.0</ele><time>2026-03-28T10:29:27Z</time></trkpt><trkpt lat="44.87150214987286" lon="9.557730649929555"><ele>178.0</ele><time>2026-03-28T10:29:28Z</time></trkpt><trkpt lat="44.87140916182373" lon="9.557644935596947"><ele>178.0</ele><time>2026-03-28T10:29:29Z</time></trkpt><trkpt lat="44.87130724088517" lon="9.557594395404614"><ele>178.0</ele><time>2026-03-28T10:29:30Z</time></trkpt><trkpt lat="44.87117211576988" lon="9.557571187375157"><ele>178.0</ele><time>2026-03-28T10:29:31Z</time></trkpt><trkpt lat="44.87103505971409" lon="9.557582906716458"><ele>178.0</ele><time>2026-03-28T10:29:32Z</time></trkpt><trkpt lat="44.870893212739695" lon="9.557610391492082"><ele>178.0</ele><time>2026-03-28T10:29:33Z</time></trkpt><trkpt lat="44.870743748184964" lon="9.557653846054972"><ele>178.0</ele><time>2026-03-28T10:29:34Z</time></trkpt><trkpt lat="44.870573948417935" lon="9.557703212703844"><ele>180.0</ele><time>2026-03-28T10:29:35Z</time></trkpt><trkpt lat="44.870391473074584" lon="9.557756079168232"><ele>182.0</ele><time>2026-03-28T10:29:36Z</time></trkpt><trkpt lat="44.87020242241202" lon="9.557810589418878"><ele>184.0</ele><time>2026-03-28T10:29:37Z</time></trkpt><trkpt lat="44.86999949181739" lon="9.557868364577612"><ele>188.0</ele><time>2026-03-28T10:29:38Z</time></trkpt><trkpt lat="44.869799031677296" lon="9.557918059106827"><ele>192.0</ele><time>2026-03-28T10:29:39Z</time></trkpt><trkpt lat="44.86960844702019" lon="9.55792555014809"><ele>196.0</ele><time>2026-03-28T10:29:40Z</time></trkpt><trkpt lat="44.86942250746917" lon="9.557888593975225"><ele>192.33333333333331</ele><time>2026-03-28T10:29:41Z</time></trkpt><trkpt lat="44.86925059837272" lon="9.557845069616965"><ele>188.66666666666666</ele><time>2026-03-28T10:29:42Z</time></trkpt><trkpt lat="44.8690968603892" lon="9.557819081645341"><ele>185.0</ele><time>2026-03-28T10:29:43Z</time></trkpt><trkpt lat="44.868958858457205" lon="9.557738421921167"><ele>185.0</ele><time>2026-03-28T10:29:44Z</time></trkpt><trkpt lat="44.868839895582354" lon="9.55762024746928"><ele>185.0</ele><time>2026-03-28T10:29:45Z</time></trkpt><trkpt lat="44.86873491663201" lon="9.557462169756187"><ele>185.0</ele><time>2026-03-28T10:29:46Z</time></trkpt><trkpt lat="44.8686485894368" lon="9.5572721643619"><ele>185.0</ele><time>2026-03-28T10:29:47Z</time></trkpt><trkpt lat="44.8685729637309" lon="9.55708300898875"><ele>185.0</ele><time>2026-03-28T10:29:48Z</time></trkpt><trkpt lat="44.86849883518183" lon="9.556906005859602"><ele>185.0</ele><time>2026-03-28T10:29:49Z</time></trkpt><trkpt lat="44.868427992037404" lon="9.5567502423912"><ele>185.0</ele><time>2026-03-28T10:29:50Z</time></trkpt><trkpt lat="44.86836138948575" lon="9.556612706944499"><ele>185.75</ele><time>2026-03-28T10:29:51Z</time></trkpt><trkpt lat="44.86828550140066" lon="9.556494369784142"><ele>186.5</ele><time>2026-03-28T10:29:52Z</time></trkpt><trkpt lat="44.86818410241699" lon="9.556382469323996"><ele>187.25</ele><time>2026-03-28T10:29:53Z</time></trkpt><trkpt lat="44.868071182952185" lon="9.55630025003879"><ele>188.0</ele><time>2026-03-28T10:29:54Z</time></trkpt><trkpt lat="44.867951446823234" lon="9.556226520339164"><ele>187.5</ele><time>2026-03-28T10:29:55Z</time></trkpt><trkpt lat="44.86782243643567" lon="9.556185412175065"><ele>187.0</ele><time>2026-03-28T10:29:56Z</time></trkpt><trkpt lat="44.867685410366306" lon="9.556150696424757"><ele>186.5</ele><time>2026-03-28T10:29:57Z</time></trkpt><trkpt lat="44.8675489770459" lon="9.55611587759494"><ele>186.0</ele><time>2026-03-28T10:29:58Z</time></trkpt><trkpt lat="44.86741240217334" lon="9.556075285302372"><ele>186.0</ele><time>2026-03-28T10:29:59Z</time></trkpt><trkpt lat="44.86728213847323" lon="9.556024572923608"><ele>186.0</ele><time>2026-03-28T10:30:00Z</time></trkpt><trkpt lat="44.86716402453813" lon="9.55595922441081"><ele>186.0</ele><time>2026-03-28T10:30:01Z</time></trkpt><trkpt lat="44.86704970216519" lon="9.55586681971716"><ele>186.0</ele><time>2026-03-28T10:30:02Z</time></trkpt><trkpt lat="44.866939608700065" lon="9.55574559044325"><ele>186.0</ele><time>2026-03-28T10:30:03Z</time></trkpt><trkpt lat="44.86683778402475" lon="9.555616038348113"><ele>186.0</ele><time>2026-03-28T10:30:04Z</time></trkpt><trkpt lat="44.866737226489285" lon="9.555507530958957"><ele>186.0</ele><time>2026-03-28T10:30:05Z</time></trkpt><trkpt lat="44.8666480094639" lon="9.55537657232512"><ele>186.0</ele><time>2026-03-28T10:30:06Z</time></trkpt><trkpt lat="44.86654847803391" lon="9.555244451459806"><ele>186.0</ele><time>2026-03-28T10:30:07Z</time></trkpt><trkpt lat="44.866445439146595" lon="9.555111089061802"><ele>186.0</ele><time>2026-03-28T10:30:08Z</time></trkpt><trkpt lat="44.866355671034796" lon="9.55498633019008"><ele>186.0</ele><time>2026-03-28T10:30:09Z</time></trkpt><trkpt lat="44.86627172397175" lon="9.554869363663427"><ele>186.0</ele><time>2026-03-28T10:30:10Z</time></trkpt><trkpt lat="44.86617232308998" lon="9.554771523085124"><ele>186.0</ele><time>2026-03-28T10:30:11Z</time></trkpt><trkpt lat="44.86605954322183" lon="9.554697859848234"><ele>186.0</ele><time>2026-03-28T10:30:12Z</time></trkpt><trkpt lat="44.8659236436813" lon="9.554642783203144"><ele>186.0</ele><time>2026-03-28T10:30:13Z</time></trkpt><trkpt lat="44.8657769126194" lon="9.554646757960922"><ele>186.0</ele><time>2026-03-28T10:30:14Z</time></trkpt><trkpt lat="44.86564165280895" lon="9.554724097585956"><ele>189.0</ele><time>2026-03-28T10:30:15Z</time></trkpt><trkpt lat="44.86549779170899" lon="9.554759248561554"><ele>192.0</ele><time>2026-03-28T10:30:16Z</time></trkpt><trkpt lat="44.86534704572044" lon="9.554797674807457"><ele>195.0</ele><time>2026-03-28T10:30:17Z</time></trkpt><trkpt lat="44.86519659282003" lon="9.554838821968634"><ele>194.33333333333331</ele><time>2026-03-28T10:30:18Z</time></trkpt><trkpt lat="44.86503461260044" lon="9.55484371839512"><ele>193.66666666666666</ele><time>2026-03-28T10:30:19Z</time></trkpt><trkpt lat="44.86488163953964" lon="9.554889603098205"><ele>193.0</ele><time>2026-03-28T10:30:20Z</time></trkpt><trkpt lat="44.86473562232959" lon="9.554933401341332"><ele>193.0</ele><time>2026-03-28T10:30:21Z</time></trkpt><trkpt lat="44.86458942923086" lon="9.554977252375595"><ele>193.0</ele><time>2026-03-28T10:30:22Z</time></trkpt><trkpt lat="44.86443747843472" lon="9.555023280499658"><ele>193.0</ele><time>2026-03-28T10:30:23Z</time></trkpt><trkpt lat="44.86429799909038" lon="9.555068899216382"><ele>193.0</ele><time>2026-03-28T10:30:24Z</time></trkpt><trkpt lat="44.86417468548582" lon="9.555109230677617"><ele>191.75</ele><time>2026-03-28T10:30:25Z</time></trkpt><trkpt lat="44.864046840999386" lon="9.555147523971145"><ele>190.5</ele><time>2026-03-28T10:30:26Z</time></trkpt><trkpt lat="44.86390817143696" lon="9.555184220405526"><ele>189.25</ele><time>2026-03-28T10:30:27Z</time></trkpt><trkpt lat="44.86376562899793" lon="9.555214782907976"><ele>188.0</ele><time>2026-03-28T10:30:27.999Z</time></trkpt><trkpt lat="44.86362462174249" lon="9.55522737071094"><ele>188.0</ele><time>2026-03-28T10:30:28.999Z</time></trkpt><trkpt lat="44.8634889005427" lon="9.555193722218764"><ele>188.0</ele><time>2026-03-28T10:30:29.999Z</time></trkpt><trkpt lat="44.86335296326148" lon="9.555133214425325"><ele>188.0</ele><time>2026-03-28T10:30:30.999Z</time></trkpt><trkpt lat="44.86322969876971" lon="9.555050968114255"><ele>188.0</ele><time>2026-03-28T10:30:31.999Z</time></trkpt><trkpt lat="44.863106824079495" lon="9.554959953922916"><ele>188.0</ele><time>2026-03-28T10:30:32.999Z</time></trkpt><trkpt lat="44.86299913189458" lon="9.554811166708987"><ele>188.0</ele><time>2026-03-28T10:30:33.999Z</time></trkpt><trkpt lat="44.86292165470988" lon="9.554642265023627"><ele>188.0</ele><time>2026-03-28T10:30:34.999Z</time></trkpt><trkpt lat="44.86285266206208" lon="9.55446975347438"><ele>188.0</ele><time>2026-03-28T10:30:35.999Z</time></trkpt><trkpt lat="44.86278041564002" lon="9.554298942824916"><ele>188.75</ele><time>2026-03-28T10:30:36.999Z</time></trkpt><trkpt lat="44.8627043362378" lon="9.554124967462238"><ele>189.5</ele><time>2026-03-28T10:30:37.999Z</time></trkpt><trkpt lat="44.86262343840028" lon="9.553975022117342"><ele>190.25</ele><time>2026-03-28T10:30:38.999Z</time></trkpt><trkpt lat="44.86252785407607" lon="9.553842330384954"><ele>191.0</ele><time>2026-03-28T10:30:39.999Z</time></trkpt><trkpt lat="44.86241669954766" lon="9.553745431180003"><ele>188.25</ele><time>2026-03-28T10:30:40.999Z</time></trkpt><trkpt lat="44.86231294805165" lon="9.553640926928612"><ele>185.5</ele><time>2026-03-28T10:30:41.999Z</time></trkpt><trkpt lat="44.86220712570678" lon="9.55355363717807"><ele>182.75</ele><time>2026-03-28T10:30:42.999Z</time></trkpt><trkpt lat="44.86210539904297" lon="9.553477756147394"><ele>180.0</ele><time>2026-03-28T10:30:43.999Z</time></trkpt><trkpt lat="44.86200831154177" lon="9.553413508259395"><ele>180.0</ele><time>2026-03-28T10:30:44.999Z</time></trkpt><trkpt lat="44.86191796233598" lon="9.553347458211006"><ele>180.0</ele><time>2026-03-28T10:30:45.999Z</time></trkpt><trkpt lat="44.86183488559109" lon="9.553256325304526"><ele>180.0</ele><time>2026-03-28T10:30:46.999Z</time></trkpt><trkpt lat="44.86175707361125" lon="9.553137276166915"><ele>180.0</ele><time>2026-03-28T10:30:47.999Z</time></trkpt><trkpt lat="44.8616717454744" lon="9.553011366407231"><ele>180.0</ele><time>2026-03-28T10:30:48.999Z</time></trkpt><trkpt lat="44.86160688538525" lon="9.552862325802286"><ele>181.25</ele><time>2026-03-28T10:30:49.999Z</time></trkpt><trkpt lat="44.86153921986505" lon="9.552718402277147"><ele>182.5</ele><time>2026-03-28T10:30:50.999Z</time></trkpt><trkpt lat="44.86147288826482" lon="9.552572428188116"><ele>183.75</ele><time>2026-03-28T10:30:51.999Z</time></trkpt><trkpt lat="44.86140984413507" lon="9.552421899359139"><ele>185.0</ele><time>2026-03-28T10:30:52.999Z</time></trkpt><trkpt lat="44.86134915115057" lon="9.55227099167676"><ele>185.0</ele><time>2026-03-28T10:30:53.999Z</time></trkpt><trkpt lat="44.86127164782164" lon="9.55212669262737"><ele>185.0</ele><time>2026-03-28T10:30:54.999Z</time></trkpt><trkpt lat="44.86116826096871" lon="9.551985714760315"><ele>185.0</ele><time>2026-03-28T10:30:55.999Z</time></trkpt><trkpt lat="44.86104226638846" lon="9.551853124008616"><ele>185.0</ele><time>2026-03-28T10:30:56.999Z</time></trkpt><trkpt lat="44.86089082415053" lon="9.551698307185315"><ele>186.0</ele><time>2026-03-28T10:30:57.999Z</time></trkpt><trkpt lat="44.860686310358545" lon="9.551567908691014"><ele>187.0</ele><time>2026-03-28T10:30:58.999Z</time></trkpt><trkpt lat="44.860502121912084" lon="9.551358119334008"><ele>178.0</ele><time>2026-03-28T10:30:59.999Z</time></trkpt><trkpt lat="44.86031279825794" lon="9.551120924819914"><ele>169.0</ele><time>2026-03-28T10:31:00.999Z</time></trkpt><trkpt lat="44.86012528072095" lon="9.550861184427639"><ele>171.5</ele><time>2026-03-28T10:31:01.999Z</time></trkpt><trkpt lat="44.85996146290661" lon="9.55058506757487"><ele>174.0</ele><time>2026-03-28T10:31:02.999Z</time></trkpt><trkpt lat="44.85978472275387" lon="9.55037196501355"><ele>174.0</ele><time>2026-03-28T10:31:03.999Z</time></trkpt><trkpt lat="44.85960163820081" lon="9.550189530594274"><ele>174.0</ele><time>2026-03-28T10:31:04.999Z</time></trkpt><trkpt lat="44.85943314867569" lon="9.550026231813273"><ele>174.0</ele><time>2026-03-28T10:31:05.999Z</time></trkpt><trkpt lat="44.85927440847943" lon="9.549868160754912"><ele>173.33333333333334</ele><time>2026-03-28T10:31:06.999Z</time></trkpt><trkpt lat="44.859126692858084" lon="9.549718987186186"><ele>172.66666666666669</ele><time>2026-03-28T10:31:07.999Z</time></trkpt><trkpt lat="44.858985881527" lon="9.549577553524998"><ele>172.0</ele><time>2026-03-28T10:31:08.999Z</time></trkpt><trkpt lat="44.85885235091257" lon="9.549445645391796"><ele>172.0</ele><time>2026-03-28T10:31:09.999Z</time></trkpt><trkpt lat="44.85872518056404" lon="9.549323175003241"><ele>172.0</ele><time>2026-03-28T10:31:10.999Z</time></trkpt><trkpt lat="44.85860592666054" lon="9.549208328497487"><ele>172.0</ele><time>2026-03-28T10:31:11.999Z</time></trkpt><trkpt lat="44.858483261342414" lon="9.549087368247593"><ele>172.0</ele><time>2026-03-28T10:31:12.999Z</time></trkpt><trkpt lat="44.85836291679912" lon="9.548954042350147"><ele>173.33333333333334</ele><time>2026-03-28T10:31:13.999Z</time></trkpt><trkpt lat="44.85824123213027" lon="9.548810185326042"><ele>174.66666666666666</ele><time>2026-03-28T10:31:14.999Z</time></trkpt><trkpt lat="44.858111907415385" lon="9.548672547344118"><ele>176.0</ele><time>2026-03-28T10:31:15.999Z</time></trkpt><trkpt lat="44.857961037484706" lon="9.548560360606551"><ele>176.0</ele><time>2026-03-28T10:31:16.999Z</time></trkpt><trkpt lat="44.85779096329391" lon="9.548470396332762"><ele>176.0</ele><time>2026-03-28T10:31:17.999Z</time></trkpt><trkpt lat="44.85761389212186" lon="9.54838349276101"><ele>176.0</ele><time>2026-03-28T10:31:18.999Z</time></trkpt><trkpt lat="44.85743748227022" lon="9.548296911867368"><ele>179.0</ele><time>2026-03-28T10:31:19.999Z</time></trkpt><trkpt lat="44.857256747092244" lon="9.548208208094142"><ele>182.0</ele><time>2026-03-28T10:31:20.999Z</time></trkpt><trkpt lat="44.857074845870784" lon="9.548118931995846"><ele>185.0</ele><time>2026-03-28T10:31:21.999Z</time></trkpt><trkpt lat="44.856895299229215" lon="9.548030618035016"><ele>186.0</ele><time>2026-03-28T10:31:22.999Z</time></trkpt><trkpt lat="44.856715694166084" lon="9.547942047897628"><ele>187.0</ele><time>2026-03-28T10:31:23.999Z</time></trkpt><trkpt lat="44.85653807864079" lon="9.547854455044373"><ele>188.0</ele><time>2026-03-28T10:31:24.999Z</time></trkpt><trkpt lat="44.85636887190543" lon="9.547770030330641"><ele>185.0</ele><time>2026-03-28T10:31:25.999Z</time></trkpt><trkpt lat="44.856210770366204" lon="9.547702320618104"><ele>182.0</ele><time>2026-03-28T10:31:26.999Z</time></trkpt><trkpt lat="44.85607610047396" lon="9.547574044031341"><ele>179.0</ele><time>2026-03-28T10:31:27.999Z</time></trkpt><trkpt lat="44.85595748031383" lon="9.547399457917656"><ele>180.33333333333331</ele><time>2026-03-28T10:31:28.999Z</time></trkpt><trkpt lat="44.85582525015931" lon="9.547234435113"><ele>181.66666666666666</ele><time>2026-03-28T10:31:29.999Z</time></trkpt><trkpt lat="44.8556788700098" lon="9.547081475251975"><ele>183.0</ele><time>2026-03-28T10:31:30.999Z</time></trkpt><trkpt lat="44.85553833694417" lon="9.54690638206949"><ele>183.0</ele><time>2026-03-28T10:31:32Z</time></trkpt><trkpt lat="44.85540131056118" lon="9.546704961132539"><ele>183.0</ele><time>2026-03-28T10:31:33Z</time></trkpt><trkpt lat="44.85525067580542" lon="9.546517687977776"><ele>183.0</ele><time>2026-03-28T10:31:34Z</time></trkpt><trkpt lat="44.85509764318343" lon="9.54632743375004"><ele>183.0</ele><time>2026-03-28T10:31:35Z</time></trkpt><trkpt lat="44.854933678282514" lon="9.546145758818934"><ele>183.0</ele><time>2026-03-28T10:31:36Z</time></trkpt><trkpt lat="44.854779595541146" lon="9.545953911691718"><ele>183.0</ele><time>2026-03-28T10:31:37Z</time></trkpt><trkpt lat="44.85462939790496" lon="9.545754259849295"><ele>183.0</ele><time>2026-03-28T10:31:38Z</time></trkpt><trkpt lat="44.854503957478784" lon="9.54552336766125"><ele>183.0</ele><time>2026-03-28T10:31:39Z</time></trkpt><trkpt lat="44.854380427368405" lon="9.545292608179656"><ele>183.0</ele><time>2026-03-28T10:31:40Z</time></trkpt><trkpt lat="44.85425255705562" lon="9.545085547557507"><ele>182.66666666666666</ele><time>2026-03-28T10:31:41Z</time></trkpt><trkpt lat="44.85414589070192" lon="9.54488009795125"><ele>182.33333333333331</ele><time>2026-03-28T10:31:42Z</time></trkpt><trkpt lat="44.854050619972234" lon="9.544660073946654"><ele>182.0</ele><time>2026-03-28T10:31:43Z</time></trkpt><trkpt lat="44.85397454083541" lon="9.544449611480903"><ele>182.0</ele><time>2026-03-28T10:31:44Z</time></trkpt><trkpt lat="44.85392795542237" lon="9.544214555769454"><ele>182.0</ele><time>2026-03-28T10:31:45Z</time></trkpt><trkpt lat="44.853891598459434" lon="9.543969184408057"><ele>182.0</ele><time>2026-03-28T10:31:46Z</time></trkpt><trkpt lat="44.85385264519099" lon="9.543723599325435"><ele>181.33333333333331</ele><time>2026-03-28T10:31:47Z</time></trkpt><trkpt lat="44.853811668080034" lon="9.543475659022244"><ele>180.66666666666666</ele><time>2026-03-28T10:31:48Z</time></trkpt><trkpt lat="44.853770843471935" lon="9.543241889374798"><ele>180.0</ele><time>2026-03-28T10:31:49Z</time></trkpt><trkpt lat="44.85372253434354" lon="9.543023632578667"><ele>178.0</ele><time>2026-03-28T10:31:50Z</time></trkpt><trkpt lat="44.853643356969485" lon="9.542822262927416"><ele>176.0</ele><time>2026-03-28T10:31:51Z</time></trkpt><trkpt lat="44.85354475482896" lon="9.542632203686004"><ele>174.0</ele><time>2026-03-28T10:31:52Z</time></trkpt><trkpt lat="44.85343571307151" lon="9.54245347209926"><ele>179.66666666666666</ele><time>2026-03-28T10:31:53Z</time></trkpt><trkpt lat="44.85330859446616" lon="9.542302193745282"><ele>185.33333333333331</ele><time>2026-03-28T10:31:54Z</time></trkpt><trkpt lat="44.8531621832284" lon="9.542183040508837"><ele>191.0</ele><time>2026-03-28T10:31:55Z</time></trkpt><trkpt lat="44.8530099593494" lon="9.542073317615692"><ele>191.66666666666666</ele><time>2026-03-28T10:31:56Z</time></trkpt><trkpt lat="44.85286219321796" lon="9.541958961174268"><ele>192.33333333333331</ele><time>2026-03-28T10:31:57Z</time></trkpt><trkpt lat="44.852705546987146" lon="9.541850030715375"><ele>193.0</ele><time>2026-03-28T10:31:58Z</time></trkpt><trkpt lat="44.852544319013326" lon="9.541745286855287"><ele>193.0</ele><time>2026-03-28T10:31:59Z</time></trkpt><trkpt lat="44.852382034129235" lon="9.541644223794762"><ele>193.0</ele><time>2026-03-28T10:32:00Z</time></trkpt><trkpt lat="44.85221693800592" lon="9.541543407584786"><ele>193.0</ele><time>2026-03-28T10:32:01Z</time></trkpt><trkpt lat="44.85205230319158" lon="9.541439733779317"><ele>193.0</ele><time>2026-03-28T10:32:02Z</time></trkpt><trkpt lat="44.85189046025355" lon="9.541336797419847"><ele>193.0</ele><time>2026-03-28T10:32:03Z</time></trkpt><trkpt lat="44.85172611235756" lon="9.541235094919914"><ele>193.0</ele><time>2026-03-28T10:32:04Z</time></trkpt><trkpt lat="44.85156022973036" lon="9.541133871981481"><ele>192.0</ele><time>2026-03-28T10:32:05Z</time></trkpt><trkpt lat="44.8513946371687" lon="9.541035596208847"><ele>191.0</ele><time>2026-03-28T10:32:06Z</time></trkpt><trkpt lat="44.851225363643096" lon="9.5409478701288"><ele>190.0</ele><time>2026-03-28T10:32:07Z</time></trkpt><trkpt lat="44.851050346507435" lon="9.54088575545838"><ele>190.66666666666669</ele><time>2026-03-28T10:32:08Z</time></trkpt><trkpt lat="44.8508706890352" lon="9.540857954156017"><ele>191.33333333333334</ele><time>2026-03-28T10:32:09Z</time></trkpt><trkpt lat="44.850694605288524" lon="9.540850995643826"><ele>192.0</ele><time>2026-03-28T10:32:10Z</time></trkpt><trkpt lat="44.85052526719031" lon="9.540835774776324"><ele>192.0</ele><time>2026-03-28T10:32:11Z</time></trkpt><trkpt lat="44.850376657098074" lon="9.540818973930637"><ele>192.0</ele><time>2026-03-28T10:32:12Z</time></trkpt><trkpt lat="44.850242487406504" lon="9.540802312759228"><ele>192.0</ele><time>2026-03-28T10:32:13Z</time></trkpt><trkpt lat="44.850112417934994" lon="9.54078908742941"><ele>192.0</ele><time>2026-03-28T10:32:14Z</time></trkpt><trkpt lat="44.849994171057624" lon="9.540751302567541"><ele>191.5</ele><time>2026-03-28T10:32:15Z</time></trkpt><trkpt lat="44.84987212650613" lon="9.540737023922091"><ele>191.0</ele><time>2026-03-28T10:32:16Z</time></trkpt><trkpt lat="44.84974284848802" lon="9.540721408476134"><ele>190.5</ele><time>2026-03-28T10:32:17Z</time></trkpt><trkpt lat="44.84961040154329" lon="9.540730597922662"><ele>190.0</ele><time>2026-03-28T10:32:18Z</time></trkpt><trkpt lat="44.849477681599815" lon="9.540712720451737"><ele>190.0</ele><time>2026-03-28T10:32:19Z</time></trkpt><trkpt lat="44.84934045276785" lon="9.54069823427837"><ele>190.0</ele><time>2026-03-28T10:32:20Z</time></trkpt><trkpt lat="44.849201643153876" lon="9.54068145830383"><ele>190.0</ele><time>2026-03-28T10:32:21Z</time></trkpt><trkpt lat="44.84906269472012" lon="9.540638975563438"><ele>190.0</ele><time>2026-03-28T10:32:22Z</time></trkpt><trkpt lat="44.84891729971907" lon="9.540621345700659"><ele>191.0</ele><time>2026-03-28T10:32:23Z</time></trkpt><trkpt lat="44.848770777235146" lon="9.540603799152183"><ele>192.0</ele><time>2026-03-28T10:32:24Z</time></trkpt><trkpt lat="44.84861889081189" lon="9.540584271073831"><ele>193.0</ele><time>2026-03-28T10:32:25Z</time></trkpt><trkpt lat="44.84846586024962" lon="9.540559182785444"><ele>192.0</ele><time>2026-03-28T10:32:26Z</time></trkpt><trkpt lat="44.84831036381329" lon="9.540523881055364"><ele>191.0</ele><time>2026-03-28T10:32:27Z</time></trkpt><trkpt lat="44.848175887961496" lon="9.540388596222964"><ele>190.0</ele><time>2026-03-28T10:32:28Z</time></trkpt><trkpt lat="44.848043965232456" lon="9.540214880356721"><ele>188.33333333333334</ele><time>2026-03-28T10:32:29Z</time></trkpt><trkpt lat="44.84790821909467" lon="9.540015080283093"><ele>186.66666666666666</ele><time>2026-03-28T10:32:30Z</time></trkpt><trkpt lat="44.84777131052061" lon="9.539812192054562"><ele>185.0</ele><time>2026-03-28T10:32:31Z</time></trkpt><trkpt lat="44.84763435511232" lon="9.539606742616408"><ele>186.33333333333331</ele><time>2026-03-28T10:32:32Z</time></trkpt><trkpt lat="44.847499478935674" lon="9.539404412345482"><ele>187.66666666666666</ele><time>2026-03-28T10:32:33Z</time></trkpt><trkpt lat="44.84736983497811" lon="9.53920993126627"><ele>189.0</ele><time>2026-03-28T10:32:34Z</time></trkpt><trkpt lat="44.84723580828979" lon="9.539046431096084"><ele>189.0</ele><time>2026-03-28T10:32:35Z</time></trkpt><trkpt lat="44.847113993270824" lon="9.53887578600109"><ele>189.0</ele><time>2026-03-28T10:32:36Z</time></trkpt><trkpt lat="44.84698173020831" lon="9.538713030156067"><ele>189.0</ele><time>2026-03-28T10:32:36.999Z</time></trkpt><trkpt lat="44.8468369106759" lon="9.53857281856542"><ele>188.66666666666666</ele><time>2026-03-28T10:32:37.999Z</time></trkpt><trkpt lat="44.846687409947705" lon="9.538432489262874"><ele>188.33333333333331</ele><time>2026-03-28T10:32:38.999Z</time></trkpt><trkpt lat="44.84652179215557" lon="9.53832454466629"><ele>188.0</ele><time>2026-03-28T10:32:39.999Z</time></trkpt><trkpt lat="44.84634959582744" lon="9.538229451114173"><ele>188.0</ele><time>2026-03-28T10:32:40.999Z</time></trkpt><trkpt lat="44.84618215869988" lon="9.538147447083732"><ele>188.0</ele><time>2026-03-28T10:32:41.999Z</time></trkpt><trkpt lat="44.846043206784714" lon="9.53805575874056"><ele>188.0</ele><time>2026-03-28T10:32:42.999Z</time></trkpt><trkpt lat="44.84591911710768" lon="9.537944055569115"><ele>189.0</ele><time>2026-03-28T10:32:43.999Z</time></trkpt><trkpt lat="44.84584697670343" lon="9.537789991564102"><ele>190.0</ele><time>2026-03-28T10:32:44.999Z</time></trkpt><trkpt lat="44.84576829890174" lon="9.537611667505614"><ele>191.0</ele><time>2026-03-28T10:32:45.999Z</time></trkpt><trkpt lat="44.84568067930224" lon="9.537443402211844"><ele>192.0</ele><time>2026-03-28T10:32:46.999Z</time></trkpt><trkpt lat="44.84559285688492" lon="9.537266676775099"><ele>192.0</ele><time>2026-03-28T10:32:47.999Z</time></trkpt><trkpt lat="44.845502813303" lon="9.537091328544355"><ele>192.0</ele><time>2026-03-28T10:32:48.999Z</time></trkpt><trkpt lat="44.845396243249475" lon="9.536947993083023"><ele>192.0</ele><time>2026-03-28T10:32:49.999Z</time></trkpt><trkpt lat="44.84526197426847" lon="9.536848469600791"><ele>193.66666666666669</ele><time>2026-03-28T10:32:50.999Z</time></trkpt><trkpt lat="44.84510922705674" lon="9.536779047729944"><ele>195.33333333333334</ele><time>2026-03-28T10:32:51.999Z</time></trkpt><trkpt lat="44.84495734819151" lon="9.536697586490742"><ele>197.0</ele><time>2026-03-28T10:32:52.999Z</time></trkpt><trkpt lat="44.844820185029654" lon="9.536578947670158"><ele>197.0</ele><time>2026-03-28T10:32:53.999Z</time></trkpt><trkpt lat="44.844703540196114" lon="9.536445936130088"><ele>197.0</ele><time>2026-03-28T10:32:54.999Z</time></trkpt><trkpt lat="44.844608589657156" lon="9.53627201252213"><ele>197.0</ele><time>2026-03-28T10:32:55.999Z</time></trkpt><trkpt lat="44.84452630488812" lon="9.536096402469505"><ele>197.25</ele><time>2026-03-28T10:32:56.999Z</time></trkpt><trkpt lat="44.84441054310466" lon="9.5359806231537"><ele>197.5</ele><time>2026-03-28T10:32:57.999Z</time></trkpt><trkpt lat="44.84427231045942" lon="9.535915857755969"><ele>197.75</ele><time>2026-03-28T10:32:58.999Z</time></trkpt><trkpt lat="44.84412482019926" lon="9.535912394675046"><ele>198.0</ele><time>2026-03-28T10:32:59.999Z</time></trkpt><trkpt lat="44.84398153739003" lon="9.535950452093736"><ele>198.0</ele><time>2026-03-28T10:33:00.999Z</time></trkpt><trkpt lat="44.843828692439125" lon="9.535971709135746"><ele>198.0</ele><time>2026-03-28T10:33:01.999Z</time></trkpt><trkpt lat="44.84367714413215" lon="9.535932465789445"><ele>198.0</ele><time>2026-03-28T10:33:02.999Z</time></trkpt><trkpt lat="44.84354360142544" lon="9.535839120090015"><ele>200.0</ele><time>2026-03-28T10:33:03.999Z</time></trkpt><trkpt lat="44.843431874257746" lon="9.53569971146797"><ele>202.0</ele><time>2026-03-28T10:33:04.999Z</time></trkpt><trkpt lat="44.84337067391471" lon="9.535521631624656"><ele>204.0</ele><time>2026-03-28T10:33:05.999Z</time></trkpt><trkpt lat="44.84335273964611" lon="9.535342280118423"><ele>206.0</ele><time>2026-03-28T10:33:06.999Z</time></trkpt><trkpt lat="44.843322529972404" lon="9.535161577038402"><ele>206.0</ele><time>2026-03-28T10:33:07.999Z</time></trkpt><trkpt lat="44.84331493613642" lon="9.534954268642856"><ele>206.0</ele><time>2026-03-28T10:33:08.999Z</time></trkpt><trkpt lat="44.843293753726336" lon="9.534737303337259"><ele>206.0</ele><time>2026-03-28T10:33:09.999Z</time></trkpt><trkpt lat="44.843267238312414" lon="9.534507370775275"><ele>204.33333333333334</ele><time>2026-03-28T10:33:10.999Z</time></trkpt><trkpt lat="44.84323828781474" lon="9.534265221228818"><ele>202.66666666666669</ele><time>2026-03-28T10:33:11.999Z</time></trkpt><trkpt lat="44.84321275132913" lon="9.534013479526672"><ele>201.0</ele><time>2026-03-28T10:33:12.999Z</time></trkpt><trkpt lat="44.84319927489098" lon="9.533758122467617"><ele>199.66666666666669</ele><time>2026-03-28T10:33:13.999Z</time></trkpt><trkpt lat="44.84315902188457" lon="9.533493025882677"><ele>198.33333333333334</ele><time>2026-03-28T10:33:14.999Z</time></trkpt><trkpt lat="44.84310099814318" lon="9.533224779971068"><ele>197.0</ele><time>2026-03-28T10:33:15.999Z</time></trkpt><trkpt lat="44.84302207398756" lon="9.53295610755936"><ele>194.0</ele><time>2026-03-28T10:33:16.999Z</time></trkpt><trkpt lat="44.84296572313099" lon="9.532677321095768"><ele>191.0</ele><time>2026-03-28T10:33:17.999Z</time></trkpt><trkpt lat="44.84291182276664" lon="9.532402681747255"><ele>188.0</ele><time>2026-03-28T10:33:18.999Z</time></trkpt><trkpt lat="44.842853429497495" lon="9.532141226382924"><ele>186.75</ele><time>2026-03-28T10:33:19.999Z</time></trkpt><trkpt lat="44.84279003859388" lon="9.531945115335747"><ele>185.5</ele><time>2026-03-28T10:33:20.999Z</time></trkpt><trkpt lat="44.84270294301696" lon="9.531803418696562"><ele>184.25</ele><time>2026-03-28T10:33:21.999Z</time></trkpt><trkpt lat="44.842582718786325" lon="9.531696186825506"><ele>183.0</ele><time>2026-03-28T10:33:22.999Z</time></trkpt><trkpt lat="44.84244010097745" lon="9.531619141027807"><ele>191.33333333333331</ele><time>2026-03-28T10:33:23.999Z</time></trkpt><trkpt lat="44.84229928402043" lon="9.531519893448147"><ele>199.66666666666666</ele><time>2026-03-28T10:33:24.999Z</time></trkpt><trkpt lat="44.842152151301335" lon="9.53142287073486"><ele>208.0</ele><time>2026-03-28T10:33:25.999Z</time></trkpt><trkpt lat="44.84200226687404" lon="9.531322915763205"><ele>209.0</ele><time>2026-03-28T10:33:26.999Z</time></trkpt><trkpt lat="44.841868782142235" lon="9.531169442534225"><ele>210.0</ele><time>2026-03-28T10:33:27.999Z</time></trkpt><trkpt lat="44.84175434865059" lon="9.530982577801383"><ele>211.0</ele><time>2026-03-28T10:33:28.999Z</time></trkpt><trkpt lat="44.84165858420328" lon="9.530767107982292"><ele>211.0</ele><time>2026-03-28T10:33:29.999Z</time></trkpt><trkpt lat="44.84156656683438" lon="9.530538077196734"><ele>211.0</ele><time>2026-03-28T10:33:30.999Z</time></trkpt><trkpt lat="44.84147506128262" lon="9.530300777979404"><ele>211.0</ele><time>2026-03-28T10:33:31.999Z</time></trkpt><trkpt lat="44.84138360408944" lon="9.530054981401072"><ele>208.0</ele><time>2026-03-28T10:33:32.999Z</time></trkpt><trkpt lat="44.84128112151859" lon="9.5298144422975"><ele>205.0</ele><time>2026-03-28T10:33:33.999Z</time></trkpt><trkpt lat="44.84115431964755" lon="9.529592603047934"><ele>202.0</ele><time>2026-03-28T10:33:34.999Z</time></trkpt><trkpt lat="44.84103176180106" lon="9.529359723705259"><ele>202.33333333333331</ele><time>2026-03-28T10:33:35.999Z</time></trkpt><trkpt lat="44.84089632632053" lon="9.529140766372723"><ele>202.66666666666669</ele><time>2026-03-28T10:33:36.999Z</time></trkpt><trkpt lat="44.84075625206438" lon="9.528920973647542"><ele>203.0</ele><time>2026-03-28T10:33:38Z</time></trkpt><trkpt lat="44.84061670803424" lon="9.528698807921227"><ele>203.0</ele><time>2026-03-28T10:33:39Z</time></trkpt><trkpt lat="44.840483293648006" lon="9.528472998439382"><ele>203.0</ele><time>2026-03-28T10:33:40Z</time></trkpt><trkpt lat="44.84036850176241" lon="9.528225241300643"><ele>203.0</ele><time>2026-03-28T10:33:41Z</time></trkpt><trkpt lat="44.84026400529136" lon="9.527968854445371"><ele>201.33333333333334</ele><time>2026-03-28T10:33:42Z</time></trkpt><trkpt lat="44.840150780644294" lon="9.527719171543474"><ele>199.66666666666669</ele><time>2026-03-28T10:33:43Z</time></trkpt><trkpt lat="44.8400487960563" lon="9.527461041592128"><ele>198.0</ele><time>2026-03-28T10:33:44Z</time></trkpt><trkpt lat="44.839951567738474" lon="9.52720055321673"><ele>200.66666666666669</ele><time>2026-03-28T10:33:45Z</time></trkpt><trkpt lat="44.83985891157081" lon="9.52693865845301"><ele>203.33333333333334</ele><time>2026-03-28T10:33:46Z</time></trkpt><trkpt lat="44.83976172676275" lon="9.526682877480537"><ele>206.0</ele><time>2026-03-28T10:33:47Z</time></trkpt><trkpt lat="44.83966635146342" lon="9.526426897498267"><ele>203.33333333333334</ele><time>2026-03-28T10:33:48Z</time></trkpt><trkpt lat="44.83957151580708" lon="9.52617479568454"><ele>200.66666666666669</ele><time>2026-03-28T10:33:49Z</time></trkpt><trkpt lat="44.8394886020369" lon="9.525917289292684"><ele>198.0</ele><time>2026-03-28T10:33:50Z</time></trkpt><trkpt lat="44.83938947999883" lon="9.525669352514173"><ele>203.33333333333331</ele><time>2026-03-28T10:33:51Z</time></trkpt><trkpt lat="44.839251985209245" lon="9.525453123316879"><ele>208.66666666666666</ele><time>2026-03-28T10:33:52Z</time></trkpt><trkpt lat="44.839142196545254" lon="9.5252179981595"><ele>214.0</ele><time>2026-03-28T10:33:53Z</time></trkpt><trkpt lat="44.83905918323627" lon="9.52497092700728"><ele>214.0</ele><time>2026-03-28T10:33:54Z</time></trkpt><trkpt lat="44.839008034315796" lon="9.52471250352886"><ele>214.0</ele><time>2026-03-28T10:33:55Z</time></trkpt><trkpt lat="44.838965750367215" lon="9.524458587630681"><ele>214.0</ele><time>2026-03-28T10:33:56Z</time></trkpt><trkpt lat="44.83892224969689" lon="9.524209558323552"><ele>212.0</ele><time>2026-03-28T10:33:57Z</time></trkpt><trkpt lat="44.83885869202459" lon="9.52396921200627"><ele>210.0</ele><time>2026-03-28T10:33:58Z</time></trkpt><trkpt lat="44.838772796830845" lon="9.523738319485778"><ele>208.0</ele><time>2026-03-28T10:33:59Z</time></trkpt><trkpt lat="44.83868024498326" lon="9.52352863360875"><ele>204.0</ele><time>2026-03-28T10:34:00Z</time></trkpt><trkpt lat="44.83857084877389" lon="9.52333551831416"><ele>200.0</ele><time>2026-03-28T10:34:01Z</time></trkpt><trkpt lat="44.8384427264336" lon="9.523153360507559"><ele>196.0</ele><time>2026-03-28T10:34:02Z</time></trkpt><trkpt lat="44.83829854012002" lon="9.522990980958543"><ele>198.33333333333331</ele><time>2026-03-28T10:34:03Z</time></trkpt><trkpt lat="44.83814727646341" lon="9.522836932680887"><ele>200.66666666666669</ele><time>2026-03-28T10:34:04Z</time></trkpt><trkpt lat="44.838005061754046" lon="9.522663029019093"><ele>203.0</ele><time>2026-03-28T10:34:05Z</time></trkpt><trkpt lat="44.837852198155055" lon="9.522503486532251"><ele>203.0</ele><time>2026-03-28T10:34:06Z</time></trkpt><trkpt lat="44.83769798657325" lon="9.522343346871608"><ele>203.0</ele><time>2026-03-28T10:34:07Z</time></trkpt><trkpt lat="44.83754064081634" lon="9.522179952627713"><ele>203.0</ele><time>2026-03-28T10:34:08Z</time></trkpt><trkpt lat="44.83738159818267" lon="9.522014796234929"><ele>203.0</ele><time>2026-03-28T10:34:09Z</time></trkpt><trkpt lat="44.837226631589864" lon="9.521853872593331"><ele>203.0</ele><time>2026-03-28T10:34:10Z</time></trkpt><trkpt lat="44.83707830026283" lon="9.52170543317844"><ele>203.0</ele><time>2026-03-28T10:34:11Z</time></trkpt><trkpt lat="44.83694871471052" lon="9.521541784347333"><ele>203.0</ele><time>2026-03-28T10:34:12Z</time></trkpt><trkpt lat="44.836826037250674" lon="9.521363851488863"><ele>203.0</ele><time>2026-03-28T10:34:13Z</time></trkpt><trkpt lat="44.836701417875474" lon="9.521183055151491"><ele>203.0</ele><time>2026-03-28T10:34:14Z</time></trkpt><trkpt lat="44.83657566599732" lon="9.520999596747608"><ele>204.66666666666669</ele><time>2026-03-28T10:34:15Z</time></trkpt><trkpt lat="44.83645385587128" lon="9.520818158542372"><ele>206.33333333333331</ele><time>2026-03-28T10:34:16Z</time></trkpt><trkpt lat="44.83633840274219" lon="9.520646914539716"><ele>208.0</ele><time>2026-03-28T10:34:17Z</time></trkpt><trkpt lat="44.836220135896795" lon="9.520492057908038"><ele>206.66666666666666</ele><time>2026-03-28T10:34:18Z</time></trkpt><trkpt lat="44.8360937117828" lon="9.520362857523036"><ele>205.33333333333331</ele><time>2026-03-28T10:34:19Z</time></trkpt><trkpt lat="44.83595202794064" lon="9.520258692965255"><ele>204.0</ele><time>2026-03-28T10:34:20Z</time></trkpt><trkpt lat="44.83580452884993" lon="9.520173746969176"><ele>204.0</ele><time>2026-03-28T10:34:21Z</time></trkpt><trkpt lat="44.83566226077614" lon="9.520093500148384"><ele>204.0</ele><time>2026-03-28T10:34:22Z</time></trkpt><trkpt lat="44.83551800464043" lon="9.52001640526275"><ele>204.0</ele><time>2026-03-28T10:34:23Z</time></trkpt><trkpt lat="44.83538253924066" lon="9.519947595482654"><ele>204.0</ele><time>2026-03-28T10:34:24Z</time></trkpt><trkpt lat="44.83525342286771" lon="9.519897189520204"><ele>204.0</ele><time>2026-03-28T10:34:25Z</time></trkpt><trkpt lat="44.8351184168097" lon="9.519900493389233"><ele>204.0</ele><time>2026-03-28T10:34:26Z</time></trkpt><trkpt lat="44.83498601420311" lon="9.519941930734726"><ele>204.0</ele><time>2026-03-28T10:34:27Z</time></trkpt><trkpt lat="44.83486496600819" lon="9.520026400724015"><ele>206.0</ele><time>2026-03-28T10:34:28Z</time></trkpt><trkpt lat="44.83474809501994" lon="9.520136700956217"><ele>208.0</ele><time>2026-03-28T10:34:29Z</time></trkpt><trkpt lat="44.83464709820282" lon="9.520251530338662"><ele>210.0</ele><time>2026-03-28T10:34:29.999Z</time></trkpt><trkpt lat="44.83454526299282" lon="9.52033286388672"><ele>212.0</ele><time>2026-03-28T10:34:30.999Z</time></trkpt><trkpt lat="44.83443166622866" lon="9.520360802861335"><ele>212.0</ele><time>2026-03-28T10:34:31.999Z</time></trkpt><trkpt lat="44.834315123738044" lon="9.520310506060627"><ele>212.0</ele><time>2026-03-28T10:34:32.999Z</time></trkpt><trkpt lat="44.83422446199639" lon="9.520190834818917"><ele>212.0</ele><time>2026-03-28T10:34:33.999Z</time></trkpt><trkpt lat="44.83411436204385" lon="9.520081224013904"><ele>212.0</ele><time>2026-03-28T10:34:34.999Z</time></trkpt><trkpt lat="44.83398838378601" lon="9.519980695626192"><ele>210.33333333333334</ele><time>2026-03-28T10:34:35.999Z</time></trkpt><trkpt lat="44.833863384991616" lon="9.519851622453071"><ele>208.66666666666669</ele><time>2026-03-28T10:34:36.999Z</time></trkpt><trkpt lat="44.83371870889902" lon="9.519752815699196"><ele>207.0</ele><time>2026-03-28T10:34:37.999Z</time></trkpt><trkpt lat="44.833570912907184" lon="9.519666029268096"><ele>208.25</ele><time>2026-03-28T10:34:38.999Z</time></trkpt><trkpt lat="44.833430338708524" lon="9.51960107814673"><ele>209.5</ele><time>2026-03-28T10:34:39.999Z</time></trkpt><trkpt lat="44.83329485378121" lon="9.519570332808444"><ele>210.75</ele><time>2026-03-28T10:34:40.999Z</time></trkpt><trkpt lat="44.83315089411954" lon="9.519580201320567"><ele>212.0</ele><time>2026-03-28T10:34:41.999Z</time></trkpt><trkpt lat="44.83300245834211" lon="9.519630355300825"><ele>212.0</ele><time>2026-03-28T10:34:42.999Z</time></trkpt><trkpt lat="44.83285486392943" lon="9.519695663585994"><ele>212.0</ele><time>2026-03-28T10:34:43.999Z</time></trkpt><trkpt lat="44.83270284298906" lon="9.519768053978677"><ele>212.0</ele><time>2026-03-28T10:34:44.999Z</time></trkpt><trkpt lat="44.83254781012849" lon="9.519840342512635"><ele>211.0</ele><time>2026-03-28T10:34:45.999Z</time></trkpt><trkpt lat="44.83238642456869" lon="9.519915574985164"><ele>210.0</ele><time>2026-03-28T10:34:46.999Z</time></trkpt><trkpt lat="44.83222322287929" lon="9.51999115498778"><ele>209.0</ele><time>2026-03-28T10:34:47.999Z</time></trkpt><trkpt lat="44.83206421952283" lon="9.520052952785335"><ele>209.0</ele><time>2026-03-28T10:34:48.999Z</time></trkpt><trkpt lat="44.83190478748236" lon="9.520100501355085"><ele>209.0</ele><time>2026-03-28T10:34:49.999Z</time></trkpt><trkpt lat="44.8317635529145" lon="9.520113483608988"><ele>209.0</ele><time>2026-03-28T10:34:50.999Z</time></trkpt><trkpt lat="44.83162877550828" lon="9.520073948638634"><ele>209.0</ele><time>2026-03-28T10:34:51.999Z</time></trkpt><trkpt lat="44.831496818651985" lon="9.519977997443123"><ele>207.66666666666669</ele><time>2026-03-28T10:34:52.999Z</time></trkpt><trkpt lat="44.831372293013644" lon="9.519840583912515"><ele>206.33333333333331</ele><time>2026-03-28T10:34:53.999Z</time></trkpt><trkpt lat="44.83125146091734" lon="9.519672327359276"><ele>205.0</ele><time>2026-03-28T10:34:54.999Z</time></trkpt><trkpt lat="44.83113331020454" lon="9.51949656725648"><ele>204.0</ele><time>2026-03-28T10:34:55.999Z</time></trkpt><trkpt lat="44.83101288312287" lon="9.519317700282373"><ele>203.0</ele><time>2026-03-28T10:34:56.999Z</time></trkpt><trkpt lat="44.83089219854981" lon="9.519139134220985"><ele>202.0</ele><time>2026-03-28T10:34:57.999Z</time></trkpt><trkpt lat="44.83077204397262" lon="9.518960497214886"><ele>202.0</ele><time>2026-03-28T10:34:58.999Z</time></trkpt><trkpt lat="44.83066847915462" lon="9.518800291968793"><ele>202.0</ele><time>2026-03-28T10:34:59.999Z</time></trkpt><trkpt lat="44.83057717477638" lon="9.518658458457216"><ele>202.0</ele><time>2026-03-28T10:35:00.999Z</time></trkpt><trkpt lat="44.83053159054504" lon="9.518503528301034"><ele>202.0</ele><time>2026-03-28T10:35:01.999Z</time></trkpt><trkpt lat="44.83052147074919" lon="9.518351848491537"><ele>201.5</ele><time>2026-03-28T10:35:02.999Z</time></trkpt><trkpt lat="44.830545782149805" lon="9.518185378796366"><ele>201.0</ele><time>2026-03-28T10:35:03.999Z</time></trkpt><trkpt lat="44.830599652467555" lon="9.518017712874538"><ele>200.5</ele><time>2026-03-28T10:35:04.999Z</time></trkpt><trkpt lat="44.83066417658106" lon="9.517840556885117"><ele>200.0</ele><time>2026-03-28T10:35:05.999Z</time></trkpt><trkpt lat="44.830734360671" lon="9.517654529121103"><ele>201.25</ele><time>2026-03-28T10:35:06.999Z</time></trkpt><trkpt lat="44.83080944520172" lon="9.51746260108368"><ele>202.5</ele><time>2026-03-28T10:35:07.999Z</time></trkpt><trkpt lat="44.83086339631224" lon="9.517282063622812"><ele>203.75</ele><time>2026-03-28T10:35:08.999Z</time></trkpt><trkpt lat="44.83087973227332" lon="9.517090541312529"><ele>205.0</ele><time>2026-03-28T10:35:09.999Z</time></trkpt><trkpt lat="44.830860625664954" lon="9.51687927531285"><ele>205.0</ele><time>2026-03-28T10:35:10.999Z</time></trkpt><trkpt lat="44.83082892466443" lon="9.516657309915932"><ele>205.0</ele><time>2026-03-28T10:35:11.999Z</time></trkpt><trkpt lat="44.83078590246402" lon="9.51645284451412"><ele>205.0</ele><time>2026-03-28T10:35:12.999Z</time></trkpt><trkpt lat="44.83071765012823" lon="9.516300700441471"><ele>205.0</ele><time>2026-03-28T10:35:13.999Z</time></trkpt><trkpt lat="44.83063433922234" lon="9.516194384850536"><ele>203.4</ele><time>2026-03-28T10:35:14.999Z</time></trkpt><trkpt lat="44.830562979227984" lon="9.516097621784159"><ele>201.8</ele><time>2026-03-28T10:35:15.999Z</time></trkpt><trkpt lat="44.830514999663215" lon="9.516002762027142"><ele>200.2</ele><time>2026-03-28T10:35:16.999Z</time></trkpt><trkpt lat="44.830450342213716" lon="9.51592382242226"><ele>198.6</ele><time>2026-03-28T10:35:17.999Z</time></trkpt><trkpt lat="44.830367687465866" lon="9.515832389721977"><ele>197.0</ele><time>2026-03-28T10:35:18.999Z</time></trkpt><trkpt lat="44.83030391169154" lon="9.515693703825645"><ele>197.0</ele><time>2026-03-28T10:35:19.999Z</time></trkpt><trkpt lat="44.830229166219766" lon="9.51558152637723"><ele>197.0</ele><time>2026-03-28T10:35:20.999Z</time></trkpt><trkpt lat="44.83013874476632" lon="9.515467869027137"><ele>197.0</ele><time>2026-03-28T10:35:21.999Z</time></trkpt><trkpt lat="44.83002183969362" lon="9.51536997858011"><ele>197.0</ele><time>2026-03-28T10:35:22.999Z</time></trkpt><trkpt lat="44.82990315885555" lon="9.515250616345757"><ele>196.25</ele><time>2026-03-28T10:35:23.999Z</time></trkpt><trkpt lat="44.8297849424314" lon="9.5151330433467"><ele>195.5</ele><time>2026-03-28T10:35:24.999Z</time></trkpt><trkpt lat="44.82966170995048" lon="9.515021756083419"><ele>194.75</ele><time>2026-03-28T10:35:25.999Z</time></trkpt><trkpt lat="44.82952957835007" lon="9.514904181260304"><ele>194.0</ele><time>2026-03-28T10:35:26.999Z</time></trkpt><trkpt lat="44.829396148242154" lon="9.514780840199574"><ele>194.33333333333334</ele><time>2026-03-28T10:35:27.999Z</time></trkpt><trkpt lat="44.82925758054268" lon="9.514654592038488"><ele>194.66666666666669</ele><time>2026-03-28T10:35:28.999Z</time></trkpt><trkpt lat="44.82911456059313" lon="9.514527613585933"><ele>195.0</ele><time>2026-03-28T10:35:29.999Z</time></trkpt><trkpt lat="44.82897156796986" lon="9.514393730821343"><ele>195.0</ele><time>2026-03-28T10:35:30.999Z</time></trkpt><trkpt lat="44.828836499658486" lon="9.514245516223"><ele>195.0</ele><time>2026-03-28T10:35:31.999Z</time></trkpt><trkpt lat="44.82870488624617" lon="9.514089962838737"><ele>195.0</ele><time>2026-03-28T10:35:32.999Z</time></trkpt><trkpt lat="44.82858062585788" lon="9.513922454543522"><ele>197.33333333333331</ele><time>2026-03-28T10:35:33.999Z</time></trkpt><trkpt lat="44.82846953151382" lon="9.513746567317511"><ele>199.66666666666666</ele><time>2026-03-28T10:35:34.999Z</time></trkpt><trkpt lat="44.82836700374864" lon="9.513560391376862"><ele>202.0</ele><time>2026-03-28T10:35:35.999Z</time></trkpt><trkpt lat="44.82826787766521" lon="9.513357847049248"><ele>202.0</ele><time>2026-03-28T10:35:36.999Z</time></trkpt><trkpt lat="44.82817906739003" lon="9.513143815825527"><ele>202.0</ele><time>2026-03-28T10:35:37.999Z</time></trkpt><trkpt lat="44.82810495811824" lon="9.512934046682274"><ele>202.0</ele><time>2026-03-28T10:35:38.999Z</time></trkpt><trkpt lat="44.82803302973299" lon="9.512732020195378"><ele>198.33333333333331</ele><time>2026-03-28T10:35:39.999Z</time></trkpt><trkpt lat="44.8279566841387" lon="9.512525045649323"><ele>194.66666666666666</ele><time>2026-03-28T10:35:40.999Z</time></trkpt><trkpt lat="44.82788133829244" lon="9.512320451768936"><ele>191.0</ele><time>2026-03-28T10:35:41.999Z</time></trkpt><trkpt lat="44.827802263985625" lon="9.512121927306028"><ele>189.66666666666666</ele><time>2026-03-28T10:35:42.999Z</time></trkpt><trkpt lat="44.82771836188448" lon="9.51192733432846"><ele>188.33333333333334</ele><time>2026-03-28T10:35:44Z</time></trkpt><trkpt lat="44.82762729389967" lon="9.511736578190451"><ele>187.0</ele><time>2026-03-28T10:35:45Z</time></trkpt><trkpt lat="44.82752793047833" lon="9.511548825817446"><ele>187.66666666666669</ele><time>2026-03-28T10:35:46Z</time></trkpt><trkpt lat="44.8274242380039" lon="9.511366611288352"><ele>188.33333333333334</ele><time>2026-03-28T10:35:47Z</time></trkpt><trkpt lat="44.827319556781475" lon="9.511187899392572"><ele>189.0</ele><time>2026-03-28T10:35:48Z</time></trkpt><trkpt lat="44.827213442141876" lon="9.511007053789623"><ele>189.0</ele><time>2026-03-28T10:35:49Z</time></trkpt><trkpt lat="44.827097659592376" lon="9.510836919474933"><ele>189.0</ele><time>2026-03-28T10:35:50Z</time></trkpt><trkpt lat="44.826984321834765" lon="9.510661621010321"><ele>189.0</ele><time>2026-03-28T10:35:51Z</time></trkpt><trkpt lat="44.82686436673694" lon="9.510492905390619"><ele>188.66666666666666</ele><time>2026-03-28T10:35:52Z</time></trkpt><trkpt lat="44.82675211549344" lon="9.510310325221353"><ele>188.33333333333331</ele><time>2026-03-28T10:35:53Z</time></trkpt><trkpt lat="44.8266463243708" lon="9.510124686765185"><ele>188.0</ele><time>2026-03-28T10:35:54Z</time></trkpt><trkpt lat="44.82654521729224" lon="9.509937900669934"><ele>188.0</ele><time>2026-03-28T10:35:55Z</time></trkpt><trkpt lat="44.82645005896944" lon="9.509747602194375"><ele>188.0</ele><time>2026-03-28T10:35:56Z</time></trkpt><trkpt lat="44.826353654040126" lon="9.509557569547555"><ele>188.0</ele><time>2026-03-28T10:35:57Z</time></trkpt><trkpt lat="44.826257427372724" lon="9.509364326224716"><ele>187.66666666666666</ele><time>2026-03-28T10:35:58Z</time></trkpt><trkpt lat="44.82616215629112" lon="9.509171037168151"><ele>187.33333333333334</ele><time>2026-03-28T10:35:59Z</time></trkpt><trkpt lat="44.82606591111588" lon="9.508976239177235"><ele>187.0</ele><time>2026-03-28T10:36:00Z</time></trkpt><trkpt lat="44.82596759387475" lon="9.508778163283344"><ele>189.0</ele><time>2026-03-28T10:36:01Z</time></trkpt><trkpt lat="44.82586938311723" lon="9.508581410361131"><ele>191.0</ele><time>2026-03-28T10:36:02Z</time></trkpt><trkpt lat="44.82577071339157" lon="9.508379314644559"><ele>193.0</ele><time>2026-03-28T10:36:03Z</time></trkpt><trkpt lat="44.82567174764612" lon="9.508177230980786"><ele>193.0</ele><time>2026-03-28T10:36:04Z</time></trkpt><trkpt lat="44.82557271833536" lon="9.507972591939115"><ele>193.0</ele><time>2026-03-28T10:36:05Z</time></trkpt><trkpt lat="44.82547452376533" lon="9.507765675093586"><ele>193.0</ele><time>2026-03-28T10:36:06Z</time></trkpt><trkpt lat="44.825379233447876" lon="9.507564923148148"><ele>191.66666666666666</ele><time>2026-03-28T10:36:07Z</time></trkpt><trkpt lat="44.82528638442345" lon="9.50736843831557"><ele>190.33333333333331</ele><time>2026-03-28T10:36:08Z</time></trkpt><trkpt lat="44.82519349292397" lon="9.507174344898019"><ele>189.0</ele><time>2026-03-28T10:36:09Z</time></trkpt><trkpt lat="44.825103894676175" lon="9.50698204785744"><ele>189.0</ele><time>2026-03-28T10:36:10Z</time></trkpt><trkpt lat="44.82501623772804" lon="9.506787127948009"><ele>189.0</ele><time>2026-03-28T10:36:11Z</time></trkpt><trkpt lat="44.824928976056235" lon="9.5065919419756"><ele>189.0</ele><time>2026-03-28T10:36:12Z</time></trkpt><trkpt lat="44.824839724967696" lon="9.506395522982082"><ele>188.66666666666666</ele><time>2026-03-28T10:36:13Z</time></trkpt><trkpt lat="44.82475026272844" lon="9.506194952250349"><ele>188.33333333333331</ele><time>2026-03-28T10:36:14Z</time></trkpt><trkpt lat="44.8246607208327" lon="9.50599556028383"><ele>188.0</ele><time>2026-03-28T10:36:15Z</time></trkpt><trkpt lat="44.82456756114675" lon="9.505793235153497"><ele>188.0</ele><time>2026-03-28T10:36:16Z</time></trkpt><trkpt lat="44.824475526646935" lon="9.505590932935375"><ele>188.0</ele><time>2026-03-28T10:36:17Z</time></trkpt><trkpt lat="44.82438225824964" lon="9.505389050693108"><ele>188.0</ele><time>2026-03-28T10:36:18Z</time></trkpt><trkpt lat="44.8242898814085" lon="9.505191636177871"><ele>188.33333333333331</ele><time>2026-03-28T10:36:19Z</time></trkpt><trkpt lat="44.82419322921351" lon="9.504998088468074"><ele>188.66666666666666</ele><time>2026-03-28T10:36:20Z</time></trkpt><trkpt lat="44.82409404350346" lon="9.504808595083187"><ele>189.0</ele><time>2026-03-28T10:36:21Z</time></trkpt><trkpt lat="44.82399397609444" lon="9.504618981456648"><ele>188.66666666666666</ele><time>2026-03-28T10:36:22Z</time></trkpt><trkpt lat="44.82388950570729" lon="9.504430216197711"><ele>188.33333333333331</ele><time>2026-03-28T10:36:23Z</time></trkpt><trkpt lat="44.823781427507825" lon="9.504248711595096"><ele>188.0</ele><time>2026-03-28T10:36:24Z</time></trkpt><trkpt lat="44.823668461660446" lon="9.504067421621784"><ele>188.0</ele><time>2026-03-28T10:36:25Z</time></trkpt><trkpt lat="44.823552856343426" lon="9.50388908952328"><ele>188.0</ele><time>2026-03-28T10:36:26Z</time></trkpt><trkpt lat="44.82343623832284" lon="9.503724784303925"><ele>188.0</ele><time>2026-03-28T10:36:27Z</time></trkpt><trkpt lat="44.82331577277018" lon="9.503569101988539"><ele>188.33333333333331</ele><time>2026-03-28T10:36:28Z</time></trkpt><trkpt lat="44.823188048604386" lon="9.503410944583583"><ele>188.66666666666666</ele><time>2026-03-28T10:36:28.999Z</time></trkpt><trkpt lat="44.82305670535192" lon="9.503253219042955"><ele>189.0</ele><time>2026-03-28T10:36:29.999Z</time></trkpt><trkpt lat="44.822922517007406" lon="9.503097757650053"><ele>189.0</ele><time>2026-03-28T10:36:30.999Z</time></trkpt><trkpt lat="44.82278741022083" lon="9.50294011899278"><ele>189.0</ele><time>2026-03-28T10:36:31.999Z</time></trkpt><trkpt lat="44.82264991086912" lon="9.502783056467354"><ele>189.0</ele><time>2026-03-28T10:36:32.999Z</time></trkpt><trkpt lat="44.8225144630298" lon="9.502624515410425"><ele>188.33333333333334</ele><time>2026-03-28T10:36:33.999Z</time></trkpt><trkpt lat="44.822377750110796" lon="9.502466364002819"><ele>187.66666666666669</ele><time>2026-03-28T10:36:34.999Z</time></trkpt><trkpt lat="44.82224032228798" lon="9.502314477897972"><ele>187.0</ele><time>2026-03-28T10:36:35.999Z</time></trkpt><trkpt lat="44.82210555319855" lon="9.502162245055132"><ele>186.66666666666669</ele><time>2026-03-28T10:36:36.999Z</time></trkpt><trkpt lat="44.82197537090588" lon="9.502015524775878"><ele>186.33333333333334</ele><time>2026-03-28T10:36:37.999Z</time></trkpt><trkpt lat="44.82184730107573" lon="9.501865130868929"><ele>186.0</ele><time>2026-03-28T10:36:38.999Z</time></trkpt><trkpt lat="44.82172550762983" lon="9.501701327830748"><ele>187.0</ele><time>2026-03-28T10:36:39.999Z</time></trkpt><trkpt lat="44.82161151945362" lon="9.501527716105496"><ele>188.0</ele><time>2026-03-28T10:36:40.999Z</time></trkpt><trkpt lat="44.821499221994166" lon="9.501351078747078"><ele>189.0</ele><time>2026-03-28T10:36:41.999Z</time></trkpt><trkpt lat="44.82139393487319" lon="9.501167086896901"><ele>189.0</ele><time>2026-03-28T10:36:42.999Z</time></trkpt><trkpt lat="44.821295828653945" lon="9.500973922795023"><ele>189.0</ele><time>2026-03-28T10:36:43.999Z</time></trkpt><trkpt lat="44.82120459302718" lon="9.500773161664414"><ele>189.0</ele><time>2026-03-28T10:36:44.999Z</time></trkpt><trkpt lat="44.82111908085657" lon="9.500568532119305"><ele>188.33333333333334</ele><time>2026-03-28T10:36:45.999Z</time></trkpt><trkpt lat="44.821038329084054" lon="9.500358412319954"><ele>187.66666666666669</ele><time>2026-03-28T10:36:46.999Z</time></trkpt><trkpt lat="44.82096736880139" lon="9.500139219204454"><ele>187.0</ele><time>2026-03-28T10:36:47.999Z</time></trkpt><trkpt lat="44.820906705899915" lon="9.499930867477214"><ele>189.0</ele><time>2026-03-28T10:36:48.999Z</time></trkpt><trkpt lat="44.82085237122356" lon="9.499727626378077"><ele>191.0</ele><time>2026-03-28T10:36:49.999Z</time></trkpt><trkpt lat="44.82079810822412" lon="9.499519851229657"><ele>193.0</ele><time>2026-03-28T10:36:50.999Z</time></trkpt><trkpt lat="44.820745555179165" lon="9.499310744200033"><ele>193.0</ele><time>2026-03-28T10:36:51.999Z</time></trkpt><trkpt lat="44.82069294987967" lon="9.499105066029518"><ele>193.0</ele><time>2026-03-28T10:36:52.999Z</time></trkpt><trkpt lat="44.82064042266355" lon="9.498899077640868"><ele>193.0</ele><time>2026-03-28T10:36:53.999Z</time></trkpt><trkpt lat="44.82058773355191" lon="9.498691623681053"><ele>192.66666666666666</ele><time>2026-03-28T10:36:54.999Z</time></trkpt><trkpt lat="44.82053173856282" lon="9.498482376042931"><ele>192.33333333333331</ele><time>2026-03-28T10:36:55.999Z</time></trkpt><trkpt lat="44.820472445435364" lon="9.498275739170932"><ele>192.0</ele><time>2026-03-28T10:36:56.999Z</time></trkpt><trkpt lat="44.8204106555465" lon="9.498069331549551"><ele>191.66666666666666</ele><time>2026-03-28T10:36:57.999Z</time></trkpt><trkpt lat="44.82034689152558" lon="9.497861577394234"><ele>191.33333333333331</ele><time>2026-03-28T10:36:58.999Z</time></trkpt><trkpt lat="44.82028050127771" lon="9.497653721160418"><ele>191.0</ele><time>2026-03-28T10:36:59.999Z</time></trkpt><trkpt lat="44.820208440508175" lon="9.49744569946664"><ele>193.33333333333331</ele><time>2026-03-28T10:37:00.999Z</time></trkpt><trkpt lat="44.82013513479709" lon="9.497236125842704"><ele>195.66666666666666</ele><time>2026-03-28T10:37:01.999Z</time></trkpt><trkpt lat="44.8200632477013" lon="9.497022136927797"><ele>198.0</ele><time>2026-03-28T10:37:02.999Z</time></trkpt><trkpt lat="44.819994203463715" lon="9.496805330510933"><ele>198.0</ele><time>2026-03-28T10:37:03.999Z</time></trkpt><trkpt lat="44.81992312965442" lon="9.496586935025526"><ele>198.0</ele><time>2026-03-28T10:37:04.999Z</time></trkpt><trkpt lat="44.819848888103394" lon="9.49636715676609"><ele>198.0</ele><time>2026-03-28T10:37:05.999Z</time></trkpt><trkpt lat="44.819775949534844" lon="9.496145575558026"><ele>196.33333333333331</ele><time>2026-03-28T10:37:06.999Z</time></trkpt><trkpt lat="44.81970617318296" lon="9.495917496402065"><ele>194.66666666666666</ele><time>2026-03-28T10:37:07.999Z</time></trkpt><trkpt lat="44.819641229023624" lon="9.495683565882226"><ele>193.0</ele><time>2026-03-28T10:37:08.999Z</time></trkpt><trkpt lat="44.819576672950426" lon="9.495445338542417"><ele>192.0</ele><time>2026-03-28T10:37:09.999Z</time></trkpt><trkpt lat="44.81951153934103" lon="9.495203681984803"><ele>191.0</ele><time>2026-03-28T10:37:10.999Z</time></trkpt><trkpt lat="44.819445395304456" lon="9.494959770146371"><ele>190.0</ele><time>2026-03-28T10:37:11.999Z</time></trkpt><trkpt lat="44.81937056665034" lon="9.494713648967878"><ele>192.66666666666669</ele><time>2026-03-28T10:37:12.999Z</time></trkpt><trkpt lat="44.819296552724886" lon="9.49446389250989"><ele>195.33333333333334</ele><time>2026-03-28T10:37:13.999Z</time></trkpt><trkpt lat="44.81922985328937" lon="9.494208533567553"><ele>198.0</ele><time>2026-03-28T10:37:14.999Z</time></trkpt><trkpt lat="44.81916685610704" lon="9.493947065936592"><ele>196.66666666666669</ele><time>2026-03-28T10:37:15.999Z</time></trkpt><trkpt lat="44.819109337503036" lon="9.493678405267405"><ele>195.33333333333334</ele><time>2026-03-28T10:37:16.999Z</time></trkpt><trkpt lat="44.8190606194508" lon="9.493406009291776"><ele>194.0</ele><time>2026-03-28T10:37:17.999Z</time></trkpt><trkpt lat="44.81901798285436" lon="9.493127678473092"><ele>194.0</ele><time>2026-03-28T10:37:18.999Z</time></trkpt><trkpt lat="44.8189854840649" lon="9.49284507597142"><ele>194.0</ele><time>2026-03-28T10:37:19.999Z</time></trkpt><trkpt lat="44.8189608827354" lon="9.492559160170932"><ele>194.0</ele><time>2026-03-28T10:37:20.999Z</time></trkpt><trkpt lat="44.81894055941952" lon="9.492271023173538"><ele>194.0</ele><time>2026-03-28T10:37:21.999Z</time></trkpt><trkpt lat="44.81892889171645" lon="9.491975871508794"><ele>194.0</ele><time>2026-03-28T10:37:22.999Z</time></trkpt><trkpt lat="44.818919999806006" lon="9.49168313484272"><ele>194.0</ele><time>2026-03-28T10:37:23.999Z</time></trkpt><trkpt lat="44.81890603503077" lon="9.491394855747249"><ele>194.33333333333334</ele><time>2026-03-28T10:37:24.999Z</time></trkpt><trkpt lat="44.81889496570943" lon="9.491105735344732"><ele>194.66666666666669</ele><time>2026-03-28T10:37:25.999Z</time></trkpt><trkpt lat="44.81888938861506" lon="9.490816042697183"><ele>195.0</ele><time>2026-03-28T10:37:26.999Z</time></trkpt><trkpt lat="44.81888125802601" lon="9.490524958321439"><ele>195.0</ele><time>2026-03-28T10:37:27.999Z</time></trkpt><trkpt lat="44.81887293450535" lon="9.490232039986436"><ele>195.0</ele><time>2026-03-28T10:37:28.999Z</time></trkpt><trkpt lat="44.818881719406924" lon="9.48993923384023"><ele>195.0</ele><time>2026-03-28T10:37:29.999Z</time></trkpt><trkpt lat="44.818874219460014" lon="9.489648014035344"><ele>195.0</ele><time>2026-03-28T10:37:30.999Z</time></trkpt><trkpt lat="44.81885068182358" lon="9.489355887437176"><ele>195.0</ele><time>2026-03-28T10:37:31.999Z</time></trkpt><trkpt lat="44.81884374405711" lon="9.489062580209687"><ele>195.0</ele><time>2026-03-28T10:37:32.999Z</time></trkpt><trkpt lat="44.818837930465016" lon="9.488772870469097"><ele>194.66666666666669</ele><time>2026-03-28T10:37:33.999Z</time></trkpt><trkpt lat="44.81883152787587" lon="9.488481089220404"><ele>194.33333333333334</ele><time>2026-03-28T10:37:34.999Z</time></trkpt><trkpt lat="44.81882584728274" lon="9.488188811526866"><ele>194.0</ele><time>2026-03-28T10:37:35.999Z</time></trkpt><trkpt lat="44.81881907602765" lon="9.48789837640392"><ele>194.66666666666669</ele><time>2026-03-28T10:37:36.999Z</time></trkpt><trkpt lat="44.81881185486919" lon="9.487605649892314"><ele>195.33333333333331</ele><time>2026-03-28T10:37:37.999Z</time></trkpt><trkpt lat="44.818820565101916" lon="9.487312761414662"><ele>196.0</ele><time>2026-03-28T10:37:38.999Z</time></trkpt><trkpt lat="44.81881232610974" lon="9.48702123567975"><ele>196.66666666666666</ele><time>2026-03-28T10:37:39.999Z</time></trkpt><trkpt lat="44.818791428856905" lon="9.486729486576992"><ele>197.33333333333331</ele><time>2026-03-28T10:37:40.999Z</time></trkpt><trkpt lat="44.81875535741348" lon="9.486439947548172"><ele>198.0</ele><time>2026-03-28T10:37:41.999Z</time></trkpt><trkpt lat="44.81869034375911" lon="9.486161750177184"><ele>198.33333333333331</ele><time>2026-03-28T10:37:42.999Z</time></trkpt><trkpt lat="44.81862831751536" lon="9.485886623389565"><ele>198.66666666666666</ele><time>2026-03-28T10:37:43.999Z</time></trkpt><trkpt lat="44.81855161549404" lon="9.485617417629697"><ele>199.0</ele><time>2026-03-28T10:37:44.999Z</time></trkpt><trkpt lat="44.818463754835115" lon="9.48535501612853"><ele>205.0</ele><time>2026-03-28T10:37:45.999Z</time></trkpt><trkpt lat="44.818383524661314" lon="9.485085078883948"><ele>211.0</ele><time>2026-03-28T10:37:46.999Z</time></trkpt><trkpt lat="44.818272135873066" lon="9.48483658974228"><ele>217.0</ele><time>2026-03-28T10:37:47.999Z</time></trkpt><trkpt lat="44.818188631669344" lon="9.484563789393457"><ele>218.66666666666666</ele><time>2026-03-28T10:37:49.012Z</time></trkpt><trkpt lat="44.81809150351121" lon="9.484306209336"><ele>220.33333333333331</ele><time>2026-03-28T10:37:50.014Z</time></trkpt><trkpt lat="44.817994823618285" lon="9.484048723311211"><ele>222.0</ele><time>2026-03-28T10:37:51.013Z</time></trkpt><trkpt lat="44.8178852267536" lon="9.483800395004787"><ele>220.66666666666669</ele><time>2026-03-28T10:37:52.013Z</time></trkpt><trkpt lat="44.81780237425191" lon="9.48352956022275"><ele>219.33333333333334</ele><time>2026-03-28T10:37:53.013Z</time></trkpt><trkpt lat="44.817706528727" lon="9.483270287222268"><ele>218.0</ele><time>2026-03-28T10:37:54.013Z</time></trkpt><trkpt lat="44.81761152599601" lon="9.483011958813268"><ele>217.0</ele><time>2026-03-28T10:37:55.013Z</time></trkpt><trkpt lat="44.817516565003004" lon="9.482752467530835"><ele>216.0</ele><time>2026-03-28T10:37:56.013Z</time></trkpt><trkpt lat="44.81741414187158" lon="9.482498579494665"><ele>215.0</ele><time>2026-03-28T10:37:57.012Z</time></trkpt><trkpt lat="44.81732523764793" lon="9.482233657258119"><ele>211.33333333333334</ele><time>2026-03-28T10:37:58.012Z</time></trkpt><trkpt lat="44.81722953145619" lon="9.4819750397529"><ele>207.66666666666669</ele><time>2026-03-28T10:37:59.013Z</time></trkpt><trkpt lat="44.81713544239489" lon="9.481720792076151"><ele>204.0</ele><time>2026-03-28T10:37:59.999Z</time></trkpt><trkpt lat="44.8170369623443" lon="9.481471450987922"><ele>202.66666666666669</ele><time>2026-03-28T10:38:01Z</time></trkpt><trkpt lat="44.81695855098023" lon="9.481206946098583"><ele>201.33333333333334</ele><time>2026-03-28T10:38:02Z</time></trkpt><trkpt lat="44.81688592397325" lon="9.480937127966403"><ele>200.0</ele><time>2026-03-28T10:38:03Z</time></trkpt><trkpt lat="44.81682737444011" lon="9.480658977526488"><ele>202.33333333333334</ele><time>2026-03-28T10:38:04Z</time></trkpt><trkpt lat="44.81677188796046" lon="9.480375051834404"><ele>204.66666666666669</ele><time>2026-03-28T10:38:05Z</time></trkpt><trkpt lat="44.81672416102117" lon="9.480096472001842"><ele>207.0</ele><time>2026-03-28T10:38:06Z</time></trkpt><trkpt lat="44.816687093217304" lon="9.479809900547092"><ele>207.66666666666669</ele><time>2026-03-28T10:38:07Z</time></trkpt><trkpt lat="44.81665299100479" lon="9.479524166753203"><ele>208.33333333333334</ele><time>2026-03-28T10:38:08Z</time></trkpt><trkpt lat="44.81663561546052" lon="9.479234559552408"><ele>209.0</ele><time>2026-03-28T10:38:09Z</time></trkpt><trkpt lat="44.81662862599813" lon="9.478946890792038"><ele>209.33333333333334</ele><time>2026-03-28T10:38:10Z</time></trkpt><trkpt lat="44.81662584657475" lon="9.478660070752326"><ele>209.66666666666669</ele><time>2026-03-28T10:38:11Z</time></trkpt><trkpt lat="44.81662808620237" lon="9.478373085821122"><ele>210.0</ele><time>2026-03-28T10:38:12Z</time></trkpt><trkpt lat="44.81662764179227" lon="9.478087329860143"><ele>210.33333333333331</ele><time>2026-03-28T10:38:13Z</time></trkpt><trkpt lat="44.81662527635795" lon="9.47779926320997"><ele>210.66666666666666</ele><time>2026-03-28T10:38:14Z</time></trkpt><trkpt lat="44.81662210251041" lon="9.477513068615526"><ele>211.0</ele><time>2026-03-28T10:38:15Z</time></trkpt><trkpt lat="44.81662377075375" lon="9.477223198594631"><ele>212.66666666666666</ele><time>2026-03-28T10:38:16Z</time></trkpt><trkpt lat="44.81662513899354" lon="9.476937949610651"><ele>214.33333333333331</ele><time>2026-03-28T10:38:17Z</time></trkpt><trkpt lat="44.816625820343916" lon="9.47664968774113"><ele>216.0</ele><time>2026-03-28T10:38:18Z</time></trkpt><trkpt lat="44.81662984179753" lon="9.476359007156985"><ele>217.66666666666669</ele><time>2026-03-28T10:38:19Z</time></trkpt><trkpt lat="44.81663093790142" lon="9.476069282797702"><ele>219.33333333333334</ele><time>2026-03-28T10:38:20Z</time></trkpt><trkpt lat="44.81663159205552" lon="9.475776544074371"><ele>221.0</ele><time>2026-03-28T10:38:21Z</time></trkpt><trkpt lat="44.81662860986477" lon="9.475485750009131"><ele>222.33333333333334</ele><time>2026-03-28T10:38:22Z</time></trkpt><trkpt lat="44.81662734861425" lon="9.475196847703634"><ele>223.66666666666669</ele><time>2026-03-28T10:38:23Z</time></trkpt><trkpt lat="44.81663106411393" lon="9.474907257370122"><ele>225.0</ele><time>2026-03-28T10:38:24Z</time></trkpt><trkpt lat="44.81663688324984" lon="9.474625141382273"><ele>226.0</ele><time>2026-03-28T10:38:25Z</time></trkpt><trkpt lat="44.816641507631" lon="9.4743615226651"><ele>227.0</ele><time>2026-03-28T10:38:26Z</time></trkpt><trkpt lat="44.81664671889926" lon="9.474104274523476"><ele>228.0</ele><time>2026-03-28T10:38:27Z</time></trkpt><trkpt lat="44.816655623506385" lon="9.473847682477835"><ele>228.0</ele><time>2026-03-28T10:38:28Z</time></trkpt><trkpt lat="44.81667089722023" lon="9.473595754159996"><ele>228.0</ele><time>2026-03-28T10:38:29Z</time></trkpt><trkpt lat="44.81668794376561" lon="9.473380725523052"><ele>228.0</ele><time>2026-03-28T10:38:30Z</time></trkpt><trkpt lat="44.81671552209238" lon="9.47317425223997"><ele>228.0</ele><time>2026-03-28T10:38:31Z</time></trkpt><trkpt lat="44.816768140946294" lon="9.47296680035145"><ele>228.0</ele><time>2026-03-28T10:38:32Z</time></trkpt><trkpt lat="44.81684498484001" lon="9.472763960349264"><ele>228.0</ele><time>2026-03-28T10:38:33Z</time></trkpt><trkpt lat="44.81693818849088" lon="9.472565322213887"><ele>229.0</ele><time>2026-03-28T10:38:34Z</time></trkpt><trkpt lat="44.8170435942958" lon="9.472372050630188"><ele>230.0</ele><time>2026-03-28T10:38:35Z</time></trkpt><trkpt lat="44.81716522717483" lon="9.472191238398944"><ele>231.0</ele><time>2026-03-28T10:38:36Z</time></trkpt><trkpt lat="44.817291074744425" lon="9.472014606247422"><ele>231.0</ele><time>2026-03-28T10:38:37Z</time></trkpt><trkpt lat="44.81740240451245" lon="9.47181933448198"><ele>231.0</ele><time>2026-03-28T10:38:38Z</time></trkpt><trkpt lat="44.81749397543265" lon="9.47160004806992"><ele>231.0</ele><time>2026-03-28T10:38:39Z</time></trkpt><trkpt lat="44.81756249115108" lon="9.471363573538627"><ele>232.0</ele><time>2026-03-28T10:38:40Z</time></trkpt><trkpt lat="44.81760221404688" lon="9.471110523568704"><ele>233.0</ele><time>2026-03-28T10:38:41Z</time></trkpt><trkpt lat="44.81760162403343" lon="9.470850860365038"><ele>234.0</ele><time>2026-03-28T10:38:42Z</time></trkpt><trkpt lat="44.817569240343815" lon="9.47059121483955"><ele>232.66666666666669</ele><time>2026-03-28T10:38:43Z</time></trkpt><trkpt lat="44.817521251943795" lon="9.470327163279752"><ele>231.33333333333334</ele><time>2026-03-28T10:38:44Z</time></trkpt><trkpt lat="44.8174690248586" lon="9.470060394010064"><ele>230.0</ele><time>2026-03-28T10:38:45Z</time></trkpt><trkpt lat="44.817416209577836" lon="9.469788635295759"><ele>226.66666666666669</ele><time>2026-03-28T10:38:46Z</time></trkpt><trkpt lat="44.81736244811227" lon="9.469511742842085"><ele>223.33333333333331</ele><time>2026-03-28T10:38:47Z</time></trkpt><trkpt lat="44.8173064362482" lon="9.469231964237247"><ele>220.0</ele><time>2026-03-28T10:38:48Z</time></trkpt><trkpt lat="44.81725300017098" lon="9.468949250817124"><ele>219.33333333333331</ele><time>2026-03-28T10:38:49Z</time></trkpt><trkpt lat="44.8171994792902" lon="9.468666338823152"><ele>218.66666666666669</ele><time>2026-03-28T10:38:50Z</time></trkpt><trkpt lat="44.81714412706206" lon="9.468382601185283"><ele>218.0</ele><time>2026-03-28T10:38:51Z</time></trkpt><trkpt lat="44.81708525865072" lon="9.468099329872672"><ele>217.66666666666669</ele><time>2026-03-28T10:38:52Z</time></trkpt><trkpt lat="44.81702431816971" lon="9.467818705777514"><ele>217.33333333333331</ele><time>2026-03-28T10:38:53Z</time></trkpt><trkpt lat="44.81695778007125" lon="9.467540718650536"><ele>217.0</ele><time>2026-03-28T10:38:54Z</time></trkpt><trkpt lat="44.81688070958534" lon="9.467267013227518"><ele>220.66666666666666</ele><time>2026-03-28T10:38:55Z</time></trkpt><trkpt lat="44.81679108013085" lon="9.467000560445605"><ele>224.33333333333331</ele><time>2026-03-28T10:38:56Z</time></trkpt><trkpt lat="44.81669047003055" lon="9.4667405492452"><ele>228.0</ele><time>2026-03-28T10:38:57Z</time></trkpt><trkpt lat="44.81658298755927" lon="9.466485602175572"><ele>225.0</ele><time>2026-03-28T10:38:58Z</time></trkpt><trkpt lat="44.81647493308016" lon="9.466237593846294"><ele>222.0</ele><time>2026-03-28T10:38:59Z</time></trkpt><trkpt lat="44.81636621034924" lon="9.46598886712998"><ele>219.0</ele><time>2026-03-28T10:39:00Z</time></trkpt><trkpt lat="44.81626440693439" lon="9.465730689290943"><ele>219.0</ele><time>2026-03-28T10:39:01Z</time></trkpt><trkpt lat="44.81618076913494" lon="9.465451761593258"><ele>219.0</ele><time>2026-03-28T10:39:02Z</time></trkpt><trkpt lat="44.816122643469164" lon="9.46515342922223"><ele>219.0</ele><time>2026-03-28T10:39:03Z</time></trkpt><trkpt lat="44.81608609048391" lon="9.464832346484561"><ele>215.0</ele><time>2026-03-28T10:39:04Z</time></trkpt><trkpt lat="44.81605763394694" lon="9.464493289625862"><ele>211.0</ele><time>2026-03-28T10:39:04.999Z</time></trkpt><trkpt lat="44.816026479180444" lon="9.464149852619562"><ele>220.5</ele><time>2026-03-28T10:39:05.999Z</time></trkpt><trkpt lat="44.81598281846719" lon="9.463809961061797"><ele>230.0</ele><time>2026-03-28T10:39:06.999Z</time></trkpt><trkpt lat="44.81593799715358" lon="9.463474756342974"><ele>229.5</ele><time>2026-03-28T10:39:07.999Z</time></trkpt><trkpt lat="44.815890469082895" lon="9.463142313354169"><ele>229.0</ele><time>2026-03-28T10:39:08.999Z</time></trkpt><trkpt lat="44.81584148661447" lon="9.462813672109736"><ele>229.0</ele><time>2026-03-28T10:39:09.999Z</time></trkpt><trkpt lat="44.815795082035095" lon="9.462494264735739"><ele>229.0</ele><time>2026-03-28T10:39:10.999Z</time></trkpt><trkpt lat="44.815743260098" lon="9.462187573763018"><ele>228.0</ele><time>2026-03-28T10:39:11.999Z</time></trkpt><trkpt lat="44.81569127908118" lon="9.461889085373208"><ele>227.0</ele><time>2026-03-28T10:39:12.999Z</time></trkpt><trkpt lat="44.81564847616118" lon="9.461596970265633"><ele>226.0</ele><time>2026-03-28T10:39:13.999Z</time></trkpt><trkpt lat="44.81561635490647" lon="9.461307395238999"><ele>225.33333333333331</ele><time>2026-03-28T10:39:14.999Z</time></trkpt><trkpt lat="44.815586558735234" lon="9.461011998170655"><ele>224.66666666666669</ele><time>2026-03-28T10:39:15.999Z</time></trkpt><trkpt lat="44.815561854297705" lon="9.460714685512466"><ele>224.0</ele><time>2026-03-28T10:39:16.999Z</time></trkpt><trkpt lat="44.81553847677702" lon="9.460431764493322"><ele>223.33333333333334</ele><time>2026-03-28T10:39:17.999Z</time></trkpt><trkpt lat="44.81551398632133" lon="9.460169113355295"><ele>222.66666666666669</ele><time>2026-03-28T10:39:18.999Z</time></trkpt><trkpt lat="44.815492811664825" lon="9.459920560997666"><ele>222.0</ele><time>2026-03-28T10:39:19.999Z</time></trkpt><trkpt lat="44.815471103235915" lon="9.459688327173906"><ele>222.25</ele><time>2026-03-28T10:39:20.999Z</time></trkpt><trkpt lat="44.81545088550158" lon="9.459467769488784"><ele>222.5</ele><time>2026-03-28T10:39:21.999Z</time></trkpt><trkpt lat="44.81542669796256" lon="9.45926636084778"><ele>222.75</ele><time>2026-03-28T10:39:22.999Z</time></trkpt><trkpt lat="44.815400670413226" lon="9.459077555897224"><ele>223.0</ele><time>2026-03-28T10:39:23.999Z</time></trkpt><trkpt lat="44.815369551917634" lon="9.458909918779426"><ele>222.83333333333331</ele><time>2026-03-28T10:39:24.999Z</time></trkpt><trkpt lat="44.81533080850399" lon="9.458770150404936"><ele>222.66666666666666</ele><time>2026-03-28T10:39:25.999Z</time></trkpt><trkpt lat="44.815294240011475" lon="9.458641628133915"><ele>222.5</ele><time>2026-03-28T10:39:26.999Z</time></trkpt><trkpt lat="44.81526694072136" lon="9.458538858675713"><ele>222.33333333333331</ele><time>2026-03-28T10:39:27.999Z</time></trkpt><trkpt lat="44.81524019640231" lon="9.458447708748514"><ele>222.16666666666666</ele><time>2026-03-28T10:39:28.999Z</time></trkpt><trkpt lat="44.81521131578183" lon="9.458349975849705"><ele>222.0</ele><time>2026-03-28T10:39:29.999Z</time></trkpt><trkpt lat="44.815200512224656" lon="9.458246718906219"><ele>222.0</ele><time>2026-03-28T10:39:30.999Z</time></trkpt><trkpt lat="44.81516817833042" lon="9.458158104995578"><ele>222.0</ele><time>2026-03-28T10:39:31.999Z</time></trkpt><trkpt lat="44.81511561263271" lon="9.458065198491871"><ele>222.0</ele><time>2026-03-28T10:39:32.999Z</time></trkpt><trkpt lat="44.81506859284351" lon="9.457948570926975"><ele>222.0</ele><time>2026-03-28T10:39:33.999Z</time></trkpt><trkpt lat="44.8150165482886" lon="9.457820408050168"><ele>222.0</ele><time>2026-03-28T10:39:34.999Z</time></trkpt><trkpt lat="44.81495907670188" lon="9.45767916576503"><ele>223.0</ele><time>2026-03-28T10:39:35.999Z</time></trkpt><trkpt lat="44.814891941752265" lon="9.457530557118014"><ele>224.0</ele><time>2026-03-28T10:39:36.999Z</time></trkpt><trkpt lat="44.81482199506907" lon="9.457372969743245"><ele>225.0</ele><time>2026-03-28T10:39:37.999Z</time></trkpt><trkpt lat="44.814747772685976" lon="9.457197873471554"><ele>226.0</ele><time>2026-03-28T10:39:38.999Z</time></trkpt><trkpt lat="44.814669032281856" lon="9.457011075569193"><ele>221.66666666666666</ele><time>2026-03-28T10:39:39.999Z</time></trkpt><trkpt lat="44.81458273528877" lon="9.456818912689677"><ele>217.33333333333331</ele><time>2026-03-28T10:39:40.999Z</time></trkpt><trkpt lat="44.814494947778286" lon="9.45662176479301"><ele>213.0</ele><time>2026-03-28T10:39:41.999Z</time></trkpt><trkpt lat="44.81440670698511" lon="9.45642533245295"><ele>215.33333333333331</ele><time>2026-03-28T10:39:42.999Z</time></trkpt><trkpt lat="44.81431923064949" lon="9.456230838852838"><ele>217.66666666666666</ele><time>2026-03-28T10:39:43.999Z</time></trkpt><trkpt lat="44.81423099376675" lon="9.45603484458249"><ele>220.0</ele><time>2026-03-28T10:39:44.999Z</time></trkpt><trkpt lat="44.814145240825724" lon="9.455842196792533"><ele>220.0</ele><time>2026-03-28T10:39:45.999Z</time></trkpt><trkpt lat="44.81405908585681" lon="9.455653134727454"><ele>220.0</ele><time>2026-03-28T10:39:46.999Z</time></trkpt><trkpt lat="44.81397325153546" lon="9.455464682732211"><ele>220.0</ele><time>2026-03-28T10:39:47.999Z</time></trkpt><trkpt lat="44.813886769150976" lon="9.455275201310796"><ele>218.33333333333331</ele><time>2026-03-28T10:39:48.999Z</time></trkpt><trkpt lat="44.8137998323833" lon="9.455085026938203"><ele>216.66666666666669</ele><time>2026-03-28T10:39:49.999Z</time></trkpt><trkpt lat="44.81371514043115" lon="9.454892296639558"><ele>215.0</ele><time>2026-03-28T10:39:50.999Z</time></trkpt><trkpt lat="44.813630234326524" lon="9.454701375719894"><ele>213.66666666666669</ele><time>2026-03-28T10:39:51.999Z</time></trkpt><trkpt lat="44.81354554548671" lon="9.45450891543786"><ele>212.33333333333331</ele><time>2026-03-28T10:39:52.999Z</time></trkpt><trkpt lat="44.813458699256906" lon="9.45431801966184"><ele>211.0</ele><time>2026-03-28T10:39:53.999Z</time></trkpt><trkpt lat="44.813371842760496" lon="9.45412751918621"><ele>212.0</ele><time>2026-03-28T10:39:54.999Z</time></trkpt><trkpt lat="44.813286356937354" lon="9.453934822402655"><ele>213.0</ele><time>2026-03-28T10:39:55.999Z</time></trkpt><trkpt lat="44.81319953248841" lon="9.453743964659225"><ele>214.0</ele><time>2026-03-28T10:39:56.999Z</time></trkpt><trkpt lat="44.81311379314739" lon="9.453552326858553"><ele>214.0</ele><time>2026-03-28T10:39:57.999Z</time></trkpt><trkpt lat="44.813026698370166" lon="9.45335386815313"><ele>214.0</ele><time>2026-03-28T10:39:58.999Z</time></trkpt><trkpt lat="44.81293762998685" lon="9.453151933605021"><ele>214.0</ele><time>2026-03-28T10:39:59.999Z</time></trkpt><trkpt lat="44.812848277228575" lon="9.452946048038646"><ele>213.33333333333331</ele><time>2026-03-28T10:40:00.999Z</time></trkpt><trkpt lat="44.81275345339204" lon="9.452735933900067"><ele>212.66666666666669</ele><time>2026-03-28T10:40:01.999Z</time></trkpt><trkpt lat="44.81265819171485" lon="9.45251614715809"><ele>212.0</ele><time>2026-03-28T10:40:02.999Z</time></trkpt><trkpt lat="44.81257240692646" lon="9.452283076301923"><ele>215.33333333333334</ele><time>2026-03-28T10:40:03.999Z</time></trkpt><trkpt lat="44.812496823997634" lon="9.452020195210316"><ele>218.66666666666669</ele><time>2026-03-28T10:40:04.999Z</time></trkpt><trkpt lat="44.81243065901087" lon="9.451733015447397"><ele>222.0</ele><time>2026-03-28T10:40:06Z</time></trkpt><trkpt lat="44.81237394614935" lon="9.451424028975067"><ele>220.5</ele><time>2026-03-28T10:40:07Z</time></trkpt><trkpt lat="44.81233346233017" lon="9.451106182151495"><ele>219.0</ele><time>2026-03-28T10:40:08Z</time></trkpt><trkpt lat="44.81229609145013" lon="9.450778745458683"><ele>219.0</ele><time>2026-03-28T10:40:09Z</time></trkpt><trkpt lat="44.81225578411341" lon="9.450474331621672"><ele>219.0</ele><time>2026-03-28T10:40:10Z</time></trkpt><trkpt lat="44.81221984481596" lon="9.450184152030793"><ele>219.0</ele><time>2026-03-28T10:40:11Z</time></trkpt><trkpt lat="44.81218725926298" lon="9.449894836819228"><ele>217.66666666666669</ele><time>2026-03-28T10:40:12Z</time></trkpt><trkpt lat="44.81215298072284" lon="9.449606486160636"><ele>216.33333333333334</ele><time>2026-03-28T10:40:13Z</time></trkpt><trkpt lat="44.81211590577067" lon="9.449315002598576"><ele>215.0</ele><time>2026-03-28T10:40:14Z</time></trkpt><trkpt lat="44.81207942326113" lon="9.449020068406687"><ele>214.66666666666669</ele><time>2026-03-28T10:40:15Z</time></trkpt><trkpt lat="44.81204357404208" lon="9.448723288209928"><ele>214.33333333333331</ele><time>2026-03-28T10:40:16Z</time></trkpt><trkpt lat="44.81200744155288" lon="9.448427965080048"><ele>214.0</ele><time>2026-03-28T10:40:17Z</time></trkpt><trkpt lat="44.811970353790365" lon="9.448131325500436"><ele>213.66666666666666</ele><time>2026-03-28T10:40:18Z</time></trkpt><trkpt lat="44.811934091858255" lon="9.447829613297069"><ele>213.33333333333331</ele><time>2026-03-28T10:40:19Z</time></trkpt><trkpt lat="44.81189713471536" lon="9.44752789637855"><ele>213.0</ele><time>2026-03-28T10:40:20Z</time></trkpt><trkpt lat="44.81186032033261" lon="9.447224812779737"><ele>213.66666666666669</ele><time>2026-03-28T10:40:21Z</time></trkpt><trkpt lat="44.811823658900124" lon="9.446922064781294"><ele>214.33333333333334</ele><time>2026-03-28T10:40:22Z</time></trkpt><trkpt lat="44.811784257465405" lon="9.44661542468885"><ele>215.0</ele><time>2026-03-28T10:40:23Z</time></trkpt><trkpt lat="44.81175055977526" lon="9.44630235132906"><ele>217.5</ele><time>2026-03-28T10:40:24Z</time></trkpt><trkpt lat="44.811711825540634" lon="9.445982977676323"><ele>220.0</ele><time>2026-03-28T10:40:25Z</time></trkpt><trkpt lat="44.81166205993447" lon="9.445659001387966"><ele>221.0</ele><time>2026-03-28T10:40:26Z</time></trkpt><trkpt lat="44.81162970020201" lon="9.445326514624245"><ele>222.0</ele><time>2026-03-28T10:40:27Z</time></trkpt><trkpt lat="44.81159939798913" lon="9.444993898519586"><ele>222.0</ele><time>2026-03-28T10:40:28Z</time></trkpt><trkpt lat="44.8115542403559" lon="9.444666881163347"><ele>222.0</ele><time>2026-03-28T10:40:29Z</time></trkpt><trkpt lat="44.81151344855228" lon="9.444341739661084"><ele>222.0</ele><time>2026-03-28T10:40:30Z</time></trkpt><trkpt lat="44.811475953859016" lon="9.444019914215712"><ele>222.0</ele><time>2026-03-28T10:40:31Z</time></trkpt><trkpt lat="44.81143769465954" lon="9.443689547244851"><ele>221.5</ele><time>2026-03-28T10:40:32Z</time></trkpt><trkpt lat="44.81139449610376" lon="9.443350050860637"><ele>221.0</ele><time>2026-03-28T10:40:33Z</time></trkpt><trkpt lat="44.811342016208336" lon="9.442997926085695"><ele>221.0</ele><time>2026-03-28T10:40:34Z</time></trkpt><trkpt lat="44.811284658350374" lon="9.442621601034046"><ele>221.0</ele><time>2026-03-28T10:40:35Z</time></trkpt><trkpt lat="44.81123593175405" lon="9.44221508735043"><ele>220.0</ele><time>2026-03-28T10:40:36Z</time></trkpt><trkpt lat="44.81119240535833" lon="9.441822450102457"><ele>219.0</ele><time>2026-03-28T10:40:37Z</time></trkpt><trkpt lat="44.81114962742847" lon="9.441464586333938"><ele>218.0</ele><time>2026-03-28T10:40:38Z</time></trkpt><trkpt lat="44.81110364009583" lon="9.44112848892079"><ele>217.0</ele><time>2026-03-28T10:40:39Z</time></trkpt><trkpt lat="44.81105530371321" lon="9.440811664816776"><ele>217.0</ele><time>2026-03-28T10:40:40Z</time></trkpt><trkpt lat="44.81099768064614" lon="9.440510973260096"><ele>217.0</ele><time>2026-03-28T10:40:41Z</time></trkpt><trkpt lat="44.81092021884095" lon="9.440210910294688"><ele>217.0</ele><time>2026-03-28T10:40:42Z</time></trkpt><trkpt lat="44.810809536416265" lon="9.439917450431697"><ele>219.0</ele><time>2026-03-28T10:40:43Z</time></trkpt><trkpt lat="44.810707392538426" lon="9.43962019866282"><ele>221.0</ele><time>2026-03-28T10:40:44Z</time></trkpt><trkpt lat="44.81060581224091" lon="9.43933218185669"><ele>221.0</ele><time>2026-03-28T10:40:45Z</time></trkpt><trkpt lat="44.810500858848926" lon="9.43905607096781"><ele>221.0</ele><time>2026-03-28T10:40:46Z</time></trkpt><trkpt lat="44.810216385599865" lon="9.438898976183605"><ele>225.0</ele><time>2026-03-28T10:40:47Z</time></trkpt><trkpt lat="44.810052885410464" lon="9.438656486631372"><ele>229.0</ele><time>2026-03-28T10:40:48Z</time></trkpt><trkpt lat="44.80988948809015" lon="9.438413259978903"><ele>229.0</ele><time>2026-03-28T10:40:49Z</time></trkpt><trkpt lat="44.80972733609942" lon="9.43817254472129"><ele>229.0</ele><time>2026-03-28T10:40:50Z</time></trkpt><trkpt lat="44.809567225268765" lon="9.437934741943236"><ele>230.5</ele><time>2026-03-28T10:40:51Z</time></trkpt><trkpt lat="44.809408459659686" lon="9.437699861031"><ele>232.0</ele><time>2026-03-28T10:40:52Z</time></trkpt><trkpt lat="44.80925624433449" lon="9.437469496869339"><ele>232.0</ele><time>2026-03-28T10:40:53Z</time></trkpt><trkpt lat="44.80911759301083" lon="9.437239786286755"><ele>232.0</ele><time>2026-03-28T10:40:54Z</time></trkpt><trkpt lat="44.80898894764171" lon="9.436986301973327"><ele>232.0</ele><time>2026-03-28T10:40:55Z</time></trkpt><trkpt lat="44.80887627690155" lon="9.436702221485044"><ele>227.0</ele><time>2026-03-28T10:40:56Z</time></trkpt><trkpt lat="44.80877917023635" lon="9.436410284477091"><ele>222.0</ele><time>2026-03-28T10:40:57Z</time></trkpt><trkpt lat="44.80868831234589" lon="9.436120210384033"><ele>221.66666666666669</ele><time>2026-03-28T10:40:58Z</time></trkpt><trkpt lat="44.808589800748045" lon="9.435837655531724"><ele>221.33333333333334</ele><time>2026-03-28T10:40:59Z</time></trkpt><trkpt lat="44.80848805195153" lon="9.435557533338882"><ele>221.0</ele><time>2026-03-28T10:41:00Z</time></trkpt><trkpt lat="44.80839000375613" lon="9.43527820734955"><ele>221.0</ele><time>2026-03-28T10:41:01Z</time></trkpt><trkpt lat="44.808295547407326" lon="9.435001519850724"><ele>221.0</ele><time>2026-03-28T10:41:02Z</time></trkpt><trkpt lat="44.808200438900556" lon="9.43472601289489"><ele>221.0</ele><time>2026-03-28T10:41:03Z</time></trkpt><trkpt lat="44.808104657193766" lon="9.434450050765577"><ele>221.0</ele><time>2026-03-28T10:41:04Z</time></trkpt><trkpt lat="44.808009610613674" lon="9.43417537490501"><ele>221.0</ele><time>2026-03-28T10:41:05Z</time></trkpt><trkpt lat="44.80791540363698" lon="9.433901345464028"><ele>221.0</ele><time>2026-03-28T10:41:06Z</time></trkpt><trkpt lat="44.807822545622514" lon="9.433635249582192"><ele>221.0</ele><time>2026-03-28T10:41:07Z</time></trkpt><trkpt lat="44.80773469460945" lon="9.433394135892332"><ele>221.0</ele><time>2026-03-28T10:41:08Z</time></trkpt><trkpt lat="44.8076504382392" lon="9.433156984109983"><ele>221.0</ele><time>2026-03-28T10:41:08.999Z</time></trkpt><trkpt lat="44.80756760805675" lon="9.432917764650483"><ele>222.33333333333334</ele><time>2026-03-28T10:41:09.999Z</time></trkpt><trkpt lat="44.807485048748084" lon="9.432682905716355"><ele>223.66666666666669</ele><time>2026-03-28T10:41:10.999Z</time></trkpt><trkpt lat="44.80740446873847" lon="9.432450401305093"><ele>225.0</ele><time>2026-03-28T10:41:11.999Z</time></trkpt><trkpt lat="44.807323723596085" lon="9.432216095574756"><ele>228.0</ele><time>2026-03-28T10:41:12.999Z</time></trkpt><trkpt lat="44.807241865893985" lon="9.431984093859645"><ele>231.0</ele><time>2026-03-28T10:41:13.999Z</time></trkpt><trkpt lat="44.807151625378516" lon="9.431759341616292"><ele>234.0</ele><time>2026-03-28T10:41:14.999Z</time></trkpt><trkpt lat="44.807057199479715" lon="9.43153939788224"><ele>234.0</ele><time>2026-03-28T10:41:15.999Z</time></trkpt><trkpt lat="44.80695992516754" lon="9.43132403168258"><ele>234.0</ele><time>2026-03-28T10:41:16.999Z</time></trkpt><trkpt lat="44.80685916185443" lon="9.431110359587139"><ele>234.0</ele><time>2026-03-28T10:41:17.999Z</time></trkpt><trkpt lat="44.806749857187036" lon="9.430896383890653"><ele>232.33333333333331</ele><time>2026-03-28T10:41:18.999Z</time></trkpt><trkpt lat="44.806636959607665" lon="9.430680408083635"><ele>230.66666666666666</ele><time>2026-03-28T10:41:19.999Z</time></trkpt><trkpt lat="44.806519994616814" lon="9.43046587567703"><ele>229.0</ele><time>2026-03-28T10:41:20.999Z</time></trkpt><trkpt lat="44.80639255353435" lon="9.43025387757866"><ele>229.0</ele><time>2026-03-28T10:41:21.999Z</time></trkpt><trkpt lat="44.80625952495221" lon="9.43004348450689"><ele>229.0</ele><time>2026-03-28T10:41:22.999Z</time></trkpt><trkpt lat="44.80611957701438" lon="9.429832980438155"><ele>229.0</ele><time>2026-03-28T10:41:23.999Z</time></trkpt><trkpt lat="44.80596500261146" lon="9.42962387952508"><ele>227.5</ele><time>2026-03-28T10:41:24.999Z</time></trkpt><trkpt lat="44.80580060910043" lon="9.42941311911755"><ele>226.0</ele><time>2026-03-28T10:41:25.999Z</time></trkpt><trkpt lat="44.805633058612266" lon="9.429188699336247"><ele>226.0</ele><time>2026-03-28T10:41:26.999Z</time></trkpt><trkpt lat="44.805460354803444" lon="9.428954605173455"><ele>226.0</ele><time>2026-03-28T10:41:27.999Z</time></trkpt><trkpt lat="44.805279522998326" lon="9.428723987640161"><ele>226.0</ele><time>2026-03-28T10:41:28.999Z</time></trkpt><trkpt lat="44.805096293064224" lon="9.428492331468476"><ele>226.0</ele><time>2026-03-28T10:41:29.999Z</time></trkpt><trkpt lat="44.80491546558572" lon="9.428256236621857"><ele>226.0</ele><time>2026-03-28T10:41:30.999Z</time></trkpt><trkpt lat="44.80473331752279" lon="9.428022065970687"><ele>226.0</ele><time>2026-03-28T10:41:31.999Z</time></trkpt><trkpt lat="44.80455520286848" lon="9.427790528964971"><ele>226.0</ele><time>2026-03-28T10:41:32.999Z</time></trkpt><trkpt lat="44.80438200234047" lon="9.427559999290498"><ele>226.0</ele><time>2026-03-28T10:41:33.999Z</time></trkpt><trkpt lat="44.804212521903096" lon="9.427331548506066"><ele>228.0</ele><time>2026-03-28T10:41:34.999Z</time></trkpt><trkpt lat="44.80404675854908" lon="9.427107683517505"><ele>230.0</ele><time>2026-03-28T10:41:35.999Z</time></trkpt><trkpt lat="44.803882027755485" lon="9.42688769365259"><ele>230.0</ele><time>2026-03-28T10:41:36.999Z</time></trkpt><trkpt lat="44.80371821234222" lon="9.426674271102023"><ele>230.0</ele><time>2026-03-28T10:41:37.999Z</time></trkpt><trkpt lat="44.803551661394735" lon="9.426465795848598"><ele>230.0</ele><time>2026-03-28T10:41:38.999Z</time></trkpt><trkpt lat="44.80337804588142" lon="9.42626695121872"><ele>228.5</ele><time>2026-03-28T10:41:39.999Z</time></trkpt><trkpt lat="44.80319966631334" lon="9.426065996719583"><ele>227.0</ele><time>2026-03-28T10:41:40.999Z</time></trkpt><trkpt lat="44.8030117566188" lon="9.425869561474206"><ele>227.0</ele><time>2026-03-28T10:41:41.999Z</time></trkpt><trkpt lat="44.80281453019861" lon="9.42568648046128"><ele>227.0</ele><time>2026-03-28T10:41:42.999Z</time></trkpt><trkpt lat="44.802606117026215" lon="9.425516077663584"><ele>229.0</ele><time>2026-03-28T10:41:43.999Z</time></trkpt><trkpt lat="44.80239230641633" lon="9.425355429601298"><ele>231.0</ele><time>2026-03-28T10:41:44.999Z</time></trkpt><trkpt lat="44.80217808845857" lon="9.425198760884578"><ele>231.0</ele><time>2026-03-28T10:41:45.999Z</time></trkpt><trkpt lat="44.80196521634148" lon="9.42504578314111"><ele>231.0</ele><time>2026-03-28T10:41:46.999Z</time></trkpt><trkpt lat="44.801760551067915" lon="9.42489779416143"><ele>229.66666666666669</ele><time>2026-03-28T10:41:47.999Z</time></trkpt><trkpt lat="44.80156629789138" lon="9.424752996284754"><ele>228.33333333333334</ele><time>2026-03-28T10:41:48.999Z</time></trkpt><trkpt lat="44.80137881305848" lon="9.424612581210553"><ele>227.0</ele><time>2026-03-28T10:41:49.999Z</time></trkpt><trkpt lat="44.801204762072025" lon="9.42448355680527"><ele>227.0</ele><time>2026-03-28T10:41:50.999Z</time></trkpt><trkpt lat="44.801047137871514" lon="9.424363689065153"><ele>227.0</ele><time>2026-03-28T10:41:51.999Z</time></trkpt><trkpt lat="44.80088861664823" lon="9.42424675841004"><ele>227.0</ele><time>2026-03-28T10:41:52.999Z</time></trkpt><trkpt lat="44.800725875149034" lon="9.424131593368742"><ele>227.33333333333334</ele><time>2026-03-28T10:41:53.999Z</time></trkpt><trkpt lat="44.80056326239837" lon="9.424017065383525"><ele>227.66666666666669</ele><time>2026-03-28T10:41:54.999Z</time></trkpt><trkpt lat="44.80039861790141" lon="9.423905604041057"><ele>228.0</ele><time>2026-03-28T10:41:55.999Z</time></trkpt><trkpt lat="44.80023279130514" lon="9.423791713932241"><ele>230.0</ele><time>2026-03-28T10:41:56.999Z</time></trkpt><trkpt lat="44.80006432890728" lon="9.423683422522494"><ele>232.0</ele><time>2026-03-28T10:41:57.999Z</time></trkpt><trkpt lat="44.79989032541026" lon="9.423590060064699"><ele>234.0</ele><time>2026-03-28T10:41:58.999Z</time></trkpt><trkpt lat="44.79971047381784" lon="9.423510273973466"><ele>234.0</ele><time>2026-03-28T10:41:59.999Z</time></trkpt><trkpt lat="44.79952676311541" lon="9.423439327546689"><ele>234.0</ele><time>2026-03-28T10:42:00.999Z</time></trkpt><trkpt lat="44.79934420123418" lon="9.423357919604033"><ele>234.0</ele><time>2026-03-28T10:42:01.999Z</time></trkpt><trkpt lat="44.79914883258112" lon="9.423310244042474"><ele>234.66666666666669</ele><time>2026-03-28T10:42:02.999Z</time></trkpt><trkpt lat="44.7989441779759" lon="9.423308666751941"><ele>235.33333333333334</ele><time>2026-03-28T10:42:03.999Z</time></trkpt><trkpt lat="44.79874145766059" lon="9.423281401598617"><ele>236.0</ele><time>2026-03-28T10:42:04.999Z</time></trkpt><trkpt lat="44.7985374782314" lon="9.423259177164994"><ele>237.66666666666669</ele><time>2026-03-28T10:42:05.999Z</time></trkpt><trkpt lat="44.79833133553152" lon="9.423230783364179"><ele>239.33333333333331</ele><time>2026-03-28T10:42:06.999Z</time></trkpt><trkpt lat="44.79812487734013" lon="9.42320045075393"><ele>241.0</ele><time>2026-03-28T10:42:07.999Z</time></trkpt><trkpt lat="44.79792427103896" lon="9.423117578296994"><ele>241.0</ele><time>2026-03-28T10:42:08.999Z</time></trkpt><trkpt lat="44.79771774877001" lon="9.423079148872814"><ele>241.0</ele><time>2026-03-28T10:42:09.999Z</time></trkpt><trkpt lat="44.797513984616536" lon="9.423033029051034"><ele>241.0</ele><time>2026-03-28T10:42:10.999Z</time></trkpt><trkpt lat="44.797315376620254" lon="9.422970088965961"><ele>240.66666666666666</ele><time>2026-03-28T10:42:12Z</time></trkpt><trkpt lat="44.79712093219015" lon="9.422891758867564"><ele>240.33333333333331</ele><time>2026-03-28T10:42:13Z</time></trkpt><trkpt lat="44.79693575874384" lon="9.42279709945641"><ele>240.0</ele><time>2026-03-28T10:42:14Z</time></trkpt><trkpt lat="44.79675550555922" lon="9.422699521653543"><ele>240.0</ele><time>2026-03-28T10:42:15Z</time></trkpt><trkpt lat="44.7965934304272" lon="9.422566701191617"><ele>240.0</ele><time>2026-03-28T10:42:16Z</time></trkpt><trkpt lat="44.79643649804727" lon="9.422435130471252"><ele>240.0</ele><time>2026-03-28T10:42:17Z</time></trkpt><trkpt lat="44.79627437693006" lon="9.422284270217752"><ele>242.33333333333331</ele><time>2026-03-28T10:42:18Z</time></trkpt><trkpt lat="44.796116715282224" lon="9.422113223403704"><ele>244.66666666666666</ele><time>2026-03-28T10:42:19Z</time></trkpt><trkpt lat="44.79596478779797" lon="9.4219230107028"><ele>247.0</ele><time>2026-03-28T10:42:20Z</time></trkpt><trkpt lat="44.79581315625458" lon="9.421720393065396"><ele>247.0</ele><time>2026-03-28T10:42:21Z</time></trkpt><trkpt lat="44.795655847452224" lon="9.421518295038046"><ele>247.0</ele><time>2026-03-28T10:42:22Z</time></trkpt><trkpt lat="44.79549471051112" lon="9.421309873097366"><ele>247.0</ele><time>2026-03-28T10:42:23Z</time></trkpt><trkpt lat="44.79533435132558" lon="9.421097269614831"><ele>245.33333333333331</ele><time>2026-03-28T10:42:24Z</time></trkpt><trkpt lat="44.79517316153024" lon="9.42089028184168"><ele>243.66666666666669</ele><time>2026-03-28T10:42:25Z</time></trkpt><trkpt lat="44.7950111300125" lon="9.42067669365352"><ele>242.0</ele><time>2026-03-28T10:42:26Z</time></trkpt><trkpt lat="44.794850969638105" lon="9.420463024697955"><ele>255.0</ele><time>2026-03-28T10:42:27Z</time></trkpt><trkpt lat="44.79469462511296" lon="9.420251542790696"><ele>268.0</ele><time>2026-03-28T10:42:28Z</time></trkpt><trkpt lat="44.79454100804121" lon="9.420041228556784"><ele>281.0</ele><time>2026-03-28T10:42:29Z</time></trkpt><trkpt lat="44.79438886509618" lon="9.419831383600838"><ele>295.33333333333337</ele><time>2026-03-28T10:42:30Z</time></trkpt><trkpt lat="44.79424073898226" lon="9.419623111903988"><ele>309.6666666666667</ele><time>2026-03-28T10:42:31Z</time></trkpt><trkpt lat="44.79409146160702" lon="9.4194117767874"><ele>324.0</ele><time>2026-03-28T10:42:32Z</time></trkpt><trkpt lat="44.79394379675323" lon="9.419199491169582"><ele>324.0</ele><time>2026-03-28T10:42:33Z</time></trkpt><trkpt lat="44.793798202175765" lon="9.418984007606815"><ele>324.0</ele><time>2026-03-28T10:42:34Z</time></trkpt><trkpt lat="44.79365401182873" lon="9.418769368308789"><ele>324.0</ele><time>2026-03-28T10:42:35Z</time></trkpt><trkpt lat="44.7935074449474" lon="9.418538477278828"><ele>335.6666666666667</ele><time>2026-03-28T10:42:36.026Z</time></trkpt><trkpt lat="44.793367262626184" lon="9.418317060996168"><ele>347.33333333333337</ele><time>2026-03-28T10:42:37.023Z</time></trkpt><trkpt lat="44.79320354006111" lon="9.418127686987056"><ele>359.0</ele><time>2026-03-28T10:42:38.024Z</time></trkpt><trkpt lat="44.793050605724524" lon="9.417926075480572"><ele>406.0</ele><time>2026-03-28T10:42:39.016Z</time></trkpt><trkpt lat="44.79247136035875" lon="9.417311425219431"><ele>400.0</ele><time>2026-03-28T10:42:42.437Z</time></trkpt><trkpt lat="44.792315923386504" lon="9.417107345274111"><ele>394.0</ele><time>2026-03-28T10:42:43.437Z</time></trkpt><trkpt lat="44.792160946575976" lon="9.416903864956122"><ele>388.0</ele><time>2026-03-28T10:42:44.434Z</time></trkpt><trkpt lat="44.79200504566287" lon="9.416699171395026"><ele>377.6666666666667</ele><time>2026-03-28T10:42:45.437Z</time></trkpt><trkpt lat="44.79183824143868" lon="9.4165121667835"><ele>367.33333333333337</ele><time>2026-03-28T10:42:46.437Z</time></trkpt><trkpt lat="44.79169409079818" lon="9.416291074485267"><ele>357.0</ele><time>2026-03-28T10:42:47.437Z</time></trkpt><trkpt lat="44.79152689660299" lon="9.41610474216265"><ele>347.0</ele><time>2026-03-28T10:42:48.437Z</time></trkpt><trkpt lat="44.79137104855123" lon="9.415901299543659"><ele>337.0</ele><time>2026-03-28T10:42:49.437Z</time></trkpt><trkpt lat="44.791227619011345" lon="9.415679331639057"><ele>327.0</ele><time>2026-03-28T10:42:50.437Z</time></trkpt><trkpt lat="44.791060751583295" lon="9.415492293297202"><ele>304.3333333333333</ele><time>2026-03-28T10:42:51.437Z</time></trkpt><trkpt lat="44.790904639103516" lon="9.41528923418909"><ele>281.66666666666663</ele><time>2026-03-28T10:42:52.437Z</time></trkpt><trkpt lat="44.79076111532731" lon="9.41506741525954"><ele>259.0</ele><time>2026-03-28T10:42:53.437Z</time></trkpt><trkpt lat="44.79060680978473" lon="9.414863349806977"><ele>259.0</ele><time>2026-03-28T10:42:54.433Z</time></trkpt><trkpt lat="44.79043901537586" lon="9.414676777755279"><ele>259.0</ele><time>2026-03-28T10:42:55.435Z</time></trkpt><trkpt lat="44.790126658086464" lon="9.414193220445341"><ele>249.5</ele><time>2026-03-28T10:42:56Z</time></trkpt><trkpt lat="44.78995964648883" lon="9.413978016570415"><ele>240.0</ele><time>2026-03-28T10:42:57Z</time></trkpt><trkpt lat="44.78977791363573" lon="9.413778082472785"><ele>239.0</ele><time>2026-03-28T10:42:58Z</time></trkpt><trkpt lat="44.789606000843285" lon="9.413578211174265"><ele>238.0</ele><time>2026-03-28T10:42:59Z</time></trkpt><trkpt lat="44.789439856494866" lon="9.413361567134862"><ele>237.0</ele><time>2026-03-28T10:43:00Z</time></trkpt><trkpt lat="44.78928071323551" lon="9.413146831716807"><ele>237.0</ele><time>2026-03-28T10:43:01Z</time></trkpt><trkpt lat="44.78917041593958" lon="9.412877988540519"><ele>237.0</ele><time>2026-03-28T10:43:02Z</time></trkpt><trkpt lat="44.78900496289358" lon="9.412660799800744"><ele>237.0</ele><time>2026-03-28T10:43:03Z</time></trkpt><trkpt lat="44.788820405846444" lon="9.412450280146919"><ele>237.0</ele><time>2026-03-28T10:43:04Z</time></trkpt><trkpt lat="44.788643284485" lon="9.412212540322972"><ele>237.0</ele><time>2026-03-28T10:43:05Z</time></trkpt><trkpt lat="44.78845714920604" lon="9.411966014630265"><ele>237.5</ele><time>2026-03-28T10:43:06Z</time></trkpt><trkpt lat="44.7882685354909" lon="9.411717270089552"><ele>238.0</ele><time>2026-03-28T10:43:07Z</time></trkpt><trkpt lat="44.78807843077326" lon="9.411471166072497"><ele>237.5</ele><time>2026-03-28T10:43:08Z</time></trkpt><trkpt lat="44.78788542623171" lon="9.411224304399825"><ele>237.0</ele><time>2026-03-28T10:43:09Z</time></trkpt><trkpt lat="44.78769459426456" lon="9.410980135692016"><ele>238.5</ele><time>2026-03-28T10:43:10Z</time></trkpt><trkpt lat="44.7875047546414" lon="9.41073397359804"><ele>240.0</ele><time>2026-03-28T10:43:11Z</time></trkpt><trkpt lat="44.787318362343406" lon="9.410491963910232"><ele>238.5</ele><time>2026-03-28T10:43:12Z</time></trkpt><trkpt lat="44.78713402540544" lon="9.410247027535084"><ele>237.0</ele><time>2026-03-28T10:43:13Z</time></trkpt><trkpt lat="44.786948289107144" lon="9.410008369798385"><ele>241.5</ele><time>2026-03-28T10:43:14Z</time></trkpt><trkpt lat="44.78676405007647" lon="9.409769769149666"><ele>246.0</ele><time>2026-03-28T10:43:15Z</time></trkpt><trkpt lat="44.78658396767603" lon="9.409530890394745"><ele>246.0</ele><time>2026-03-28T10:43:16Z</time></trkpt><trkpt lat="44.786405637349304" lon="9.409296105067574"><ele>246.0</ele><time>2026-03-28T10:43:17Z</time></trkpt><trkpt lat="44.786229299347646" lon="9.409065155201366"><ele>246.0</ele><time>2026-03-28T10:43:18Z</time></trkpt><trkpt lat="44.78605565139272" lon="9.408839375857118"><ele>246.0</ele><time>2026-03-28T10:43:19Z</time></trkpt><trkpt lat="44.785884819437435" lon="9.408616187241734"><ele>246.0</ele><time>2026-03-28T10:43:20Z</time></trkpt><trkpt lat="44.78571649791204" lon="9.408399483315046"><ele>246.0</ele><time>2026-03-28T10:43:21Z</time></trkpt><trkpt lat="44.7855506481356" lon="9.408183632581398"><ele>244.5</ele><time>2026-03-28T10:43:22Z</time></trkpt><trkpt lat="44.78538418224659" lon="9.407965519521651"><ele>243.0</ele><time>2026-03-28T10:43:23Z</time></trkpt><trkpt lat="44.78521337289089" lon="9.407743851995393"><ele>245.5</ele><time>2026-03-28T10:43:24Z</time></trkpt><trkpt lat="44.78504247789314" lon="9.407516179798696"><ele>248.0</ele><time>2026-03-28T10:43:25Z</time></trkpt><trkpt lat="44.784879486629286" lon="9.407281344942923"><ele>247.0</ele><time>2026-03-28T10:43:26Z</time></trkpt><trkpt lat="44.784713065372074" lon="9.407043474761943"><ele>246.0</ele><time>2026-03-28T10:43:26.999Z</time></trkpt><trkpt lat="44.78454875682823" lon="9.406807185026393"><ele>246.0</ele><time>2026-03-28T10:43:27.999Z</time></trkpt><trkpt lat="44.7843819248297" lon="9.406570387359535"><ele>246.0</ele><time>2026-03-28T10:43:28.999Z</time></trkpt><trkpt lat="44.78421303033878" lon="9.406329857091063"><ele>245.0</ele><time>2026-03-28T10:43:29.999Z</time></trkpt><trkpt lat="44.78404223339536" lon="9.406086820510332"><ele>244.0</ele><time>2026-03-28T10:43:30.999Z</time></trkpt><trkpt lat="44.78387051594601" lon="9.40584081646002"><ele>244.0</ele><time>2026-03-28T10:43:31.999Z</time></trkpt><trkpt lat="44.783697405850184" lon="9.405590755928225"><ele>244.0</ele><time>2026-03-28T10:43:32.999Z</time></trkpt><trkpt lat="44.783519421862955" lon="9.405336722006615"><ele>242.5</ele><time>2026-03-28T10:43:33.999Z</time></trkpt><trkpt lat="44.7833470545866" lon="9.40508020683793"><ele>241.0</ele><time>2026-03-28T10:43:34.999Z</time></trkpt><trkpt lat="44.783174130376445" lon="9.404822811275642"><ele>241.0</ele><time>2026-03-28T10:43:35.999Z</time></trkpt><trkpt lat="44.782999272941964" lon="9.404565361788496"><ele>241.0</ele><time>2026-03-28T10:43:36.999Z</time></trkpt><trkpt lat="44.782824332252105" lon="9.404311005890035"><ele>242.0</ele><time>2026-03-28T10:43:37.999Z</time></trkpt><trkpt lat="44.782651685915205" lon="9.404068494992451"><ele>243.0</ele><time>2026-03-28T10:43:38.999Z</time></trkpt><trkpt lat="44.78247965965177" lon="9.403832205711083"><ele>243.5</ele><time>2026-03-28T10:43:39.999Z</time></trkpt><trkpt lat="44.782313185273956" lon="9.40360354598416"><ele>244.0</ele><time>2026-03-28T10:43:40.999Z</time></trkpt><trkpt lat="44.78215610393852" lon="9.403377972431901"><ele>244.0</ele><time>2026-03-28T10:43:41.999Z</time></trkpt><trkpt lat="44.78200102977" lon="9.403150915117847"><ele>244.0</ele><time>2026-03-28T10:43:42.999Z</time></trkpt><trkpt lat="44.78184722149477" lon="9.402924374120175"><ele>244.0</ele><time>2026-03-28T10:43:43.999Z</time></trkpt><trkpt lat="44.78169225036042" lon="9.40270127385719"><ele>245.0</ele><time>2026-03-28T10:43:44.999Z</time></trkpt><trkpt lat="44.781536695786954" lon="9.402475608700692"><ele>246.0</ele><time>2026-03-28T10:43:45.999Z</time></trkpt><trkpt lat="44.78137659438465" lon="9.402253466588482"><ele>247.0</ele><time>2026-03-28T10:43:46.999Z</time></trkpt><trkpt lat="44.78121802301573" lon="9.402024070584366"><ele>247.5</ele><time>2026-03-28T10:43:47.999Z</time></trkpt><trkpt lat="44.781055475351835" lon="9.401797739740429"><ele>248.0</ele><time>2026-03-28T10:43:48.999Z</time></trkpt><trkpt lat="44.78090067328914" lon="9.401564639648996"><ele>250.33333333333334</ele><time>2026-03-28T10:43:49.999Z</time></trkpt><trkpt lat="44.78075263677961" lon="9.401330615534313"><ele>252.66666666666669</ele><time>2026-03-28T10:43:50.999Z</time></trkpt><trkpt lat="44.78062057497284" lon="9.401098423413567"><ele>255.0</ele><time>2026-03-28T10:43:51.999Z</time></trkpt><trkpt lat="44.780493685750585" lon="9.400857038671427"><ele>255.0</ele><time>2026-03-28T10:43:52.999Z</time></trkpt><trkpt lat="44.780378810428054" lon="9.400606267104408"><ele>255.0</ele><time>2026-03-28T10:43:53.999Z</time></trkpt><trkpt lat="44.780274547429045" lon="9.40034892249166"><ele>255.0</ele><time>2026-03-28T10:43:54.999Z</time></trkpt><trkpt lat="44.78018336977087" lon="9.40008114336622"><ele>255.66666666666669</ele><time>2026-03-28T10:43:55.999Z</time></trkpt><trkpt lat="44.7801026850463" lon="9.399806985573"><ele>256.33333333333337</ele><time>2026-03-28T10:43:56.999Z</time></trkpt><trkpt lat="44.78003138229788" lon="9.399524924833702"><ele>257.0</ele><time>2026-03-28T10:43:57.999Z</time></trkpt><trkpt lat="44.77997342446398" lon="9.399239160037958"><ele>257.0</ele><time>2026-03-28T10:43:58.999Z</time></trkpt><trkpt lat="44.779925675799106" lon="9.398947080870892"><ele>257.0</ele><time>2026-03-28T10:43:59.999Z</time></trkpt><trkpt lat="44.779896554622866" lon="9.398652984418755"><ele>257.0</ele><time>2026-03-28T10:44:00.999Z</time></trkpt><trkpt lat="44.779846664761656" lon="9.398364030865952"><ele>258.0</ele><time>2026-03-28T10:44:01.999Z</time></trkpt><trkpt lat="44.779828658532466" lon="9.39806246704414"><ele>259.0</ele><time>2026-03-28T10:44:02.999Z</time></trkpt><trkpt lat="44.779807945373996" lon="9.397762060987628"><ele>260.0</ele><time>2026-03-28T10:44:03.999Z</time></trkpt><trkpt lat="44.77978497746468" lon="9.397462296125362"><ele>262.33333333333337</ele><time>2026-03-28T10:44:04.999Z</time></trkpt><trkpt lat="44.779757478369866" lon="9.39716292531369"><ele>264.6666666666667</ele><time>2026-03-28T10:44:05.999Z</time></trkpt><trkpt lat="44.77972811563149" lon="9.396864687844007"><ele>267.0</ele><time>2026-03-28T10:44:06.999Z</time></trkpt><trkpt lat="44.7796948181386" lon="9.396568847439449"><ele>269.6666666666667</ele><time>2026-03-28T10:44:07.999Z</time></trkpt><trkpt lat="44.77964981452153" lon="9.396275660729946"><ele>272.33333333333337</ele><time>2026-03-28T10:44:08.999Z</time></trkpt><trkpt lat="44.77959381210185" lon="9.395985423595443"><ele>275.0</ele><time>2026-03-28T10:44:09.999Z</time></trkpt><trkpt lat="44.77953502290169" lon="9.395695026242306"><ele>276.6666666666667</ele><time>2026-03-28T10:44:10.999Z</time></trkpt><trkpt lat="44.77946939406873" lon="9.395408448614742"><ele>278.3333333333333</ele><time>2026-03-28T10:44:11.999Z</time></trkpt><trkpt lat="44.77939917970283" lon="9.395123785687815"><ele>280.0</ele><time>2026-03-28T10:44:12.999Z</time></trkpt><trkpt lat="44.77932925018691" lon="9.39483938132827"><ele>271.0</ele><time>2026-03-28T10:44:13.999Z</time></trkpt><trkpt lat="44.7792459461276" lon="9.394561895708382"><ele>262.0</ele><time>2026-03-28T10:44:14.999Z</time></trkpt><trkpt lat="44.77915367492036" lon="9.39428997390651"><ele>253.0</ele><time>2026-03-28T10:44:15.999Z</time></trkpt><trkpt lat="44.7790498408645" lon="9.394026578322594"><ele>256.66666666666663</ele><time>2026-03-28T10:44:16.999Z</time></trkpt><trkpt lat="44.77893815714514" lon="9.393769369097766"><ele>260.3333333333333</ele><time>2026-03-28T10:44:18Z</time></trkpt><trkpt lat="44.77882303406944" lon="9.393516019611884"><ele>264.0</ele><time>2026-03-28T10:44:19Z</time></trkpt><trkpt lat="44.77870773559614" lon="9.393262568619184"><ele>264.0</ele><time>2026-03-28T10:44:20Z</time></trkpt><trkpt lat="44.77858718023722" lon="9.393013636404742"><ele>264.0</ele><time>2026-03-28T10:44:21Z</time></trkpt><trkpt lat="44.77848173392172" lon="9.392754825933116"><ele>264.0</ele><time>2026-03-28T10:44:22Z</time></trkpt><trkpt lat="44.77836358992657" lon="9.392507097771947"><ele>261.0</ele><time>2026-03-28T10:44:23Z</time></trkpt><trkpt lat="44.7781765938241" lon="9.392322777802589"><ele>258.0</ele><time>2026-03-28T10:44:24Z</time></trkpt><trkpt lat="44.778026142251726" lon="9.392108870933887"><ele>255.0</ele><time>2026-03-28T10:44:25Z</time></trkpt><trkpt lat="44.777868651720894" lon="9.391905594415983"><ele>255.33333333333331</ele><time>2026-03-28T10:44:26Z</time></trkpt><trkpt lat="44.77770336319201" lon="9.39171492118675"><ele>255.66666666666666</ele><time>2026-03-28T10:44:27Z</time></trkpt><trkpt lat="44.77753448356958" lon="9.391535438185459"><ele>256.0</ele><time>2026-03-28T10:44:28Z</time></trkpt><trkpt lat="44.77738337210545" lon="9.391382081285382"><ele>261.0</ele><time>2026-03-28T10:44:29Z</time></trkpt><trkpt lat="44.777248585158375" lon="9.391236348971434"><ele>266.0</ele><time>2026-03-28T10:44:30Z</time></trkpt><trkpt lat="44.77713363955048" lon="9.391112068955247"><ele>271.0</ele><time>2026-03-28T10:44:31Z</time></trkpt><trkpt lat="44.77703647126894" lon="9.391009396063929"><ele>276.0</ele><time>2026-03-28T10:44:32Z</time></trkpt><trkpt lat="44.77695768325272" lon="9.39093125926246"><ele>276.0</ele><time>2026-03-28T10:44:33Z</time></trkpt><trkpt lat="44.776889496631696" lon="9.390863534469952"><ele>276.0</ele><time>2026-03-28T10:44:34Z</time></trkpt><trkpt lat="44.77683246243131" lon="9.390803950523123"><ele>276.0</ele><time>2026-03-28T10:44:35Z</time></trkpt><trkpt lat="44.77675324664702" lon="9.390699584796277"><ele>276.0</ele><time>2026-03-28T10:44:37Z</time></trkpt><trkpt lat="44.776699179086634" lon="9.390531665017054"><ele>276.0</ele><time>2026-03-28T10:44:39Z</time></trkpt><trkpt lat="44.77668576868986" lon="9.390398133658511"><ele>274.8</ele><time>2026-03-28T10:44:40Z</time></trkpt><trkpt lat="44.77666726993965" lon="9.390263776649194"><ele>273.6</ele><time>2026-03-28T10:44:41Z</time></trkpt><trkpt lat="44.77661467072662" lon="9.390147886128899"><ele>272.4</ele><time>2026-03-28T10:44:42Z</time></trkpt><trkpt lat="44.776527022801815" lon="9.390081537647868"><ele>271.2</ele><time>2026-03-28T10:44:43Z</time></trkpt><trkpt lat="44.77641373046141" lon="9.39006338471368"><ele>270.0</ele><time>2026-03-28T10:44:44Z</time></trkpt><trkpt lat="44.77630226745696" lon="9.390038596610916"><ele>270.0</ele><time>2026-03-28T10:44:45Z</time></trkpt><trkpt lat="44.77619193040582" lon="9.389993324563925"><ele>270.0</ele><time>2026-03-28T10:44:46Z</time></trkpt><trkpt lat="44.776077524912374" lon="9.38993224722009"><ele>270.0</ele><time>2026-03-28T10:44:47Z</time></trkpt><trkpt lat="44.77595883898279" lon="9.389848788308793"><ele>270.0</ele><time>2026-03-28T10:44:48Z</time></trkpt><trkpt lat="44.77594743507467" lon="9.389643420624362"><ele>269.6666666666667</ele><time>2026-03-28T10:44:49Z</time></trkpt><trkpt lat="44.77584271071525" lon="9.389502160948824"><ele>269.33333333333337</ele><time>2026-03-28T10:44:50Z</time></trkpt><trkpt lat="44.77573807869359" lon="9.389342609544649"><ele>269.0</ele><time>2026-03-28T10:44:51Z</time></trkpt><trkpt lat="44.77563699992065" lon="9.38918532904758"><ele>269.0</ele><time>2026-03-28T10:44:52Z</time></trkpt><trkpt lat="44.77555233503622" lon="9.389043530271726"><ele>269.0</ele><time>2026-03-28T10:44:53Z</time></trkpt><trkpt lat="44.775498364819406" lon="9.388880220838404"><ele>269.0</ele><time>2026-03-28T10:44:54Z</time></trkpt><trkpt lat="44.77545435359644" lon="9.388706464969939"><ele>269.0</ele><time>2026-03-28T10:44:55Z</time></trkpt><trkpt lat="44.77540564444801" lon="9.388518014456524"><ele>270.75</ele><time>2026-03-28T10:44:56Z</time></trkpt><trkpt lat="44.77535107744312" lon="9.388324629653242"><ele>272.5</ele><time>2026-03-28T10:44:57Z</time></trkpt><trkpt lat="44.775297342373705" lon="9.388150183536784"><ele>274.25</ele><time>2026-03-28T10:44:58Z</time></trkpt><trkpt lat="44.77525024538619" lon="9.387990384452957"><ele>276.0</ele><time>2026-03-28T10:44:59Z</time></trkpt><trkpt lat="44.775203189163754" lon="9.387833877534446"><ele>276.2</ele><time>2026-03-28T10:45:00Z</time></trkpt><trkpt lat="44.7751558174678" lon="9.387691070410185"><ele>276.40000000000003</ele><time>2026-03-28T10:45:01Z</time></trkpt><trkpt lat="44.775102803968664" lon="9.387553564899685"><ele>276.6</ele><time>2026-03-28T10:45:02Z</time></trkpt><trkpt lat="44.775049443352835" lon="9.387419027882842"><ele>276.8</ele><time>2026-03-28T10:45:03Z</time></trkpt><trkpt lat="44.7749964207479" lon="9.387291815672102"><ele>277.0</ele><time>2026-03-28T10:45:04Z</time></trkpt><trkpt lat="44.774935782879865" lon="9.387173927907666"><ele>277.0</ele><time>2026-03-28T10:45:05Z</time></trkpt><trkpt lat="44.774849723329524" lon="9.38706914308633"><ele>277.0</ele><time>2026-03-28T10:45:06Z</time></trkpt><trkpt lat="44.77474943603454" lon="9.386984619386046"><ele>277.0</ele><time>2026-03-28T10:45:07Z</time></trkpt><trkpt lat="44.77463713535749" lon="9.3869159930378"><ele>277.0</ele><time>2026-03-28T10:45:08Z</time></trkpt><trkpt lat="44.774520218300886" lon="9.386870828317608"><ele>277.0</ele><time>2026-03-28T10:45:09Z</time></trkpt><trkpt lat="44.77439768059569" lon="9.386847784947687"><ele>277.0</ele><time>2026-03-28T10:45:10Z</time></trkpt><trkpt lat="44.774273870762876" lon="9.386846248372391"><ele>277.0</ele><time>2026-03-28T10:45:11Z</time></trkpt><trkpt lat="44.77415179053039" lon="9.386843834668053"><ele>277.0</ele><time>2026-03-28T10:45:12Z</time></trkpt><trkpt lat="44.77402478146451" lon="9.386855497098567"><ele>273.5</ele><time>2026-03-28T10:45:13Z</time></trkpt><trkpt lat="44.773907791914425" lon="9.38684515095845"><ele>270.0</ele><time>2026-03-28T10:45:14Z</time></trkpt><trkpt lat="44.77378982762126" lon="9.386834351401543"><ele>266.5</ele><time>2026-03-28T10:45:15Z</time></trkpt><trkpt lat="44.773677380443665" lon="9.386819915646583"><ele>263.0</ele><time>2026-03-28T10:45:16Z</time></trkpt><trkpt lat="44.77356623038091" lon="9.386799645688503"><ele>263.8</ele><time>2026-03-28T10:45:17Z</time></trkpt><trkpt lat="44.773456815569894" lon="9.386774872006795"><ele>264.6</ele><time>2026-03-28T10:45:18Z</time></trkpt><trkpt lat="44.77334753395607" lon="9.386751682354795"><ele>265.4</ele><time>2026-03-28T10:45:19Z</time></trkpt><trkpt lat="44.77323897440498" lon="9.386725179939653"><ele>266.2</ele><time>2026-03-28T10:45:20Z</time></trkpt><trkpt lat="44.77313428301374" lon="9.386703695913823"><ele>267.0</ele><time>2026-03-28T10:45:21Z</time></trkpt><trkpt lat="44.773035181560815" lon="9.386682311326316"><ele>267.0</ele><time>2026-03-28T10:45:22Z</time></trkpt><trkpt lat="44.77295174564538" lon="9.386662793628965"><ele>267.0</ele><time>2026-03-28T10:45:23Z</time></trkpt><trkpt lat="44.772871494440935" lon="9.386648216640758"><ele>267.0</ele><time>2026-03-28T10:45:24Z</time></trkpt><trkpt lat="44.77278396569722" lon="9.386623908901132"><ele>267.0</ele><time>2026-03-28T10:45:25Z</time></trkpt><trkpt lat="44.772691618443204" lon="9.386602336466169"><ele>267.0</ele><time>2026-03-28T10:45:26Z</time></trkpt><trkpt lat="44.77259755485888" lon="9.386576375980557"><ele>267.0</ele><time>2026-03-28T10:45:27Z</time></trkpt><trkpt lat="44.77250909037566" lon="9.386523998227329"><ele>267.8</ele><time>2026-03-28T10:45:28Z</time></trkpt><trkpt lat="44.77241728974009" lon="9.386502279335012"><ele>268.6</ele><time>2026-03-28T10:45:29Z</time></trkpt><trkpt lat="44.772325103610875" lon="9.3864804624806"><ele>269.40000000000003</ele><time>2026-03-28T10:45:30Z</time></trkpt><trkpt lat="44.77223044711674" lon="9.38645806098032"><ele>270.2</ele><time>2026-03-28T10:45:31Z</time></trkpt><trkpt lat="44.77213551756497" lon="9.386435420163192"><ele>271.0</ele><time>2026-03-28T10:45:32Z</time></trkpt><trkpt lat="44.77203865144624" lon="9.386443513750082"><ele>271.0</ele><time>2026-03-28T10:45:33Z</time></trkpt><trkpt lat="44.77194769614905" lon="9.386417026980595"><ele>271.0</ele><time>2026-03-28T10:45:33.999Z</time></trkpt><trkpt lat="44.771855710116824" lon="9.386399085081766"><ele>271.0</ele><time>2026-03-28T10:45:34.999Z</time></trkpt><trkpt lat="44.771768135649666" lon="9.38637720819921"><ele>271.0</ele><time>2026-03-28T10:45:35.999Z</time></trkpt><trkpt lat="44.771684056070974" lon="9.386327336134377"><ele>271.0</ele><time>2026-03-28T10:45:36.999Z</time></trkpt><trkpt lat="44.771594977290654" lon="9.386305857350031"><ele>272.3333333333333</ele><time>2026-03-28T10:45:37.999Z</time></trkpt><trkpt lat="44.77150581868381" lon="9.386284803590524"><ele>273.66666666666663</ele><time>2026-03-28T10:45:38.999Z</time></trkpt><trkpt lat="44.7714162700351" lon="9.386263657732378"><ele>275.0</ele><time>2026-03-28T10:45:39.999Z</time></trkpt><trkpt lat="44.771328973523744" lon="9.386242778179637"><ele>276.3333333333333</ele><time>2026-03-28T10:45:40.999Z</time></trkpt><trkpt lat="44.77124255253054" lon="9.386222179509513"><ele>277.6666666666667</ele><time>2026-03-28T10:45:41.999Z</time></trkpt><trkpt lat="44.771156096777936" lon="9.386201572557178"><ele>279.0</ele><time>2026-03-28T10:45:42.999Z</time></trkpt><trkpt lat="44.771068445475116" lon="9.386180680639598"><ele>279.8333333333333</ele><time>2026-03-28T10:45:43.999Z</time></trkpt><trkpt lat="44.770983551728115" lon="9.386160035159309"><ele>280.6666666666667</ele><time>2026-03-28T10:45:44.999Z</time></trkpt><trkpt lat="44.770894875413816" lon="9.386168064021659"><ele>281.5</ele><time>2026-03-28T10:45:45.999Z</time></trkpt><trkpt lat="44.770811474487765" lon="9.386146749104885"><ele>282.33333333333337</ele><time>2026-03-28T10:45:46.999Z</time></trkpt><trkpt lat="44.77072857237235" lon="9.386125600504178"><ele>283.1666666666667</ele><time>2026-03-28T10:45:47.999Z</time></trkpt><trkpt lat="44.770648736731246" lon="9.38610692208853"><ele>284.0</ele><time>2026-03-28T10:45:48.999Z</time></trkpt><trkpt lat="44.77057269489922" lon="9.386063257027141"><ele>284.0</ele><time>2026-03-28T10:45:49.999Z</time></trkpt><trkpt lat="44.770492807241" lon="9.386069820376703"><ele>284.0</ele><time>2026-03-28T10:45:50.999Z</time></trkpt><trkpt lat="44.77041724749977" lon="9.38605379957329"><ele>284.0</ele><time>2026-03-28T10:45:51.999Z</time></trkpt><trkpt lat="44.770351280719105" lon="9.386021482291033"><ele>284.0</ele><time>2026-03-28T10:45:52.999Z</time></trkpt><trkpt lat="44.770277027983354" lon="9.386031628733098"><ele>284.0</ele><time>2026-03-28T10:45:54.999Z</time></trkpt><trkpt lat="44.770201623509394" lon="9.38602363520746"><ele>284.0</ele><time>2026-03-28T10:45:58.999Z</time></trkpt><trkpt lat="44.770162543106736" lon="9.385875199336867"><ele>284.0</ele><time>2026-03-28T10:46:52Z</time></trkpt><trkpt lat="44.77014554913848" lon="9.385772263200975"><ele>284.0</ele><time>2026-03-28T10:46:53Z</time></trkpt><trkpt lat="44.77013999775992" lon="9.385679898730555"><ele>284.0</ele><time>2026-03-28T10:46:54Z</time></trkpt><trkpt lat="44.77017347457342" lon="9.385518688781161"><ele>284.0</ele><time>2026-03-28T10:46:56Z</time></trkpt><trkpt lat="44.77018083371593" lon="9.385347828062534"><ele>284.0</ele><time>2026-03-28T10:46:58Z</time></trkpt><trkpt lat="44.77016607844022" lon="9.385248510841244"><ele>284.83333333333337</ele><time>2026-03-28T10:46:59Z</time></trkpt><trkpt lat="44.77014769171199" lon="9.385145193226398"><ele>285.6666666666667</ele><time>2026-03-28T10:47:00Z</time></trkpt><trkpt lat="44.77011433176083" lon="9.385047233658591"><ele>286.5</ele><time>2026-03-28T10:47:01Z</time></trkpt><trkpt lat="44.770075733245704" lon="9.384947537649248"><ele>287.3333333333333</ele><time>2026-03-28T10:47:02Z</time></trkpt><trkpt lat="44.77003238448369" lon="9.384844073862842"><ele>288.16666666666663</ele><time>2026-03-28T10:47:03Z</time></trkpt><trkpt lat="44.76998235403333" lon="9.384740002101731"><ele>289.0</ele><time>2026-03-28T10:47:04Z</time></trkpt><trkpt lat="44.76992782610794" lon="9.384632621329338"><ele>291.0</ele><time>2026-03-28T10:47:05Z</time></trkpt><trkpt lat="44.769872641381525" lon="9.384527111206584"><ele>293.0</ele><time>2026-03-28T10:47:06Z</time></trkpt><trkpt lat="44.7698142194556" lon="9.384416562513115"><ele>295.0</ele><time>2026-03-28T10:47:07Z</time></trkpt><trkpt lat="44.76976188705763" lon="9.384296478319907"><ele>297.0</ele><time>2026-03-28T10:47:08Z</time></trkpt><trkpt lat="44.76970187486443" lon="9.384176775350063"><ele>299.0</ele><time>2026-03-28T10:47:09Z</time></trkpt><trkpt lat="44.7696460837901" lon="9.384049277374183"><ele>299.0</ele><time>2026-03-28T10:47:10Z</time></trkpt><trkpt lat="44.769584388792374" lon="9.383922651257526"><ele>299.0</ele><time>2026-03-28T10:47:11Z</time></trkpt><trkpt lat="44.76952455876013" lon="9.383796073812135"><ele>299.0</ele><time>2026-03-28T10:47:12Z</time></trkpt><trkpt lat="44.76946832741632" lon="9.383663579781283"><ele>299.0</ele><time>2026-03-28T10:47:13Z</time></trkpt><trkpt lat="44.76941246606864" lon="9.383538872817804"><ele>299.0</ele><time>2026-03-28T10:47:14Z</time></trkpt><trkpt lat="44.76934631698258" lon="9.383418667108295"><ele>300.0</ele><time>2026-03-28T10:47:15Z</time></trkpt><trkpt lat="44.769281621870896" lon="9.383289888542121"><ele>301.0</ele><time>2026-03-28T10:47:16Z</time></trkpt><trkpt lat="44.76922159904812" lon="9.383160723601787"><ele>302.0</ele><time>2026-03-28T10:47:17Z</time></trkpt><trkpt lat="44.76916020407477" lon="9.383027250490814"><ele>303.0</ele><time>2026-03-28T10:47:18Z</time></trkpt><trkpt lat="44.76909259110396" lon="9.3828930267193"><ele>304.25</ele><time>2026-03-28T10:47:19Z</time></trkpt><trkpt lat="44.769023213151705" lon="9.382767747754704"><ele>305.5</ele><time>2026-03-28T10:47:20Z</time></trkpt><trkpt lat="44.768954693879124" lon="9.382629631273895"><ele>306.75</ele><time>2026-03-28T10:47:21Z</time></trkpt><trkpt lat="44.76888767041444" lon="9.382484242121544"><ele>308.0</ele><time>2026-03-28T10:47:22Z</time></trkpt><trkpt lat="44.76881889811074" lon="9.382343286569178"><ele>308.0</ele><time>2026-03-28T10:47:23Z</time></trkpt><trkpt lat="44.76875585895624" lon="9.382202094560652"><ele>308.0</ele><time>2026-03-28T10:47:24Z</time></trkpt><trkpt lat="44.76869339723275" lon="9.382046678178021"><ele>308.0</ele><time>2026-03-28T10:47:25Z</time></trkpt><trkpt lat="44.76864890105062" lon="9.381881729897973"><ele>308.0</ele><time>2026-03-28T10:47:26Z</time></trkpt><trkpt lat="44.76862382322331" lon="9.381685694996895"><ele>309.6666666666667</ele><time>2026-03-28T10:47:27Z</time></trkpt><trkpt lat="44.76860224562281" lon="9.38147224108843"><ele>311.3333333333333</ele><time>2026-03-28T10:47:28Z</time></trkpt><trkpt lat="44.76859331610403" lon="9.381236034645873"><ele>313.0</ele><time>2026-03-28T10:47:29Z</time></trkpt><trkpt lat="44.7685781289422" lon="9.38099152379424"><ele>316.0</ele><time>2026-03-28T10:47:30Z</time></trkpt><trkpt lat="44.76856307824007" lon="9.380752388131416"><ele>319.0</ele><time>2026-03-28T10:47:31Z</time></trkpt><trkpt lat="44.76855133098747" lon="9.380531324438225"><ele>322.0</ele><time>2026-03-28T10:47:32Z</time></trkpt><trkpt lat="44.768540626292136" lon="9.380313453768373"><ele>321.75</ele><time>2026-03-28T10:47:33Z</time></trkpt><trkpt lat="44.76852379095222" lon="9.380103155560423"><ele>321.5</ele><time>2026-03-28T10:47:34Z</time></trkpt><trkpt lat="44.76848803807935" lon="9.379902026305173"><ele>321.25</ele><time>2026-03-28T10:47:35Z</time></trkpt><trkpt lat="44.76843422609969" lon="9.379715616680892"><ele>321.0</ele><time>2026-03-28T10:47:35.999Z</time></trkpt><trkpt lat="44.768373677822666" lon="9.379546057613034"><ele>321.0</ele><time>2026-03-28T10:47:36.999Z</time></trkpt><trkpt lat="44.768320135941416" lon="9.379368774855424"><ele>321.0</ele><time>2026-03-28T10:47:37.999Z</time></trkpt><trkpt lat="44.76828240831172" lon="9.37921137867997"><ele>321.0</ele><time>2026-03-28T10:47:38.999Z</time></trkpt><trkpt lat="44.76827153049324" lon="9.37905773028062"><ele>321.0</ele><time>2026-03-28T10:47:39.999Z</time></trkpt><trkpt lat="44.76830204700406" lon="9.37890437431141"><ele>321.25</ele><time>2026-03-28T10:47:40.999Z</time></trkpt><trkpt lat="44.7683606576247" lon="9.3787493811781"><ele>321.5</ele><time>2026-03-28T10:47:41.999Z</time></trkpt><trkpt lat="44.76844670532648" lon="9.378607716714416"><ele>321.75</ele><time>2026-03-28T10:47:42.999Z</time></trkpt><trkpt lat="44.76854037003384" lon="9.378466802463258"><ele>322.0</ele><time>2026-03-28T10:47:43.999Z</time></trkpt><trkpt lat="44.76861798309863" lon="9.378293757853795"><ele>327.3333333333333</ele><time>2026-03-28T10:47:44.999Z</time></trkpt><trkpt lat="44.768658903069735" lon="9.37808444128118"><ele>332.6666666666667</ele><time>2026-03-28T10:47:45.999Z</time></trkpt><trkpt lat="44.76869549057195" lon="9.377869775650042"><ele>338.0</ele><time>2026-03-28T10:47:46.999Z</time></trkpt><trkpt lat="44.76874911372172" lon="9.377684262526262"><ele>338.0</ele><time>2026-03-28T10:47:47.999Z</time></trkpt><trkpt lat="44.768828752349826" lon="9.377554418331835"><ele>338.0</ele><time>2026-03-28T10:47:48.999Z</time></trkpt><trkpt lat="44.768943465593644" lon="9.377451116380938"><ele>338.0</ele><time>2026-03-28T10:47:49.999Z</time></trkpt><trkpt lat="44.76906488974321" lon="9.377325035562324"><ele>338.0</ele><time>2026-03-28T10:47:50.999Z</time></trkpt><trkpt lat="44.76918265981777" lon="9.377194870208516"><ele>337.25</ele><time>2026-03-28T10:47:51.999Z</time></trkpt><trkpt lat="44.76929685823096" lon="9.377070980321166"><ele>336.5</ele><time>2026-03-28T10:47:52.999Z</time></trkpt><trkpt lat="44.76939956735045" lon="9.376952777719316"><ele>335.75</ele><time>2026-03-28T10:47:53.999Z</time></trkpt><trkpt lat="44.7694873998418" lon="9.376830554105378"><ele>335.0</ele><time>2026-03-28T10:47:54.999Z</time></trkpt><trkpt lat="44.76954181013526" lon="9.376664686759366"><ele>338.0</ele><time>2026-03-28T10:47:55.999Z</time></trkpt><trkpt lat="44.76955767760236" lon="9.376482059558809"><ele>341.0</ele><time>2026-03-28T10:47:56.999Z</time></trkpt><trkpt lat="44.769585154797525" lon="9.376300349130897"><ele>344.0</ele><time>2026-03-28T10:47:57.999Z</time></trkpt><trkpt lat="44.769632450875484" lon="9.376155637849251"><ele>347.0</ele><time>2026-03-28T10:47:58.999Z</time></trkpt><trkpt lat="44.76971056377094" lon="9.376024113363094"><ele>347.0</ele><time>2026-03-28T10:47:59.999Z</time></trkpt><trkpt lat="44.76982376253204" lon="9.375899566704115"><ele>347.0</ele><time>2026-03-28T10:48:00.999Z</time></trkpt><trkpt lat="44.769932074037456" lon="9.375776195883265"><ele>347.0</ele><time>2026-03-28T10:48:01.999Z</time></trkpt><trkpt lat="44.770023269288" lon="9.375646662699259"><ele>347.0</ele><time>2026-03-28T10:48:02.999Z</time></trkpt><trkpt lat="44.77008600039606" lon="9.375506572094055"><ele>347.20000000000005</ele><time>2026-03-28T10:48:03.999Z</time></trkpt><trkpt lat="44.77011995071018" lon="9.37534199509862"><ele>347.4</ele><time>2026-03-28T10:48:04.999Z</time></trkpt><trkpt lat="44.77016645503289" lon="9.375195869404457"><ele>347.6</ele><time>2026-03-28T10:48:05.999Z</time></trkpt><trkpt lat="44.7702452436353" lon="9.375105844741855"><ele>347.79999999999995</ele><time>2026-03-28T10:48:06.999Z</time></trkpt><trkpt lat="44.770349337479566" lon="9.375074785086792"><ele>348.0</ele><time>2026-03-28T10:48:07.999Z</time></trkpt><trkpt lat="44.770470456251395" lon="9.375088553823952"><ele>349.25</ele><time>2026-03-28T10:48:08.999Z</time></trkpt><trkpt lat="44.77059464254763" lon="9.375114948911117"><ele>350.5</ele><time>2026-03-28T10:48:09.999Z</time></trkpt><trkpt lat="44.770722356047266" lon="9.375123754861898"><ele>351.75</ele><time>2026-03-28T10:48:10.999Z</time></trkpt><trkpt lat="44.77085313042321" lon="9.375126689222313"><ele>353.0</ele><time>2026-03-28T10:48:11.999Z</time></trkpt><trkpt lat="44.7709833285105" lon="9.375139221303398"><ele>355.0</ele><time>2026-03-28T10:48:12.999Z</time></trkpt><trkpt lat="44.7710919888748" lon="9.375140734449753"><ele>357.0</ele><time>2026-03-28T10:48:13.999Z</time></trkpt><trkpt lat="44.77119458590238" lon="9.37509426158179"><ele>359.0</ele><time>2026-03-28T10:48:14.999Z</time></trkpt><trkpt lat="44.7712720731369" lon="9.37498181568223"><ele>361.0</ele><time>2026-03-28T10:48:15.999Z</time></trkpt><trkpt lat="44.771313434888015" lon="9.37480543700341"><ele>360.75</ele><time>2026-03-28T10:48:16.999Z</time></trkpt><trkpt lat="44.7713246821411" lon="9.374611811254573"><ele>360.5</ele><time>2026-03-28T10:48:17.999Z</time></trkpt><trkpt lat="44.77135154228966" lon="9.37441920711455"><ele>360.25</ele><time>2026-03-28T10:48:18.999Z</time></trkpt><trkpt lat="44.77139110953643" lon="9.374251035354975"><ele>360.0</ele><time>2026-03-28T10:48:19.999Z</time></trkpt><trkpt lat="44.77145507939931" lon="9.374130268919227"><ele>360.0</ele><time>2026-03-28T10:48:20.999Z</time></trkpt><trkpt lat="44.771548324583556" lon="9.374055084822057"><ele>360.0</ele><time>2026-03-28T10:48:21.999Z</time></trkpt><trkpt lat="44.77166963250063" lon="9.374032032680166"><ele>360.0</ele><time>2026-03-28T10:48:22.999Z</time></trkpt><trkpt lat="44.77179884541533" lon="9.374038766033447"><ele>360.0</ele><time>2026-03-28T10:48:23.999Z</time></trkpt><trkpt lat="44.77192021859107" lon="9.37401775114947"><ele>362.0</ele><time>2026-03-28T10:48:24.999Z</time></trkpt><trkpt lat="44.772037321007026" lon="9.373998346534073"><ele>364.0</ele><time>2026-03-28T10:48:25.999Z</time></trkpt><trkpt lat="44.77214051587672" lon="9.373980541188127"><ele>366.0</ele><time>2026-03-28T10:48:26.999Z</time></trkpt><trkpt lat="44.77223962536158" lon="9.373940477464167"><ele>368.0</ele><time>2026-03-28T10:48:27.999Z</time></trkpt><trkpt lat="44.772328735363544" lon="9.373859235729809"><ele>370.0</ele><time>2026-03-28T10:48:28.999Z</time></trkpt><trkpt lat="44.772406780062646" lon="9.373743836487991"><ele>370.0</ele><time>2026-03-28T10:48:30Z</time></trkpt><trkpt lat="44.77247747374443" lon="9.373597219382178"><ele>370.0</ele><time>2026-03-28T10:48:31Z</time></trkpt><trkpt lat="44.77253803157739" lon="9.37342923169904"><ele>370.0</ele><time>2026-03-28T10:48:32Z</time></trkpt><trkpt lat="44.77259463305979" lon="9.373254484251419"><ele>370.0</ele><time>2026-03-28T10:48:33Z</time></trkpt><trkpt lat="44.77265244917264" lon="9.373081359688872"><ele>375.0</ele><time>2026-03-28T10:48:34Z</time></trkpt><trkpt lat="44.7727105593063" lon="9.372911379098362"><ele>380.0</ele><time>2026-03-28T10:48:35Z</time></trkpt><trkpt lat="44.77276789153466" lon="9.372748030310632"><ele>385.0</ele><time>2026-03-28T10:48:36Z</time></trkpt><trkpt lat="44.7728250832212" lon="9.372589554924083"><ele>390.0</ele><time>2026-03-28T10:48:37Z</time></trkpt><trkpt lat="44.77287997927214" lon="9.372434764237806"><ele>390.0</ele><time>2026-03-28T10:48:38Z</time></trkpt><trkpt lat="44.772925426063935" lon="9.372281783007583"><ele>390.0</ele><time>2026-03-28T10:48:39Z</time></trkpt><trkpt lat="44.772953739320634" lon="9.372122893669644"><ele>390.0</ele><time>2026-03-28T10:48:40Z</time></trkpt><trkpt lat="44.772948842083316" lon="9.371953443932082"><ele>390.0</ele><time>2026-03-28T10:48:41Z</time></trkpt><trkpt lat="44.77291129517853" lon="9.371798111047852"><ele>391.25</ele><time>2026-03-28T10:48:42Z</time></trkpt><trkpt lat="44.772895369422784" lon="9.371629947338223"><ele>392.5</ele><time>2026-03-28T10:48:43Z</time></trkpt><trkpt lat="44.77290197477035" lon="9.371461975595379"><ele>393.75</ele><time>2026-03-28T10:48:44Z</time></trkpt><trkpt lat="44.77291530555603" lon="9.371295896956855"><ele>395.0</ele><time>2026-03-28T10:48:45Z</time></trkpt><trkpt lat="44.77291798107459" lon="9.371137037036188"><ele>398.0</ele><time>2026-03-28T10:48:46Z</time></trkpt><trkpt lat="44.77287459385467" lon="9.37098863565925"><ele>401.0</ele><time>2026-03-28T10:48:47Z</time></trkpt><trkpt lat="44.77279548051623" lon="9.370863707634586"><ele>404.0</ele><time>2026-03-28T10:48:48Z</time></trkpt><trkpt lat="44.77272093767086" lon="9.370737133222427"><ele>407.0</ele><time>2026-03-28T10:48:49Z</time></trkpt><trkpt lat="44.77265706027568" lon="9.370602891782235"><ele>403.6</ele><time>2026-03-28T10:48:50Z</time></trkpt><trkpt lat="44.77260878274803" lon="9.370460235330837"><ele>400.20000000000005</ele><time>2026-03-28T10:48:51Z</time></trkpt><trkpt lat="44.77258861918193" lon="9.370326451173515"><ele>396.8</ele><time>2026-03-28T10:48:52Z</time></trkpt><trkpt lat="44.772583080625466" lon="9.37019747485198"><ele>393.4</ele><time>2026-03-28T10:48:53Z</time></trkpt><trkpt lat="44.772585772940374" lon="9.370057615822578"><ele>390.0</ele><time>2026-03-28T10:48:54Z</time></trkpt><trkpt lat="44.77259012371656" lon="9.369913346648973"><ele>390.0</ele><time>2026-03-28T10:48:55Z</time></trkpt><trkpt lat="44.77259529645586" lon="9.369767175165492"><ele>390.0</ele><time>2026-03-28T10:48:56Z</time></trkpt><trkpt lat="44.77259997045563" lon="9.369626715599903"><ele>390.0</ele><time>2026-03-28T10:48:57Z</time></trkpt><trkpt lat="44.77260441791891" lon="9.369503643148919"><ele>390.0</ele><time>2026-03-28T10:48:58Z</time></trkpt><trkpt lat="44.772610980571585" lon="9.369379958597083"><ele>390.0</ele><time>2026-03-28T10:48:59Z</time></trkpt><trkpt lat="44.77262363033495" lon="9.369251958185199"><ele>390.8</ele><time>2026-03-28T10:49:00Z</time></trkpt><trkpt lat="44.77264734109977" lon="9.369122029415088"><ele>391.6</ele><time>2026-03-28T10:49:01Z</time></trkpt><trkpt lat="44.77268265782012" lon="9.368991467375546"><ele>392.4</ele><time>2026-03-28T10:49:02Z</time></trkpt><trkpt lat="44.77273200873973" lon="9.368864332635749"><ele>393.2</ele><time>2026-03-28T10:49:03Z</time></trkpt><trkpt lat="44.772798680102404" lon="9.368745622440688"><ele>394.0</ele><time>2026-03-28T10:49:04Z</time></trkpt><trkpt lat="44.77287959142819" lon="9.368605681940304"><ele>399.75</ele><time>2026-03-28T10:49:05Z</time></trkpt><trkpt lat="44.77296771638497" lon="9.368458559853188"><ele>405.5</ele><time>2026-03-28T10:49:06Z</time></trkpt><trkpt lat="44.773049153498945" lon="9.36832914181547"><ele>411.25</ele><time>2026-03-28T10:49:07Z</time></trkpt><trkpt lat="44.77311739616319" lon="9.3682172413378"><ele>417.0</ele><time>2026-03-28T10:49:08Z</time></trkpt><trkpt lat="44.77318483790176" lon="9.368112381009567"><ele>415.8</ele><time>2026-03-28T10:49:09Z</time></trkpt><trkpt lat="44.77323742846397" lon="9.367997093044943"><ele>414.6</ele><time>2026-03-28T10:49:10Z</time></trkpt><trkpt lat="44.77326581234046" lon="9.367863202696586"><ele>413.40000000000003</ele><time>2026-03-28T10:49:11Z</time></trkpt><trkpt lat="44.77325659989714" lon="9.367721497627983"><ele>412.20000000000005</ele><time>2026-03-28T10:49:12Z</time></trkpt><trkpt lat="44.77322820302504" lon="9.36758208138853"><ele>411.0</ele><time>2026-03-28T10:49:13Z</time></trkpt><trkpt lat="44.77320371873318" lon="9.36745280907624"><ele>411.0</ele><time>2026-03-28T10:49:14Z</time></trkpt><trkpt lat="44.77316773748332" lon="9.367332730837061"><ele>411.0</ele><time>2026-03-28T10:49:15Z</time></trkpt><trkpt lat="44.773104809683" lon="9.367225945891382"><ele>411.0</ele><time>2026-03-28T10:49:16Z</time></trkpt><trkpt lat="44.77302182117406" lon="9.367144597533624"><ele>411.0</ele><time>2026-03-28T10:49:17Z</time></trkpt><trkpt lat="44.772935970709135" lon="9.367076111505236"><ele>411.0</ele><time>2026-03-28T10:49:18Z</time></trkpt><trkpt lat="44.77285501181633" lon="9.367022708043484"><ele>410.5</ele><time>2026-03-28T10:49:19Z</time></trkpt><trkpt lat="44.7727861510797" lon="9.366972059691179"><ele>410.0</ele><time>2026-03-28T10:49:20Z</time></trkpt><trkpt lat="44.772729872235615" lon="9.366914807187534"><ele>409.5</ele><time>2026-03-28T10:49:21Z</time></trkpt><trkpt lat="44.772682861151495" lon="9.3668381780763"><ele>409.0</ele><time>2026-03-28T10:49:22Z</time></trkpt><trkpt lat="44.772658969284876" lon="9.366729121113659"><ele>408.5</ele><time>2026-03-28T10:49:23Z</time></trkpt><trkpt lat="44.772662027317246" lon="9.366586222653435"><ele>408.0</ele><time>2026-03-28T10:49:24Z</time></trkpt><trkpt lat="44.77266513678815" lon="9.366443511970242"><ele>408.59999999999997</ele><time>2026-03-28T10:49:25Z</time></trkpt><trkpt lat="44.77266587350278" lon="9.366301884471655"><ele>409.2</ele><time>2026-03-28T10:49:26Z</time></trkpt><trkpt lat="44.77267319546366" lon="9.366176445440674"><ele>409.8</ele><time>2026-03-28T10:49:27Z</time></trkpt><trkpt lat="44.772694075824624" lon="9.366051403681746"><ele>410.4</ele><time>2026-03-28T10:49:28Z</time></trkpt><trkpt lat="44.77273890407955" lon="9.365922936008992"><ele>411.0</ele><time>2026-03-28T10:49:29Z</time></trkpt><trkpt lat="44.77279742623358" lon="9.365793746792813"><ele>413.0</ele><time>2026-03-28T10:49:30Z</time></trkpt><trkpt lat="44.772860211936575" lon="9.365659180722828"><ele>415.0</ele><time>2026-03-28T10:49:31Z</time></trkpt><trkpt lat="44.77292281756202" lon="9.365530405454532"><ele>417.0</ele><time>2026-03-28T10:49:32Z</time></trkpt><trkpt lat="44.772989283775026" lon="9.365411805015246"><ele>419.0</ele><time>2026-03-28T10:49:32.999Z</time></trkpt><trkpt lat="44.7730537955871" lon="9.365295233195198"><ele>421.0</ele><time>2026-03-28T10:49:33.999Z</time></trkpt><trkpt lat="44.77311691187149" lon="9.365181372828204"><ele>422.0</ele><time>2026-03-28T10:49:34.999Z</time></trkpt><trkpt lat="44.77316619014344" lon="9.36506315632787"><ele>423.0</ele><time>2026-03-28T10:49:35.999Z</time></trkpt><trkpt lat="44.77317915742519" lon="9.364918613153542"><ele>424.0</ele><time>2026-03-28T10:49:36.999Z</time></trkpt><trkpt lat="44.773155129479235" lon="9.36474636754917"><ele>425.0</ele><time>2026-03-28T10:49:37.999Z</time></trkpt><trkpt lat="44.77311646363366" lon="9.36454699843373"><ele>425.66666666666663</ele><time>2026-03-28T10:49:38.999Z</time></trkpt><trkpt lat="44.77309203241023" lon="9.364312583082668"><ele>426.33333333333337</ele><time>2026-03-28T10:49:39.999Z</time></trkpt><trkpt lat="44.77300938701446" lon="9.3641024352897"><ele>427.0</ele><time>2026-03-28T10:49:40.999Z</time></trkpt><trkpt lat="44.77299513208494" lon="9.363923073595952"><ele>426.75</ele><time>2026-03-28T10:49:41.999Z</time></trkpt><trkpt lat="44.7730276740331" lon="9.363786871454682"><ele>426.5</ele><time>2026-03-28T10:49:42.999Z</time></trkpt><trkpt lat="44.77309766101241" lon="9.36370910128682"><ele>426.25</ele><time>2026-03-28T10:49:43.999Z</time></trkpt><trkpt lat="44.773228675610106" lon="9.36367394174075"><ele>426.0</ele><time>2026-03-28T10:49:44.999Z</time></trkpt><trkpt lat="44.77339021462773" lon="9.363585483491239"><ele>430.33333333333337</ele><time>2026-03-28T10:49:45.999Z</time></trkpt><trkpt lat="44.7735742250171" lon="9.363478765036357"><ele>434.6666666666667</ele><time>2026-03-28T10:49:46.999Z</time></trkpt><trkpt lat="44.773729625168336" lon="9.363402183492163"><ele>439.0</ele><time>2026-03-28T10:49:47.999Z</time></trkpt><trkpt lat="44.77385870835856" lon="9.36339546938734"><ele>439.0</ele><time>2026-03-28T10:49:48.999Z</time></trkpt><trkpt lat="44.77398599829573" lon="9.363451761420682"><ele>439.0</ele><time>2026-03-28T10:49:49.999Z</time></trkpt><trkpt lat="44.77416605970481" lon="9.363545097737626"><ele>439.0</ele><time>2026-03-28T10:49:50.999Z</time></trkpt><trkpt lat="44.7743871096627" lon="9.363659719030151"><ele>441.33333333333337</ele><time>2026-03-28T10:49:51.999Z</time></trkpt><trkpt lat="44.77456025550036" lon="9.363745226081596"><ele>443.66666666666663</ele><time>2026-03-28T10:49:52.999Z</time></trkpt><trkpt lat="44.77469154962054" lon="9.363832812084835"><ele>446.0</ele><time>2026-03-28T10:49:53.999Z</time></trkpt><trkpt lat="44.77477539803129" lon="9.36396219783302"><ele>446.0</ele><time>2026-03-28T10:49:54.999Z</time></trkpt><trkpt lat="44.77483113694185" lon="9.364140172354292"><ele>446.0</ele><time>2026-03-28T10:49:55.999Z</time></trkpt><trkpt lat="44.774918333617656" lon="9.364378247275429"><ele>446.0</ele><time>2026-03-28T10:49:56.999Z</time></trkpt><trkpt lat="44.77501948526513" lon="9.364639402980602"><ele>444.75</ele><time>2026-03-28T10:49:57.999Z</time></trkpt><trkpt lat="44.77511997593129" lon="9.364800752052611"><ele>443.5</ele><time>2026-03-28T10:49:58.999Z</time></trkpt><trkpt lat="44.7752047092307" lon="9.364918715216731"><ele>442.25</ele><time>2026-03-28T10:49:59.999Z</time></trkpt><trkpt lat="44.77531437034173" lon="9.364958313102132"><ele>441.0</ele><time>2026-03-28T10:50:00.999Z</time></trkpt><trkpt lat="44.77544988169153" lon="9.364986279179579"><ele>443.8</ele><time>2026-03-28T10:50:01.999Z</time></trkpt><trkpt lat="44.775545178699005" lon="9.365124665364455"><ele>446.6</ele><time>2026-03-28T10:50:02.999Z</time></trkpt><trkpt lat="44.77556098325718" lon="9.365260649016767"><ele>449.4</ele><time>2026-03-28T10:50:03.999Z</time></trkpt><trkpt lat="44.77557272274249" lon="9.365411946429866"><ele>452.2</ele><time>2026-03-28T10:50:04.999Z</time></trkpt><trkpt lat="44.775607360513725" lon="9.365535652744356"><ele>455.0</ele><time>2026-03-28T10:50:05.999Z</time></trkpt><trkpt lat="44.77569317929353" lon="9.365624122898632"><ele>455.0</ele><time>2026-03-28T10:50:06.999Z</time></trkpt><trkpt lat="44.77578887293077" lon="9.3656706723504"><ele>455.0</ele><time>2026-03-28T10:50:07.999Z</time></trkpt><trkpt lat="44.775894936488015" lon="9.365652656592653"><ele>455.0</ele><time>2026-03-28T10:50:08.999Z</time></trkpt><trkpt lat="44.775994962461546" lon="9.365571467496132"><ele>455.0</ele><time>2026-03-28T10:50:09.999Z</time></trkpt><trkpt lat="44.77608159129871" lon="9.365405526298321"><ele>459.3333333333333</ele><time>2026-03-28T10:50:10.999Z</time></trkpt><trkpt lat="44.77618065718542" lon="9.365168389960973"><ele>463.66666666666663</ele><time>2026-03-28T10:50:11.999Z</time></trkpt><trkpt lat="44.7763190802438" lon="9.364883853810754"><ele>468.0</ele><time>2026-03-28T10:50:12.999Z</time></trkpt><trkpt lat="44.77647292543367" lon="9.364605222838728"><ele>468.0</ele><time>2026-03-28T10:50:13.999Z</time></trkpt><trkpt lat="44.77659570828951" lon="9.36440092557788"><ele>468.0</ele><time>2026-03-28T10:50:14.999Z</time></trkpt><trkpt lat="44.77670150640496" lon="9.364196749887755"><ele>468.0</ele><time>2026-03-28T10:50:15.999Z</time></trkpt><trkpt lat="44.77678370381004" lon="9.364010361410196"><ele>467.33333333333337</ele><time>2026-03-28T10:50:16.999Z</time></trkpt><trkpt lat="44.77683921679655" lon="9.363806244792734"><ele>466.6666666666667</ele><time>2026-03-28T10:50:17.999Z</time></trkpt><trkpt lat="44.77686944907132" lon="9.363585160671526"><ele>466.0</ele><time>2026-03-28T10:50:18.999Z</time></trkpt><trkpt lat="44.7768961352323" lon="9.363367115820795"><ele>471.5</ele><time>2026-03-28T10:50:19.999Z</time></trkpt><trkpt lat="44.776924728676164" lon="9.363159365755111"><ele>477.0</ele><time>2026-03-28T10:50:20.999Z</time></trkpt><trkpt lat="44.77695463128936" lon="9.362966375936846"><ele>482.5</ele><time>2026-03-28T10:50:21.999Z</time></trkpt><trkpt lat="44.77698715170456" lon="9.362787058991737"><ele>488.0</ele><time>2026-03-28T10:50:22.999Z</time></trkpt><trkpt lat="44.7770179675527" lon="9.362626688628808"><ele>488.0</ele><time>2026-03-28T10:50:23.999Z</time></trkpt><trkpt lat="44.777040185798874" lon="9.36248349691369"><ele>488.0</ele><time>2026-03-28T10:50:24.999Z</time></trkpt><trkpt lat="44.777030800056764" lon="9.362340963659934"><ele>488.0</ele><time>2026-03-28T10:50:25.999Z</time></trkpt><trkpt lat="44.77696516122277" lon="9.362208347585472"><ele>488.0</ele><time>2026-03-28T10:50:26.999Z</time></trkpt><trkpt lat="44.77685768482767" lon="9.362092524065973"><ele>485.5</ele><time>2026-03-28T10:50:27.999Z</time></trkpt><trkpt lat="44.77674013998327" lon="9.361986685702739"><ele>483.0</ele><time>2026-03-28T10:50:28.999Z</time></trkpt><trkpt lat="44.77663972394993" lon="9.361870727357564"><ele>480.5</ele><time>2026-03-28T10:50:29.999Z</time></trkpt><trkpt lat="44.77656960056616" lon="9.36170608599876"><ele>478.0</ele><time>2026-03-28T10:50:30.999Z</time></trkpt><trkpt lat="44.776547159375156" lon="9.36152568586635"><ele>479.5</ele><time>2026-03-28T10:50:31.999Z</time></trkpt><trkpt lat="44.77658649117056" lon="9.361363127965566"><ele>481.0</ele><time>2026-03-28T10:50:32.999Z</time></trkpt><trkpt lat="44.776686195938034" lon="9.361234465271433"><ele>482.5</ele><time>2026-03-28T10:50:33.999Z</time></trkpt><trkpt lat="44.77678873571234" lon="9.361079397632293"><ele>484.0</ele><time>2026-03-28T10:50:34.999Z</time></trkpt><trkpt lat="44.77690293760287" lon="9.36095177500976"><ele>487.0</ele><time>2026-03-28T10:50:36Z</time></trkpt><trkpt lat="44.776988575245376" lon="9.360813080091653"><ele>490.0</ele><time>2026-03-28T10:50:37Z</time></trkpt><trkpt lat="44.77703678928221" lon="9.360657673731627"><ele>493.0</ele><time>2026-03-28T10:50:38Z</time></trkpt><trkpt lat="44.77704260282125" lon="9.360488341278378"><ele>496.0</ele><time>2026-03-28T10:50:39Z</time></trkpt><trkpt lat="44.777005429565826" lon="9.360334589809593"><ele>497.0</ele><time>2026-03-28T10:50:40Z</time></trkpt><trkpt lat="44.77692576480488" lon="9.360203070508353"><ele>498.0</ele><time>2026-03-28T10:50:41Z</time></trkpt><trkpt lat="44.77680517574373" lon="9.360113424175013"><ele>499.0</ele><time>2026-03-28T10:50:42Z</time></trkpt><trkpt lat="44.77665963105391" lon="9.360056393317036"><ele>500.0</ele><time>2026-03-28T10:50:43Z</time></trkpt><trkpt lat="44.776525671614465" lon="9.359946597479588"><ele>497.66666666666663</ele><time>2026-03-28T10:50:44Z</time></trkpt><trkpt lat="44.776400570901096" lon="9.359815758434214"><ele>495.33333333333337</ele><time>2026-03-28T10:50:45Z</time></trkpt><trkpt lat="44.77626459806373" lon="9.359634773787137"><ele>493.0</ele><time>2026-03-28T10:50:46Z</time></trkpt><trkpt lat="44.77613889135292" lon="9.359400664862795"><ele>493.0</ele><time>2026-03-28T10:50:47Z</time></trkpt><trkpt lat="44.776026988214845" lon="9.359174062665934"><ele>493.0</ele><time>2026-03-28T10:50:48Z</time></trkpt><trkpt lat="44.7759145601308" lon="9.358966371897834"><ele>493.0</ele><time>2026-03-28T10:50:49Z</time></trkpt><trkpt lat="44.77580458912255" lon="9.358779017611024"><ele>493.0</ele><time>2026-03-28T10:50:50Z</time></trkpt><trkpt lat="44.775700888014555" lon="9.358617406046251"><ele>493.0</ele><time>2026-03-28T10:50:51Z</time></trkpt><trkpt lat="44.77559360782392" lon="9.358509031672245"><ele>493.0</ele><time>2026-03-28T10:50:52Z</time></trkpt><trkpt lat="44.77548625433995" lon="9.358454669480691"><ele>493.0</ele><time>2026-03-28T10:50:53Z</time></trkpt><trkpt lat="44.77537814608952" lon="9.358414752754989"><ele>493.0</ele><time>2026-03-28T10:50:54Z</time></trkpt><trkpt lat="44.77531203372611" lon="9.35832570591175"><ele>493.0</ele><time>2026-03-28T10:50:55Z</time></trkpt><trkpt lat="44.775274425325286" lon="9.358185005236862"><ele>493.0</ele><time>2026-03-28T10:50:56Z</time></trkpt><trkpt lat="44.77528403282207" lon="9.35800401153845"><ele>493.0</ele><time>2026-03-28T10:50:57Z</time></trkpt><trkpt lat="44.775307298170794" lon="9.357808942883997"><ele>495.33333333333337</ele><time>2026-03-28T10:50:58Z</time></trkpt><trkpt lat="44.77531664939882" lon="9.35759854917374"><ele>497.66666666666663</ele><time>2026-03-28T10:50:59Z</time></trkpt><trkpt lat="44.77530515986971" lon="9.35738221522854"><ele>500.0</ele><time>2026-03-28T10:51:00Z</time></trkpt><trkpt lat="44.77526714109987" lon="9.357159698072264"><ele>501.66666666666663</ele><time>2026-03-28T10:51:01Z</time></trkpt><trkpt lat="44.77521276267506" lon="9.35693977640565"><ele>503.33333333333337</ele><time>2026-03-28T10:51:02Z</time></trkpt><trkpt lat="44.77515410677767" lon="9.35672289871801"><ele>505.0</ele><time>2026-03-28T10:51:03Z</time></trkpt><trkpt lat="44.77509956363733" lon="9.356504773817724"><ele>503.0</ele><time>2026-03-28T10:51:04Z</time></trkpt><trkpt lat="44.77504330693282" lon="9.356283594333771"><ele>501.0</ele><time>2026-03-28T10:51:05Z</time></trkpt><trkpt lat="44.77498605161165" lon="9.356058404235428"><ele>499.0</ele><time>2026-03-28T10:51:06Z</time></trkpt><trkpt lat="44.77493085915431" lon="9.355831977347473"><ele>499.0</ele><time>2026-03-28T10:51:07Z</time></trkpt><trkpt lat="44.77487992981072" lon="9.355609515430519"><ele>499.0</ele><time>2026-03-28T10:51:08Z</time></trkpt><trkpt lat="44.77483054789431" lon="9.355412236365641"><ele>499.0</ele><time>2026-03-28T10:51:09Z</time></trkpt><trkpt lat="44.7747845754774" lon="9.355235198048701"><ele>499.0</ele><time>2026-03-28T10:51:10Z</time></trkpt><trkpt lat="44.7747615690461" lon="9.355072397420152"><ele>499.0</ele><time>2026-03-28T10:51:11Z</time></trkpt><trkpt lat="44.774774054606645" lon="9.35492955668001"><ele>499.0</ele><time>2026-03-28T10:51:12Z</time></trkpt><trkpt lat="44.774812251648584" lon="9.35480511069995"><ele>499.0</ele><time>2026-03-28T10:51:13Z</time></trkpt><trkpt lat="44.77486946121729" lon="9.35469243237621"><ele>499.0</ele><time>2026-03-28T10:51:14Z</time></trkpt><trkpt lat="44.77493960680911" lon="9.354616713112677"><ele>499.0</ele><time>2026-03-28T10:51:15Z</time></trkpt><trkpt lat="44.77500748896758" lon="9.354591673706679"><ele>499.0</ele><time>2026-03-28T10:51:16Z</time></trkpt><trkpt lat="44.775116407466825" lon="9.354629409202483"><ele>499.0</ele><time>2026-03-28T10:51:18Z</time></trkpt><trkpt lat="44.7751853247027" lon="9.354639613066398"><ele>499.0</ele><time>2026-03-28T10:51:20Z</time></trkpt><trkpt lat="44.77509990337986" lon="9.354470367157825"><ele>499.0</ele><time>2026-03-28T10:51:21Z</time></trkpt><trkpt lat="44.775144575501784" lon="9.354329369692822"><ele>499.0</ele><time>2026-03-28T10:51:23Z</time></trkpt><trkpt lat="44.77522831816601" lon="9.354252018376522"><ele>497.6</ele><time>2026-03-28T10:51:24Z</time></trkpt><trkpt lat="44.77529705465684" lon="9.354156012504527"><ele>496.2</ele><time>2026-03-28T10:51:25Z</time></trkpt><trkpt lat="44.77538415238005" lon="9.354075463117061"><ele>494.80000000000007</ele><time>2026-03-28T10:51:26Z</time></trkpt><trkpt lat="44.775471269875666" lon="9.354009110621785"><ele>493.40000000000003</ele><time>2026-03-28T10:51:27Z</time></trkpt><trkpt lat="44.775549918509135" lon="9.353938557479655"><ele>492.0</ele><time>2026-03-28T10:51:28Z</time></trkpt><trkpt lat="44.77562962089091" lon="9.353866968387756"><ele>492.0</ele><time>2026-03-28T10:51:29Z</time></trkpt><trkpt lat="44.775715704839676" lon="9.353785158084044"><ele>492.00000000000006</ele><time>2026-03-28T10:51:30Z</time></trkpt><trkpt lat="44.77579808771508" lon="9.353713532914853"><ele>492.00000000000006</ele><time>2026-03-28T10:51:31Z</time></trkpt><trkpt lat="44.775885734857205" lon="9.353650158951556"><ele>492.0</ele><time>2026-03-28T10:51:32Z</time></trkpt><trkpt lat="44.7759872469232" lon="9.35361750085762"><ele>492.0</ele><time>2026-03-28T10:51:33Z</time></trkpt><trkpt lat="44.776089032451615" lon="9.353666772286264"><ele>493.0</ele><time>2026-03-28T10:51:34Z</time></trkpt><trkpt lat="44.7761949731659" lon="9.353690042405203"><ele>494.00000000000006</ele><time>2026-03-28T10:51:35Z</time></trkpt><trkpt lat="44.77630816686401" lon="9.353706066421996"><ele>495.00000000000006</ele><time>2026-03-28T10:51:36Z</time></trkpt><trkpt lat="44.776416938760775" lon="9.353685319520165"><ele>496.0</ele><time>2026-03-28T10:51:36.999Z</time></trkpt><trkpt lat="44.77652442227138" lon="9.353659025126152"><ele>497.0</ele><time>2026-03-28T10:51:37.999Z</time></trkpt><trkpt lat="44.776638910369726" lon="9.353619188622337"><ele>497.0</ele><time>2026-03-28T10:51:38.999Z</time></trkpt><trkpt lat="44.776750300739565" lon="9.353594793685769"><ele>497.00000000000006</ele><time>2026-03-28T10:51:39.999Z</time></trkpt><trkpt lat="44.776862603192505" lon="9.353582671016758"><ele>497.00000000000006</ele><time>2026-03-28T10:51:40.999Z</time></trkpt><trkpt lat="44.77697172848058" lon="9.353572149140241"><ele>497.0</ele><time>2026-03-28T10:51:41.999Z</time></trkpt><trkpt lat="44.77707377598827" lon="9.35355053849034"><ele>497.0</ele><time>2026-03-28T10:51:42.999Z</time></trkpt><trkpt lat="44.77715889308996" lon="9.35351645128635"><ele>498.8</ele><time>2026-03-28T10:51:43.999Z</time></trkpt><trkpt lat="44.77724495146314" lon="9.35348038525028"><ele>500.6</ele><time>2026-03-28T10:51:44.999Z</time></trkpt><trkpt lat="44.77731959475698" lon="9.353421409505943"><ele>502.40000000000003</ele><time>2026-03-28T10:51:45.999Z</time></trkpt><trkpt lat="44.777375066089014" lon="9.353316087507109"><ele>504.20000000000005</ele><time>2026-03-28T10:51:46.999Z</time></trkpt><trkpt lat="44.777384710903895" lon="9.353183657582663"><ele>506.0</ele><time>2026-03-28T10:51:47.999Z</time></trkpt><trkpt lat="44.77737952305355" lon="9.353038326929072"><ele>507.6</ele><time>2026-03-28T10:51:48.999Z</time></trkpt><trkpt lat="44.77738371274201" lon="9.352896575583594"><ele>509.20000000000005</ele><time>2026-03-28T10:51:49.999Z</time></trkpt><trkpt lat="44.777374251483955" lon="9.352752939710665"><ele>510.79999999999995</ele><time>2026-03-28T10:51:50.999Z</time></trkpt><trkpt lat="44.7773346448657" lon="9.352612102843196"><ele>512.4</ele><time>2026-03-28T10:51:51.999Z</time></trkpt><trkpt lat="44.77726021395401" lon="9.352482052556478"><ele>514.0</ele><time>2026-03-28T10:51:52.999Z</time></trkpt><trkpt lat="44.77716962646355" lon="9.352362573741566"><ele>514.0</ele><time>2026-03-28T10:51:53.999Z</time></trkpt><trkpt lat="44.77710412469963" lon="9.352217818801881"><ele>514.0</ele><time>2026-03-28T10:51:54.999Z</time></trkpt><trkpt lat="44.77702069573161" lon="9.352135564043667"><ele>514.0</ele><time>2026-03-28T10:51:55.999Z</time></trkpt><trkpt lat="44.776945010446035" lon="9.352057120770352"><ele>514.0</ele><time>2026-03-28T10:51:56.999Z</time></trkpt><trkpt lat="44.776841476473706" lon="9.352071661167338"><ele>514.0</ele><time>2026-03-28T10:51:57.999Z</time></trkpt><trkpt lat="44.77674164945913" lon="9.352173311530391"><ele>510.25</ele><time>2026-03-28T10:51:58.999Z</time></trkpt><trkpt lat="44.776627154092026" lon="9.352173025267932"><ele>506.5</ele><time>2026-03-28T10:51:59.999Z</time></trkpt><trkpt lat="44.77650132705174" lon="9.35215635169302"><ele>502.75</ele><time>2026-03-28T10:52:00.999Z</time></trkpt><trkpt lat="44.77636104053376" lon="9.352178919013143"><ele>499.0</ele><time>2026-03-28T10:52:01.999Z</time></trkpt><trkpt lat="44.7762277753642" lon="9.352220503066523"><ele>499.0</ele><time>2026-03-28T10:52:02.999Z</time></trkpt><trkpt lat="44.77611927922969" lon="9.352248587700705"><ele>499.0</ele><time>2026-03-28T10:52:03.999Z</time></trkpt><trkpt lat="44.776009744509125" lon="9.352248581469375"><ele>499.0</ele><time>2026-03-28T10:52:04.999Z</time></trkpt><trkpt lat="44.77589868675811" lon="9.352196573869092"><ele>499.0</ele><time>2026-03-28T10:52:05.999Z</time></trkpt><trkpt lat="44.77577751616432" lon="9.352134857035903"><ele>507.5</ele><time>2026-03-28T10:52:06.999Z</time></trkpt><trkpt lat="44.77567625827793" lon="9.35203430097178"><ele>516.0</ele><time>2026-03-28T10:52:07.999Z</time></trkpt><trkpt lat="44.77555006072982" lon="9.351922515311054"><ele>524.5</ele><time>2026-03-28T10:52:08.999Z</time></trkpt><trkpt lat="44.7754251974242" lon="9.351798829738074"><ele>533.0</ele><time>2026-03-28T10:52:09.999Z</time></trkpt><trkpt lat="44.77531664816422" lon="9.351709929060387"><ele>533.0</ele><time>2026-03-28T10:52:10.999Z</time></trkpt><trkpt lat="44.77522229970496" lon="9.351640092925443"><ele>533.0</ele><time>2026-03-28T10:52:11.999Z</time></trkpt><trkpt lat="44.775122068965864" lon="9.351592812072077"><ele>533.0</ele><time>2026-03-28T10:52:12.999Z</time></trkpt><trkpt lat="44.775020260187986" lon="9.351540960191826"><ele>533.0</ele><time>2026-03-28T10:52:13.999Z</time></trkpt><trkpt lat="44.774909036406285" lon="9.351518549969434"><ele>533.0</ele><time>2026-03-28T10:52:14.999Z</time></trkpt><trkpt lat="44.77479844060686" lon="9.351488453070916"><ele>532.0</ele><time>2026-03-28T10:52:15.999Z</time></trkpt><trkpt lat="44.774696165582874" lon="9.351461022018555"><ele>531.0</ele><time>2026-03-28T10:52:16.999Z</time></trkpt><trkpt lat="44.774616706777174" lon="9.351409908659782"><ele>530.0</ele><time>2026-03-28T10:52:17.999Z</time></trkpt><trkpt lat="44.774549281648916" lon="9.35135128251149"><ele>529.0</ele><time>2026-03-28T10:52:18.999Z</time></trkpt><trkpt lat="44.77449635426084" lon="9.351286627054483"><ele>528.0</ele><time>2026-03-28T10:52:19.999Z</time></trkpt><trkpt lat="44.77446368394895" lon="9.35120654531614"><ele>527.0</ele><time>2026-03-28T10:52:20.999Z</time></trkpt><trkpt lat="44.77451663980466" lon="9.351027215842338"><ele>527.0</ele><time>2026-03-28T10:52:22.999Z</time></trkpt><trkpt lat="44.774599792515275" lon="9.350965514733915"><ele>527.0</ele><time>2026-03-28T10:52:23.999Z</time></trkpt><trkpt lat="44.77468588509642" lon="9.350899489262176"><ele>527.0</ele><time>2026-03-28T10:52:24.999Z</time></trkpt><trkpt lat="44.77478206479672" lon="9.350798471937559"><ele>527.0</ele><time>2026-03-28T10:52:25.999Z</time></trkpt><trkpt lat="44.77488004948026" lon="9.35069312748261"><ele>527.0</ele><time>2026-03-28T10:52:26.999Z</time></trkpt><trkpt lat="44.77496146271251" lon="9.350580743087317"><ele>526.3333333333333</ele><time>2026-03-28T10:52:27.999Z</time></trkpt><trkpt lat="44.77504478274597" lon="9.350474635806048"><ele>525.6666666666666</ele><time>2026-03-28T10:52:28.999Z</time></trkpt><trkpt lat="44.77512605652995" lon="9.350399075607104"><ele>525.0</ele><time>2026-03-28T10:52:29.999Z</time></trkpt><trkpt lat="44.77519508310774" lon="9.350341534735765"><ele>524.3333333333334</ele><time>2026-03-28T10:52:30.999Z</time></trkpt><trkpt lat="44.77525902930867" lon="9.350283325687245"><ele>523.6666666666667</ele><time>2026-03-28T10:52:31.999Z</time></trkpt><trkpt lat="44.77532622484405" lon="9.350234175113139"><ele>523.0</ele><time>2026-03-28T10:52:32.999Z</time></trkpt><trkpt lat="44.77539325578539" lon="9.35022150856809"><ele>527.1999999999999</ele><time>2026-03-28T10:52:33.999Z</time></trkpt><trkpt lat="44.775445286058" lon="9.350271548882242"><ele>531.4</ele><time>2026-03-28T10:52:34.999Z</time></trkpt><trkpt lat="44.7753837138964" lon="9.350433097098833"><ele>535.5999999999999</ele><time>2026-03-28T10:52:36.999Z</time></trkpt><trkpt lat="44.77534349908275" lon="9.350539879995438"><ele>539.8</ele><time>2026-03-28T10:52:37.999Z</time></trkpt><trkpt lat="44.775309518261906" lon="9.350682343973139"><ele>544.0</ele><time>2026-03-28T10:52:38.999Z</time></trkpt><trkpt lat="44.77528768270377" lon="9.350843636214641"><ele>544.0</ele><time>2026-03-28T10:52:39.999Z</time></trkpt><trkpt lat="44.77526490673137" lon="9.350969788443965"><ele>544.0</ele><time>2026-03-28T10:52:40.999Z</time></trkpt><trkpt lat="44.77523832080962" lon="9.35108769915078"><ele>544.0</ele><time>2026-03-28T10:52:42Z</time></trkpt><trkpt lat="44.7752226832122" lon="9.351182640777752"><ele>544.0</ele><time>2026-03-28T10:52:43Z</time></trkpt><trkpt lat="44.775254201562966" lon="9.351294076999682"><ele>544.0</ele><time>2026-03-28T10:52:44Z</time></trkpt><trkpt lat="44.775319159201516" lon="9.35135944115588"><ele>544.0</ele><time>2026-03-28T10:52:45Z</time></trkpt><trkpt lat="44.77541611020909" lon="9.351323692491086"><ele>544.0</ele><time>2026-03-28T10:52:46Z</time></trkpt><trkpt lat="44.775503530566915" lon="9.351270562154124"><ele>544.0</ele><time>2026-03-28T10:52:47Z</time></trkpt><trkpt lat="44.77559409958413" lon="9.351207770508777"><ele>544.0</ele><time>2026-03-28T10:52:48Z</time></trkpt><trkpt lat="44.775690797242795" lon="9.351144389052024"><ele>544.0</ele><time>2026-03-28T10:52:49Z</time></trkpt><trkpt lat="44.77577080564548" lon="9.351059065550285"><ele>544.0</ele><time>2026-03-28T10:52:50Z</time></trkpt><trkpt lat="44.775832938867715" lon="9.350918527486968"><ele>544.0</ele><time>2026-03-28T10:52:51Z</time></trkpt><trkpt lat="44.775879259111946" lon="9.350758980707504"><ele>544.0</ele><time>2026-03-28T10:52:52Z</time></trkpt><trkpt lat="44.775934869402676" lon="9.350584835964993"><ele>544.0</ele><time>2026-03-28T10:52:53Z</time></trkpt><trkpt lat="44.77599971843038" lon="9.350408822451573"><ele>544.0</ele><time>2026-03-28T10:52:54Z</time></trkpt><trkpt lat="44.776059456665315" lon="9.350235691210658"><ele>547.75</ele><time>2026-03-28T10:52:55Z</time></trkpt><trkpt lat="44.776121100703115" lon="9.350071577896196"><ele>551.5</ele><time>2026-03-28T10:52:56Z</time></trkpt><trkpt lat="44.776186261111576" lon="9.34991883435231"><ele>555.25</ele><time>2026-03-28T10:52:57Z</time></trkpt><trkpt lat="44.77624814108483" lon="9.349771629584284"><ele>559.0</ele><time>2026-03-28T10:52:58Z</time></trkpt><trkpt lat="44.776299381249636" lon="9.349621244748137"><ele>559.0</ele><time>2026-03-28T10:52:59Z</time></trkpt><trkpt lat="44.77635105708129" lon="9.349471994833136"><ele>559.0</ele><time>2026-03-28T10:53:00Z</time></trkpt><trkpt lat="44.77640857398076" lon="9.349316836411695"><ele>559.0</ele><time>2026-03-28T10:53:01Z</time></trkpt><trkpt lat="44.77646941379976" lon="9.349158454240428"><ele>559.0</ele><time>2026-03-28T10:53:02Z</time></trkpt><trkpt lat="44.776530180193234" lon="9.348995229902057"><ele>559.25</ele><time>2026-03-28T10:53:03Z</time></trkpt><trkpt lat="44.77659224787111" lon="9.348829599718583"><ele>559.5</ele><time>2026-03-28T10:53:04Z</time></trkpt><trkpt lat="44.77665409075021" lon="9.348657501872022"><ele>559.75</ele><time>2026-03-28T10:53:05Z</time></trkpt><trkpt lat="44.77672078485931" lon="9.348483167963195"><ele>560.0</ele><time>2026-03-28T10:53:06Z</time></trkpt><trkpt lat="44.776788779466905" lon="9.348305138698024"><ele>560.0</ele><time>2026-03-28T10:53:07Z</time></trkpt><trkpt lat="44.77685254270638" lon="9.348126947772819"><ele>560.0</ele><time>2026-03-28T10:53:08Z</time></trkpt><trkpt lat="44.77691614847511" lon="9.34794913041482"><ele>560.0</ele><time>2026-03-28T10:53:09Z</time></trkpt><trkpt lat="44.77697888491424" lon="9.347772537034714"><ele>560.0</ele><time>2026-03-28T10:53:10Z</time></trkpt><trkpt lat="44.77704514323847" lon="9.347598144492576"><ele>563.25</ele><time>2026-03-28T10:53:11Z</time></trkpt><trkpt lat="44.77710761982425" lon="9.347423990291425"><ele>566.5</ele><time>2026-03-28T10:53:12Z</time></trkpt><trkpt lat="44.77716534469804" lon="9.347245761805391"><ele>569.75</ele><time>2026-03-28T10:53:13Z</time></trkpt><trkpt lat="44.77721168729303" lon="9.347063355524972"><ele>573.0</ele><time>2026-03-28T10:53:14Z</time></trkpt><trkpt lat="44.77724561053479" lon="9.34687938730074"><ele>573.25</ele><time>2026-03-28T10:53:15Z</time></trkpt><trkpt lat="44.77727623140395" lon="9.346697331524366"><ele>573.5</ele><time>2026-03-28T10:53:16Z</time></trkpt><trkpt lat="44.77730863383054" lon="9.34652060560681"><ele>573.75</ele><time>2026-03-28T10:53:17Z</time></trkpt><trkpt lat="44.777344137739846" lon="9.346347227346437"><ele>574.0</ele><time>2026-03-28T10:53:18Z</time></trkpt><trkpt lat="44.777378543820085" lon="9.346172625460124"><ele>574.25</ele><time>2026-03-28T10:53:19Z</time></trkpt><trkpt lat="44.77741048208082" lon="9.34600156422419"><ele>574.5</ele><time>2026-03-28T10:53:20Z</time></trkpt><trkpt lat="44.77743925958687" lon="9.345841728084029"><ele>574.75</ele><time>2026-03-28T10:53:21Z</time></trkpt><trkpt lat="44.777473317007384" lon="9.345674119343274"><ele>575.0</ele><time>2026-03-28T10:53:22Z</time></trkpt><trkpt lat="44.777511691229215" lon="9.345511766466888"><ele>576.25</ele><time>2026-03-28T10:53:23Z</time></trkpt><trkpt lat="44.77754453995333" lon="9.34535068609678"><ele>577.5</ele><time>2026-03-28T10:53:24Z</time></trkpt><trkpt lat="44.77755861219202" lon="9.345190571275525"><ele>578.75</ele><time>2026-03-28T10:53:25Z</time></trkpt><trkpt lat="44.77756055638037" lon="9.3450052884897"><ele>580.0</ele><time>2026-03-28T10:53:26Z</time></trkpt><trkpt lat="44.77752348329145" lon="9.34486196065123"><ele>580.0</ele><time>2026-03-28T10:53:27Z</time></trkpt><trkpt lat="44.77746880294719" lon="9.344724081221926"><ele>580.0</ele><time>2026-03-28T10:53:28Z</time></trkpt><trkpt lat="44.77741699322868" lon="9.34458774791789"><ele>580.0</ele><time>2026-03-28T10:53:29Z</time></trkpt><trkpt lat="44.77737026532145" lon="9.34444317778389"><ele>580.0</ele><time>2026-03-28T10:53:30Z</time></trkpt><trkpt lat="44.77731822646585" lon="9.344298582570966"><ele>581.4</ele><time>2026-03-28T10:53:31Z</time></trkpt><trkpt lat="44.7772649283189" lon="9.344152839115793"><ele>582.8</ele><time>2026-03-28T10:53:32Z</time></trkpt><trkpt lat="44.77721117225468" lon="9.34400682820535"><ele>584.2</ele><time>2026-03-28T10:53:33Z</time></trkpt><trkpt lat="44.77716454602905" lon="9.343870105203175"><ele>585.6</ele><time>2026-03-28T10:53:34Z</time></trkpt><trkpt lat="44.77713522740154" lon="9.343742830642919"><ele>587.0</ele><time>2026-03-28T10:53:35Z</time></trkpt><trkpt lat="44.77714209641678" lon="9.343617716192517"><ele>589.0</ele><time>2026-03-28T10:53:36Z</time></trkpt><trkpt lat="44.77718132449448" lon="9.343496236741432"><ele>591.0</ele><time>2026-03-28T10:53:37Z</time></trkpt><trkpt lat="44.77723515418149" lon="9.343376910304357"><ele>593.0</ele><time>2026-03-28T10:53:38Z</time></trkpt><trkpt lat="44.77727923954183" lon="9.343256238234723"><ele>595.0</ele><time>2026-03-28T10:53:38.999Z</time></trkpt><trkpt lat="44.77731844728395" lon="9.343140604964756"><ele>597.0</ele><time>2026-03-28T10:53:39.999Z</time></trkpt><trkpt lat="44.7773683111245" lon="9.343050344865244"><ele>597.0</ele><time>2026-03-28T10:53:40.999Z</time></trkpt><trkpt lat="44.777441605084654" lon="9.343002218479565"><ele>597.0</ele><time>2026-03-28T10:53:41.999Z</time></trkpt><trkpt lat="44.7775248105097" lon="9.3430121266863"><ele>597.0</ele><time>2026-03-28T10:53:42.999Z</time></trkpt><trkpt lat="44.777584433213484" lon="9.343099237511867"><ele>597.0</ele><time>2026-03-28T10:53:43.999Z</time></trkpt><trkpt lat="44.7776196386154" lon="9.343191542915815"><ele>597.0</ele><time>2026-03-28T10:53:44.999Z</time></trkpt><trkpt lat="44.77768375603229" lon="9.343287044566619"><ele>597.0</ele><time>2026-03-28T10:53:45.999Z</time></trkpt><trkpt lat="44.77775963033747" lon="9.343342315043712"><ele>597.6666666666666</ele><time>2026-03-28T10:53:46.999Z</time></trkpt><trkpt lat="44.77782970435916" lon="9.343370158396931"><ele>598.3333333333334</ele><time>2026-03-28T10:53:47.999Z</time></trkpt><trkpt lat="44.77790850301796" lon="9.343347678168831"><ele>599.0</ele><time>2026-03-28T10:53:48.999Z</time></trkpt><trkpt lat="44.77798183568108" lon="9.343263810126311"><ele>599.6666666666667</ele><time>2026-03-28T10:53:49.999Z</time></trkpt><trkpt lat="44.77805909771787" lon="9.34316921449969"><ele>600.3333333333334</ele><time>2026-03-28T10:53:50.999Z</time></trkpt><trkpt lat="44.778109599379626" lon="9.343054397645064"><ele>601.0</ele><time>2026-03-28T10:53:51.999Z</time></trkpt><trkpt lat="44.77810615913466" lon="9.342920102539923"><ele>604.75</ele><time>2026-03-28T10:53:52.999Z</time></trkpt><trkpt lat="44.77805671778256" lon="9.342793705960169"><ele>608.5</ele><time>2026-03-28T10:53:53.999Z</time></trkpt><trkpt lat="44.77796964837841" lon="9.342699906986795"><ele>612.25</ele><time>2026-03-28T10:53:54.999Z</time></trkpt><trkpt lat="44.77786209971083" lon="9.342625534306503"><ele>616.0</ele><time>2026-03-28T10:53:55.999Z</time></trkpt><trkpt lat="44.77775249042311" lon="9.342521014561088"><ele>616.0</ele><time>2026-03-28T10:53:56.999Z</time></trkpt><trkpt lat="44.77762877981427" lon="9.342439700850207"><ele>616.0</ele><time>2026-03-28T10:53:57.999Z</time></trkpt><trkpt lat="44.77749950831111" lon="9.342362487903337"><ele>616.0</ele><time>2026-03-28T10:53:58.999Z</time></trkpt><trkpt lat="44.777358044838294" lon="9.34230300542279"><ele>616.0</ele><time>2026-03-28T10:53:59.999Z</time></trkpt><trkpt lat="44.77720816135153" lon="9.342281703517367"><ele>616.0</ele><time>2026-03-28T10:54:00.999Z</time></trkpt><trkpt lat="44.77705477844495" lon="9.342278729457993"><ele>616.0</ele><time>2026-03-28T10:54:01.999Z</time></trkpt><trkpt lat="44.77691190578768" lon="9.342266957980359"><ele>616.0</ele><time>2026-03-28T10:54:02.999Z</time></trkpt><trkpt lat="44.77678793822339" lon="9.342266441879172"><ele>616.0</ele><time>2026-03-28T10:54:03.999Z</time></trkpt><trkpt lat="44.776683680944615" lon="9.342225470242711"><ele>622.0</ele><time>2026-03-28T10:54:04.999Z</time></trkpt><trkpt lat="44.776591829328794" lon="9.342145027611874"><ele>628.0</ele><time>2026-03-28T10:54:05.999Z</time></trkpt><trkpt lat="44.77650296560097" lon="9.34203682721167"><ele>634.0</ele><time>2026-03-28T10:54:06.999Z</time></trkpt><trkpt lat="44.77640568769043" lon="9.341928014480144"><ele>640.0</ele><time>2026-03-28T10:54:07.999Z</time></trkpt><trkpt lat="44.776288474267005" lon="9.341853291014582"><ele>640.0</ele><time>2026-03-28T10:54:08.999Z</time></trkpt><trkpt lat="44.77616893728097" lon="9.341814034413932"><ele>640.0</ele><time>2026-03-28T10:54:09.999Z</time></trkpt><trkpt lat="44.776045456870605" lon="9.341797317434146"><ele>640.0</ele><time>2026-03-28T10:54:10.999Z</time></trkpt><trkpt lat="44.77592539764862" lon="9.341837918994774"><ele>640.0</ele><time>2026-03-28T10:54:11.999Z</time></trkpt><trkpt lat="44.77580855336086" lon="9.341852229495657"><ele>638.0</ele><time>2026-03-28T10:54:12.999Z</time></trkpt><trkpt lat="44.775698103285976" lon="9.341822117764579"><ele>636.0</ele><time>2026-03-28T10:54:13.999Z</time></trkpt><trkpt lat="44.77558890036541" lon="9.341766659029922"><ele>634.0</ele><time>2026-03-28T10:54:14.999Z</time></trkpt><trkpt lat="44.77547314482005" lon="9.341709769847554"><ele>632.0</ele><time>2026-03-28T10:54:15.999Z</time></trkpt><trkpt lat="44.77536559584221" lon="9.341610092145913"><ele>632.0</ele><time>2026-03-28T10:54:16.999Z</time></trkpt><trkpt lat="44.77526223589787" lon="9.341512974009003"><ele>632.0</ele><time>2026-03-28T10:54:17.999Z</time></trkpt><trkpt lat="44.77513794593999" lon="9.341474853671313"><ele>632.0</ele><time>2026-03-28T10:54:18.999Z</time></trkpt><trkpt lat="44.775019477623864" lon="9.341424131606468"><ele>632.0</ele><time>2026-03-28T10:54:19.999Z</time></trkpt><trkpt lat="44.77490760517893" lon="9.341317908842937"><ele>635.75</ele><time>2026-03-28T10:54:20.999Z</time></trkpt><trkpt lat="44.774792700526405" lon="9.34121201722909"><ele>639.5</ele><time>2026-03-28T10:54:21.999Z</time></trkpt><trkpt lat="44.77468167230963" lon="9.34110821384478"><ele>643.25</ele><time>2026-03-28T10:54:22.999Z</time></trkpt><trkpt lat="44.774591652739744" lon="9.34097992589166"><ele>647.0</ele><time>2026-03-28T10:54:23.999Z</time></trkpt><trkpt lat="44.774529719790166" lon="9.340829768411082"><ele>647.0</ele><time>2026-03-28T10:54:24.999Z</time></trkpt><trkpt lat="44.774498336773696" lon="9.340675735381051"><ele>647.0</ele><time>2026-03-28T10:54:25.999Z</time></trkpt><trkpt lat="44.774465525425114" lon="9.340520737289483"><ele>647.0</ele><time>2026-03-28T10:54:26.999Z</time></trkpt><trkpt lat="44.774406963235656" lon="9.340359508076231"><ele>647.0</ele><time>2026-03-28T10:54:27.999Z</time></trkpt><trkpt lat="44.77432124424167" lon="9.340216889915656"><ele>648.0</ele><time>2026-03-28T10:54:28.999Z</time></trkpt><trkpt lat="44.77421855288773" lon="9.340095107814008"><ele>649.0</ele><time>2026-03-28T10:54:29.999Z</time></trkpt><trkpt lat="44.774109201218785" lon="9.33996969845234"><ele>650.0</ele><time>2026-03-28T10:54:30.999Z</time></trkpt><trkpt lat="44.77398636746277" lon="9.339863553423053"><ele>651.0</ele><time>2026-03-28T10:54:31.999Z</time></trkpt><trkpt lat="44.77385652631975" lon="9.33976018609139"><ele>651.0</ele><time>2026-03-28T10:54:32.999Z</time></trkpt><trkpt lat="44.77372875891494" lon="9.339668014321816"><ele>651.0</ele><time>2026-03-28T10:54:33.999Z</time></trkpt><trkpt lat="44.77361168258693" lon="9.339597112182826"><ele>651.0</ele><time>2026-03-28T10:54:34.999Z</time></trkpt><trkpt lat="44.77352547988493" lon="9.339487498338414"><ele>651.0</ele><time>2026-03-28T10:54:35.999Z</time></trkpt><trkpt lat="44.77344857923436" lon="9.33934269255248"><ele>651.0</ele><time>2026-03-28T10:54:36.999Z</time></trkpt><trkpt lat="44.773391459728074" lon="9.339173997338303"><ele>651.0</ele><time>2026-03-28T10:54:37.999Z</time></trkpt><trkpt lat="44.77335453352541" lon="9.338992336543916"><ele>651.0</ele><time>2026-03-28T10:54:38.999Z</time></trkpt><trkpt lat="44.773312792317284" lon="9.338816543341194"><ele>651.0</ele><time>2026-03-28T10:54:39.999Z</time></trkpt><trkpt lat="44.773266196934856" lon="9.33863650422478"><ele>651.5999999999999</ele><time>2026-03-28T10:54:40.999Z</time></trkpt><trkpt lat="44.773238308232564" lon="9.338477439894232"><ele>652.2</ele><time>2026-03-28T10:54:41.999Z</time></trkpt><trkpt lat="44.77324557732094" lon="9.338347517571915"><ele>652.8</ele><time>2026-03-28T10:54:42.999Z</time></trkpt><trkpt lat="44.77329281455355" lon="9.338246327352833"><ele>653.4000000000001</ele><time>2026-03-28T10:54:43.999Z</time></trkpt><trkpt lat="44.773373167109746" lon="9.338195919329973"><ele>654.0</ele><time>2026-03-28T10:54:44.999Z</time></trkpt><trkpt lat="44.77347743461567" lon="9.338182482402077"><ele>658.0</ele><time>2026-03-28T10:54:45.999Z</time></trkpt><trkpt lat="44.77358346927267" lon="9.338207732221296"><ele>662.0</ele><time>2026-03-28T10:54:46.999Z</time></trkpt><trkpt lat="44.77366960277622" lon="9.338185142632906"><ele>666.0</ele><time>2026-03-28T10:54:48Z</time></trkpt><trkpt lat="44.773745706638564" lon="9.338076416415365"><ele>670.0</ele><time>2026-03-28T10:54:49Z</time></trkpt><trkpt lat="44.77377126672473" lon="9.337932614522213"><ele>674.0</ele><time>2026-03-28T10:54:50Z</time></trkpt><trkpt lat="44.77379822831301" lon="9.337773192702798"><ele>675.75</ele><time>2026-03-28T10:54:51Z</time></trkpt><trkpt lat="44.773831887682704" lon="9.337620720464107"><ele>677.5</ele><time>2026-03-28T10:54:52Z</time></trkpt><trkpt lat="44.77385398910766" lon="9.337466076498753"><ele>679.25</ele><time>2026-03-28T10:54:53Z</time></trkpt><trkpt lat="44.773848136798705" lon="9.337294305912652"><ele>681.0</ele><time>2026-03-28T10:54:54Z</time></trkpt><trkpt lat="44.7738125598286" lon="9.337123180934867"><ele>677.25</ele><time>2026-03-28T10:54:55Z</time></trkpt><trkpt lat="44.77375210225065" lon="9.336961560458143"><ele>673.5</ele><time>2026-03-28T10:54:56Z</time></trkpt><trkpt lat="44.773662348088" lon="9.336815823895854"><ele>669.75</ele><time>2026-03-28T10:54:57Z</time></trkpt><trkpt lat="44.77356837204807" lon="9.336670555787716"><ele>666.0</ele><time>2026-03-28T10:54:58Z</time></trkpt><trkpt lat="44.77348157644805" lon="9.336498656906947"><ele>677.0</ele><time>2026-03-28T10:54:59Z</time></trkpt><trkpt lat="44.77337167682596" lon="9.336345468867023"><ele>688.0</ele><time>2026-03-28T10:55:00Z</time></trkpt><trkpt lat="44.77325070508727" lon="9.33621307376337"><ele>699.0</ele><time>2026-03-28T10:55:01Z</time></trkpt><trkpt lat="44.773116079710576" lon="9.33610167229433"><ele>699.0</ele><time>2026-03-28T10:55:02Z</time></trkpt><trkpt lat="44.772987323045975" lon="9.335993473790516"><ele>699.0</ele><time>2026-03-28T10:55:03Z</time></trkpt><trkpt lat="44.77286950500361" lon="9.335865257829884"><ele>699.0</ele><time>2026-03-28T10:55:04Z</time></trkpt><trkpt lat="44.77277484557133" lon="9.335699623404139"><ele>692.0</ele><time>2026-03-28T10:55:05Z</time></trkpt><trkpt lat="44.77266528331673" lon="9.335564043706333"><ele>685.0</ele><time>2026-03-28T10:55:06Z</time></trkpt><trkpt lat="44.77257149430527" lon="9.335441501499417"><ele>678.0</ele><time>2026-03-28T10:55:07Z</time></trkpt><trkpt lat="44.77250008132286" lon="9.33531588059123"><ele>671.0</ele><time>2026-03-28T10:55:08Z</time></trkpt><trkpt lat="44.772479433222976" lon="9.335195196297331"><ele>671.0</ele><time>2026-03-28T10:55:09Z</time></trkpt><trkpt lat="44.772498372469514" lon="9.335074698547595"><ele>671.0</ele><time>2026-03-28T10:55:10Z</time></trkpt><trkpt lat="44.77256479040601" lon="9.334976634603892"><ele>671.0</ele><time>2026-03-28T10:55:11Z</time></trkpt><trkpt lat="44.77265444668487" lon="9.334866282404732"><ele>671.0</ele><time>2026-03-28T10:55:12Z</time></trkpt><trkpt lat="44.772732033230376" lon="9.334733826936022"><ele>671.0</ele><time>2026-03-28T10:55:13Z</time></trkpt><trkpt lat="44.77280638596883" lon="9.334616912744355"><ele>674.0</ele><time>2026-03-28T10:55:14Z</time></trkpt><trkpt lat="44.77292049070872" lon="9.33457237860012"><ele>677.0</ele><time>2026-03-28T10:55:15Z</time></trkpt><trkpt lat="44.773054635038065" lon="9.334497720046448"><ele>680.0</ele><time>2026-03-28T10:55:16Z</time></trkpt><trkpt lat="44.77319995742598" lon="9.33442733538945"><ele>683.0</ele><time>2026-03-28T10:55:17Z</time></trkpt><trkpt lat="44.77334398723813" lon="9.334328946904277"><ele>683.0</ele><time>2026-03-28T10:55:18Z</time></trkpt><trkpt lat="44.7734866922486" lon="9.334216281824684"><ele>683.0</ele><time>2026-03-28T10:55:19Z</time></trkpt><trkpt lat="44.77362040762997" lon="9.334106562106438"><ele>683.0</ele><time>2026-03-28T10:55:20Z</time></trkpt><trkpt lat="44.77374906530434" lon="9.334006736997342"><ele>688.0</ele><time>2026-03-28T10:55:21Z</time></trkpt><trkpt lat="44.77387128447777" lon="9.33389852211118"><ele>693.0</ele><time>2026-03-28T10:55:22Z</time></trkpt><trkpt lat="44.77397668396048" lon="9.333761589170313"><ele>698.0</ele><time>2026-03-28T10:55:23Z</time></trkpt><trkpt lat="44.774055275122386" lon="9.333603178562937"><ele>703.0</ele><time>2026-03-28T10:55:24Z</time></trkpt><trkpt lat="44.77408311701444" lon="9.333444639303403"><ele>703.0</ele><time>2026-03-28T10:55:25Z</time></trkpt><trkpt lat="44.77406608819028" lon="9.333279686741523"><ele>703.0</ele><time>2026-03-28T10:55:26Z</time></trkpt><trkpt lat="44.77401752777397" lon="9.333111517505522"><ele>703.0</ele><time>2026-03-28T10:55:27Z</time></trkpt><trkpt lat="44.77396563892574" lon="9.332941413608923"><ele>703.0</ele><time>2026-03-28T10:55:28Z</time></trkpt><trkpt lat="44.773949671188696" lon="9.332762320931938"><ele>703.5</ele><time>2026-03-28T10:55:29Z</time></trkpt><trkpt lat="44.77397877713867" lon="9.33258244835273"><ele>704.0</ele><time>2026-03-28T10:55:30Z</time></trkpt><trkpt lat="44.77404332668157" lon="9.332443321258369"><ele>704.5</ele><time>2026-03-28T10:55:31Z</time></trkpt><trkpt lat="44.77413193835577" lon="9.332340103745851"><ele>705.0</ele><time>2026-03-28T10:55:32Z</time></trkpt><trkpt lat="44.77421096662139" lon="9.332232356573664"><ele>707.0</ele><time>2026-03-28T10:55:33Z</time></trkpt><trkpt lat="44.77423840206792" lon="9.332113920505936"><ele>709.0</ele><time>2026-03-28T10:55:34Z</time></trkpt><trkpt lat="44.77422075344468" lon="9.3320039002737"><ele>711.0</ele><time>2026-03-28T10:55:35Z</time></trkpt><trkpt lat="44.774158506162514" lon="9.331928640554784"><ele>713.0</ele><time>2026-03-28T10:55:36Z</time></trkpt><trkpt lat="44.77406467685364" lon="9.331911860563505"><ele>715.0</ele><time>2026-03-28T10:55:37Z</time></trkpt><trkpt lat="44.773954757995995" lon="9.331927879997913"><ele>715.0</ele><time>2026-03-28T10:55:38Z</time></trkpt><trkpt lat="44.77384100224005" lon="9.332002822552917"><ele>715.0</ele><time>2026-03-28T10:55:39Z</time></trkpt><trkpt lat="44.773746321179814" lon="9.332055646603651"><ele>715.0</ele><time>2026-03-28T10:55:40Z</time></trkpt><trkpt lat="44.77364653131695" lon="9.332075459595773"><ele>715.0</ele><time>2026-03-28T10:55:41Z</time></trkpt><trkpt lat="44.77356699644235" lon="9.33198583067834"><ele>715.0</ele><time>2026-03-28T10:55:41.999Z</time></trkpt><trkpt lat="44.77351985778169" lon="9.331843564351251"><ele>716.25</ele><time>2026-03-28T10:55:42.999Z</time></trkpt><trkpt lat="44.7734657789939" lon="9.331668371454185"><ele>717.5</ele><time>2026-03-28T10:55:43.999Z</time></trkpt><trkpt lat="44.773404346970175" lon="9.331494698183205"><ele>718.75</ele><time>2026-03-28T10:55:44.999Z</time></trkpt><trkpt lat="44.77332117397556" lon="9.331333941688774"><ele>720.0</ele><time>2026-03-28T10:55:45.999Z</time></trkpt><trkpt lat="44.77321712130871" lon="9.331204806484154"><ele>720.0</ele><time>2026-03-28T10:55:46.999Z</time></trkpt><trkpt lat="44.77309308514945" lon="9.331106015764837"><ele>720.0</ele><time>2026-03-28T10:55:47.999Z</time></trkpt><trkpt lat="44.77298643884174" lon="9.331003105890742"><ele>720.0</ele><time>2026-03-28T10:55:48.999Z</time></trkpt><trkpt lat="44.772876500497446" lon="9.330934664301735"><ele>720.0</ele><time>2026-03-28T10:55:49.999Z</time></trkpt><trkpt lat="44.772743453271424" lon="9.33093161404297"><ele>717.5</ele><time>2026-03-28T10:55:50.999Z</time></trkpt><trkpt lat="44.7726130030945" lon="9.330948607409518"><ele>715.0</ele><time>2026-03-28T10:55:51.999Z</time></trkpt><trkpt lat="44.77250005249196" lon="9.330921764156976"><ele>712.5</ele><time>2026-03-28T10:55:52.999Z</time></trkpt><trkpt lat="44.77237752377426" lon="9.33085851847819"><ele>710.0</ele><time>2026-03-28T10:55:53.999Z</time></trkpt><trkpt lat="44.77223469365761" lon="9.330856257198837"><ele>710.0</ele><time>2026-03-28T10:55:54.999Z</time></trkpt><trkpt lat="44.77211143297131" lon="9.330880486240282"><ele>710.0</ele><time>2026-03-28T10:55:55.999Z</time></trkpt><trkpt lat="44.77199913983866" lon="9.33087340033139"><ele>710.0</ele><time>2026-03-28T10:55:56.999Z</time></trkpt><trkpt lat="44.7718810516157" lon="9.330828531153694"><ele>710.0</ele><time>2026-03-28T10:55:57.999Z</time></trkpt><trkpt lat="44.77177103627287" lon="9.330752148820206"><ele>709.0</ele><time>2026-03-28T10:55:58.999Z</time></trkpt><trkpt lat="44.77167601776155" lon="9.330683970344241"><ele>708.0</ele><time>2026-03-28T10:55:59.999Z</time></trkpt><trkpt lat="44.771573984009486" lon="9.330688472437618"><ele>707.0</ele><time>2026-03-28T10:56:00.999Z</time></trkpt><trkpt lat="44.77145877036364" lon="9.33078855452447"><ele>706.0</ele><time>2026-03-28T10:56:01.999Z</time></trkpt><trkpt lat="44.77135530066448" lon="9.330866661072553"><ele>706.0</ele><time>2026-03-28T10:56:02.999Z</time></trkpt><trkpt lat="44.77126845819717" lon="9.330885015233397"><ele>706.0</ele><time>2026-03-28T10:56:03.999Z</time></trkpt><trkpt lat="44.771168997214986" lon="9.330871731057995"><ele>706.0</ele><time>2026-03-28T10:56:04.999Z</time></trkpt><trkpt lat="44.771053042766034" lon="9.330874019137317"><ele>706.0</ele><time>2026-03-28T10:56:05.999Z</time></trkpt><trkpt lat="44.7709416103536" lon="9.33092068289826"><ele>706.0</ele><time>2026-03-28T10:56:06.999Z</time></trkpt><trkpt lat="44.770840257367" lon="9.330942119149567"><ele>705.1999999999999</ele><time>2026-03-28T10:56:07.999Z</time></trkpt><trkpt lat="44.77075001367196" lon="9.330924677607287"><ele>704.4</ele><time>2026-03-28T10:56:08.999Z</time></trkpt><trkpt lat="44.770702302192234" lon="9.330830533123926"><ele>703.6</ele><time>2026-03-28T10:56:09.999Z</time></trkpt><trkpt lat="44.770668296840974" lon="9.330709000878315"><ele>702.8</ele><time>2026-03-28T10:56:10.999Z</time></trkpt><trkpt lat="44.7706083369041" lon="9.33056131997594"><ele>702.0</ele><time>2026-03-28T10:56:11.999Z</time></trkpt><trkpt lat="44.77052570102107" lon="9.330394855682522"><ele>703.5</ele><time>2026-03-28T10:56:12.999Z</time></trkpt><trkpt lat="44.77045110640018" lon="9.330235844340368"><ele>705.0</ele><time>2026-03-28T10:56:13.999Z</time></trkpt><trkpt lat="44.77036788110443" lon="9.330090034524417"><ele>706.5</ele><time>2026-03-28T10:56:14.999Z</time></trkpt><trkpt lat="44.77026833651605" lon="9.329962845278725"><ele>708.0</ele><time>2026-03-28T10:56:15.999Z</time></trkpt><trkpt lat="44.770163110058846" lon="9.329838479987329"><ele>708.0</ele><time>2026-03-28T10:56:16.999Z</time></trkpt><trkpt lat="44.770048272700244" lon="9.329730896166971"><ele>708.0</ele><time>2026-03-28T10:56:17.999Z</time></trkpt><trkpt lat="44.76992712804291" lon="9.329628928187482"><ele>708.0</ele><time>2026-03-28T10:56:18.999Z</time></trkpt><trkpt lat="44.76979816056946" lon="9.32954634291783"><ele>708.0</ele><time>2026-03-28T10:56:19.999Z</time></trkpt><trkpt lat="44.769658994966505" lon="9.32950341300156"><ele>713.0</ele><time>2026-03-28T10:56:20.999Z</time></trkpt><trkpt lat="44.76952443570622" lon="9.329467232380363"><ele>718.0</ele><time>2026-03-28T10:56:21.999Z</time></trkpt><trkpt lat="44.7693970736677" lon="9.329382346177729"><ele>723.0</ele><time>2026-03-28T10:56:22.999Z</time></trkpt><trkpt lat="44.76926967627861" lon="9.329280133600427"><ele>728.0</ele><time>2026-03-28T10:56:23.999Z</time></trkpt><trkpt lat="44.76914665457288" lon="9.329194760820634"><ele>728.0</ele><time>2026-03-28T10:56:24.999Z</time></trkpt><trkpt lat="44.76905441109206" lon="9.329132439234337"><ele>728.0</ele><time>2026-03-28T10:56:25.999Z</time></trkpt><trkpt lat="44.76902130401054" lon="9.3290003402859"><ele>728.0</ele><time>2026-03-28T10:56:27.999Z</time></trkpt><trkpt lat="44.76906419877901" lon="9.328925110661642"><ele>728.0</ele><time>2026-03-28T10:56:28.999Z</time></trkpt><trkpt lat="44.76915981104827" lon="9.328862163617282"><ele>728.0</ele><time>2026-03-28T10:56:29.999Z</time></trkpt><trkpt lat="44.76925887689726" lon="9.328794177910792"><ele>735.25</ele><time>2026-03-28T10:56:30.999Z</time></trkpt><trkpt lat="44.769372271486255" lon="9.328706367283432"><ele>742.5</ele><time>2026-03-28T10:56:31.999Z</time></trkpt><trkpt lat="44.76947954387786" lon="9.328613654786418"><ele>749.75</ele><time>2026-03-28T10:56:32.999Z</time></trkpt><trkpt lat="44.769582160324504" lon="9.328508998337151"><ele>757.0</ele><time>2026-03-28T10:56:33.999Z</time></trkpt><trkpt lat="44.76967441040045" lon="9.328377154213856"><ele>757.0</ele><time>2026-03-28T10:56:34.999Z</time></trkpt><trkpt lat="44.769747893177176" lon="9.328219768767303"><ele>757.0</ele><time>2026-03-28T10:56:35.999Z</time></trkpt><trkpt lat="44.76979980782893" lon="9.328028481524052"><ele>757.0</ele><time>2026-03-28T10:56:36.999Z</time></trkpt><trkpt lat="44.76986247998263" lon="9.327842572938959"><ele>757.0</ele><time>2026-03-28T10:56:37.999Z</time></trkpt><trkpt lat="44.769937791281706" lon="9.327667364474323"><ele>759.3333333333334</ele><time>2026-03-28T10:56:38.999Z</time></trkpt><trkpt lat="44.770027898958034" lon="9.327490865454708"><ele>761.6666666666666</ele><time>2026-03-28T10:56:39.999Z</time></trkpt><trkpt lat="44.77012538187322" lon="9.32732570555728"><ele>764.0</ele><time>2026-03-28T10:56:40.999Z</time></trkpt><trkpt lat="44.77023888888909" lon="9.327181451931642"><ele>764.0</ele><time>2026-03-28T10:56:41.999Z</time></trkpt><trkpt lat="44.770348053322564" lon="9.327065480133959"><ele>764.0</ele><time>2026-03-28T10:56:42.999Z</time></trkpt><trkpt lat="44.77042886399409" lon="9.32693078667262"><ele>764.0</ele><time>2026-03-28T10:56:43.999Z</time></trkpt><trkpt lat="44.77048370006932" lon="9.32675638034788"><ele>764.0</ele><time>2026-03-28T10:56:44.999Z</time></trkpt><trkpt lat="44.77052562367244" lon="9.326571461010106"><ele>761.25</ele><time>2026-03-28T10:56:45.999Z</time></trkpt><trkpt lat="44.77055569554553" lon="9.326376930212811"><ele>758.5</ele><time>2026-03-28T10:56:46.999Z</time></trkpt><trkpt lat="44.77058830994188" lon="9.326186371965777"><ele>755.75</ele><time>2026-03-28T10:56:47.999Z</time></trkpt><trkpt lat="44.77065994062297" lon="9.326010371647754"><ele>753.0</ele><time>2026-03-28T10:56:48.999Z</time></trkpt><trkpt lat="44.77075646149252" lon="9.325850324642094"><ele>753.0</ele><time>2026-03-28T10:56:49.999Z</time></trkpt><trkpt lat="44.770850858971286" lon="9.325680828984954"><ele>753.0</ele><time>2026-03-28T10:56:50.999Z</time></trkpt><trkpt lat="44.770926618735466" lon="9.325490716926383"><ele>753.0</ele><time>2026-03-28T10:56:51.999Z</time></trkpt><trkpt lat="44.770969618832666" lon="9.32526687406939"><ele>751.0</ele><time>2026-03-28T10:56:52.999Z</time></trkpt><trkpt lat="44.77101034451048" lon="9.325054967883315"><ele>749.0</ele><time>2026-03-28T10:56:54Z</time></trkpt><trkpt lat="44.771068675002354" lon="9.32485908226658"><ele>747.0</ele><time>2026-03-28T10:56:55Z</time></trkpt><trkpt lat="44.77110813434587" lon="9.324666746154344"><ele>745.0</ele><time>2026-03-28T10:56:56Z</time></trkpt><trkpt lat="44.77110768216701" lon="9.324460177334032"><ele>757.25</ele><time>2026-03-28T10:56:57Z</time></trkpt><trkpt lat="44.771110003630874" lon="9.324258285113313"><ele>769.5</ele><time>2026-03-28T10:56:58Z</time></trkpt><trkpt lat="44.77112426527302" lon="9.324062694621484"><ele>781.75</ele><time>2026-03-28T10:56:59Z</time></trkpt><trkpt lat="44.77115823735409" lon="9.323881247078587"><ele>794.0</ele><time>2026-03-28T10:57:00Z</time></trkpt><trkpt lat="44.77120848074873" lon="9.323694987043554"><ele>794.0</ele><time>2026-03-28T10:57:01Z</time></trkpt><trkpt lat="44.771263170420724" lon="9.323516248815737"><ele>794.0</ele><time>2026-03-28T10:57:02Z</time></trkpt><trkpt lat="44.771307220288385" lon="9.323358307927307"><ele>794.0</ele><time>2026-03-28T10:57:03Z</time></trkpt><trkpt lat="44.77135457079517" lon="9.323223090583715"><ele>794.0</ele><time>2026-03-28T10:57:04Z</time></trkpt><trkpt lat="44.77141929233601" lon="9.323094179178682"><ele>793.6</ele><time>2026-03-28T10:57:05Z</time></trkpt><trkpt lat="44.77149720885345" lon="9.322976599596897"><ele>793.2</ele><time>2026-03-28T10:57:06Z</time></trkpt><trkpt lat="44.77155100652999" lon="9.322845969814615"><ele>792.8000000000001</ele><time>2026-03-28T10:57:07Z</time></trkpt><trkpt lat="44.77156602742561" lon="9.32269486103743"><ele>792.4000000000001</ele><time>2026-03-28T10:57:08Z</time></trkpt><trkpt lat="44.771540720769664" lon="9.322550793693877"><ele>792.0</ele><time>2026-03-28T10:57:09Z</time></trkpt><trkpt lat="44.771504225502824" lon="9.322408392253093"><ele>792.0</ele><time>2026-03-28T10:57:10Z</time></trkpt><trkpt lat="44.77139509729154" lon="9.32234604517493"><ele>792.0</ele><time>2026-03-28T10:57:11Z</time></trkpt><trkpt lat="44.77128971352064" lon="9.322304941845847"><ele>792.0</ele><time>2026-03-28T10:57:12Z</time></trkpt><trkpt lat="44.77117474961322" lon="9.322224875948345"><ele>792.0</ele><time>2026-03-28T10:57:13Z</time></trkpt><trkpt lat="44.77105545392936" lon="9.322163182289087"><ele>793.5</ele><time>2026-03-28T10:57:14Z</time></trkpt><trkpt lat="44.77093815001435" lon="9.32209050429525"><ele>795.0</ele><time>2026-03-28T10:57:15Z</time></trkpt><trkpt lat="44.77081724804772" lon="9.322006753089303"><ele>796.5</ele><time>2026-03-28T10:57:16Z</time></trkpt><trkpt lat="44.770696158347654" lon="9.321929802750729"><ele>798.0</ele><time>2026-03-28T10:57:17Z</time></trkpt><trkpt lat="44.77057289867793" lon="9.321879932689388"><ele>798.0</ele><time>2026-03-28T10:57:18Z</time></trkpt><trkpt lat="44.77044423333664" lon="9.321878167048574"><ele>798.0</ele><time>2026-03-28T10:57:19Z</time></trkpt><trkpt lat="44.77031835069204" lon="9.321932447783054"><ele>798.0</ele><time>2026-03-28T10:57:20Z</time></trkpt><trkpt lat="44.770212620107614" lon="9.322053029758518"><ele>798.0</ele><time>2026-03-28T10:57:21Z</time></trkpt><trkpt lat="44.770145611329106" lon="9.32222333832943"><ele>796.0</ele><time>2026-03-28T10:57:22Z</time></trkpt><trkpt lat="44.77005477822922" lon="9.322340697566997"><ele>794.0</ele><time>2026-03-28T10:57:23Z</time></trkpt><trkpt lat="44.76995905436429" lon="9.322411317009482"><ele>792.0</ele><time>2026-03-28T10:57:24Z</time></trkpt><trkpt lat="44.769824413687246" lon="9.3224572620174"><ele>790.0</ele><time>2026-03-28T10:57:25Z</time></trkpt><trkpt lat="44.76968255999076" lon="9.32252809782629"><ele>790.0</ele><time>2026-03-28T10:57:26Z</time></trkpt><trkpt lat="44.769560524021294" lon="9.322589985229532"><ele>790.0</ele><time>2026-03-28T10:57:27Z</time></trkpt><trkpt lat="44.76944941947259" lon="9.322601571711568"><ele>790.0</ele><time>2026-03-28T10:57:28Z</time></trkpt><trkpt lat="44.769319171845986" lon="9.322563639846576"><ele>790.0</ele><time>2026-03-28T10:57:29Z</time></trkpt><trkpt lat="44.769168869565775" lon="9.322526650517537"><ele>793.5</ele><time>2026-03-28T10:57:30Z</time></trkpt><trkpt lat="44.769015116559736" lon="9.322492063253513"><ele>797.0</ele><time>2026-03-28T10:57:31Z</time></trkpt><trkpt lat="44.768867383710734" lon="9.322454198194052"><ele>800.5</ele><time>2026-03-28T10:57:32Z</time></trkpt><trkpt lat="44.76874321331551" lon="9.322407120825472"><ele>804.0</ele><time>2026-03-28T10:57:33Z</time></trkpt><trkpt lat="44.768628907980315" lon="9.322360308028653"><ele>804.0</ele><time>2026-03-28T10:57:34Z</time></trkpt><trkpt lat="44.76852704124007" lon="9.32233724050032"><ele>804.0</ele><time>2026-03-28T10:57:35Z</time></trkpt><trkpt lat="44.768433185995406" lon="9.322326475755476"><ele>804.0</ele><time>2026-03-28T10:57:36Z</time></trkpt><trkpt lat="44.76836614370605" lon="9.32232583054814"><ele>804.0</ele><time>2026-03-28T10:57:37Z</time></trkpt><trkpt lat="44.76832508196835" lon="9.322162714237798"><ele>804.0</ele><time>2026-03-28T10:57:39Z</time></trkpt><trkpt lat="44.768349783337015" lon="9.322047012809431"><ele>803.75</ele><time>2026-03-28T10:57:40Z</time></trkpt><trkpt lat="44.76837454062169" lon="9.321910512625415"><ele>803.5</ele><time>2026-03-28T10:57:41Z</time></trkpt><trkpt lat="44.76839883637465" lon="9.32176017557525"><ele>803.25</ele><time>2026-03-28T10:57:42Z</time></trkpt><trkpt lat="44.76840711555319" lon="9.32159500047125"><ele>803.0</ele><time>2026-03-28T10:57:43Z</time></trkpt><trkpt lat="44.768405565984885" lon="9.321420745959976"><ele>810.0</ele><time>2026-03-28T10:57:44Z</time></trkpt><trkpt lat="44.76840011680278" lon="9.321231350176811"><ele>817.0</ele><time>2026-03-28T10:57:45Z</time></trkpt><trkpt lat="44.76840027897833" lon="9.321034378694389"><ele>824.0</ele><time>2026-03-28T10:57:46Z</time></trkpt><trkpt lat="44.76839259604162" lon="9.320837573431795"><ele>831.0</ele><time>2026-03-28T10:57:47Z</time></trkpt><trkpt lat="44.76835020341769" lon="9.32064735248149"><ele>832.1999999999999</ele><time>2026-03-28T10:57:48Z</time></trkpt><trkpt lat="44.768275392075054" lon="9.320476661653316"><ele>833.4</ele><time>2026-03-28T10:57:49Z</time></trkpt><trkpt lat="44.76818607996231" lon="9.320340646952875"><ele>834.6</ele><time>2026-03-28T10:57:50Z</time></trkpt><trkpt lat="44.76812491324176" lon="9.320238545527282"><ele>835.8</ele><time>2026-03-28T10:57:50.999Z</time></trkpt><trkpt lat="44.768071610361694" lon="9.320166520217326"><ele>837.0</ele><time>2026-03-28T10:57:51.999Z</time></trkpt><trkpt lat="44.768056225570575" lon="9.320050281112643"><ele>837.0</ele><time>2026-03-28T10:57:52.999Z</time></trkpt><trkpt lat="44.76806974293801" lon="9.319947456234633"><ele>837.0</ele><time>2026-03-28T10:57:53.999Z</time></trkpt><trkpt lat="44.76812280609249" lon="9.319846497605996"><ele>837.0</ele><time>2026-03-28T10:57:54.999Z</time></trkpt><trkpt lat="44.768189281875266" lon="9.319747090115378"><ele>837.0</ele><time>2026-03-28T10:57:55.999Z</time></trkpt><trkpt lat="44.7682577742615" lon="9.31963979079528"><ele>837.0</ele><time>2026-03-28T10:57:56.999Z</time></trkpt><trkpt lat="44.768332385911165" lon="9.31952454367214"><ele>834.5</ele><time>2026-03-28T10:57:57.999Z</time></trkpt><trkpt lat="44.768406607969" lon="9.319398007912461"><ele>832.0</ele><time>2026-03-28T10:57:58.999Z</time></trkpt><trkpt lat="44.76845360512076" lon="9.31923833943142"><ele>829.5</ele><time>2026-03-28T10:57:59.999Z</time></trkpt><trkpt lat="44.76847458397587" lon="9.31904791565786"><ele>827.0</ele><time>2026-03-28T10:58:00.999Z</time></trkpt><trkpt lat="44.768470338241045" lon="9.318847933046255"><ele>825.5</ele><time>2026-03-28T10:58:01.999Z</time></trkpt><trkpt lat="44.768478121951205" lon="9.31866728793025"><ele>824.0</ele><time>2026-03-28T10:58:02.999Z</time></trkpt><trkpt lat="44.768513680556325" lon="9.318503931292252"><ele>822.5</ele><time>2026-03-28T10:58:03.999Z</time></trkpt><trkpt lat="44.768578527715185" lon="9.31836471686552"><ele>821.0</ele><time>2026-03-28T10:58:04.999Z</time></trkpt><trkpt lat="44.76865712510183" lon="9.318232566379297"><ele>835.75</ele><time>2026-03-28T10:58:05.999Z</time></trkpt><trkpt lat="44.76871543029896" lon="9.318089236087124"><ele>850.5</ele><time>2026-03-28T10:58:06.999Z</time></trkpt><trkpt lat="44.768734471143375" lon="9.31791573407276"><ele>865.25</ele><time>2026-03-28T10:58:07.999Z</time></trkpt><trkpt lat="44.768717023779026" lon="9.317726962610195"><ele>880.0</ele><time>2026-03-28T10:58:08.999Z</time></trkpt><trkpt lat="44.768710988491435" lon="9.317517004339074"><ele>880.0</ele><time>2026-03-28T10:58:09.999Z</time></trkpt><trkpt lat="44.76870653584497" lon="9.31731189574191"><ele>880.0</ele><time>2026-03-28T10:58:10.999Z</time></trkpt><trkpt lat="44.768683748124026" lon="9.317111236609257"><ele>880.0</ele><time>2026-03-28T10:58:11.999Z</time></trkpt><trkpt lat="44.7686491520978" lon="9.31693602022374"><ele>880.0</ele><time>2026-03-28T10:58:12.999Z</time></trkpt><trkpt lat="44.76859069370684" lon="9.316795587145256"><ele>874.5</ele><time>2026-03-28T10:58:13.999Z</time></trkpt><trkpt lat="44.76849744965409" lon="9.316684530306015"><ele>869.0</ele><time>2026-03-28T10:58:14.999Z</time></trkpt><trkpt lat="44.76840238581407" lon="9.316580475997721"><ele>863.5</ele><time>2026-03-28T10:58:15.999Z</time></trkpt><trkpt lat="44.76832910205089" lon="9.316450942923591"><ele>858.0</ele><time>2026-03-28T10:58:16.999Z</time></trkpt><trkpt lat="44.76827217382183" lon="9.316308700156954"><ele>858.0</ele><time>2026-03-28T10:58:17.999Z</time></trkpt><trkpt lat="44.768248691721915" lon="9.316177722934313"><ele>858.0</ele><time>2026-03-28T10:58:18.999Z</time></trkpt><trkpt lat="44.768254020748124" lon="9.31604221382263"><ele>858.0</ele><time>2026-03-28T10:58:19.999Z</time></trkpt><trkpt lat="44.76830042328094" lon="9.315897006404917"><ele>858.0</ele><time>2026-03-28T10:58:20.999Z</time></trkpt><trkpt lat="44.76834634351666" lon="9.315740293631345"><ele>858.0</ele><time>2026-03-28T10:58:21.999Z</time></trkpt><trkpt lat="44.7683661953335" lon="9.315559117894031"><ele>860.75</ele><time>2026-03-28T10:58:22.999Z</time></trkpt><trkpt lat="44.768355505847644" lon="9.315358479975437"><ele>863.5</ele><time>2026-03-28T10:58:23.999Z</time></trkpt><trkpt lat="44.7683323721655" lon="9.315160282237574"><ele>866.25</ele><time>2026-03-28T10:58:24.999Z</time></trkpt><trkpt lat="44.76829401232274" lon="9.314955129334507"><ele>869.0</ele><time>2026-03-28T10:58:25.999Z</time></trkpt><trkpt lat="44.768231593903636" lon="9.31474578375766"><ele>875.3333333333334</ele><time>2026-03-28T10:58:26.999Z</time></trkpt><trkpt lat="44.76815416362542" lon="9.314531816253007"><ele>881.6666666666667</ele><time>2026-03-28T10:58:27.999Z</time></trkpt><trkpt lat="44.76807916178807" lon="9.314341213444404"><ele>888.0</ele><time>2026-03-28T10:58:28.999Z</time></trkpt><trkpt lat="44.76801761731442" lon="9.314174331896561"><ele>888.0</ele><time>2026-03-28T10:58:29.999Z</time></trkpt><trkpt lat="44.76798997268681" lon="9.313994002740015"><ele>888.0</ele><time>2026-03-28T10:58:30.999Z</time></trkpt><trkpt lat="44.767990582576324" lon="9.313809373493203"><ele>888.0</ele><time>2026-03-28T10:58:31.999Z</time></trkpt><trkpt lat="44.767997494333606" lon="9.313634337632399"><ele>888.0</ele><time>2026-03-28T10:58:32.999Z</time></trkpt><trkpt lat="44.76801802089503" lon="9.313468769102624"><ele>890.5999999999999</ele><time>2026-03-28T10:58:33.999Z</time></trkpt><trkpt lat="44.76801387135084" lon="9.313315841856358"><ele>893.1999999999999</ele><time>2026-03-28T10:58:34.999Z</time></trkpt><trkpt lat="44.76796581048946" lon="9.31317898683606"><ele>895.8</ele><time>2026-03-28T10:58:35.999Z</time></trkpt><trkpt lat="44.767904383992814" lon="9.313047484283926"><ele>898.4</ele><time>2026-03-28T10:58:36.999Z</time></trkpt><trkpt lat="44.7678267619393" lon="9.312939162975399"><ele>901.0</ele><time>2026-03-28T10:58:37.999Z</time></trkpt><trkpt lat="44.767721245242036" lon="9.312875267022102"><ele>895.5999999999999</ele><time>2026-03-28T10:58:38.999Z</time></trkpt><trkpt lat="44.767611584499306" lon="9.312797103824009"><ele>890.1999999999999</ele><time>2026-03-28T10:58:39.999Z</time></trkpt><trkpt lat="44.767504655770786" lon="9.312703855917283"><ele>884.8000000000001</ele><time>2026-03-28T10:58:40.999Z</time></trkpt><trkpt lat="44.767419669068516" lon="9.312616651113862"><ele>879.4000000000001</ele><time>2026-03-28T10:58:41.999Z</time></trkpt><trkpt lat="44.76736988233773" lon="9.312515122073167"><ele>874.0</ele><time>2026-03-28T10:58:42.999Z</time></trkpt><trkpt lat="44.76733636885279" lon="9.312381472988514"><ele>876.0</ele><time>2026-03-28T10:58:43.999Z</time></trkpt><trkpt lat="44.76730737592753" lon="9.312229319012578"><ele>878.0000000000001</ele><time>2026-03-28T10:58:44.999Z</time></trkpt><trkpt lat="44.7673109463444" lon="9.312094382197898"><ele>880.0000000000001</ele><time>2026-03-28T10:58:45.999Z</time></trkpt><trkpt lat="44.767350385766015" lon="9.311970860033048"><ele>882.0</ele><time>2026-03-28T10:58:46.999Z</time></trkpt><trkpt lat="44.767397231099146" lon="9.311824838108672"><ele>884.0</ele><time>2026-03-28T10:58:47.999Z</time></trkpt><trkpt lat="44.76740620690662" lon="9.31167153885694"><ele>884.0</ele><time>2026-03-28T10:58:48.999Z</time></trkpt><trkpt lat="44.76736191240799" lon="9.311529722049247"><ele>884.0000000000001</ele><time>2026-03-28T10:58:49.999Z</time></trkpt><trkpt lat="44.76728952624189" lon="9.311404983458699"><ele>884.0000000000001</ele><time>2026-03-28T10:58:50.999Z</time></trkpt><trkpt lat="44.76722623425094" lon="9.311276864086478"><ele>884.0</ele><time>2026-03-28T10:58:51.999Z</time></trkpt><trkpt lat="44.76719661374605" lon="9.311146613107299"><ele>884.0</ele><time>2026-03-28T10:58:52.999Z</time></trkpt><trkpt lat="44.76721909043283" lon="9.311031541202398"><ele>884.0</ele><time>2026-03-28T10:58:53.999Z</time></trkpt><trkpt lat="44.76728016422412" lon="9.310926184843721"><ele>884.0</ele><time>2026-03-28T10:58:54.999Z</time></trkpt><trkpt lat="44.76734441412244" lon="9.31079839763571"><ele>884.0</ele><time>2026-03-28T10:58:55.999Z</time></trkpt><trkpt lat="44.76738771108649" lon="9.310632872942566"><ele>884.0</ele><time>2026-03-28T10:58:56.999Z</time></trkpt><trkpt lat="44.76741012944357" lon="9.31044368755321"><ele>887.25</ele><time>2026-03-28T10:58:57.999Z</time></trkpt><trkpt lat="44.767406402339105" lon="9.31025375075403"><ele>890.5</ele><time>2026-03-28T10:58:58.999Z</time></trkpt><trkpt lat="44.76736288591127" lon="9.310070365916673"><ele>893.75</ele><time>2026-03-28T10:59:00Z</time></trkpt><trkpt lat="44.76729076391185" lon="9.309885291897224"><ele>897.0</ele><time>2026-03-28T10:59:01Z</time></trkpt><trkpt lat="44.76719632867042" lon="9.30971162516411"><ele>899.25</ele><time>2026-03-28T10:59:02Z</time></trkpt><trkpt lat="44.767102603996534" lon="9.309547716804381"><ele>901.5</ele><time>2026-03-28T10:59:03Z</time></trkpt><trkpt lat="44.76702621391098" lon="9.309403763147467"><ele>903.75</ele><time>2026-03-28T10:59:04Z</time></trkpt><trkpt lat="44.766986265022496" lon="9.30927382889675"><ele>906.0</ele><time>2026-03-28T10:59:05Z</time></trkpt><trkpt lat="44.76699296957765" lon="9.309151785992475"><ele>906.0</ele><time>2026-03-28T10:59:06Z</time></trkpt><trkpt lat="44.76704243020057" lon="9.309036529014508"><ele>905.9999999999999</ele><time>2026-03-28T10:59:07Z</time></trkpt><trkpt lat="44.76710737223296" lon="9.308921803396233"><ele>905.9999999999999</ele><time>2026-03-28T10:59:08Z</time></trkpt><trkpt lat="44.767137917367634" lon="9.308773986681432"><ele>906.0</ele><time>2026-03-28T10:59:09Z</time></trkpt><trkpt lat="44.767124775650196" lon="9.30859093038803"><ele>906.0</ele><time>2026-03-28T10:59:10Z</time></trkpt><trkpt lat="44.76711053837202" lon="9.308400396575694"><ele>906.0</ele><time>2026-03-28T10:59:11Z</time></trkpt><trkpt lat="44.76710106233841" lon="9.308193956550888"><ele>906.0</ele><time>2026-03-28T10:59:12Z</time></trkpt><trkpt lat="44.76709483274701" lon="9.307982594423551"><ele>906.0</ele><time>2026-03-28T10:59:13Z</time></trkpt><trkpt lat="44.767103457428234" lon="9.30777259103351"><ele>906.0</ele><time>2026-03-28T10:59:14Z</time></trkpt><trkpt lat="44.767133915813744" lon="9.30756468607713"><ele>905.6666666666667</ele><time>2026-03-28T10:59:15Z</time></trkpt><trkpt lat="44.76720666868297" lon="9.307362099263758"><ele>905.3333333333334</ele><time>2026-03-28T10:59:16Z</time></trkpt><trkpt lat="44.767258989500576" lon="9.307155839228681"><ele>905.0</ele><time>2026-03-28T10:59:17Z</time></trkpt><trkpt lat="44.76730240477693" lon="9.306950549262595"><ele>905.6666666666667</ele><time>2026-03-28T10:59:18Z</time></trkpt><trkpt lat="44.76731319673893" lon="9.306737128773616"><ele>906.3333333333333</ele><time>2026-03-28T10:59:19Z</time></trkpt><trkpt lat="44.76728594033529" lon="9.306524743517153"><ele>907.0</ele><time>2026-03-28T10:59:20Z</time></trkpt><trkpt lat="44.76723662325882" lon="9.30632272437778"><ele>907.0</ele><time>2026-03-28T10:59:21Z</time></trkpt><trkpt lat="44.76718332447958" lon="9.306148846255041"><ele>907.0</ele><time>2026-03-28T10:59:22Z</time></trkpt><trkpt lat="44.76714286686623" lon="9.305990126311887"><ele>907.0</ele><time>2026-03-28T10:59:23Z</time></trkpt><trkpt lat="44.767133942555546" lon="9.305830138691679"><ele>907.0</ele><time>2026-03-28T10:59:24Z</time></trkpt><trkpt lat="44.767142660816425" lon="9.305665473656237"><ele>905.6</ele><time>2026-03-28T10:59:25Z</time></trkpt><trkpt lat="44.76715451523498" lon="9.305504274002185"><ele>904.2</ele><time>2026-03-28T10:59:26Z</time></trkpt><trkpt lat="44.767163918330304" lon="9.305357736019495"><ele>902.8</ele><time>2026-03-28T10:59:27Z</time></trkpt><trkpt lat="44.767161221848745" lon="9.305227627827762"><ele>901.4</ele><time>2026-03-28T10:59:28Z</time></trkpt><trkpt lat="44.767164217797536" lon="9.305096449216762"><ele>900.0</ele><time>2026-03-28T10:59:29Z</time></trkpt><trkpt lat="44.7671723095061" lon="9.304975971470887"><ele>900.0</ele><time>2026-03-28T10:59:30Z</time></trkpt><trkpt lat="44.76720170350528" lon="9.304868691385048"><ele>900.0</ele><time>2026-03-28T10:59:31Z</time></trkpt><trkpt lat="44.767247789696945" lon="9.304761367142667"><ele>900.0</ele><time>2026-03-28T10:59:32Z</time></trkpt><trkpt lat="44.76729430260777" lon="9.304654261578428"><ele>900.0</ele><time>2026-03-28T10:59:33Z</time></trkpt><trkpt lat="44.76733220508917" lon="9.30453228731357"><ele>900.0</ele><time>2026-03-28T10:59:34Z</time></trkpt><trkpt lat="44.767375228839676" lon="9.304408477296926"><ele>898.8</ele><time>2026-03-28T10:59:35Z</time></trkpt><trkpt lat="44.76740726917765" lon="9.304282062138556"><ele>897.6</ele><time>2026-03-28T10:59:36Z</time></trkpt><trkpt lat="44.76744179472389" lon="9.304149397161098"><ele>896.4000000000001</ele><time>2026-03-28T10:59:37Z</time></trkpt><trkpt lat="44.7674708596716" lon="9.30401050489941"><ele>895.2</ele><time>2026-03-28T10:59:38Z</time></trkpt><trkpt lat="44.767509158089986" lon="9.30386302328012"><ele>894.0</ele><time>2026-03-28T10:59:39Z</time></trkpt><trkpt lat="44.76750099801953" lon="9.303703634544053"><ele>892.0</ele><time>2026-03-28T10:59:40Z</time></trkpt><trkpt lat="44.76751619657241" lon="9.303551153604351"><ele>890.0000000000001</ele><time>2026-03-28T10:59:41Z</time></trkpt><trkpt lat="44.767552630561006" lon="9.303406586384359"><ele>888.0000000000001</ele><time>2026-03-28T10:59:42Z</time></trkpt><trkpt lat="44.767604021394" lon="9.303271215020796"><ele>886.0</ele><time>2026-03-28T10:59:43Z</time></trkpt><trkpt lat="44.76767060242846" lon="9.303147149973286"><ele>884.0</ele><time>2026-03-28T10:59:44Z</time></trkpt><trkpt lat="44.76773418002715" lon="9.303034151789575"><ele>891.0</ele><time>2026-03-28T10:59:45Z</time></trkpt><trkpt lat="44.7678085329855" lon="9.302938748110844"><ele>898.0000000000001</ele><time>2026-03-28T10:59:46Z</time></trkpt><trkpt lat="44.76788472854428" lon="9.302853437364682"><ele>905.0000000000001</ele><time>2026-03-28T10:59:47Z</time></trkpt><trkpt lat="44.76797043783088" lon="9.302767804031523"><ele>912.0</ele><time>2026-03-28T10:59:48Z</time></trkpt><trkpt lat="44.76803678835784" lon="9.302682418088517"><ele>919.0</ele><time>2026-03-28T10:59:49Z</time></trkpt><trkpt lat="44.768076038402484" lon="9.302567130292731"><ele>919.0</ele><time>2026-03-28T10:59:50Z</time></trkpt><trkpt lat="44.768064249911845" lon="9.302426760708778"><ele>919.0000000000001</ele><time>2026-03-28T10:59:51Z</time></trkpt><trkpt lat="44.76798981144587" lon="9.302337544731369"><ele>919.0000000000001</ele><time>2026-03-28T10:59:51.999Z</time></trkpt><trkpt lat="44.7679022460231" lon="9.30227633695579"><ele>919.0</ele><time>2026-03-28T10:59:52.999Z</time></trkpt><trkpt lat="44.76781738563886" lon="9.302181602728345"><ele>919.0</ele><time>2026-03-28T10:59:53.999Z</time></trkpt><trkpt lat="44.767704011868396" lon="9.302109510441927"><ele>915.4999999999999</ele><time>2026-03-28T10:59:54.999Z</time></trkpt><trkpt lat="44.767599877055204" lon="9.302100224845862"><ele>912.0</ele><time>2026-03-28T10:59:55.999Z</time></trkpt><trkpt lat="44.76751795130193" lon="9.30204922213814"><ele>908.5</ele><time>2026-03-28T10:59:56.999Z</time></trkpt><trkpt lat="44.767446851181695" lon="9.302010905496081"><ele>905.0</ele><time>2026-03-28T10:59:57.999Z</time></trkpt><trkpt lat="44.76738655793885" lon="9.301958916332147"><ele>901.4999999999999</ele><time>2026-03-28T10:59:58.999Z</time></trkpt><trkpt lat="44.76736069269121" lon="9.301859901325663"><ele>898.0</ele><time>2026-03-28T10:59:59.999Z</time></trkpt><trkpt lat="44.767325754363384" lon="9.30175320420717"><ele>898.0</ele><time>2026-03-28T11:00:00.999Z</time></trkpt><trkpt lat="44.76730530427346" lon="9.301628320473428"><ele>898.0</ele><time>2026-03-28T11:00:01.999Z</time></trkpt><trkpt lat="44.76730464806835" lon="9.301492318770057"><ele>898.0</ele><time>2026-03-28T11:00:02.999Z</time></trkpt><trkpt lat="44.767311480554596" lon="9.301347133153643"><ele>898.0</ele><time>2026-03-28T11:00:03.999Z</time></trkpt><trkpt lat="44.76732483842699" lon="9.301195529510313"><ele>898.0</ele><time>2026-03-28T11:00:04.999Z</time></trkpt><trkpt lat="44.76736353613372" lon="9.301043834509137"><ele>899.0</ele><time>2026-03-28T11:00:05.999Z</time></trkpt><trkpt lat="44.76742115818872" lon="9.300908759387108"><ele>900.0</ele><time>2026-03-28T11:00:06.999Z</time></trkpt><trkpt lat="44.767468920962685" lon="9.300778419399897"><ele>901.0</ele><time>2026-03-28T11:00:07.999Z</time></trkpt><trkpt lat="44.767487218161" lon="9.300647596591268"><ele>902.0</ele><time>2026-03-28T11:00:08.999Z</time></trkpt><trkpt lat="44.76747053204136" lon="9.30051337362345"><ele>903.0</ele><time>2026-03-28T11:00:09.999Z</time></trkpt><trkpt lat="44.76743154414031" lon="9.300385897596241"><ele>903.0</ele><time>2026-03-28T11:00:10.999Z</time></trkpt><trkpt lat="44.767385992579676" lon="9.300251134467503"><ele>903.0</ele><time>2026-03-28T11:00:11.999Z</time></trkpt><trkpt lat="44.76734761125888" lon="9.300110479865326"><ele>903.0</ele><time>2026-03-28T11:00:12.999Z</time></trkpt><trkpt lat="44.767308003846075" lon="9.299974816710153"><ele>903.0</ele><time>2026-03-28T11:00:13.999Z</time></trkpt><trkpt lat="44.76728092182244" lon="9.299841221070686"><ele>903.0</ele><time>2026-03-28T11:00:14.999Z</time></trkpt><trkpt lat="44.76728534435393" lon="9.299725209973442"><ele>903.5999999999999</ele><time>2026-03-28T11:00:15.999Z</time></trkpt><trkpt lat="44.76729963205153" lon="9.299582983876173"><ele>904.1999999999999</ele><time>2026-03-28T11:00:16.999Z</time></trkpt><trkpt lat="44.76732701578717" lon="9.299465152551106"><ele>904.8</ele><time>2026-03-28T11:00:17.999Z</time></trkpt><trkpt lat="44.767368592977824" lon="9.29933811039286"><ele>905.4</ele><time>2026-03-28T11:00:18.999Z</time></trkpt><trkpt lat="44.767418195218234" lon="9.299209702507119"><ele>906.0</ele><time>2026-03-28T11:00:19.999Z</time></trkpt><trkpt lat="44.76745435942525" lon="9.29906933628869"><ele>906.0</ele><time>2026-03-28T11:00:20.999Z</time></trkpt><trkpt lat="44.767502650054055" lon="9.298936854637782"><ele>906.0</ele><time>2026-03-28T11:00:21.999Z</time></trkpt><trkpt lat="44.767564962997476" lon="9.298804792597693"><ele>906.0</ele><time>2026-03-28T11:00:22.999Z</time></trkpt><trkpt lat="44.76760244509445" lon="9.298650047437839"><ele>906.0</ele><time>2026-03-28T11:00:23.999Z</time></trkpt><trkpt lat="44.76759724749614" lon="9.29846421279728"><ele>907.0</ele><time>2026-03-28T11:00:24.999Z</time></trkpt><trkpt lat="44.76758226291398" lon="9.298285493928054"><ele>908.0</ele><time>2026-03-28T11:00:25.999Z</time></trkpt><trkpt lat="44.76755045272941" lon="9.298116326379482"><ele>909.0</ele><time>2026-03-28T11:00:26.999Z</time></trkpt><trkpt lat="44.767548869814235" lon="9.297945208842199"><ele>910.0</ele><time>2026-03-28T11:00:27.999Z</time></trkpt><trkpt lat="44.767551405428456" lon="9.297781544817028"><ele>911.3333333333333</ele><time>2026-03-28T11:00:28.999Z</time></trkpt><trkpt lat="44.76755600364259" lon="9.297637018071004"><ele>912.6666666666666</ele><time>2026-03-28T11:00:29.999Z</time></trkpt><trkpt lat="44.767578882347394" lon="9.297520520381612"><ele>914.0</ele><time>2026-03-28T11:00:30.999Z</time></trkpt><trkpt lat="44.76761497940534" lon="9.297415013159997"><ele>915.3333333333333</ele><time>2026-03-28T11:00:31.999Z</time></trkpt><trkpt lat="44.76761819219648" lon="9.297308686471903"><ele>916.6666666666666</ele><time>2026-03-28T11:00:32.999Z</time></trkpt><trkpt lat="44.76757575301597" lon="9.297205595039564"><ele>918.0</ele><time>2026-03-28T11:00:33.999Z</time></trkpt><trkpt lat="44.76749918895579" lon="9.297140194187708"><ele>923.0</ele><time>2026-03-28T11:00:34.999Z</time></trkpt><trkpt lat="44.76740879277175" lon="9.297068608286596"><ele>928.0</ele><time>2026-03-28T11:00:35.999Z</time></trkpt><trkpt lat="44.76729426369914" lon="9.29702644496479"><ele>933.0</ele><time>2026-03-28T11:00:36.999Z</time></trkpt><trkpt lat="44.76716899604191" lon="9.297001701905334"><ele>938.0</ele><time>2026-03-28T11:00:37.999Z</time></trkpt><trkpt lat="44.76705998574761" lon="9.296980574629186"><ele>938.0</ele><time>2026-03-28T11:00:38.999Z</time></trkpt><trkpt lat="44.76693725273871" lon="9.296968034508334"><ele>938.0</ele><time>2026-03-28T11:00:39.999Z</time></trkpt><trkpt lat="44.76681630324697" lon="9.296992424858862"><ele>938.0</ele><time>2026-03-28T11:00:40.999Z</time></trkpt><trkpt lat="44.76670530726424" lon="9.297067439920419"><ele>938.0</ele><time>2026-03-28T11:00:41.999Z</time></trkpt><trkpt lat="44.7665925728616" lon="9.297093711809802"><ele>937.1666666666667</ele><time>2026-03-28T11:00:42.999Z</time></trkpt><trkpt lat="44.76649315982311" lon="9.297097730497155"><ele>936.3333333333334</ele><time>2026-03-28T11:00:43.999Z</time></trkpt><trkpt lat="44.76641300498459" lon="9.297082857601712"><ele>935.5</ele><time>2026-03-28T11:00:44.999Z</time></trkpt><trkpt lat="44.76636250496421" lon="9.297026884637745"><ele>934.6666666666667</ele><time>2026-03-28T11:00:45.999Z</time></trkpt><trkpt lat="44.76627688436488" lon="9.296928066428977"><ele>933.8333333333334</ele><time>2026-03-28T11:00:47.999Z</time></trkpt><trkpt lat="44.766260014965766" lon="9.296828625126068"><ele>933.0</ele><time>2026-03-28T11:00:48.999Z</time></trkpt><trkpt lat="44.766239817886536" lon="9.296721915863428"><ele>933.0</ele><time>2026-03-28T11:00:49.999Z</time></trkpt><trkpt lat="44.766230711588626" lon="9.296611296859238"><ele>933.0</ele><time>2026-03-28T11:00:50.999Z</time></trkpt><trkpt lat="44.76624289698295" lon="9.296499783649457"><ele>933.0</ele><time>2026-03-28T11:00:51.999Z</time></trkpt><trkpt lat="44.76628027816046" lon="9.296390495368817"><ele>933.0</ele><time>2026-03-28T11:00:52.999Z</time></trkpt><trkpt lat="44.76632326913393" lon="9.296276638338881"><ele>933.0</ele><time>2026-03-28T11:00:53.999Z</time></trkpt><trkpt lat="44.76635202860298" lon="9.29614178586403"><ele>933.0</ele><time>2026-03-28T11:00:54.999Z</time></trkpt><trkpt lat="44.76636815490696" lon="9.296001685775273"><ele>935.0</ele><time>2026-03-28T11:00:55.999Z</time></trkpt><trkpt lat="44.76635353243613" lon="9.29585929401591"><ele>937.0</ele><time>2026-03-28T11:00:56.999Z</time></trkpt><trkpt lat="44.766310166489724" lon="9.295723970285874"><ele>939.0</ele><time>2026-03-28T11:00:57.999Z</time></trkpt><trkpt lat="44.76626185630332" lon="9.295599402468111"><ele>941.0</ele><time>2026-03-28T11:00:58.999Z</time></trkpt><trkpt lat="44.76622332449313" lon="9.295481740989247"><ele>943.0</ele><time>2026-03-28T11:00:59.999Z</time></trkpt><trkpt lat="44.76616983707189" lon="9.29538879720843"><ele>944.8</ele><time>2026-03-28T11:01:00.999Z</time></trkpt><trkpt lat="44.76611194845555" lon="9.295323926589973"><ele>946.5999999999999</ele><time>2026-03-28T11:01:01.999Z</time></trkpt><trkpt lat="44.76601256707216" lon="9.295337551252443"><ele>948.4000000000001</ele><time>2026-03-28T11:01:02.999Z</time></trkpt><trkpt lat="44.765909730305175" lon="9.295375200195952"><ele>950.2</ele><time>2026-03-28T11:01:03.999Z</time></trkpt><trkpt lat="44.76580743991027" lon="9.295410431191165"><ele>952.0</ele><time>2026-03-28T11:01:04.999Z</time></trkpt><trkpt lat="44.765705238551135" lon="9.295444769226432"><ele>952.4000000000001</ele><time>2026-03-28T11:01:06Z</time></trkpt><trkpt lat="44.765601726584144" lon="9.2954787793698"><ele>952.8000000000001</ele><time>2026-03-28T11:01:07Z</time></trkpt><trkpt lat="44.76549932034682" lon="9.295510288981383"><ele>953.2</ele><time>2026-03-28T11:01:08Z</time></trkpt><trkpt lat="44.76540282378921" lon="9.295529688925374"><ele>953.6</ele><time>2026-03-28T11:01:09Z</time></trkpt><trkpt lat="44.765299891570564" lon="9.29552911502955"><ele>954.0</ele><time>2026-03-28T11:01:10Z</time></trkpt><trkpt lat="44.765193612064174" lon="9.295463123683852"><ele>952.0</ele><time>2026-03-28T11:01:11Z</time></trkpt><trkpt lat="44.76511988028519" lon="9.295358190060501"><ele>950.0000000000001</ele><time>2026-03-28T11:01:12Z</time></trkpt><trkpt lat="44.76507933874685" lon="9.295216694977649"><ele>948.0000000000001</ele><time>2026-03-28T11:01:13Z</time></trkpt><trkpt lat="44.76508282287128" lon="9.295070365182747"><ele>946.0</ele><time>2026-03-28T11:01:14Z</time></trkpt><trkpt lat="44.76510561819824" lon="9.294915772333432"><ele>944.0</ele><time>2026-03-28T11:01:15Z</time></trkpt><trkpt lat="44.76508903331293" lon="9.294768011989303"><ele>948.0</ele><time>2026-03-28T11:01:16Z</time></trkpt><trkpt lat="44.76504053597826" lon="9.294648611276626"><ele>952.0000000000001</ele><time>2026-03-28T11:01:17Z</time></trkpt><trkpt lat="44.76496396797771" lon="9.294593034378837"><ele>956.0000000000001</ele><time>2026-03-28T11:01:18Z</time></trkpt><trkpt lat="44.76486270349386" lon="9.294578781535275"><ele>960.0</ele><time>2026-03-28T11:01:19Z</time></trkpt><trkpt lat="44.764746270807976" lon="9.294541815093265"><ele>964.0</ele><time>2026-03-28T11:01:20Z</time></trkpt><trkpt lat="44.76465413925422" lon="9.294424794094205"><ele>964.0</ele><time>2026-03-28T11:01:21Z</time></trkpt><trkpt lat="44.76455254556729" lon="9.294336189773679"><ele>964.0</ele><time>2026-03-28T11:01:22Z</time></trkpt><trkpt lat="44.7644337723615" lon="9.294269031174561"><ele>964.0</ele><time>2026-03-28T11:01:23Z</time></trkpt><trkpt lat="44.76431323993034" lon="9.294216312290061"><ele>964.0</ele><time>2026-03-28T11:01:24Z</time></trkpt><trkpt lat="44.76421902297649" lon="9.294163156545103"><ele>965.8000000000001</ele><time>2026-03-28T11:01:25Z</time></trkpt><trkpt lat="44.764177564151225" lon="9.29405843491535"><ele>967.6000000000001</ele><time>2026-03-28T11:01:26Z</time></trkpt><trkpt lat="44.764174389035006" lon="9.293924646626312"><ele>969.4</ele><time>2026-03-28T11:01:27Z</time></trkpt><trkpt lat="44.764173478831495" lon="9.293790404163516"><ele>971.2</ele><time>2026-03-28T11:01:28Z</time></trkpt><trkpt lat="44.76415192384223" lon="9.293657317793722"><ele>973.0</ele><time>2026-03-28T11:01:29Z</time></trkpt><trkpt lat="44.76413310620266" lon="9.29351251324739"><ele>972.9999999999999</ele><time>2026-03-28T11:01:30Z</time></trkpt><trkpt lat="44.76412153538892" lon="9.293381338579715"><ele>973.0</ele><time>2026-03-28T11:01:31Z</time></trkpt><trkpt lat="44.76409089428362" lon="9.293293966991058"><ele>973.0</ele><time>2026-03-28T11:01:32Z</time></trkpt><trkpt lat="44.76403130896075" lon="9.293245516052696"><ele>973.0</ele><time>2026-03-28T11:01:33Z</time></trkpt><trkpt lat="44.76394720473037" lon="9.293211134668544"><ele>972.9999999999999</ele><time>2026-03-28T11:01:34Z</time></trkpt><trkpt lat="44.76385660299848" lon="9.293334165645918"><ele>973.0</ele><time>2026-03-28T11:01:35Z</time></trkpt><trkpt lat="44.763780705807314" lon="9.293428561080093"><ele>972.9999999999999</ele><time>2026-03-28T11:01:36Z</time></trkpt><trkpt lat="44.76371159736193" lon="9.293435808628123"><ele>973.0</ele><time>2026-03-28T11:01:37Z</time></trkpt><trkpt lat="44.76363704489766" lon="9.293408103161942"><ele>973.0</ele><time>2026-03-28T11:01:38Z</time></trkpt><trkpt lat="44.76355572588534" lon="9.293317012774317"><ele>973.0</ele><time>2026-03-28T11:01:39Z</time></trkpt><trkpt lat="44.763467256104235" lon="9.293270752278426"><ele>972.9999999999999</ele><time>2026-03-28T11:01:40Z</time></trkpt><trkpt lat="44.76337050979128" lon="9.293249208775043"><ele>973.0</ele><time>2026-03-28T11:01:41Z</time></trkpt><trkpt lat="44.763278244811154" lon="9.293340791682857"><ele>974.2</ele><time>2026-03-28T11:01:42Z</time></trkpt><trkpt lat="44.7632432719261" lon="9.2935241753488"><ele>975.4</ele><time>2026-03-28T11:01:43Z</time></trkpt><trkpt lat="44.763227328726614" lon="9.293686171276779"><ele>976.6000000000001</ele><time>2026-03-28T11:01:44Z</time></trkpt><trkpt lat="44.76320047120285" lon="9.293826884408146"><ele>977.8000000000001</ele><time>2026-03-28T11:01:45Z</time></trkpt><trkpt lat="44.76314015608787" lon="9.293901839396952"><ele>979.0</ele><time>2026-03-28T11:01:46Z</time></trkpt><trkpt lat="44.763059123322456" lon="9.293942601805917"><ele>979.0</ele><time>2026-03-28T11:01:47Z</time></trkpt><trkpt lat="44.76295990277897" lon="9.293932385693546"><ele>979.0000000000001</ele><time>2026-03-28T11:01:48Z</time></trkpt><trkpt lat="44.76285850051113" lon="9.293879400266926"><ele>979.0000000000001</ele><time>2026-03-28T11:01:49Z</time></trkpt><trkpt lat="44.762764176158335" lon="9.293780284856801"><ele>979.0</ele><time>2026-03-28T11:01:50Z</time></trkpt><trkpt lat="44.7626701476265" lon="9.293701316961673"><ele>979.0</ele><time>2026-03-28T11:01:51Z</time></trkpt><trkpt lat="44.76256465033393" lon="9.29362630924647"><ele>980.75</ele><time>2026-03-28T11:01:52Z</time></trkpt><trkpt lat="44.76244283608926" lon="9.293607408880776"><ele>982.5</ele><time>2026-03-28T11:01:53Z</time></trkpt><trkpt lat="44.76234099019775" lon="9.29350929175759"><ele>984.25</ele><time>2026-03-28T11:01:54Z</time></trkpt><trkpt lat="44.76225159183127" lon="9.293377771329077"><ele>986.0</ele><time>2026-03-28T11:01:55Z</time></trkpt><trkpt lat="44.76215956812605" lon="9.293250018314613"><ele>986.0</ele><time>2026-03-28T11:01:56Z</time></trkpt><trkpt lat="44.76205033291612" lon="9.293159487040166"><ele>986.0</ele><time>2026-03-28T11:01:57Z</time></trkpt><trkpt lat="44.761941881792495" lon="9.293073983886034"><ele>986.0</ele><time>2026-03-28T11:01:58Z</time></trkpt><trkpt lat="44.76181719216126" lon="9.293052338887993"><ele>986.0</ele><time>2026-03-28T11:01:58.999Z</time></trkpt><trkpt lat="44.76168826203791" lon="9.29308752164321"><ele>985.8</ele><time>2026-03-28T11:01:59.999Z</time></trkpt><trkpt lat="44.76157210483926" lon="9.293152291757071"><ele>985.5999999999999</ele><time>2026-03-28T11:02:00.999Z</time></trkpt><trkpt lat="44.76146243512277" lon="9.293204885791875"><ele>985.4</ele><time>2026-03-28T11:02:01.999Z</time></trkpt><trkpt lat="44.76136496177075" lon="9.293220742158429"><ele>985.2</ele><time>2026-03-28T11:02:02.999Z</time></trkpt><trkpt lat="44.76127503442288" lon="9.293213646856925"><ele>985.0</ele><time>2026-03-28T11:02:03.999Z</time></trkpt><trkpt lat="44.76120461311907" lon="9.29313632349173"><ele>987.2</ele><time>2026-03-28T11:02:04.999Z</time></trkpt><trkpt lat="44.76113099359388" lon="9.293060382647496"><ele>989.4</ele><time>2026-03-28T11:02:05.999Z</time></trkpt><trkpt lat="44.761041394874056" lon="9.293017564644158"><ele>991.5999999999999</ele><time>2026-03-28T11:02:06.999Z</time></trkpt><trkpt lat="44.76094185448028" lon="9.29298583669783"><ele>993.8</ele><time>2026-03-28T11:02:07.999Z</time></trkpt><trkpt lat="44.760828020048194" lon="9.293066307457059"><ele>996.0</ele><time>2026-03-28T11:02:08.999Z</time></trkpt><trkpt lat="44.760762668581506" lon="9.293218421754462"><ele>996.0</ele><time>2026-03-28T11:02:09.999Z</time></trkpt><trkpt lat="44.76071915846314" lon="9.29335829760002"><ele>995.9999999999999</ele><time>2026-03-28T11:02:10.999Z</time></trkpt><trkpt lat="44.76067229323764" lon="9.293476056125929"><ele>995.9999999999999</ele><time>2026-03-28T11:02:11.999Z</time></trkpt><trkpt lat="44.760610847427735" lon="9.293539802258643"><ele>996.0</ele><time>2026-03-28T11:02:12.999Z</time></trkpt><trkpt lat="44.760525929314724" lon="9.293593962912057"><ele>996.0</ele><time>2026-03-28T11:02:13.999Z</time></trkpt><trkpt lat="44.76043325753355" lon="9.293588036721975"><ele>996.0</ele><time>2026-03-28T11:02:14.999Z</time></trkpt><trkpt lat="44.760352972023725" lon="9.29349831133703"><ele>995.9999999999999</ele><time>2026-03-28T11:02:15.999Z</time></trkpt><trkpt lat="44.760266742184584" lon="9.293446119375899"><ele>995.9999999999999</ele><time>2026-03-28T11:02:16.999Z</time></trkpt><trkpt lat="44.76016556294362" lon="9.293468468860697"><ele>996.0</ele><time>2026-03-28T11:02:17.999Z</time></trkpt><trkpt lat="44.76006368475375" lon="9.293549855313154"><ele>996.0</ele><time>2026-03-28T11:02:18.999Z</time></trkpt><trkpt lat="44.75997632750697" lon="9.293631144768046"><ele>998.1999999999999</ele><time>2026-03-28T11:02:19.999Z</time></trkpt><trkpt lat="44.759891814508805" lon="9.293724165523654"><ele>1000.3999999999999</ele><time>2026-03-28T11:02:20.999Z</time></trkpt><trkpt lat="44.759816330738126" lon="9.293835351041746"><ele>1002.6</ele><time>2026-03-28T11:02:21.999Z</time></trkpt><trkpt lat="44.75975058604357" lon="9.293944745256006"><ele>1004.8</ele><time>2026-03-28T11:02:22.999Z</time></trkpt><trkpt lat="44.75968539903143" lon="9.294050809016971"><ele>1007.0</ele><time>2026-03-28T11:02:23.999Z</time></trkpt><trkpt lat="44.75961716841321" lon="9.29414993867384"><ele>1007.0</ele><time>2026-03-28T11:02:24.999Z</time></trkpt><trkpt lat="44.75954189059456" lon="9.29421568243467"><ele>1007.0</ele><time>2026-03-28T11:02:25.999Z</time></trkpt><trkpt lat="44.75945250924392" lon="9.294248448754942"><ele>1007.0</ele><time>2026-03-28T11:02:26.999Z</time></trkpt><trkpt lat="44.75935793677894" lon="9.294296102104243"><ele>1007.0</ele><time>2026-03-28T11:02:27.999Z</time></trkpt><trkpt lat="44.7592626398654" lon="9.294349926246644"><ele>1007.0</ele><time>2026-03-28T11:02:28.999Z</time></trkpt><trkpt lat="44.75916381765837" lon="9.294413106896076"><ele>1011.8</ele><time>2026-03-28T11:02:29.999Z</time></trkpt><trkpt lat="44.75907315985332" lon="9.294472044982179"><ele>1016.6</ele><time>2026-03-28T11:02:30.999Z</time></trkpt><trkpt lat="44.75898409307748" lon="9.294495452704197"><ele>1021.3999999999999</ele><time>2026-03-28T11:02:31.999Z</time></trkpt><trkpt lat="44.75888988726894" lon="9.29446527720532"><ele>1026.2</ele><time>2026-03-28T11:02:32.999Z</time></trkpt><trkpt lat="44.75878921729986" lon="9.294453136800493"><ele>1031.0</ele><time>2026-03-28T11:02:33.999Z</time></trkpt><trkpt lat="44.75868665460699" lon="9.294466355144474"><ele>1031.0</ele><time>2026-03-28T11:02:34.999Z</time></trkpt><trkpt lat="44.75858282603453" lon="9.294504807102062"><ele>1031.0</ele><time>2026-03-28T11:02:35.999Z</time></trkpt><trkpt lat="44.75848839575688" lon="9.29457704637474"><ele>1031.0</ele><time>2026-03-28T11:02:36.999Z</time></trkpt><trkpt lat="44.758398623117195" lon="9.294644049349577"><ele>1031.0</ele><time>2026-03-28T11:02:37.999Z</time></trkpt><trkpt lat="44.758306136304846" lon="9.294712907161587"><ele>1031.0</ele><time>2026-03-28T11:02:38.999Z</time></trkpt><trkpt lat="44.758229019371505" lon="9.294756857361861"><ele>1033.6</ele><time>2026-03-28T11:02:39.999Z</time></trkpt><trkpt lat="44.758172188932306" lon="9.29464034333794"><ele>1036.1999999999998</ele><time>2026-03-28T11:02:42.999Z</time></trkpt><trkpt lat="44.758233657937126" lon="9.294550604990091"><ele>1038.8000000000002</ele><time>2026-03-28T11:02:43.999Z</time></trkpt><trkpt lat="44.75831018754815" lon="9.29450842578317"><ele>1041.4</ele><time>2026-03-28T11:02:44.999Z</time></trkpt><trkpt lat="44.758373127788644" lon="9.294409195279462"><ele>1044.0</ele><time>2026-03-28T11:02:45.999Z</time></trkpt><trkpt lat="44.758427316767445" lon="9.294316370605777"><ele>1044.0</ele><time>2026-03-28T11:02:46.999Z</time></trkpt><trkpt lat="44.75848943181237" lon="9.294209779526348"><ele>1044.0</ele><time>2026-03-28T11:02:47.999Z</time></trkpt><trkpt lat="44.75855124239405" lon="9.294095189290456"><ele>1044.0</ele><time>2026-03-28T11:02:48.999Z</time></trkpt><trkpt lat="44.758608841280825" lon="9.293973477617136"><ele>1044.0</ele><time>2026-03-28T11:02:49.999Z</time></trkpt><trkpt lat="44.75867250073012" lon="9.293851449612637"><ele>1044.0</ele><time>2026-03-28T11:02:50.999Z</time></trkpt><trkpt lat="44.75873549782025" lon="9.293760364944792"><ele>1044.2</ele><time>2026-03-28T11:02:51.999Z</time></trkpt><trkpt lat="44.75883588800426" lon="9.29369883391519"><ele>1044.4</ele><time>2026-03-28T11:02:52.999Z</time></trkpt><trkpt lat="44.75895005991729" lon="9.293673217565942"><ele>1044.6</ele><time>2026-03-28T11:02:53.999Z</time></trkpt><trkpt lat="44.759028831714915" lon="9.293609740422264"><ele>1044.8</ele><time>2026-03-28T11:02:54.999Z</time></trkpt><trkpt lat="44.75906511373044" lon="9.293507122023499"><ele>1045.0</ele><time>2026-03-28T11:02:55.999Z</time></trkpt><trkpt lat="44.75906474487182" lon="9.293397272243846"><ele>1045.0</ele><time>2026-03-28T11:02:56.999Z</time></trkpt><trkpt lat="44.75900969192912" lon="9.293252764896005"><ele>1045.0</ele><time>2026-03-28T11:02:57.999Z</time></trkpt><trkpt lat="44.75895366179006" lon="9.293114055666726"><ele>1045.0</ele><time>2026-03-28T11:02:58.999Z</time></trkpt><trkpt lat="44.75888560434645" lon="9.292975036442142"><ele>1045.0</ele><time>2026-03-28T11:02:59.999Z</time></trkpt><trkpt lat="44.75883661901123" lon="9.29282814834388"><ele>1045.5</ele><time>2026-03-28T11:03:00.999Z</time></trkpt><trkpt lat="44.75879363507911" lon="9.292671236412616"><ele>1046.0</ele><time>2026-03-28T11:03:01.999Z</time></trkpt><trkpt lat="44.75877298063416" lon="9.292505603730932"><ele>1046.5</ele><time>2026-03-28T11:03:02.999Z</time></trkpt><trkpt lat="44.75878855341703" lon="9.292331788812508"><ele>1047.0</ele><time>2026-03-28T11:03:03.999Z</time></trkpt><trkpt lat="44.75881209723357" lon="9.292160263435976"><ele>1047.6</ele><time>2026-03-28T11:03:04.999Z</time></trkpt><trkpt lat="44.75883383785168" lon="9.292035261002303"><ele>1048.2</ele><time>2026-03-28T11:03:05.999Z</time></trkpt><trkpt lat="44.75882312718966" lon="9.291883903822132"><ele>1048.8</ele><time>2026-03-28T11:03:07.999Z</time></trkpt><trkpt lat="44.75876343933019" lon="9.291854762849097"><ele>1049.4</ele><time>2026-03-28T11:03:08.999Z</time></trkpt><trkpt lat="44.75867261315884" lon="9.291910252972732"><ele>1050.0</ele><time>2026-03-28T11:03:09.999Z</time></trkpt><trkpt lat="44.75862585542721" lon="9.292050108455436"><ele>1050.0</ele><time>2026-03-28T11:03:10.999Z</time></trkpt><trkpt lat="44.7585939981041" lon="9.292194000034424"><ele>1050.0</ele><time>2026-03-28T11:03:12Z</time></trkpt><trkpt lat="44.75857502387045" lon="9.292350708456574"><ele>1050.0</ele><time>2026-03-28T11:03:13Z</time></trkpt><trkpt lat="44.75856120540171" lon="9.292510866590087"><ele>1050.0</ele><time>2026-03-28T11:03:14Z</time></trkpt><trkpt lat="44.75855678098659" lon="9.292687582769771"><ele>1049.5</ele><time>2026-03-28T11:03:15Z</time></trkpt><trkpt lat="44.758555232666694" lon="9.292824529857642"><ele>1049.0</ele><time>2026-03-28T11:03:16Z</time></trkpt><trkpt lat="44.75854502497726" lon="9.292912807636087"><ele>1048.5</ele><time>2026-03-28T11:03:17Z</time></trkpt><trkpt lat="44.75844270400105" lon="9.292982623479682"><ele>1048.0</ele><time>2026-03-28T11:03:19Z</time></trkpt><trkpt lat="44.75838430338863" lon="9.2929464211338"><ele>1047.5</ele><time>2026-03-28T11:03:20Z</time></trkpt><trkpt lat="44.758317089533186" lon="9.29287882417778"><ele>1047.0</ele><time>2026-03-28T11:03:21Z</time></trkpt><trkpt lat="44.75823974191894" lon="9.292799942384034"><ele>1055.0</ele><time>2026-03-28T11:03:22Z</time></trkpt><trkpt lat="44.75814986791786" lon="9.292716466047795"><ele>1063.0</ele><time>2026-03-28T11:03:23Z</time></trkpt><trkpt lat="44.75805280340024" lon="9.292626909848014"><ele>1071.0</ele><time>2026-03-28T11:03:24Z</time></trkpt><trkpt lat="44.75794902715797" lon="9.29251558071895"><ele>1079.0</ele><time>2026-03-28T11:03:25Z</time></trkpt><trkpt lat="44.75782242412066" lon="9.292427852126877"><ele>1080.75</ele><time>2026-03-28T11:03:26Z</time></trkpt><trkpt lat="44.75769374536116" lon="9.292351452010355"><ele>1082.5</ele><time>2026-03-28T11:03:27Z</time></trkpt><trkpt lat="44.75756223450696" lon="9.292266982260337"><ele>1084.25</ele><time>2026-03-28T11:03:28Z</time></trkpt><trkpt lat="44.75742939389029" lon="9.292179213973933"><ele>1086.0</ele><time>2026-03-28T11:03:29Z</time></trkpt><trkpt lat="44.75729348250988" lon="9.292091433050732"><ele>1090.5</ele><time>2026-03-28T11:03:30Z</time></trkpt><trkpt lat="44.757147094017704" lon="9.292038031643061"><ele>1095.0</ele><time>2026-03-28T11:03:31Z</time></trkpt><trkpt lat="44.7570213896063" lon="9.291952281380436"><ele>1099.5</ele><time>2026-03-28T11:03:32Z</time></trkpt><trkpt lat="44.756928440592304" lon="9.29185552766831"><ele>1104.0</ele><time>2026-03-28T11:03:33Z</time></trkpt><trkpt lat="44.756829006617" lon="9.29181532314707"><ele>1105.75</ele><time>2026-03-28T11:03:34Z</time></trkpt><trkpt lat="44.75672614082537" lon="9.291869837985589"><ele>1107.5</ele><time>2026-03-28T11:03:35Z</time></trkpt><trkpt lat="44.756660416084564" lon="9.292031485051144"><ele>1109.25</ele><time>2026-03-28T11:03:36Z</time></trkpt><trkpt lat="44.756616165735906" lon="9.292188045281687"><ele>1111.0</ele><time>2026-03-28T11:03:37Z</time></trkpt><trkpt lat="44.75655901790552" lon="9.292310912089373"><ele>1108.0</ele><time>2026-03-28T11:03:38Z</time></trkpt><trkpt lat="44.75647380017216" lon="9.292377826115636"><ele>1105.0</ele><time>2026-03-28T11:03:39Z</time></trkpt><trkpt lat="44.75639235089137" lon="9.292480523873643"><ele>1102.0</ele><time>2026-03-28T11:03:40Z</time></trkpt><trkpt lat="44.75632467170174" lon="9.292615388973939"><ele>1099.0</ele><time>2026-03-28T11:03:41Z</time></trkpt><trkpt lat="44.756308129874505" lon="9.292752753006058"><ele>1096.0</ele><time>2026-03-28T11:03:42Z</time></trkpt><trkpt lat="44.756300420296064" lon="9.292868651274231"><ele>1096.0</ele><time>2026-03-28T11:03:43Z</time></trkpt><trkpt lat="44.7562975557246" lon="9.293022603150577"><ele>1096.0</ele><time>2026-03-28T11:03:44Z</time></trkpt><trkpt lat="44.75630296505183" lon="9.2931653046752"><ele>1096.0</ele><time>2026-03-28T11:03:45Z</time></trkpt><trkpt lat="44.756302972073335" lon="9.293292683704934"><ele>1096.0</ele><time>2026-03-28T11:03:46Z</time></trkpt><trkpt lat="44.75629232716963" lon="9.293398862004755"><ele>1096.0</ele><time>2026-03-28T11:03:47Z</time></trkpt><trkpt lat="44.75623741791989" lon="9.293531283327885"><ele>1093.75</ele><time>2026-03-28T11:03:49Z</time></trkpt><trkpt lat="44.75609503297143" lon="9.293565496764698"><ele>1091.5</ele><time>2026-03-28T11:03:51Z</time></trkpt><trkpt lat="44.755992953552145" lon="9.293579274635919"><ele>1089.25</ele><time>2026-03-28T11:03:52Z</time></trkpt><trkpt lat="44.75587795279246" lon="9.293590305672966"><ele>1087.0</ele><time>2026-03-28T11:03:53Z</time></trkpt><trkpt lat="44.75575501693448" lon="9.293601839504976"><ele>1095.0</ele><time>2026-03-28T11:03:54Z</time></trkpt><trkpt lat="44.755630094226625" lon="9.293632294021705"><ele>1103.0</ele><time>2026-03-28T11:03:55Z</time></trkpt><trkpt lat="44.75552501315068" lon="9.293720932054066"><ele>1111.0</ele><time>2026-03-28T11:03:56Z</time></trkpt><trkpt lat="44.75543001572712" lon="9.293767422767969"><ele>1119.0</ele><time>2026-03-28T11:03:57Z</time></trkpt><trkpt lat="44.75532115128787" lon="9.293788044737894"><ele>1119.0</ele><time>2026-03-28T11:03:58Z</time></trkpt><trkpt lat="44.75521995114014" lon="9.293803661537908"><ele>1119.0</ele><time>2026-03-28T11:03:59Z</time></trkpt><trkpt lat="44.755125983331155" lon="9.293810029586547"><ele>1119.0</ele><time>2026-03-28T11:04:00Z</time></trkpt><trkpt lat="44.75505467232958" lon="9.29371496891234"><ele>1119.0</ele><time>2026-03-28T11:04:01Z</time></trkpt><trkpt lat="44.75496527861713" lon="9.293643759575268"><ele>1119.0</ele><time>2026-03-28T11:04:02Z</time></trkpt><trkpt lat="44.75486640854255" lon="9.2935945642367"><ele>1120.3333333333333</ele><time>2026-03-28T11:04:03Z</time></trkpt><trkpt lat="44.754773676147046" lon="9.293598109269986"><ele>1121.6666666666667</ele><time>2026-03-28T11:04:04Z</time></trkpt><trkpt lat="44.75467710444217" lon="9.293575487222757"><ele>1123.0</ele><time>2026-03-28T11:04:06Z</time></trkpt><trkpt lat="44.75467061466886" lon="9.2934803907196"><ele>1124.3333333333335</ele><time>2026-03-28T11:04:07Z</time></trkpt><trkpt lat="44.75470351534957" lon="9.293369132263074"><ele>1125.6666666666667</ele><time>2026-03-28T11:04:08Z</time></trkpt><trkpt lat="44.75473127176424" lon="9.293254958970182"><ele>1127.0</ele><time>2026-03-28T11:04:09Z</time></trkpt><trkpt lat="44.75474975622776" lon="9.2931338339072"><ele>1126.8</ele><time>2026-03-28T11:04:10Z</time></trkpt><trkpt lat="44.75477866836675" lon="9.292990669374088"><ele>1126.6</ele><time>2026-03-28T11:04:11Z</time></trkpt><trkpt lat="44.75480664218906" lon="9.292851964695574"><ele>1126.3999999999999</ele><time>2026-03-28T11:04:11.999Z</time></trkpt><trkpt lat="44.75483166403498" lon="9.292723183308008"><ele>1126.2</ele><time>2026-03-28T11:04:12.999Z</time></trkpt><trkpt lat="44.75485323506929" lon="9.29258545473147"><ele>1126.0</ele><time>2026-03-28T11:04:13.999Z</time></trkpt><trkpt lat="44.75486066382673" lon="9.29244251659655"><ele>1126.0</ele><time>2026-03-28T11:04:14.999Z</time></trkpt><trkpt lat="44.75484294284546" lon="9.292298859030508"><ele>1126.0</ele><time>2026-03-28T11:04:15.999Z</time></trkpt><trkpt lat="44.754805289418314" lon="9.292163838057906"><ele>1126.0</ele><time>2026-03-28T11:04:16.999Z</time></trkpt><trkpt lat="44.75476221394859" lon="9.292034870585802"><ele>1126.0</ele><time>2026-03-28T11:04:17.999Z</time></trkpt><trkpt lat="44.754722084227836" lon="9.291923638439366"><ele>1126.0</ele><time>2026-03-28T11:04:18.999Z</time></trkpt><trkpt lat="44.75469732220514" lon="9.291825299981314"><ele>1126.2</ele><time>2026-03-28T11:04:19.999Z</time></trkpt><trkpt lat="44.75467804932208" lon="9.291722504590574"><ele>1126.3999999999999</ele><time>2026-03-28T11:04:20.999Z</time></trkpt><trkpt lat="44.754674049064796" lon="9.29162204925088"><ele>1126.6</ele><time>2026-03-28T11:04:21.999Z</time></trkpt><trkpt lat="44.75466920942001" lon="9.291519565809194"><ele>1126.8</ele><time>2026-03-28T11:04:22.999Z</time></trkpt><trkpt lat="44.754825816425125" lon="9.291371642960902"><ele>1127.0</ele><time>2026-03-28T11:04:23.999Z</time></trkpt><trkpt lat="44.75485835567432" lon="9.291249307298205"><ele>1125.25</ele><time>2026-03-28T11:04:24.999Z</time></trkpt><trkpt lat="44.75493259219366" lon="9.291124282404827"><ele>1123.5</ele><time>2026-03-28T11:04:25.999Z</time></trkpt><trkpt lat="44.75502570356705" lon="9.29101610797468"><ele>1121.75</ele><time>2026-03-28T11:04:26.999Z</time></trkpt><trkpt lat="44.75511696922" lon="9.290889939362614"><ele>1120.0</ele><time>2026-03-28T11:04:27.999Z</time></trkpt><trkpt lat="44.755200966980745" lon="9.290745588724834"><ele>1126.75</ele><time>2026-03-28T11:04:28.999Z</time></trkpt><trkpt lat="44.75527600757454" lon="9.290583561053037"><ele>1133.5</ele><time>2026-03-28T11:04:29.999Z</time></trkpt><trkpt lat="44.755341558327515" lon="9.2904217917711"><ele>1140.25</ele><time>2026-03-28T11:04:30.999Z</time></trkpt><trkpt lat="44.755383063240146" lon="9.290251524502922"><ele>1147.0</ele><time>2026-03-28T11:04:31.999Z</time></trkpt><trkpt lat="44.75540086004403" lon="9.290076471784682"><ele>1147.0</ele><time>2026-03-28T11:04:32.999Z</time></trkpt><trkpt lat="44.75539228735382" lon="9.289904957839386"><ele>1147.0</ele><time>2026-03-28T11:04:33.999Z</time></trkpt><trkpt lat="44.75540515299834" lon="9.28974023898207"><ele>1147.0</ele><time>2026-03-28T11:04:34.999Z</time></trkpt><trkpt lat="44.755457779710014" lon="9.289598790956184"><ele>1147.0</ele><time>2026-03-28T11:04:35.999Z</time></trkpt><trkpt lat="44.75552855262243" lon="9.28945884887789"><ele>1147.5</ele><time>2026-03-28T11:04:36.999Z</time></trkpt><trkpt lat="44.75560977384953" lon="9.289320629424546"><ele>1148.0</ele><time>2026-03-28T11:04:37.999Z</time></trkpt><trkpt lat="44.75565582003701" lon="9.289169381158318"><ele>1148.5</ele><time>2026-03-28T11:04:38.999Z</time></trkpt><trkpt lat="44.75567400851188" lon="9.288998117917654"><ele>1149.0</ele><time>2026-03-28T11:04:39.999Z</time></trkpt><trkpt lat="44.755670535655774" lon="9.288829778828589"><ele>1147.25</ele><time>2026-03-28T11:04:40.999Z</time></trkpt><trkpt lat="44.75567004745408" lon="9.288661843842739"><ele>1145.5</ele><time>2026-03-28T11:04:41.999Z</time></trkpt><trkpt lat="44.755695198246" lon="9.288501373531583"><ele>1143.75</ele><time>2026-03-28T11:04:42.999Z</time></trkpt><trkpt lat="44.75573495524824" lon="9.28833787492072"><ele>1142.0</ele><time>2026-03-28T11:04:43.999Z</time></trkpt><trkpt lat="44.75579229519786" lon="9.288194902275317"><ele>1142.25</ele><time>2026-03-28T11:04:44.999Z</time></trkpt><trkpt lat="44.75586955348278" lon="9.28805162188119"><ele>1142.5</ele><time>2026-03-28T11:04:45.999Z</time></trkpt><trkpt lat="44.75595428147672" lon="9.287935514453306"><ele>1142.75</ele><time>2026-03-28T11:04:46.999Z</time></trkpt><trkpt lat="44.756054629912015" lon="9.287844638479775"><ele>1143.0</ele><time>2026-03-28T11:04:47.999Z</time></trkpt><trkpt lat="44.756157649155114" lon="9.287763759975535"><ele>1143.0</ele><time>2026-03-28T11:04:48.999Z</time></trkpt><trkpt lat="44.756260554069904" lon="9.28769144572246"><ele>1143.0</ele><time>2026-03-28T11:04:49.999Z</time></trkpt><trkpt lat="44.756349374791235" lon="9.287609562678819"><ele>1143.0</ele><time>2026-03-28T11:04:50.999Z</time></trkpt><trkpt lat="44.756423293792004" lon="9.287546825074802"><ele>1143.0</ele><time>2026-03-28T11:04:51.999Z</time></trkpt><trkpt lat="44.75650189545251" lon="9.287532975437363"><ele>1143.0</ele><time>2026-03-28T11:04:52.999Z</time></trkpt><trkpt lat="44.7565914528458" lon="9.287532790366846"><ele>1143.0</ele><time>2026-03-28T11:04:53.999Z</time></trkpt><trkpt lat="44.7566878573467" lon="9.287539666828144"><ele>1143.0</ele><time>2026-03-28T11:04:54.999Z</time></trkpt><trkpt lat="44.75679054827898" lon="9.28757077012805"><ele>1143.0</ele><time>2026-03-28T11:04:55.999Z</time></trkpt><trkpt lat="44.75689349828601" lon="9.287591893432023"><ele>1143.0</ele><time>2026-03-28T11:04:56.999Z</time></trkpt><trkpt lat="44.75700392705367" lon="9.287580934651096"><ele>1143.0</ele><time>2026-03-28T11:04:57.999Z</time></trkpt><trkpt lat="44.757117603997486" lon="9.287529926594608"><ele>1145.25</ele><time>2026-03-28T11:04:58.999Z</time></trkpt><trkpt lat="44.7572308392696" lon="9.28746437825336"><ele>1147.5</ele><time>2026-03-28T11:04:59.999Z</time></trkpt><trkpt lat="44.757347728899674" lon="9.287399417368468"><ele>1149.75</ele><time>2026-03-28T11:05:00.999Z</time></trkpt><trkpt lat="44.757471504339804" lon="9.28734537645567"><ele>1152.0</ele><time>2026-03-28T11:05:01.999Z</time></trkpt><trkpt lat="44.75759794563984" lon="9.287299534583374"><ele>1153.0</ele><time>2026-03-28T11:05:02.999Z</time></trkpt><trkpt lat="44.75772029406532" lon="9.287241776392968"><ele>1154.0</ele><time>2026-03-28T11:05:03.999Z</time></trkpt><trkpt lat="44.75783935179294" lon="9.287170195254479"><ele>1155.0</ele><time>2026-03-28T11:05:04.999Z</time></trkpt><trkpt lat="44.757954232898825" lon="9.287090452087407"><ele>1156.0</ele><time>2026-03-28T11:05:05.999Z</time></trkpt><trkpt lat="44.75807373895444" lon="9.287029298315064"><ele>1156.0</ele><time>2026-03-28T11:05:06.999Z</time></trkpt><trkpt lat="44.75818962006793" lon="9.286983525017998"><ele>1156.0</ele><time>2026-03-28T11:05:07.999Z</time></trkpt><trkpt lat="44.75828860483373" lon="9.286946064586287"><ele>1156.0</ele><time>2026-03-28T11:05:08.999Z</time></trkpt><trkpt lat="44.75839048951839" lon="9.286906433136297"><ele>1156.0</ele><time>2026-03-28T11:05:09.999Z</time></trkpt><trkpt lat="44.758499786716975" lon="9.286865971561525"><ele>1156.0</ele><time>2026-03-28T11:05:10.999Z</time></trkpt><trkpt lat="44.75861918161648" lon="9.286833367481611"><ele>1154.5</ele><time>2026-03-28T11:05:11.999Z</time></trkpt><trkpt lat="44.75872377821899" lon="9.286750145484223"><ele>1153.0</ele><time>2026-03-28T11:05:12.999Z</time></trkpt><trkpt lat="44.758829814947184" lon="9.28664175232431"><ele>1151.5</ele><time>2026-03-28T11:05:13.999Z</time></trkpt><trkpt lat="44.758947152211114" lon="9.286546648081696"><ele>1150.0</ele><time>2026-03-28T11:05:14.999Z</time></trkpt><trkpt lat="44.75907761965878" lon="9.286481618560206"><ele>1150.0</ele><time>2026-03-28T11:05:15.999Z</time></trkpt><trkpt lat="44.759217135092605" lon="9.286446759710488"><ele>1150.0</ele><time>2026-03-28T11:05:16.999Z</time></trkpt><trkpt lat="44.75935954246174" lon="9.28642129179199"><ele>1150.0</ele><time>2026-03-28T11:05:18Z</time></trkpt><trkpt lat="44.75950573804508" lon="9.286402186307386"><ele>1150.0</ele><time>2026-03-28T11:05:19Z</time></trkpt><trkpt lat="44.759647282551796" lon="9.286361894864346"><ele>1153.6666666666665</ele><time>2026-03-28T11:05:20Z</time></trkpt><trkpt lat="44.75978546263973" lon="9.286287434992422"><ele>1157.3333333333333</ele><time>2026-03-28T11:05:21Z</time></trkpt><trkpt lat="44.759920295498105" lon="9.286188033806791"><ele>1161.0</ele><time>2026-03-28T11:05:22Z</time></trkpt><trkpt lat="44.76006466791698" lon="9.286087667143882"><ele>1158.0</ele><time>2026-03-28T11:05:23Z</time></trkpt><trkpt lat="44.76021903778413" lon="9.28601644227117"><ele>1155.0</ele><time>2026-03-28T11:05:24Z</time></trkpt><trkpt lat="44.76037646313155" lon="9.285985106068809"><ele>1152.0</ele><time>2026-03-28T11:05:25Z</time></trkpt><trkpt lat="44.7605441972299" lon="9.285961716815486"><ele>1152.0</ele><time>2026-03-28T11:05:26Z</time></trkpt><trkpt lat="44.76069391754671" lon="9.28592834617881"><ele>1152.0</ele><time>2026-03-28T11:05:27Z</time></trkpt><trkpt lat="44.760844021444925" lon="9.285910020317663"><ele>1152.0</ele><time>2026-03-28T11:05:28Z</time></trkpt><trkpt lat="44.760992048711394" lon="9.28590359571014"><ele>1148.25</ele><time>2026-03-28T11:05:29Z</time></trkpt><trkpt lat="44.761139533427155" lon="9.285896413309041"><ele>1144.5</ele><time>2026-03-28T11:05:30Z</time></trkpt><trkpt lat="44.76127809342519" lon="9.285877293118798"><ele>1140.75</ele><time>2026-03-28T11:05:31Z</time></trkpt><trkpt lat="44.761402491661286" lon="9.285807517419139"><ele>1137.0</ele><time>2026-03-28T11:05:32Z</time></trkpt><trkpt lat="44.76152410092647" lon="9.28569642561323"><ele>1141.0</ele><time>2026-03-28T11:05:33Z</time></trkpt><trkpt lat="44.76165864464593" lon="9.28558476952627"><ele>1145.0</ele><time>2026-03-28T11:05:34Z</time></trkpt><trkpt lat="44.76180918571384" lon="9.285510593460351"><ele>1149.0</ele><time>2026-03-28T11:05:35Z</time></trkpt><trkpt lat="44.76196243075619" lon="9.285452544903741"><ele>1149.0</ele><time>2026-03-28T11:05:36Z</time></trkpt><trkpt lat="44.76210285841708" lon="9.285398779521834"><ele>1149.0</ele><time>2026-03-28T11:05:37Z</time></trkpt><trkpt lat="44.76223498374947" lon="9.285366196102578"><ele>1149.0</ele><time>2026-03-28T11:05:38Z</time></trkpt><trkpt lat="44.76235704364696" lon="9.285353609325258"><ele>1149.0</ele><time>2026-03-28T11:05:39Z</time></trkpt><trkpt lat="44.76247993619075" lon="9.28541630545195"><ele>1149.0</ele><time>2026-03-28T11:05:40Z</time></trkpt><trkpt lat="44.76262283969337" lon="9.28543637727437"><ele>1149.0</ele><time>2026-03-28T11:05:41Z</time></trkpt><trkpt lat="44.76276780313" lon="9.285442744101706"><ele>1149.0</ele><time>2026-03-28T11:05:42Z</time></trkpt><trkpt lat="44.7629042087307" lon="9.285443561633102"><ele>1149.0</ele><time>2026-03-28T11:05:43Z</time></trkpt><trkpt lat="44.763043919153425" lon="9.285469901889156"><ele>1148.5</ele><time>2026-03-28T11:05:44Z</time></trkpt><trkpt lat="44.76317319552697" lon="9.285536567856951"><ele>1148.0</ele><time>2026-03-28T11:05:45Z</time></trkpt><trkpt lat="44.763317563281376" lon="9.285543675800161"><ele>1147.5</ele><time>2026-03-28T11:05:46Z</time></trkpt><trkpt lat="44.763446579493355" lon="9.285536254493852"><ele>1147.0</ele><time>2026-03-28T11:05:47Z</time></trkpt><trkpt lat="44.76357912235315" lon="9.285535783146758"><ele>1142.25</ele><time>2026-03-28T11:05:48Z</time></trkpt><trkpt lat="44.76371470854627" lon="9.28553225482248"><ele>1137.5</ele><time>2026-03-28T11:05:49Z</time></trkpt><trkpt lat="44.76384381598735" lon="9.28552247196172"><ele>1132.75</ele><time>2026-03-28T11:05:50Z</time></trkpt><trkpt lat="44.76396644738652" lon="9.285504686162207"><ele>1128.0</ele><time>2026-03-28T11:05:51Z</time></trkpt><trkpt lat="44.76407701085338" lon="9.285479895443242"><ele>1128.0</ele><time>2026-03-28T11:05:52Z</time></trkpt><trkpt lat="44.76417869618052" lon="9.285468806097041"><ele>1128.0</ele><time>2026-03-28T11:05:53Z</time></trkpt><trkpt lat="44.7642594170115" lon="9.285428340131082"><ele>1128.0</ele><time>2026-03-28T11:05:54Z</time></trkpt><trkpt lat="44.76434704097343" lon="9.285329302791009"><ele>1128.0</ele><time>2026-03-28T11:05:55Z</time></trkpt><trkpt lat="44.764417456414236" lon="9.285203568737648"><ele>1128.0</ele><time>2026-03-28T11:05:56Z</time></trkpt><trkpt lat="44.76446986336262" lon="9.285104261813219"><ele>1124.8333333333333</ele><time>2026-03-28T11:05:57Z</time></trkpt><trkpt lat="44.764516607619164" lon="9.285031599013701"><ele>1121.6666666666667</ele><time>2026-03-28T11:05:58Z</time></trkpt><trkpt lat="44.76456727862563" lon="9.28497757415643"><ele>1118.5</ele><time>2026-03-28T11:05:59Z</time></trkpt><trkpt lat="44.76464008337006" lon="9.28495197654921"><ele>1115.3333333333335</ele><time>2026-03-28T11:06:00Z</time></trkpt><trkpt lat="44.76471859214701" lon="9.284963630688098"><ele>1112.1666666666667</ele><time>2026-03-28T11:06:01Z</time></trkpt><trkpt lat="44.76482131882219" lon="9.285010141722585"><ele>1109.0</ele><time>2026-03-28T11:06:02Z</time></trkpt><trkpt lat="44.76493649045177" lon="9.285067454241977"><ele>1109.0</ele><time>2026-03-28T11:06:03Z</time></trkpt><trkpt lat="44.76505352182356" lon="9.285128284199727"><ele>1109.0</ele><time>2026-03-28T11:06:04Z</time></trkpt><trkpt lat="44.76517086301216" lon="9.285187509152486"><ele>1109.0</ele><time>2026-03-28T11:06:05Z</time></trkpt><trkpt lat="44.76528404481791" lon="9.285252094933448"><ele>1109.0</ele><time>2026-03-28T11:06:06Z</time></trkpt><trkpt lat="44.765417115185706" lon="9.285312953801231"><ele>1108.0</ele><time>2026-03-28T11:06:07Z</time></trkpt><trkpt lat="44.76553125432039" lon="9.285354833226704"><ele>1107.0</ele><time>2026-03-28T11:06:07.999Z</time></trkpt><trkpt lat="44.76565282645848" lon="9.285389393129622"><ele>1106.0</ele><time>2026-03-28T11:06:08.999Z</time></trkpt><trkpt lat="44.76577904107604" lon="9.28541565016614"><ele>1105.0</ele><time>2026-03-28T11:06:09.999Z</time></trkpt><trkpt lat="44.765904136157204" lon="9.285432142248615"><ele>1106.75</ele><time>2026-03-28T11:06:10.999Z</time></trkpt><trkpt lat="44.766031520649015" lon="9.285445157267821"><ele>1108.5</ele><time>2026-03-28T11:06:11.999Z</time></trkpt><trkpt lat="44.766161061743965" lon="9.285460612486695"><ele>1110.25</ele><time>2026-03-28T11:06:12.999Z</time></trkpt><trkpt lat="44.766300486945866" lon="9.285465635309626"><ele>1112.0</ele><time>2026-03-28T11:06:13.999Z</time></trkpt><trkpt lat="44.766416887098956" lon="9.285491506370766"><ele>1112.0</ele><time>2026-03-28T11:06:14.999Z</time></trkpt><trkpt lat="44.76654159824323" lon="9.285514009503585"><ele>1112.0</ele><time>2026-03-28T11:06:15.999Z</time></trkpt><trkpt lat="44.76666546777222" lon="9.28554202397117"><ele>1112.0</ele><time>2026-03-28T11:06:16.999Z</time></trkpt><trkpt lat="44.76678198784182" lon="9.285569661432664"><ele>1112.0</ele><time>2026-03-28T11:06:17.999Z</time></trkpt><trkpt lat="44.76690233443965" lon="9.285605370092366"><ele>1112.0</ele><time>2026-03-28T11:06:18.999Z</time></trkpt><trkpt lat="44.767028856095564" lon="9.285633067177502"><ele>1112.0</ele><time>2026-03-28T11:06:19.999Z</time></trkpt><trkpt lat="44.76715344523611" lon="9.285662960207599"><ele>1112.0</ele><time>2026-03-28T11:06:20.999Z</time></trkpt><trkpt lat="44.76727865843183" lon="9.285699490730824"><ele>1112.0</ele><time>2026-03-28T11:06:21.999Z</time></trkpt><trkpt lat="44.76739971851349" lon="9.285742593598993"><ele>1112.0</ele><time>2026-03-28T11:06:22.999Z</time></trkpt><trkpt lat="44.76752760371278" lon="9.285775357962118"><ele>1112.0</ele><time>2026-03-28T11:06:23.999Z</time></trkpt><trkpt lat="44.767659075916136" lon="9.285800721323156"><ele>1112.0</ele><time>2026-03-28T11:06:24.999Z</time></trkpt><trkpt lat="44.767784710522996" lon="9.285836053112625"><ele>1112.0</ele><time>2026-03-28T11:06:25.999Z</time></trkpt><trkpt lat="44.76791398554733" lon="9.28588217665765"><ele>1112.5</ele><time>2026-03-28T11:06:26.999Z</time></trkpt><trkpt lat="44.768044504240365" lon="9.28592328989611"><ele>1113.0</ele><time>2026-03-28T11:06:27.999Z</time></trkpt><trkpt lat="44.76817612961358" lon="9.285964456611122"><ele>1113.5</ele><time>2026-03-28T11:06:28.999Z</time></trkpt><trkpt lat="44.768311598910735" lon="9.286005128392135"><ele>1114.0</ele><time>2026-03-28T11:06:29.999Z</time></trkpt><trkpt lat="44.7684558389321" lon="9.286042802874743"><ele>1113.25</ele><time>2026-03-28T11:06:30.999Z</time></trkpt><trkpt lat="44.76858974569315" lon="9.286084834976494"><ele>1112.5</ele><time>2026-03-28T11:06:31.999Z</time></trkpt><trkpt lat="44.76872511305956" lon="9.286127925948634"><ele>1111.75</ele><time>2026-03-28T11:06:32.999Z</time></trkpt><trkpt lat="44.768867642987956" lon="9.286165614690862"><ele>1111.0</ele><time>2026-03-28T11:06:33.999Z</time></trkpt><trkpt lat="44.76900705441636" lon="9.286210642531445"><ele>1111.0</ele><time>2026-03-28T11:06:34.999Z</time></trkpt><trkpt lat="44.76914324785502" lon="9.286271959271742"><ele>1111.0</ele><time>2026-03-28T11:06:35.999Z</time></trkpt><trkpt lat="44.76928221821268" lon="9.286315021419306"><ele>1111.0</ele><time>2026-03-28T11:06:36.999Z</time></trkpt><trkpt lat="44.76941316186874" lon="9.286392325317614"><ele>1111.0</ele><time>2026-03-28T11:06:37.999Z</time></trkpt><trkpt lat="44.76954781908236" lon="9.286452552187473"><ele>1112.5</ele><time>2026-03-28T11:06:38.999Z</time></trkpt><trkpt lat="44.76968660984286" lon="9.286509186289525"><ele>1114.0</ele><time>2026-03-28T11:06:39.999Z</time></trkpt><trkpt lat="44.76982137827973" lon="9.286562869318717"><ele>1115.5</ele><time>2026-03-28T11:06:40.999Z</time></trkpt><trkpt lat="44.76996175491606" lon="9.286621255042034"><ele>1117.0</ele><time>2026-03-28T11:06:41.999Z</time></trkpt><trkpt lat="44.77009997436629" lon="9.28668362228141"><ele>1118.0</ele><time>2026-03-28T11:06:42.999Z</time></trkpt><trkpt lat="44.77024124349635" lon="9.28672703790016"><ele>1119.0</ele><time>2026-03-28T11:06:43.999Z</time></trkpt><trkpt lat="44.77037529269296" lon="9.286798460305432"><ele>1120.0</ele><time>2026-03-28T11:06:44.999Z</time></trkpt><trkpt lat="44.770489690660014" lon="9.286879368834349"><ele>1121.0</ele><time>2026-03-28T11:06:45.999Z</time></trkpt><trkpt lat="44.770592861382426" lon="9.286982631111801"><ele>1121.0</ele><time>2026-03-28T11:06:46.999Z</time></trkpt><trkpt lat="44.77064774252998" lon="9.287111685186655"><ele>1121.0</ele><time>2026-03-28T11:06:47.999Z</time></trkpt><trkpt lat="44.77063231227386" lon="9.28725882729161"><ele>1121.0</ele><time>2026-03-28T11:06:48.999Z</time></trkpt><trkpt lat="44.77064992937013" lon="9.287410185446475"><ele>1121.0</ele><time>2026-03-28T11:06:49.999Z</time></trkpt><trkpt lat="44.7706889773739" lon="9.287568231199781"><ele>1121.0</ele><time>2026-03-28T11:06:50.999Z</time></trkpt><trkpt lat="44.77070022043022" lon="9.287694347350154"><ele>1121.8</ele><time>2026-03-28T11:06:51.999Z</time></trkpt><trkpt lat="44.770755624743074" lon="9.287762330806629"><ele>1122.6</ele><time>2026-03-28T11:06:52.999Z</time></trkpt><trkpt lat="44.77082855853778" lon="9.287812742354985"><ele>1123.4</ele><time>2026-03-28T11:06:53.999Z</time></trkpt><trkpt lat="44.77091620237421" lon="9.287801789401406"><ele>1124.2</ele><time>2026-03-28T11:06:54.999Z</time></trkpt><trkpt lat="44.77101580272811" lon="9.28772996967246"><ele>1125.0</ele><time>2026-03-28T11:06:55.999Z</time></trkpt><trkpt lat="44.77112677527458" lon="9.287664028133433"><ele>1126.4</ele><time>2026-03-28T11:06:56.999Z</time></trkpt><trkpt lat="44.77122650251316" lon="9.287621814479905"><ele>1127.8</ele><time>2026-03-28T11:06:57.999Z</time></trkpt><trkpt lat="44.77130636426162" lon="9.287640366739332"><ele>1129.2</ele><time>2026-03-28T11:06:58.999Z</time></trkpt><trkpt lat="44.77140446889114" lon="9.287687532576895"><ele>1130.6</ele><time>2026-03-28T11:06:59.999Z</time></trkpt><trkpt lat="44.77144308563962" lon="9.2878075380898"><ele>1132.0</ele><time>2026-03-28T11:07:00.999Z</time></trkpt><trkpt lat="44.77149736677446" lon="9.287901095118327"><ele>1132.0</ele><time>2026-03-28T11:07:01.999Z</time></trkpt><trkpt lat="44.77154575156989" lon="9.288008529210733"><ele>1132.0</ele><time>2026-03-28T11:07:02.999Z</time></trkpt><trkpt lat="44.77161858073034" lon="9.288086394382017"><ele>1132.0</ele><time>2026-03-28T11:07:03.999Z</time></trkpt><trkpt lat="44.771716983315756" lon="9.288116139555516"><ele>1132.0</ele><time>2026-03-28T11:07:04.999Z</time></trkpt><trkpt lat="44.771835713749276" lon="9.288168569356838"><ele>1132.0</ele><time>2026-03-28T11:07:05.999Z</time></trkpt><trkpt lat="44.771947337514334" lon="9.288196109216486"><ele>1131.25</ele><time>2026-03-28T11:07:06.999Z</time></trkpt><trkpt lat="44.772033625402116" lon="9.288287140769715"><ele>1130.5</ele><time>2026-03-28T11:07:07.999Z</time></trkpt><trkpt lat="44.77210986300907" lon="9.288406735586525"><ele>1129.75</ele><time>2026-03-28T11:07:08.999Z</time></trkpt><trkpt lat="44.772178777412094" lon="9.288556316490546"><ele>1129.0</ele><time>2026-03-28T11:07:09.999Z</time></trkpt><trkpt lat="44.772212443250815" lon="9.288733011874852"><ele>1129.0</ele><time>2026-03-28T11:07:10.999Z</time></trkpt><trkpt lat="44.77226205876254" lon="9.288890024340168"><ele>1129.0</ele><time>2026-03-28T11:07:11.999Z</time></trkpt><trkpt lat="44.77232743397877" lon="9.289027113827144"><ele>1129.0</ele><time>2026-03-28T11:07:12.999Z</time></trkpt><trkpt lat="44.77239765943163" lon="9.289156318153756"><ele>1129.0</ele><time>2026-03-28T11:07:13.999Z</time></trkpt><trkpt lat="44.77247498319163" lon="9.289281991651574"><ele>1127.6000000000001</ele><time>2026-03-28T11:07:14.999Z</time></trkpt><trkpt lat="44.77249932634321" lon="9.289433561265293"><ele>1126.2</ele><time>2026-03-28T11:07:15.999Z</time></trkpt><trkpt lat="44.772509729953256" lon="9.289577841412175"><ele>1124.8000000000002</ele><time>2026-03-28T11:07:16.999Z</time></trkpt><trkpt lat="44.77254268418502" lon="9.28971352707065"><ele>1123.4</ele><time>2026-03-28T11:07:17.999Z</time></trkpt><trkpt lat="44.77260133156176" lon="9.289851406817874"><ele>1122.0</ele><time>2026-03-28T11:07:18.999Z</time></trkpt><trkpt lat="44.772669521666934" lon="9.28998887849497"><ele>1123.5</ele><time>2026-03-28T11:07:19.999Z</time></trkpt><trkpt lat="44.77273765879027" lon="9.290125437543724"><ele>1125.0</ele><time>2026-03-28T11:07:20.999Z</time></trkpt><trkpt lat="44.77281768609514" lon="9.290245608331322"><ele>1126.5</ele><time>2026-03-28T11:07:21.999Z</time></trkpt><trkpt lat="44.77287380834453" lon="9.290380967176587"><ele>1128.0</ele><time>2026-03-28T11:07:22.999Z</time></trkpt><trkpt lat="44.77295749085694" lon="9.290489791060601"><ele>1128.0</ele><time>2026-03-28T11:07:24Z</time></trkpt><trkpt lat="44.773060088214955" lon="9.290544797896347"><ele>1128.0</ele><time>2026-03-28T11:07:25Z</time></trkpt><trkpt lat="44.77314122737801" lon="9.290617420151737"><ele>1128.0</ele><time>2026-03-28T11:07:26Z</time></trkpt><trkpt lat="44.77318528241672" lon="9.290727057266295"><ele>1128.0</ele><time>2026-03-28T11:07:27Z</time></trkpt><trkpt lat="44.77322605320542" lon="9.290834775095295"><ele>1128.0</ele><time>2026-03-28T11:07:28Z</time></trkpt><trkpt lat="44.77321730258464" lon="9.290986929387287"><ele>1125.25</ele><time>2026-03-28T11:07:29Z</time></trkpt><trkpt lat="44.773221702295" lon="9.291149657980466"><ele>1122.5</ele><time>2026-03-28T11:07:30Z</time></trkpt><trkpt lat="44.773255482223036" lon="9.291305199800828"><ele>1119.75</ele><time>2026-03-28T11:07:31Z</time></trkpt><trkpt lat="44.77329242666371" lon="9.291463763869894"><ele>1117.0</ele><time>2026-03-28T11:07:32Z</time></trkpt><trkpt lat="44.773341546459015" lon="9.291626486381686"><ele>1117.0</ele><time>2026-03-28T11:07:33Z</time></trkpt><trkpt lat="44.773380809167136" lon="9.291805803124348"><ele>1117.0</ele><time>2026-03-28T11:07:34Z</time></trkpt><trkpt lat="44.773437043705094" lon="9.29198226276679"><ele>1117.0</ele><time>2026-03-28T11:07:35Z</time></trkpt><trkpt lat="44.7735054848367" lon="9.292157199628479"><ele>1117.0</ele><time>2026-03-28T11:07:36Z</time></trkpt><trkpt lat="44.773554096356904" lon="9.292341448615822"><ele>1117.0</ele><time>2026-03-28T11:07:37Z</time></trkpt><trkpt lat="44.77360259071392" lon="9.292508432131907"><ele>1117.0</ele><time>2026-03-28T11:07:38Z</time></trkpt><trkpt lat="44.773648361957655" lon="9.292676945881103"><ele>1117.0</ele><time>2026-03-28T11:07:39Z</time></trkpt><trkpt lat="44.77367917618715" lon="9.292845435589797"><ele>1117.0</ele><time>2026-03-28T11:07:40Z</time></trkpt><trkpt lat="44.77369413623348" lon="9.293004832656905"><ele>1115.6</ele><time>2026-03-28T11:07:41Z</time></trkpt><trkpt lat="44.77368641278648" lon="9.29315733345664"><ele>1114.2</ele><time>2026-03-28T11:07:42Z</time></trkpt><trkpt lat="44.773700055507774" lon="9.293297739783673"><ele>1112.8</ele><time>2026-03-28T11:07:43Z</time></trkpt><trkpt lat="44.77374198780697" lon="9.293422851732538"><ele>1111.4</ele><time>2026-03-28T11:07:44Z</time></trkpt><trkpt lat="44.773787073570595" lon="9.29354142652465"><ele>1110.0</ele><time>2026-03-28T11:07:45Z</time></trkpt><trkpt lat="44.77384740179525" lon="9.29365733090303"><ele>1110.0</ele><time>2026-03-28T11:07:46Z</time></trkpt><trkpt lat="44.77390814169524" lon="9.293782464734797"><ele>1110.0</ele><time>2026-03-28T11:07:47Z</time></trkpt><trkpt lat="44.77398500531696" lon="9.293895775065192"><ele>1110.0</ele><time>2026-03-28T11:07:48Z</time></trkpt><trkpt lat="44.774073239143156" lon="9.293980516179559"><ele>1110.0</ele><time>2026-03-28T11:07:49Z</time></trkpt><trkpt lat="44.77416052392501" lon="9.29403635518166"><ele>1110.0</ele><time>2026-03-28T11:07:50Z</time></trkpt><trkpt lat="44.774250575513186" lon="9.29408591363429"><ele>1109.4</ele><time>2026-03-28T11:07:51Z</time></trkpt><trkpt lat="44.77434555052746" lon="9.29414017994823"><ele>1108.8</ele><time>2026-03-28T11:07:52Z</time></trkpt><trkpt lat="44.77443222448896" lon="9.294227601316457"><ele>1108.2</ele><time>2026-03-28T11:07:53Z</time></trkpt><trkpt lat="44.774505218082986" lon="9.294347035746366"><ele>1107.6</ele><time>2026-03-28T11:07:54Z</time></trkpt><trkpt lat="44.774560838046334" lon="9.294487026091314"><ele>1107.0</ele><time>2026-03-28T11:07:55Z</time></trkpt><trkpt lat="44.7746019821342" lon="9.294639754578592"><ele>1107.25</ele><time>2026-03-28T11:07:56Z</time></trkpt><trkpt lat="44.77462343090304" lon="9.294802658183"><ele>1107.5</ele><time>2026-03-28T11:07:57Z</time></trkpt><trkpt lat="44.77468281922268" lon="9.294953283003098"><ele>1107.75</ele><time>2026-03-28T11:07:58Z</time></trkpt><trkpt lat="44.77474756580682" lon="9.295086819306082"><ele>1108.0</ele><time>2026-03-28T11:07:59Z</time></trkpt><trkpt lat="44.77483530074134" lon="9.295178291015862"><ele>1108.0</ele><time>2026-03-28T11:08:00Z</time></trkpt><trkpt lat="44.77494346443903" lon="9.295224285767723"><ele>1108.0</ele><time>2026-03-28T11:08:01Z</time></trkpt><trkpt lat="44.775050492839256" lon="9.295268091260825"><ele>1108.0</ele><time>2026-03-28T11:08:02Z</time></trkpt><trkpt lat="44.7751502055486" lon="9.295346771259117"><ele>1108.0</ele><time>2026-03-28T11:08:03Z</time></trkpt><trkpt lat="44.77524069605094" lon="9.295461120777045"><ele>1107.75</ele><time>2026-03-28T11:08:04Z</time></trkpt><trkpt lat="44.775319546090564" lon="9.295598985665986"><ele>1107.5</ele><time>2026-03-28T11:08:05Z</time></trkpt><trkpt lat="44.77540296327914" lon="9.295740917913117"><ele>1107.25</ele><time>2026-03-28T11:08:06Z</time></trkpt><trkpt lat="44.77548776761964" lon="9.295875556363706"><ele>1107.0</ele><time>2026-03-28T11:08:07Z</time></trkpt><trkpt lat="44.77556677608318" lon="9.295991730090014"><ele>1107.0</ele><time>2026-03-28T11:08:08Z</time></trkpt><trkpt lat="44.77565675090621" lon="9.296079338181324"><ele>1107.0</ele><time>2026-03-28T11:08:09Z</time></trkpt><trkpt lat="44.77576902416082" lon="9.296116637081475"><ele>1107.0</ele><time>2026-03-28T11:08:10Z</time></trkpt><trkpt lat="44.77589485405169" lon="9.296143970504255"><ele>1107.0</ele><time>2026-03-28T11:08:11Z</time></trkpt><trkpt lat="44.77602969434176" lon="9.296167090333348"><ele>1107.75</ele><time>2026-03-28T11:08:12Z</time></trkpt><trkpt lat="44.77615738821941" lon="9.296176952215387"><ele>1108.5</ele><time>2026-03-28T11:08:13Z</time></trkpt><trkpt lat="44.77627196596497" lon="9.296171296649822"><ele>1109.25</ele><time>2026-03-28T11:08:14Z</time></trkpt><trkpt lat="44.77637733802759" lon="9.296110142225293"><ele>1110.0</ele><time>2026-03-28T11:08:15Z</time></trkpt><trkpt lat="44.776470085509835" lon="9.296015527335987"><ele>1110.0</ele><time>2026-03-28T11:08:16Z</time></trkpt><trkpt lat="44.77655658070294" lon="9.295920375847258"><ele>1110.0</ele><time>2026-03-28T11:08:17Z</time></trkpt><trkpt lat="44.77663779411874" lon="9.29587459214675"><ele>1110.0</ele><time>2026-03-28T11:08:18Z</time></trkpt><trkpt lat="44.77673039668372" lon="9.295886433555541"><ele>1110.0</ele><time>2026-03-28T11:08:19Z</time></trkpt><trkpt lat="44.776823744767455" lon="9.295942603243923"><ele>1110.0</ele><time>2026-03-28T11:08:20Z</time></trkpt><trkpt lat="44.77692474125872" lon="9.295995082919179"><ele>1111.5</ele><time>2026-03-28T11:08:20.999Z</time></trkpt><trkpt lat="44.77703938977976" lon="9.29598394828457"><ele>1113.0</ele><time>2026-03-28T11:08:21.999Z</time></trkpt><trkpt lat="44.77714295506742" lon="9.295913235795618"><ele>1114.5</ele><time>2026-03-28T11:08:22.999Z</time></trkpt><trkpt lat="44.77722598690653" lon="9.295802500984708"><ele>1116.0</ele><time>2026-03-28T11:08:23.999Z</time></trkpt><trkpt lat="44.7772934389991" lon="9.295675323974413"><ele>1113.6</ele><time>2026-03-28T11:08:24.999Z</time></trkpt><trkpt lat="44.77736907232422" lon="9.295553628433728"><ele>1111.1999999999998</ele><time>2026-03-28T11:08:25.999Z</time></trkpt><trkpt lat="44.77744922411503" lon="9.295443055900183"><ele>1108.8000000000002</ele><time>2026-03-28T11:08:26.999Z</time></trkpt><trkpt lat="44.77752811059775" lon="9.295361721577747"><ele>1106.4</ele><time>2026-03-28T11:08:27.999Z</time></trkpt><trkpt lat="44.77761023234423" lon="9.295326919840145"><ele>1104.0</ele><time>2026-03-28T11:08:28.999Z</time></trkpt><trkpt lat="44.77770372811667" lon="9.295333137975957"><ele>1103.75</ele><time>2026-03-28T11:08:29.999Z</time></trkpt><trkpt lat="44.777806249539324" lon="9.295349114198745"><ele>1103.5</ele><time>2026-03-28T11:08:30.999Z</time></trkpt><trkpt lat="44.77791508229924" lon="9.295379710045095"><ele>1103.25</ele><time>2026-03-28T11:08:31.999Z</time></trkpt><trkpt lat="44.77802947290569" lon="9.295415134707302"><ele>1103.0</ele><time>2026-03-28T11:08:32.999Z</time></trkpt><trkpt lat="44.778150773282015" lon="9.295460624692803"><ele>1103.0</ele><time>2026-03-28T11:08:33.999Z</time></trkpt><trkpt lat="44.7782759343182" lon="9.295524861597602"><ele>1103.0</ele><time>2026-03-28T11:08:34.999Z</time></trkpt><trkpt lat="44.77840390916619" lon="9.295606127970139"><ele>1103.0</ele><time>2026-03-28T11:08:35.999Z</time></trkpt><trkpt lat="44.77853051610622" lon="9.295704652462412"><ele>1103.0</ele><time>2026-03-28T11:08:36.999Z</time></trkpt><trkpt lat="44.77866258745484" lon="9.295797094272372"><ele>1104.5</ele><time>2026-03-28T11:08:37.999Z</time></trkpt><trkpt lat="44.778798863173066" lon="9.295867220679973"><ele>1106.0</ele><time>2026-03-28T11:08:38.999Z</time></trkpt><trkpt lat="44.778927995975124" lon="9.29596970870193"><ele>1107.5</ele><time>2026-03-28T11:08:39.999Z</time></trkpt><trkpt lat="44.779051489208356" lon="9.296100755756772"><ele>1109.0</ele><time>2026-03-28T11:08:40.999Z</time></trkpt><trkpt lat="44.77917334329503" lon="9.296238522199916"><ele>1109.0</ele><time>2026-03-28T11:08:41.999Z</time></trkpt><trkpt lat="44.779293915845" lon="9.296375757450114"><ele>1109.0</ele><time>2026-03-28T11:08:42.999Z</time></trkpt><trkpt lat="44.7794136948643" lon="9.296507436814121"><ele>1109.0</ele><time>2026-03-28T11:08:43.999Z</time></trkpt><trkpt lat="44.77953895973127" lon="9.29663469875774"><ele>1110.25</ele><time>2026-03-28T11:08:44.999Z</time></trkpt><trkpt lat="44.77965708646454" lon="9.296761635061351"><ele>1111.5</ele><time>2026-03-28T11:08:45.999Z</time></trkpt><trkpt lat="44.77975615389007" lon="9.296893166516568"><ele>1112.75</ele><time>2026-03-28T11:08:46.999Z</time></trkpt><trkpt lat="44.77983002293714" lon="9.29704193898584"><ele>1114.0</ele><time>2026-03-28T11:08:47.999Z</time></trkpt><trkpt lat="44.77985888749303" lon="9.297214451203045"><ele>1115.75</ele><time>2026-03-28T11:08:48.999Z</time></trkpt><trkpt lat="44.77990782985137" lon="9.297386645902396"><ele>1117.5</ele><time>2026-03-28T11:08:49.999Z</time></trkpt><trkpt lat="44.77999328377519" lon="9.29752789391737"><ele>1119.25</ele><time>2026-03-28T11:08:50.999Z</time></trkpt><trkpt lat="44.78007996555353" lon="9.297668625448953"><ele>1121.0</ele><time>2026-03-28T11:08:51.999Z</time></trkpt><trkpt lat="44.78017585478382" lon="9.297797585937664"><ele>1120.25</ele><time>2026-03-28T11:08:52.999Z</time></trkpt><trkpt lat="44.78027595899611" lon="9.297915192887164"><ele>1119.5</ele><time>2026-03-28T11:08:53.999Z</time></trkpt><trkpt lat="44.78037511623101" lon="9.298009743062536"><ele>1118.75</ele><time>2026-03-28T11:08:54.999Z</time></trkpt><trkpt lat="44.78049029246412" lon="9.298045468559389"><ele>1118.0</ele><time>2026-03-28T11:08:55.999Z</time></trkpt><trkpt lat="44.78062135502986" lon="9.298028487085572"><ele>1118.0</ele><time>2026-03-28T11:08:56.999Z</time></trkpt><trkpt lat="44.78075645164476" lon="9.29799481118711"><ele>1118.0</ele><time>2026-03-28T11:08:57.999Z</time></trkpt><trkpt lat="44.78089999557688" lon="9.297970482266477"><ele>1118.0</ele><time>2026-03-28T11:08:58.999Z</time></trkpt><trkpt lat="44.78104461156537" lon="9.297956078667967"><ele>1118.0</ele><time>2026-03-28T11:08:59.999Z</time></trkpt><trkpt lat="44.781179446769414" lon="9.297953137459627"><ele>1117.8</ele><time>2026-03-28T11:09:00.999Z</time></trkpt><trkpt lat="44.78130286902409" lon="9.297964918003153"><ele>1117.6</ele><time>2026-03-28T11:09:01.999Z</time></trkpt><trkpt lat="44.78141291291261" lon="9.298008501627379"><ele>1117.4</ele><time>2026-03-28T11:09:02.999Z</time></trkpt><trkpt lat="44.781478202091364" lon="9.298063242831851"><ele>1117.2</ele><time>2026-03-28T11:09:03.999Z</time></trkpt><trkpt lat="44.78151954940299" lon="9.298159690224594"><ele>1117.0</ele><time>2026-03-28T11:09:04.999Z</time></trkpt><trkpt lat="44.78155779584089" lon="9.298260681097078"><ele>1117.0</ele><time>2026-03-28T11:09:05.999Z</time></trkpt><trkpt lat="44.781620402001124" lon="9.298363603640057"><ele>1117.0</ele><time>2026-03-28T11:09:06.999Z</time></trkpt><trkpt lat="44.7816713752031" lon="9.298476214751036"><ele>1117.0</ele><time>2026-03-28T11:09:07.999Z</time></trkpt><trkpt lat="44.78176069571112" lon="9.29855938598945"><ele>1117.0</ele><time>2026-03-28T11:09:08.999Z</time></trkpt><trkpt lat="44.78187266565517" lon="9.298572429692666"><ele>1117.0</ele><time>2026-03-28T11:09:09.999Z</time></trkpt><trkpt lat="44.78198458888726" lon="9.298563834916544"><ele>1117.0</ele><time>2026-03-28T11:09:10.999Z</time></trkpt><trkpt lat="44.78210650617307" lon="9.298541487502934"><ele>1117.0</ele><time>2026-03-28T11:09:11.999Z</time></trkpt><trkpt lat="44.78223427910648" lon="9.298530365625792"><ele>1117.0</ele><time>2026-03-28T11:09:12.999Z</time></trkpt><trkpt lat="44.78236076698791" lon="9.298527175540766"><ele>1117.0</ele><time>2026-03-28T11:09:13.999Z</time></trkpt><trkpt lat="44.782470504353206" lon="9.298551010201555"><ele>1117.0</ele><time>2026-03-28T11:09:14.999Z</time></trkpt><trkpt lat="44.782547897173465" lon="9.298604560374388"><ele>1117.0</ele><time>2026-03-28T11:09:15.999Z</time></trkpt><trkpt lat="44.78259264732895" lon="9.298705480465529"><ele>1117.0</ele><time>2026-03-28T11:09:16.999Z</time></trkpt><trkpt lat="44.78264779526596" lon="9.29883340197854"><ele>1117.0</ele><time>2026-03-28T11:09:17.999Z</time></trkpt><trkpt lat="44.78267858293786" lon="9.298989244366929"><ele>1117.0</ele><time>2026-03-28T11:09:18.999Z</time></trkpt><trkpt lat="44.78275713532285" lon="9.299127668640399"><ele>1117.5</ele><time>2026-03-28T11:09:19.999Z</time></trkpt><trkpt lat="44.78283397668632" lon="9.299274016972566"><ele>1118.0</ele><time>2026-03-28T11:09:20.999Z</time></trkpt><trkpt lat="44.782917104018566" lon="9.299419452949468"><ele>1118.5</ele><time>2026-03-28T11:09:21.999Z</time></trkpt><trkpt lat="44.78300421555676" lon="9.29955784034097"><ele>1119.0</ele><time>2026-03-28T11:09:22.999Z</time></trkpt><trkpt lat="44.78308006453918" lon="9.299670797274883"><ele>1119.0</ele><time>2026-03-28T11:09:23.999Z</time></trkpt><trkpt lat="44.78316705687309" lon="9.299760162579217"><ele>1119.0</ele><time>2026-03-28T11:09:24.999Z</time></trkpt><trkpt lat="44.78326120816141" lon="9.299783035701545"><ele>1119.0</ele><time>2026-03-28T11:09:25.999Z</time></trkpt><trkpt lat="44.78336037191219" lon="9.299769955911879"><ele>1119.0</ele><time>2026-03-28T11:09:26.999Z</time></trkpt><trkpt lat="44.78346861688894" lon="9.299743539121682"><ele>1119.0</ele><time>2026-03-28T11:09:27.999Z</time></trkpt><trkpt lat="44.783568505286595" lon="9.299687335109452"><ele>1120.4</ele><time>2026-03-28T11:09:28.999Z</time></trkpt><trkpt lat="44.783663119884444" lon="9.299582497161829"><ele>1121.8000000000002</ele><time>2026-03-28T11:09:30Z</time></trkpt><trkpt lat="44.783746967601374" lon="9.299490539312378"><ele>1123.1999999999998</ele><time>2026-03-28T11:09:31Z</time></trkpt><trkpt lat="44.783832031255265" lon="9.29947401217601"><ele>1124.6</ele><time>2026-03-28T11:09:32Z</time></trkpt><trkpt lat="44.78389340691362" lon="9.299505468502362"><ele>1126.0</ele><time>2026-03-28T11:09:33Z</time></trkpt><trkpt lat="44.78395311854185" lon="9.299567548006731"><ele>1126.0</ele><time>2026-03-28T11:09:34Z</time></trkpt><trkpt lat="44.784018811108695" lon="9.2996259284307"><ele>1126.0</ele><time>2026-03-28T11:09:35Z</time></trkpt><trkpt lat="44.78410430216094" lon="9.299613917501054"><ele>1126.0</ele><time>2026-03-28T11:09:36Z</time></trkpt><trkpt lat="44.78418193866912" lon="9.29953113428202"><ele>1126.0</ele><time>2026-03-28T11:09:37Z</time></trkpt><trkpt lat="44.78425578248772" lon="9.29943055872111"><ele>1126.0</ele><time>2026-03-28T11:09:38Z</time></trkpt><trkpt lat="44.784356065861154" lon="9.299363809227877"><ele>1126.5</ele><time>2026-03-28T11:09:39Z</time></trkpt><trkpt lat="44.78447479600657" lon="9.29933817120998"><ele>1127.0</ele><time>2026-03-28T11:09:40Z</time></trkpt><trkpt lat="44.78460156166218" lon="9.299345826373433"><ele>1127.5</ele><time>2026-03-28T11:09:41Z</time></trkpt><trkpt lat="44.784728870042464" lon="9.299397480137312"><ele>1128.0</ele><time>2026-03-28T11:09:42Z</time></trkpt><trkpt lat="44.78484929572198" lon="9.299469752893353"><ele>1128.0</ele><time>2026-03-28T11:09:43Z</time></trkpt><trkpt lat="44.78497519310095" lon="9.299538854062495"><ele>1128.0</ele><time>2026-03-28T11:09:44Z</time></trkpt><trkpt lat="44.78510195425751" lon="9.299607201507992"><ele>1128.0</ele><time>2026-03-28T11:09:45Z</time></trkpt><trkpt lat="44.78522048618323" lon="9.299680507809068"><ele>1128.0</ele><time>2026-03-28T11:09:46Z</time></trkpt><trkpt lat="44.7853396235039" lon="9.299761045678709"><ele>1129.75</ele><time>2026-03-28T11:09:47Z</time></trkpt><trkpt lat="44.78546010843481" lon="9.299845362753013"><ele>1131.5</ele><time>2026-03-28T11:09:48Z</time></trkpt><trkpt lat="44.78556678104164" lon="9.299934595194019"><ele>1133.25</ele><time>2026-03-28T11:09:49Z</time></trkpt><trkpt lat="44.78569240180814" lon="9.300011141450135"><ele>1135.0</ele><time>2026-03-28T11:09:50Z</time></trkpt><trkpt lat="44.78582463103645" lon="9.300086623283924"><ele>1135.0</ele><time>2026-03-28T11:09:51Z</time></trkpt><trkpt lat="44.785949481888686" lon="9.300169388318603"><ele>1135.0</ele><time>2026-03-28T11:09:52Z</time></trkpt><trkpt lat="44.78607973166836" lon="9.30025018644561"><ele>1135.0</ele><time>2026-03-28T11:09:53Z</time></trkpt><trkpt lat="44.78621614211579" lon="9.300339890467546"><ele>1135.0</ele><time>2026-03-28T11:09:54Z</time></trkpt><trkpt lat="44.78634250724743" lon="9.300407884515522"><ele>1134.5</ele><time>2026-03-28T11:09:55Z</time></trkpt><trkpt lat="44.7864722831771" lon="9.300473883216943"><ele>1134.0</ele><time>2026-03-28T11:09:56Z</time></trkpt><trkpt lat="44.786601856439965" lon="9.30053034962426"><ele>1133.5</ele><time>2026-03-28T11:09:57Z</time></trkpt><trkpt lat="44.78673309760367" lon="9.300581372093415"><ele>1133.0</ele><time>2026-03-28T11:09:58Z</time></trkpt><trkpt lat="44.78686577104336" lon="9.300631961512124"><ele>1134.25</ele><time>2026-03-28T11:09:59Z</time></trkpt><trkpt lat="44.787001945322054" lon="9.300671666526062"><ele>1135.5</ele><time>2026-03-28T11:10:00Z</time></trkpt><trkpt lat="44.78712547613589" lon="9.300682813182522"><ele>1136.75</ele><time>2026-03-28T11:10:01Z</time></trkpt><trkpt lat="44.787228087883264" lon="9.30062841294494"><ele>1138.0</ele><time>2026-03-28T11:10:02Z</time></trkpt><trkpt lat="44.787314191229285" lon="9.30052231496863"><ele>1138.0</ele><time>2026-03-28T11:10:03Z</time></trkpt><trkpt lat="44.78737388567447" lon="9.30037934186079"><ele>1138.0</ele><time>2026-03-28T11:10:04Z</time></trkpt><trkpt lat="44.78745365680603" lon="9.300294874035375"><ele>1138.0</ele><time>2026-03-28T11:10:05Z</time></trkpt><trkpt lat="44.78752696770344" lon="9.300280842432706"><ele>1138.0</ele><time>2026-03-28T11:10:06Z</time></trkpt><trkpt lat="44.78762613415094" lon="9.300359103304709"><ele>1138.0</ele><time>2026-03-28T11:10:08Z</time></trkpt><trkpt lat="44.78763015101628" lon="9.300459151979329"><ele>1139.8</ele><time>2026-03-28T11:10:09Z</time></trkpt><trkpt lat="44.787650963387044" lon="9.300595713587098"><ele>1141.6</ele><time>2026-03-28T11:10:10Z</time></trkpt><trkpt lat="44.78765048533107" lon="9.30074238432242"><ele>1143.4</ele><time>2026-03-28T11:10:11Z</time></trkpt><trkpt lat="44.787649725862316" lon="9.300899545648218"><ele>1145.2</ele><time>2026-03-28T11:10:12Z</time></trkpt><trkpt lat="44.787655801604174" lon="9.30105671841928"><ele>1147.0</ele><time>2026-03-28T11:10:13Z</time></trkpt><trkpt lat="44.787661402820255" lon="9.30121821051954"><ele>1147.0</ele><time>2026-03-28T11:10:14Z</time></trkpt><trkpt lat="44.78766660863837" lon="9.301376520336829"><ele>1147.0</ele><time>2026-03-28T11:10:15Z</time></trkpt><trkpt lat="44.78767068593331" lon="9.301517477176002"><ele>1147.0</ele><time>2026-03-28T11:10:16Z</time></trkpt><trkpt lat="44.78767396621352" lon="9.301657593390658"><ele>1147.0</ele><time>2026-03-28T11:10:17Z</time></trkpt><trkpt lat="44.78770610725795" lon="9.301764137176566"><ele>1147.0</ele><time>2026-03-28T11:10:18Z</time></trkpt><trkpt lat="44.78776734376066" lon="9.301823877745461"><ele>1146.4</ele><time>2026-03-28T11:10:19Z</time></trkpt><trkpt lat="44.78784761394366" lon="9.301832288312891"><ele>1145.8000000000002</ele><time>2026-03-28T11:10:20Z</time></trkpt><trkpt lat="44.78794895063991" lon="9.301789005769491"><ele>1145.2</ele><time>2026-03-28T11:10:21Z</time></trkpt><trkpt lat="44.788047372066636" lon="9.301710096496882"><ele>1144.6000000000001</ele><time>2026-03-28T11:10:22Z</time></trkpt><trkpt lat="44.78815220355517" lon="9.301639256164933"><ele>1144.0</ele><time>2026-03-28T11:10:23Z</time></trkpt><trkpt lat="44.788256680429136" lon="9.301589784390591"><ele>1144.0</ele><time>2026-03-28T11:10:24Z</time></trkpt><trkpt lat="44.78834632084458" lon="9.301581337324015"><ele>1144.0</ele><time>2026-03-28T11:10:25Z</time></trkpt><trkpt lat="44.78843301149209" lon="9.301633158166752"><ele>1144.0</ele><time>2026-03-28T11:10:26Z</time></trkpt><trkpt lat="44.788504671175566" lon="9.301679699020688"><ele>1144.0</ele><time>2026-03-28T11:10:27Z</time></trkpt><trkpt lat="44.78857417928947" lon="9.301746929058009"><ele>1144.0</ele><time>2026-03-28T11:10:28Z</time></trkpt><trkpt lat="44.78864300977722" lon="9.301823219387863"><ele>1144.0</ele><time>2026-03-28T11:10:29Z</time></trkpt><trkpt lat="44.78870659470546" lon="9.301886519621151"><ele>1142.5</ele><time>2026-03-28T11:10:30Z</time></trkpt><trkpt lat="44.78877240830686" lon="9.301912721970309"><ele>1141.0</ele><time>2026-03-28T11:10:31Z</time></trkpt><trkpt lat="44.78884392558317" lon="9.301890520405093"><ele>1139.5</ele><time>2026-03-28T11:10:32Z</time></trkpt><trkpt lat="44.78889559405516" lon="9.301795763381842"><ele>1138.0</ele><time>2026-03-28T11:10:33Z</time></trkpt><trkpt lat="44.7889213141456" lon="9.301658399767538"><ele>1136.5</ele><time>2026-03-28T11:10:34Z</time></trkpt><trkpt lat="44.78894908285159" lon="9.301501686266151"><ele>1135.0</ele><time>2026-03-28T11:10:35Z</time></trkpt><trkpt lat="44.78899468416731" lon="9.301345801658648"><ele>1135.0</ele><time>2026-03-28T11:10:36Z</time></trkpt><trkpt lat="44.789072207510095" lon="9.301210466316734"><ele>1135.0</ele><time>2026-03-28T11:10:37Z</time></trkpt><trkpt lat="44.7891605378534" lon="9.301100669296993"><ele>1135.0</ele><time>2026-03-28T11:10:37.999Z</time></trkpt><trkpt lat="44.789243917286136" lon="9.301012712695318"><ele>1135.0</ele><time>2026-03-28T11:10:38.999Z</time></trkpt><trkpt lat="44.78934128207883" lon="9.30096203252459"><ele>1135.0</ele><time>2026-03-28T11:10:39.999Z</time></trkpt><trkpt lat="44.78944756263357" lon="9.300936829282918"><ele>1134.75</ele><time>2026-03-28T11:10:40.999Z</time></trkpt><trkpt lat="44.78954496185416" lon="9.300862673157345"><ele>1134.5</ele><time>2026-03-28T11:10:41.999Z</time></trkpt><trkpt lat="44.78962508173224" lon="9.300746152907188"><ele>1134.25</ele><time>2026-03-28T11:10:42.999Z</time></trkpt><trkpt lat="44.78970266513225" lon="9.300622537589042"><ele>1134.0</ele><time>2026-03-28T11:10:43.999Z</time></trkpt><trkpt lat="44.78979931050559" lon="9.300522886496406"><ele>1134.0</ele><time>2026-03-28T11:10:44.999Z</time></trkpt><trkpt lat="44.78991012150449" lon="9.300449014003155"><ele>1134.0</ele><time>2026-03-28T11:10:45.999Z</time></trkpt><trkpt lat="44.79002416688522" lon="9.300415217288455"><ele>1134.0</ele><time>2026-03-28T11:10:46.999Z</time></trkpt><trkpt lat="44.7901306084045" lon="9.300426749375958"><ele>1134.0</ele><time>2026-03-28T11:10:47.999Z</time></trkpt><trkpt lat="44.790230502744826" lon="9.300481744394549"><ele>1134.0</ele><time>2026-03-28T11:10:48.999Z</time></trkpt><trkpt lat="44.79033031348988" lon="9.30055666137459"><ele>1134.0</ele><time>2026-03-28T11:10:49.999Z</time></trkpt><trkpt lat="44.79043225526068" lon="9.300633992333657"><ele>1134.0</ele><time>2026-03-28T11:10:50.999Z</time></trkpt><trkpt lat="44.790533052009685" lon="9.30070769075021"><ele>1134.0</ele><time>2026-03-28T11:10:51.999Z</time></trkpt><trkpt lat="44.7906573223714" lon="9.300759540800762"><ele>1135.5</ele><time>2026-03-28T11:10:52.999Z</time></trkpt><trkpt lat="44.790787747058346" lon="9.300800108034744"><ele>1137.0</ele><time>2026-03-28T11:10:53.999Z</time></trkpt><trkpt lat="44.790907826772546" lon="9.300826710507643"><ele>1138.5</ele><time>2026-03-28T11:10:54.999Z</time></trkpt><trkpt lat="44.791016571793456" lon="9.300841543278725"><ele>1140.0</ele><time>2026-03-28T11:10:55.999Z</time></trkpt><trkpt lat="44.79112271199566" lon="9.300825537756438"><ele>1140.0</ele><time>2026-03-28T11:10:56.999Z</time></trkpt><trkpt lat="44.791211289961524" lon="9.300757348974686"><ele>1140.0</ele><time>2026-03-28T11:10:57.999Z</time></trkpt><trkpt lat="44.79127591383495" lon="9.300665781229435"><ele>1140.0</ele><time>2026-03-28T11:10:58.999Z</time></trkpt><trkpt lat="44.791334753355535" lon="9.300613512537774"><ele>1140.0</ele><time>2026-03-28T11:10:59.999Z</time></trkpt><trkpt lat="44.79143533235346" lon="9.30068663727315"><ele>1140.0</ele><time>2026-03-28T11:11:01.999Z</time></trkpt><trkpt lat="44.79147322438665" lon="9.300776597719812"><ele>1140.0</ele><time>2026-03-28T11:11:02.999Z</time></trkpt><trkpt lat="44.791475783984225" lon="9.300897684606396"><ele>1140.0</ele><time>2026-03-28T11:11:03.999Z</time></trkpt><trkpt lat="44.79142842798891" lon="9.301018543726299"><ele>1140.0</ele><time>2026-03-28T11:11:04.999Z</time></trkpt><trkpt lat="44.791367832735794" lon="9.301145428720226"><ele>1140.0</ele><time>2026-03-28T11:11:05.999Z</time></trkpt><trkpt lat="44.79130291695236" lon="9.301291750794297"><ele>1140.0</ele><time>2026-03-28T11:11:06.999Z</time></trkpt><trkpt lat="44.79125719811023" lon="9.30147107917008"><ele>1138.0</ele><time>2026-03-28T11:11:07.999Z</time></trkpt><trkpt lat="44.791236030612446" lon="9.301662476602848"><ele>1136.0</ele><time>2026-03-28T11:11:08.999Z</time></trkpt><trkpt lat="44.79120819649206" lon="9.30183111939253"><ele>1134.0</ele><time>2026-03-28T11:11:09.999Z</time></trkpt><trkpt lat="44.79116341453614" lon="9.301975551337497"><ele>1132.0</ele><time>2026-03-28T11:11:10.999Z</time></trkpt><trkpt lat="44.79109567514582" lon="9.302120306398583"><ele>1132.0</ele><time>2026-03-28T11:11:11.999Z</time></trkpt><trkpt lat="44.79101006274443" lon="9.302234776371618"><ele>1132.0</ele><time>2026-03-28T11:11:12.999Z</time></trkpt><trkpt lat="44.79091917338957" lon="9.302346054272679"><ele>1132.0</ele><time>2026-03-28T11:11:13.999Z</time></trkpt><trkpt lat="44.790839473848294" lon="9.302455340205524"><ele>1132.0</ele><time>2026-03-28T11:11:14.999Z</time></trkpt><trkpt lat="44.790790730903794" lon="9.302573304668469"><ele>1132.0</ele><time>2026-03-28T11:11:15.999Z</time></trkpt><trkpt lat="44.790743593872236" lon="9.302702683397825"><ele>1133.6</ele><time>2026-03-28T11:11:16.999Z</time></trkpt><trkpt lat="44.79070881189931" lon="9.302861360420582"><ele>1135.2</ele><time>2026-03-28T11:11:17.999Z</time></trkpt><trkpt lat="44.79067861569658" lon="9.303021036321267"><ele>1136.8</ele><time>2026-03-28T11:11:18.999Z</time></trkpt><trkpt lat="44.79064899522841" lon="9.30316398486063"><ele>1138.4</ele><time>2026-03-28T11:11:19.999Z</time></trkpt><trkpt lat="44.790599785978834" lon="9.303297063008149"><ele>1140.0</ele><time>2026-03-28T11:11:20.999Z</time></trkpt><trkpt lat="44.790555490788485" lon="9.303419777955472"><ele>1140.0</ele><time>2026-03-28T11:11:21.999Z</time></trkpt><trkpt lat="44.790509324543805" lon="9.303560167415746"><ele>1140.0</ele><time>2026-03-28T11:11:22.999Z</time></trkpt><trkpt lat="44.79043544621041" lon="9.303684107492087"><ele>1140.0</ele><time>2026-03-28T11:11:23.999Z</time></trkpt><trkpt lat="44.790353512914585" lon="9.303815958213185"><ele>1140.0</ele><time>2026-03-28T11:11:24.999Z</time></trkpt><trkpt lat="44.790273461833664" lon="9.303928003921277"><ele>1138.75</ele><time>2026-03-28T11:11:25.999Z</time></trkpt><trkpt lat="44.79022243001271" lon="9.30407799427181"><ele>1137.5</ele><time>2026-03-28T11:11:26.999Z</time></trkpt><trkpt lat="44.790187523191754" lon="9.30422551076024"><ele>1136.25</ele><time>2026-03-28T11:11:27.999Z</time></trkpt><trkpt lat="44.79016945263145" lon="9.304391773469586"><ele>1135.0</ele><time>2026-03-28T11:11:28.999Z</time></trkpt><trkpt lat="44.790180385395075" lon="9.304559212384683"><ele>1135.0</ele><time>2026-03-28T11:11:29.999Z</time></trkpt><trkpt lat="44.79020128480906" lon="9.304710332109021"><ele>1135.0</ele><time>2026-03-28T11:11:30.999Z</time></trkpt><trkpt lat="44.79022492296343" lon="9.304866695862701"><ele>1135.0</ele><time>2026-03-28T11:11:31.999Z</time></trkpt><trkpt lat="44.79025269999724" lon="9.305024973830472"><ele>1135.0</ele><time>2026-03-28T11:11:32.999Z</time></trkpt><trkpt lat="44.79028100456452" lon="9.3051685005457"><ele>1135.0</ele><time>2026-03-28T11:11:33.999Z</time></trkpt><trkpt lat="44.79033730053883" lon="9.305284973800338"><ele>1136.8</ele><time>2026-03-28T11:11:34.999Z</time></trkpt><trkpt lat="44.79042156909327" lon="9.305347728982"><ele>1138.6</ele><time>2026-03-28T11:11:36Z</time></trkpt><trkpt lat="44.79053936775448" lon="9.305302094682574"><ele>1140.4</ele><time>2026-03-28T11:11:37Z</time></trkpt><trkpt lat="44.79064645688945" lon="9.305234863686298"><ele>1142.2</ele><time>2026-03-28T11:11:38Z</time></trkpt><trkpt lat="44.790736663221075" lon="9.305220050761058"><ele>1144.0</ele><time>2026-03-28T11:11:39Z</time></trkpt><trkpt lat="44.790841301213156" lon="9.30522576217621"><ele>1144.0</ele><time>2026-03-28T11:11:40Z</time></trkpt><trkpt lat="44.79093396942346" lon="9.305331775165362"><ele>1144.0</ele><time>2026-03-28T11:11:41Z</time></trkpt><trkpt lat="44.79104237637779" lon="9.305441583523994"><ele>1144.0</ele><time>2026-03-28T11:11:42Z</time></trkpt><trkpt lat="44.791154847701954" lon="9.305571813025074"><ele>1144.0</ele><time>2026-03-28T11:11:43Z</time></trkpt><trkpt lat="44.79127020523245" lon="9.305716763627824"><ele>1142.0</ele><time>2026-03-28T11:11:44Z</time></trkpt><trkpt lat="44.79138553738044" lon="9.305862326101362"><ele>1140.0</ele><time>2026-03-28T11:11:45Z</time></trkpt><trkpt lat="44.79150636197515" lon="9.306013506989194"><ele>1138.0</ele><time>2026-03-28T11:11:46Z</time></trkpt><trkpt lat="44.79162920040229" lon="9.306165654975338"><ele>1138.0</ele><time>2026-03-28T11:11:47Z</time></trkpt><trkpt lat="44.791748838611895" lon="9.30631410410427"><ele>1138.0</ele><time>2026-03-28T11:11:48Z</time></trkpt><trkpt lat="44.7918558777059" lon="9.306453991527226"><ele>1138.0</ele><time>2026-03-28T11:11:49Z</time></trkpt><trkpt lat="44.79195733246299" lon="9.306591000962758"><ele>1138.0</ele><time>2026-03-28T11:11:50Z</time></trkpt><trkpt lat="44.79205029759696" lon="9.306707578382042"><ele>1138.5</ele><time>2026-03-28T11:11:51Z</time></trkpt><trkpt lat="44.792146925739424" lon="9.306783774635829"><ele>1139.0</ele><time>2026-03-28T11:11:52Z</time></trkpt><trkpt lat="44.792234612600026" lon="9.306867024243195"><ele>1139.5</ele><time>2026-03-28T11:11:53Z</time></trkpt><trkpt lat="44.79235115363109" lon="9.306855414649984"><ele>1140.0</ele><time>2026-03-28T11:11:54Z</time></trkpt><trkpt lat="44.79246786776422" lon="9.30683069840546"><ele>1140.0</ele><time>2026-03-28T11:11:55Z</time></trkpt><trkpt lat="44.792582188608755" lon="9.306781344274828"><ele>1140.0</ele><time>2026-03-28T11:11:56Z</time></trkpt><trkpt lat="44.79267949154669" lon="9.306749845614412"><ele>1140.0</ele><time>2026-03-28T11:11:57Z</time></trkpt><trkpt lat="44.792757760079574" lon="9.306722411477988"><ele>1140.0</ele><time>2026-03-28T11:11:58Z</time></trkpt><trkpt lat="44.79287526240629" lon="9.306770834438602"><ele>1140.0</ele><time>2026-03-28T11:12:00Z</time></trkpt><trkpt lat="44.7928878858719" lon="9.306861226442754"><ele>1136.8</ele><time>2026-03-28T11:12:01Z</time></trkpt><trkpt lat="44.792873235780675" lon="9.307031059745027"><ele>1133.6</ele><time>2026-03-28T11:12:03Z</time></trkpt><trkpt lat="44.792843279644465" lon="9.307130331969205"><ele>1130.4</ele><time>2026-03-28T11:12:04Z</time></trkpt><trkpt lat="44.79279952607059" lon="9.307234758126556"><ele>1127.2</ele><time>2026-03-28T11:12:05Z</time></trkpt><trkpt lat="44.79273892724955" lon="9.307345800842619"><ele>1124.0</ele><time>2026-03-28T11:12:06Z</time></trkpt><trkpt lat="44.79268495883516" lon="9.307464255180168"><ele>1124.0</ele><time>2026-03-28T11:12:07Z</time></trkpt><trkpt lat="44.79265397268252" lon="9.307588556225488"><ele>1124.0</ele><time>2026-03-28T11:12:08Z</time></trkpt><trkpt lat="44.79267029451109" lon="9.307725635985822"><ele>1124.0</ele><time>2026-03-28T11:12:09Z</time></trkpt><trkpt lat="44.7927113232425" lon="9.307862928293698"><ele>1124.0</ele><time>2026-03-28T11:12:10Z</time></trkpt><trkpt lat="44.79276024486902" lon="9.30800120852458"><ele>1124.0</ele><time>2026-03-28T11:12:11Z</time></trkpt><trkpt lat="44.79280757266257" lon="9.308143302166346"><ele>1126.5</ele><time>2026-03-28T11:12:12Z</time></trkpt><trkpt lat="44.79285770839905" lon="9.308298568506753"><ele>1129.0</ele><time>2026-03-28T11:12:13Z</time></trkpt><trkpt lat="44.792924086871146" lon="9.308445697929129"><ele>1131.5</ele><time>2026-03-28T11:12:14Z</time></trkpt><trkpt lat="44.793025316804815" lon="9.308556545705422"><ele>1134.0</ele><time>2026-03-28T11:12:15Z</time></trkpt><trkpt lat="44.79310240617073" lon="9.30868657785463"><ele>1134.0</ele><time>2026-03-28T11:12:16Z</time></trkpt><trkpt lat="44.79316829271059" lon="9.30879426916796"><ele>1134.0</ele><time>2026-03-28T11:12:17Z</time></trkpt><trkpt lat="44.79322613414329" lon="9.308893834049668"><ele>1134.0</ele><time>2026-03-28T11:12:18Z</time></trkpt><trkpt lat="44.793287972091825" lon="9.308985352523099"><ele>1134.0</ele><time>2026-03-28T11:12:19Z</time></trkpt><trkpt lat="44.793383027650265" lon="9.309055151573585"><ele>1134.0</ele><time>2026-03-28T11:12:20Z</time></trkpt><trkpt lat="44.7935065258668" lon="9.309041294730608"><ele>1132.8</ele><time>2026-03-28T11:12:21Z</time></trkpt><trkpt lat="44.793615792992526" lon="9.309071457474813"><ele>1131.6000000000001</ele><time>2026-03-28T11:12:22Z</time></trkpt><trkpt lat="44.79368217489863" lon="9.309143582397306"><ele>1130.4</ele><time>2026-03-28T11:12:23Z</time></trkpt><trkpt lat="44.79371469905065" lon="9.309256082250087"><ele>1129.2</ele><time>2026-03-28T11:12:24Z</time></trkpt><trkpt lat="44.79368321553679" lon="9.309390736327668"><ele>1128.0</ele><time>2026-03-28T11:12:25Z</time></trkpt><trkpt lat="44.79368437538842" lon="9.30953072978095"><ele>1128.0</ele><time>2026-03-28T11:12:26Z</time></trkpt><trkpt lat="44.79368947276796" lon="9.309680526765527"><ele>1128.0</ele><time>2026-03-28T11:12:27Z</time></trkpt><trkpt lat="44.79373628645742" lon="9.309849555641021"><ele>1128.0</ele><time>2026-03-28T11:12:28Z</time></trkpt><trkpt lat="44.793816286992" lon="9.309997892426042"><ele>1128.0</ele><time>2026-03-28T11:12:29Z</time></trkpt><trkpt lat="44.793885527826376" lon="9.310155640872194"><ele>1129.5</ele><time>2026-03-28T11:12:30Z</time></trkpt><trkpt lat="44.793979268862586" lon="9.310307035796754"><ele>1131.0</ele><time>2026-03-28T11:12:31Z</time></trkpt><trkpt lat="44.79409006496057" lon="9.310449626702246"><ele>1132.5</ele><time>2026-03-28T11:12:32Z</time></trkpt><trkpt lat="44.79418077846313" lon="9.310591840792247"><ele>1134.0</ele><time>2026-03-28T11:12:33Z</time></trkpt><trkpt lat="44.794263726755716" lon="9.31072024489821"><ele>1134.5</ele><time>2026-03-28T11:12:34Z</time></trkpt><trkpt lat="44.79432708244198" lon="9.310849649931292"><ele>1135.0</ele><time>2026-03-28T11:12:35Z</time></trkpt><trkpt lat="44.79436096577107" lon="9.310964643083727"><ele>1135.5</ele><time>2026-03-28T11:12:36Z</time></trkpt><trkpt lat="44.79435483275226" lon="9.311090972976208"><ele>1136.0</ele><time>2026-03-28T11:12:37Z</time></trkpt><trkpt lat="44.79433626936536" lon="9.311190614568314"><ele>1136.5</ele><time>2026-03-28T11:12:38Z</time></trkpt><trkpt lat="44.79430879811537" lon="9.31129146791641"><ele>1137.0</ele><time>2026-03-28T11:12:39Z</time></trkpt><trkpt lat="44.79431599893136" lon="9.311383012831971"><ele>1137.0</ele><time>2026-03-28T11:12:40Z</time></trkpt><trkpt lat="44.79436748346248" lon="9.31144679804532"><ele>1137.0</ele><time>2026-03-28T11:12:41Z</time></trkpt><trkpt lat="44.79443693651415" lon="9.311463461581472"><ele>1137.0</ele><time>2026-03-28T11:12:41.999Z</time></trkpt><trkpt lat="44.794511187576006" lon="9.311433268790745"><ele>1137.0</ele><time>2026-03-28T11:12:42.999Z</time></trkpt><trkpt lat="44.794594677518454" lon="9.311369292785548"><ele>1137.0</ele><time>2026-03-28T11:12:43.999Z</time></trkpt><trkpt lat="44.794684136974084" lon="9.311289713693625"><ele>1137.0</ele><time>2026-03-28T11:12:44.999Z</time></trkpt><trkpt lat="44.79477893579299" lon="9.311189490108351"><ele>1137.0</ele><time>2026-03-28T11:12:45.999Z</time></trkpt><trkpt lat="44.794877390220854" lon="9.311075060295531"><ele>1137.0</ele><time>2026-03-28T11:12:46.999Z</time></trkpt><trkpt lat="44.794977273216624" lon="9.310953625947032"><ele>1137.0</ele><time>2026-03-28T11:12:47.999Z</time></trkpt><trkpt lat="44.79507034815706" lon="9.310833983342098"><ele>1137.0</ele><time>2026-03-28T11:12:48.999Z</time></trkpt><trkpt lat="44.795161003137366" lon="9.310726820151377"><ele>1134.75</ele><time>2026-03-28T11:12:49.999Z</time></trkpt><trkpt lat="44.79526154676732" lon="9.310639922877531"><ele>1132.5</ele><time>2026-03-28T11:12:50.999Z</time></trkpt><trkpt lat="44.795368689329806" lon="9.310556019922744"><ele>1130.25</ele><time>2026-03-28T11:12:51.999Z</time></trkpt><trkpt lat="44.79547540105943" lon="9.31045535271337"><ele>1128.0</ele><time>2026-03-28T11:12:52.999Z</time></trkpt><trkpt lat="44.79557793733651" lon="9.310345179239052"><ele>1128.0</ele><time>2026-03-28T11:12:53.999Z</time></trkpt><trkpt lat="44.79567662699433" lon="9.31023779760798"><ele>1128.0</ele><time>2026-03-28T11:12:54.999Z</time></trkpt><trkpt lat="44.795794159612555" lon="9.310157124030358"><ele>1128.0</ele><time>2026-03-28T11:12:55.999Z</time></trkpt><trkpt lat="44.795921858889876" lon="9.31010347226804"><ele>1128.0</ele><time>2026-03-28T11:12:56.999Z</time></trkpt><trkpt lat="44.79604888325021" lon="9.310061637833273"><ele>1129.0</ele><time>2026-03-28T11:12:57.999Z</time></trkpt><trkpt lat="44.79618177269576" lon="9.310026549700227"><ele>1130.0</ele><time>2026-03-28T11:12:58.999Z</time></trkpt><trkpt lat="44.79631961793942" lon="9.310001450413434"><ele>1131.0</ele><time>2026-03-28T11:12:59.999Z</time></trkpt><trkpt lat="44.79646108511266" lon="9.309998484484234"><ele>1132.0</ele><time>2026-03-28T11:13:00.999Z</time></trkpt><trkpt lat="44.79660631872283" lon="9.31001484628417"><ele>1132.0</ele><time>2026-03-28T11:13:01.999Z</time></trkpt><trkpt lat="44.796750420159654" lon="9.310025397671026"><ele>1132.0</ele><time>2026-03-28T11:13:02.999Z</time></trkpt><trkpt lat="44.79689212287519" lon="9.310031232147265"><ele>1132.0</ele><time>2026-03-28T11:13:03.999Z</time></trkpt><trkpt lat="44.79702830732578" lon="9.310028842956473"><ele>1132.0</ele><time>2026-03-28T11:13:04.999Z</time></trkpt><trkpt lat="44.7971502890457" lon="9.310036148127482"><ele>1130.25</ele><time>2026-03-28T11:13:05.999Z</time></trkpt><trkpt lat="44.79727499658852" lon="9.310059894313147"><ele>1128.5</ele><time>2026-03-28T11:13:06.999Z</time></trkpt><trkpt lat="44.797405963096374" lon="9.310104712369164"><ele>1126.75</ele><time>2026-03-28T11:13:07.999Z</time></trkpt><trkpt lat="44.79753863681683" lon="9.310169736996748"><ele>1125.0</ele><time>2026-03-28T11:13:08.999Z</time></trkpt><trkpt lat="44.79767133691568" lon="9.310247628240633"><ele>1120.0</ele><time>2026-03-28T11:13:09.999Z</time></trkpt><trkpt lat="44.797804052483414" lon="9.310344148511888"><ele>1115.0</ele><time>2026-03-28T11:13:10.999Z</time></trkpt><trkpt lat="44.79793732123653" lon="9.310446490984685"><ele>1110.0</ele><time>2026-03-28T11:13:11.999Z</time></trkpt><trkpt lat="44.798075740493275" lon="9.310536551809248"><ele>1113.0</ele><time>2026-03-28T11:13:12.999Z</time></trkpt><trkpt lat="44.79822130804317" lon="9.310595198410917"><ele>1116.0</ele><time>2026-03-28T11:13:13.999Z</time></trkpt><trkpt lat="44.79836529362753" lon="9.310630982485158"><ele>1119.0</ele><time>2026-03-28T11:13:14.999Z</time></trkpt><trkpt lat="44.79849747905263" lon="9.310673219479295"><ele>1122.0</ele><time>2026-03-28T11:13:15.999Z</time></trkpt><trkpt lat="44.7986314141876" lon="9.310729423523927"><ele>1122.0</ele><time>2026-03-28T11:13:16.999Z</time></trkpt><trkpt lat="44.79875325442619" lon="9.310807332273654"><ele>1122.0</ele><time>2026-03-28T11:13:17.999Z</time></trkpt><trkpt lat="44.798877531014156" lon="9.310874432975622"><ele>1122.0</ele><time>2026-03-28T11:13:18.999Z</time></trkpt><trkpt lat="44.79901101451218" lon="9.31089765160366"><ele>1122.0</ele><time>2026-03-28T11:13:19.999Z</time></trkpt><trkpt lat="44.79914772444805" lon="9.310891041078927"><ele>1122.0</ele><time>2026-03-28T11:13:20.999Z</time></trkpt><trkpt lat="44.79927883701448" lon="9.310868969713539"><ele>1122.0</ele><time>2026-03-28T11:13:21.999Z</time></trkpt><trkpt lat="44.799402509325596" lon="9.31091082506512"><ele>1122.0</ele><time>2026-03-28T11:13:22.999Z</time></trkpt><trkpt lat="44.79949821307407" lon="9.311002636187531"><ele>1122.0</ele><time>2026-03-28T11:13:23.999Z</time></trkpt><trkpt lat="44.799580909901884" lon="9.311122960487475"><ele>1119.75</ele><time>2026-03-28T11:13:24.999Z</time></trkpt><trkpt lat="44.799641251755375" lon="9.311270873796557"><ele>1117.5</ele><time>2026-03-28T11:13:25.999Z</time></trkpt><trkpt lat="44.799682416796735" lon="9.31144094116134"><ele>1115.25</ele><time>2026-03-28T11:13:26.999Z</time></trkpt><trkpt lat="44.79971465416278" lon="9.311616267349088"><ele>1113.0</ele><time>2026-03-28T11:13:27.999Z</time></trkpt><trkpt lat="44.799756588452006" lon="9.31178381322968"><ele>1113.0</ele><time>2026-03-28T11:13:28.999Z</time></trkpt><trkpt lat="44.79982017268734" lon="9.311929998685677"><ele>1113.0</ele><time>2026-03-28T11:13:29.999Z</time></trkpt><trkpt lat="44.79991845687847" lon="9.312057288968303"><ele>1113.0</ele><time>2026-03-28T11:13:30.999Z</time></trkpt><trkpt lat="44.80002885604129" lon="9.312161416274204"><ele>1113.0</ele><time>2026-03-28T11:13:31.999Z</time></trkpt><trkpt lat="44.800128190075235" lon="9.312271393580009"><ele>1110.25</ele><time>2026-03-28T11:13:32.999Z</time></trkpt><trkpt lat="44.800221155670705" lon="9.312406589136938"><ele>1107.5</ele><time>2026-03-28T11:13:33.999Z</time></trkpt><trkpt lat="44.8003069626094" lon="9.312536952162525"><ele>1104.75</ele><time>2026-03-28T11:13:34.999Z</time></trkpt><trkpt lat="44.80037934078917" lon="9.312672661684143"><ele>1102.0</ele><time>2026-03-28T11:13:35.999Z</time></trkpt><trkpt lat="44.80044546885273" lon="9.31279800349109"><ele>1102.0</ele><time>2026-03-28T11:13:36.999Z</time></trkpt><trkpt lat="44.80049796058614" lon="9.31291705402861"><ele>1102.0</ele><time>2026-03-28T11:13:37.999Z</time></trkpt><trkpt lat="44.800546486336984" lon="9.313024376370974"><ele>1102.0</ele><time>2026-03-28T11:13:38.999Z</time></trkpt><trkpt lat="44.80059479758341" lon="9.313125364190583"><ele>1102.0</ele><time>2026-03-28T11:13:39.999Z</time></trkpt><trkpt lat="44.80063272009222" lon="9.313212911641024"><ele>1102.0</ele><time>2026-03-28T11:13:40.999Z</time></trkpt><trkpt lat="44.800662211345816" lon="9.31329867121078"><ele>1102.0</ele><time>2026-03-28T11:13:42Z</time></trkpt><trkpt lat="44.800697024352594" lon="9.313454976321811"><ele>1103.0</ele><time>2026-03-28T11:13:44Z</time></trkpt><trkpt lat="44.800719186079434" lon="9.313544073105227"><ele>1104.0</ele><time>2026-03-28T11:13:46Z</time></trkpt><trkpt lat="44.80057008328232" lon="9.313616784545024"><ele>1105.0</ele><time>2026-03-28T11:13:47Z</time></trkpt><trkpt lat="44.800502771431255" lon="9.313700026747709"><ele>1106.0</ele><time>2026-03-28T11:13:48Z</time></trkpt><trkpt lat="44.80041985136967" lon="9.313776534340734"><ele>1107.0</ele><time>2026-03-28T11:13:49Z</time></trkpt><trkpt lat="44.80034691070114" lon="9.31390055058291"><ele>1106.6</ele><time>2026-03-28T11:13:50Z</time></trkpt><trkpt lat="44.800287392539275" lon="9.314018530812046"><ele>1106.2</ele><time>2026-03-28T11:13:51Z</time></trkpt><trkpt lat="44.80024750905686" lon="9.314167709553317"><ele>1105.8</ele><time>2026-03-28T11:13:52Z</time></trkpt><trkpt lat="44.80022293956393" lon="9.314311276132646"><ele>1105.4</ele><time>2026-03-28T11:13:53Z</time></trkpt><trkpt lat="44.8002152695672" lon="9.314443511540468"><ele>1105.0</ele><time>2026-03-28T11:13:54Z</time></trkpt><trkpt lat="44.80021911881975" lon="9.31458046970373"><ele>1105.0</ele><time>2026-03-28T11:13:55Z</time></trkpt><trkpt lat="44.800184281759655" lon="9.314704372233114"><ele>1105.0</ele><time>2026-03-28T11:13:56Z</time></trkpt><trkpt lat="44.800130044082444" lon="9.314801037687788"><ele>1105.0</ele><time>2026-03-28T11:13:57Z</time></trkpt><trkpt lat="44.80005261143306" lon="9.314895048010039"><ele>1105.0</ele><time>2026-03-28T11:13:58Z</time></trkpt><trkpt lat="44.79997314399179" lon="9.315008881562983"><ele>1105.0</ele><time>2026-03-28T11:13:59Z</time></trkpt><trkpt lat="44.799893748672986" lon="9.315136053691077"><ele>1107.75</ele><time>2026-03-28T11:14:00Z</time></trkpt><trkpt lat="44.79988403340572" lon="9.315318911363434"><ele>1110.5</ele><time>2026-03-28T11:14:01Z</time></trkpt><trkpt lat="44.799872220291284" lon="9.315507411416634"><ele>1113.25</ele><time>2026-03-28T11:14:02Z</time></trkpt><trkpt lat="44.799853199271986" lon="9.315695552306309"><ele>1116.0</ele><time>2026-03-28T11:14:03Z</time></trkpt><trkpt lat="44.79982903554562" lon="9.315882385498176"><ele>1116.0</ele><time>2026-03-28T11:14:04Z</time></trkpt><trkpt lat="44.79979661750919" lon="9.316049296880417"><ele>1116.0</ele><time>2026-03-28T11:14:05Z</time></trkpt><trkpt lat="44.799747127112305" lon="9.316215442923449"><ele>1116.0</ele><time>2026-03-28T11:14:06Z</time></trkpt><trkpt lat="44.799690298546075" lon="9.316384664209714"><ele>1116.0</ele><time>2026-03-28T11:14:07Z</time></trkpt><trkpt lat="44.79962762883031" lon="9.316542598451006"><ele>1115.0</ele><time>2026-03-28T11:14:08Z</time></trkpt><trkpt lat="44.79958169071988" lon="9.316728007323057"><ele>1114.0</ele><time>2026-03-28T11:14:09Z</time></trkpt><trkpt lat="44.79956945545176" lon="9.316939056663262"><ele>1113.0</ele><time>2026-03-28T11:14:10Z</time></trkpt><trkpt lat="44.79961588013295" lon="9.317116666222871"><ele>1112.0</ele><time>2026-03-28T11:14:11Z</time></trkpt><trkpt lat="44.79966826085945" lon="9.317292205212874"><ele>1112.0</ele><time>2026-03-28T11:14:12Z</time></trkpt><trkpt lat="44.7997297200533" lon="9.317478961555413"><ele>1112.0</ele><time>2026-03-28T11:14:13Z</time></trkpt><trkpt lat="44.79971797432342" lon="9.317678841698203"><ele>1112.0</ele><time>2026-03-28T11:14:14Z</time></trkpt><trkpt lat="44.79970998500503" lon="9.317884990874346"><ele>1112.0</ele><time>2026-03-28T11:14:15Z</time></trkpt><trkpt lat="44.79969858075206" lon="9.318088466586325"><ele>1111.75</ele><time>2026-03-28T11:14:16Z</time></trkpt><trkpt lat="44.79968634188404" lon="9.31826821224928"><ele>1111.5</ele><time>2026-03-28T11:14:17Z</time></trkpt><trkpt lat="44.79965498142158" lon="9.318432215841613"><ele>1111.25</ele><time>2026-03-28T11:14:18Z</time></trkpt><trkpt lat="44.79959198028146" lon="9.318556358637965"><ele>1111.0</ele><time>2026-03-28T11:14:19Z</time></trkpt><trkpt lat="44.79949780082011" lon="9.318644736487332"><ele>1111.0</ele><time>2026-03-28T11:14:20Z</time></trkpt><trkpt lat="44.799389683657274" lon="9.31874562201267"><ele>1111.0</ele><time>2026-03-28T11:14:21Z</time></trkpt><trkpt lat="44.79928046616334" lon="9.318851768131935"><ele>1111.0</ele><time>2026-03-28T11:14:22Z</time></trkpt><trkpt lat="44.799168727305016" lon="9.318975799708136"><ele>1111.0</ele><time>2026-03-28T11:14:23Z</time></trkpt><trkpt lat="44.79908368034986" lon="9.319129065089045"><ele>1114.2</ele><time>2026-03-28T11:14:24Z</time></trkpt><trkpt lat="44.79899543785013" lon="9.319227284600132"><ele>1117.3999999999999</ele><time>2026-03-28T11:14:25Z</time></trkpt><trkpt lat="44.7989129899087" lon="9.319334931025258"><ele>1120.6</ele><time>2026-03-28T11:14:26Z</time></trkpt><trkpt lat="44.798808940711545" lon="9.319378385212032"><ele>1123.8</ele><time>2026-03-28T11:14:27Z</time></trkpt><trkpt lat="44.798704166101004" lon="9.319411356720595"><ele>1127.0</ele><time>2026-03-28T11:14:28Z</time></trkpt><trkpt lat="44.798590794651005" lon="9.319446551001839"><ele>1131.2</ele><time>2026-03-28T11:14:29Z</time></trkpt><trkpt lat="44.79849654245338" lon="9.319477231482779"><ele>1135.4</ele><time>2026-03-28T11:14:30Z</time></trkpt><trkpt lat="44.79839480281142" lon="9.319533617681266"><ele>1139.6</ele><time>2026-03-28T11:14:31Z</time></trkpt><trkpt lat="44.798318824596" lon="9.319625650619793"><ele>1143.8</ele><time>2026-03-28T11:14:32Z</time></trkpt><trkpt lat="44.7982848053281" lon="9.319730621311066"><ele>1148.0</ele><time>2026-03-28T11:14:33Z</time></trkpt><trkpt lat="44.798278949030546" lon="9.31982191869308"><ele>1148.0</ele><time>2026-03-28T11:14:34Z</time></trkpt><trkpt lat="44.79830690987663" lon="9.319905281792847"><ele>1148.0</ele><time>2026-03-28T11:14:35Z</time></trkpt><trkpt lat="44.79837364082194" lon="9.31997562481921"><ele>1148.0</ele><time>2026-03-28T11:14:36Z</time></trkpt><trkpt lat="44.79846620754077" lon="9.320027164364664"><ele>1148.0</ele><time>2026-03-28T11:14:37Z</time></trkpt><trkpt lat="44.798572670388026" lon="9.320097911277594"><ele>1148.0</ele><time>2026-03-28T11:14:38Z</time></trkpt><trkpt lat="44.79869285201456" lon="9.320181514934044"><ele>1142.0</ele><time>2026-03-28T11:14:39Z</time></trkpt><trkpt lat="44.79880894656466" lon="9.320266779865019"><ele>1136.0</ele><time>2026-03-28T11:14:40Z</time></trkpt><trkpt lat="44.79891129051343" lon="9.320348726963934"><ele>1130.0</ele><time>2026-03-28T11:14:40.999Z</time></trkpt><trkpt lat="44.798994085935966" lon="9.320433516483265"><ele>1124.0</ele><time>2026-03-28T11:14:41.999Z</time></trkpt><trkpt lat="44.79904893804159" lon="9.320551812516845"><ele>1124.2</ele><time>2026-03-28T11:14:42.999Z</time></trkpt><trkpt lat="44.79906587205481" lon="9.32070456024983"><ele>1124.4</ele><time>2026-03-28T11:14:43.999Z</time></trkpt><trkpt lat="44.79907740740156" lon="9.320872763292535"><ele>1124.6</ele><time>2026-03-28T11:14:44.999Z</time></trkpt><trkpt lat="44.79908324359072" lon="9.32101467066952"><ele>1124.8</ele><time>2026-03-28T11:14:45.999Z</time></trkpt><trkpt lat="44.79905780853518" lon="9.321124938042146"><ele>1125.0</ele><time>2026-03-28T11:14:46.999Z</time></trkpt><trkpt lat="44.79897998433369" lon="9.321156796763159"><ele>1125.0</ele><time>2026-03-28T11:14:47.999Z</time></trkpt><trkpt lat="44.798894837963886" lon="9.321193298979587"><ele>1125.0</ele><time>2026-03-28T11:14:48.999Z</time></trkpt><trkpt lat="44.79878928850549" lon="9.321241807090942"><ele>1125.0</ele><time>2026-03-28T11:14:49.999Z</time></trkpt><trkpt lat="44.798683677945114" lon="9.32135807602114"><ele>1125.0</ele><time>2026-03-28T11:14:50.999Z</time></trkpt><trkpt lat="44.798559947258475" lon="9.321478788474273"><ele>1129.25</ele><time>2026-03-28T11:14:51.999Z</time></trkpt><trkpt lat="44.79844261313029" lon="9.32162036618255"><ele>1133.5</ele><time>2026-03-28T11:14:52.999Z</time></trkpt><trkpt lat="44.79833155085967" lon="9.321766353076375"><ele>1137.75</ele><time>2026-03-28T11:14:53.999Z</time></trkpt><trkpt lat="44.79824934632219" lon="9.321929804830482"><ele>1142.0</ele><time>2026-03-28T11:14:54.999Z</time></trkpt><trkpt lat="44.798138206477404" lon="9.322059699900306"><ele>1142.0</ele><time>2026-03-28T11:14:55.999Z</time></trkpt><trkpt lat="44.79801623850525" lon="9.322162731037883"><ele>1142.0</ele><time>2026-03-28T11:14:56.999Z</time></trkpt><trkpt lat="44.79789025385173" lon="9.322232236003133"><ele>1142.0</ele><time>2026-03-28T11:14:57.999Z</time></trkpt><trkpt lat="44.79777837320444" lon="9.32230375376505"><ele>1142.0</ele><time>2026-03-28T11:14:58.999Z</time></trkpt><trkpt lat="44.79767555816751" lon="9.322366972859182"><ele>1142.4</ele><time>2026-03-28T11:14:59.999Z</time></trkpt><trkpt lat="44.797568154732424" lon="9.322351328693902"><ele>1142.8000000000002</ele><time>2026-03-28T11:15:00.999Z</time></trkpt><trkpt lat="44.79748851308519" lon="9.322336850442303"><ele>1143.2</ele><time>2026-03-28T11:15:01.999Z</time></trkpt><trkpt lat="44.79736919344156" lon="9.322399878160914"><ele>1143.6000000000001</ele><time>2026-03-28T11:15:02.999Z</time></trkpt><trkpt lat="44.797310314352146" lon="9.322515311347356"><ele>1144.0</ele><time>2026-03-28T11:15:03.999Z</time></trkpt><trkpt lat="44.79729814415064" lon="9.3226869949671"><ele>1144.0</ele><time>2026-03-28T11:15:04.999Z</time></trkpt><trkpt lat="44.797288928970914" lon="9.322865571917964"><ele>1144.0</ele><time>2026-03-28T11:15:05.999Z</time></trkpt><trkpt lat="44.79728504009595" lon="9.323058360642069"><ele>1144.0</ele><time>2026-03-28T11:15:06.999Z</time></trkpt><trkpt lat="44.79727854703063" lon="9.323223597732685"><ele>1144.0</ele><time>2026-03-28T11:15:07.999Z</time></trkpt><trkpt lat="44.797280749177354" lon="9.323421392158512"><ele>1141.25</ele><time>2026-03-28T11:15:08.999Z</time></trkpt><trkpt lat="44.79726337581008" lon="9.323616512496635"><ele>1138.5</ele><time>2026-03-28T11:15:09.999Z</time></trkpt><trkpt lat="44.79724647506623" lon="9.323807314151988"><ele>1135.75</ele><time>2026-03-28T11:15:10.999Z</time></trkpt><trkpt lat="44.79720012782113" lon="9.324000814792528"><ele>1133.0</ele><time>2026-03-28T11:15:11.999Z</time></trkpt><trkpt lat="44.79712765719168" lon="9.324184662849833"><ele>1131.5</ele><time>2026-03-28T11:15:12.999Z</time></trkpt><trkpt lat="44.797051537901474" lon="9.324352034148058"><ele>1130.0</ele><time>2026-03-28T11:15:13.999Z</time></trkpt><trkpt lat="44.79699363043818" lon="9.324500433180145"><ele>1128.5</ele><time>2026-03-28T11:15:14.999Z</time></trkpt><trkpt lat="44.79695997184048" lon="9.324652559182296"><ele>1127.0</ele><time>2026-03-28T11:15:15.999Z</time></trkpt><trkpt lat="44.796941958342714" lon="9.324828186737212"><ele>1126.0</ele><time>2026-03-28T11:15:16.999Z</time></trkpt><trkpt lat="44.79701219888138" lon="9.324997370077092"><ele>1125.0</ele><time>2026-03-28T11:15:17.999Z</time></trkpt><trkpt lat="44.7970528039517" lon="9.32517267745585"><ele>1124.0</ele><time>2026-03-28T11:15:18.999Z</time></trkpt><trkpt lat="44.79702830252939" lon="9.325326491719274"><ele>1123.0</ele><time>2026-03-28T11:15:19.999Z</time></trkpt><trkpt lat="44.797000229843455" lon="9.32546757016786"><ele>1122.0</ele><time>2026-03-28T11:15:20.999Z</time></trkpt><trkpt lat="44.79693224206554" lon="9.325612250864662"><ele>1121.0</ele><time>2026-03-28T11:15:21.999Z</time></trkpt><trkpt lat="44.79683596310706" lon="9.325738126326208"><ele>1120.0</ele><time>2026-03-28T11:15:22.999Z</time></trkpt><trkpt lat="44.79674974673495" lon="9.325839156774098"><ele>1119.0</ele><time>2026-03-28T11:15:23.999Z</time></trkpt><trkpt lat="44.79668273391302" lon="9.325949193686494"><ele>1119.5</ele><time>2026-03-28T11:15:24.999Z</time></trkpt><trkpt lat="44.796671699799276" lon="9.326116134349839"><ele>1120.0</ele><time>2026-03-28T11:15:25.999Z</time></trkpt><trkpt lat="44.79673678127014" lon="9.326274631817881"><ele>1120.5</ele><time>2026-03-28T11:15:26.999Z</time></trkpt><trkpt lat="44.79679986783279" lon="9.326418916803785"><ele>1121.0</ele><time>2026-03-28T11:15:27.999Z</time></trkpt><trkpt lat="44.79686209972972" lon="9.326536438656216"><ele>1121.0</ele><time>2026-03-28T11:15:28.999Z</time></trkpt><trkpt lat="44.79686533455972" lon="9.326678775877964"><ele>1121.0</ele><time>2026-03-28T11:15:29.999Z</time></trkpt><trkpt lat="44.79680193614763" lon="9.32679934957048"><ele>1121.0</ele><time>2026-03-28T11:15:30.999Z</time></trkpt><trkpt lat="44.7967578357447" lon="9.326936521605802"><ele>1121.0</ele><time>2026-03-28T11:15:31.999Z</time></trkpt><trkpt lat="44.796750355503285" lon="9.327091657594076"><ele>1121.0</ele><time>2026-03-28T11:15:32.999Z</time></trkpt><trkpt lat="44.79680626917613" lon="9.327241126642257"><ele>1123.2</ele><time>2026-03-28T11:15:33.999Z</time></trkpt><trkpt lat="44.7968795481014" lon="9.327358999569078"><ele>1125.3999999999999</ele><time>2026-03-28T11:15:34.999Z</time></trkpt><trkpt lat="44.79694297032991" lon="9.327477291451508"><ele>1127.6</ele><time>2026-03-28T11:15:35.999Z</time></trkpt><trkpt lat="44.79701583678062" lon="9.327583917461002"><ele>1129.8</ele><time>2026-03-28T11:15:36.999Z</time></trkpt><trkpt lat="44.79707686470248" lon="9.327709453744491"><ele>1132.0</ele><time>2026-03-28T11:15:37.999Z</time></trkpt><trkpt lat="44.79712942264447" lon="9.327821994038366"><ele>1132.0</ele><time>2026-03-28T11:15:38.999Z</time></trkpt><trkpt lat="44.797171533887266" lon="9.327924164117064"><ele>1132.0</ele><time>2026-03-28T11:15:39.999Z</time></trkpt><trkpt lat="44.79721975737851" lon="9.328006477549971"><ele>1132.0</ele><time>2026-03-28T11:15:40.999Z</time></trkpt><trkpt lat="44.797256337373916" lon="9.328083929619462"><ele>1132.0</ele><time>2026-03-28T11:15:41.999Z</time></trkpt><trkpt lat="44.797310382002564" lon="9.328175073899308"><ele>1132.0</ele><time>2026-03-28T11:15:43.999Z</time></trkpt><trkpt lat="44.797306007495216" lon="9.328265195616028"><ele>1132.0</ele><time>2026-03-28T11:15:45.999Z</time></trkpt><trkpt lat="44.79728701183233" lon="9.3283536224601"><ele>1132.0</ele><time>2026-03-28T11:15:49Z</time></trkpt><trkpt lat="44.797291694929086" lon="9.328445047396055"><ele>1133.3333333333333</ele><time>2026-03-28T11:15:53Z</time></trkpt><trkpt lat="44.79734416846862" lon="9.328534988370194"><ele>1134.6666666666665</ele><time>2026-03-28T11:16:16Z</time></trkpt><trkpt lat="44.79739790644768" lon="9.328627527550282"><ele>1136.0</ele><time>2026-03-28T11:16:19Z</time></trkpt><trkpt lat="44.79742888637489" lon="9.328706926174071"><ele>1137.3333333333333</ele><time>2026-03-28T11:16:23Z</time></trkpt><trkpt lat="44.79748172745351" lon="9.328760182241213"><ele>1138.6666666666667</ele><time>2026-03-28T11:16:26Z</time></trkpt><trkpt lat="44.79755381068258" lon="9.328736599591826"><ele>1140.0</ele><time>2026-03-28T11:16:29Z</time></trkpt><trkpt lat="44.79754716538992" lon="9.32860933696204"><ele>1140.0</ele><time>2026-03-28T11:16:32Z</time></trkpt><trkpt lat="44.79749374048288" lon="9.328528147046244"><ele>1140.0</ele><time>2026-03-28T11:16:35Z</time></trkpt><trkpt lat="44.79744773351805" lon="9.328442117052273"><ele>1140.0</ele><time>2026-03-28T11:16:38Z</time></trkpt><trkpt lat="44.79738445315233" lon="9.328401846400627"><ele>1140.0</ele><time>2026-03-28T11:16:43Z</time></trkpt><trkpt lat="44.79742351821663" lon="9.328278731842397"><ele>1140.0</ele><time>2026-03-28T11:18:42Z</time></trkpt><trkpt lat="44.79746120906855" lon="9.328196838655431"><ele>1140.0</ele><time>2026-03-28T11:18:51Z</time></trkpt><trkpt lat="44.79751465195496" lon="9.328120536730571"><ele>1140.0</ele><time>2026-03-28T11:19:29.999Z</time></trkpt><trkpt lat="44.7975831610487" lon="9.328073150124709"><ele>1140.0</ele><time>2026-03-28T11:20:32Z</time></trkpt><trkpt lat="44.79750895674998" lon="9.328101999410489"><ele>1140.0</ele><time>2026-03-28T11:24:51Z</time></trkpt><trkpt lat="44.79746956672668" lon="9.328178856750618"><ele>1140.0</ele><time>2026-03-28T11:26:03.999Z</time></trkpt><trkpt lat="44.797409998627735" lon="9.328248277125857"><ele>1140.0</ele><time>2026-03-28T11:27:12.999Z</time></trkpt><trkpt lat="44.79738898095716" lon="9.3283430876343"><ele>1140.0</ele><time>2026-03-28T11:27:19.999Z</time></trkpt><trkpt lat="44.79731985473071" lon="9.328380233379429"><ele>1140.0</ele><time>2026-03-28T11:41:10Z</time></trkpt><trkpt lat="44.79721180403911" lon="9.328362986901906"><ele>1140.0</ele><time>2026-03-28T11:41:12Z</time></trkpt><trkpt lat="44.79709260066723" lon="9.328367769298705"><ele>1140.0</ele><time>2026-03-28T11:41:14Z</time></trkpt><trkpt lat="44.7969684219839" lon="9.328333405670488"><ele>1140.0</ele><time>2026-03-28T11:41:16Z</time></trkpt><trkpt lat="44.79690018256535" lon="9.328326242938438"><ele>1140.0</ele><time>2026-03-28T11:41:17Z</time></trkpt><trkpt lat="44.79683019274669" lon="9.32833163734992"><ele>1140.0</ele><time>2026-03-28T11:41:18Z</time></trkpt><trkpt lat="44.796757728133535" lon="9.328330159343357"><ele>1142.5</ele><time>2026-03-28T11:41:19Z</time></trkpt><trkpt lat="44.79668300324004" lon="9.328353827758763"><ele>1145.0</ele><time>2026-03-28T11:41:20Z</time></trkpt><trkpt lat="44.79659709788944" lon="9.328399671636417"><ele>1147.5</ele><time>2026-03-28T11:41:21Z</time></trkpt><trkpt lat="44.79651719658239" lon="9.328449143159137"><ele>1150.0</ele><time>2026-03-28T11:41:22Z</time></trkpt><trkpt lat="44.79644483490256" lon="9.328511386945568"><ele>1152.5</ele><time>2026-03-28T11:41:23Z</time></trkpt><trkpt lat="44.79637981944006" lon="9.32857273550191"><ele>1155.0</ele><time>2026-03-28T11:41:24Z</time></trkpt><trkpt lat="44.79632685588791" lon="9.328654846362122"><ele>1155.0</ele><time>2026-03-28T11:41:25Z</time></trkpt><trkpt lat="44.796258457474494" lon="9.328765289415829"><ele>1155.0</ele><time>2026-03-28T11:41:26Z</time></trkpt><trkpt lat="44.7962088549121" lon="9.328848026269505"><ele>1155.0</ele><time>2026-03-28T11:41:27Z</time></trkpt><trkpt lat="44.796167927578" lon="9.328955265079959"><ele>1155.0</ele><time>2026-03-28T11:41:28Z</time></trkpt><trkpt lat="44.79614718913569" lon="9.329046980795486"><ele>1155.0</ele><time>2026-03-28T11:41:29Z</time></trkpt><trkpt lat="44.79619158427265" lon="9.329181419669032"><ele>1155.0</ele><time>2026-03-28T11:41:31Z</time></trkpt><trkpt lat="44.7963055510313" lon="9.329244600378464"><ele>1155.0</ele><time>2026-03-28T11:41:33Z</time></trkpt><trkpt lat="44.79641778662079" lon="9.329165938261013"><ele>1155.0</ele><time>2026-03-28T11:41:35Z</time></trkpt><trkpt lat="44.79644917106139" lon="9.329056563637256"><ele>1155.0</ele><time>2026-03-28T11:41:36Z</time></trkpt><trkpt lat="44.79648395665573" lon="9.328963448257124"><ele>1155.0</ele><time>2026-03-28T11:41:37Z</time></trkpt><trkpt lat="44.7964762907623" lon="9.328845477047407"><ele>1155.0</ele><time>2026-03-28T11:41:38Z</time></trkpt><trkpt lat="44.796533527664046" lon="9.328746545509853"><ele>1155.0</ele><time>2026-03-28T11:41:39Z</time></trkpt><trkpt lat="44.79659426971275" lon="9.32865485773116"><ele>1155.0</ele><time>2026-03-28T11:41:40Z</time></trkpt><trkpt lat="44.79670175007599" lon="9.328682190094483"><ele>1155.0</ele><time>2026-03-28T11:41:41Z</time></trkpt><trkpt lat="44.796797026309406" lon="9.328772826716355"><ele>1155.0</ele><time>2026-03-28T11:41:42Z</time></trkpt><trkpt lat="44.7968833845652" lon="9.328877979578229"><ele>1155.0</ele><time>2026-03-28T11:41:43Z</time></trkpt><trkpt lat="44.79695641729321" lon="9.329031628182952"><ele>1150.5</ele><time>2026-03-28T11:41:44Z</time></trkpt><trkpt lat="44.79705458102021" lon="9.329150825357019"><ele>1146.0</ele><time>2026-03-28T11:41:45Z</time></trkpt><trkpt lat="44.797144905956124" lon="9.329252634762222"><ele>1141.5</ele><time>2026-03-28T11:41:46Z</time></trkpt><trkpt lat="44.797220569974726" lon="9.329375001314162"><ele>1137.0</ele><time>2026-03-28T11:41:47Z</time></trkpt><trkpt lat="44.79730962117859" lon="9.329461795137075"><ele>1137.0</ele><time>2026-03-28T11:41:48Z</time></trkpt><trkpt lat="44.797415109811354" lon="9.329516451346901"><ele>1137.0</ele><time>2026-03-28T11:41:49Z</time></trkpt><trkpt lat="44.79752413068885" lon="9.329550480580938"><ele>1137.0</ele><time>2026-03-28T11:41:50Z</time></trkpt><trkpt lat="44.79762954508412" lon="9.32959886442841"><ele>1137.0</ele><time>2026-03-28T11:41:51Z</time></trkpt><trkpt lat="44.7977295309727" lon="9.329614838863401"><ele>1137.0</ele><time>2026-03-28T11:41:52Z</time></trkpt><trkpt lat="44.79785174467544" lon="9.329718776880613"><ele>1134.75</ele><time>2026-03-28T11:41:53Z</time></trkpt><trkpt lat="44.79796308309279" lon="9.329820858915872"><ele>1132.5</ele><time>2026-03-28T11:41:54Z</time></trkpt><trkpt lat="44.79807853791624" lon="9.329901548817086"><ele>1130.25</ele><time>2026-03-28T11:41:55Z</time></trkpt><trkpt lat="44.798197788485126" lon="9.329942532036846"><ele>1128.0</ele><time>2026-03-28T11:41:55.999Z</time></trkpt><trkpt lat="44.798260362832494" lon="9.329989448663637"><ele>1128.0</ele><time>2026-03-28T11:41:56.999Z</time></trkpt><trkpt lat="44.79835317216281" lon="9.330072690910571"><ele>1128.0</ele><time>2026-03-28T11:41:57.999Z</time></trkpt><trkpt lat="44.79848669486493" lon="9.330198872174764"><ele>1128.0</ele><time>2026-03-28T11:41:58.999Z</time></trkpt><trkpt lat="44.798630275708604" lon="9.33035460461486"><ele>1128.3333333333333</ele><time>2026-03-28T11:41:59.999Z</time></trkpt><trkpt lat="44.79872967504103" lon="9.330507677974172"><ele>1128.6666666666665</ele><time>2026-03-28T11:42:00.999Z</time></trkpt><trkpt lat="44.79882304351487" lon="9.330667355720898"><ele>1129.0</ele><time>2026-03-28T11:42:01.999Z</time></trkpt><trkpt lat="44.798908170552345" lon="9.330858992065364"><ele>1129.0</ele><time>2026-03-28T11:42:02.999Z</time></trkpt><trkpt lat="44.79897112908655" lon="9.331045903519698"><ele>1129.0</ele><time>2026-03-28T11:42:03.999Z</time></trkpt><trkpt lat="44.79903877246578" lon="9.331223278011414"><ele>1129.0</ele><time>2026-03-28T11:42:04.999Z</time></trkpt><trkpt lat="44.79908431746654" lon="9.331411546330683"><ele>1129.0</ele><time>2026-03-28T11:42:05.999Z</time></trkpt><trkpt lat="44.79915057335423" lon="9.331575065795844"><ele>1125.75</ele><time>2026-03-28T11:42:06.999Z</time></trkpt><trkpt lat="44.79923662555764" lon="9.331709645461986"><ele>1122.5</ele><time>2026-03-28T11:42:07.999Z</time></trkpt><trkpt lat="44.79933942401057" lon="9.331834768289598"><ele>1119.25</ele><time>2026-03-28T11:42:08.999Z</time></trkpt><trkpt lat="44.79943875496252" lon="9.331967387585028"><ele>1116.0</ele><time>2026-03-28T11:42:09.999Z</time></trkpt><trkpt lat="44.79954621939405" lon="9.33209514776699"><ele>1110.5</ele><time>2026-03-28T11:42:10.999Z</time></trkpt><trkpt lat="44.799649208278694" lon="9.332229977740338"><ele>1105.0</ele><time>2026-03-28T11:42:11.999Z</time></trkpt><trkpt lat="44.799759182142076" lon="9.332352527532521"><ele>1099.5</ele><time>2026-03-28T11:42:12.999Z</time></trkpt><trkpt lat="44.79988612105057" lon="9.332442667689346"><ele>1094.0</ele><time>2026-03-28T11:42:13.999Z</time></trkpt><trkpt lat="44.80002453935192" lon="9.332484695303"><ele>1096.0</ele><time>2026-03-28T11:42:14.999Z</time></trkpt><trkpt lat="44.80017265229355" lon="9.332524192433835"><ele>1098.0</ele><time>2026-03-28T11:42:15.999Z</time></trkpt><trkpt lat="44.800315664257475" lon="9.332594852120957"><ele>1100.0</ele><time>2026-03-28T11:42:16.999Z</time></trkpt><trkpt lat="44.80045603517943" lon="9.332646646529318"><ele>1102.0</ele><time>2026-03-28T11:42:17.999Z</time></trkpt><trkpt lat="44.80059531232014" lon="9.332713648298078"><ele>1102.0</ele><time>2026-03-28T11:42:18.999Z</time></trkpt><trkpt lat="44.800732350993314" lon="9.332786883215439"><ele>1102.0</ele><time>2026-03-28T11:42:19.999Z</time></trkpt><trkpt lat="44.80086149065649" lon="9.332878379459354"><ele>1102.0</ele><time>2026-03-28T11:42:20.999Z</time></trkpt><trkpt lat="44.80098982093926" lon="9.332965784068078"><ele>1102.0</ele><time>2026-03-28T11:42:21.999Z</time></trkpt><trkpt lat="44.80110570897819" lon="9.333073161960028"><ele>1102.25</ele><time>2026-03-28T11:42:22.999Z</time></trkpt><trkpt lat="44.80121041667098" lon="9.333197510893106"><ele>1102.5</ele><time>2026-03-28T11:42:23.999Z</time></trkpt><trkpt lat="44.80130208876194" lon="9.333346474502433"><ele>1102.75</ele><time>2026-03-28T11:42:24.999Z</time></trkpt><trkpt lat="44.80137735738804" lon="9.33351078958692"><ele>1103.0</ele><time>2026-03-28T11:42:25.999Z</time></trkpt><trkpt lat="44.80144903615515" lon="9.33367536100632"><ele>1103.0</ele><time>2026-03-28T11:42:26.999Z</time></trkpt><trkpt lat="44.801537176249084" lon="9.333819376846936"><ele>1103.0</ele><time>2026-03-28T11:42:27.999Z</time></trkpt><trkpt lat="44.801649628908514" lon="9.33391315416541"><ele>1103.0</ele><time>2026-03-28T11:42:28.999Z</time></trkpt><trkpt lat="44.80175552587143" lon="9.334021874574185"><ele>1103.0</ele><time>2026-03-28T11:42:29.999Z</time></trkpt><trkpt lat="44.80182818948619" lon="9.334167005128316"><ele>1105.75</ele><time>2026-03-28T11:42:30.999Z</time></trkpt><trkpt lat="44.80185699769427" lon="9.3343424927635"><ele>1108.5</ele><time>2026-03-28T11:42:31.999Z</time></trkpt><trkpt lat="44.801838636903284" lon="9.334527985088604"><ele>1111.25</ele><time>2026-03-28T11:42:32.999Z</time></trkpt><trkpt lat="44.80180512726094" lon="9.334699147481963"><ele>1114.0</ele><time>2026-03-28T11:42:33.999Z</time></trkpt><trkpt lat="44.80179320734942" lon="9.33485889350314"><ele>1110.75</ele><time>2026-03-28T11:42:34.999Z</time></trkpt><trkpt lat="44.80185441585977" lon="9.335014221068695"><ele>1107.5</ele><time>2026-03-28T11:42:35.999Z</time></trkpt><trkpt lat="44.80193432791451" lon="9.335161201060584"><ele>1104.25</ele><time>2026-03-28T11:42:36.999Z</time></trkpt><trkpt lat="44.802015662337105" lon="9.335313154670589"><ele>1101.0</ele><time>2026-03-28T11:42:37.999Z</time></trkpt><trkpt lat="44.80209654414754" lon="9.33548455055989"><ele>1094.5</ele><time>2026-03-28T11:42:38.999Z</time></trkpt><trkpt lat="44.802180381049624" lon="9.335660028513292"><ele>1088.0</ele><time>2026-03-28T11:42:39.999Z</time></trkpt><trkpt lat="44.8022595443633" lon="9.335839660155766"><ele>1081.5</ele><time>2026-03-28T11:42:40.999Z</time></trkpt><trkpt lat="44.80234217430396" lon="9.336009983117775"><ele>1075.0</ele><time>2026-03-28T11:42:41.999Z</time></trkpt><trkpt lat="44.802419056777026" lon="9.336170886478042"><ele>1075.0</ele><time>2026-03-28T11:42:42.999Z</time></trkpt><trkpt lat="44.80249772003231" lon="9.336323870601978"><ele>1075.0</ele><time>2026-03-28T11:42:43.999Z</time></trkpt><trkpt lat="44.802575777521795" lon="9.336477236436679"><ele>1075.0</ele><time>2026-03-28T11:42:44.999Z</time></trkpt><trkpt lat="44.80266343954097" lon="9.336620815518932"><ele>1075.0</ele><time>2026-03-28T11:42:45.999Z</time></trkpt><trkpt lat="44.80276311983498" lon="9.336755266855379"><ele>1075.0</ele><time>2026-03-28T11:42:46.999Z</time></trkpt><trkpt lat="44.8028675521685" lon="9.33688422093548"><ele>1075.0</ele><time>2026-03-28T11:42:47.999Z</time></trkpt><trkpt lat="44.802977021513875" lon="9.337005299496596"><ele>1075.0</ele><time>2026-03-28T11:42:48.999Z</time></trkpt><trkpt lat="44.80308287498162" lon="9.337127049178124"><ele>1075.0</ele><time>2026-03-28T11:42:49.999Z</time></trkpt><trkpt lat="44.803191227612" lon="9.337241381353214"><ele>1068.75</ele><time>2026-03-28T11:42:50.999Z</time></trkpt><trkpt lat="44.803293061762716" lon="9.33736373490991"><ele>1062.5</ele><time>2026-03-28T11:42:51.999Z</time></trkpt><trkpt lat="44.803400651751296" lon="9.337484048325422"><ele>1056.25</ele><time>2026-03-28T11:42:52.999Z</time></trkpt><trkpt lat="44.8035137425052" lon="9.337599703077808"><ele>1050.0</ele><time>2026-03-28T11:42:53.999Z</time></trkpt><trkpt lat="44.803625659256575" lon="9.337716756732512"><ele>1050.0</ele><time>2026-03-28T11:42:54.999Z</time></trkpt><trkpt lat="44.80372260715987" lon="9.337837536138661"><ele>1050.0</ele><time>2026-03-28T11:42:55.999Z</time></trkpt><trkpt lat="44.80380910855545" lon="9.337981870473403"><ele>1050.0</ele><time>2026-03-28T11:42:56.999Z</time></trkpt><trkpt lat="44.80386845424137" lon="9.338147817300712"><ele>1050.0</ele><time>2026-03-28T11:42:57.999Z</time></trkpt><trkpt lat="44.80389487407493" lon="9.338330781521758"><ele>1046.25</ele><time>2026-03-28T11:42:58.999Z</time></trkpt><trkpt lat="44.8038891640542" lon="9.338514171859805"><ele>1042.5</ele><time>2026-03-28T11:42:59.999Z</time></trkpt><trkpt lat="44.80384788336515" lon="9.338686915640125"><ele>1038.75</ele><time>2026-03-28T11:43:00.999Z</time></trkpt><trkpt lat="44.803788361748026" lon="9.33885281112069"><ele>1035.0</ele><time>2026-03-28T11:43:01.999Z</time></trkpt><trkpt lat="44.80372436527719" lon="9.339023687959157"><ele>1035.0</ele><time>2026-03-28T11:43:02.999Z</time></trkpt><trkpt lat="44.80366181294176" lon="9.339197990404205"><ele>1035.0</ele><time>2026-03-28T11:43:03.999Z</time></trkpt><trkpt lat="44.80360031759367" lon="9.339372232516833"><ele>1035.0</ele><time>2026-03-28T11:43:04.999Z</time></trkpt><trkpt lat="44.80353862236027" lon="9.339550251040992"><ele>1035.0</ele><time>2026-03-28T11:43:06Z</time></trkpt><trkpt lat="44.803488412919364" lon="9.339724988404628"><ele>1036.2</ele><time>2026-03-28T11:43:07Z</time></trkpt><trkpt lat="44.80346256385455" lon="9.339898683947979"><ele>1037.4</ele><time>2026-03-28T11:43:08Z</time></trkpt><trkpt lat="44.80347880776413" lon="9.34003823004323"><ele>1038.6</ele><time>2026-03-28T11:43:09Z</time></trkpt><trkpt lat="44.803534646933194" lon="9.340161580895828"><ele>1039.8</ele><time>2026-03-28T11:43:10Z</time></trkpt><trkpt lat="44.80363366231525" lon="9.340244856085159"><ele>1041.0</ele><time>2026-03-28T11:43:11Z</time></trkpt><trkpt lat="44.80374608676681" lon="9.340303282054531"><ele>1041.0</ele><time>2026-03-28T11:43:12Z</time></trkpt><trkpt lat="44.803862663939235" lon="9.340346815135346"><ele>1041.0</ele><time>2026-03-28T11:43:13Z</time></trkpt><trkpt lat="44.80398015990812" lon="9.340394878385185"><ele>1041.0</ele><time>2026-03-28T11:43:14Z</time></trkpt><trkpt lat="44.80409120541738" lon="9.34045883520711"><ele>1041.0</ele><time>2026-03-28T11:43:15Z</time></trkpt><trkpt lat="44.80419889242892" lon="9.340535814943365"><ele>1040.5</ele><time>2026-03-28T11:43:16Z</time></trkpt><trkpt lat="44.80428395049331" lon="9.340662264414425"><ele>1040.0</ele><time>2026-03-28T11:43:17Z</time></trkpt><trkpt lat="44.804332463690145" lon="9.340824875036265"><ele>1039.5</ele><time>2026-03-28T11:43:18Z</time></trkpt><trkpt lat="44.80432147267036" lon="9.341014683317766"><ele>1039.0</ele><time>2026-03-28T11:43:19Z</time></trkpt><trkpt lat="44.80428730732598" lon="9.34119548172671"><ele>1036.5</ele><time>2026-03-28T11:43:20Z</time></trkpt><trkpt lat="44.80425127957778" lon="9.341369266052626"><ele>1034.0</ele><time>2026-03-28T11:43:21Z</time></trkpt><trkpt lat="44.80419060261889" lon="9.34154509145526"><ele>1031.5</ele><time>2026-03-28T11:43:22Z</time></trkpt><trkpt lat="44.80418429208606" lon="9.341734266880175"><ele>1029.0</ele><time>2026-03-28T11:43:23Z</time></trkpt><trkpt lat="44.80420563729682" lon="9.341916259087673"><ele>1028.5</ele><time>2026-03-28T11:43:24Z</time></trkpt><trkpt lat="44.804279238733024" lon="9.342066954672797"><ele>1028.0</ele><time>2026-03-28T11:43:25Z</time></trkpt><trkpt lat="44.804367923402836" lon="9.342190124161732"><ele>1027.5</ele><time>2026-03-28T11:43:26Z</time></trkpt><trkpt lat="44.80447446419221" lon="9.342272438314703"><ele>1027.0</ele><time>2026-03-28T11:43:27Z</time></trkpt><trkpt lat="44.80455829291162" lon="9.34237971472902"><ele>1027.0</ele><time>2026-03-28T11:43:28Z</time></trkpt><trkpt lat="44.804639194157254" lon="9.342486088690265"><ele>1027.0</ele><time>2026-03-28T11:43:29Z</time></trkpt><trkpt lat="44.80468870663949" lon="9.342610457175727"><ele>1027.0</ele><time>2026-03-28T11:43:30Z</time></trkpt><trkpt lat="44.80471182368771" lon="9.342755626923536"><ele>1027.0</ele><time>2026-03-28T11:43:31Z</time></trkpt><trkpt lat="44.804690274501134" lon="9.342891620208377"><ele>1027.0</ele><time>2026-03-28T11:43:32Z</time></trkpt><trkpt lat="44.80464818801609" lon="9.34303022994405"><ele>1026.75</ele><time>2026-03-28T11:43:33Z</time></trkpt><trkpt lat="44.804569485631056" lon="9.343150259092631"><ele>1026.5</ele><time>2026-03-28T11:43:34Z</time></trkpt><trkpt lat="44.80448430030537" lon="9.343291208357408"><ele>1026.25</ele><time>2026-03-28T11:43:35Z</time></trkpt><trkpt lat="44.804360298375556" lon="9.34338073549971"><ele>1026.0</ele><time>2026-03-28T11:43:36Z</time></trkpt><trkpt lat="44.80425028561898" lon="9.343461141170565"><ele>1020.75</ele><time>2026-03-28T11:43:37Z</time></trkpt><trkpt lat="44.80413742586633" lon="9.343555100755129"><ele>1015.5</ele><time>2026-03-28T11:43:38Z</time></trkpt><trkpt lat="44.80401563357225" lon="9.343624934343351"><ele>1010.25</ele><time>2026-03-28T11:43:39Z</time></trkpt><trkpt lat="44.80390582366789" lon="9.343724000086933"><ele>1005.0</ele><time>2026-03-28T11:43:40Z</time></trkpt><trkpt lat="44.80381239992682" lon="9.343829758712303"><ele>1005.25</ele><time>2026-03-28T11:43:41Z</time></trkpt><trkpt lat="44.803746638423355" lon="9.343986624618905"><ele>1005.5</ele><time>2026-03-28T11:43:42Z</time></trkpt><trkpt lat="44.80367592334495" lon="9.344120716440978"><ele>1005.75</ele><time>2026-03-28T11:43:43Z</time></trkpt><trkpt lat="44.80363865229406" lon="9.344263291411155"><ele>1006.0</ele><time>2026-03-28T11:43:44Z</time></trkpt><trkpt lat="44.80362352602919" lon="9.344402145913435"><ele>1006.0</ele><time>2026-03-28T11:43:45Z</time></trkpt><trkpt lat="44.80366287407233" lon="9.344529657047424"><ele>1005.9999999999999</ele><time>2026-03-28T11:43:46Z</time></trkpt><trkpt lat="44.803771567128535" lon="9.344594883659093"><ele>1005.9999999999999</ele><time>2026-03-28T11:43:47Z</time></trkpt><trkpt lat="44.80387121834555" lon="9.344630534568244"><ele>1006.0</ele><time>2026-03-28T11:43:48Z</time></trkpt><trkpt lat="44.80396941773848" lon="9.344696157550139"><ele>1006.0</ele><time>2026-03-28T11:43:49Z</time></trkpt><trkpt lat="44.80407188386115" lon="9.344753157477745"><ele>1004.4</ele><time>2026-03-28T11:43:50Z</time></trkpt><trkpt lat="44.80415218278583" lon="9.344826538856463"><ele>1002.8</ele><time>2026-03-28T11:43:51Z</time></trkpt><trkpt lat="44.80418908303429" lon="9.344926324192533"><ele>1001.1999999999999</ele><time>2026-03-28T11:43:52Z</time></trkpt><trkpt lat="44.80418394019779" lon="9.345052888754413"><ele>999.5999999999999</ele><time>2026-03-28T11:43:53Z</time></trkpt><trkpt lat="44.80418110129447" lon="9.345211399891983"><ele>998.0</ele><time>2026-03-28T11:43:54Z</time></trkpt><trkpt lat="44.804178250573" lon="9.345387051071455"><ele>994.5</ele><time>2026-03-28T11:43:55Z</time></trkpt><trkpt lat="44.80419141465544" lon="9.345563446706521"><ele>991.0</ele><time>2026-03-28T11:43:56Z</time></trkpt><trkpt lat="44.804191939924394" lon="9.345733812881663"><ele>987.5</ele><time>2026-03-28T11:43:57Z</time></trkpt><trkpt lat="44.80420178447017" lon="9.34588978894793"><ele>984.0</ele><time>2026-03-28T11:43:58Z</time></trkpt><trkpt lat="44.80423874958472" lon="9.346024295361795"><ele>984.0</ele><time>2026-03-28T11:43:58.999Z</time></trkpt><trkpt lat="44.80432599916185" lon="9.346135050574613"><ele>984.0</ele><time>2026-03-28T11:43:59.999Z</time></trkpt><trkpt lat="44.80442905638004" lon="9.346223050215567"><ele>984.0</ele><time>2026-03-28T11:44:00.999Z</time></trkpt><trkpt lat="44.804537004130225" lon="9.346310250948758"><ele>984.0</ele><time>2026-03-28T11:44:01.999Z</time></trkpt><trkpt lat="44.80463811075043" lon="9.346410803058614"><ele>984.5</ele><time>2026-03-28T11:44:02.999Z</time></trkpt><trkpt lat="44.80473996957964" lon="9.346518320994624"><ele>985.0</ele><time>2026-03-28T11:44:03.999Z</time></trkpt><trkpt lat="44.804845617735005" lon="9.346625827324212"><ele>985.5</ele><time>2026-03-28T11:44:04.999Z</time></trkpt><trkpt lat="44.80495784115065" lon="9.346717556044878"><ele>986.0</ele><time>2026-03-28T11:44:05.999Z</time></trkpt><trkpt lat="44.805087861451995" lon="9.346770473255665"><ele>989.75</ele><time>2026-03-28T11:44:06.999Z</time></trkpt><trkpt lat="44.80521747363142" lon="9.346813367247771"><ele>993.5</ele><time>2026-03-28T11:44:07.999Z</time></trkpt><trkpt lat="44.80534811696977" lon="9.346859769362487"><ele>997.25</ele><time>2026-03-28T11:44:08.999Z</time></trkpt><trkpt lat="44.80547277137211" lon="9.346902775072435"><ele>1001.0</ele><time>2026-03-28T11:44:09.999Z</time></trkpt><trkpt lat="44.8055989890254" lon="9.346939242855425"><ele>1001.0</ele><time>2026-03-28T11:44:10.999Z</time></trkpt><trkpt lat="44.805726220199446" lon="9.346998048035324"><ele>1001.0</ele><time>2026-03-28T11:44:11.999Z</time></trkpt><trkpt lat="44.80585639649719" lon="9.347066539813198"><ele>1001.0</ele><time>2026-03-28T11:44:12.999Z</time></trkpt><trkpt lat="44.80597962735953" lon="9.34716005805853"><ele>1001.0</ele><time>2026-03-28T11:44:13.999Z</time></trkpt><trkpt lat="44.80610008029947" lon="9.347273433952877"><ele>997.75</ele><time>2026-03-28T11:44:14.999Z</time></trkpt><trkpt lat="44.8062146745336" lon="9.347394298606812"><ele>994.5</ele><time>2026-03-28T11:44:15.999Z</time></trkpt><trkpt lat="44.80632213880683" lon="9.347522742709462"><ele>991.25</ele><time>2026-03-28T11:44:16.999Z</time></trkpt><trkpt lat="44.80643833372747" lon="9.347644825761547"><ele>988.0</ele><time>2026-03-28T11:44:17.999Z</time></trkpt><trkpt lat="44.80654751927519" lon="9.347765339790222"><ele>988.0</ele><time>2026-03-28T11:44:18.999Z</time></trkpt><trkpt lat="44.806653555374126" lon="9.34787939627566"><ele>988.0</ele><time>2026-03-28T11:44:19.999Z</time></trkpt><trkpt lat="44.80674465403761" lon="9.348002259345249"><ele>988.0</ele><time>2026-03-28T11:44:20.999Z</time></trkpt><trkpt lat="44.806808509419454" lon="9.348142887370685"><ele>988.0</ele><time>2026-03-28T11:44:21.999Z</time></trkpt><trkpt lat="44.80681020284161" lon="9.348308566745915"><ele>983.5</ele><time>2026-03-28T11:44:22.999Z</time></trkpt><trkpt lat="44.80679718995253" lon="9.34848004129466"><ele>979.0</ele><time>2026-03-28T11:44:23.999Z</time></trkpt><trkpt lat="44.806792662391075" lon="9.34866503678427"><ele>974.5</ele><time>2026-03-28T11:44:24.999Z</time></trkpt><trkpt lat="44.80677361568447" lon="9.348857349184966"><ele>970.0</ele><time>2026-03-28T11:44:25.999Z</time></trkpt><trkpt lat="44.80675284855572" lon="9.349059887979513"><ele>969.75</ele><time>2026-03-28T11:44:26.999Z</time></trkpt><trkpt lat="44.80671273927969" lon="9.349262183383507"><ele>969.5</ele><time>2026-03-28T11:44:27.999Z</time></trkpt><trkpt lat="44.80668650842839" lon="9.349460334931589"><ele>969.25</ele><time>2026-03-28T11:44:28.999Z</time></trkpt><trkpt lat="44.806661872644945" lon="9.349645486769393"><ele>969.0</ele><time>2026-03-28T11:44:29.999Z</time></trkpt><trkpt lat="44.80663661474575" lon="9.349820251452204"><ele>969.0</ele><time>2026-03-28T11:44:30.999Z</time></trkpt><trkpt lat="44.806596175056" lon="9.349964903885619"><ele>969.0000000000001</ele><time>2026-03-28T11:44:31.999Z</time></trkpt><trkpt lat="44.80652194210564" lon="9.350068505280214"><ele>969.0000000000001</ele><time>2026-03-28T11:44:32.999Z</time></trkpt><trkpt lat="44.806427969574884" lon="9.350123447947228"><ele>969.0</ele><time>2026-03-28T11:44:33.999Z</time></trkpt><trkpt lat="44.80633194535225" lon="9.350154544190051"><ele>969.0</ele><time>2026-03-28T11:44:34.999Z</time></trkpt><trkpt lat="44.806234039846395" lon="9.350193697888475"><ele>969.0</ele><time>2026-03-28T11:44:35.999Z</time></trkpt><trkpt lat="44.80613805570917" lon="9.350234777967424"><ele>969.0000000000001</ele><time>2026-03-28T11:44:36.999Z</time></trkpt><trkpt lat="44.80604609543429" lon="9.3502843672072"><ele>969.0000000000001</ele><time>2026-03-28T11:44:37.999Z</time></trkpt><trkpt lat="44.8059679530507" lon="9.350373294205175"><ele>969.0</ele><time>2026-03-28T11:44:38.999Z</time></trkpt><trkpt lat="44.80592866143958" lon="9.350526992827705"><ele>969.0</ele><time>2026-03-28T11:44:39.999Z</time></trkpt><trkpt lat="44.8059021637652" lon="9.350679738361247"><ele>965.0</ele><time>2026-03-28T11:44:40.999Z</time></trkpt><trkpt lat="44.805876370546905" lon="9.350832175087707"><ele>961.0</ele><time>2026-03-28T11:44:41.999Z</time></trkpt><trkpt lat="44.80584954645139" lon="9.350990704375596"><ele>957.0</ele><time>2026-03-28T11:44:42.999Z</time></trkpt><trkpt lat="44.80582216011662" lon="9.351151810690531"><ele>953.0</ele><time>2026-03-28T11:44:43.999Z</time></trkpt><trkpt lat="44.80579368578238" lon="9.35131909319797"><ele>954.25</ele><time>2026-03-28T11:44:44.999Z</time></trkpt><trkpt lat="44.805764765190816" lon="9.351488997417944"><ele>955.5</ele><time>2026-03-28T11:44:45.999Z</time></trkpt><trkpt lat="44.80573754748643" lon="9.351647780812685"><ele>956.75</ele><time>2026-03-28T11:44:46.999Z</time></trkpt><trkpt lat="44.805713578464655" lon="9.35179712916198"><ele>958.0</ele><time>2026-03-28T11:44:47.999Z</time></trkpt><trkpt lat="44.805705106384394" lon="9.3519560170713"><ele>958.0</ele><time>2026-03-28T11:44:48.999Z</time></trkpt><trkpt lat="44.80572577973324" lon="9.352114383583466"><ele>958.0</ele><time>2026-03-28T11:44:49.999Z</time></trkpt><trkpt lat="44.80580113424626" lon="9.352239483434868"><ele>958.0</ele><time>2026-03-28T11:44:50.999Z</time></trkpt><trkpt lat="44.80585213219172" lon="9.3523626119777"><ele>958.0</ele><time>2026-03-28T11:44:51.999Z</time></trkpt><trkpt lat="44.80587548580815" lon="9.352506027396217"><ele>958.0</ele><time>2026-03-28T11:44:52.999Z</time></trkpt><trkpt lat="44.80585343632954" lon="9.3526631098045"><ele>957.25</ele><time>2026-03-28T11:44:53.999Z</time></trkpt><trkpt lat="44.80580020927954" lon="9.35281703782924"><ele>956.5</ele><time>2026-03-28T11:44:54.999Z</time></trkpt><trkpt lat="44.8057471073411" lon="9.352980036273943"><ele>955.75</ele><time>2026-03-28T11:44:55.999Z</time></trkpt><trkpt lat="44.80569646769141" lon="9.353136972924158"><ele>955.0</ele><time>2026-03-28T11:44:56.999Z</time></trkpt><trkpt lat="44.805635410477784" lon="9.353300214484992"><ele>955.25</ele><time>2026-03-28T11:44:57.999Z</time></trkpt><trkpt lat="44.805555459818606" lon="9.35346033121201"><ele>955.5</ele><time>2026-03-28T11:44:58.999Z</time></trkpt><trkpt lat="44.80546629504277" lon="9.353616625415759"><ele>955.75</ele><time>2026-03-28T11:44:59.999Z</time></trkpt><trkpt lat="44.80537132534899" lon="9.353775913149878"><ele>956.0</ele><time>2026-03-28T11:45:00.999Z</time></trkpt><trkpt lat="44.80527419228114" lon="9.353929827213072"><ele>956.0</ele><time>2026-03-28T11:45:01.999Z</time></trkpt><trkpt lat="44.80517252726782" lon="9.354065574458982"><ele>956.0</ele><time>2026-03-28T11:45:02.999Z</time></trkpt><trkpt lat="44.80506535051977" lon="9.354184027173947"><ele>956.0</ele><time>2026-03-28T11:45:03.999Z</time></trkpt><trkpt lat="44.80495787717539" lon="9.354297172303127"><ele>956.0</ele><time>2026-03-28T11:45:04.999Z</time></trkpt><trkpt lat="44.80485244967002" lon="9.354407168225697"><ele>953.5999999999999</ele><time>2026-03-28T11:45:05.999Z</time></trkpt><trkpt lat="44.804748918481174" lon="9.35451407865883"><ele>951.1999999999999</ele><time>2026-03-28T11:45:06.999Z</time></trkpt><trkpt lat="44.80465995846397" lon="9.354615988054235"><ele>948.8000000000001</ele><time>2026-03-28T11:45:07.999Z</time></trkpt><trkpt lat="44.80459201849978" lon="9.354714669879536"><ele>946.4000000000001</ele><time>2026-03-28T11:45:08.999Z</time></trkpt><trkpt lat="44.80454735266309" lon="9.354838745388586"><ele>944.0</ele><time>2026-03-28T11:45:09.999Z</time></trkpt><trkpt lat="44.80456102307982" lon="9.355004461959098"><ele>944.0</ele><time>2026-03-28T11:45:10.999Z</time></trkpt><trkpt lat="44.80458380637768" lon="9.355174071300004"><ele>944.0</ele><time>2026-03-28T11:45:12Z</time></trkpt><trkpt lat="44.80459196681147" lon="9.355352058978895"><ele>944.0</ele><time>2026-03-28T11:45:13Z</time></trkpt><trkpt lat="44.80458611819189" lon="9.355523601783618"><ele>944.0</ele><time>2026-03-28T11:45:14Z</time></trkpt><trkpt lat="44.804580379844936" lon="9.355695418583492"><ele>945.2</ele><time>2026-03-28T11:45:15Z</time></trkpt><trkpt lat="44.804571806388225" lon="9.355851684359113"><ele>946.4000000000001</ele><time>2026-03-28T11:45:16Z</time></trkpt><trkpt lat="44.80456180870761" lon="9.355998789716748"><ele>947.6</ele><time>2026-03-28T11:45:17Z</time></trkpt><trkpt lat="44.80454720115034" lon="9.356141685440935"><ele>948.8</ele><time>2026-03-28T11:45:18Z</time></trkpt><trkpt lat="44.80446549090751" lon="9.356245236392256"><ele>950.0</ele><time>2026-03-28T11:45:19Z</time></trkpt><trkpt lat="44.80434771127734" lon="9.356275100205615"><ele>945.4</ele><time>2026-03-28T11:45:20Z</time></trkpt><trkpt lat="44.80423354160561" lon="9.356320932508488"><ele>940.8</ele><time>2026-03-28T11:45:21Z</time></trkpt><trkpt lat="44.80413769626677" lon="9.356350019421779"><ele>936.2</ele><time>2026-03-28T11:45:22Z</time></trkpt><trkpt lat="44.80407712274505" lon="9.356415436684184"><ele>931.6</ele><time>2026-03-28T11:45:23Z</time></trkpt><trkpt lat="44.80404043247913" lon="9.35652918702602"><ele>927.0</ele><time>2026-03-28T11:45:24Z</time></trkpt><trkpt lat="44.80402799961776" lon="9.356673247888297"><ele>927.0</ele><time>2026-03-28T11:45:25Z</time></trkpt><trkpt lat="44.80400271329727" lon="9.356826369175257"><ele>927.0</ele><time>2026-03-28T11:45:26Z</time></trkpt><trkpt lat="44.80400201679166" lon="9.3569832486076"><ele>927.0</ele><time>2026-03-28T11:45:27Z</time></trkpt><trkpt lat="44.80400177200335" lon="9.357137097889135"><ele>927.0</ele><time>2026-03-28T11:45:28Z</time></trkpt><trkpt lat="44.80400192393274" lon="9.357296878627485"><ele>927.0</ele><time>2026-03-28T11:45:29Z</time></trkpt><trkpt lat="44.803943579407566" lon="9.357447255326266"><ele>926.75</ele><time>2026-03-28T11:45:30Z</time></trkpt><trkpt lat="44.80388339788982" lon="9.357598506610703"><ele>926.5</ele><time>2026-03-28T11:45:31Z</time></trkpt><trkpt lat="44.80382305481607" lon="9.357749219099734"><ele>926.25</ele><time>2026-03-28T11:45:32Z</time></trkpt><trkpt lat="44.803775526774395" lon="9.35790365160122"><ele>926.0</ele><time>2026-03-28T11:45:33Z</time></trkpt><trkpt lat="44.80371629528041" lon="9.358039748667908"><ele>926.4</ele><time>2026-03-28T11:45:34Z</time></trkpt><trkpt lat="44.803645037847346" lon="9.35815849374351"><ele>926.8</ele><time>2026-03-28T11:45:35Z</time></trkpt><trkpt lat="44.80358908816843" lon="9.358280619154495"><ele>927.1999999999999</ele><time>2026-03-28T11:45:36Z</time></trkpt><trkpt lat="44.80354968402312" lon="9.358408271316199"><ele>927.5999999999999</ele><time>2026-03-28T11:45:37Z</time></trkpt><trkpt lat="44.80349792014104" lon="9.358513068027632"><ele>928.0</ele><time>2026-03-28T11:45:38Z</time></trkpt><trkpt lat="44.80345028891676" lon="9.358608314674052"><ele>924.4999999999999</ele><time>2026-03-28T11:45:39Z</time></trkpt><trkpt lat="44.80340204806308" lon="9.358702120174122"><ele>921.0</ele><time>2026-03-28T11:45:40Z</time></trkpt><trkpt lat="44.803322665703746" lon="9.358751755963992"><ele>917.5</ele><time>2026-03-28T11:45:41Z</time></trkpt><trkpt lat="44.803234774096296" lon="9.35875940752994"><ele>914.0</ele><time>2026-03-28T11:45:42Z</time></trkpt><trkpt lat="44.80314632904803" lon="9.35874203522859"><ele>910.4999999999999</ele><time>2026-03-28T11:45:43Z</time></trkpt><trkpt lat="44.80305385689138" lon="9.358684234320572"><ele>907.0</ele><time>2026-03-28T11:45:44Z</time></trkpt><trkpt lat="44.80297006766426" lon="9.358612556980432"><ele>907.0</ele><time>2026-03-28T11:45:45Z</time></trkpt><trkpt lat="44.802879207428354" lon="9.358563566099384"><ele>907.0</ele><time>2026-03-28T11:45:46Z</time></trkpt><trkpt lat="44.802770884174706" lon="9.358553908259625"><ele>907.0</ele><time>2026-03-28T11:45:47Z</time></trkpt><trkpt lat="44.802648256867585" lon="9.358565955326958"><ele>907.0</ele><time>2026-03-28T11:45:48Z</time></trkpt><trkpt lat="44.80252028843408" lon="9.358582187194555"><ele>903.5</ele><time>2026-03-28T11:45:49Z</time></trkpt><trkpt lat="44.802388907863545" lon="9.358590917458649"><ele>900.0</ele><time>2026-03-28T11:45:50Z</time></trkpt><trkpt lat="44.80226053856371" lon="9.358596661931378"><ele>896.5</ele><time>2026-03-28T11:45:51Z</time></trkpt><trkpt lat="44.802133981003934" lon="9.358595446625012"><ele>893.0</ele><time>2026-03-28T11:45:52Z</time></trkpt><trkpt lat="44.80200526766676" lon="9.358593352185798"><ele>893.0</ele><time>2026-03-28T11:45:53Z</time></trkpt><trkpt lat="44.80187391156064" lon="9.358629320708596"><ele>893.0</ele><time>2026-03-28T11:45:54Z</time></trkpt><trkpt lat="44.801747493493636" lon="9.358666326473527"><ele>893.0</ele><time>2026-03-28T11:45:55Z</time></trkpt><trkpt lat="44.80163406399908" lon="9.35873876380472"><ele>893.0</ele><time>2026-03-28T11:45:56Z</time></trkpt><trkpt lat="44.80154251332415" lon="9.35885734116918"><ele>893.5</ele><time>2026-03-28T11:45:57Z</time></trkpt><trkpt lat="44.80146849075934" lon="9.358990101678254"><ele>894.0</ele><time>2026-03-28T11:45:58Z</time></trkpt><trkpt lat="44.801384682103475" lon="9.359106986245198"><ele>894.5</ele><time>2026-03-28T11:45:59Z</time></trkpt><trkpt lat="44.801308433414924" lon="9.359231892443445"><ele>895.0</ele><time>2026-03-28T11:46:00Z</time></trkpt><trkpt lat="44.80123514328022" lon="9.359349812479246"><ele>895.0</ele><time>2026-03-28T11:46:01Z</time></trkpt><trkpt lat="44.801135413336226" lon="9.359382870198274"><ele>895.0</ele><time>2026-03-28T11:46:02Z</time></trkpt><trkpt lat="44.801032762048465" lon="9.359345981318489"><ele>895.0</ele><time>2026-03-28T11:46:03Z</time></trkpt><trkpt lat="44.80093564146375" lon="9.359255250333923"><ele>895.0</ele><time>2026-03-28T11:46:04Z</time></trkpt><trkpt lat="44.80084383098219" lon="9.359160380175279"><ele>895.0</ele><time>2026-03-28T11:46:05Z</time></trkpt><trkpt lat="44.80074855731389" lon="9.359055464023369"><ele>893.25</ele><time>2026-03-28T11:46:05.999Z</time></trkpt><trkpt lat="44.80065295816371" lon="9.358952791038375"><ele>891.5</ele><time>2026-03-28T11:46:06.999Z</time></trkpt><trkpt lat="44.80055275615529" lon="9.358858959460765"><ele>889.75</ele><time>2026-03-28T11:46:07.999Z</time></trkpt><trkpt lat="44.80045077378153" lon="9.35876919644057"><ele>888.0</ele><time>2026-03-28T11:46:08.999Z</time></trkpt><trkpt lat="44.8003587761727" lon="9.358708040877893"><ele>885.5999999999999</ele><time>2026-03-28T11:46:09.999Z</time></trkpt><trkpt lat="44.80027030210272" lon="9.358671054099906"><ele>883.1999999999999</ele><time>2026-03-28T11:46:10.999Z</time></trkpt><trkpt lat="44.80016353697608" lon="9.35872868081252"><ele>880.8</ele><time>2026-03-28T11:46:11.999Z</time></trkpt><trkpt lat="44.800074301019" lon="9.358825989971958"><ele>878.4</ele><time>2026-03-28T11:46:12.999Z</time></trkpt><trkpt lat="44.799968525763916" lon="9.358897518690856"><ele>876.0</ele><time>2026-03-28T11:46:13.999Z</time></trkpt><trkpt lat="44.79985553658155" lon="9.358926524720356"><ele>876.0</ele><time>2026-03-28T11:46:14.999Z</time></trkpt><trkpt lat="44.799740850339845" lon="9.358896411152205"><ele>875.9999999999999</ele><time>2026-03-28T11:46:15.999Z</time></trkpt><trkpt lat="44.79963430129855" lon="9.358855024257785"><ele>875.9999999999999</ele><time>2026-03-28T11:46:16.999Z</time></trkpt><trkpt lat="44.79952854653992" lon="9.358838610256843"><ele>876.0</ele><time>2026-03-28T11:46:17.999Z</time></trkpt><trkpt lat="44.79942669975314" lon="9.358842341349334"><ele>876.0</ele><time>2026-03-28T11:46:18.999Z</time></trkpt><trkpt lat="44.799341055345316" lon="9.35892989942904"><ele>872.1999999999999</ele><time>2026-03-28T11:46:19.999Z</time></trkpt><trkpt lat="44.79926985063857" lon="9.359019049363582"><ele>868.3999999999999</ele><time>2026-03-28T11:46:20.999Z</time></trkpt><trkpt lat="44.79921284457744" lon="9.359130900013648"><ele>864.6</ele><time>2026-03-28T11:46:21.999Z</time></trkpt><trkpt lat="44.79920436458392" lon="9.359274715518156"><ele>860.8</ele><time>2026-03-28T11:46:22.999Z</time></trkpt><trkpt lat="44.79923687691354" lon="9.359419068043328"><ele>857.0</ele><time>2026-03-28T11:46:23.999Z</time></trkpt><trkpt lat="44.79931167652166" lon="9.3595308199106"><ele>856.6</ele><time>2026-03-28T11:46:24.999Z</time></trkpt><trkpt lat="44.799360089934396" lon="9.359654870032184"><ele>856.2</ele><time>2026-03-28T11:46:25.999Z</time></trkpt><trkpt lat="44.79936554073279" lon="9.359805103173175"><ele>855.8</ele><time>2026-03-28T11:46:26.999Z</time></trkpt><trkpt lat="44.799378940109854" lon="9.359967278412116"><ele>855.4</ele><time>2026-03-28T11:46:27.999Z</time></trkpt><trkpt lat="44.799355181551185" lon="9.360126432542911"><ele>855.0</ele><time>2026-03-28T11:46:28.999Z</time></trkpt><trkpt lat="44.79930321597849" lon="9.36027202657634"><ele>855.0</ele><time>2026-03-28T11:46:29.999Z</time></trkpt><trkpt lat="44.799211616942074" lon="9.36038034751785"><ele>855.0</ele><time>2026-03-28T11:46:30.999Z</time></trkpt><trkpt lat="44.79913760076752" lon="9.360521286262763"><ele>855.0</ele><time>2026-03-28T11:46:31.999Z</time></trkpt><trkpt lat="44.799048600939095" lon="9.360641169130027"><ele>855.0</ele><time>2026-03-28T11:46:32.999Z</time></trkpt><trkpt lat="44.79896762097785" lon="9.36076365639482"><ele>856.2</ele><time>2026-03-28T11:46:33.999Z</time></trkpt><trkpt lat="44.79888168199412" lon="9.360879441390969"><ele>857.4</ele><time>2026-03-28T11:46:34.999Z</time></trkpt><trkpt lat="44.79881781247805" lon="9.361011930050752"><ele>858.5999999999999</ele><time>2026-03-28T11:46:35.999Z</time></trkpt><trkpt lat="44.79875974221105" lon="9.361122093816036"><ele>859.8</ele><time>2026-03-28T11:46:36.999Z</time></trkpt><trkpt lat="44.79875385471791" lon="9.361271424194694"><ele>861.0</ele><time>2026-03-28T11:46:37.999Z</time></trkpt><trkpt lat="44.79878026029674" lon="9.361428738797251"><ele>861.0</ele><time>2026-03-28T11:46:38.999Z</time></trkpt><trkpt lat="44.79879569955389" lon="9.361576027929882"><ele>860.9999999999999</ele><time>2026-03-28T11:46:39.999Z</time></trkpt><trkpt lat="44.79879247680288" lon="9.36172088256652"><ele>860.9999999999999</ele><time>2026-03-28T11:46:40.999Z</time></trkpt><trkpt lat="44.79878468000581" lon="9.361862552136524"><ele>861.0</ele><time>2026-03-28T11:46:41.999Z</time></trkpt><trkpt lat="44.79877562520424" lon="9.362001659984111"><ele>861.0</ele><time>2026-03-28T11:46:42.999Z</time></trkpt><trkpt lat="44.79875912181166" lon="9.362122134574646"><ele>861.4</ele><time>2026-03-28T11:46:43.999Z</time></trkpt><trkpt lat="44.79871685153767" lon="9.362228005622251"><ele>861.8</ele><time>2026-03-28T11:46:44.999Z</time></trkpt><trkpt lat="44.798616845276065" lon="9.36226442436193"><ele>862.1999999999999</ele><time>2026-03-28T11:46:45.999Z</time></trkpt><trkpt lat="44.79851007511435" lon="9.36230374102717"><ele>862.5999999999999</ele><time>2026-03-28T11:46:46.999Z</time></trkpt><trkpt lat="44.79840350516471" lon="9.362318376349936"><ele>863.0</ele><time>2026-03-28T11:46:47.999Z</time></trkpt><trkpt lat="44.798300820478396" lon="9.362342221895275"><ele>857.0</ele><time>2026-03-28T11:46:48.999Z</time></trkpt><trkpt lat="44.79819367996057" lon="9.362371861744398"><ele>851.0</ele><time>2026-03-28T11:46:49.999Z</time></trkpt><trkpt lat="44.79809286503238" lon="9.362462220939863"><ele>845.0</ele><time>2026-03-28T11:46:50.999Z</time></trkpt><trkpt lat="44.79801065885945" lon="9.362593074672201"><ele>839.0</ele><time>2026-03-28T11:46:51.999Z</time></trkpt><trkpt lat="44.79794193013396" lon="9.362721323841006"><ele>839.0</ele><time>2026-03-28T11:46:52.999Z</time></trkpt><trkpt lat="44.79787395239069" lon="9.362847645434487"><ele>839.0</ele><time>2026-03-28T11:46:53.999Z</time></trkpt><trkpt lat="44.79780668275027" lon="9.362972592776668"><ele>839.0</ele><time>2026-03-28T11:46:54.999Z</time></trkpt><trkpt lat="44.79774228434934" lon="9.363092051744115"><ele>839.0</ele><time>2026-03-28T11:46:55.999Z</time></trkpt><trkpt lat="44.79768032861712" lon="9.36320697947733"><ele>839.0</ele><time>2026-03-28T11:46:56.999Z</time></trkpt><trkpt lat="44.7976214176057" lon="9.363316259423941"><ele>837.4285714285714</ele><time>2026-03-28T11:46:57.999Z</time></trkpt><trkpt lat="44.79757008891741" lon="9.363411473931055"><ele>835.8571428571429</ele><time>2026-03-28T11:46:58.999Z</time></trkpt><trkpt lat="44.797528320847874" lon="9.36348895376474"><ele>834.2857142857143</ele><time>2026-03-28T11:46:59.999Z</time></trkpt><trkpt lat="44.79748894194403" lon="9.363562001511491"><ele>832.7142857142858</ele><time>2026-03-28T11:47:00.999Z</time></trkpt><trkpt lat="44.79744937484091" lon="9.363635398580845"><ele>831.1428571428571</ele><time>2026-03-28T11:47:01.999Z</time></trkpt><trkpt lat="44.79740759982825" lon="9.363711632234825"><ele>829.5714285714287</ele><time>2026-03-28T11:47:02.999Z</time></trkpt><trkpt lat="44.79736490532121" lon="9.36378960538306"><ele>828.0</ele><time>2026-03-28T11:47:03.999Z</time></trkpt><trkpt lat="44.79729917859783" lon="9.363909642418637"><ele>828.0</ele><time>2026-03-28T11:47:05.999Z</time></trkpt><trkpt lat="44.797254016269584" lon="9.363992122655848"><ele>828.0</ele><time>2026-03-28T11:47:07.999Z</time></trkpt><trkpt lat="44.79721184181433" lon="9.364069145984198"><ele>828.0</ele><time>2026-03-28T11:47:11.999Z</time></trkpt><trkpt lat="44.797159096498355" lon="9.3641661302339"><ele>828.0</ele><time>2026-03-28T11:47:26Z</time></trkpt><trkpt lat="44.7971196107251" lon="9.364240306422483"><ele>828.0</ele><time>2026-03-28T11:47:27Z</time></trkpt><trkpt lat="44.79706911971944" lon="9.364337759077621"><ele>828.0</ele><time>2026-03-28T11:47:28Z</time></trkpt><trkpt lat="44.797018332219" lon="9.364451857851003"><ele>828.0</ele><time>2026-03-28T11:47:29Z</time></trkpt><trkpt lat="44.79696881201658" lon="9.364590260314024"><ele>828.0</ele><time>2026-03-28T11:47:30Z</time></trkpt><trkpt lat="44.796926781337106" lon="9.36475082781595"><ele>828.0</ele><time>2026-03-28T11:47:31Z</time></trkpt><trkpt lat="44.796893590942716" lon="9.36492037103424"><ele>828.0</ele><time>2026-03-28T11:47:32Z</time></trkpt><trkpt lat="44.796864037963246" lon="9.365101386874134"><ele>827.25</ele><time>2026-03-28T11:47:33Z</time></trkpt><trkpt lat="44.79683688240009" lon="9.365292023055554"><ele>826.5</ele><time>2026-03-28T11:47:34Z</time></trkpt><trkpt lat="44.796814075792774" lon="9.365479096354754"><ele>825.75</ele><time>2026-03-28T11:47:35Z</time></trkpt><trkpt lat="44.796791050196376" lon="9.36566885566089"><ele>825.0</ele><time>2026-03-28T11:47:36Z</time></trkpt><trkpt lat="44.79676217121143" lon="9.365867303579034"><ele>817.0</ele><time>2026-03-28T11:47:37Z</time></trkpt><trkpt lat="44.7966903787972" lon="9.366056699891367"><ele>809.0</ele><time>2026-03-28T11:47:38Z</time></trkpt><trkpt lat="44.796598314199514" lon="9.366235718578805"><ele>801.0</ele><time>2026-03-28T11:47:39Z</time></trkpt><trkpt lat="44.79649053750805" lon="9.366404552562841"><ele>801.0</ele><time>2026-03-28T11:47:40Z</time></trkpt><trkpt lat="44.796368572474094" lon="9.36656084082537"><ele>801.0</ele><time>2026-03-28T11:47:41Z</time></trkpt><trkpt lat="44.796242436799766" lon="9.366714669322736"><ele>801.0</ele><time>2026-03-28T11:47:42Z</time></trkpt><trkpt lat="44.796112407467376" lon="9.366866290074581"><ele>797.6666666666667</ele><time>2026-03-28T11:47:43Z</time></trkpt><trkpt lat="44.79598420383679" lon="9.367022712321717"><ele>794.3333333333334</ele><time>2026-03-28T11:47:44Z</time></trkpt><trkpt lat="44.79585376369407" lon="9.367175877723298"><ele>791.0</ele><time>2026-03-28T11:47:45Z</time></trkpt><trkpt lat="44.795727442719105" lon="9.367326800098429"><ele>791.0</ele><time>2026-03-28T11:47:46Z</time></trkpt><trkpt lat="44.795606894911074" lon="9.367478732094302"><ele>791.0</ele><time>2026-03-28T11:47:47Z</time></trkpt><trkpt lat="44.79548391600812" lon="9.367621352891032"><ele>791.0</ele><time>2026-03-28T11:47:48Z</time></trkpt><trkpt lat="44.79538337068626" lon="9.367790222982238"><ele>791.0</ele><time>2026-03-28T11:47:49Z</time></trkpt><trkpt lat="44.79531050255909" lon="9.367982983799896"><ele>791.0</ele><time>2026-03-28T11:47:50Z</time></trkpt><trkpt lat="44.79526504385467" lon="9.368184603944785"><ele>791.0</ele><time>2026-03-28T11:47:51Z</time></trkpt><trkpt lat="44.795247051508" lon="9.368388504758322"><ele>791.25</ele><time>2026-03-28T11:47:52Z</time></trkpt><trkpt lat="44.795262026525286" lon="9.368592184885367"><ele>791.5</ele><time>2026-03-28T11:47:53Z</time></trkpt><trkpt lat="44.79531932323754" lon="9.36875925098381"><ele>791.75</ele><time>2026-03-28T11:47:54Z</time></trkpt><trkpt lat="44.795358741764566" lon="9.368933074064746"><ele>792.0</ele><time>2026-03-28T11:47:55Z</time></trkpt><trkpt lat="44.795405854938224" lon="9.36909896879466"><ele>793.6</ele><time>2026-03-28T11:47:56Z</time></trkpt><trkpt lat="44.79544558269163" lon="9.369261402802138"><ele>795.2</ele><time>2026-03-28T11:47:57Z</time></trkpt><trkpt lat="44.79545151172838" lon="9.369406791860383"><ele>796.8</ele><time>2026-03-28T11:47:58Z</time></trkpt><trkpt lat="44.795441609956185" lon="9.369541157426568"><ele>798.4</ele><time>2026-03-28T11:47:59Z</time></trkpt><trkpt lat="44.79535439592029" lon="9.369630561337887"><ele>800.0</ele><time>2026-03-28T11:48:00Z</time></trkpt><trkpt lat="44.79526118871896" lon="9.369684027680723"><ele>793.5</ele><time>2026-03-28T11:48:01Z</time></trkpt><trkpt lat="44.79515217938453" lon="9.369742558207658"><ele>787.0</ele><time>2026-03-28T11:48:02Z</time></trkpt><trkpt lat="44.79503610089557" lon="9.369826574845044"><ele>780.5</ele><time>2026-03-28T11:48:03Z</time></trkpt><trkpt lat="44.794910046593216" lon="9.369899806545236"><ele>774.0</ele><time>2026-03-28T11:48:04Z</time></trkpt><trkpt lat="44.79476755053044" lon="9.36995272348217"><ele>774.0</ele><time>2026-03-28T11:48:05Z</time></trkpt><trkpt lat="44.794624423558844" lon="9.370032518796073"><ele>774.0</ele><time>2026-03-28T11:48:06Z</time></trkpt><trkpt lat="44.79447562515219" lon="9.370115258342725"><ele>774.0</ele><time>2026-03-28T11:48:07Z</time></trkpt><trkpt lat="44.79432264308614" lon="9.370199675079826"><ele>771.3333333333334</ele><time>2026-03-28T11:48:08Z</time></trkpt><trkpt lat="44.79416769591647" lon="9.370284929746367"><ele>768.6666666666667</ele><time>2026-03-28T11:48:09Z</time></trkpt><trkpt lat="44.794017004851504" lon="9.370368497079262"><ele>766.0</ele><time>2026-03-28T11:48:10Z</time></trkpt><trkpt lat="44.79388022385563" lon="9.370444350555248"><ele>766.0</ele><time>2026-03-28T11:48:11Z</time></trkpt><trkpt lat="44.793763239842214" lon="9.370508123888541"><ele>766.0</ele><time>2026-03-28T11:48:11.999Z</time></trkpt><trkpt lat="44.79366282078741" lon="9.370556682347015"><ele>766.0</ele><time>2026-03-28T11:48:12.999Z</time></trkpt><trkpt lat="44.79356941472008" lon="9.370602797461222"><ele>766.0</ele><time>2026-03-28T11:48:13.999Z</time></trkpt><trkpt lat="44.79348412115746" lon="9.370559521501237"><ele>766.0</ele><time>2026-03-28T11:48:14.999Z</time></trkpt><trkpt lat="44.793433603809845" lon="9.370449076241052"><ele>762.5</ele><time>2026-03-28T11:48:15.999Z</time></trkpt><trkpt lat="44.79343258635456" lon="9.37030201018885"><ele>759.0</ele><time>2026-03-28T11:48:16.999Z</time></trkpt><trkpt lat="44.79346405621855" lon="9.37013828534046"><ele>755.5</ele><time>2026-03-28T11:48:17.999Z</time></trkpt><trkpt lat="44.79348579583447" lon="9.369973324664212"><ele>752.0</ele><time>2026-03-28T11:48:18.999Z</time></trkpt><trkpt lat="44.79349500653976" lon="9.369793972269107"><ele>751.5</ele><time>2026-03-28T11:48:19.999Z</time></trkpt><trkpt lat="44.79349187404903" lon="9.369598774207207"><ele>751.0</ele><time>2026-03-28T11:48:20.999Z</time></trkpt><trkpt lat="44.79348355450813" lon="9.369396361319996"><ele>750.5</ele><time>2026-03-28T11:48:21.999Z</time></trkpt><trkpt lat="44.79346765653325" lon="9.36918270440271"><ele>750.0</ele><time>2026-03-28T11:48:22.999Z</time></trkpt><trkpt lat="44.79344827017951" lon="9.368962239945512"><ele>749.0</ele><time>2026-03-28T11:48:23.999Z</time></trkpt><trkpt lat="44.793447559530264" lon="9.368736055972226"><ele>748.0</ele><time>2026-03-28T11:48:24.999Z</time></trkpt><trkpt lat="44.793462354534604" lon="9.36851430532815"><ele>747.0</ele><time>2026-03-28T11:48:25.999Z</time></trkpt><trkpt lat="44.79348451209711" lon="9.368292747808477"><ele>747.0</ele><time>2026-03-28T11:48:26.999Z</time></trkpt><trkpt lat="44.79349712747432" lon="9.368076829683531"><ele>747.0</ele><time>2026-03-28T11:48:27.999Z</time></trkpt><trkpt lat="44.793509324425884" lon="9.367861099220265"><ele>747.0</ele><time>2026-03-28T11:48:28.999Z</time></trkpt><trkpt lat="44.793527093382295" lon="9.3676407875197"><ele>749.6666666666666</ele><time>2026-03-28T11:48:29.999Z</time></trkpt><trkpt lat="44.793553274313496" lon="9.367418266467297"><ele>752.3333333333333</ele><time>2026-03-28T11:48:30.999Z</time></trkpt><trkpt lat="44.79359446746604" lon="9.367194293212785"><ele>755.0</ele><time>2026-03-28T11:48:31.999Z</time></trkpt><trkpt lat="44.79364920029928" lon="9.366977163586208"><ele>755.0</ele><time>2026-03-28T11:48:32.999Z</time></trkpt><trkpt lat="44.79369247524875" lon="9.366766858634263"><ele>755.0</ele><time>2026-03-28T11:48:33.999Z</time></trkpt><trkpt lat="44.79371737342571" lon="9.366559340805434"><ele>755.0</ele><time>2026-03-28T11:48:34.999Z</time></trkpt><trkpt lat="44.79373604424147" lon="9.366357019320839"><ele>753.5</ele><time>2026-03-28T11:48:35.999Z</time></trkpt><trkpt lat="44.79378125473146" lon="9.366168973260086"><ele>752.0</ele><time>2026-03-28T11:48:36.999Z</time></trkpt><trkpt lat="44.79385497375809" lon="9.365993180031637"><ele>750.5</ele><time>2026-03-28T11:48:37.999Z</time></trkpt><trkpt lat="44.79393536603913" lon="9.365817141118283"><ele>749.0</ele><time>2026-03-28T11:48:38.999Z</time></trkpt><trkpt lat="44.79401354571316" lon="9.36562870706323"><ele>744.3333333333333</ele><time>2026-03-28T11:48:39.999Z</time></trkpt><trkpt lat="44.79408133038703" lon="9.36542628610755"><ele>739.6666666666666</ele><time>2026-03-28T11:48:40.999Z</time></trkpt><trkpt lat="44.79412881023297" lon="9.365208659579483"><ele>735.0</ele><time>2026-03-28T11:48:41.999Z</time></trkpt><trkpt lat="44.79416041012858" lon="9.364986918718836"><ele>735.0</ele><time>2026-03-28T11:48:42.999Z</time></trkpt><trkpt lat="44.79417271917533" lon="9.364756213247233"><ele>735.0</ele><time>2026-03-28T11:48:43.999Z</time></trkpt><trkpt lat="44.794168804455886" lon="9.36452615563894"><ele>735.0</ele><time>2026-03-28T11:48:44.999Z</time></trkpt><trkpt lat="44.794150307873785" lon="9.364293791408215"><ele>733.3333333333334</ele><time>2026-03-28T11:48:45.999Z</time></trkpt><trkpt lat="44.79412216443562" lon="9.36405914972551"><ele>731.6666666666667</ele><time>2026-03-28T11:48:46.999Z</time></trkpt><trkpt lat="44.79408213316202" lon="9.363830504982378"><ele>730.0</ele><time>2026-03-28T11:48:47.999Z</time></trkpt><trkpt lat="44.79403890641856" lon="9.363600800434844"><ele>730.0</ele><time>2026-03-28T11:48:48.999Z</time></trkpt><trkpt lat="44.7939927979943" lon="9.363366473157077"><ele>730.0</ele><time>2026-03-28T11:48:49.999Z</time></trkpt><trkpt lat="44.79394367270352" lon="9.363134278374051"><ele>730.0</ele><time>2026-03-28T11:48:50.999Z</time></trkpt><trkpt lat="44.79389526414395" lon="9.362899437721065"><ele>730.6666666666667</ele><time>2026-03-28T11:48:51.999Z</time></trkpt><trkpt lat="44.79385055504377" lon="9.362672888327294"><ele>731.3333333333334</ele><time>2026-03-28T11:48:52.999Z</time></trkpt><trkpt lat="44.79380848939094" lon="9.362461443691595"><ele>732.0</ele><time>2026-03-28T11:48:53.999Z</time></trkpt><trkpt lat="44.79376685730162" lon="9.362260679700967"><ele>732.25</ele><time>2026-03-28T11:48:54.999Z</time></trkpt><trkpt lat="44.79372329148013" lon="9.36206692796936"><ele>732.5</ele><time>2026-03-28T11:48:55.999Z</time></trkpt><trkpt lat="44.79367772072401" lon="9.36186939294555"><ele>732.75</ele><time>2026-03-28T11:48:56.999Z</time></trkpt><trkpt lat="44.79363276882381" lon="9.361669551492037"><ele>733.0</ele><time>2026-03-28T11:48:57.999Z</time></trkpt><trkpt lat="44.793592617759316" lon="9.361475871406695"><ele>733.5</ele><time>2026-03-28T11:48:58.999Z</time></trkpt><trkpt lat="44.79355543344951" lon="9.361288460281253"><ele>734.0</ele><time>2026-03-28T11:48:59.999Z</time></trkpt><trkpt lat="44.7935236720671" lon="9.361113144013052"><ele>734.5</ele><time>2026-03-28T11:49:00.999Z</time></trkpt><trkpt lat="44.793490342168894" lon="9.360952769963378"><ele>735.0</ele><time>2026-03-28T11:49:01.999Z</time></trkpt><trkpt lat="44.793443980965385" lon="9.36082305068475"><ele>731.75</ele><time>2026-03-28T11:49:02.999Z</time></trkpt><trkpt lat="44.79337845080653" lon="9.360710016972323"><ele>728.5</ele><time>2026-03-28T11:49:03.999Z</time></trkpt><trkpt lat="44.79327737737518" lon="9.360632845038424"><ele>725.25</ele><time>2026-03-28T11:49:04.999Z</time></trkpt><trkpt lat="44.793151864466886" lon="9.360615518040726"><ele>722.0</ele><time>2026-03-28T11:49:05.999Z</time></trkpt><trkpt lat="44.79303259520135" lon="9.360675065260763"><ele>722.0</ele><time>2026-03-28T11:49:06.999Z</time></trkpt><trkpt lat="44.792927943440446" lon="9.360765121539872"><ele>722.0</ele><time>2026-03-28T11:49:07.999Z</time></trkpt><trkpt lat="44.79282755832045" lon="9.36087493766115"><ele>722.0</ele><time>2026-03-28T11:49:08.999Z</time></trkpt><trkpt lat="44.79273724989174" lon="9.361003297256053"><ele>722.0</ele><time>2026-03-28T11:49:09.999Z</time></trkpt><trkpt lat="44.79265359394122" lon="9.36113049677963"><ele>720.5</ele><time>2026-03-28T11:49:10.999Z</time></trkpt><trkpt lat="44.79257135615348" lon="9.361260427889006"><ele>719.0</ele><time>2026-03-28T11:49:11.999Z</time></trkpt><trkpt lat="44.792491577169166" lon="9.361384083877493"><ele>717.5</ele><time>2026-03-28T11:49:12.999Z</time></trkpt><trkpt lat="44.792405822717335" lon="9.361501544645046"><ele>716.0</ele><time>2026-03-28T11:49:13.999Z</time></trkpt><trkpt lat="44.79230768800063" lon="9.361606632290938"><ele>715.4</ele><time>2026-03-28T11:49:14.999Z</time></trkpt><trkpt lat="44.79221475760492" lon="9.361699109677826"><ele>714.8</ele><time>2026-03-28T11:49:15.999Z</time></trkpt><trkpt lat="44.792115384585706" lon="9.36173102288217"><ele>714.1999999999999</ele><time>2026-03-28T11:49:16.999Z</time></trkpt><trkpt lat="44.792011764543524" lon="9.36172638327753"><ele>713.5999999999999</ele><time>2026-03-28T11:49:17.999Z</time></trkpt><trkpt lat="44.791905153247114" lon="9.361683338081374"><ele>713.0</ele><time>2026-03-28T11:49:18.999Z</time></trkpt><trkpt lat="44.791800270138275" lon="9.361599599190193"><ele>712.0</ele><time>2026-03-28T11:49:19.999Z</time></trkpt><trkpt lat="44.7917033775889" lon="9.361483999321257"><ele>711.0</ele><time>2026-03-28T11:49:20.999Z</time></trkpt><trkpt lat="44.7916194091413" lon="9.361359856978048"><ele>710.0</ele><time>2026-03-28T11:49:21.999Z</time></trkpt><trkpt lat="44.791546085727234" lon="9.36123717910416"><ele>709.0</ele><time>2026-03-28T11:49:22.999Z</time></trkpt><trkpt lat="44.79146578732981" lon="9.361106151217374"><ele>709.0</ele><time>2026-03-28T11:49:24Z</time></trkpt><trkpt lat="44.791377515809295" lon="9.36096927065672"><ele>709.0</ele><time>2026-03-28T11:49:25Z</time></trkpt><trkpt lat="44.79128774161068" lon="9.360828864469944"><ele>709.0</ele><time>2026-03-28T11:49:26Z</time></trkpt><trkpt lat="44.791204500533105" lon="9.360690081313912"><ele>709.0</ele><time>2026-03-28T11:49:27Z</time></trkpt><trkpt lat="44.79113039715825" lon="9.360539816333397"><ele>709.75</ele><time>2026-03-28T11:49:28Z</time></trkpt><trkpt lat="44.79107466458214" lon="9.360368487809392"><ele>710.5</ele><time>2026-03-28T11:49:29Z</time></trkpt><trkpt lat="44.79102548198147" lon="9.3601792103152"><ele>711.25</ele><time>2026-03-28T11:49:30Z</time></trkpt><trkpt lat="44.79095099708072" lon="9.359993375888221"><ele>712.0</ele><time>2026-03-28T11:49:31Z</time></trkpt><trkpt lat="44.790850018511186" lon="9.359816674992775"><ele>708.0</ele><time>2026-03-28T11:49:32Z</time></trkpt><trkpt lat="44.79073569959307" lon="9.359652695259589"><ele>704.0</ele><time>2026-03-28T11:49:33Z</time></trkpt><trkpt lat="44.790615291587144" lon="9.35949303412144"><ele>700.0</ele><time>2026-03-28T11:49:34Z</time></trkpt><trkpt lat="44.79048859196791" lon="9.359327899335241"><ele>700.0</ele><time>2026-03-28T11:49:35Z</time></trkpt><trkpt lat="44.79036447092304" lon="9.359152023357224"><ele>700.0</ele><time>2026-03-28T11:49:36Z</time></trkpt><trkpt lat="44.79024084484797" lon="9.358976697329707"><ele>700.0</ele><time>2026-03-28T11:49:37Z</time></trkpt><trkpt lat="44.790116731391215" lon="9.358815261978034"><ele>696.3333333333334</ele><time>2026-03-28T11:49:38Z</time></trkpt><trkpt lat="44.78998932776579" lon="9.35866619530909"><ele>692.6666666666666</ele><time>2026-03-28T11:49:39Z</time></trkpt><trkpt lat="44.78985076814511" lon="9.358543672623963"><ele>689.0</ele><time>2026-03-28T11:49:40Z</time></trkpt><trkpt lat="44.78970306286851" lon="9.358443982889476"><ele>689.0</ele><time>2026-03-28T11:49:41Z</time></trkpt><trkpt lat="44.78955092225012" lon="9.358380219440424"><ele>689.0</ele><time>2026-03-28T11:49:42Z</time></trkpt><trkpt lat="44.789392071280055" lon="9.358335093967534"><ele>689.0</ele><time>2026-03-28T11:49:43Z</time></trkpt><trkpt lat="44.78923648129859" lon="9.358390532254012"><ele>685.3333333333333</ele><time>2026-03-28T11:49:44Z</time></trkpt><trkpt lat="44.789075836292504" lon="9.358431417970088"><ele>681.6666666666666</ele><time>2026-03-28T11:49:45Z</time></trkpt><trkpt lat="44.78891633251503" lon="9.358492372249197"><ele>678.0</ele><time>2026-03-28T11:49:46Z</time></trkpt><trkpt lat="44.78876281234374" lon="9.35855883690188"><ele>678.0</ele><time>2026-03-28T11:49:47Z</time></trkpt><trkpt lat="44.78861619856669" lon="9.358628674249672"><ele>678.0</ele><time>2026-03-28T11:49:48Z</time></trkpt><trkpt lat="44.78848743876179" lon="9.358682106513896"><ele>678.0</ele><time>2026-03-28T11:49:49Z</time></trkpt><trkpt lat="44.788382465696536" lon="9.358706729292704"><ele>678.0</ele><time>2026-03-28T11:49:50Z</time></trkpt><trkpt lat="44.78828297597808" lon="9.358693669606199"><ele>676.25</ele><time>2026-03-28T11:49:51Z</time></trkpt><trkpt lat="44.78818948816096" lon="9.358590333354751"><ele>674.5</ele><time>2026-03-28T11:49:52Z</time></trkpt><trkpt lat="44.788102352803456" lon="9.358455466543004"><ele>672.75</ele><time>2026-03-28T11:49:53Z</time></trkpt><trkpt lat="44.78800452564946" lon="9.358320732325742"><ele>671.0</ele><time>2026-03-28T11:49:54Z</time></trkpt><trkpt lat="44.78790407463121" lon="9.358188155976528"><ele>671.0</ele><time>2026-03-28T11:49:55Z</time></trkpt><trkpt lat="44.787812301864044" lon="9.358056219476692"><ele>671.0</ele><time>2026-03-28T11:49:56Z</time></trkpt><trkpt lat="44.7877381734597" lon="9.357910723951749"><ele>671.0</ele><time>2026-03-28T11:49:57Z</time></trkpt><trkpt lat="44.787686418126725" lon="9.357747619395598"><ele>671.0</ele><time>2026-03-28T11:49:58Z</time></trkpt><trkpt lat="44.78766005623637" lon="9.357564509731015"><ele>667.25</ele><time>2026-03-28T11:49:59Z</time></trkpt><trkpt lat="44.78765184249457" lon="9.357370275221054"><ele>663.5</ele><time>2026-03-28T11:50:00Z</time></trkpt><trkpt lat="44.78764415579945" lon="9.357165638974198"><ele>659.75</ele><time>2026-03-28T11:50:01Z</time></trkpt><trkpt lat="44.78763396451405" lon="9.356966178777686"><ele>656.0</ele><time>2026-03-28T11:50:02Z</time></trkpt><trkpt lat="44.787623012868146" lon="9.356772781715977"><ele>655.25</ele><time>2026-03-28T11:50:03Z</time></trkpt><trkpt lat="44.78761199887703" lon="9.356583771087637"><ele>654.5</ele><time>2026-03-28T11:50:04Z</time></trkpt><trkpt lat="44.78759809869482" lon="9.356390004154362"><ele>653.75</ele><time>2026-03-28T11:50:05Z</time></trkpt><trkpt lat="44.787583981756875" lon="9.356195934760617"><ele>653.0</ele><time>2026-03-28T11:50:06Z</time></trkpt><trkpt lat="44.7875649694798" lon="9.35600835551241"><ele>653.0</ele><time>2026-03-28T11:50:07Z</time></trkpt><trkpt lat="44.787546575908124" lon="9.355823917132458"><ele>653.0</ele><time>2026-03-28T11:50:08Z</time></trkpt><trkpt lat="44.78752575188833" lon="9.35565697911874"><ele>653.0</ele><time>2026-03-28T11:50:09Z</time></trkpt><trkpt lat="44.78748614709256" lon="9.355514350653285"><ele>653.0</ele><time>2026-03-28T11:50:10Z</time></trkpt><trkpt lat="44.7874055427864" lon="9.355404087428898"><ele>653.5</ele><time>2026-03-28T11:50:11Z</time></trkpt><trkpt lat="44.78730369064286" lon="9.355323483667702"><ele>654.0</ele><time>2026-03-28T11:50:12Z</time></trkpt><trkpt lat="44.78716797018522" lon="9.355334041868431"><ele>654.5</ele><time>2026-03-28T11:50:13Z</time></trkpt><trkpt lat="44.78703512453183" lon="9.355398888006679"><ele>655.0</ele><time>2026-03-28T11:50:14Z</time></trkpt><trkpt lat="44.78690389957197" lon="9.355467224952536"><ele>651.25</ele><time>2026-03-28T11:50:15Z</time></trkpt><trkpt lat="44.78676526304881" lon="9.355539578155758"><ele>647.5</ele><time>2026-03-28T11:50:16Z</time></trkpt><trkpt lat="44.78662808579647" lon="9.355611171629544"><ele>643.75</ele><time>2026-03-28T11:50:17Z</time></trkpt><trkpt lat="44.78649643209835" lon="9.355679880604526"><ele>640.0</ele><time>2026-03-28T11:50:17.999Z</time></trkpt><trkpt lat="44.78636296582598" lon="9.35574947219657"><ele>640.0</ele><time>2026-03-28T11:50:18.999Z</time></trkpt><trkpt lat="44.786228791697056" lon="9.355818056041505"><ele>640.0</ele><time>2026-03-28T11:50:19.999Z</time></trkpt><trkpt lat="44.78609765965807" lon="9.35588508529397"><ele>640.0</ele><time>2026-03-28T11:50:20.999Z</time></trkpt><trkpt lat="44.785972615486344" lon="9.355980709321653"><ele>640.0</ele><time>2026-03-28T11:50:21.999Z</time></trkpt><trkpt lat="44.785841443481765" lon="9.356060847258817"><ele>638.5</ele><time>2026-03-28T11:50:22.999Z</time></trkpt><trkpt lat="44.785753787598686" lon="9.35622887553965"><ele>637.0</ele><time>2026-03-28T11:50:23.999Z</time></trkpt><trkpt lat="44.78565849637584" lon="9.356383513920148"><ele>635.5</ele><time>2026-03-28T11:50:24.999Z</time></trkpt><trkpt lat="44.785572406085436" lon="9.356546897483403"><ele>634.0</ele><time>2026-03-28T11:50:25.999Z</time></trkpt><trkpt lat="44.78547009296481" lon="9.356684043981929"><ele>633.0</ele><time>2026-03-28T11:50:26.999Z</time></trkpt><trkpt lat="44.78535021856582" lon="9.356793182839466"><ele>632.0</ele><time>2026-03-28T11:50:27.999Z</time></trkpt><trkpt lat="44.78522701258614" lon="9.356881544924716"><ele>631.0</ele><time>2026-03-28T11:50:28.999Z</time></trkpt><trkpt lat="44.7851130331955" lon="9.356958510197872"><ele>630.0</ele><time>2026-03-28T11:50:29.999Z</time></trkpt><trkpt lat="44.78501638965887" lon="9.357021634782415"><ele>628.6</ele><time>2026-03-28T11:50:30.999Z</time></trkpt><trkpt lat="44.784927423451265" lon="9.35706892574374"><ele>627.2</ele><time>2026-03-28T11:50:31.999Z</time></trkpt><trkpt lat="44.78484283421925" lon="9.357082693195448"><ele>625.8</ele><time>2026-03-28T11:50:32.999Z</time></trkpt><trkpt lat="44.78476394594534" lon="9.357004494106455"><ele>624.4</ele><time>2026-03-28T11:50:33.999Z</time></trkpt><trkpt lat="44.78469548403202" lon="9.35688874395378"><ele>623.0</ele><time>2026-03-28T11:50:34.999Z</time></trkpt><trkpt lat="44.78462361439462" lon="9.356762456102102"><ele>623.0</ele><time>2026-03-28T11:50:35.999Z</time></trkpt><trkpt lat="44.78454133219914" lon="9.356639120223747"><ele>623.0</ele><time>2026-03-28T11:50:36.999Z</time></trkpt><trkpt lat="44.78444574789341" lon="9.356535402451497"><ele>623.0</ele><time>2026-03-28T11:50:37.999Z</time></trkpt><trkpt lat="44.784337859157205" lon="9.356449874231092"><ele>623.0</ele><time>2026-03-28T11:50:38.999Z</time></trkpt><trkpt lat="44.78419824422702" lon="9.35642582505827"><ele>622.0</ele><time>2026-03-28T11:50:39.999Z</time></trkpt><trkpt lat="44.784057066361214" lon="9.356433625540392"><ele>621.0</ele><time>2026-03-28T11:50:40.999Z</time></trkpt><trkpt lat="44.783918087957225" lon="9.35644876224148"><ele>620.0</ele><time>2026-03-28T11:50:41.999Z</time></trkpt><trkpt lat="44.783778176716034" lon="9.356464000544273"><ele>619.0</ele><time>2026-03-28T11:50:42.999Z</time></trkpt><trkpt lat="44.783642587675764" lon="9.35648241999419"><ele>617.5</ele><time>2026-03-28T11:50:43.999Z</time></trkpt><trkpt lat="44.78351169820807" lon="9.356491300371593"><ele>616.0</ele><time>2026-03-28T11:50:44.999Z</time></trkpt><trkpt lat="44.783383755594144" lon="9.356494450753136"><ele>614.5</ele><time>2026-03-28T11:50:45.999Z</time></trkpt><trkpt lat="44.78326281647021" lon="9.356438389852658"><ele>613.0</ele><time>2026-03-28T11:50:46.999Z</time></trkpt><trkpt lat="44.78315348162475" lon="9.356357421099831"><ele>612.0</ele><time>2026-03-28T11:50:47.999Z</time></trkpt><trkpt lat="44.783049597632896" lon="9.356278695122821"><ele>611.0</ele><time>2026-03-28T11:50:48.999Z</time></trkpt><trkpt lat="44.78293519357634" lon="9.356258111596734"><ele>610.0</ele><time>2026-03-28T11:50:49.999Z</time></trkpt><trkpt lat="44.78281512545707" lon="9.356276618516793"><ele>609.0</ele><time>2026-03-28T11:50:50.999Z</time></trkpt><trkpt lat="44.7827134070598" lon="9.356364941781331"><ele>610.0</ele><time>2026-03-28T11:50:51.999Z</time></trkpt><trkpt lat="44.782654286912994" lon="9.356496234237232"><ele>611.0</ele><time>2026-03-28T11:50:52.999Z</time></trkpt><trkpt lat="44.7826628877596" lon="9.356658601532041"><ele>612.0</ele><time>2026-03-28T11:50:53.999Z</time></trkpt><trkpt lat="44.78273772791699" lon="9.356788156997538"><ele>613.0</ele><time>2026-03-28T11:50:54.999Z</time></trkpt><trkpt lat="44.78280393776026" lon="9.356925077875982"><ele>613.0</ele><time>2026-03-28T11:50:55.999Z</time></trkpt><trkpt lat="44.78285975690084" lon="9.357079872740071"><ele>613.0</ele><time>2026-03-28T11:50:56.999Z</time></trkpt><trkpt lat="44.782930744239906" lon="9.357229207373503"><ele>613.0</ele><time>2026-03-28T11:50:57.999Z</time></trkpt><trkpt lat="44.782999306905054" lon="9.35736993297171"><ele>613.0</ele><time>2026-03-28T11:50:58.999Z</time></trkpt><trkpt lat="44.783062628767425" lon="9.357502971774663"><ele>611.6</ele><time>2026-03-28T11:50:59.999Z</time></trkpt><trkpt lat="44.78311119587454" lon="9.357635448881567"><ele>610.1999999999999</ele><time>2026-03-28T11:51:00.999Z</time></trkpt><trkpt lat="44.78310061316885" lon="9.357756423145371"><ele>608.8</ele><time>2026-03-28T11:51:01.999Z</time></trkpt><trkpt lat="44.783072699234324" lon="9.357884883962956"><ele>607.4</ele><time>2026-03-28T11:51:02.999Z</time></trkpt><trkpt lat="44.78296053648816" lon="9.357959555879978"><ele>606.0</ele><time>2026-03-28T11:51:03.999Z</time></trkpt><trkpt lat="44.78286032094437" lon="9.358073575435467"><ele>603.75</ele><time>2026-03-28T11:51:04.999Z</time></trkpt><trkpt lat="44.78276035112197" lon="9.358187315757105"><ele>601.5</ele><time>2026-03-28T11:51:05.999Z</time></trkpt><trkpt lat="44.78266810824455" lon="9.358294663903767"><ele>599.25</ele><time>2026-03-28T11:51:06.999Z</time></trkpt><trkpt lat="44.78258402756322" lon="9.358405213740625"><ele>597.0</ele><time>2026-03-28T11:51:07.999Z</time></trkpt><trkpt lat="44.78251918569677" lon="9.358532602313948"><ele>595.5</ele><time>2026-03-28T11:51:08.999Z</time></trkpt><trkpt lat="44.78250380830937" lon="9.358681484134191"><ele>594.0</ele><time>2026-03-28T11:51:09.999Z</time></trkpt><trkpt lat="44.78255052843879" lon="9.358832140138626"><ele>592.5</ele><time>2026-03-28T11:51:10.999Z</time></trkpt><trkpt lat="44.782645430422875" lon="9.358950276353616"><ele>591.0</ele><time>2026-03-28T11:51:11.999Z</time></trkpt><trkpt lat="44.782732416245985" lon="9.35906683974883"><ele>591.0</ele><time>2026-03-28T11:51:12.999Z</time></trkpt><trkpt lat="44.782813421441375" lon="9.359173531833914"><ele>591.0</ele><time>2026-03-28T11:51:13.999Z</time></trkpt><trkpt lat="44.78288857894797" lon="9.359277030707323"><ele>591.0</ele><time>2026-03-28T11:51:14.999Z</time></trkpt><trkpt lat="44.782960853811325" lon="9.359378217920069"><ele>591.0</ele><time>2026-03-28T11:51:15.999Z</time></trkpt><trkpt lat="44.78299543019759" lon="9.359512419780774"><ele>591.0</ele><time>2026-03-28T11:51:16.999Z</time></trkpt><trkpt lat="44.78298315398919" lon="9.359665670700075"><ele>589.2</ele><time>2026-03-28T11:51:17.999Z</time></trkpt><trkpt lat="44.78294908864279" lon="9.35981080193335"><ele>587.4000000000001</ele><time>2026-03-28T11:51:18.999Z</time></trkpt><trkpt lat="44.78288607713796" lon="9.359932403199789"><ele>585.6</ele><time>2026-03-28T11:51:19.999Z</time></trkpt><trkpt lat="44.78281394264567" lon="9.360028938417036"><ele>583.8000000000001</ele><time>2026-03-28T11:51:20.999Z</time></trkpt><trkpt lat="44.782731634688425" lon="9.360103018909033"><ele>582.0</ele><time>2026-03-28T11:51:21.999Z</time></trkpt><trkpt lat="44.7826265328756" lon="9.36011867807035"><ele>580.5</ele><time>2026-03-28T11:51:22.999Z</time></trkpt><trkpt lat="44.78251803855777" lon="9.360089096500381"><ele>579.0</ele><time>2026-03-28T11:51:23.999Z</time></trkpt><trkpt lat="44.782408917824526" lon="9.360031288782151"><ele>577.5</ele><time>2026-03-28T11:51:24.999Z</time></trkpt><trkpt lat="44.782294075073594" lon="9.359970672605169"><ele>576.0</ele><time>2026-03-28T11:51:25.999Z</time></trkpt><trkpt lat="44.78217326706716" lon="9.359908197524584"><ele>576.0</ele><time>2026-03-28T11:51:26.999Z</time></trkpt><trkpt lat="44.78204509466965" lon="9.359845127352775"><ele>576.0</ele><time>2026-03-28T11:51:27.999Z</time></trkpt><trkpt lat="44.7819171202343" lon="9.35977982192572"><ele>576.0</ele><time>2026-03-28T11:51:28.999Z</time></trkpt><trkpt lat="44.78178994404077" lon="9.35972048042069"><ele>576.0</ele><time>2026-03-28T11:51:30Z</time></trkpt><trkpt lat="44.78166081968785" lon="9.359668770462116"><ele>575.0</ele><time>2026-03-28T11:51:31Z</time></trkpt><trkpt lat="44.781527963345575" lon="9.359618473119776"><ele>574.0</ele><time>2026-03-28T11:51:32Z</time></trkpt><trkpt lat="44.78139744674203" lon="9.359549357680923"><ele>573.0</ele><time>2026-03-28T11:51:33Z</time></trkpt><trkpt lat="44.78128746920816" lon="9.359433410366016"><ele>572.0</ele><time>2026-03-28T11:51:34Z</time></trkpt><trkpt lat="44.781202763298445" lon="9.359289879375881"><ele>572.0</ele><time>2026-03-28T11:51:35Z</time></trkpt><trkpt lat="44.78112387620197" lon="9.359140102523297"><ele>572.0</ele><time>2026-03-28T11:51:36Z</time></trkpt><trkpt lat="44.78103858596219" lon="9.358992491362587"><ele>572.0</ele><time>2026-03-28T11:51:37Z</time></trkpt><trkpt lat="44.78093150839109" lon="9.358890672645915"><ele>572.0</ele><time>2026-03-28T11:51:38Z</time></trkpt><trkpt lat="44.7808071598314" lon="9.358810007706527"><ele>571.25</ele><time>2026-03-28T11:51:39Z</time></trkpt><trkpt lat="44.780665581895306" lon="9.358786194197563"><ele>570.5</ele><time>2026-03-28T11:51:40Z</time></trkpt><trkpt lat="44.78053589814038" lon="9.358738781985016"><ele>569.75</ele><time>2026-03-28T11:51:41Z</time></trkpt><trkpt lat="44.780409100529916" lon="9.35865575316532"><ele>569.0</ele><time>2026-03-28T11:51:42Z</time></trkpt><trkpt lat="44.78028574060813" lon="9.358571251201282"><ele>566.25</ele><time>2026-03-28T11:51:43Z</time></trkpt><trkpt lat="44.78018123905628" lon="9.358439178786616"><ele>563.5</ele><time>2026-03-28T11:51:44Z</time></trkpt><trkpt lat="44.78009305595839" lon="9.358277390912516"><ele>560.75</ele><time>2026-03-28T11:51:45Z</time></trkpt><trkpt lat="44.78002623242787" lon="9.358095053398344"><ele>558.0</ele><time>2026-03-28T11:51:46Z</time></trkpt><trkpt lat="44.779971320517504" lon="9.357924388364395"><ele>558.0</ele><time>2026-03-28T11:51:47Z</time></trkpt><trkpt lat="44.77989347443619" lon="9.357778455289974"><ele>558.0</ele><time>2026-03-28T11:51:48Z</time></trkpt><trkpt lat="44.77979959486866" lon="9.357640393054833"><ele>558.0</ele><time>2026-03-28T11:51:49Z</time></trkpt><trkpt lat="44.77970578839467" lon="9.357498701177098"><ele>558.0</ele><time>2026-03-28T11:51:50Z</time></trkpt><trkpt lat="44.779608189762364" lon="9.357366627893914"><ele>558.0</ele><time>2026-03-28T11:51:51Z</time></trkpt><trkpt lat="44.77951003457208" lon="9.357244674470579"><ele>558.0</ele><time>2026-03-28T11:51:52Z</time></trkpt><trkpt lat="44.7793992708539" lon="9.357145736722801"><ele>558.0</ele><time>2026-03-28T11:51:53Z</time></trkpt><trkpt lat="44.7792779930221" lon="9.357039511934868"><ele>558.0</ele><time>2026-03-28T11:51:54Z</time></trkpt><trkpt lat="44.77913669642312" lon="9.356967047066902"><ele>556.5</ele><time>2026-03-28T11:51:55Z</time></trkpt><trkpt lat="44.77898550281893" lon="9.356928386650816"><ele>555.0</ele><time>2026-03-28T11:51:56Z</time></trkpt><trkpt lat="44.7788385827912" lon="9.356881685910942"><ele>553.5</ele><time>2026-03-28T11:51:57Z</time></trkpt><trkpt lat="44.77869927496655" lon="9.356835461403596"><ele>552.0</ele><time>2026-03-28T11:51:58Z</time></trkpt><trkpt lat="44.77856280596332" lon="9.35679669079202"><ele>549.75</ele><time>2026-03-28T11:51:59Z</time></trkpt><trkpt lat="44.778427859873" lon="9.356754914548011"><ele>547.5</ele><time>2026-03-28T11:52:00Z</time></trkpt><trkpt lat="44.778291657493476" lon="9.356710745227831"><ele>545.25</ele><time>2026-03-28T11:52:01Z</time></trkpt><trkpt lat="44.77815362190162" lon="9.356660178678831"><ele>543.0</ele><time>2026-03-28T11:52:02Z</time></trkpt><trkpt lat="44.7780109349697" lon="9.356653081588542"><ele>543.0</ele><time>2026-03-28T11:52:03Z</time></trkpt><trkpt lat="44.77787361768003" lon="9.35667005355451"><ele>543.0</ele><time>2026-03-28T11:52:04Z</time></trkpt><trkpt lat="44.77774508541055" lon="9.356685182484382"><ele>543.0</ele><time>2026-03-28T11:52:05Z</time></trkpt><trkpt lat="44.77762959726951" lon="9.356670547124097"><ele>543.0</ele><time>2026-03-28T11:52:06Z</time></trkpt><trkpt lat="44.77753490273003" lon="9.356576129726768"><ele>541.75</ele><time>2026-03-28T11:52:07Z</time></trkpt><trkpt lat="44.77745647835733" lon="9.356439610575983"><ele>540.5</ele><time>2026-03-28T11:52:08Z</time></trkpt><trkpt lat="44.777373919692714" lon="9.356298256733853"><ele>539.25</ele><time>2026-03-28T11:52:09Z</time></trkpt><trkpt lat="44.77728905192871" lon="9.35615033725716"><ele>538.0</ele><time>2026-03-28T11:52:10Z</time></trkpt><trkpt lat="44.77720563071402" lon="9.356007677943063"><ele>538.0</ele><time>2026-03-28T11:52:11Z</time></trkpt><trkpt lat="44.77711957280279" lon="9.355876012163755"><ele>538.0</ele><time>2026-03-28T11:52:12Z</time></trkpt><trkpt lat="44.77702538176345" lon="9.355767143527926"><ele>538.0</ele><time>2026-03-28T11:52:13Z</time></trkpt><trkpt lat="44.77690303875491" lon="9.355713831082857"><ele>538.0</ele><time>2026-03-28T11:52:14Z</time></trkpt><trkpt lat="44.776768367064996" lon="9.355677794972335"><ele>534.5</ele><time>2026-03-28T11:52:15Z</time></trkpt><trkpt lat="44.776626132448904" lon="9.355729164671768"><ele>531.0</ele><time>2026-03-28T11:52:16Z</time></trkpt><trkpt lat="44.77648489120255" lon="9.35572997112246"><ele>527.5</ele><time>2026-03-28T11:52:17Z</time></trkpt><trkpt lat="44.776349729006085" lon="9.35574634119766"><ele>524.0</ele><time>2026-03-28T11:52:18Z</time></trkpt><trkpt lat="44.77622085997565" lon="9.355749403903898"><ele>524.0</ele><time>2026-03-28T11:52:19Z</time></trkpt><trkpt lat="44.776090540486464" lon="9.355695190274234"><ele>524.0</ele><time>2026-03-28T11:52:20Z</time></trkpt><trkpt lat="44.77595454170084" lon="9.35563794542458"><ele>524.0</ele><time>2026-03-28T11:52:21Z</time></trkpt><trkpt lat="44.77582066871669" lon="9.35559168618802"><ele>524.0</ele><time>2026-03-28T11:52:22Z</time></trkpt><trkpt lat="44.77569203679947" lon="9.355543396936477"><ele>522.4</ele><time>2026-03-28T11:52:23Z</time></trkpt><trkpt lat="44.77556714675515" lon="9.355496617665171"><ele>520.8</ele><time>2026-03-28T11:52:23.999Z</time></trkpt><trkpt lat="44.775458690402886" lon="9.355431698420647"><ele>519.2</ele><time>2026-03-28T11:52:24.999Z</time></trkpt><trkpt lat="44.775365907282236" lon="9.355400620759188"><ele>517.6</ele><time>2026-03-28T11:52:25.999Z</time></trkpt><trkpt lat="44.77531226871534" lon="9.355319226491675"><ele>516.0</ele><time>2026-03-28T11:52:26.999Z</time></trkpt><trkpt lat="44.77529335958202" lon="9.355195871982248"><ele>516.0</ele><time>2026-03-28T11:52:27.999Z</time></trkpt><trkpt lat="44.77529944945075" lon="9.355055020277577"><ele>516.0</ele><time>2026-03-28T11:52:28.999Z</time></trkpt><trkpt lat="44.775285822717265" lon="9.3549148418906"><ele>516.0</ele><time>2026-03-28T11:52:29.999Z</time></trkpt><trkpt lat="44.775247232999696" lon="9.354786063941106"><ele>516.0</ele><time>2026-03-28T11:52:30.999Z</time></trkpt><trkpt lat="44.77518992560285" lon="9.354679045146602"><ele>516.0</ele><time>2026-03-28T11:52:31.999Z</time></trkpt><trkpt lat="44.775114118268" lon="9.354600811616022"><ele>513.2</ele><time>2026-03-28T11:52:32.999Z</time></trkpt><trkpt lat="44.7750277396573" lon="9.354571770096694"><ele>510.40000000000003</ele><time>2026-03-28T11:52:33.999Z</time></trkpt><trkpt lat="44.77494936731105" lon="9.354543753666645"><ele>507.6</ele><time>2026-03-28T11:52:34.999Z</time></trkpt><trkpt lat="44.77484970155086" lon="9.354634049957136"><ele>504.8</ele><time>2026-03-28T11:52:35.999Z</time></trkpt><trkpt lat="44.77477613690465" lon="9.354746707867674"><ele>502.0</ele><time>2026-03-28T11:52:36.999Z</time></trkpt><trkpt lat="44.77472857186324" lon="9.35490693588697"><ele>502.0</ele><time>2026-03-28T11:52:37.999Z</time></trkpt><trkpt lat="44.774718306517904" lon="9.355077872680026"><ele>502.0</ele><time>2026-03-28T11:52:38.999Z</time></trkpt><trkpt lat="44.774744508047505" lon="9.355245970464058"><ele>502.0</ele><time>2026-03-28T11:52:39.999Z</time></trkpt><trkpt lat="44.77478368112275" lon="9.355400911862183"><ele>502.0</ele><time>2026-03-28T11:52:40.999Z</time></trkpt><trkpt lat="44.774822251329184" lon="9.35555605792886"><ele>501.25</ele><time>2026-03-28T11:52:41.999Z</time></trkpt><trkpt lat="44.77486130579399" lon="9.355716441607674"><ele>500.5</ele><time>2026-03-28T11:52:42.999Z</time></trkpt><trkpt lat="44.77490144905977" lon="9.355883187203341"><ele>499.75</ele><time>2026-03-28T11:52:43.999Z</time></trkpt><trkpt lat="44.77494321905223" lon="9.35605668990535"><ele>499.0</ele><time>2026-03-28T11:52:44.999Z</time></trkpt><trkpt lat="44.77498549646579" lon="9.356232300237426"><ele>498.0</ele><time>2026-03-28T11:52:45.999Z</time></trkpt><trkpt lat="44.77502870349504" lon="9.356411772018376"><ele>497.0</ele><time>2026-03-28T11:52:46.999Z</time></trkpt><trkpt lat="44.77507285496421" lon="9.356595166799229"><ele>496.0</ele><time>2026-03-28T11:52:47.999Z</time></trkpt><trkpt lat="44.77511808304902" lon="9.356783033051022"><ele>495.0</ele><time>2026-03-28T11:52:48.999Z</time></trkpt><trkpt lat="44.775163807260455" lon="9.356972674309743"><ele>496.25</ele><time>2026-03-28T11:52:49.999Z</time></trkpt><trkpt lat="44.775205492633276" lon="9.357153692850936"><ele>497.5</ele><time>2026-03-28T11:52:50.999Z</time></trkpt><trkpt lat="44.77523994812635" lon="9.357325483642626"><ele>498.75</ele><time>2026-03-28T11:52:51.999Z</time></trkpt><trkpt lat="44.77527785281506" lon="9.357501176965183"><ele>500.0</ele><time>2026-03-28T11:52:52.999Z</time></trkpt><trkpt lat="44.775262287159975" lon="9.357693313822207"><ele>500.0</ele><time>2026-03-28T11:52:53.999Z</time></trkpt><trkpt lat="44.77525456898659" lon="9.357872132549131"><ele>500.0</ele><time>2026-03-28T11:52:54.999Z</time></trkpt><trkpt lat="44.7752600945214" lon="9.358044598587854"><ele>500.0</ele><time>2026-03-28T11:52:55.999Z</time></trkpt><trkpt lat="44.775246079544104" lon="9.358200622911635"><ele>500.0</ele><time>2026-03-28T11:52:56.999Z</time></trkpt><trkpt lat="44.775271850816694" lon="9.358346203863105"><ele>498.25</ele><time>2026-03-28T11:52:57.999Z</time></trkpt><trkpt lat="44.775367873293504" lon="9.358459446720518"><ele>496.5</ele><time>2026-03-28T11:52:58.999Z</time></trkpt><trkpt lat="44.77548716816396" lon="9.358508807900522"><ele>494.75</ele><time>2026-03-28T11:52:59.999Z</time></trkpt><trkpt lat="44.77560661335842" lon="9.35857142254182"><ele>493.0</ele><time>2026-03-28T11:53:00.999Z</time></trkpt><trkpt lat="44.775710280851" lon="9.358688104700258"><ele>493.0</ele><time>2026-03-28T11:53:01.999Z</time></trkpt><trkpt lat="44.77580687662472" lon="9.358838908603376"><ele>493.0</ele><time>2026-03-28T11:53:02.999Z</time></trkpt><trkpt lat="44.775903401962246" lon="9.359002650400877"><ele>493.0</ele><time>2026-03-28T11:53:03.999Z</time></trkpt><trkpt lat="44.77599941816981" lon="9.359172884782042"><ele>493.0</ele><time>2026-03-28T11:53:04.999Z</time></trkpt><trkpt lat="44.77609372352872" lon="9.359344702050079"><ele>493.0</ele><time>2026-03-28T11:53:05.999Z</time></trkpt><trkpt lat="44.77618440880736" lon="9.359513819544581"><ele>493.0</ele><time>2026-03-28T11:53:06.999Z</time></trkpt><trkpt lat="44.776274017707166" lon="9.35968197686264"><ele>491.75</ele><time>2026-03-28T11:53:07.999Z</time></trkpt><trkpt lat="44.776370906328324" lon="9.359831068634172"><ele>490.5</ele><time>2026-03-28T11:53:08.999Z</time></trkpt><trkpt lat="44.776484918434136" lon="9.359955359301349"><ele>489.25</ele><time>2026-03-28T11:53:09.999Z</time></trkpt><trkpt lat="44.77661363561727" lon="9.360052116545965"><ele>488.0</ele><time>2026-03-28T11:53:10.999Z</time></trkpt><trkpt lat="44.77674501164415" lon="9.360125534262057"><ele>488.0</ele><time>2026-03-28T11:53:11.999Z</time></trkpt><trkpt lat="44.77685079505942" lon="9.360204250906506"><ele>487.99999999999994</ele><time>2026-03-28T11:53:12.999Z</time></trkpt><trkpt lat="44.776928759780965" lon="9.36030193468965"><ele>487.99999999999994</ele><time>2026-03-28T11:53:13.999Z</time></trkpt><trkpt lat="44.776981983327815" lon="9.3604084679688"><ele>488.0</ele><time>2026-03-28T11:53:14.999Z</time></trkpt><trkpt lat="44.77700262013574" lon="9.360518211542619"><ele>488.0</ele><time>2026-03-28T11:53:15.999Z</time></trkpt><trkpt lat="44.77698774473288" lon="9.360641293034062"><ele>487.0</ele><time>2026-03-28T11:53:16.999Z</time></trkpt><trkpt lat="44.77694445676171" lon="9.360770593462542"><ele>486.0</ele><time>2026-03-28T11:53:17.999Z</time></trkpt><trkpt lat="44.77688044538083" lon="9.360904687094932"><ele>485.0</ele><time>2026-03-28T11:53:18.999Z</time></trkpt><trkpt lat="44.77678503035418" lon="9.361020072247575"><ele>484.0</ele><time>2026-03-28T11:53:19.999Z</time></trkpt><trkpt lat="44.77669309277923" lon="9.361153831455102"><ele>484.0</ele><time>2026-03-28T11:53:20.999Z</time></trkpt><trkpt lat="44.77662192497151" lon="9.361302089655533"><ele>484.0</ele><time>2026-03-28T11:53:21.999Z</time></trkpt><trkpt lat="44.776542840401234" lon="9.361420193812178"><ele>484.0</ele><time>2026-03-28T11:53:22.999Z</time></trkpt><trkpt lat="44.776524716945765" lon="9.361591280292222"><ele>484.0</ele><time>2026-03-28T11:53:23.999Z</time></trkpt><trkpt lat="44.776547561781534" lon="9.36174842041432"><ele>482.5</ele><time>2026-03-28T11:53:24.999Z</time></trkpt><trkpt lat="44.776617214111226" lon="9.361874288912151"><ele>481.0</ele><time>2026-03-28T11:53:25.999Z</time></trkpt><trkpt lat="44.77670666930148" lon="9.361985452053572"><ele>479.5</ele><time>2026-03-28T11:53:26.999Z</time></trkpt><trkpt lat="44.77681774036428" lon="9.362071200049533"><ele>478.0</ele><time>2026-03-28T11:53:27.999Z</time></trkpt><trkpt lat="44.7769019653703" lon="9.362186957817228"><ele>480.5</ele><time>2026-03-28T11:53:28.999Z</time></trkpt><trkpt lat="44.776987996366465" lon="9.362280747803835"><ele>483.0</ele><time>2026-03-28T11:53:29.999Z</time></trkpt><trkpt lat="44.77700098483269" lon="9.362443137004906"><ele>485.5</ele><time>2026-03-28T11:53:30.999Z</time></trkpt><trkpt lat="44.776969932955744" lon="9.362605784936262"><ele>488.0</ele><time>2026-03-28T11:53:31.999Z</time></trkpt><trkpt lat="44.77694011472371" lon="9.362783014906524"><ele>488.0</ele><time>2026-03-28T11:53:32.999Z</time></trkpt><trkpt lat="44.776910343431496" lon="9.362960903767998"><ele>488.0</ele><time>2026-03-28T11:53:33.999Z</time></trkpt><trkpt lat="44.77688038656044" lon="9.363146870590967"><ele>488.0</ele><time>2026-03-28T11:53:34.999Z</time></trkpt><trkpt lat="44.7768487116724" lon="9.363341104788322"><ele>488.0</ele><time>2026-03-28T11:53:36Z</time></trkpt><trkpt lat="44.776818413270696" lon="9.363540303429597"><ele>483.0</ele><time>2026-03-28T11:53:37Z</time></trkpt><trkpt lat="44.776788014227975" lon="9.363732066260784"><ele>478.0</ele><time>2026-03-28T11:53:38Z</time></trkpt><trkpt lat="44.77674936063742" lon="9.363921643903153"><ele>473.0</ele><time>2026-03-28T11:53:39Z</time></trkpt><trkpt lat="44.77668524906109" lon="9.364111250281804"><ele>468.0</ele><time>2026-03-28T11:53:40Z</time></trkpt><trkpt lat="44.77659567369282" lon="9.364287275749263"><ele>468.0</ele><time>2026-03-28T11:53:41Z</time></trkpt><trkpt lat="44.776498761712745" lon="9.364470532177736"><ele>468.0</ele><time>2026-03-28T11:53:42Z</time></trkpt><trkpt lat="44.77640381317214" lon="9.364647953171824"><ele>468.0</ele><time>2026-03-28T11:53:43Z</time></trkpt><trkpt lat="44.77631392636255" lon="9.364815915568476"><ele>468.5</ele><time>2026-03-28T11:53:44Z</time></trkpt><trkpt lat="44.77622644996259" lon="9.36497937394286"><ele>469.0</ele><time>2026-03-28T11:53:45Z</time></trkpt><trkpt lat="44.77613882019257" lon="9.365143118987238"><ele>469.5</ele><time>2026-03-28T11:53:46Z</time></trkpt><trkpt lat="44.77605258495645" lon="9.365307968616484"><ele>470.0</ele><time>2026-03-28T11:53:47Z</time></trkpt><trkpt lat="44.77597494820277" lon="9.36544401431281"><ele>467.0</ele><time>2026-03-28T11:53:48Z</time></trkpt><trkpt lat="44.775908026330654" lon="9.36554336166835"><ele>464.0</ele><time>2026-03-28T11:53:49Z</time></trkpt><trkpt lat="44.775834123420715" lon="9.365591007020816"><ele>461.0</ele><time>2026-03-28T11:53:50Z</time></trkpt><trkpt lat="44.77575295015403" lon="9.365604249851367"><ele>458.0</ele><time>2026-03-28T11:53:51Z</time></trkpt><trkpt lat="44.77566475942781" lon="9.365522834390712"><ele>455.0</ele><time>2026-03-28T11:53:52Z</time></trkpt><trkpt lat="44.77561081006403" lon="9.365396476302703"><ele>455.0</ele><time>2026-03-28T11:53:53Z</time></trkpt><trkpt lat="44.77559126058125" lon="9.365227599211963"><ele>455.0</ele><time>2026-03-28T11:53:54Z</time></trkpt><trkpt lat="44.7755430968017" lon="9.365069037518715"><ele>455.0</ele><time>2026-03-28T11:53:55Z</time></trkpt><trkpt lat="44.77543954397868" lon="9.364948554116879"><ele>455.0</ele><time>2026-03-28T11:53:56Z</time></trkpt><trkpt lat="44.77531134809557" lon="9.36485335175942"><ele>452.75</ele><time>2026-03-28T11:53:57Z</time></trkpt><trkpt lat="44.775180576071264" lon="9.364805167183375"><ele>450.5</ele><time>2026-03-28T11:53:58Z</time></trkpt><trkpt lat="44.775079164775505" lon="9.364672929469608"><ele>448.25</ele><time>2026-03-28T11:53:59Z</time></trkpt><trkpt lat="44.77499965321221" lon="9.364495267276457"><ele>446.0</ele><time>2026-03-28T11:54:00Z</time></trkpt><trkpt lat="44.77493184279541" lon="9.364308973783917"><ele>446.0</ele><time>2026-03-28T11:54:01Z</time></trkpt><trkpt lat="44.77486559452795" lon="9.364121340926483"><ele>446.0</ele><time>2026-03-28T11:54:02Z</time></trkpt><trkpt lat="44.77479787833759" lon="9.363946958900456"><ele>446.0</ele><time>2026-03-28T11:54:03Z</time></trkpt><trkpt lat="44.77470853002297" lon="9.363805748532933"><ele>446.0</ele><time>2026-03-28T11:54:04Z</time></trkpt><trkpt lat="44.77458339061987" lon="9.363714486855512"><ele>447.0</ele><time>2026-03-28T11:54:05Z</time></trkpt><trkpt lat="44.774441700109705" lon="9.363653547839874"><ele>448.0</ele><time>2026-03-28T11:54:06Z</time></trkpt><trkpt lat="44.77429796344097" lon="9.363581002453746"><ele>449.0</ele><time>2026-03-28T11:54:07Z</time></trkpt><trkpt lat="44.774155196691154" lon="9.363501528607795"><ele>446.5</ele><time>2026-03-28T11:54:08Z</time></trkpt><trkpt lat="44.774011812303826" lon="9.363423628517046"><ele>444.0</ele><time>2026-03-28T11:54:09Z</time></trkpt><trkpt lat="44.77386807040277" lon="9.363368523915561"><ele>441.5</ele><time>2026-03-28T11:54:10Z</time></trkpt><trkpt lat="44.77372345577605" lon="9.363359256092942"><ele>439.0</ele><time>2026-03-28T11:54:11Z</time></trkpt><trkpt lat="44.773580008017355" lon="9.363424839402615"><ele>435.75</ele><time>2026-03-28T11:54:12Z</time></trkpt><trkpt lat="44.7734496946175" lon="9.363500415728412"><ele>432.5</ele><time>2026-03-28T11:54:13Z</time></trkpt><trkpt lat="44.77332753212757" lon="9.363571265157422"><ele>429.25</ele><time>2026-03-28T11:54:14Z</time></trkpt><trkpt lat="44.7732081876409" lon="9.363638711773532"><ele>426.0</ele><time>2026-03-28T11:54:15Z</time></trkpt><trkpt lat="44.77309971247932" lon="9.363711588799665"><ele>426.0</ele><time>2026-03-28T11:54:16Z</time></trkpt><trkpt lat="44.77301699920057" lon="9.363792180424783"><ele>426.0</ele><time>2026-03-28T11:54:17Z</time></trkpt><trkpt lat="44.772957143823994" lon="9.363917557492123"><ele>426.0</ele><time>2026-03-28T11:54:18Z</time></trkpt><trkpt lat="44.772967029186475" lon="9.364090414879938"><ele>426.0</ele><time>2026-03-28T11:54:19Z</time></trkpt><trkpt lat="44.77300189211026" lon="9.364253483882338"><ele>426.25</ele><time>2026-03-28T11:54:20Z</time></trkpt><trkpt lat="44.773040493045" lon="9.364417519783862"><ele>426.5</ele><time>2026-03-28T11:54:21Z</time></trkpt><trkpt lat="44.773078957217926" lon="9.36457619311132"><ele>426.75</ele><time>2026-03-28T11:54:22Z</time></trkpt><trkpt lat="44.77311333473167" lon="9.364728522501741"><ele>427.0</ele><time>2026-03-28T11:54:23Z</time></trkpt><trkpt lat="44.773139064107504" lon="9.36487179154834"><ele>426.5</ele><time>2026-03-28T11:54:24Z</time></trkpt><trkpt lat="44.77315181615958" lon="9.365011537078356"><ele>426.0</ele><time>2026-03-28T11:54:25Z</time></trkpt><trkpt lat="44.77309639163442" lon="9.365144845014989"><ele>425.5</ele><time>2026-03-28T11:54:26Z</time></trkpt><trkpt lat="44.77301933285256" lon="9.365266186274278"><ele>425.0</ele><time>2026-03-28T11:54:26.999Z</time></trkpt><trkpt lat="44.772943763734496" lon="9.365409966964698"><ele>424.0</ele><time>2026-03-28T11:54:27.999Z</time></trkpt><trkpt lat="44.7728728872757" lon="9.365546775397082"><ele>423.0</ele><time>2026-03-28T11:54:28.999Z</time></trkpt><trkpt lat="44.77280658141554" lon="9.36567842098035"><ele>422.0</ele><time>2026-03-28T11:54:29.999Z</time></trkpt><trkpt lat="44.772742367462456" lon="9.365806417107247"><ele>421.0</ele><time>2026-03-28T11:54:30.999Z</time></trkpt><trkpt lat="44.77268262743819" lon="9.365946714907665"><ele>418.5</ele><time>2026-03-28T11:54:31.999Z</time></trkpt><trkpt lat="44.77264510958713" lon="9.366108648950547"><ele>416.0</ele><time>2026-03-28T11:54:32.999Z</time></trkpt><trkpt lat="44.77265383612478" lon="9.366274361672607"><ele>413.5</ele><time>2026-03-28T11:54:33.999Z</time></trkpt><trkpt lat="44.7726486128982" lon="9.36644126096249"><ele>411.0</ele><time>2026-03-28T11:54:34.999Z</time></trkpt><trkpt lat="44.772645254450126" lon="9.36659789667798"><ele>410.4</ele><time>2026-03-28T11:54:35.999Z</time></trkpt><trkpt lat="44.77264899401084" lon="9.366739251389022"><ele>409.8</ele><time>2026-03-28T11:54:36.999Z</time></trkpt><trkpt lat="44.77265443829557" lon="9.366873324302228"><ele>409.2</ele><time>2026-03-28T11:54:37.999Z</time></trkpt><trkpt lat="44.77271743890941" lon="9.36697588560537"><ele>408.59999999999997</ele><time>2026-03-28T11:54:38.999Z</time></trkpt><trkpt lat="44.77281444308537" lon="9.367013037840856"><ele>408.0</ele><time>2026-03-28T11:54:39.999Z</time></trkpt><trkpt lat="44.77290416176998" lon="9.36706278592538"><ele>408.59999999999997</ele><time>2026-03-28T11:54:40.999Z</time></trkpt><trkpt lat="44.77299483701425" lon="9.367126265787464"><ele>409.2</ele><time>2026-03-28T11:54:41.999Z</time></trkpt><trkpt lat="44.77307353959258" lon="9.367228175551595"><ele>409.8</ele><time>2026-03-28T11:54:42.999Z</time></trkpt><trkpt lat="44.77315308242663" lon="9.367322951642569"><ele>410.4</ele><time>2026-03-28T11:54:43.999Z</time></trkpt><trkpt lat="44.77317447545654" lon="9.367467017411032"><ele>411.0</ele><time>2026-03-28T11:54:44.999Z</time></trkpt><trkpt lat="44.77319543087034" lon="9.367604493874477"><ele>411.0</ele><time>2026-03-28T11:54:45.999Z</time></trkpt><trkpt lat="44.77321379277932" lon="9.367743099180366"><ele>411.0</ele><time>2026-03-28T11:54:46.999Z</time></trkpt><trkpt lat="44.77322245348091" lon="9.36786972713309"><ele>411.0</ele><time>2026-03-28T11:54:47.999Z</time></trkpt><trkpt lat="44.77319785092598" lon="9.367981844288956"><ele>411.0</ele><time>2026-03-28T11:54:48.999Z</time></trkpt><trkpt lat="44.77314656130696" lon="9.368090485689214"><ele>411.0</ele><time>2026-03-28T11:54:49.999Z</time></trkpt><trkpt lat="44.77309270997813" lon="9.368208004326002"><ele>412.20000000000005</ele><time>2026-03-28T11:54:50.999Z</time></trkpt><trkpt lat="44.77301739688329" lon="9.368295694879352"><ele>413.40000000000003</ele><time>2026-03-28T11:54:51.999Z</time></trkpt><trkpt lat="44.77295019124052" lon="9.368404917741408"><ele>414.6</ele><time>2026-03-28T11:54:52.999Z</time></trkpt><trkpt lat="44.772878681553" lon="9.368521564708086"><ele>415.8</ele><time>2026-03-28T11:54:53.999Z</time></trkpt><trkpt lat="44.77280339330975" lon="9.36864649613396"><ele>417.0</ele><time>2026-03-28T11:54:54.999Z</time></trkpt><trkpt lat="44.7727322578177" lon="9.368764536521164"><ele>411.25</ele><time>2026-03-28T11:54:55.999Z</time></trkpt><trkpt lat="44.77266749984289" lon="9.36888422412213"><ele>405.5</ele><time>2026-03-28T11:54:56.999Z</time></trkpt><trkpt lat="44.77261555126668" lon="9.369026012559782"><ele>399.75</ele><time>2026-03-28T11:54:57.999Z</time></trkpt><trkpt lat="44.77258258940672" lon="9.369190780093314"><ele>394.0</ele><time>2026-03-28T11:54:58.999Z</time></trkpt><trkpt lat="44.77256798154425" lon="9.369360976181872"><ele>394.0</ele><time>2026-03-28T11:54:59.999Z</time></trkpt><trkpt lat="44.7725609712961" lon="9.36952674742559"><ele>394.0</ele><time>2026-03-28T11:55:00.999Z</time></trkpt><trkpt lat="44.772553697088455" lon="9.369683168786215"><ele>394.0</ele><time>2026-03-28T11:55:01.999Z</time></trkpt><trkpt lat="44.77254679079895" lon="9.36983231017426"><ele>394.0</ele><time>2026-03-28T11:55:02.999Z</time></trkpt><trkpt lat="44.77254011647993" lon="9.369976442054018"><ele>394.0</ele><time>2026-03-28T11:55:03.999Z</time></trkpt><trkpt lat="44.77253650707151" lon="9.370128786026953"><ele>393.2</ele><time>2026-03-28T11:55:04.999Z</time></trkpt><trkpt lat="44.77254159376243" lon="9.370282137817776"><ele>392.4</ele><time>2026-03-28T11:55:05.999Z</time></trkpt><trkpt lat="44.772554154328944" lon="9.370425599005497"><ele>391.6</ele><time>2026-03-28T11:55:06.999Z</time></trkpt><trkpt lat="44.77260328818201" lon="9.370561667363983"><ele>390.8</ele><time>2026-03-28T11:55:07.999Z</time></trkpt><trkpt lat="44.772664800517575" lon="9.370684564640255"><ele>390.0</ele><time>2026-03-28T11:55:08.999Z</time></trkpt><trkpt lat="44.77273488438821" lon="9.370795216516612"><ele>391.0</ele><time>2026-03-28T11:55:09.999Z</time></trkpt><trkpt lat="44.77279790389554" lon="9.370900608676386"><ele>392.0</ele><time>2026-03-28T11:55:10.999Z</time></trkpt><trkpt lat="44.772850330426316" lon="9.371012651619855"><ele>393.0</ele><time>2026-03-28T11:55:11.999Z</time></trkpt><trkpt lat="44.77288903381702" lon="9.371143321411024"><ele>394.0</ele><time>2026-03-28T11:55:12.999Z</time></trkpt><trkpt lat="44.77286815342543" lon="9.371296898021098"><ele>395.0</ele><time>2026-03-28T11:55:13.999Z</time></trkpt><trkpt lat="44.77285367706674" lon="9.371435970407857"><ele>395.0</ele><time>2026-03-28T11:55:14.999Z</time></trkpt><trkpt lat="44.772848533104245" lon="9.371568493924334"><ele>395.0</ele><time>2026-03-28T11:55:15.999Z</time></trkpt><trkpt lat="44.77286005465436" lon="9.371716291069669"><ele>395.0</ele><time>2026-03-28T11:55:16.999Z</time></trkpt><trkpt lat="44.772881295454376" lon="9.371856133644089"><ele>395.0</ele><time>2026-03-28T11:55:17.999Z</time></trkpt><trkpt lat="44.77290033505322" lon="9.371991040416415"><ele>395.0</ele><time>2026-03-28T11:55:18.999Z</time></trkpt><trkpt lat="44.772918380505104" lon="9.37213480211076"><ele>393.75</ele><time>2026-03-28T11:55:19.999Z</time></trkpt><trkpt lat="44.77289534979291" lon="9.37229725914783"><ele>392.5</ele><time>2026-03-28T11:55:20.999Z</time></trkpt><trkpt lat="44.77282648248586" lon="9.372451918213734"><ele>391.25</ele><time>2026-03-28T11:55:21.999Z</time></trkpt><trkpt lat="44.772765525501185" lon="9.372624306775784"><ele>390.0</ele><time>2026-03-28T11:55:22.999Z</time></trkpt><trkpt lat="44.77269365353889" lon="9.372825906735132"><ele>383.3333333333333</ele><time>2026-03-28T11:55:23.999Z</time></trkpt><trkpt lat="44.77261590089793" lon="9.373043989864554"><ele>376.66666666666663</ele><time>2026-03-28T11:55:24.999Z</time></trkpt><trkpt lat="44.772544704252276" lon="9.373253459653279"><ele>370.0</ele><time>2026-03-28T11:55:25.999Z</time></trkpt><trkpt lat="44.7724777123797" lon="9.373452308346303"><ele>370.0</ele><time>2026-03-28T11:55:26.999Z</time></trkpt><trkpt lat="44.77240838418019" lon="9.373637930970188"><ele>370.0</ele><time>2026-03-28T11:55:27.999Z</time></trkpt><trkpt lat="44.77232340771801" lon="9.373785703586458"><ele>370.0</ele><time>2026-03-28T11:55:28.999Z</time></trkpt><trkpt lat="44.772222975201146" lon="9.373885455838407"><ele>370.0</ele><time>2026-03-28T11:55:29.999Z</time></trkpt><trkpt lat="44.772101243417424" lon="9.373930534633827"><ele>370.75</ele><time>2026-03-28T11:55:30.999Z</time></trkpt><trkpt lat="44.77196810633396" lon="9.373963814929834"><ele>371.5</ele><time>2026-03-28T11:55:31.999Z</time></trkpt><trkpt lat="44.77183566927108" lon="9.373973872253446"><ele>372.25</ele><time>2026-03-28T11:55:32.999Z</time></trkpt><trkpt lat="44.77170914630921" lon="9.3739941884787"><ele>373.0</ele><time>2026-03-28T11:55:33.999Z</time></trkpt><trkpt lat="44.771588234887645" lon="9.374016785690118"><ele>370.4</ele><time>2026-03-28T11:55:34.999Z</time></trkpt><trkpt lat="44.77148751205322" lon="9.374052305276818"><ele>367.79999999999995</ele><time>2026-03-28T11:55:35.999Z</time></trkpt><trkpt lat="44.77140866454706" lon="9.374130984322715"><ele>365.2</ele><time>2026-03-28T11:55:36.999Z</time></trkpt><trkpt lat="44.77136935217719" lon="9.374249993731794"><ele>362.6</ele><time>2026-03-28T11:55:37.999Z</time></trkpt><trkpt lat="44.77133002334467" lon="9.374390600630672"><ele>360.0</ele><time>2026-03-28T11:55:38.999Z</time></trkpt><trkpt lat="44.771304890864585" lon="9.374545767314473"><ele>360.2</ele><time>2026-03-28T11:55:39.999Z</time></trkpt><trkpt lat="44.77127728692561" lon="9.374711189289076"><ele>360.4</ele><time>2026-03-28T11:55:40.999Z</time></trkpt><trkpt lat="44.77124713319667" lon="9.374868426090972"><ele>360.6</ele><time>2026-03-28T11:55:42Z</time></trkpt><trkpt lat="44.77121437137617" lon="9.375008928585846"><ele>360.8</ele><time>2026-03-28T11:55:43Z</time></trkpt><trkpt lat="44.77113524737816" lon="9.375096129089275"><ele>361.0</ele><time>2026-03-28T11:55:44Z</time></trkpt><trkpt lat="44.77103112039983" lon="9.375094789875082"><ele>359.0</ele><time>2026-03-28T11:55:45Z</time></trkpt><trkpt lat="44.770926118524734" lon="9.375084540484407"><ele>357.0</ele><time>2026-03-28T11:55:46Z</time></trkpt><trkpt lat="44.77081055309693" lon="9.375092568770963"><ele>355.0</ele><time>2026-03-28T11:55:47Z</time></trkpt><trkpt lat="44.77068865600992" lon="9.375083134498142"><ele>353.0</ele><time>2026-03-28T11:55:48Z</time></trkpt><trkpt lat="44.770567571088534" lon="9.37506574871726"><ele>353.0</ele><time>2026-03-28T11:55:49Z</time></trkpt><trkpt lat="44.770455325973316" lon="9.375047303703418"><ele>353.0</ele><time>2026-03-28T11:55:50Z</time></trkpt><trkpt lat="44.77034355643588" lon="9.375042688127689"><ele>353.0</ele><time>2026-03-28T11:55:51Z</time></trkpt><trkpt lat="44.77023721247267" lon="9.37504458024978"><ele>353.0</ele><time>2026-03-28T11:55:52Z</time></trkpt><trkpt lat="44.77015439302954" lon="9.37510745915361"><ele>353.0</ele><time>2026-03-28T11:55:53Z</time></trkpt><trkpt lat="44.770100123729286" lon="9.375230365325852"><ele>352.0</ele><time>2026-03-28T11:55:54Z</time></trkpt><trkpt lat="44.770073536985336" lon="9.375375353840234"><ele>351.0</ele><time>2026-03-28T11:55:55Z</time></trkpt><trkpt lat="44.7700408081734" lon="9.375512214984214"><ele>350.0</ele><time>2026-03-28T11:55:56Z</time></trkpt><trkpt lat="44.76997380877481" lon="9.375634548434485"><ele>349.0</ele><time>2026-03-28T11:55:57Z</time></trkpt><trkpt lat="44.769884542507" lon="9.375735824542888"><ele>348.0</ele><time>2026-03-28T11:55:58Z</time></trkpt><trkpt lat="44.76979357034152" lon="9.37584234754116"><ele>348.0</ele><time>2026-03-28T11:55:59Z</time></trkpt><trkpt lat="44.769717307036636" lon="9.375967239479094"><ele>348.0</ele><time>2026-03-28T11:56:00Z</time></trkpt><trkpt lat="44.769627958981694" lon="9.376066627791946"><ele>348.0</ele><time>2026-03-28T11:56:01Z</time></trkpt><trkpt lat="44.76957251052357" lon="9.376217284332776"><ele>348.0</ele><time>2026-03-28T11:56:02Z</time></trkpt><trkpt lat="44.76953667813815" lon="9.376380934300226"><ele>348.0</ele><time>2026-03-28T11:56:03Z</time></trkpt><trkpt lat="44.76951129760403" lon="9.376542846283145"><ele>348.0</ele><time>2026-03-28T11:56:04Z</time></trkpt><trkpt lat="44.76948818229994" lon="9.376696463301215"><ele>348.0</ele><time>2026-03-28T11:56:05Z</time></trkpt><trkpt lat="44.76944776493209" lon="9.376822320400603"><ele>348.0</ele><time>2026-03-28T11:56:06Z</time></trkpt><trkpt lat="44.769366947459766" lon="9.376918909263162"><ele>348.0</ele><time>2026-03-28T11:56:07Z</time></trkpt><trkpt lat="44.769273358429245" lon="9.377019252280476"><ele>345.5</ele><time>2026-03-28T11:56:08Z</time></trkpt><trkpt lat="44.769176200728566" lon="9.377123713749912"><ele>343.0</ele><time>2026-03-28T11:56:09Z</time></trkpt><trkpt lat="44.76907293394974" lon="9.377233557342601"><ele>340.5</ele><time>2026-03-28T11:56:10Z</time></trkpt><trkpt lat="44.76896937124999" lon="9.37734371539174"><ele>338.0</ele><time>2026-03-28T11:56:11Z</time></trkpt><trkpt lat="44.76887241783642" lon="9.377450049644624"><ele>338.0</ele><time>2026-03-28T11:56:12Z</time></trkpt><trkpt lat="44.76878221514065" lon="9.377559837212115"><ele>338.0</ele><time>2026-03-28T11:56:13Z</time></trkpt><trkpt lat="44.76870969544524" lon="9.377686618981862"><ele>338.0</ele><time>2026-03-28T11:56:14Z</time></trkpt><trkpt lat="44.76866781530887" lon="9.377846760310332"><ele>338.0</ele><time>2026-03-28T11:56:15Z</time></trkpt><trkpt lat="44.76863618424231" lon="9.378017667190067"><ele>338.75</ele><time>2026-03-28T11:56:16Z</time></trkpt><trkpt lat="44.76860305559519" lon="9.378187678181698"><ele>339.5</ele><time>2026-03-28T11:56:17Z</time></trkpt><trkpt lat="44.768550647161234" lon="9.378344408474668"><ele>340.25</ele><time>2026-03-28T11:56:18Z</time></trkpt><trkpt lat="44.76849178597281" lon="9.378488383868133"><ele>341.0</ele><time>2026-03-28T11:56:19Z</time></trkpt><trkpt lat="44.768422497728416" lon="9.378612630609481"><ele>337.20000000000005</ele><time>2026-03-28T11:56:20Z</time></trkpt><trkpt lat="44.768339731374894" lon="9.378718605400907"><ele>333.40000000000003</ele><time>2026-03-28T11:56:21Z</time></trkpt><trkpt lat="44.768280222263655" lon="9.378846625721957"><ele>329.6</ele><time>2026-03-28T11:56:22Z</time></trkpt><trkpt lat="44.768238954874626" lon="9.378987326824577"><ele>325.8</ele><time>2026-03-28T11:56:23Z</time></trkpt><trkpt lat="44.768242595054524" lon="9.379147633856967"><ele>322.0</ele><time>2026-03-28T11:56:24Z</time></trkpt><trkpt lat="44.76827254751981" lon="9.379301015429672"><ele>321.8</ele><time>2026-03-28T11:56:25Z</time></trkpt><trkpt lat="44.768313566512944" lon="9.37944464212323"><ele>321.6</ele><time>2026-03-28T11:56:26Z</time></trkpt><trkpt lat="44.768358932167786" lon="9.379589439886896"><ele>321.40000000000003</ele><time>2026-03-28T11:56:27Z</time></trkpt><trkpt lat="44.768405272604106" lon="9.379735934106012"><ele>321.20000000000005</ele><time>2026-03-28T11:56:28Z</time></trkpt><trkpt lat="44.76844839034401" lon="9.37987577603274"><ele>321.0</ele><time>2026-03-28T11:56:29Z</time></trkpt><trkpt lat="44.76848135098003" lon="9.380020904240043"><ele>320.2</ele><time>2026-03-28T11:56:30Z</time></trkpt><trkpt lat="44.76849312437409" lon="9.380164367806834"><ele>319.40000000000003</ele><time>2026-03-28T11:56:31Z</time></trkpt><trkpt lat="44.76850185632685" lon="9.380309522358356"><ele>318.6</ele><time>2026-03-28T11:56:32Z</time></trkpt><trkpt lat="44.76850919689636" lon="9.380452691587317"><ele>317.8</ele><time>2026-03-28T11:56:33Z</time></trkpt><trkpt lat="44.76851643324415" lon="9.380592593996957"><ele>317.0</ele><time>2026-03-28T11:56:34Z</time></trkpt><trkpt lat="44.76852355951839" lon="9.380730368480664"><ele>316.2</ele><time>2026-03-28T11:56:34.999Z</time></trkpt><trkpt lat="44.76853064166681" lon="9.380867290206147"><ele>315.4</ele><time>2026-03-28T11:56:35.999Z</time></trkpt><trkpt lat="44.76853782597595" lon="9.381006964508483"><ele>314.6</ele><time>2026-03-28T11:56:36.999Z</time></trkpt><trkpt lat="44.768545350226454" lon="9.3811454997111"><ele>313.8</ele><time>2026-03-28T11:56:37.999Z</time></trkpt><trkpt lat="44.76855350266515" lon="9.381292046653495"><ele>313.0</ele><time>2026-03-28T11:56:38.999Z</time></trkpt><trkpt lat="44.768561589642665" lon="9.381436933662027"><ele>313.0</ele><time>2026-03-28T11:56:39.999Z</time></trkpt><trkpt lat="44.76857012847199" lon="9.381582905011104"><ele>313.0</ele><time>2026-03-28T11:56:40.999Z</time></trkpt><trkpt lat="44.76858240443087" lon="9.381730040965914"><ele>313.0</ele><time>2026-03-28T11:56:41.999Z</time></trkpt><trkpt lat="44.76860564617766" lon="9.381877553442038"><ele>313.0</ele><time>2026-03-28T11:56:42.999Z</time></trkpt><trkpt lat="44.76866442776449" lon="9.382011497886124"><ele>313.0</ele><time>2026-03-28T11:56:43.999Z</time></trkpt><trkpt lat="44.76871506622158" lon="9.382144730213566"><ele>312.0</ele><time>2026-03-28T11:56:44.999Z</time></trkpt><trkpt lat="44.76877390935895" lon="9.382273151958008"><ele>311.0</ele><time>2026-03-28T11:56:45.999Z</time></trkpt><trkpt lat="44.768834355844184" lon="9.382400827375637"><ele>310.0</ele><time>2026-03-28T11:56:46.999Z</time></trkpt><trkpt lat="44.76889925571013" lon="9.382527786923482"><ele>309.0</ele><time>2026-03-28T11:56:47.999Z</time></trkpt><trkpt lat="44.7689605208274" lon="9.382661000480308"><ele>308.0</ele><time>2026-03-28T11:56:48.999Z</time></trkpt><trkpt lat="44.76902281696888" lon="9.382793936255263"><ele>308.0</ele><time>2026-03-28T11:56:49.999Z</time></trkpt><trkpt lat="44.769087716335754" lon="9.38292793964828"><ele>308.0</ele><time>2026-03-28T11:56:50.999Z</time></trkpt><trkpt lat="44.76915324310873" lon="9.383061376926506"><ele>308.0</ele><time>2026-03-28T11:56:51.999Z</time></trkpt><trkpt lat="44.76921942794711" lon="9.383198550323257"><ele>308.0</ele><time>2026-03-28T11:56:52.999Z</time></trkpt><trkpt lat="44.76928532854603" lon="9.383332742237938"><ele>308.0</ele><time>2026-03-28T11:56:53.999Z</time></trkpt><trkpt lat="44.769350522966164" lon="9.383468950883428"><ele>308.0</ele><time>2026-03-28T11:56:54.999Z</time></trkpt><trkpt lat="44.76941767137479" lon="9.383604615350967"><ele>308.0</ele><time>2026-03-28T11:56:55.999Z</time></trkpt><trkpt lat="44.769484235878714" lon="9.383743803000364"><ele>308.0</ele><time>2026-03-28T11:56:56.999Z</time></trkpt><trkpt lat="44.76955036907277" lon="9.383884290214533"><ele>305.75</ele><time>2026-03-28T11:56:57.999Z</time></trkpt><trkpt lat="44.769615532972374" lon="9.384025906281963"><ele>303.5</ele><time>2026-03-28T11:56:58.999Z</time></trkpt><trkpt lat="44.769685482744855" lon="9.384165437556012"><ele>301.25</ele><time>2026-03-28T11:56:59.999Z</time></trkpt><trkpt lat="44.769754904462495" lon="9.384307241335277"><ele>299.0</ele><time>2026-03-28T11:57:00.999Z</time></trkpt><trkpt lat="44.769824197820775" lon="9.384449511092079"><ele>299.0</ele><time>2026-03-28T11:57:01.999Z</time></trkpt><trkpt lat="44.7698930173118" lon="9.384592706646764"><ele>299.0</ele><time>2026-03-28T11:57:02.999Z</time></trkpt><trkpt lat="44.76996015467095" lon="9.384736659735257"><ele>299.0</ele><time>2026-03-28T11:57:03.999Z</time></trkpt><trkpt lat="44.770022386302614" lon="9.384867267323783"><ele>299.0</ele><time>2026-03-28T11:57:04.999Z</time></trkpt><trkpt lat="44.770077915595955" lon="9.384983880511463"><ele>297.33333333333337</ele><time>2026-03-28T11:57:05.999Z</time></trkpt><trkpt lat="44.770124213078624" lon="9.385101442511745"><ele>295.6666666666667</ele><time>2026-03-28T11:57:06.999Z</time></trkpt><trkpt lat="44.77015601547638" lon="9.385222936900051"><ele>294.0</ele><time>2026-03-28T11:57:07.999Z</time></trkpt><trkpt lat="44.77016589059758" lon="9.385356263094241"><ele>292.3333333333333</ele><time>2026-03-28T11:57:08.999Z</time></trkpt><trkpt lat="44.77016637918845" lon="9.38547881619521"><ele>290.66666666666663</ele><time>2026-03-28T11:57:09.999Z</time></trkpt><trkpt lat="44.77015171267863" lon="9.385584932961946"><ele>289.0</ele><time>2026-03-28T11:57:10.999Z</time></trkpt><trkpt lat="44.77013109733598" lon="9.385678664107244"><ele>288.0</ele><time>2026-03-28T11:57:11.999Z</time></trkpt><trkpt lat="44.77008018624679" lon="9.385818968479857"><ele>287.0</ele><time>2026-03-28T11:57:13.999Z</time></trkpt><trkpt lat="44.77006342750644" lon="9.385914898714844"><ele>286.0</ele><time>2026-03-28T11:57:15.999Z</time></trkpt><trkpt lat="44.770109947091754" lon="9.386023628503397"><ele>285.0</ele><time>2026-03-28T11:57:18.999Z</time></trkpt><trkpt lat="44.77020026511938" lon="9.386072159787703"><ele>284.0</ele><time>2026-03-28T11:57:21.999Z</time></trkpt><trkpt lat="44.77029610936861" lon="9.386061444978585"><ele>284.0</ele><time>2026-03-28T11:57:23.999Z</time></trkpt><trkpt lat="44.77036068852998" lon="9.386068635745053"><ele>284.0</ele><time>2026-03-28T11:57:24.999Z</time></trkpt><trkpt lat="44.770429038646846" lon="9.386078834509187"><ele>284.0</ele><time>2026-03-28T11:57:25.999Z</time></trkpt><trkpt lat="44.770505141358" lon="9.386095318574297"><ele>284.0</ele><time>2026-03-28T11:57:26.999Z</time></trkpt><trkpt lat="44.770593492498875" lon="9.386111300078687"><ele>284.0</ele><time>2026-03-28T11:57:27.999Z</time></trkpt><trkpt lat="44.77068144043889" lon="9.386133179313669"><ele>284.0</ele><time>2026-03-28T11:57:28.999Z</time></trkpt><trkpt lat="44.77077099878434" lon="9.38615687658118"><ele>284.0</ele><time>2026-03-28T11:57:29.999Z</time></trkpt><trkpt lat="44.77086467410031" lon="9.386177787924852"><ele>284.0</ele><time>2026-03-28T11:57:30.999Z</time></trkpt><trkpt lat="44.7709628876232" lon="9.38620386737752"><ele>284.0</ele><time>2026-03-28T11:57:31.999Z</time></trkpt><trkpt lat="44.771060263728046" lon="9.386222494440522"><ele>284.0</ele><time>2026-03-28T11:57:32.999Z</time></trkpt><trkpt lat="44.77115468203075" lon="9.386242863715777"><ele>284.0</ele><time>2026-03-28T11:57:33.999Z</time></trkpt><trkpt lat="44.771251661574645" lon="9.386266319500075"><ele>283.0</ele><time>2026-03-28T11:57:34.999Z</time></trkpt><trkpt lat="44.771350927797705" lon="9.386286706934385"><ele>282.0</ele><time>2026-03-28T11:57:35.999Z</time></trkpt><trkpt lat="44.77145276406386" lon="9.386308494406896"><ele>281.0</ele><time>2026-03-28T11:57:36.999Z</time></trkpt><trkpt lat="44.771555701463335" lon="9.386330622549425"><ele>280.0</ele><time>2026-03-28T11:57:37.999Z</time></trkpt><trkpt lat="44.77165806728138" lon="9.38635463648395"><ele>279.0</ele><time>2026-03-28T11:57:38.999Z</time></trkpt><trkpt lat="44.77176228142459" lon="9.386379851124499"><ele>277.4</ele><time>2026-03-28T11:57:39.999Z</time></trkpt><trkpt lat="44.77186689860809" lon="9.38640148564708"><ele>275.79999999999995</ele><time>2026-03-28T11:57:40.999Z</time></trkpt><trkpt lat="44.771971906975885" lon="9.38642487033675"><ele>274.20000000000005</ele><time>2026-03-28T11:57:41.999Z</time></trkpt><trkpt lat="44.772077663548004" lon="9.386450752578511"><ele>272.6</ele><time>2026-03-28T11:57:42.999Z</time></trkpt><trkpt lat="44.77218333842174" lon="9.386474890018507"><ele>271.0</ele><time>2026-03-28T11:57:43.999Z</time></trkpt><trkpt lat="44.77228726088464" lon="9.386503589279048"><ele>271.0</ele><time>2026-03-28T11:57:44.999Z</time></trkpt><trkpt lat="44.77239571782866" lon="9.38652528570688"><ele>271.0</ele><time>2026-03-28T11:57:45.999Z</time></trkpt><trkpt lat="44.77250652485536" lon="9.386555192570288"><ele>271.0</ele><time>2026-03-28T11:57:46.999Z</time></trkpt><trkpt lat="44.7726192563345" lon="9.386586643168203"><ele>271.0</ele><time>2026-03-28T11:57:48Z</time></trkpt><trkpt lat="44.77273551631152" lon="9.38661683484453"><ele>270.0</ele><time>2026-03-28T11:57:49Z</time></trkpt><trkpt lat="44.7728551619311" lon="9.386645701439784"><ele>269.0</ele><time>2026-03-28T11:57:50Z</time></trkpt><trkpt lat="44.7729727171355" lon="9.386672372382522"><ele>268.0</ele><time>2026-03-28T11:57:51Z</time></trkpt><trkpt lat="44.773084708631245" lon="9.386702242991458"><ele>267.0</ele><time>2026-03-28T11:57:52Z</time></trkpt><trkpt lat="44.77319461685321" lon="9.386723686922952"><ele>267.0</ele><time>2026-03-28T11:57:53Z</time></trkpt><trkpt lat="44.77330959104171" lon="9.386751783178951"><ele>267.0</ele><time>2026-03-28T11:57:54Z</time></trkpt><trkpt lat="44.77342917080656" lon="9.386785285964221"><ele>267.0</ele><time>2026-03-28T11:57:55Z</time></trkpt><trkpt lat="44.7735529154012" lon="9.386816532845625"><ele>267.0</ele><time>2026-03-28T11:57:56Z</time></trkpt><trkpt lat="44.77368245195217" lon="9.386836228259357"><ele>266.0</ele><time>2026-03-28T11:57:57Z</time></trkpt><trkpt lat="44.77381533794769" lon="9.3868504817714"><ele>265.0</ele><time>2026-03-28T11:57:58Z</time></trkpt><trkpt lat="44.773952379097594" lon="9.386861110485357"><ele>264.0</ele><time>2026-03-28T11:57:59Z</time></trkpt><trkpt lat="44.774091483013144" lon="9.386865750325867"><ele>263.0</ele><time>2026-03-28T11:58:00Z</time></trkpt><trkpt lat="44.774221703516275" lon="9.38688030017606"><ele>263.0</ele><time>2026-03-28T11:58:01Z</time></trkpt><trkpt lat="44.77434776104141" lon="9.386893582298796"><ele>263.0</ele><time>2026-03-28T11:58:02Z</time></trkpt><trkpt lat="44.77447220239756" lon="9.38691990373819"><ele>263.0</ele><time>2026-03-28T11:58:03Z</time></trkpt><trkpt lat="44.77460023733636" lon="9.386963903402082"><ele>263.0</ele><time>2026-03-28T11:58:04Z</time></trkpt><trkpt lat="44.77472491227898" lon="9.387031242267108"><ele>264.25</ele><time>2026-03-28T11:58:05Z</time></trkpt><trkpt lat="44.774841909415116" lon="9.387131598318797"><ele>265.5</ele><time>2026-03-28T11:58:06Z</time></trkpt><trkpt lat="44.774944342051064" lon="9.387268263645295"><ele>266.75</ele><time>2026-03-28T11:58:07Z</time></trkpt><trkpt lat="44.77502732255795" lon="9.387414050964729"><ele>268.0</ele><time>2026-03-28T11:58:08Z</time></trkpt><trkpt lat="44.77510757216857" lon="9.387608570575908"><ele>268.0</ele><time>2026-03-28T11:58:09Z</time></trkpt><trkpt lat="44.77517520679724" lon="9.387799434767416"><ele>268.0</ele><time>2026-03-28T11:58:10Z</time></trkpt><trkpt lat="44.77524116693642" lon="9.388000986270667"><ele>268.0</ele><time>2026-03-28T11:58:11Z</time></trkpt><trkpt lat="44.775298810753206" lon="9.3882060295638"><ele>268.25</ele><time>2026-03-28T11:58:12Z</time></trkpt><trkpt lat="44.77534820812356" lon="9.388397409951052"><ele>268.5</ele><time>2026-03-28T11:58:13Z</time></trkpt><trkpt lat="44.77539589761906" lon="9.388579527622467"><ele>268.75</ele><time>2026-03-28T11:58:14Z</time></trkpt><trkpt lat="44.77544316622898" lon="9.388746609661352"><ele>269.0</ele><time>2026-03-28T11:58:15Z</time></trkpt><trkpt lat="44.77547384434051" lon="9.388909626514755"><ele>269.0</ele><time>2026-03-28T11:58:16Z</time></trkpt><trkpt lat="44.775530212476774" lon="9.389065197549384"><ele>269.0</ele><time>2026-03-28T11:58:17Z</time></trkpt><trkpt lat="44.77561148310286" lon="9.389193054541181"><ele>269.0</ele><time>2026-03-28T11:58:18Z</time></trkpt><trkpt lat="44.77568725312836" lon="9.389319826984217"><ele>269.0</ele><time>2026-03-28T11:58:19Z</time></trkpt><trkpt lat="44.77576874783096" lon="9.38943752102349"><ele>269.0</ele><time>2026-03-28T11:58:20Z</time></trkpt><trkpt lat="44.77584804469311" lon="9.389555247765314"><ele>269.0</ele><time>2026-03-28T11:58:21Z</time></trkpt><trkpt lat="44.77592962246459" lon="9.389669920645165"><ele>269.0</ele><time>2026-03-28T11:58:22Z</time></trkpt><trkpt lat="44.77601249116327" lon="9.389780625831154"><ele>269.0</ele><time>2026-03-28T11:58:23Z</time></trkpt><trkpt lat="44.77609633555728" lon="9.389887051874677"><ele>269.2</ele><time>2026-03-28T11:58:24Z</time></trkpt><trkpt lat="44.77618891415895" lon="9.389972203272402"><ele>269.4</ele><time>2026-03-28T11:58:25Z</time></trkpt><trkpt lat="44.776288002714615" lon="9.390037032726681"><ele>269.6</ele><time>2026-03-28T11:58:26Z</time></trkpt><trkpt lat="44.7763872864132" lon="9.390081110268445"><ele>269.8</ele><time>2026-03-28T11:58:27Z</time></trkpt><trkpt lat="44.77647594097468" lon="9.390112470351852"><ele>270.0</ele><time>2026-03-28T11:58:28Z</time></trkpt><trkpt lat="44.77654966569489" lon="9.390155675363054"><ele>270.0</ele><time>2026-03-28T11:58:29Z</time></trkpt><trkpt lat="44.776606898127085" lon="9.390215819747214"><ele>270.0</ele><time>2026-03-28T11:58:30Z</time></trkpt><trkpt lat="44.776634790175606" lon="9.39029852045178"><ele>270.0</ele><time>2026-03-28T11:58:31Z</time></trkpt><trkpt lat="44.77661643388053" lon="9.390449013373532"><ele>270.0</ele><time>2026-03-28T11:58:33Z</time></trkpt><trkpt lat="44.77652691463201" lon="9.390503077394985"><ele>270.0</ele><time>2026-03-28T11:58:35Z</time></trkpt><trkpt lat="44.77640920682048" lon="9.390449061759993"><ele>270.0</ele><time>2026-03-28T11:58:37Z</time></trkpt><trkpt lat="44.77634614331571" lon="9.390380522453189"><ele>270.0</ele><time>2026-03-28T11:58:38Z</time></trkpt><trkpt lat="44.77627316152599" lon="9.390307087836607"><ele>270.0</ele><time>2026-03-28T11:58:39Z</time></trkpt><trkpt lat="44.77618935210166" lon="9.39022999107424"><ele>270.0</ele><time>2026-03-28T11:58:40Z</time></trkpt><trkpt lat="44.77610203112756" lon="9.390152207602444"><ele>270.0</ele><time>2026-03-28T11:58:41Z</time></trkpt><trkpt lat="44.7760078148543" lon="9.390062491449312"><ele>266.0</ele><time>2026-03-28T11:58:42Z</time></trkpt><trkpt lat="44.775903769645915" lon="9.389972406538256"><ele>262.0</ele><time>2026-03-28T11:58:42.999Z</time></trkpt><trkpt lat="44.775789285278734" lon="9.389882307264765"><ele>258.0</ele><time>2026-03-28T11:58:43.999Z</time></trkpt><trkpt lat="44.77567044519676" lon="9.38980064560502"><ele>254.0</ele><time>2026-03-28T11:58:44.999Z</time></trkpt><trkpt lat="44.77554221230412" lon="9.38972453749287"><ele>254.25</ele><time>2026-03-28T11:58:45.999Z</time></trkpt><trkpt lat="44.775408963795606" lon="9.38965089837551"><ele>254.5</ele><time>2026-03-28T11:58:46.999Z</time></trkpt><trkpt lat="44.77526710901096" lon="9.389586703834743"><ele>254.75</ele><time>2026-03-28T11:58:47.999Z</time></trkpt><trkpt lat="44.7751187089217" lon="9.38953073485353"><ele>255.0</ele><time>2026-03-28T11:58:48.999Z</time></trkpt><trkpt lat="44.774964677355136" lon="9.389489851294162"><ele>255.0</ele><time>2026-03-28T11:58:49.999Z</time></trkpt><trkpt lat="44.77481125253778" lon="9.389461736337218"><ele>255.0</ele><time>2026-03-28T11:58:50.999Z</time></trkpt><trkpt lat="44.77465339251757" lon="9.389445404504608"><ele>255.0</ele><time>2026-03-28T11:58:51.999Z</time></trkpt><trkpt lat="44.774495326970126" lon="9.38944078335699"><ele>255.0</ele><time>2026-03-28T11:58:52.999Z</time></trkpt><trkpt lat="44.774340594248834" lon="9.389443434080503"><ele>255.0</ele><time>2026-03-28T11:58:53.999Z</time></trkpt><trkpt lat="44.774185674645175" lon="9.389451803796321"><ele>255.0</ele><time>2026-03-28T11:58:54.999Z</time></trkpt><trkpt lat="44.77403008071092" lon="9.389460642654674"><ele>255.0</ele><time>2026-03-28T11:58:55.999Z</time></trkpt><trkpt lat="44.77387427295998" lon="9.389470028191928"><ele>255.0</ele><time>2026-03-28T11:58:56.999Z</time></trkpt><trkpt lat="44.77371805099244" lon="9.389475962710126"><ele>255.0</ele><time>2026-03-28T11:58:57.999Z</time></trkpt><trkpt lat="44.77356270197564" lon="9.38948013468433"><ele>256.6666666666667</ele><time>2026-03-28T11:58:58.999Z</time></trkpt><trkpt lat="44.77340741723663" lon="9.389479198841382"><ele>258.33333333333337</ele><time>2026-03-28T11:58:59.999Z</time></trkpt><trkpt lat="44.77325008762403" lon="9.38947792484674"><ele>260.0</ele><time>2026-03-28T11:59:00.999Z</time></trkpt><trkpt lat="44.77309426732194" lon="9.38946272341298"><ele>260.0</ele><time>2026-03-28T11:59:01.999Z</time></trkpt><trkpt lat="44.77293923210894" lon="9.389432882690638"><ele>260.0</ele><time>2026-03-28T11:59:02.999Z</time></trkpt><trkpt lat="44.77278526283031" lon="9.38939807866189"><ele>260.0</ele><time>2026-03-28T11:59:03.999Z</time></trkpt><trkpt lat="44.77263221555726" lon="9.389358360804247"><ele>259.6666666666667</ele><time>2026-03-28T11:59:04.999Z</time></trkpt><trkpt lat="44.772481587505254" lon="9.389301486638901"><ele>259.3333333333333</ele><time>2026-03-28T11:59:05.999Z</time></trkpt><trkpt lat="44.77233533165524" lon="9.389235419909493"><ele>259.0</ele><time>2026-03-28T11:59:06.999Z</time></trkpt><trkpt lat="44.772183369150405" lon="9.389174108633535"><ele>259.0</ele><time>2026-03-28T11:59:07.999Z</time></trkpt><trkpt lat="44.77203013845445" lon="9.389115792557938"><ele>259.0</ele><time>2026-03-28T11:59:08.999Z</time></trkpt><trkpt lat="44.7718819163767" lon="9.3890510789343"><ele>259.0</ele><time>2026-03-28T11:59:09.999Z</time></trkpt><trkpt lat="44.77173253636047" lon="9.388987780093682"><ele>257.66666666666663</ele><time>2026-03-28T11:59:10.999Z</time></trkpt><trkpt lat="44.77158301837879" lon="9.388926658689916"><ele>256.3333333333333</ele><time>2026-03-28T11:59:11.999Z</time></trkpt><trkpt lat="44.77143359160562" lon="9.388862315345385"><ele>255.0</ele><time>2026-03-28T11:59:12.999Z</time></trkpt><trkpt lat="44.771284006305365" lon="9.388798528429703"><ele>257.3333333333333</ele><time>2026-03-28T11:59:13.999Z</time></trkpt><trkpt lat="44.77113495675985" lon="9.388740381396499"><ele>259.66666666666663</ele><time>2026-03-28T11:59:14.999Z</time></trkpt><trkpt lat="44.77098549818608" lon="9.388683900714627"><ele>262.0</ele><time>2026-03-28T11:59:15.999Z</time></trkpt><trkpt lat="44.77083479986833" lon="9.388627414059847"><ele>262.0</ele><time>2026-03-28T11:59:16.999Z</time></trkpt><trkpt lat="44.77068442975893" lon="9.388568923319818"><ele>262.0</ele><time>2026-03-28T11:59:17.999Z</time></trkpt><trkpt lat="44.770530727621235" lon="9.388522525695231"><ele>262.0</ele><time>2026-03-28T11:59:18.999Z</time></trkpt><trkpt lat="44.77037624154851" lon="9.388484701252533"><ele>262.0</ele><time>2026-03-28T11:59:19.999Z</time></trkpt><trkpt lat="44.7702210676441" lon="9.388454914905598"><ele>262.0</ele><time>2026-03-28T11:59:20.999Z</time></trkpt><trkpt lat="44.77006545445914" lon="9.388433385411762"><ele>262.0</ele><time>2026-03-28T11:59:21.999Z</time></trkpt><trkpt lat="44.769909400772676" lon="9.388415807934201"><ele>261.0</ele><time>2026-03-28T11:59:22.999Z</time></trkpt><trkpt lat="44.769753391390076" lon="9.388409698500473"><ele>260.0</ele><time>2026-03-28T11:59:23.999Z</time></trkpt><trkpt lat="44.7695979002186" lon="9.388387530139415"><ele>259.0</ele><time>2026-03-28T11:59:24.999Z</time></trkpt><trkpt lat="44.76943990027914" lon="9.388393952240689"><ele>260.25</ele><time>2026-03-28T11:59:25.999Z</time></trkpt><trkpt lat="44.76928401606416" lon="9.388412372891734"><ele>261.5</ele><time>2026-03-28T11:59:26.999Z</time></trkpt><trkpt lat="44.769140840976696" lon="9.388438977045638"><ele>262.75</ele><time>2026-03-28T11:59:27.999Z</time></trkpt><trkpt lat="44.76901213320576" lon="9.388489622918021"><ele>264.0</ele><time>2026-03-28T11:59:28.999Z</time></trkpt><trkpt lat="44.768890062034465" lon="9.388520293733464"><ele>264.0</ele><time>2026-03-28T11:59:29.999Z</time></trkpt><trkpt lat="44.76877453604912" lon="9.38855012284898"><ele>264.0</ele><time>2026-03-28T11:59:30.999Z</time></trkpt><trkpt lat="44.7686636918138" lon="9.388580847777574"><ele>264.0</ele><time>2026-03-28T11:59:31.999Z</time></trkpt><trkpt lat="44.768559363696994" lon="9.388611815022372"><ele>264.0</ele><time>2026-03-28T11:59:32.999Z</time></trkpt><trkpt lat="44.768459600340556" lon="9.388643061990495"><ele>264.0</ele><time>2026-03-28T11:59:33.999Z</time></trkpt><trkpt lat="44.76836228021418" lon="9.388648789420229"><ele>263.6666666666667</ele><time>2026-03-28T11:59:34.999Z</time></trkpt><trkpt lat="44.76827448927119" lon="9.388674705350963"><ele>263.3333333333333</ele><time>2026-03-28T11:59:35.999Z</time></trkpt><trkpt lat="44.76818935973695" lon="9.388699835626214"><ele>263.0</ele><time>2026-03-28T11:59:36.999Z</time></trkpt><trkpt lat="44.76810865048404" lon="9.388723661007582"><ele>262.66666666666663</ele><time>2026-03-28T11:59:37.999Z</time></trkpt><trkpt lat="44.768038117656594" lon="9.38874426175824"><ele>262.3333333333333</ele><time>2026-03-28T11:59:38.999Z</time></trkpt><trkpt lat="44.767975782064184" lon="9.388762380136406"><ele>262.0</ele><time>2026-03-28T11:59:39.999Z</time></trkpt><trkpt lat="44.767885981093194" lon="9.388788481559246"><ele>262.0</ele><time>2026-03-28T11:59:41.999Z</time></trkpt><trkpt lat="44.76782225200766" lon="9.388840235850159"><ele>262.0</ele><time>2026-03-28T12:04:13Z</time></trkpt><trkpt lat="44.767750614857924" lon="9.3888652367509"><ele>262.0</ele><time>2026-03-28T12:04:15Z</time></trkpt><trkpt lat="44.76763319210895" lon="9.388912913157915"><ele>262.0</ele><time>2026-03-28T12:04:17Z</time></trkpt><trkpt lat="44.767561955646435" lon="9.388935125179247"><ele>262.0</ele><time>2026-03-28T12:04:18Z</time></trkpt><trkpt lat="44.76747395775507" lon="9.38890834447261"><ele>262.0</ele><time>2026-03-28T12:04:19Z</time></trkpt><trkpt lat="44.767384002615486" lon="9.388934646834201"><ele>261.4</ele><time>2026-03-28T12:04:20Z</time></trkpt><trkpt lat="44.767283360403205" lon="9.388963793638961"><ele>260.79999999999995</ele><time>2026-03-28T12:04:21Z</time></trkpt><trkpt lat="44.76717983283562" lon="9.388994308896612"><ele>260.2</ele><time>2026-03-28T12:04:22Z</time></trkpt><trkpt lat="44.7670777754935" lon="9.389024745879796"><ele>259.59999999999997</ele><time>2026-03-28T12:04:23Z</time></trkpt><trkpt lat="44.76696892097511" lon="9.38905625992553"><ele>259.0</ele><time>2026-03-28T12:04:24Z</time></trkpt><trkpt lat="44.766860949779335" lon="9.389086997394406"><ele>259.0</ele><time>2026-03-28T12:04:25Z</time></trkpt><trkpt lat="44.7667520244202" lon="9.389117705555615"><ele>259.0</ele><time>2026-03-28T12:04:26Z</time></trkpt><trkpt lat="44.7666360344291" lon="9.389147372090738"><ele>259.0</ele><time>2026-03-28T12:04:27Z</time></trkpt><trkpt lat="44.7665214195601" lon="9.389168504379969"><ele>259.0</ele><time>2026-03-28T12:04:28Z</time></trkpt><trkpt lat="44.76640065482863" lon="9.389173907964723"><ele>259.0</ele><time>2026-03-28T12:04:29Z</time></trkpt><trkpt lat="44.766274311807656" lon="9.389162355013244"><ele>259.0</ele><time>2026-03-28T12:04:30Z</time></trkpt><trkpt lat="44.766144568024174" lon="9.389135323122394"><ele>259.0</ele><time>2026-03-28T12:04:31Z</time></trkpt><trkpt lat="44.76601507495653" lon="9.389092271803317"><ele>259.0</ele><time>2026-03-28T12:04:32Z</time></trkpt><trkpt lat="44.76588916957061" lon="9.389027137250585"><ele>258.5</ele><time>2026-03-28T12:04:33Z</time></trkpt><trkpt lat="44.76576599881973" lon="9.38894150115398"><ele>258.0</ele><time>2026-03-28T12:04:34Z</time></trkpt><trkpt lat="44.765647511262586" lon="9.388841275667113"><ele>257.5</ele><time>2026-03-28T12:04:35Z</time></trkpt><trkpt lat="44.76554100647086" lon="9.38872545294992"><ele>257.0</ele><time>2026-03-28T12:04:36Z</time></trkpt><trkpt lat="44.765444701975525" lon="9.388588312321628"><ele>257.0</ele><time>2026-03-28T12:04:37Z</time></trkpt><trkpt lat="44.76535851325179" lon="9.388442635355547"><ele>257.0</ele><time>2026-03-28T12:04:38Z</time></trkpt><trkpt lat="44.76527926695173" lon="9.388291737603637"><ele>257.0</ele><time>2026-03-28T12:04:39Z</time></trkpt><trkpt lat="44.765202048845666" lon="9.388140005683857"><ele>257.0</ele><time>2026-03-28T12:04:40Z</time></trkpt><trkpt lat="44.765125250107054" lon="9.387983484919442"><ele>257.0</ele><time>2026-03-28T12:04:41Z</time></trkpt><trkpt lat="44.76504780677878" lon="9.387822422036507"><ele>257.0</ele><time>2026-03-28T12:04:42Z</time></trkpt><trkpt lat="44.76496934151739" lon="9.38765923373861"><ele>257.0</ele><time>2026-03-28T12:04:43Z</time></trkpt><trkpt lat="44.7648884394917" lon="9.38749255752442"><ele>257.0</ele><time>2026-03-28T12:04:44Z</time></trkpt><trkpt lat="44.764804708661636" lon="9.387322285212504"><ele>259.0</ele><time>2026-03-28T12:04:45Z</time></trkpt><trkpt lat="44.76471913741629" lon="9.387148469355854"><ele>261.0</ele><time>2026-03-28T12:04:46Z</time></trkpt><trkpt lat="44.76463145526409" lon="9.386970214628931"><ele>263.0</ele><time>2026-03-28T12:04:47Z</time></trkpt><trkpt lat="44.7645436838305" lon="9.386790961431691"><ele>263.0</ele><time>2026-03-28T12:04:48Z</time></trkpt><trkpt lat="44.76446252398839" lon="9.38662521090082"><ele>263.0</ele><time>2026-03-28T12:04:49Z</time></trkpt><trkpt lat="44.76438454858057" lon="9.386464226902765"><ele>263.0</ele><time>2026-03-28T12:04:50Z</time></trkpt><trkpt lat="44.76428976679373" lon="9.386301608131795"><ele>263.0</ele><time>2026-03-28T12:04:51Z</time></trkpt><trkpt lat="44.764198094064795" lon="9.3861089295498"><ele>264.0</ele><time>2026-03-28T12:04:52Z</time></trkpt><trkpt lat="44.76409156057509" lon="9.385899647711419"><ele>265.0</ele><time>2026-03-28T12:04:53Z</time></trkpt><trkpt lat="44.76397606308218" lon="9.385671514004445"><ele>266.0</ele><time>2026-03-28T12:04:54Z</time></trkpt><trkpt lat="44.76387109449394" lon="9.385424247936774"><ele>271.0</ele><time>2026-03-28T12:04:55Z</time></trkpt><trkpt lat="44.763774454025665" lon="9.385184527031882"><ele>276.0</ele><time>2026-03-28T12:04:56Z</time></trkpt><trkpt lat="44.76367659437433" lon="9.384955042115948"><ele>281.0</ele><time>2026-03-28T12:04:57Z</time></trkpt><trkpt lat="44.76357482323389" lon="9.38473075427558"><ele>276.6666666666667</ele><time>2026-03-28T12:04:58Z</time></trkpt><trkpt lat="44.76346765449651" lon="9.384508110135881"><ele>272.3333333333333</ele><time>2026-03-28T12:04:58.999Z</time></trkpt><trkpt lat="44.763356807539736" lon="9.384292779664516"><ele>268.0</ele><time>2026-03-28T12:04:59.999Z</time></trkpt><trkpt lat="44.76324401107715" lon="9.38409152283505"><ele>268.0</ele><time>2026-03-28T12:05:00.999Z</time></trkpt><trkpt lat="44.76312256882974" lon="9.383895572275655"><ele>268.0</ele><time>2026-03-28T12:05:01.999Z</time></trkpt><trkpt lat="44.76298801531744" lon="9.383707712525425"><ele>268.0</ele><time>2026-03-28T12:05:02.999Z</time></trkpt><trkpt lat="44.76284054182802" lon="9.383534046878866"><ele>266.3333333333333</ele><time>2026-03-28T12:05:03.999Z</time></trkpt><trkpt lat="44.76267964409953" lon="9.383375556341424"><ele>264.6666666666667</ele><time>2026-03-28T12:05:04.999Z</time></trkpt><trkpt lat="44.76250855396761" lon="9.383231863909383"><ele>263.0</ele><time>2026-03-28T12:05:05.999Z</time></trkpt><trkpt lat="44.76232876197114" lon="9.383099682087424"><ele>263.0</ele><time>2026-03-28T12:05:06.999Z</time></trkpt><trkpt lat="44.762147360818176" lon="9.38298062812769"><ele>263.0</ele><time>2026-03-28T12:05:07.999Z</time></trkpt><trkpt lat="44.7619737649147" lon="9.382859313622507"><ele>263.0</ele><time>2026-03-28T12:05:08.999Z</time></trkpt><trkpt lat="44.761810161246025" lon="9.382745073043125"><ele>263.0</ele><time>2026-03-28T12:05:09.999Z</time></trkpt><trkpt lat="44.76165503051429" lon="9.382641853513451"><ele>263.0</ele><time>2026-03-28T12:05:10.999Z</time></trkpt><trkpt lat="44.76149679978698" lon="9.382532031837009"><ele>263.0</ele><time>2026-03-28T12:05:11.999Z</time></trkpt><trkpt lat="44.76133678380981" lon="9.382420960237253"><ele>263.0</ele><time>2026-03-28T12:05:12.999Z</time></trkpt><trkpt lat="44.761175648157085" lon="9.382313661305341"><ele>263.0</ele><time>2026-03-28T12:05:13.999Z</time></trkpt><trkpt lat="44.761014018347005" lon="9.382204579576662"><ele>263.0</ele><time>2026-03-28T12:05:14.999Z</time></trkpt><trkpt lat="44.76086127300219" lon="9.382100090944556"><ele>264.6666666666667</ele><time>2026-03-28T12:05:15.999Z</time></trkpt><trkpt lat="44.76072069567137" lon="9.382000360477727"><ele>266.3333333333333</ele><time>2026-03-28T12:05:16.999Z</time></trkpt><trkpt lat="44.760583833716254" lon="9.381907838127484"><ele>268.0</ele><time>2026-03-28T12:05:17.999Z</time></trkpt><trkpt lat="44.76044922413038" lon="9.381830744487255"><ele>268.0</ele><time>2026-03-28T12:05:18.999Z</time></trkpt><trkpt lat="44.76031706931263" lon="9.381766270288521"><ele>268.0</ele><time>2026-03-28T12:05:19.999Z</time></trkpt><trkpt lat="44.76017763997778" lon="9.381708072486692"><ele>268.0</ele><time>2026-03-28T12:05:20.999Z</time></trkpt><trkpt lat="44.760028816683196" lon="9.381662389204253"><ele>268.0</ele><time>2026-03-28T12:05:21.999Z</time></trkpt><trkpt lat="44.759871518725724" lon="9.381640643344733"><ele>267.3333333333333</ele><time>2026-03-28T12:05:22.999Z</time></trkpt><trkpt lat="44.75970887461142" lon="9.381649469890716"><ele>266.6666666666667</ele><time>2026-03-28T12:05:23.999Z</time></trkpt><trkpt lat="44.75954389186964" lon="9.381674569917278"><ele>266.0</ele><time>2026-03-28T12:05:24.999Z</time></trkpt><trkpt lat="44.759369682224474" lon="9.381709006602826"><ele>266.0</ele><time>2026-03-28T12:05:25.999Z</time></trkpt><trkpt lat="44.75918375990766" lon="9.38174214317221"><ele>266.0</ele><time>2026-03-28T12:05:26.999Z</time></trkpt><trkpt lat="44.75898398208567" lon="9.381726768095389"><ele>266.0</ele><time>2026-03-28T12:05:27.999Z</time></trkpt><trkpt lat="44.758779714085854" lon="9.381761107011236"><ele>266.0</ele><time>2026-03-28T12:05:28.999Z</time></trkpt><trkpt lat="44.758571346106706" lon="9.381797402549939"><ele>266.0</ele><time>2026-03-28T12:05:29.999Z</time></trkpt><trkpt lat="44.75836241915403" lon="9.3818344489126"><ele>266.0</ele><time>2026-03-28T12:05:30.999Z</time></trkpt><trkpt lat="44.75815767876682" lon="9.381871050024564"><ele>266.33333333333337</ele><time>2026-03-28T12:05:31.999Z</time></trkpt><trkpt lat="44.75795449411018" lon="9.381906463282595"><ele>266.6666666666667</ele><time>2026-03-28T12:05:32.999Z</time></trkpt><trkpt lat="44.757758744813245" lon="9.381940020304596"><ele>267.0</ele><time>2026-03-28T12:05:33.999Z</time></trkpt><trkpt lat="44.75757460006201" lon="9.382004592502607"><ele>267.6666666666667</ele><time>2026-03-28T12:05:34.999Z</time></trkpt><trkpt lat="44.75739044202535" lon="9.382035083227636"><ele>268.33333333333337</ele><time>2026-03-28T12:05:35.999Z</time></trkpt><trkpt lat="44.75720325913437" lon="9.382062142051682"><ele>269.0</ele><time>2026-03-28T12:05:36.999Z</time></trkpt><trkpt lat="44.75701168067352" lon="9.382083738261343"><ele>269.6666666666667</ele><time>2026-03-28T12:05:37.999Z</time></trkpt><trkpt lat="44.756822560582236" lon="9.382087349523674"><ele>270.3333333333333</ele><time>2026-03-28T12:05:38.999Z</time></trkpt><trkpt lat="44.75663420199135" lon="9.382070928178289"><ele>271.0</ele><time>2026-03-28T12:05:39.999Z</time></trkpt><trkpt lat="44.75645121355202" lon="9.382020904509718"><ele>271.0</ele><time>2026-03-28T12:05:40.999Z</time></trkpt><trkpt lat="44.75626794086007" lon="9.381948713716227"><ele>271.0</ele><time>2026-03-28T12:05:41.999Z</time></trkpt><trkpt lat="44.75609138091307" lon="9.381843903947619"><ele>271.0</ele><time>2026-03-28T12:05:42.999Z</time></trkpt><trkpt lat="44.75592071258637" lon="9.381713551081312"><ele>270.66666666666663</ele><time>2026-03-28T12:05:43.999Z</time></trkpt><trkpt lat="44.755755783349215" lon="9.381562804927208"><ele>270.3333333333333</ele><time>2026-03-28T12:05:44.999Z</time></trkpt><trkpt lat="44.755593874114574" lon="9.381412254320255"><ele>270.0</ele><time>2026-03-28T12:05:45.999Z</time></trkpt><trkpt lat="44.755423989252876" lon="9.381257938329727"><ele>270.3333333333333</ele><time>2026-03-28T12:05:46.999Z</time></trkpt><trkpt lat="44.75525529004785" lon="9.381103191407167"><ele>270.66666666666663</ele><time>2026-03-28T12:05:47.999Z</time></trkpt><trkpt lat="44.755085522667834" lon="9.380948694167824"><ele>271.0</ele><time>2026-03-28T12:05:48.999Z</time></trkpt><trkpt lat="44.75491476752505" lon="9.380794159673313"><ele>271.0</ele><time>2026-03-28T12:05:49.999Z</time></trkpt><trkpt lat="44.754744261201296" lon="9.380636704681246"><ele>271.0</ele><time>2026-03-28T12:05:50.999Z</time></trkpt><trkpt lat="44.75457346171108" lon="9.380483764065588"><ele>271.0</ele><time>2026-03-28T12:05:51.999Z</time></trkpt><trkpt lat="44.75440155429931" lon="9.380328402145645"><ele>271.0</ele><time>2026-03-28T12:05:52.999Z</time></trkpt><trkpt lat="44.75423078068717" lon="9.380173313641794"><ele>271.0</ele><time>2026-03-28T12:05:53.999Z</time></trkpt><trkpt lat="44.75404991898821" lon="9.38004514209807"><ele>271.0</ele><time>2026-03-28T12:05:54.999Z</time></trkpt><trkpt lat="44.75385836378428" lon="9.379966795084682"><ele>271.0</ele><time>2026-03-28T12:05:55.999Z</time></trkpt><trkpt lat="44.753659820431366" lon="9.379912886985885"><ele>271.0</ele><time>2026-03-28T12:05:56.999Z</time></trkpt><trkpt lat="44.75345734593782" lon="9.379890355724468"><ele>271.0</ele><time>2026-03-28T12:05:57.999Z</time></trkpt><trkpt lat="44.75325118428854" lon="9.379880884723956"><ele>268.66666666666663</ele><time>2026-03-28T12:05:58.999Z</time></trkpt><trkpt lat="44.75304057683919" lon="9.379863146017666"><ele>266.3333333333333</ele><time>2026-03-28T12:05:59.999Z</time></trkpt><trkpt lat="44.75282851954391" lon="9.379841895994849"><ele>264.0</ele><time>2026-03-28T12:06:00.999Z</time></trkpt><trkpt lat="44.75261648760636" lon="9.379818496768342"><ele>263.3333333333333</ele><time>2026-03-28T12:06:01.999Z</time></trkpt><trkpt lat="44.75240317231137" lon="9.379798534021909"><ele>262.66666666666663</ele><time>2026-03-28T12:06:02.999Z</time></trkpt><trkpt lat="44.75218858926682" lon="9.379779192859967"><ele>262.0</ele><time>2026-03-28T12:06:03.999Z</time></trkpt><trkpt lat="44.751973679730725" lon="9.379758303631805"><ele>263.0</ele><time>2026-03-28T12:06:04.999Z</time></trkpt><trkpt lat="44.7517583323379" lon="9.379737680497698"><ele>264.0</ele><time>2026-03-28T12:06:05.999Z</time></trkpt><trkpt lat="44.751543516998666" lon="9.379717501183828"><ele>265.0</ele><time>2026-03-28T12:06:06.999Z</time></trkpt><trkpt lat="44.75132895368488" lon="9.379698455658986"><ele>264.66666666666663</ele><time>2026-03-28T12:06:07.999Z</time></trkpt><trkpt lat="44.75111451075598" lon="9.379677278854672"><ele>264.3333333333333</ele><time>2026-03-28T12:06:08.999Z</time></trkpt><trkpt lat="44.75090021299517" lon="9.379659309872533"><ele>264.0</ele><time>2026-03-28T12:06:09.999Z</time></trkpt><trkpt lat="44.750686617553434" lon="9.37964462422193"><ele>265.0</ele><time>2026-03-28T12:06:10.999Z</time></trkpt><trkpt lat="44.7504730335193" lon="9.379638062852177"><ele>266.0</ele><time>2026-03-28T12:06:12Z</time></trkpt><trkpt lat="44.750260538126284" lon="9.379654729532572"><ele>267.0</ele><time>2026-03-28T12:06:13Z</time></trkpt><trkpt lat="44.75005186715866" lon="9.379707750026922"><ele>268.0</ele><time>2026-03-28T12:06:14Z</time></trkpt><trkpt lat="44.74985085710323" lon="9.379802210132311"><ele>269.0</ele><time>2026-03-28T12:06:15Z</time></trkpt><trkpt lat="44.749653143317644" lon="9.379905379574724"><ele>270.0</ele><time>2026-03-28T12:06:16Z</time></trkpt><trkpt lat="44.749471967744064" lon="9.380063749418326"><ele>272.0</ele><time>2026-03-28T12:06:17Z</time></trkpt><trkpt lat="44.74931341782571" lon="9.380259571628958"><ele>274.0</ele><time>2026-03-28T12:06:18Z</time></trkpt><trkpt lat="44.7491669950937" lon="9.380465631641336"><ele>276.0</ele><time>2026-03-28T12:06:19Z</time></trkpt><trkpt lat="44.74902764335529" lon="9.380681814421578"><ele>279.0</ele><time>2026-03-28T12:06:20Z</time></trkpt><trkpt lat="44.74892290423649" lon="9.38093813623218"><ele>282.0</ele><time>2026-03-28T12:06:21Z</time></trkpt><trkpt lat="44.74883913819159" lon="9.381207110992927"><ele>285.0</ele><time>2026-03-28T12:06:22Z</time></trkpt><trkpt lat="44.74878011912742" lon="9.381490733068867"><ele>289.6666666666667</ele><time>2026-03-28T12:06:23Z</time></trkpt><trkpt lat="44.74874528757575" lon="9.381784286016487"><ele>294.33333333333337</ele><time>2026-03-28T12:06:24Z</time></trkpt><trkpt lat="44.748730378033464" lon="9.382085018735543"><ele>299.0</ele><time>2026-03-28T12:06:25Z</time></trkpt><trkpt lat="44.74874857237697" lon="9.38238647049604"><ele>301.33333333333337</ele><time>2026-03-28T12:06:26Z</time></trkpt><trkpt lat="44.74878840206882" lon="9.382682450029582"><ele>303.6666666666667</ele><time>2026-03-28T12:06:27Z</time></trkpt><trkpt lat="44.748840582996024" lon="9.382973076658795"><ele>306.0</ele><time>2026-03-28T12:06:28Z</time></trkpt><trkpt lat="44.748887117086724" lon="9.383261826615023"><ele>306.3333333333333</ele><time>2026-03-28T12:06:29Z</time></trkpt><trkpt lat="44.748928033548715" lon="9.383549876706166"><ele>306.66666666666663</ele><time>2026-03-28T12:06:30Z</time></trkpt><trkpt lat="44.74895442192257" lon="9.383840168709746"><ele>307.0</ele><time>2026-03-28T12:06:31Z</time></trkpt><trkpt lat="44.74896275314787" lon="9.384135944066305"><ele>307.66666666666663</ele><time>2026-03-28T12:06:32Z</time></trkpt><trkpt lat="44.74896275314978" lon="9.384432252759645"><ele>308.3333333333333</ele><time>2026-03-28T12:06:33Z</time></trkpt><trkpt lat="44.748964115701895" lon="9.384728017299864"><ele>309.0</ele><time>2026-03-28T12:06:34Z</time></trkpt><trkpt lat="44.74896630711934" lon="9.38502256490109"><ele>309.0</ele><time>2026-03-28T12:06:35Z</time></trkpt><trkpt lat="44.748968512197735" lon="9.385317126325896"><ele>309.0</ele><time>2026-03-28T12:06:36Z</time></trkpt><trkpt lat="44.74897016467458" lon="9.385614528481556"><ele>309.0</ele><time>2026-03-28T12:06:37Z</time></trkpt><trkpt lat="44.74896597847286" lon="9.385912547569836"><ele>311.6666666666667</ele><time>2026-03-28T12:06:38Z</time></trkpt><trkpt lat="44.74895312924534" lon="9.386209921173561"><ele>314.33333333333337</ele><time>2026-03-28T12:06:39Z</time></trkpt><trkpt lat="44.748925370356396" lon="9.386504366884127"><ele>317.0</ele><time>2026-03-28T12:06:40Z</time></trkpt><trkpt lat="44.7488793218839" lon="9.386796477528627"><ele>321.6666666666667</ele><time>2026-03-28T12:06:41Z</time></trkpt><trkpt lat="44.74882031935079" lon="9.387082078864701"><ele>326.3333333333333</ele><time>2026-03-28T12:06:42Z</time></trkpt><trkpt lat="44.748747906740206" lon="9.38736232034154"><ele>331.0</ele><time>2026-03-28T12:06:43Z</time></trkpt><trkpt lat="44.748662945288395" lon="9.38763351533687"><ele>336.3333333333333</ele><time>2026-03-28T12:06:44Z</time></trkpt><trkpt lat="44.7485674887437" lon="9.387892709436217"><ele>341.6666666666667</ele><time>2026-03-28T12:06:45Z</time></trkpt><trkpt lat="44.74846116469564" lon="9.38814402895123"><ele>347.0</ele><time>2026-03-28T12:06:46Z</time></trkpt><trkpt lat="44.74835382472914" lon="9.388390691310363"><ele>343.6666666666667</ele><time>2026-03-28T12:06:47Z</time></trkpt><trkpt lat="44.74824917046711" lon="9.388635733605254"><ele>340.3333333333333</ele><time>2026-03-28T12:06:48Z</time></trkpt><trkpt lat="44.7481461282916" lon="9.388871864587662"><ele>337.0</ele><time>2026-03-28T12:06:49Z</time></trkpt><trkpt lat="44.74804058290707" lon="9.389092816681213"><ele>337.0</ele><time>2026-03-28T12:06:50Z</time></trkpt><trkpt lat="44.74792871763966" lon="9.389283186510053"><ele>337.0</ele><time>2026-03-28T12:06:51Z</time></trkpt><trkpt lat="44.74780771029512" lon="9.389454488138192"><ele>337.0</ele><time>2026-03-28T12:06:52Z</time></trkpt><trkpt lat="44.74768377440686" lon="9.389625361597805"><ele>332.66666666666663</ele><time>2026-03-28T12:06:53Z</time></trkpt><trkpt lat="44.74753366471684" lon="9.389764618880148"><ele>328.3333333333333</ele><time>2026-03-28T12:06:54Z</time></trkpt><trkpt lat="44.747373457079135" lon="9.389888686442625"><ele>324.0</ele><time>2026-03-28T12:06:55Z</time></trkpt><trkpt lat="44.74720113431281" lon="9.389989928117588"><ele>324.0</ele><time>2026-03-28T12:06:56Z</time></trkpt><trkpt lat="44.74702038421222" lon="9.390063413426839"><ele>324.0</ele><time>2026-03-28T12:06:57Z</time></trkpt><trkpt lat="44.746833374042716" lon="9.390107266240804"><ele>324.0</ele><time>2026-03-28T12:06:58Z</time></trkpt><trkpt lat="44.74664199146636" lon="9.39012698339015"><ele>318.0</ele><time>2026-03-28T12:06:59Z</time></trkpt><trkpt lat="44.74644675690518" lon="9.390116914375769"><ele>312.0</ele><time>2026-03-28T12:07:00Z</time></trkpt><trkpt lat="44.7462585844123" lon="9.390080349918406"><ele>306.0</ele><time>2026-03-28T12:07:01Z</time></trkpt><trkpt lat="44.746073685445914" lon="9.390018048344665"><ele>311.3333333333333</ele><time>2026-03-28T12:07:02Z</time></trkpt><trkpt lat="44.7458873943053" lon="9.38994492741722"><ele>316.66666666666663</ele><time>2026-03-28T12:07:03Z</time></trkpt><trkpt lat="44.74570249524853" lon="9.389857861774757"><ele>322.0</ele><time>2026-03-28T12:07:04Z</time></trkpt><trkpt lat="44.74552569228472" lon="9.389741365102896"><ele>319.3333333333333</ele><time>2026-03-28T12:07:05Z</time></trkpt><trkpt lat="44.745355537718176" lon="9.389607661414251"><ele>316.6666666666667</ele><time>2026-03-28T12:07:05.999Z</time></trkpt><trkpt lat="44.74518926477048" lon="9.389466455932126"><ele>314.0</ele><time>2026-03-28T12:07:06.999Z</time></trkpt><trkpt lat="44.74501819306767" lon="9.389342160217923"><ele>314.0</ele><time>2026-03-28T12:07:07.999Z</time></trkpt><trkpt lat="44.74484411602388" lon="9.389226487536176"><ele>314.0</ele><time>2026-03-28T12:07:08.999Z</time></trkpt><trkpt lat="44.74466562559392" lon="9.389134777390531"><ele>314.0</ele><time>2026-03-28T12:07:09.999Z</time></trkpt><trkpt lat="44.74447789729927" lon="9.389062018775322"><ele>319.33333333333337</ele><time>2026-03-28T12:07:10.999Z</time></trkpt><trkpt lat="44.74428717476619" lon="9.389010067571553"><ele>324.6666666666667</ele><time>2026-03-28T12:07:11.999Z</time></trkpt><trkpt lat="44.74410940630902" lon="9.388987476407197"><ele>330.0</ele><time>2026-03-28T12:07:12.999Z</time></trkpt><trkpt lat="44.743940046706776" lon="9.38898848114191"><ele>330.0</ele><time>2026-03-28T12:07:13.999Z</time></trkpt><trkpt lat="44.743775546319206" lon="9.389005920440978"><ele>330.0</ele><time>2026-03-28T12:07:14.999Z</time></trkpt><trkpt lat="44.74360830721852" lon="9.389018236632216"><ele>330.0</ele><time>2026-03-28T12:07:15.999Z</time></trkpt><trkpt lat="44.74343892537662" lon="9.389005997932596"><ele>335.6666666666667</ele><time>2026-03-28T12:07:16.999Z</time></trkpt><trkpt lat="44.74327451177958" lon="9.388966644473058"><ele>341.33333333333337</ele><time>2026-03-28T12:07:17.999Z</time></trkpt><trkpt lat="44.74311965166772" lon="9.388899621399085"><ele>347.0</ele><time>2026-03-28T12:07:18.999Z</time></trkpt><trkpt lat="44.742964383211046" lon="9.388825780497262"><ele>342.33333333333337</ele><time>2026-03-28T12:07:19.999Z</time></trkpt><trkpt lat="44.74281910760693" lon="9.388737875638737"><ele>337.6666666666667</ele><time>2026-03-28T12:07:20.999Z</time></trkpt><trkpt lat="44.742670391718065" lon="9.388648903393346"><ele>333.0</ele><time>2026-03-28T12:07:21.999Z</time></trkpt><trkpt lat="44.7425238693205" lon="9.388558279859678"><ele>333.0</ele><time>2026-03-28T12:07:22.999Z</time></trkpt><trkpt lat="44.7423782344612" lon="9.388467142707368"><ele>333.0</ele><time>2026-03-28T12:07:23.999Z</time></trkpt><trkpt lat="44.742229458524385" lon="9.388378658921953"><ele>333.0</ele><time>2026-03-28T12:07:24.999Z</time></trkpt><trkpt lat="44.742079632481996" lon="9.38829044940294"><ele>333.0</ele><time>2026-03-28T12:07:25.999Z</time></trkpt><trkpt lat="44.74192476756476" lon="9.388200870788081"><ele>333.0</ele><time>2026-03-28T12:07:27.019Z</time></trkpt><trkpt lat="44.74177038811327" lon="9.388116427681389"><ele>333.0</ele><time>2026-03-28T12:07:28.019Z</time></trkpt><trkpt lat="44.741613828214554" lon="9.388031296220074"><ele>340.6666666666667</ele><time>2026-03-28T12:07:29.019Z</time></trkpt><trkpt lat="44.741453314426366" lon="9.387945593261268"><ele>348.33333333333337</ele><time>2026-03-28T12:07:30.019Z</time></trkpt><trkpt lat="44.74129592683771" lon="9.387859000599347"><ele>356.0</ele><time>2026-03-28T12:07:31.022Z</time></trkpt><trkpt lat="44.74032537084514" lon="9.387288233274022"><ele>342.6666666666667</ele><time>2026-03-28T12:07:36.999Z</time></trkpt><trkpt lat="44.740166520547255" lon="9.387213084240507"><ele>329.3333333333333</ele><time>2026-03-28T12:07:37.999Z</time></trkpt><trkpt lat="44.740006048975175" lon="9.387206608163806"><ele>316.0</ele><time>2026-03-28T12:07:38.999Z</time></trkpt><trkpt lat="44.73983324561381" lon="9.38719336158323"><ele>316.0</ele><time>2026-03-28T12:07:39.999Z</time></trkpt><trkpt lat="44.73965939639188" lon="9.38721226754617"><ele>316.0</ele><time>2026-03-28T12:07:40.999Z</time></trkpt><trkpt lat="44.739485636820156" lon="9.387260984520795"><ele>316.0</ele><time>2026-03-28T12:07:41.999Z</time></trkpt><trkpt lat="44.73932261577166" lon="9.38733119542881"><ele>320.0</ele><time>2026-03-28T12:07:42.999Z</time></trkpt><trkpt lat="44.739173128085746" lon="9.38741081980105"><ele>324.0</ele><time>2026-03-28T12:07:43.999Z</time></trkpt><trkpt lat="44.739031960637924" lon="9.387517850016682"><ele>328.0</ele><time>2026-03-28T12:07:44.999Z</time></trkpt><trkpt lat="44.73889994346681" lon="9.387659809749104"><ele>328.0</ele><time>2026-03-28T12:07:45.999Z</time></trkpt><trkpt lat="44.738767143114906" lon="9.387817554585236"><ele>328.0</ele><time>2026-03-28T12:07:46.999Z</time></trkpt><trkpt lat="44.73862820708515" lon="9.38798725908639"><ele>328.0</ele><time>2026-03-28T12:07:47.999Z</time></trkpt><trkpt lat="44.7384912168362" lon="9.38816607310828"><ele>327.3333333333333</ele><time>2026-03-28T12:07:48.999Z</time></trkpt><trkpt lat="44.738345994944616" lon="9.38833982641162"><ele>326.6666666666667</ele><time>2026-03-28T12:07:49.999Z</time></trkpt><trkpt lat="44.73819855765459" lon="9.38850951653427"><ele>326.0</ele><time>2026-03-28T12:07:50.999Z</time></trkpt><trkpt lat="44.73804415429343" lon="9.388679152237108"><ele>328.33333333333337</ele><time>2026-03-28T12:07:51.999Z</time></trkpt><trkpt lat="44.737889439260286" lon="9.388850455254826"><ele>330.6666666666667</ele><time>2026-03-28T12:07:52.999Z</time></trkpt><trkpt lat="44.737725526177385" lon="9.389010842224758"><ele>333.0</ele><time>2026-03-28T12:07:53.999Z</time></trkpt><trkpt lat="44.737556181513966" lon="9.389165416849385"><ele>333.0</ele><time>2026-03-28T12:07:54.999Z</time></trkpt><trkpt lat="44.73738144449659" lon="9.389315918146362"><ele>333.0</ele><time>2026-03-28T12:07:55.999Z</time></trkpt><trkpt lat="44.737201282701946" lon="9.389450247648746"><ele>333.0</ele><time>2026-03-28T12:07:56.999Z</time></trkpt><trkpt lat="44.73701473292018" lon="9.389560633238212"><ele>330.0</ele><time>2026-03-28T12:07:57.999Z</time></trkpt><trkpt lat="44.736814075482705" lon="9.389628011175567"><ele>327.0</ele><time>2026-03-28T12:07:58.999Z</time></trkpt><trkpt lat="44.73661377851029" lon="9.389667063489187"><ele>324.0</ele><time>2026-03-28T12:07:59.999Z</time></trkpt><trkpt lat="44.73641202541738" lon="9.389676673236979"><ele>336.0</ele><time>2026-03-28T12:08:00.999Z</time></trkpt><trkpt lat="44.73620797070667" lon="9.389678828909439"><ele>348.0</ele><time>2026-03-28T12:08:01.999Z</time></trkpt><trkpt lat="44.736004975274724" lon="9.389684497008208"><ele>360.0</ele><time>2026-03-28T12:08:02.999Z</time></trkpt><trkpt lat="44.735802333395185" lon="9.389693676290786"><ele>360.0</ele><time>2026-03-28T12:08:03.999Z</time></trkpt><trkpt lat="44.735607507679845" lon="9.389696129268252"><ele>360.0</ele><time>2026-03-28T12:08:04.999Z</time></trkpt><trkpt lat="44.73541889346045" lon="9.38966820944232"><ele>360.0</ele><time>2026-03-28T12:08:05.999Z</time></trkpt><trkpt lat="44.7352285480318" lon="9.389604013377856"><ele>350.0</ele><time>2026-03-28T12:08:06.999Z</time></trkpt><trkpt lat="44.73505023871439" lon="9.38954310944887"><ele>340.0</ele><time>2026-03-28T12:08:07.999Z</time></trkpt><trkpt lat="44.734876382439225" lon="9.38945812031479"><ele>330.0</ele><time>2026-03-28T12:08:08.999Z</time></trkpt><trkpt lat="44.73471022650161" lon="9.38935055533553"><ele>330.0</ele><time>2026-03-28T12:08:09.999Z</time></trkpt><trkpt lat="44.73454344316209" lon="9.389228689489203"><ele>330.0</ele><time>2026-03-28T12:08:10.999Z</time></trkpt><trkpt lat="44.734365334322604" lon="9.389147314774299"><ele>330.0</ele><time>2026-03-28T12:08:11.999Z</time></trkpt><trkpt lat="44.73418149385924" lon="9.38910251123534"><ele>335.0</ele><time>2026-03-28T12:08:12.999Z</time></trkpt><trkpt lat="44.733993889418336" lon="9.389080565442558"><ele>340.0</ele><time>2026-03-28T12:08:13.999Z</time></trkpt><trkpt lat="44.73380433071969" lon="9.389067146793273"><ele>345.0</ele><time>2026-03-28T12:08:14.999Z</time></trkpt><trkpt lat="44.73361489889337" lon="9.389104199045166"><ele>346.0</ele><time>2026-03-28T12:08:15.999Z</time></trkpt><trkpt lat="44.733434371285355" lon="9.389135945125087"><ele>347.0</ele><time>2026-03-28T12:08:16.999Z</time></trkpt><trkpt lat="44.73325113659047" lon="9.389085754135834"><ele>348.0</ele><time>2026-03-28T12:08:18Z</time></trkpt><trkpt lat="44.733065303527496" lon="9.389023422237452"><ele>348.0</ele><time>2026-03-28T12:08:19Z</time></trkpt><trkpt lat="44.73288971263744" lon="9.389010471773721"><ele>348.0</ele><time>2026-03-28T12:08:20Z</time></trkpt><trkpt lat="44.73273890157782" lon="9.389015412428504"><ele>348.0</ele><time>2026-03-28T12:08:21Z</time></trkpt><trkpt lat="44.732602246723076" lon="9.389011675606778"><ele>352.2</ele><time>2026-03-28T12:08:22Z</time></trkpt><trkpt lat="44.73248815156788" lon="9.38899160600969"><ele>356.4</ele><time>2026-03-28T12:08:23Z</time></trkpt><trkpt lat="44.73239295902762" lon="9.388919353699363"><ele>360.59999999999997</ele><time>2026-03-28T12:08:24Z</time></trkpt><trkpt lat="44.73232556280082" lon="9.388795566725648"><ele>364.79999999999995</ele><time>2026-03-28T12:08:25Z</time></trkpt><trkpt lat="44.73226797119654" lon="9.388675579451133"><ele>369.0</ele><time>2026-03-28T12:08:26Z</time></trkpt><trkpt lat="44.73217174688189" lon="9.388587649418486"><ele>362.0</ele><time>2026-03-28T12:08:27Z</time></trkpt><trkpt lat="44.73204673796293" lon="9.38852012504991"><ele>355.0</ele><time>2026-03-28T12:08:28Z</time></trkpt><trkpt lat="44.73192178838233" lon="9.388455541158944"><ele>348.0</ele><time>2026-03-28T12:08:29Z</time></trkpt><trkpt lat="44.731790010339395" lon="9.388399124541078"><ele>341.0</ele><time>2026-03-28T12:08:30Z</time></trkpt><trkpt lat="44.73165454326895" lon="9.388365380869063"><ele>341.0</ele><time>2026-03-28T12:08:31Z</time></trkpt><trkpt lat="44.731511249895995" lon="9.38839612604929"><ele>341.0</ele><time>2026-03-28T12:08:32Z</time></trkpt><trkpt lat="44.731380684570084" lon="9.38844562481342"><ele>341.0</ele><time>2026-03-28T12:08:33Z</time></trkpt><trkpt lat="44.731261242181255" lon="9.388467854187937"><ele>341.0</ele><time>2026-03-28T12:08:34Z</time></trkpt><trkpt lat="44.73115396591923" lon="9.38848338380099"><ele>341.0</ele><time>2026-03-28T12:08:35Z</time></trkpt><trkpt lat="44.73105932943035" lon="9.38843020309138"><ele>341.0</ele><time>2026-03-28T12:08:36Z</time></trkpt><trkpt lat="44.7309895945431" lon="9.388329372237042"><ele>341.0</ele><time>2026-03-28T12:08:37Z</time></trkpt><trkpt lat="44.730945174441416" lon="9.388201705926248"><ele>341.0</ele><time>2026-03-28T12:08:38Z</time></trkpt><trkpt lat="44.730864609229926" lon="9.38811644098751"><ele>341.0</ele><time>2026-03-28T12:08:39Z</time></trkpt><trkpt lat="44.730752695165215" lon="9.38805125791043"><ele>339.75</ele><time>2026-03-28T12:08:40Z</time></trkpt><trkpt lat="44.730607834041095" lon="9.388049511035614"><ele>338.5</ele><time>2026-03-28T12:08:41Z</time></trkpt><trkpt lat="44.730482497720836" lon="9.38805835068165"><ele>337.25</ele><time>2026-03-28T12:08:42Z</time></trkpt><trkpt lat="44.73034758954066" lon="9.387979942248554"><ele>336.0</ele><time>2026-03-28T12:08:43Z</time></trkpt><trkpt lat="44.7302199810964" lon="9.3878866458447"><ele>336.0</ele><time>2026-03-28T12:08:44Z</time></trkpt><trkpt lat="44.73008802740362" lon="9.387812944997874"><ele>336.0</ele><time>2026-03-28T12:08:45Z</time></trkpt><trkpt lat="44.72994573795054" lon="9.387767913605662"><ele>336.0</ele><time>2026-03-28T12:08:46Z</time></trkpt><trkpt lat="44.72982198811364" lon="9.38769403706217"><ele>336.0</ele><time>2026-03-28T12:08:47Z</time></trkpt><trkpt lat="44.72971941554343" lon="9.387566887460908"><ele>336.0</ele><time>2026-03-28T12:08:48Z</time></trkpt><trkpt lat="44.72962348663979" lon="9.387434710443936"><ele>336.0</ele><time>2026-03-28T12:08:49Z</time></trkpt><trkpt lat="44.729516676883264" lon="9.387358360760611"><ele>336.0</ele><time>2026-03-28T12:08:50Z</time></trkpt><trkpt lat="44.729397088055215" lon="9.387343303937946"><ele>336.0</ele><time>2026-03-28T12:08:51Z</time></trkpt><trkpt lat="44.72926566173745" lon="9.387347289737896"><ele>332.0</ele><time>2026-03-28T12:08:52Z</time></trkpt><trkpt lat="44.729135186088456" lon="9.387368373392015"><ele>328.0</ele><time>2026-03-28T12:08:53Z</time></trkpt><trkpt lat="44.72901279103502" lon="9.387325552498114"><ele>324.0</ele><time>2026-03-28T12:08:54Z</time></trkpt><trkpt lat="44.72891154215706" lon="9.387265464884806"><ele>320.0</ele><time>2026-03-28T12:08:55Z</time></trkpt><trkpt lat="44.72883391205292" lon="9.387160886812252"><ele>320.0</ele><time>2026-03-28T12:08:56Z</time></trkpt><trkpt lat="44.72878125233863" lon="9.38701356883775"><ele>320.0</ele><time>2026-03-28T12:08:57Z</time></trkpt><trkpt lat="44.72875360172335" lon="9.38685787250626"><ele>320.0</ele><time>2026-03-28T12:08:58Z</time></trkpt><trkpt lat="44.72870284805243" lon="9.386740507904916"><ele>320.0</ele><time>2026-03-28T12:08:59Z</time></trkpt><trkpt lat="44.72860778599544" lon="9.386684749520853"><ele>320.0</ele><time>2026-03-28T12:09:00Z</time></trkpt><trkpt lat="44.72848718179669" lon="9.386650481795115"><ele>330.0</ele><time>2026-03-28T12:09:01Z</time></trkpt><trkpt lat="44.728357700010505" lon="9.386626512666389"><ele>340.0</ele><time>2026-03-28T12:09:02Z</time></trkpt><trkpt lat="44.72821705365593" lon="9.386607933881768"><ele>350.0</ele><time>2026-03-28T12:09:03Z</time></trkpt><trkpt lat="44.728071906521244" lon="9.386542996933388"><ele>360.0</ele><time>2026-03-28T12:09:04Z</time></trkpt><trkpt lat="44.72792222295999" lon="9.386486498061174"><ele>360.0</ele><time>2026-03-28T12:09:05Z</time></trkpt><trkpt lat="44.72777463887703" lon="9.386418251659558"><ele>360.0</ele><time>2026-03-28T12:09:06Z</time></trkpt><trkpt lat="44.727634332549016" lon="9.386309619312076"><ele>360.0</ele><time>2026-03-28T12:09:07Z</time></trkpt><trkpt lat="44.72749837782378" lon="9.386187931206678"><ele>351.0</ele><time>2026-03-28T12:09:08Z</time></trkpt><trkpt lat="44.72735794865999" lon="9.38606833899923"><ele>342.0</ele><time>2026-03-28T12:09:09Z</time></trkpt><trkpt lat="44.727211090148835" lon="9.385960203362304"><ele>333.0</ele><time>2026-03-28T12:09:09.999Z</time></trkpt><trkpt lat="44.72707602611217" lon="9.385860653819364"><ele>333.0</ele><time>2026-03-28T12:09:10.999Z</time></trkpt><trkpt lat="44.726964348438344" lon="9.38574269850123"><ele>333.0</ele><time>2026-03-28T12:09:11.999Z</time></trkpt><trkpt lat="44.72688048270645" lon="9.385602316465002"><ele>333.0</ele><time>2026-03-28T12:09:12.999Z</time></trkpt><trkpt lat="44.72679480985017" lon="9.385477401068425"><ele>333.0</ele><time>2026-03-28T12:09:13.999Z</time></trkpt><trkpt lat="44.7266678665108" lon="9.385399360663616"><ele>329.79999999999995</ele><time>2026-03-28T12:09:14.999Z</time></trkpt><trkpt lat="44.7265426714912" lon="9.38532882149803"><ele>326.59999999999997</ele><time>2026-03-28T12:09:15.999Z</time></trkpt><trkpt lat="44.72643587712051" lon="9.385290369048777"><ele>323.4</ele><time>2026-03-28T12:09:16.999Z</time></trkpt><trkpt lat="44.726350787144725" lon="9.385237347746639"><ele>320.2</ele><time>2026-03-28T12:09:17.999Z</time></trkpt><trkpt lat="44.72627960160985" lon="9.385213505753015"><ele>317.0</ele><time>2026-03-28T12:09:18.999Z</time></trkpt><trkpt lat="44.72619630812602" lon="9.385286089812224"><ele>317.0</ele><time>2026-03-28T12:09:19.999Z</time></trkpt><trkpt lat="44.72616286371054" lon="9.385435151378834"><ele>317.0</ele><time>2026-03-28T12:09:20.999Z</time></trkpt><trkpt lat="44.726215991190934" lon="9.385598330153096"><ele>317.0</ele><time>2026-03-28T12:09:21.999Z</time></trkpt><trkpt lat="44.72625215724764" lon="9.385749610557825"><ele>317.0</ele><time>2026-03-28T12:09:22.999Z</time></trkpt><trkpt lat="44.726280710177925" lon="9.385910989445284"><ele>327.0</ele><time>2026-03-28T12:09:23.999Z</time></trkpt><trkpt lat="44.72631156211976" lon="9.38609887943645"><ele>337.0</ele><time>2026-03-28T12:09:24.999Z</time></trkpt><trkpt lat="44.72634934127559" lon="9.386292226895282"><ele>347.0</ele><time>2026-03-28T12:09:25.999Z</time></trkpt><trkpt lat="44.72638451875549" lon="9.386463236602518"><ele>357.0</ele><time>2026-03-28T12:09:26.999Z</time></trkpt><trkpt lat="44.72641209169642" lon="9.386620880359994"><ele>361.75</ele><time>2026-03-28T12:09:27.999Z</time></trkpt><trkpt lat="44.72642153654905" lon="9.386794689247033"><ele>366.5</ele><time>2026-03-28T12:09:28.999Z</time></trkpt><trkpt lat="44.72639985966377" lon="9.386990362672442"><ele>371.25</ele><time>2026-03-28T12:09:29.999Z</time></trkpt><trkpt lat="44.72634806181661" lon="9.387190704508837"><ele>376.0</ele><time>2026-03-28T12:09:30.999Z</time></trkpt><trkpt lat="44.72627856610444" lon="9.387390958715757"><ele>382.3333333333333</ele><time>2026-03-28T12:09:31.999Z</time></trkpt><trkpt lat="44.72618913059424" lon="9.387598430062862"><ele>388.66666666666663</ele><time>2026-03-28T12:09:32.999Z</time></trkpt><trkpt lat="44.72609380171602" lon="9.387799370675117"><ele>395.0</ele><time>2026-03-28T12:09:33.999Z</time></trkpt><trkpt lat="44.72600780495873" lon="9.387980027428684"><ele>388.5</ele><time>2026-03-28T12:09:34.999Z</time></trkpt><trkpt lat="44.72591970368543" lon="9.38814235449742"><ele>382.0</ele><time>2026-03-28T12:09:35.999Z</time></trkpt><trkpt lat="44.72581647208262" lon="9.388292594196326"><ele>375.5</ele><time>2026-03-28T12:09:36.999Z</time></trkpt><trkpt lat="44.725697149435966" lon="9.38843084331495"><ele>369.0</ele><time>2026-03-28T12:09:37.999Z</time></trkpt><trkpt lat="44.72556639684929" lon="9.388565115582457"><ele>369.0</ele><time>2026-03-28T12:09:38.999Z</time></trkpt><trkpt lat="44.72543483030765" lon="9.38871226991557"><ele>369.0</ele><time>2026-03-28T12:09:39.999Z</time></trkpt><trkpt lat="44.72530246206346" lon="9.388814159838187"><ele>369.0</ele><time>2026-03-28T12:09:40.999Z</time></trkpt><trkpt lat="44.725171290381475" lon="9.38888831335932"><ele>366.0</ele><time>2026-03-28T12:09:41.999Z</time></trkpt><trkpt lat="44.72506526165344" lon="9.388977355986196"><ele>363.0</ele><time>2026-03-28T12:09:42.999Z</time></trkpt><trkpt lat="44.724973638632875" lon="9.3891051843068"><ele>360.0</ele><time>2026-03-28T12:09:43.999Z</time></trkpt><trkpt lat="44.724909831357124" lon="9.389281517270579"><ele>357.0</ele><time>2026-03-28T12:09:44.999Z</time></trkpt><trkpt lat="44.724852907014586" lon="9.38946389380289"><ele>357.0</ele><time>2026-03-28T12:09:45.999Z</time></trkpt><trkpt lat="44.724797565444234" lon="9.389650768215358"><ele>357.0</ele><time>2026-03-28T12:09:46.999Z</time></trkpt><trkpt lat="44.724754735204165" lon="9.389839027841687"><ele>357.0</ele><time>2026-03-28T12:09:47.999Z</time></trkpt><trkpt lat="44.72473951462194" lon="9.390014846472578"><ele>357.0</ele><time>2026-03-28T12:09:48.999Z</time></trkpt><trkpt lat="44.72478399855584" lon="9.390182038808327"><ele>357.5</ele><time>2026-03-28T12:09:49.999Z</time></trkpt><trkpt lat="44.72485515059278" lon="9.390337238511556"><ele>358.0</ele><time>2026-03-28T12:09:50.999Z</time></trkpt><trkpt lat="44.72492804058242" lon="9.39047739311994"><ele>358.5</ele><time>2026-03-28T12:09:51.999Z</time></trkpt><trkpt lat="44.72493093255583" lon="9.390635540074319"><ele>359.0</ele><time>2026-03-28T12:09:52.999Z</time></trkpt><trkpt lat="44.72490321398855" lon="9.390811953698808"><ele>360.0</ele><time>2026-03-28T12:09:53.999Z</time></trkpt><trkpt lat="44.72485595683297" lon="9.391005214657683"><ele>361.0</ele><time>2026-03-28T12:09:54.999Z</time></trkpt><trkpt lat="44.7248133985957" lon="9.391211048255549"><ele>362.0</ele><time>2026-03-28T12:09:55.999Z</time></trkpt><trkpt lat="44.72474757768186" lon="9.391417561517933"><ele>362.0</ele><time>2026-03-28T12:09:56.999Z</time></trkpt><trkpt lat="44.72469030374696" lon="9.391639176264327"><ele>362.0</ele><time>2026-03-28T12:09:57.999Z</time></trkpt><trkpt lat="44.72462762845415" lon="9.391866677507283"><ele>362.0</ele><time>2026-03-28T12:09:58.999Z</time></trkpt><trkpt lat="44.724571119982315" lon="9.392088411498808"><ele>367.6666666666667</ele><time>2026-03-28T12:09:59.999Z</time></trkpt><trkpt lat="44.72451614331338" lon="9.392288147041173"><ele>373.3333333333333</ele><time>2026-03-28T12:10:00.999Z</time></trkpt><trkpt lat="44.72443648584428" lon="9.392481456382807"><ele>379.0</ele><time>2026-03-28T12:10:01.999Z</time></trkpt><trkpt lat="44.7243344452389" lon="9.392672345165666"><ele>374.66666666666663</ele><time>2026-03-28T12:10:02.999Z</time></trkpt><trkpt lat="44.72422407446562" lon="9.392858238639864"><ele>370.3333333333333</ele><time>2026-03-28T12:10:03.999Z</time></trkpt><trkpt lat="44.72411385197998" lon="9.393035185004218"><ele>366.0</ele><time>2026-03-28T12:10:04.999Z</time></trkpt><trkpt lat="44.72401359938837" lon="9.393204777104483"><ele>366.0</ele><time>2026-03-28T12:10:05.999Z</time></trkpt><trkpt lat="44.72392947843024" lon="9.393368006361966"><ele>366.0</ele><time>2026-03-28T12:10:06.999Z</time></trkpt><trkpt lat="44.72386017226092" lon="9.393478073789199"><ele>366.0</ele><time>2026-03-28T12:10:07.999Z</time></trkpt><trkpt lat="44.72380341604895" lon="9.393558831369571"><ele>366.0</ele><time>2026-03-28T12:10:08.999Z</time></trkpt><trkpt lat="44.72374090657149" lon="9.39362129658838"><ele>366.0</ele><time>2026-03-28T12:10:10.999Z</time></trkpt><trkpt lat="44.72362772808995" lon="9.393697259389814"><ele>366.4</ele><time>2026-03-28T12:10:50Z</time></trkpt><trkpt lat="44.72356206742048" lon="9.39373980145931"><ele>366.8</ele><time>2026-03-28T12:10:51Z</time></trkpt><trkpt lat="44.723482179074566" lon="9.39378689417759"><ele>367.2</ele><time>2026-03-28T12:10:52Z</time></trkpt><trkpt lat="44.723392916389585" lon="9.393828647953463"><ele>367.59999999999997</ele><time>2026-03-28T12:10:53Z</time></trkpt><trkpt lat="44.72329887334644" lon="9.393873296906019"><ele>368.0</ele><time>2026-03-28T12:10:54Z</time></trkpt><trkpt lat="44.723197435494576" lon="9.393904094518234"><ele>368.0</ele><time>2026-03-28T12:10:55Z</time></trkpt><trkpt lat="44.72310050601768" lon="9.393942524301663"><ele>368.0</ele><time>2026-03-28T12:10:56Z</time></trkpt><trkpt lat="44.72300597218799" lon="9.393983030538942"><ele>368.0</ele><time>2026-03-28T12:10:57Z</time></trkpt><trkpt lat="44.72291101690835" lon="9.394022156073776"><ele>368.0</ele><time>2026-03-28T12:10:58Z</time></trkpt><trkpt lat="44.722827289135346" lon="9.39406206335134"><ele>368.0</ele><time>2026-03-28T12:10:59Z</time></trkpt><trkpt lat="44.72274775096485" lon="9.394119749672752"><ele>363.33333333333337</ele><time>2026-03-28T12:11:00Z</time></trkpt><trkpt lat="44.72267819611835" lon="9.394199841972712"><ele>358.6666666666667</ele><time>2026-03-28T12:11:01Z</time></trkpt><trkpt lat="44.72263059257655" lon="9.394314793318072"><ele>354.0</ele><time>2026-03-28T12:11:02Z</time></trkpt><trkpt lat="44.722607688775966" lon="9.394412680024027"><ele>349.3333333333333</ele><time>2026-03-28T12:11:03Z</time></trkpt><trkpt lat="44.72257444912863" lon="9.39449562400421"><ele>344.66666666666663</ele><time>2026-03-28T12:11:04Z</time></trkpt><trkpt lat="44.722520329704366" lon="9.39456672418656"><ele>340.0</ele><time>2026-03-28T12:11:05Z</time></trkpt><trkpt lat="44.722441455508026" lon="9.394547412957223"><ele>340.0</ele><time>2026-03-28T12:11:06Z</time></trkpt><trkpt lat="44.72236388238696" lon="9.394462720379298"><ele>340.0</ele><time>2026-03-28T12:11:07Z</time></trkpt><trkpt lat="44.72228407767261" lon="9.394327460546943"><ele>340.0</ele><time>2026-03-28T12:11:08Z</time></trkpt><trkpt lat="44.7221905379325" lon="9.394198010040864"><ele>340.0</ele><time>2026-03-28T12:11:09Z</time></trkpt><trkpt lat="44.722116332966515" lon="9.394074622065139"><ele>340.0</ele><time>2026-03-28T12:11:10Z</time></trkpt><trkpt lat="44.72201978366765" lon="9.39396306627289"><ele>340.0</ele><time>2026-03-28T12:11:11Z</time></trkpt><trkpt lat="44.72190843064353" lon="9.39386956739172"><ele>340.0</ele><time>2026-03-28T12:11:12Z</time></trkpt><trkpt lat="44.72179141586249" lon="9.39380708646852"><ele>340.0</ele><time>2026-03-28T12:11:13Z</time></trkpt><trkpt lat="44.72167596766747" lon="9.3938015871979"><ele>339.25</ele><time>2026-03-28T12:11:14Z</time></trkpt><trkpt lat="44.72156600219189" lon="9.393854187399848"><ele>338.5</ele><time>2026-03-28T12:11:15Z</time></trkpt><trkpt lat="44.72146473209161" lon="9.393942783910772"><ele>337.75</ele><time>2026-03-28T12:11:16Z</time></trkpt><trkpt lat="44.72140042421943" lon="9.394100085923803"><ele>337.0</ele><time>2026-03-28T12:11:17Z</time></trkpt><trkpt lat="44.721378651661134" lon="9.394279889520593"><ele>337.0</ele><time>2026-03-28T12:11:18Z</time></trkpt><trkpt lat="44.721338096760654" lon="9.39445245468911"><ele>337.0</ele><time>2026-03-28T12:11:19Z</time></trkpt><trkpt lat="44.7212491588351" lon="9.394593053984426"><ele>337.0</ele><time>2026-03-28T12:11:20Z</time></trkpt><trkpt lat="44.72113807767496" lon="9.394721956186974"><ele>337.0</ele><time>2026-03-28T12:11:20.999Z</time></trkpt><trkpt lat="44.721030468408216" lon="9.394838958437205"><ele>340.0</ele><time>2026-03-28T12:11:21.999Z</time></trkpt><trkpt lat="44.720934298064314" lon="9.394958408652474"><ele>343.0</ele><time>2026-03-28T12:11:22.999Z</time></trkpt><trkpt lat="44.720822106058556" lon="9.395015357379867"><ele>346.0</ele><time>2026-03-28T12:11:23.999Z</time></trkpt><trkpt lat="44.720712904824104" lon="9.395027104900084"><ele>349.0</ele><time>2026-03-28T12:11:24.999Z</time></trkpt><trkpt lat="44.72060652362168" lon="9.39499775576172"><ele>349.0</ele><time>2026-03-28T12:11:25.999Z</time></trkpt><trkpt lat="44.72052797748484" lon="9.394927864976678"><ele>349.0</ele><time>2026-03-28T12:11:26.999Z</time></trkpt><trkpt lat="44.72049201089887" lon="9.394813447332178"><ele>349.0</ele><time>2026-03-28T12:11:27.999Z</time></trkpt><trkpt lat="44.72049310439704" lon="9.394655605050804"><ele>349.0</ele><time>2026-03-28T12:11:28.999Z</time></trkpt><trkpt lat="44.720509914470504" lon="9.39447617240471"><ele>349.0</ele><time>2026-03-28T12:11:29.999Z</time></trkpt><trkpt lat="44.72052544316901" lon="9.394282277301759"><ele>341.66666666666663</ele><time>2026-03-28T12:11:30.999Z</time></trkpt><trkpt lat="44.72057368882636" lon="9.394076767805124"><ele>334.3333333333333</ele><time>2026-03-28T12:11:31.999Z</time></trkpt><trkpt lat="44.72066698530759" lon="9.393892856818047"><ele>327.0</ele><time>2026-03-28T12:11:32.999Z</time></trkpt><trkpt lat="44.720775341686874" lon="9.393721317353998"><ele>327.0</ele><time>2026-03-28T12:11:33.999Z</time></trkpt><trkpt lat="44.72083117716438" lon="9.39356646092691"><ele>327.0</ele><time>2026-03-28T12:11:34.999Z</time></trkpt><trkpt lat="44.720878470055396" lon="9.393381511653294"><ele>327.0</ele><time>2026-03-28T12:11:35.999Z</time></trkpt><trkpt lat="44.72086841232069" lon="9.393210922505645"><ele>327.0</ele><time>2026-03-28T12:11:36.999Z</time></trkpt><trkpt lat="44.72080672246131" lon="9.393036773648715"><ele>325.3333333333333</ele><time>2026-03-28T12:11:37.999Z</time></trkpt><trkpt lat="44.72070492355351" lon="9.392887691261134"><ele>323.66666666666663</ele><time>2026-03-28T12:11:38.999Z</time></trkpt><trkpt lat="44.72058846281741" lon="9.392758771182073"><ele>322.0</ele><time>2026-03-28T12:11:39.999Z</time></trkpt><trkpt lat="44.72049479401944" lon="9.39257272518571"><ele>322.0</ele><time>2026-03-28T12:11:40.999Z</time></trkpt><trkpt lat="44.72043365232342" lon="9.392338071614947"><ele>322.0</ele><time>2026-03-28T12:11:41.999Z</time></trkpt><trkpt lat="44.720361578911564" lon="9.392096811413921"><ele>322.0</ele><time>2026-03-28T12:11:42.999Z</time></trkpt><trkpt lat="44.72031945367342" lon="9.391850189109789"><ele>317.66666666666663</ele><time>2026-03-28T12:11:43.999Z</time></trkpt><trkpt lat="44.72032052516881" lon="9.39159371984791"><ele>313.3333333333333</ele><time>2026-03-28T12:11:44.999Z</time></trkpt><trkpt lat="44.72031530723624" lon="9.391331139775838"><ele>309.0</ele><time>2026-03-28T12:11:45.999Z</time></trkpt><trkpt lat="44.72029830008224" lon="9.391062655258763"><ele>307.0</ele><time>2026-03-28T12:11:46.999Z</time></trkpt><trkpt lat="44.720266287831215" lon="9.39078910896843"><ele>305.0</ele><time>2026-03-28T12:11:47.999Z</time></trkpt><trkpt lat="44.720235655710574" lon="9.390548078496398"><ele>303.0</ele><time>2026-03-28T12:11:48.999Z</time></trkpt><trkpt lat="44.72018606746076" lon="9.390350561054822"><ele>307.0</ele><time>2026-03-28T12:11:49.999Z</time></trkpt><trkpt lat="44.72010067020412" lon="9.390208141494682"><ele>311.0</ele><time>2026-03-28T12:11:50.999Z</time></trkpt><trkpt lat="44.71999208363696" lon="9.390095448363827"><ele>315.0</ele><time>2026-03-28T12:11:51.999Z</time></trkpt><trkpt lat="44.71982872599465" lon="9.390019441985528"><ele>319.0</ele><time>2026-03-28T12:11:52.999Z</time></trkpt><trkpt lat="44.71965096853605" lon="9.389966356427118"><ele>319.0</ele><time>2026-03-28T12:11:53.999Z</time></trkpt><trkpt lat="44.7194943623975" lon="9.389944659217257"><ele>319.0</ele><time>2026-03-28T12:11:54.999Z</time></trkpt><trkpt lat="44.719330429837406" lon="9.389946022674197"><ele>319.0</ele><time>2026-03-28T12:11:55.999Z</time></trkpt><trkpt lat="44.71917553709376" lon="9.389965603210992"><ele>320.3333333333333</ele><time>2026-03-28T12:11:56.999Z</time></trkpt><trkpt lat="44.719014003066135" lon="9.390064774891513"><ele>321.6666666666667</ele><time>2026-03-28T12:11:57.999Z</time></trkpt><trkpt lat="44.71887595197797" lon="9.390162443719088"><ele>323.0</ele><time>2026-03-28T12:11:58.999Z</time></trkpt><trkpt lat="44.718724266973986" lon="9.390220223421972"><ele>323.6666666666667</ele><time>2026-03-28T12:11:59.999Z</time></trkpt><trkpt lat="44.71855857097426" lon="9.39023378229963"><ele>324.3333333333333</ele><time>2026-03-28T12:12:00.999Z</time></trkpt><trkpt lat="44.71837402379083" lon="9.390239021820124"><ele>325.0</ele><time>2026-03-28T12:12:01.999Z</time></trkpt><trkpt lat="44.71816619234635" lon="9.39020031708587"><ele>325.0</ele><time>2026-03-28T12:12:02.999Z</time></trkpt><trkpt lat="44.71796613357487" lon="9.390151882110317"><ele>325.0</ele><time>2026-03-28T12:12:03.999Z</time></trkpt><trkpt lat="44.717766033100105" lon="9.390126780401701"><ele>325.0</ele><time>2026-03-28T12:12:04.999Z</time></trkpt><trkpt lat="44.717579286902655" lon="9.390139251010716"><ele>327.3333333333333</ele><time>2026-03-28T12:12:05.999Z</time></trkpt><trkpt lat="44.71739949561726" lon="9.39010765580284"><ele>329.6666666666667</ele><time>2026-03-28T12:12:06.999Z</time></trkpt><trkpt lat="44.717207654560255" lon="9.390000511419158"><ele>332.0</ele><time>2026-03-28T12:12:07.999Z</time></trkpt><trkpt lat="44.71700440008027" lon="9.38989275622538"><ele>337.0</ele><time>2026-03-28T12:12:08.999Z</time></trkpt><trkpt lat="44.716803897943414" lon="9.389782824201166"><ele>342.0</ele><time>2026-03-28T12:12:09.999Z</time></trkpt><trkpt lat="44.71661390301306" lon="9.389646016320004"><ele>347.0</ele><time>2026-03-28T12:12:10.999Z</time></trkpt><trkpt lat="44.71643696416437" lon="9.389486795659906"><ele>347.6666666666667</ele><time>2026-03-28T12:12:11.999Z</time></trkpt><trkpt lat="44.716282777060655" lon="9.389347369360578"><ele>348.3333333333333</ele><time>2026-03-28T12:12:12.999Z</time></trkpt><trkpt lat="44.71614198093809" lon="9.389227356324014"><ele>349.0</ele><time>2026-03-28T12:12:13.999Z</time></trkpt><trkpt lat="44.716031092242574" lon="9.389051537990275"><ele>340.66666666666663</ele><time>2026-03-28T12:12:14.999Z</time></trkpt><trkpt lat="44.71595829194134" lon="9.388822331396229"><ele>332.3333333333333</ele><time>2026-03-28T12:12:15.999Z</time></trkpt><trkpt lat="44.715891329352345" lon="9.38857014426116"><ele>324.0</ele><time>2026-03-28T12:12:16.999Z</time></trkpt><trkpt lat="44.7158061428665" lon="9.388321585464432"><ele>324.0</ele><time>2026-03-28T12:12:17.999Z</time></trkpt><trkpt lat="44.71570711251843" lon="9.388085865074512"><ele>324.0</ele><time>2026-03-28T12:12:18.999Z</time></trkpt><trkpt lat="44.71560645894594" lon="9.387883239218473"><ele>324.0</ele><time>2026-03-28T12:12:19.999Z</time></trkpt><trkpt lat="44.71547265816169" lon="9.387718844461538"><ele>319.6666666666667</ele><time>2026-03-28T12:12:20.999Z</time></trkpt><trkpt lat="44.715337389978345" lon="9.38755279891284"><ele>315.33333333333337</ele><time>2026-03-28T12:12:21.999Z</time></trkpt><trkpt lat="44.715250203075286" lon="9.387384874159169"><ele>311.0</ele><time>2026-03-28T12:12:22.999Z</time></trkpt><trkpt lat="44.71519846140028" lon="9.387185242188632"><ele>316.0</ele><time>2026-03-28T12:12:23.999Z</time></trkpt><trkpt lat="44.715147366979515" lon="9.38696543624154"><ele>321.0</ele><time>2026-03-28T12:12:24.999Z</time></trkpt><trkpt lat="44.715044491695686" lon="9.38677737505579"><ele>326.0</ele><time>2026-03-28T12:12:25.999Z</time></trkpt><trkpt lat="44.714958563621366" lon="9.386538037177791"><ele>322.33333333333337</ele><time>2026-03-28T12:12:26.999Z</time></trkpt><trkpt lat="44.714889420508875" lon="9.386281305268039"><ele>318.6666666666667</ele><time>2026-03-28T12:12:27.999Z</time></trkpt><trkpt lat="44.71479669501926" lon="9.38603504194932"><ele>315.0</ele><time>2026-03-28T12:12:28.999Z</time></trkpt><trkpt lat="44.71470503900776" lon="9.38579454659542"><ele>315.0</ele><time>2026-03-28T12:12:30Z</time></trkpt><trkpt lat="44.71462072262651" lon="9.385568313526424"><ele>315.0</ele><time>2026-03-28T12:12:31Z</time></trkpt><trkpt lat="44.7145414427296" lon="9.385364897747364"><ele>315.0</ele><time>2026-03-28T12:12:32Z</time></trkpt><trkpt lat="44.71448191960755" lon="9.385183126737914"><ele>313.25</ele><time>2026-03-28T12:12:33Z</time></trkpt><trkpt lat="44.71445028870079" lon="9.384995516586434"><ele>311.5</ele><time>2026-03-28T12:12:34Z</time></trkpt><trkpt lat="44.71444982768048" lon="9.384780643746323"><ele>309.75</ele><time>2026-03-28T12:12:35Z</time></trkpt><trkpt lat="44.7144677401489" lon="9.384559059468026"><ele>308.0</ele><time>2026-03-28T12:12:36Z</time></trkpt><trkpt lat="44.71448250849892" lon="9.384337221278438"><ele>308.0</ele><time>2026-03-28T12:12:37Z</time></trkpt><trkpt lat="44.71449641716388" lon="9.384126464558273"><ele>308.0</ele><time>2026-03-28T12:12:38Z</time></trkpt><trkpt lat="44.714523438299786" lon="9.383935376371102"><ele>308.0</ele><time>2026-03-28T12:12:39Z</time></trkpt><trkpt lat="44.71455013956271" lon="9.383761707376744"><ele>308.0</ele><time>2026-03-28T12:12:40Z</time></trkpt><trkpt lat="44.714561261023334" lon="9.383588928461469"><ele>309.0</ele><time>2026-03-28T12:12:41Z</time></trkpt><trkpt lat="44.71453640038852" lon="9.38342307807109"><ele>310.0</ele><time>2026-03-28T12:12:42Z</time></trkpt><trkpt lat="44.71448240634963" lon="9.383279187277848"><ele>311.0</ele><time>2026-03-28T12:12:43Z</time></trkpt><trkpt lat="44.71439976515829" lon="9.38316079370635"><ele>312.0</ele><time>2026-03-28T12:12:44Z</time></trkpt><trkpt lat="44.714314423071265" lon="9.383038639370826"><ele>313.0</ele><time>2026-03-28T12:12:45Z</time></trkpt><trkpt lat="44.714228354821145" lon="9.38291478049013"><ele>314.0</ele><time>2026-03-28T12:12:46Z</time></trkpt><trkpt lat="44.71415333385223" lon="9.382794592246402"><ele>315.0</ele><time>2026-03-28T12:12:47Z</time></trkpt><trkpt lat="44.71408715369008" lon="9.382681996130822"><ele>316.0</ele><time>2026-03-28T12:12:48Z</time></trkpt><trkpt lat="44.714023711101646" lon="9.382562778857814"><ele>317.0</ele><time>2026-03-28T12:12:49Z</time></trkpt><trkpt lat="44.71397440961224" lon="9.38242657788972"><ele>317.0</ele><time>2026-03-28T12:12:50Z</time></trkpt><trkpt lat="44.71394746032866" lon="9.382275538757108"><ele>317.0</ele><time>2026-03-28T12:12:51Z</time></trkpt><trkpt lat="44.71393863206123" lon="9.382116146622138"><ele>317.0</ele><time>2026-03-28T12:12:52Z</time></trkpt><trkpt lat="44.71392808433132" lon="9.381959621407091"><ele>317.0</ele><time>2026-03-28T12:12:53Z</time></trkpt><trkpt lat="44.7139109216057" lon="9.381803634521859"><ele>317.0</ele><time>2026-03-28T12:12:54Z</time></trkpt><trkpt lat="44.713894112492284" lon="9.381648936348565"><ele>316.25</ele><time>2026-03-28T12:12:55Z</time></trkpt><trkpt lat="44.71387926908992" lon="9.381496978433459"><ele>315.5</ele><time>2026-03-28T12:12:56Z</time></trkpt><trkpt lat="44.7138575953613" lon="9.38133923696741"><ele>314.75</ele><time>2026-03-28T12:12:57Z</time></trkpt><trkpt lat="44.713826043525174" lon="9.38118264863843"><ele>314.0</ele><time>2026-03-28T12:12:58Z</time></trkpt><trkpt lat="44.71376902747808" lon="9.38104262710926"><ele>314.0</ele><time>2026-03-28T12:12:59Z</time></trkpt><trkpt lat="44.713693170102864" lon="9.3809228658649"><ele>314.0</ele><time>2026-03-28T12:13:00Z</time></trkpt><trkpt lat="44.71361419790876" lon="9.380798224795202"><ele>314.0</ele><time>2026-03-28T12:13:01Z</time></trkpt><trkpt lat="44.71353618503291" lon="9.380674518112263"><ele>314.0</ele><time>2026-03-28T12:13:02Z</time></trkpt><trkpt lat="44.71345731334164" lon="9.380551803923542"><ele>315.25</ele><time>2026-03-28T12:13:03Z</time></trkpt><trkpt lat="44.71337416427356" lon="9.380439669227494"><ele>316.5</ele><time>2026-03-28T12:13:04Z</time></trkpt><trkpt lat="44.713289057245255" lon="9.380335594877762"><ele>317.75</ele><time>2026-03-28T12:13:05Z</time></trkpt><trkpt lat="44.71319445351698" lon="9.380245332597019"><ele>319.0</ele><time>2026-03-28T12:13:06Z</time></trkpt><trkpt lat="44.71308954470231" lon="9.380177635872995"><ele>319.0</ele><time>2026-03-28T12:13:07Z</time></trkpt><trkpt lat="44.712980564335325" lon="9.380143599513866"><ele>319.0</ele><time>2026-03-28T12:13:08Z</time></trkpt><trkpt lat="44.71286891048216" lon="9.380120425926467"><ele>319.0</ele><time>2026-03-28T12:13:09Z</time></trkpt><trkpt lat="44.71275719180722" lon="9.380102311691315"><ele>319.0</ele><time>2026-03-28T12:13:10Z</time></trkpt><trkpt lat="44.71264460711679" lon="9.380083321617134"><ele>319.75</ele><time>2026-03-28T12:13:11Z</time></trkpt><trkpt lat="44.71253105880485" lon="9.380069142598282"><ele>320.5</ele><time>2026-03-28T12:13:12Z</time></trkpt><trkpt lat="44.712418406955585" lon="9.380048522602054"><ele>321.25</ele><time>2026-03-28T12:13:13Z</time></trkpt><trkpt lat="44.71230475029314" lon="9.380030278308823"><ele>322.0</ele><time>2026-03-28T12:13:14Z</time></trkpt><trkpt lat="44.71218917587016" lon="9.380013353158578"><ele>322.0</ele><time>2026-03-28T12:13:15Z</time></trkpt><trkpt lat="44.71207187125092" lon="9.379995278342621"><ele>322.0</ele><time>2026-03-28T12:13:16Z</time></trkpt><trkpt lat="44.71195120261478" lon="9.379980641175823"><ele>322.0</ele><time>2026-03-28T12:13:17Z</time></trkpt><trkpt lat="44.711831480639084" lon="9.379960632115456"><ele>322.0</ele><time>2026-03-28T12:13:18Z</time></trkpt><trkpt lat="44.71171862876865" lon="9.379906266997198"><ele>321.0</ele><time>2026-03-28T12:13:19Z</time></trkpt><trkpt lat="44.711620806282944" lon="9.379811938498538"><ele>320.0</ele><time>2026-03-28T12:13:20Z</time></trkpt><trkpt lat="44.71153593771312" lon="9.379695257827935"><ele>319.0</ele><time>2026-03-28T12:13:21Z</time></trkpt><trkpt lat="44.71146957720729" lon="9.379563103223802"><ele>318.0</ele><time>2026-03-28T12:13:22Z</time></trkpt><trkpt lat="44.711409435288495" lon="9.379425707583751"><ele>316.75</ele><time>2026-03-28T12:13:23Z</time></trkpt><trkpt lat="44.71134462723092" lon="9.379289558293394"><ele>315.5</ele><time>2026-03-28T12:13:23.999Z</time></trkpt><trkpt lat="44.711277538176205" lon="9.379144927939313"><ele>314.25</ele><time>2026-03-28T12:13:24.999Z</time></trkpt><trkpt lat="44.711211840560736" lon="9.378997761835212"><ele>313.0</ele><time>2026-03-28T12:13:25.999Z</time></trkpt><trkpt lat="44.71114204524994" lon="9.378848334725744"><ele>313.75</ele><time>2026-03-28T12:13:26.999Z</time></trkpt><trkpt lat="44.71106621769419" lon="9.37870246364954"><ele>314.5</ele><time>2026-03-28T12:13:27.999Z</time></trkpt><trkpt lat="44.71099235445706" lon="9.378551764438264"><ele>315.25</ele><time>2026-03-28T12:13:28.999Z</time></trkpt><trkpt lat="44.71092260576009" lon="9.37840168480484"><ele>316.0</ele><time>2026-03-28T12:13:29.999Z</time></trkpt><trkpt lat="44.71085350082242" lon="9.378252257252148"><ele>316.0</ele><time>2026-03-28T12:13:30.999Z</time></trkpt><trkpt lat="44.710784675681005" lon="9.37810088573434"><ele>316.0</ele><time>2026-03-28T12:13:31.999Z</time></trkpt><trkpt lat="44.710710685980274" lon="9.377945328546922"><ele>316.0</ele><time>2026-03-28T12:13:32.999Z</time></trkpt><trkpt lat="44.71063638958109" lon="9.377789766767929"><ele>316.0</ele><time>2026-03-28T12:13:33.999Z</time></trkpt><trkpt lat="44.71056467434184" lon="9.377643207538753"><ele>318.0</ele><time>2026-03-28T12:13:34.999Z</time></trkpt><trkpt lat="44.71046621730536" lon="9.377530936683549"><ele>320.0</ele><time>2026-03-28T12:13:35.999Z</time></trkpt><trkpt lat="44.710341147255434" lon="9.377473655797022"><ele>322.0</ele><time>2026-03-28T12:13:36.999Z</time></trkpt><trkpt lat="44.71020448592734" lon="9.377440938141808"><ele>324.0</ele><time>2026-03-28T12:13:37.999Z</time></trkpt><trkpt lat="44.71006085762141" lon="9.377470808559165"><ele>326.3333333333333</ele><time>2026-03-28T12:13:38.999Z</time></trkpt><trkpt lat="44.709914588628266" lon="9.377558605339388"><ele>328.66666666666663</ele><time>2026-03-28T12:13:39.999Z</time></trkpt><trkpt lat="44.70977639132408" lon="9.377699018653226"><ele>331.0</ele><time>2026-03-28T12:13:40.999Z</time></trkpt><trkpt lat="44.709642115385755" lon="9.377835624812743"><ele>331.0</ele><time>2026-03-28T12:13:41.999Z</time></trkpt><trkpt lat="44.709498226103136" lon="9.377941846366548"><ele>331.0</ele><time>2026-03-28T12:13:42.999Z</time></trkpt><trkpt lat="44.709348400405474" lon="9.378008859801094"><ele>331.0</ele><time>2026-03-28T12:13:43.999Z</time></trkpt><trkpt lat="44.70920498636785" lon="9.378061339394597"><ele>332.25</ele><time>2026-03-28T12:13:44.999Z</time></trkpt><trkpt lat="44.7090775644857" lon="9.378103655854218"><ele>333.5</ele><time>2026-03-28T12:13:45.999Z</time></trkpt><trkpt lat="44.70894893475844" lon="9.37813041208193"><ele>334.75</ele><time>2026-03-28T12:13:46.999Z</time></trkpt><trkpt lat="44.708808456767386" lon="9.378055466555484"><ele>336.0</ele><time>2026-03-28T12:13:47.999Z</time></trkpt><trkpt lat="44.70865149862693" lon="9.378009705275755"><ele>335.75</ele><time>2026-03-28T12:13:48.999Z</time></trkpt><trkpt lat="44.70850047516579" lon="9.377944478568947"><ele>335.5</ele><time>2026-03-28T12:13:49.999Z</time></trkpt><trkpt lat="44.70836775360234" lon="9.377877155728294"><ele>335.25</ele><time>2026-03-28T12:13:50.999Z</time></trkpt><trkpt lat="44.708260207358336" lon="9.377788650744682"><ele>335.0</ele><time>2026-03-28T12:13:51.999Z</time></trkpt><trkpt lat="44.70818809989034" lon="9.37766349557029"><ele>335.0</ele><time>2026-03-28T12:13:52.999Z</time></trkpt><trkpt lat="44.708137516744195" lon="9.377503450323172"><ele>335.0</ele><time>2026-03-28T12:13:53.999Z</time></trkpt><trkpt lat="44.70810633463414" lon="9.377313915927305"><ele>335.0</ele><time>2026-03-28T12:13:54.999Z</time></trkpt><trkpt lat="44.70807642033147" lon="9.377134506537718"><ele>335.0</ele><time>2026-03-28T12:13:55.999Z</time></trkpt><trkpt lat="44.70802894132196" lon="9.376994221830566"><ele>336.6666666666667</ele><time>2026-03-28T12:13:56.999Z</time></trkpt><trkpt lat="44.70796117120565" lon="9.376898151345662"><ele>338.33333333333337</ele><time>2026-03-28T12:13:57.999Z</time></trkpt><trkpt lat="44.70789058058045" lon="9.376848303665676"><ele>340.0</ele><time>2026-03-28T12:13:58.999Z</time></trkpt><trkpt lat="44.70780711849155" lon="9.376818490836376"><ele>341.6666666666667</ele><time>2026-03-28T12:14:00.999Z</time></trkpt><trkpt lat="44.707727851584295" lon="9.376822014854168"><ele>343.3333333333333</ele><time>2026-03-28T12:15:29.999Z</time></trkpt><trkpt lat="44.707655440776435" lon="9.376840694606365"><ele>345.0</ele><time>2026-03-28T12:15:30.999Z</time></trkpt><trkpt lat="44.70756980293543" lon="9.376830716804307"><ele>345.0</ele><time>2026-03-28T12:15:31.999Z</time></trkpt><trkpt lat="44.707480251356436" lon="9.376864640553086"><ele>345.0</ele><time>2026-03-28T12:15:32.999Z</time></trkpt><trkpt lat="44.70737880331151" lon="9.376867742702196"><ele>345.0</ele><time>2026-03-28T12:15:33.999Z</time></trkpt><trkpt lat="44.70728136330059" lon="9.376885224571604"><ele>345.0</ele><time>2026-03-28T12:15:34.999Z</time></trkpt><trkpt lat="44.707184949423045" lon="9.376891719955996"><ele>345.0</ele><time>2026-03-28T12:15:35.999Z</time></trkpt><trkpt lat="44.707095885247455" lon="9.37694919724382"><ele>345.0</ele><time>2026-03-28T12:15:36.999Z</time></trkpt><trkpt lat="44.70701941743153" lon="9.377043164305233"><ele>345.0</ele><time>2026-03-28T12:15:37.999Z</time></trkpt><trkpt lat="44.70695036559236" lon="9.377141323394135"><ele>345.0</ele><time>2026-03-28T12:15:38.999Z</time></trkpt><trkpt lat="44.7068850664196" lon="9.377232773579259"><ele>345.0</ele><time>2026-03-28T12:15:39.999Z</time></trkpt><trkpt lat="44.70681689418234" lon="9.377303482495245"><ele>345.0</ele><time>2026-03-28T12:15:40.999Z</time></trkpt><trkpt lat="44.70672999869721" lon="9.37735064261438"><ele>346.0</ele><time>2026-03-28T12:15:41.999Z</time></trkpt><trkpt lat="44.706630328193604" lon="9.377325149786968"><ele>347.0</ele><time>2026-03-28T12:15:42.999Z</time></trkpt><trkpt lat="44.70653169477456" lon="9.377253437675948"><ele>348.0</ele><time>2026-03-28T12:15:43.999Z</time></trkpt><trkpt lat="44.70642662781213" lon="9.377161444033977"><ele>349.0</ele><time>2026-03-28T12:15:44.999Z</time></trkpt><trkpt lat="44.706318244545294" lon="9.377056918065406"><ele>349.0</ele><time>2026-03-28T12:15:45.999Z</time></trkpt><trkpt lat="44.70620502804489" lon="9.376943878530902"><ele>349.0</ele><time>2026-03-28T12:15:46.999Z</time></trkpt><trkpt lat="44.70608422307874" lon="9.376827562396494"><ele>349.0</ele><time>2026-03-28T12:15:47.999Z</time></trkpt><trkpt lat="44.705967282679836" lon="9.376700431013445"><ele>349.0</ele><time>2026-03-28T12:15:48.999Z</time></trkpt><trkpt lat="44.70586639197217" lon="9.376557239147257"><ele>348.25</ele><time>2026-03-28T12:15:49.999Z</time></trkpt><trkpt lat="44.70578431338789" lon="9.376383973950276"><ele>347.5</ele><time>2026-03-28T12:15:50.999Z</time></trkpt><trkpt lat="44.70571654465125" lon="9.376197988829137"><ele>346.75</ele><time>2026-03-28T12:15:51.999Z</time></trkpt><trkpt lat="44.70564535998704" lon="9.376014434364034"><ele>346.0</ele><time>2026-03-28T12:15:52.999Z</time></trkpt><trkpt lat="44.70558471271882" lon="9.375825784476243"><ele>347.75</ele><time>2026-03-28T12:15:53.999Z</time></trkpt><trkpt lat="44.70555550568112" lon="9.375629976835576"><ele>349.5</ele><time>2026-03-28T12:15:54.999Z</time></trkpt><trkpt lat="44.705558543852504" lon="9.375442538125494"><ele>351.25</ele><time>2026-03-28T12:15:55.999Z</time></trkpt><trkpt lat="44.70559630707508" lon="9.375257301327029"><ele>353.0</ele><time>2026-03-28T12:15:56.999Z</time></trkpt><trkpt lat="44.70565149687031" lon="9.375073080388297"><ele>354.33333333333337</ele><time>2026-03-28T12:15:57.999Z</time></trkpt><trkpt lat="44.70571119715782" lon="9.37488576487"><ele>355.6666666666667</ele><time>2026-03-28T12:15:58.999Z</time></trkpt><trkpt lat="44.70576852532324" lon="9.374688406031346"><ele>357.0</ele><time>2026-03-28T12:15:59.999Z</time></trkpt><trkpt lat="44.70581905114068" lon="9.374484021736452"><ele>358.0</ele><time>2026-03-28T12:16:00.999Z</time></trkpt><trkpt lat="44.70586006527844" lon="9.374278133630755"><ele>359.0</ele><time>2026-03-28T12:16:01.999Z</time></trkpt><trkpt lat="44.7058719661282" lon="9.374089191232127"><ele>360.0</ele><time>2026-03-28T12:16:02.999Z</time></trkpt><trkpt lat="44.70584907340761" lon="9.373925909126276"><ele>361.0</ele><time>2026-03-28T12:16:03.999Z</time></trkpt><trkpt lat="44.70578126625098" lon="9.373786986552123"><ele>365.5</ele><time>2026-03-28T12:16:04.999Z</time></trkpt><trkpt lat="44.70568269077239" lon="9.373657830291933"><ele>370.0</ele><time>2026-03-28T12:16:05.999Z</time></trkpt><trkpt lat="44.70558202021261" lon="9.373512446581588"><ele>374.5</ele><time>2026-03-28T12:16:06.999Z</time></trkpt><trkpt lat="44.705489373342616" lon="9.373349894701851"><ele>379.0</ele><time>2026-03-28T12:16:07.999Z</time></trkpt><trkpt lat="44.70539386621254" lon="9.373193528163526"><ele>379.0</ele><time>2026-03-28T12:16:08.999Z</time></trkpt><trkpt lat="44.705299967277234" lon="9.373076887468384"><ele>379.0</ele><time>2026-03-28T12:16:09.999Z</time></trkpt><trkpt lat="44.7051859383641" lon="9.37302055226076"><ele>379.0</ele><time>2026-03-28T12:16:10.999Z</time></trkpt><trkpt lat="44.705050927972316" lon="9.37298668362792"><ele>379.0</ele><time>2026-03-28T12:16:11.999Z</time></trkpt><trkpt lat="44.704908263411255" lon="9.372944266946295"><ele>380.75</ele><time>2026-03-28T12:16:12.999Z</time></trkpt><trkpt lat="44.704768054293716" lon="9.372869023437907"><ele>382.5</ele><time>2026-03-28T12:16:13.999Z</time></trkpt><trkpt lat="44.7046400207825" lon="9.372797627161553"><ele>384.25</ele><time>2026-03-28T12:16:14.999Z</time></trkpt><trkpt lat="44.704506955366014" lon="9.3727889864845"><ele>386.0</ele><time>2026-03-28T12:16:15.999Z</time></trkpt><trkpt lat="44.70435863756589" lon="9.372817475490542"><ele>386.0</ele><time>2026-03-28T12:16:16.999Z</time></trkpt><trkpt lat="44.7042185060092" lon="9.372842635969166"><ele>386.0</ele><time>2026-03-28T12:16:17.999Z</time></trkpt><trkpt lat="44.70409546376056" lon="9.37284816858928"><ele>386.0</ele><time>2026-03-28T12:16:18.999Z</time></trkpt><trkpt lat="44.70397671428432" lon="9.372768655854015"><ele>386.0</ele><time>2026-03-28T12:16:19.999Z</time></trkpt><trkpt lat="44.703858587215976" lon="9.372666526296927"><ele>386.0</ele><time>2026-03-28T12:16:20.999Z</time></trkpt><trkpt lat="44.70374252781958" lon="9.372561715695019"><ele>386.0</ele><time>2026-03-28T12:16:21.999Z</time></trkpt><trkpt lat="44.7036427055291" lon="9.37242047018655"><ele>386.0</ele><time>2026-03-28T12:16:22.999Z</time></trkpt><trkpt lat="44.70356009534658" lon="9.372253732548542"><ele>386.0</ele><time>2026-03-28T12:16:23.999Z</time></trkpt><trkpt lat="44.703474158261734" lon="9.372089994828187"><ele>386.5</ele><time>2026-03-28T12:16:24.999Z</time></trkpt><trkpt lat="44.70338864695888" lon="9.371923717606794"><ele>387.0</ele><time>2026-03-28T12:16:25.999Z</time></trkpt><trkpt lat="44.70330082650806" lon="9.371762348052219"><ele>387.5</ele><time>2026-03-28T12:16:26.999Z</time></trkpt><trkpt lat="44.70319994314763" lon="9.371622204840348"><ele>388.0</ele><time>2026-03-28T12:16:27.999Z</time></trkpt><trkpt lat="44.7030929036151" lon="9.371535794300492"><ele>388.0</ele><time>2026-03-28T12:16:28.999Z</time></trkpt><trkpt lat="44.702976020235845" lon="9.371489580102953"><ele>388.0</ele><time>2026-03-28T12:16:29.999Z</time></trkpt><trkpt lat="44.70285236151663" lon="9.371438521565278"><ele>388.0</ele><time>2026-03-28T12:16:30.999Z</time></trkpt><trkpt lat="44.70272127645317" lon="9.371394861723093"><ele>388.0</ele><time>2026-03-28T12:16:31.999Z</time></trkpt><trkpt lat="44.70258803783926" lon="9.371339972163804"><ele>391.0</ele><time>2026-03-28T12:16:32.999Z</time></trkpt><trkpt lat="44.70245366680058" lon="9.371284532016933"><ele>394.0</ele><time>2026-03-28T12:16:33.999Z</time></trkpt><trkpt lat="44.70231886381284" lon="9.371233685441059"><ele>397.0</ele><time>2026-03-28T12:16:34.999Z</time></trkpt><trkpt lat="44.70219309363652" lon="9.371180416592582"><ele>400.0</ele><time>2026-03-28T12:16:35.999Z</time></trkpt><trkpt lat="44.70207640874887" lon="9.371133633394768"><ele>400.0</ele><time>2026-03-28T12:16:36.999Z</time></trkpt><trkpt lat="44.7019807449027" lon="9.371045442858216"><ele>400.0</ele><time>2026-03-28T12:16:37.999Z</time></trkpt><trkpt lat="44.701893246000836" lon="9.370915801506257"><ele>400.0</ele><time>2026-03-28T12:16:38.999Z</time></trkpt><trkpt lat="44.70182891502437" lon="9.370774653794276"><ele>400.0</ele><time>2026-03-28T12:16:39.999Z</time></trkpt><trkpt lat="44.70179098953884" lon="9.370617137674438"><ele>397.0</ele><time>2026-03-28T12:16:40.999Z</time></trkpt><trkpt lat="44.70179334930287" lon="9.370446585266938"><ele>394.0</ele><time>2026-03-28T12:16:42Z</time></trkpt><trkpt lat="44.70185193743558" lon="9.37028247576947"><ele>391.0</ele><time>2026-03-28T12:16:43Z</time></trkpt><trkpt lat="44.70192295263939" lon="9.37013191904869"><ele>388.0</ele><time>2026-03-28T12:16:44Z</time></trkpt><trkpt lat="44.7019597662649" lon="9.369987126933701"><ele>392.75</ele><time>2026-03-28T12:16:45Z</time></trkpt><trkpt lat="44.70193764009305" lon="9.369827629050565"><ele>397.5</ele><time>2026-03-28T12:16:46Z</time></trkpt><trkpt lat="44.70185696201498" lon="9.369671840490676"><ele>402.25</ele><time>2026-03-28T12:16:47Z</time></trkpt><trkpt lat="44.70177689649793" lon="9.369509549610202"><ele>407.0</ele><time>2026-03-28T12:16:48Z</time></trkpt><trkpt lat="44.70173777909557" lon="9.369310511219785"><ele>407.0</ele><time>2026-03-28T12:16:49Z</time></trkpt><trkpt lat="44.701716109053756" lon="9.369107156303345"><ele>407.0</ele><time>2026-03-28T12:16:50Z</time></trkpt><trkpt lat="44.701661780628555" lon="9.368943239907162"><ele>407.0</ele><time>2026-03-28T12:16:51Z</time></trkpt><trkpt lat="44.701557621518006" lon="9.368801097212245"><ele>407.0</ele><time>2026-03-28T12:16:52Z</time></trkpt><trkpt lat="44.70143472046188" lon="9.368667440705787"><ele>414.3333333333333</ele><time>2026-03-28T12:16:53Z</time></trkpt><trkpt lat="44.701345315538205" lon="9.368486866487267"><ele>421.66666666666663</ele><time>2026-03-28T12:16:54Z</time></trkpt><trkpt lat="44.70128556508698" lon="9.368281216236534"><ele>429.0</ele><time>2026-03-28T12:16:55Z</time></trkpt><trkpt lat="44.70122581419557" lon="9.368096701134878"><ele>424.33333333333337</ele><time>2026-03-28T12:16:56Z</time></trkpt><trkpt lat="44.701136620007865" lon="9.367926566566847"><ele>419.6666666666667</ele><time>2026-03-28T12:16:57Z</time></trkpt><trkpt lat="44.70101071350157" lon="9.367783033480777"><ele>415.0</ele><time>2026-03-28T12:16:58Z</time></trkpt><trkpt lat="44.70088164623064" lon="9.36766307823488"><ele>415.0</ele><time>2026-03-28T12:16:59Z</time></trkpt><trkpt lat="44.70075352873819" lon="9.367534710868242"><ele>415.0</ele><time>2026-03-28T12:17:00Z</time></trkpt><trkpt lat="44.70063671090868" lon="9.367408059613059"><ele>415.0</ele><time>2026-03-28T12:17:01Z</time></trkpt><trkpt lat="44.70054178867578" lon="9.367280195425552"><ele>415.0</ele><time>2026-03-28T12:17:02Z</time></trkpt><trkpt lat="44.70048319604117" lon="9.367123371818325"><ele>420.0</ele><time>2026-03-28T12:17:03Z</time></trkpt><trkpt lat="44.70046963797844" lon="9.36694761322244"><ele>425.0</ele><time>2026-03-28T12:17:04Z</time></trkpt><trkpt lat="44.70050423961236" lon="9.366779828054336"><ele>430.0</ele><time>2026-03-28T12:17:05Z</time></trkpt><trkpt lat="44.70054855281191" lon="9.366637805182629"><ele>435.0</ele><time>2026-03-28T12:17:06Z</time></trkpt><trkpt lat="44.70055226276544" lon="9.366499287679476"><ele>435.0</ele><time>2026-03-28T12:17:07Z</time></trkpt><trkpt lat="44.700510639157" lon="9.366365790637833"><ele>435.0</ele><time>2026-03-28T12:17:08Z</time></trkpt><trkpt lat="44.700430273527516" lon="9.366252161631017"><ele>435.0</ele><time>2026-03-28T12:17:09Z</time></trkpt><trkpt lat="44.70033937285495" lon="9.366156203091913"><ele>435.0</ele><time>2026-03-28T12:17:10Z</time></trkpt><trkpt lat="44.70022588325678" lon="9.366111552207078"><ele>435.0</ele><time>2026-03-28T12:17:11Z</time></trkpt><trkpt lat="44.70009527196225" lon="9.36614759321454"><ele>436.5</ele><time>2026-03-28T12:17:12Z</time></trkpt><trkpt lat="44.69996635203357" lon="9.366181120340116"><ele>438.0</ele><time>2026-03-28T12:17:13Z</time></trkpt><trkpt lat="44.69983271978896" lon="9.36621762465916"><ele>439.5</ele><time>2026-03-28T12:17:14Z</time></trkpt><trkpt lat="44.69969105116793" lon="9.36625644750247"><ele>441.0</ele><time>2026-03-28T12:17:15Z</time></trkpt><trkpt lat="44.69955713712977" lon="9.366293145270655"><ele>441.0</ele><time>2026-03-28T12:17:16Z</time></trkpt><trkpt lat="44.699440237073155" lon="9.366323212777491"><ele>441.0</ele><time>2026-03-28T12:17:17Z</time></trkpt><trkpt lat="44.699326012791694" lon="9.36633022122305"><ele>441.0</ele><time>2026-03-28T12:17:18Z</time></trkpt><trkpt lat="44.699235902358446" lon="9.366241812482965"><ele>441.0</ele><time>2026-03-28T12:17:19Z</time></trkpt><trkpt lat="44.69914663288973" lon="9.366136513012515"><ele>437.4</ele><time>2026-03-28T12:17:20Z</time></trkpt><trkpt lat="44.699044766274255" lon="9.366079253977363"><ele>433.8</ele><time>2026-03-28T12:17:21Z</time></trkpt><trkpt lat="44.6989553440017" lon="9.366030718805705"><ele>430.2</ele><time>2026-03-28T12:17:22Z</time></trkpt><trkpt lat="44.69890127459393" lon="9.365939042971497"><ele>426.59999999999997</ele><time>2026-03-28T12:17:23Z</time></trkpt><trkpt lat="44.69888291014052" lon="9.365817327678291"><ele>423.0</ele><time>2026-03-28T12:17:24Z</time></trkpt><trkpt lat="44.69888985727964" lon="9.365687891515547"><ele>423.0</ele><time>2026-03-28T12:17:25Z</time></trkpt><trkpt lat="44.698902103207345" lon="9.365565040148038"><ele>423.0</ele><time>2026-03-28T12:17:26Z</time></trkpt><trkpt lat="44.69887337583268" lon="9.365431282586394"><ele>423.0</ele><time>2026-03-28T12:17:27Z</time></trkpt><trkpt lat="44.698821281435315" lon="9.365304891529405"><ele>423.0</ele><time>2026-03-28T12:17:28Z</time></trkpt><trkpt lat="44.69876327350484" lon="9.365175948032094"><ele>423.0</ele><time>2026-03-28T12:17:29Z</time></trkpt><trkpt lat="44.69870678189052" lon="9.365049703470063"><ele>421.79999999999995</ele><time>2026-03-28T12:17:30Z</time></trkpt><trkpt lat="44.69864963859682" lon="9.364943213838284"><ele>420.6</ele><time>2026-03-28T12:17:31Z</time></trkpt><trkpt lat="44.698569703117535" lon="9.364867195333233"><ele>419.4</ele><time>2026-03-28T12:17:32Z</time></trkpt><trkpt lat="44.698473581570006" lon="9.364795866052894"><ele>418.20000000000005</ele><time>2026-03-28T12:17:33Z</time></trkpt><trkpt lat="44.69835815255958" lon="9.36481811028701"><ele>417.0</ele><time>2026-03-28T12:17:34Z</time></trkpt><trkpt lat="44.698254124138955" lon="9.364797995651573"><ele>417.0</ele><time>2026-03-28T12:17:35Z</time></trkpt><trkpt lat="44.698153707103685" lon="9.364726339349867"><ele>417.0</ele><time>2026-03-28T12:17:36Z</time></trkpt><trkpt lat="44.698062094434896" lon="9.364627395906815"><ele>417.0</ele><time>2026-03-28T12:17:37Z</time></trkpt><trkpt lat="44.69799088143523" lon="9.364498377518274"><ele>417.0</ele><time>2026-03-28T12:17:37.999Z</time></trkpt><trkpt lat="44.69793777609626" lon="9.364354342353183"><ele>421.5</ele><time>2026-03-28T12:17:38.999Z</time></trkpt><trkpt lat="44.69788411088594" lon="9.3642202580896"><ele>426.0</ele><time>2026-03-28T12:17:39.999Z</time></trkpt><trkpt lat="44.69780518467334" lon="9.364111408793585"><ele>430.5</ele><time>2026-03-28T12:17:40.999Z</time></trkpt><trkpt lat="44.69770628427761" lon="9.364026054387487"><ele>435.0</ele><time>2026-03-28T12:17:41.999Z</time></trkpt><trkpt lat="44.69758209207646" lon="9.364026622490627"><ele>435.0</ele><time>2026-03-28T12:17:42.999Z</time></trkpt><trkpt lat="44.697468093571615" lon="9.364017504315804"><ele>435.0</ele><time>2026-03-28T12:17:43.999Z</time></trkpt><trkpt lat="44.6973553313468" lon="9.364007704988584"><ele>435.0</ele><time>2026-03-28T12:17:44.999Z</time></trkpt><trkpt lat="44.69724316932368" lon="9.363996171758048"><ele>435.0</ele><time>2026-03-28T12:17:45.999Z</time></trkpt><trkpt lat="44.69713714362216" lon="9.363964465400679"><ele>435.0</ele><time>2026-03-28T12:17:46.999Z</time></trkpt><trkpt lat="44.69702520531823" lon="9.363942095801011"><ele>435.0</ele><time>2026-03-28T12:17:47.999Z</time></trkpt><trkpt lat="44.696922006155106" lon="9.364024632260564"><ele>435.0</ele><time>2026-03-28T12:17:48.999Z</time></trkpt><trkpt lat="44.696812966469" lon="9.364053242106413"><ele>435.0</ele><time>2026-03-28T12:17:49.999Z</time></trkpt><trkpt lat="44.696700747728116" lon="9.364046448677982"><ele>435.0</ele><time>2026-03-28T12:17:50.999Z</time></trkpt><trkpt lat="44.69658781095091" lon="9.36402542017399"><ele>437.25</ele><time>2026-03-28T12:17:51.999Z</time></trkpt><trkpt lat="44.69647371353155" lon="9.364015886798654"><ele>439.5</ele><time>2026-03-28T12:17:52.999Z</time></trkpt><trkpt lat="44.69636017380939" lon="9.364008841216146"><ele>441.75</ele><time>2026-03-28T12:17:53.999Z</time></trkpt><trkpt lat="44.696245230283076" lon="9.363993795058745"><ele>444.0</ele><time>2026-03-28T12:17:54.999Z</time></trkpt><trkpt lat="44.69613270899753" lon="9.363972269855491"><ele>442.5</ele><time>2026-03-28T12:17:55.999Z</time></trkpt><trkpt lat="44.69602050691095" lon="9.36393936867609"><ele>441.0</ele><time>2026-03-28T12:17:56.999Z</time></trkpt><trkpt lat="44.69591356520847" lon="9.363886927629306"><ele>439.5</ele><time>2026-03-28T12:17:57.999Z</time></trkpt><trkpt lat="44.69580688082131" lon="9.363831541839344"><ele>438.0</ele><time>2026-03-28T12:17:58.999Z</time></trkpt><trkpt lat="44.69569510913099" lon="9.363812742052108"><ele>440.0</ele><time>2026-03-28T12:17:59.999Z</time></trkpt><trkpt lat="44.695579842584564" lon="9.363819888347452"><ele>442.0</ele><time>2026-03-28T12:18:00.999Z</time></trkpt><trkpt lat="44.695465436436" lon="9.363840606925315"><ele>444.0</ele><time>2026-03-28T12:18:01.999Z</time></trkpt><trkpt lat="44.69535030650007" lon="9.363859510670148"><ele>446.0</ele><time>2026-03-28T12:18:02.999Z</time></trkpt><trkpt lat="44.6952337497056" lon="9.363880942624048"><ele>446.0</ele><time>2026-03-28T12:18:03.999Z</time></trkpt><trkpt lat="44.69511375915941" lon="9.363902819236355"><ele>446.0</ele><time>2026-03-28T12:18:04.999Z</time></trkpt><trkpt lat="44.694993673270965" lon="9.363922963811442"><ele>446.0</ele><time>2026-03-28T12:18:05.999Z</time></trkpt><trkpt lat="44.69487388399718" lon="9.363944952454737"><ele>446.0</ele><time>2026-03-28T12:18:06.999Z</time></trkpt><trkpt lat="44.694752046482876" lon="9.363946981773191"><ele>446.0</ele><time>2026-03-28T12:18:07.999Z</time></trkpt><trkpt lat="44.69463352335501" lon="9.363967733346257"><ele>446.0</ele><time>2026-03-28T12:18:08.999Z</time></trkpt><trkpt lat="44.694526704763916" lon="9.363986435635805"><ele>446.0</ele><time>2026-03-28T12:18:09.999Z</time></trkpt><trkpt lat="44.69443665882277" lon="9.364014931838575"><ele>446.0</ele><time>2026-03-28T12:18:10.999Z</time></trkpt><trkpt lat="44.69435715745351" lon="9.363982832269313"><ele>446.0</ele><time>2026-03-28T12:18:11.999Z</time></trkpt><trkpt lat="44.69431983506691" lon="9.363908395524957"><ele>442.0</ele><time>2026-03-28T12:18:12.999Z</time></trkpt><trkpt lat="44.694359059068574" lon="9.363740716682523"><ele>438.0</ele><time>2026-03-28T12:18:14.999Z</time></trkpt><trkpt lat="44.69443966168082" lon="9.36369359731451"><ele>434.0</ele><time>2026-03-28T12:18:15.999Z</time></trkpt><trkpt lat="44.694526982605886" lon="9.363674064301732"><ele>430.0</ele><time>2026-03-28T12:18:16.999Z</time></trkpt><trkpt lat="44.694604674675084" lon="9.36361014857852"><ele>426.0</ele><time>2026-03-28T12:18:17.999Z</time></trkpt><trkpt lat="44.694657616574816" lon="9.363495601543644"><ele>433.0</ele><time>2026-03-28T12:18:18.999Z</time></trkpt><trkpt lat="44.69466834298505" lon="9.363354902426973"><ele>440.0</ele><time>2026-03-28T12:18:19.999Z</time></trkpt><trkpt lat="44.694645327071996" lon="9.363212523587565"><ele>447.0</ele><time>2026-03-28T12:18:20.999Z</time></trkpt><trkpt lat="44.69462661837749" lon="9.363055726528014"><ele>454.0</ele><time>2026-03-28T12:18:21.999Z</time></trkpt><trkpt lat="44.69463777387053" lon="9.362889235473022"><ele>461.0</ele><time>2026-03-28T12:18:22.999Z</time></trkpt><trkpt lat="44.69468975098352" lon="9.362733677208979"><ele>461.0</ele><time>2026-03-28T12:18:23.999Z</time></trkpt><trkpt lat="44.694763232617134" lon="9.362592825475112"><ele>461.0</ele><time>2026-03-28T12:18:24.999Z</time></trkpt><trkpt lat="44.69484012764234" lon="9.362461508742658"><ele>461.0</ele><time>2026-03-28T12:18:25.999Z</time></trkpt><trkpt lat="44.694925026458804" lon="9.362341341249952"><ele>461.0</ele><time>2026-03-28T12:18:26.999Z</time></trkpt><trkpt lat="44.695030511193735" lon="9.362255079178029"><ele>461.0</ele><time>2026-03-28T12:18:27.999Z</time></trkpt><trkpt lat="44.6951425086379" lon="9.362199884065973"><ele>461.0</ele><time>2026-03-28T12:18:28.999Z</time></trkpt><trkpt lat="44.69525315507552" lon="9.362146887299264"><ele>461.0</ele><time>2026-03-28T12:18:29.999Z</time></trkpt><trkpt lat="44.695351280851135" lon="9.362064952179473"><ele>461.0</ele><time>2026-03-28T12:18:30.999Z</time></trkpt><trkpt lat="44.69541712234542" lon="9.361945161781058"><ele>465.25</ele><time>2026-03-28T12:18:31.999Z</time></trkpt><trkpt lat="44.6954384454305" lon="9.361789080279612"><ele>469.5</ele><time>2026-03-28T12:18:32.999Z</time></trkpt><trkpt lat="44.69542716899547" lon="9.361622390144367"><ele>473.75</ele><time>2026-03-28T12:18:33.999Z</time></trkpt><trkpt lat="44.69539212950925" lon="9.361454719746579"><ele>478.0</ele><time>2026-03-28T12:18:34.999Z</time></trkpt><trkpt lat="44.69535431626895" lon="9.361292143136343"><ele>478.0</ele><time>2026-03-28T12:18:35.999Z</time></trkpt><trkpt lat="44.69534013965374" lon="9.3611198029626"><ele>478.0</ele><time>2026-03-28T12:18:36.999Z</time></trkpt><trkpt lat="44.69535273044012" lon="9.360939541682466"><ele>478.0</ele><time>2026-03-28T12:18:37.999Z</time></trkpt><trkpt lat="44.69538520732501" lon="9.360751894016827"><ele>478.0</ele><time>2026-03-28T12:18:38.999Z</time></trkpt><trkpt lat="44.69543030865022" lon="9.360558218667416"><ele>478.5</ele><time>2026-03-28T12:18:39.999Z</time></trkpt><trkpt lat="44.69548528173184" lon="9.36036393128767"><ele>479.0</ele><time>2026-03-28T12:18:40.999Z</time></trkpt><trkpt lat="44.69554154277425" lon="9.360175052480479"><ele>479.5</ele><time>2026-03-28T12:18:41.999Z</time></trkpt><trkpt lat="44.695593922952824" lon="9.359998374021089"><ele>480.0</ele><time>2026-03-28T12:18:42.999Z</time></trkpt><trkpt lat="44.69562861625545" lon="9.359818770998338"><ele>480.5</ele><time>2026-03-28T12:18:43.999Z</time></trkpt><trkpt lat="44.69563906268507" lon="9.359630824609381"><ele>481.0</ele><time>2026-03-28T12:18:44.999Z</time></trkpt><trkpt lat="44.69561763466849" lon="9.35945224244811"><ele>481.5</ele><time>2026-03-28T12:18:45.999Z</time></trkpt><trkpt lat="44.69556317282704" lon="9.359300926439708"><ele>482.0</ele><time>2026-03-28T12:18:46.999Z</time></trkpt><trkpt lat="44.695485610222356" lon="9.359189325382426"><ele>481.99999999999994</ele><time>2026-03-28T12:18:48Z</time></trkpt><trkpt lat="44.69540372656121" lon="9.35911758322319"><ele>482.0</ele><time>2026-03-28T12:18:49Z</time></trkpt><trkpt lat="44.695331804023596" lon="9.359086341783332"><ele>482.0</ele><time>2026-03-28T12:18:50Z</time></trkpt><trkpt lat="44.695244945609744" lon="9.359081945238096"><ele>482.0</ele><time>2026-03-28T12:18:52Z</time></trkpt><trkpt lat="44.6951708045001" lon="9.359128419781461"><ele>481.99999999999994</ele><time>2026-03-28T12:19:09Z</time></trkpt><trkpt lat="44.695065808976544" lon="9.359154272277088"><ele>482.0</ele><time>2026-03-28T12:19:11Z</time></trkpt><trkpt lat="44.69497959523553" lon="9.359182229753012"><ele>480.20000000000005</ele><time>2026-03-28T12:19:12Z</time></trkpt><trkpt lat="44.69488821851197" lon="9.359210681109719"><ele>478.40000000000003</ele><time>2026-03-28T12:19:13Z</time></trkpt><trkpt lat="44.69478316701455" lon="9.359241851404317"><ele>476.59999999999997</ele><time>2026-03-28T12:19:14Z</time></trkpt><trkpt lat="44.69467293278428" lon="9.359271216884911"><ele>474.79999999999995</ele><time>2026-03-28T12:19:15Z</time></trkpt><trkpt lat="44.69456383579484" lon="9.359294461877491"><ele>473.0</ele><time>2026-03-28T12:19:16Z</time></trkpt><trkpt lat="44.694467869611586" lon="9.359301758329158"><ele>471.5</ele><time>2026-03-28T12:19:17Z</time></trkpt><trkpt lat="44.69439621923056" lon="9.359205654791626"><ele>470.0</ele><time>2026-03-28T12:19:18Z</time></trkpt><trkpt lat="44.69433158469049" lon="9.359069442275903"><ele>468.5</ele><time>2026-03-28T12:19:19Z</time></trkpt><trkpt lat="44.69425086856828" lon="9.358932290725072"><ele>467.0</ele><time>2026-03-28T12:19:20Z</time></trkpt><trkpt lat="44.69416625724918" lon="9.3587987430898"><ele>467.0</ele><time>2026-03-28T12:19:21Z</time></trkpt><trkpt lat="44.69407724576293" lon="9.358665725929189"><ele>467.00000000000006</ele><time>2026-03-28T12:19:22Z</time></trkpt><trkpt lat="44.69399443267983" lon="9.358537579961654"><ele>467.00000000000006</ele><time>2026-03-28T12:19:23Z</time></trkpt><trkpt lat="44.693945721077924" lon="9.358416507470698"><ele>467.0</ele><time>2026-03-28T12:19:24Z</time></trkpt><trkpt lat="44.69394510894356" lon="9.35828588589493"><ele>467.0</ele><time>2026-03-28T12:19:25Z</time></trkpt><trkpt lat="44.69397667645309" lon="9.35815007304913"><ele>461.0</ele><time>2026-03-28T12:19:26Z</time></trkpt><trkpt lat="44.69404852420551" lon="9.358020947746992"><ele>455.0</ele><time>2026-03-28T12:19:27Z</time></trkpt><trkpt lat="44.694130373214385" lon="9.357890953214842"><ele>449.0</ele><time>2026-03-28T12:19:28Z</time></trkpt><trkpt lat="44.69424155397764" lon="9.357778553251226"><ele>443.0</ele><time>2026-03-28T12:19:29Z</time></trkpt><trkpt lat="44.69436845283057" lon="9.357690296490713"><ele>453.75</ele><time>2026-03-28T12:19:30Z</time></trkpt><trkpt lat="44.69449681891796" lon="9.35760091686545"><ele>464.5</ele><time>2026-03-28T12:19:31Z</time></trkpt><trkpt lat="44.694606169658265" lon="9.357501869018671"><ele>475.25</ele><time>2026-03-28T12:19:32Z</time></trkpt><trkpt lat="44.69468140062285" lon="9.35737828248474"><ele>486.0</ele><time>2026-03-28T12:19:33Z</time></trkpt><trkpt lat="44.69472761313754" lon="9.357207510460674"><ele>482.75</ele><time>2026-03-28T12:19:34Z</time></trkpt><trkpt lat="44.69477370034008" lon="9.357020848999829"><ele>479.5</ele><time>2026-03-28T12:19:35Z</time></trkpt><trkpt lat="44.69482790485213" lon="9.356826920243003"><ele>476.25</ele><time>2026-03-28T12:19:36Z</time></trkpt><trkpt lat="44.694872397986884" lon="9.356629838370845"><ele>473.0</ele><time>2026-03-28T12:19:37Z</time></trkpt><trkpt lat="44.69491073607901" lon="9.356450939153403"><ele>472.25</ele><time>2026-03-28T12:19:38Z</time></trkpt><trkpt lat="44.694942174343495" lon="9.35628750354012"><ele>471.5</ele><time>2026-03-28T12:19:39Z</time></trkpt><trkpt lat="44.69496371748451" lon="9.356135354645813"><ele>470.75</ele><time>2026-03-28T12:19:40Z</time></trkpt><trkpt lat="44.69493499710447" lon="9.35598367326336"><ele>470.0</ele><time>2026-03-28T12:19:41Z</time></trkpt><trkpt lat="44.69486536575414" lon="9.355851281010539"><ele>470.0</ele><time>2026-03-28T12:19:42Z</time></trkpt><trkpt lat="44.69479483687752" lon="9.355746051854725"><ele>470.0</ele><time>2026-03-28T12:19:43Z</time></trkpt><trkpt lat="44.69476831745744" lon="9.355623358074803"><ele>470.0</ele><time>2026-03-28T12:19:44Z</time></trkpt><trkpt lat="44.694771729436454" lon="9.355481859854894"><ele>470.0</ele><time>2026-03-28T12:19:45Z</time></trkpt><trkpt lat="44.69479423572027" lon="9.355329959071538"><ele>470.0</ele><time>2026-03-28T12:19:45.999Z</time></trkpt><trkpt lat="44.69482363959994" lon="9.355169900844153"><ele>469.25</ele><time>2026-03-28T12:19:46.999Z</time></trkpt><trkpt lat="44.69485986924018" lon="9.35500231860438"><ele>468.5</ele><time>2026-03-28T12:19:47.999Z</time></trkpt><trkpt lat="44.69488972839632" lon="9.354825821225532"><ele>467.75</ele><time>2026-03-28T12:19:48.999Z</time></trkpt><trkpt lat="44.69490662361487" lon="9.354666868947637"><ele>467.0</ele><time>2026-03-28T12:19:49.999Z</time></trkpt><trkpt lat="44.694876605541474" lon="9.354511756898349"><ele>469.75</ele><time>2026-03-28T12:19:50.999Z</time></trkpt><trkpt lat="44.694801497233094" lon="9.354366526945624"><ele>472.5</ele><time>2026-03-28T12:19:51.999Z</time></trkpt><trkpt lat="44.6947298629613" lon="9.35421027886884"><ele>475.25</ele><time>2026-03-28T12:19:52.999Z</time></trkpt><trkpt lat="44.69469869549911" lon="9.354040586118687"><ele>478.0</ele><time>2026-03-28T12:19:53.999Z</time></trkpt><trkpt lat="44.69470701853456" lon="9.35387916869426"><ele>483.0</ele><time>2026-03-28T12:19:54.999Z</time></trkpt><trkpt lat="44.69472638178894" lon="9.353742153804186"><ele>487.99999999999994</ele><time>2026-03-28T12:19:55.999Z</time></trkpt><trkpt lat="44.69472258570113" lon="9.353621164191793"><ele>492.99999999999994</ele><time>2026-03-28T12:19:56.999Z</time></trkpt><trkpt lat="44.6946683187462" lon="9.35351736259387"><ele>498.0</ele><time>2026-03-28T12:19:57.999Z</time></trkpt><trkpt lat="44.69459131327991" lon="9.353429684325425"><ele>503.0</ele><time>2026-03-28T12:19:58.999Z</time></trkpt><trkpt lat="44.69447626590562" lon="9.353383571591005"><ele>495.0</ele><time>2026-03-28T12:19:59.999Z</time></trkpt><trkpt lat="44.69434719451806" lon="9.353420801511424"><ele>486.99999999999994</ele><time>2026-03-28T12:20:00.999Z</time></trkpt><trkpt lat="44.69423462433261" lon="9.353448488018435"><ele>478.99999999999994</ele><time>2026-03-28T12:20:01.999Z</time></trkpt><trkpt lat="44.69413269051214" lon="9.353471189115632"><ele>471.0</ele><time>2026-03-28T12:20:02.999Z</time></trkpt><trkpt lat="44.69404304427905" lon="9.35348376117007"><ele>463.0</ele><time>2026-03-28T12:20:03.999Z</time></trkpt><trkpt lat="44.69396493421781" lon="9.353461222815891"><ele>463.0</ele><time>2026-03-28T12:20:04.999Z</time></trkpt><trkpt lat="44.69390553988115" lon="9.353365396251824"><ele>462.99999999999994</ele><time>2026-03-28T12:20:05.999Z</time></trkpt><trkpt lat="44.69384898966133" lon="9.353263448034234"><ele>462.99999999999994</ele><time>2026-03-28T12:20:06.999Z</time></trkpt><trkpt lat="44.69376829498564" lon="9.353210394973432"><ele>463.0</ele><time>2026-03-28T12:20:07.999Z</time></trkpt><trkpt lat="44.693670529895414" lon="9.353210559790938"><ele>463.0</ele><time>2026-03-28T12:20:08.999Z</time></trkpt><trkpt lat="44.6935679833107" lon="9.353205497282822"><ele>459.6666666666667</ele><time>2026-03-28T12:20:09.999Z</time></trkpt><trkpt lat="44.69347898400736" lon="9.353212761162066"><ele>456.33333333333337</ele><time>2026-03-28T12:20:10.999Z</time></trkpt><trkpt lat="44.693400058510385" lon="9.353208955415147"><ele>453.0</ele><time>2026-03-28T12:20:11.999Z</time></trkpt><trkpt lat="44.69334303444303" lon="9.353142253728182"><ele>449.66666666666663</ele><time>2026-03-28T12:20:12.999Z</time></trkpt><trkpt lat="44.69329884541774" lon="9.353044606565835"><ele>446.3333333333333</ele><time>2026-03-28T12:20:13.999Z</time></trkpt><trkpt lat="44.69330171925411" lon="9.352926375229446"><ele>443.0</ele><time>2026-03-28T12:20:14.999Z</time></trkpt><trkpt lat="44.69332266618243" lon="9.352788404120902"><ele>443.0</ele><time>2026-03-28T12:20:15.999Z</time></trkpt><trkpt lat="44.69335249001465" lon="9.352651784730947"><ele>442.99999999999994</ele><time>2026-03-28T12:20:16.999Z</time></trkpt><trkpt lat="44.69336743512881" lon="9.352507368834758"><ele>442.99999999999994</ele><time>2026-03-28T12:20:17.999Z</time></trkpt><trkpt lat="44.693346167684794" lon="9.352349856390603"><ele>443.0</ele><time>2026-03-28T12:20:18.999Z</time></trkpt><trkpt lat="44.69328785973629" lon="9.352204340845338"><ele>443.0</ele><time>2026-03-28T12:20:19.999Z</time></trkpt><trkpt lat="44.693216480137735" lon="9.35206028276495"><ele>449.0</ele><time>2026-03-28T12:20:20.999Z</time></trkpt><trkpt lat="44.69314321796717" lon="9.35191103471803"><ele>455.0</ele><time>2026-03-28T12:20:21.999Z</time></trkpt><trkpt lat="44.69307122591678" lon="9.351757445766724"><ele>461.0</ele><time>2026-03-28T12:20:22.999Z</time></trkpt><trkpt lat="44.693002804811115" lon="9.351602951046269"><ele>467.0</ele><time>2026-03-28T12:20:23.999Z</time></trkpt><trkpt lat="44.692951789891836" lon="9.35144609572047"><ele>470.20000000000005</ele><time>2026-03-28T12:20:24.999Z</time></trkpt><trkpt lat="44.692936189051515" lon="9.351294388175454"><ele>473.40000000000003</ele><time>2026-03-28T12:20:25.999Z</time></trkpt><trkpt lat="44.692906056359526" lon="9.351149877260637"><ele>476.59999999999997</ele><time>2026-03-28T12:20:26.999Z</time></trkpt><trkpt lat="44.69282640140696" lon="9.351036469062377"><ele>479.79999999999995</ele><time>2026-03-28T12:20:27.999Z</time></trkpt><trkpt lat="44.69273424525466" lon="9.35093226800299"><ele>483.0</ele><time>2026-03-28T12:20:28.999Z</time></trkpt><trkpt lat="44.69264655630601" lon="9.35082271839342"><ele>479.25</ele><time>2026-03-28T12:20:29.999Z</time></trkpt><trkpt lat="44.692554639074274" lon="9.350702332664918"><ele>475.5</ele><time>2026-03-28T12:20:30.999Z</time></trkpt><trkpt lat="44.69246883139616" lon="9.350564479063948"><ele>471.75</ele><time>2026-03-28T12:20:31.999Z</time></trkpt><trkpt lat="44.692409448556646" lon="9.350408802419054"><ele>468.0</ele><time>2026-03-28T12:20:32.999Z</time></trkpt><trkpt lat="44.692359900199044" lon="9.350263126976765"><ele>468.0</ele><time>2026-03-28T12:20:33.999Z</time></trkpt><trkpt lat="44.692284182988615" lon="9.350141021269986"><ele>468.0</ele><time>2026-03-28T12:20:34.999Z</time></trkpt><trkpt lat="44.69219039786806" lon="9.350041132900335"><ele>468.0</ele><time>2026-03-28T12:20:35.999Z</time></trkpt><trkpt lat="44.69210515079772" lon="9.349920963014345"><ele>468.0</ele><time>2026-03-28T12:20:36.999Z</time></trkpt><trkpt lat="44.69205399374136" lon="9.349771441080781"><ele>472.0</ele><time>2026-03-28T12:20:37.999Z</time></trkpt><trkpt lat="44.69202741618845" lon="9.349621116393857"><ele>475.99999999999994</ele><time>2026-03-28T12:20:38.999Z</time></trkpt><trkpt lat="44.69197257418929" lon="9.349500834732904"><ele>479.99999999999994</ele><time>2026-03-28T12:20:39.999Z</time></trkpt><trkpt lat="44.6918708519214" lon="9.349437237917623"><ele>484.0</ele><time>2026-03-28T12:20:40.999Z</time></trkpt><trkpt lat="44.691762142520545" lon="9.349397521407337"><ele>488.0</ele><time>2026-03-28T12:20:41.999Z</time></trkpt><trkpt lat="44.691665780327426" lon="9.349313759917635"><ele>477.4</ele><time>2026-03-28T12:20:42.999Z</time></trkpt><trkpt lat="44.691591801703225" lon="9.349203737646858"><ele>466.79999999999995</ele><time>2026-03-28T12:20:43.999Z</time></trkpt><trkpt lat="44.691550970654944" lon="9.34907034819814"><ele>456.2</ele><time>2026-03-28T12:20:44.999Z</time></trkpt><trkpt lat="44.6915451375351" lon="9.348932153599852"><ele>445.6</ele><time>2026-03-28T12:20:45.999Z</time></trkpt><trkpt lat="44.691594580252" lon="9.3488101571564"><ele>435.0</ele><time>2026-03-28T12:20:46.999Z</time></trkpt><trkpt lat="44.69166755183293" lon="9.348691252762658"><ele>435.0</ele><time>2026-03-28T12:20:47.999Z</time></trkpt><trkpt lat="44.69173918028661" lon="9.348554112448781"><ele>435.0</ele><time>2026-03-28T12:20:48.999Z</time></trkpt><trkpt lat="44.691791386356215" lon="9.348397578208617"><ele>435.0</ele><time>2026-03-28T12:20:49.999Z</time></trkpt><trkpt lat="44.691824835221844" lon="9.348244981222987"><ele>435.0</ele><time>2026-03-28T12:20:50.999Z</time></trkpt><trkpt lat="44.691852024224175" lon="9.348102726799716"><ele>436.4</ele><time>2026-03-28T12:20:51.999Z</time></trkpt><trkpt lat="44.69186111689125" lon="9.34796804213363"><ele>437.8</ele><time>2026-03-28T12:20:52.999Z</time></trkpt><trkpt lat="44.69182726888807" lon="9.34784284852061"><ele>439.20000000000005</ele><time>2026-03-28T12:20:54Z</time></trkpt><trkpt lat="44.69174947105778" lon="9.34774505968153"><ele>440.6</ele><time>2026-03-28T12:20:55Z</time></trkpt><trkpt lat="44.6916528367072" lon="9.347678967732358"><ele>442.0</ele><time>2026-03-28T12:20:56Z</time></trkpt><trkpt lat="44.691573213784295" lon="9.34757110170002"><ele>442.0</ele><time>2026-03-28T12:20:57Z</time></trkpt><trkpt lat="44.69153486989717" lon="9.34743262381795"><ele>442.00000000000006</ele><time>2026-03-28T12:20:58Z</time></trkpt><trkpt lat="44.69149150315175" lon="9.34729903012149"><ele>442.00000000000006</ele><time>2026-03-28T12:20:59Z</time></trkpt><trkpt lat="44.69146099574759" lon="9.347174501861732"><ele>442.0</ele><time>2026-03-28T12:21:00Z</time></trkpt><trkpt lat="44.69146271342879" lon="9.347054044077264"><ele>442.0</ele><time>2026-03-28T12:21:01Z</time></trkpt><trkpt lat="44.69150630532828" lon="9.346927781195964"><ele>442.6</ele><time>2026-03-28T12:21:02Z</time></trkpt><trkpt lat="44.691571445588835" lon="9.346814833148883"><ele>443.20000000000005</ele><time>2026-03-28T12:21:03Z</time></trkpt><trkpt lat="44.69162254694723" lon="9.346693258015563"><ele>443.8</ele><time>2026-03-28T12:21:04Z</time></trkpt><trkpt lat="44.69163221225223" lon="9.346570145140806"><ele>444.4</ele><time>2026-03-28T12:21:05Z</time></trkpt><trkpt lat="44.69159548138209" lon="9.346454298536308"><ele>445.0</ele><time>2026-03-28T12:21:06Z</time></trkpt><trkpt lat="44.69150000334323" lon="9.346368076895054"><ele>447.25</ele><time>2026-03-28T12:21:07Z</time></trkpt><trkpt lat="44.69140804326056" lon="9.34628688675232"><ele>449.5</ele><time>2026-03-28T12:21:08Z</time></trkpt><trkpt lat="44.69131119120989" lon="9.346191849181542"><ele>451.75</ele><time>2026-03-28T12:21:09Z</time></trkpt><trkpt lat="44.69122977345344" lon="9.346067237959582"><ele>454.0</ele><time>2026-03-28T12:21:10Z</time></trkpt><trkpt lat="44.69117729195498" lon="9.345919169304718"><ele>454.0</ele><time>2026-03-28T12:21:11Z</time></trkpt><trkpt lat="44.69116340472273" lon="9.345763762466257"><ele>454.0</ele><time>2026-03-28T12:21:12Z</time></trkpt><trkpt lat="44.69117719644023" lon="9.3455856682481"><ele>454.0</ele><time>2026-03-28T12:21:13Z</time></trkpt><trkpt lat="44.691186024107054" lon="9.34540024837614"><ele>454.0</ele><time>2026-03-28T12:21:14Z</time></trkpt><trkpt lat="44.69119255219177" lon="9.345236891863994"><ele>452.2</ele><time>2026-03-28T12:21:15Z</time></trkpt><trkpt lat="44.69120525675494" lon="9.345080328525011"><ele>450.4</ele><time>2026-03-28T12:21:16Z</time></trkpt><trkpt lat="44.69124256656648" lon="9.344927319888182"><ele>448.6</ele><time>2026-03-28T12:21:17Z</time></trkpt><trkpt lat="44.69131058369085" lon="9.344815843642946"><ele>446.8</ele><time>2026-03-28T12:21:18Z</time></trkpt><trkpt lat="44.69140929585904" lon="9.344753263809942"><ele>445.0</ele><time>2026-03-28T12:21:19Z</time></trkpt><trkpt lat="44.69152284866115" lon="9.34471819612153"><ele>444.75</ele><time>2026-03-28T12:21:20Z</time></trkpt><trkpt lat="44.6916300880792" lon="9.344648187274032"><ele>444.5</ele><time>2026-03-28T12:21:21Z</time></trkpt><trkpt lat="44.69173397036323" lon="9.344530612617532"><ele>444.25</ele><time>2026-03-28T12:21:22Z</time></trkpt><trkpt lat="44.69185236512788" lon="9.344404762354744"><ele>444.0</ele><time>2026-03-28T12:21:23Z</time></trkpt><trkpt lat="44.691982261059664" lon="9.344285375094273"><ele>444.0</ele><time>2026-03-28T12:21:24Z</time></trkpt><trkpt lat="44.692119588731835" lon="9.34417314767108"><ele>444.0</ele><time>2026-03-28T12:21:25Z</time></trkpt><trkpt lat="44.692249504482675" lon="9.344071607281741"><ele>444.0</ele><time>2026-03-28T12:21:26Z</time></trkpt><trkpt lat="44.69235930181521" lon="9.343954911392496"><ele>444.0</ele><time>2026-03-28T12:21:27Z</time></trkpt><trkpt lat="44.69246007986911" lon="9.343819288269842"><ele>448.0</ele><time>2026-03-28T12:21:28Z</time></trkpt><trkpt lat="44.692553270460266" lon="9.343689183250701"><ele>452.0</ele><time>2026-03-28T12:21:29Z</time></trkpt><trkpt lat="44.69264723276189" lon="9.343563796913907"><ele>456.0</ele><time>2026-03-28T12:21:30Z</time></trkpt><trkpt lat="44.692731964718284" lon="9.343423727219164"><ele>460.0</ele><time>2026-03-28T12:21:31Z</time></trkpt><trkpt lat="44.69279054918381" lon="9.343251336818488"><ele>460.0</ele><time>2026-03-28T12:21:32Z</time></trkpt><trkpt lat="44.692821862939816" lon="9.343072557035956"><ele>460.0</ele><time>2026-03-28T12:21:33Z</time></trkpt><trkpt lat="44.69285462805206" lon="9.342914732218626"><ele>460.0</ele><time>2026-03-28T12:21:34Z</time></trkpt><trkpt lat="44.692908139029335" lon="9.342762049918877"><ele>460.0</ele><time>2026-03-28T12:21:35Z</time></trkpt><trkpt lat="44.692989212709136" lon="9.342609597783865"><ele>451.0</ele><time>2026-03-28T12:21:36Z</time></trkpt><trkpt lat="44.693079964707586" lon="9.3424635379473"><ele>442.0</ele><time>2026-03-28T12:21:37Z</time></trkpt><trkpt lat="44.69316702045842" lon="9.342314599672982"><ele>433.0</ele><time>2026-03-28T12:21:38Z</time></trkpt><trkpt lat="44.69326028500636" lon="9.342178816488492"><ele>424.0</ele><time>2026-03-28T12:21:39Z</time></trkpt><trkpt lat="44.693357176153874" lon="9.342075242672587"><ele>421.6</ele><time>2026-03-28T12:21:40Z</time></trkpt><trkpt lat="44.69343778776488" lon="9.341981136035995"><ele>419.2</ele><time>2026-03-28T12:21:41Z</time></trkpt><trkpt lat="44.69347979417509" lon="9.341850337174808"><ele>416.8</ele><time>2026-03-28T12:21:42Z</time></trkpt><trkpt lat="44.69347647068431" lon="9.341700112066368"><ele>414.40000000000003</ele><time>2026-03-28T12:21:43Z</time></trkpt><trkpt lat="44.69345817066547" lon="9.341541956565765"><ele>412.0</ele><time>2026-03-28T12:21:44Z</time></trkpt><trkpt lat="44.69344094918495" lon="9.341404822228768"><ele>418.0</ele><time>2026-03-28T12:21:45Z</time></trkpt><trkpt lat="44.69339627179304" lon="9.341304402243303"><ele>424.0</ele><time>2026-03-28T12:21:46Z</time></trkpt><trkpt lat="44.69331344963553" lon="9.34123279504272"><ele>430.00000000000006</ele><time>2026-03-28T12:21:47Z</time></trkpt><trkpt lat="44.693211561497606" lon="9.341172834429367"><ele>436.0</ele><time>2026-03-28T12:21:47.999Z</time></trkpt><trkpt lat="44.693090728702096" lon="9.341148147502576"><ele>442.0</ele><time>2026-03-28T12:21:48.999Z</time></trkpt><trkpt lat="44.69295396349353" lon="9.341138339588936"><ele>442.0</ele><time>2026-03-28T12:21:49.999Z</time></trkpt><trkpt lat="44.69282979644358" lon="9.34115907876591"><ele>442.0</ele><time>2026-03-28T12:21:50.999Z</time></trkpt><trkpt lat="44.69270167904365" lon="9.341175510584463"><ele>442.0</ele><time>2026-03-28T12:21:51.999Z</time></trkpt><trkpt lat="44.69258374381949" lon="9.341282213552173"><ele>442.0</ele><time>2026-03-28T12:21:52.999Z</time></trkpt><trkpt lat="44.69248604887305" lon="9.341461880642413"><ele>434.75</ele><time>2026-03-28T12:21:53.999Z</time></trkpt><trkpt lat="44.692398850795406" lon="9.341629962209263"><ele>427.5</ele><time>2026-03-28T12:21:54.999Z</time></trkpt><trkpt lat="44.69229112214302" lon="9.341779570697826"><ele>420.25</ele><time>2026-03-28T12:21:55.999Z</time></trkpt><trkpt lat="44.69218746474015" lon="9.341914519468606"><ele>413.0</ele><time>2026-03-28T12:21:56.999Z</time></trkpt><trkpt lat="44.69211125684853" lon="9.342050373878799"><ele>413.0</ele><time>2026-03-28T12:21:57.999Z</time></trkpt><trkpt lat="44.69205786563131" lon="9.342156090298174"><ele>413.0</ele><time>2026-03-28T12:21:58.999Z</time></trkpt><trkpt lat="44.69198255302806" lon="9.342233544920713"><ele>413.0</ele><time>2026-03-28T12:21:59.999Z</time></trkpt><trkpt lat="44.69188281477908" lon="9.342288114628799"><ele>413.0</ele><time>2026-03-28T12:22:00.999Z</time></trkpt><trkpt lat="44.69177798863986" lon="9.342356757848956"><ele>413.0</ele><time>2026-03-28T12:22:01.999Z</time></trkpt><trkpt lat="44.69169267846608" lon="9.342385963888441"><ele>413.66666666666663</ele><time>2026-03-28T12:22:02.999Z</time></trkpt><trkpt lat="44.69161788849597" lon="9.342377026663979"><ele>414.3333333333333</ele><time>2026-03-28T12:22:03.999Z</time></trkpt><trkpt lat="44.69155802615708" lon="9.34232249677594"><ele>415.0</ele><time>2026-03-28T12:22:04.999Z</time></trkpt><trkpt lat="44.691508307678475" lon="9.34223523051414"><ele>415.66666666666663</ele><time>2026-03-28T12:22:05.999Z</time></trkpt><trkpt lat="44.691489908307666" lon="9.342111963927836"><ele>416.3333333333333</ele><time>2026-03-28T12:22:06.999Z</time></trkpt><trkpt lat="44.691516192911116" lon="9.341972361347128"><ele>417.0</ele><time>2026-03-28T12:22:07.999Z</time></trkpt><trkpt lat="44.691554921986494" lon="9.341832090541896"><ele>417.0</ele><time>2026-03-28T12:22:08.999Z</time></trkpt><trkpt lat="44.691578404546995" lon="9.34167459517885"><ele>417.0</ele><time>2026-03-28T12:22:09.999Z</time></trkpt><trkpt lat="44.691558596083894" lon="9.341493040029258"><ele>417.0</ele><time>2026-03-28T12:22:10.999Z</time></trkpt><trkpt lat="44.69150892517696" lon="9.341323167359961"><ele>417.0</ele><time>2026-03-28T12:22:11.999Z</time></trkpt><trkpt lat="44.69147358633799" lon="9.34116932180737"><ele>418.0</ele><time>2026-03-28T12:22:12.999Z</time></trkpt><trkpt lat="44.69144865194723" lon="9.341032970491252"><ele>419.0</ele><time>2026-03-28T12:22:13.999Z</time></trkpt><trkpt lat="44.69144250608793" lon="9.34090915076723"><ele>420.0</ele><time>2026-03-28T12:22:14.999Z</time></trkpt><trkpt lat="44.69145231080511" lon="9.340774242490404"><ele>421.0</ele><time>2026-03-28T12:22:15.999Z</time></trkpt><trkpt lat="44.69147712241847" lon="9.34061683218695"><ele>422.0</ele><time>2026-03-28T12:22:16.999Z</time></trkpt><trkpt lat="44.691515476268194" lon="9.340452803237543"><ele>422.20000000000005</ele><time>2026-03-28T12:22:17.999Z</time></trkpt><trkpt lat="44.69155686011238" lon="9.34028700590295"><ele>422.4</ele><time>2026-03-28T12:22:18.999Z</time></trkpt><trkpt lat="44.69159225527" lon="9.340129281229071"><ele>422.6</ele><time>2026-03-28T12:22:19.999Z</time></trkpt><trkpt lat="44.691611760157826" lon="9.339984882368988"><ele>422.79999999999995</ele><time>2026-03-28T12:22:20.999Z</time></trkpt><trkpt lat="44.691598759694635" lon="9.33984836525183"><ele>423.0</ele><time>2026-03-28T12:22:21.999Z</time></trkpt><trkpt lat="44.69156084193747" lon="9.339734759815945"><ele>422.59999999999997</ele><time>2026-03-28T12:22:22.999Z</time></trkpt><trkpt lat="44.691505067880996" lon="9.339638231613845"><ele>422.2</ele><time>2026-03-28T12:22:23.999Z</time></trkpt><trkpt lat="44.69145470823055" lon="9.339530521813789"><ele>421.8</ele><time>2026-03-28T12:22:24.999Z</time></trkpt><trkpt lat="44.691435905163296" lon="9.339414291429614"><ele>421.4</ele><time>2026-03-28T12:22:25.999Z</time></trkpt><trkpt lat="44.69147681988742" lon="9.339293758190177"><ele>421.0</ele><time>2026-03-28T12:22:26.999Z</time></trkpt><trkpt lat="44.691534323520166" lon="9.33916954127889"><ele>421.0</ele><time>2026-03-28T12:22:27.999Z</time></trkpt><trkpt lat="44.69160137387348" lon="9.339038783011443"><ele>421.0</ele><time>2026-03-28T12:22:28.999Z</time></trkpt><trkpt lat="44.69167606286301" lon="9.338900259482282"><ele>421.0</ele><time>2026-03-28T12:22:29.999Z</time></trkpt><trkpt lat="44.69176394522437" lon="9.338772547996681"><ele>421.0</ele><time>2026-03-28T12:22:30.999Z</time></trkpt><trkpt lat="44.691829672635166" lon="9.338645518938838"><ele>420.8</ele><time>2026-03-28T12:22:31.999Z</time></trkpt><trkpt lat="44.69185095904719" lon="9.338510295266742"><ele>420.6</ele><time>2026-03-28T12:22:32.999Z</time></trkpt><trkpt lat="44.691830011606626" lon="9.338351993588738"><ele>420.4</ele><time>2026-03-28T12:22:33.999Z</time></trkpt><trkpt lat="44.69177548442565" lon="9.338205287197901"><ele>420.2</ele><time>2026-03-28T12:22:34.999Z</time></trkpt><trkpt lat="44.69169680142452" lon="9.338092058891643"><ele>420.0</ele><time>2026-03-28T12:22:35.999Z</time></trkpt><trkpt lat="44.69160867617368" lon="9.337981483560373"><ele>422.25</ele><time>2026-03-28T12:22:36.999Z</time></trkpt><trkpt lat="44.69148864581598" lon="9.337931217636939"><ele>424.5</ele><time>2026-03-28T12:22:37.999Z</time></trkpt><trkpt lat="44.691361809421075" lon="9.337891038482594"><ele>426.75</ele><time>2026-03-28T12:22:38.999Z</time></trkpt><trkpt lat="44.691228984736256" lon="9.337854930194254"><ele>429.0</ele><time>2026-03-28T12:22:39.999Z</time></trkpt><trkpt lat="44.69111013706856" lon="9.337821378377134"><ele>427.2</ele><time>2026-03-28T12:22:40.999Z</time></trkpt><trkpt lat="44.69099866508829" lon="9.337793833312048"><ele>425.4</ele><time>2026-03-28T12:22:41.999Z</time></trkpt><trkpt lat="44.69090168181591" lon="9.337724482855725"><ele>423.6</ele><time>2026-03-28T12:22:42.999Z</time></trkpt><trkpt lat="44.69081617415475" lon="9.337637505356481"><ele>421.8</ele><time>2026-03-28T12:22:43.999Z</time></trkpt><trkpt lat="44.69073808048702" lon="9.337529738041923"><ele>420.0</ele><time>2026-03-28T12:22:44.999Z</time></trkpt><trkpt lat="44.6906602500139" lon="9.337416797665913"><ele>420.0</ele><time>2026-03-28T12:22:45.999Z</time></trkpt><trkpt lat="44.690583065146306" lon="9.337290574554705"><ele>420.0</ele><time>2026-03-28T12:22:46.999Z</time></trkpt><trkpt lat="44.690537721564596" lon="9.337159493554775"><ele>420.0</ele><time>2026-03-28T12:22:47.999Z</time></trkpt><trkpt lat="44.690532169005465" lon="9.337016044062091"><ele>420.0</ele><time>2026-03-28T12:22:48.999Z</time></trkpt><trkpt lat="44.69055442580784" lon="9.336851257226776"><ele>420.0</ele><time>2026-03-28T12:22:49.999Z</time></trkpt><trkpt lat="44.69057679547148" lon="9.336670285872835"><ele>421.0</ele><time>2026-03-28T12:22:50.999Z</time></trkpt><trkpt lat="44.69058658843402" lon="9.33646659334104"><ele>422.0</ele><time>2026-03-28T12:22:51.999Z</time></trkpt><trkpt lat="44.690590252999215" lon="9.336246554407442"><ele>423.0</ele><time>2026-03-28T12:22:52.999Z</time></trkpt><trkpt lat="44.69059022180251" lon="9.336007794088939"><ele>422.75</ele><time>2026-03-28T12:22:53.999Z</time></trkpt><trkpt lat="44.69058841128038" lon="9.335787974488904"><ele>422.5</ele><time>2026-03-28T12:22:54.999Z</time></trkpt><trkpt lat="44.690591412837605" lon="9.335582398437042"><ele>422.25</ele><time>2026-03-28T12:22:55.999Z</time></trkpt><trkpt lat="44.69059404188813" lon="9.335381858129441"><ele>422.0</ele><time>2026-03-28T12:22:56.999Z</time></trkpt><trkpt lat="44.69057956778794" lon="9.335188867660586"><ele>422.0</ele><time>2026-03-28T12:22:57.999Z</time></trkpt><trkpt lat="44.69052886858586" lon="9.33501406015247"><ele>422.0</ele><time>2026-03-28T12:22:58.999Z</time></trkpt><trkpt lat="44.69045253807764" lon="9.334853831297021"><ele>422.0</ele><time>2026-03-28T12:23:00Z</time></trkpt><trkpt lat="44.69036077076772" lon="9.33470018154473"><ele>422.0</ele><time>2026-03-28T12:23:01Z</time></trkpt><trkpt lat="44.690276510986514" lon="9.334547857534915"><ele>415.75</ele><time>2026-03-28T12:23:02Z</time></trkpt><trkpt lat="44.69021628661395" lon="9.334397677575689"><ele>409.5</ele><time>2026-03-28T12:23:03Z</time></trkpt><trkpt lat="44.6901921486107" lon="9.334228619213539"><ele>403.25</ele><time>2026-03-28T12:23:04Z</time></trkpt><trkpt lat="44.69018918281276" lon="9.334035247102706"><ele>397.0</ele><time>2026-03-28T12:23:05Z</time></trkpt><trkpt lat="44.69018805948843" lon="9.333836331120736"><ele>396.5</ele><time>2026-03-28T12:23:06Z</time></trkpt><trkpt lat="44.690175495160304" lon="9.33364233083082"><ele>396.0</ele><time>2026-03-28T12:23:07Z</time></trkpt><trkpt lat="44.690153407126836" lon="9.333461904727487"><ele>395.5</ele><time>2026-03-28T12:23:08Z</time></trkpt><trkpt lat="44.69013517183571" lon="9.333298487049907"><ele>395.0</ele><time>2026-03-28T12:23:09Z</time></trkpt><trkpt lat="44.690141282393526" lon="9.333148799568388"><ele>395.5</ele><time>2026-03-28T12:23:10Z</time></trkpt><trkpt lat="44.69019013528112" lon="9.33301724180993"><ele>396.0</ele><time>2026-03-28T12:23:11Z</time></trkpt><trkpt lat="44.690281592762446" lon="9.332914619799629"><ele>396.5</ele><time>2026-03-28T12:23:12Z</time></trkpt><trkpt lat="44.69038552697458" lon="9.332838671629265"><ele>397.0</ele><time>2026-03-28T12:23:13Z</time></trkpt><trkpt lat="44.69049349307224" lon="9.332789331336233"><ele>397.0</ele><time>2026-03-28T12:23:14Z</time></trkpt><trkpt lat="44.690609467538295" lon="9.332774353213212"><ele>397.0</ele><time>2026-03-28T12:23:15Z</time></trkpt><trkpt lat="44.69072978155251" lon="9.332771908374067"><ele>397.0</ele><time>2026-03-28T12:23:16Z</time></trkpt><trkpt lat="44.690844811231784" lon="9.332770017108514"><ele>397.0</ele><time>2026-03-28T12:23:17Z</time></trkpt><trkpt lat="44.69093893758218" lon="9.332756356919237"><ele>397.0</ele><time>2026-03-28T12:23:18Z</time></trkpt><trkpt lat="44.691007330247274" lon="9.332709513396066"><ele>397.0</ele><time>2026-03-28T12:23:19Z</time></trkpt><trkpt lat="44.69105575195376" lon="9.332614997697714"><ele>397.0</ele><time>2026-03-28T12:23:20Z</time></trkpt><trkpt lat="44.6910670718636" lon="9.33249116081192"><ele>397.0</ele><time>2026-03-28T12:23:21Z</time></trkpt><trkpt lat="44.69103202903308" lon="9.332372082531018"><ele>397.0</ele><time>2026-03-28T12:23:22Z</time></trkpt><trkpt lat="44.69096086635017" lon="9.332286713121038"><ele>397.0</ele><time>2026-03-28T12:23:23Z</time></trkpt><trkpt lat="44.69085915492951" lon="9.332254081095405"><ele>398.40000000000003</ele><time>2026-03-28T12:23:24Z</time></trkpt><trkpt lat="44.690756490575566" lon="9.332211426529211"><ele>399.8</ele><time>2026-03-28T12:23:25Z</time></trkpt><trkpt lat="44.69066278169751" lon="9.332192904978436"><ele>401.2</ele><time>2026-03-28T12:23:26Z</time></trkpt><trkpt lat="44.69059349618115" lon="9.332114686598674"><ele>402.6</ele><time>2026-03-28T12:23:27Z</time></trkpt><trkpt lat="44.69052955798418" lon="9.332007125532803"><ele>404.0</ele><time>2026-03-28T12:23:28Z</time></trkpt><trkpt lat="44.690458570244196" lon="9.331889659763235"><ele>403.99999999999994</ele><time>2026-03-28T12:23:29Z</time></trkpt><trkpt lat="44.69038917994402" lon="9.331779252412728"><ele>404.0</ele><time>2026-03-28T12:23:30Z</time></trkpt><trkpt lat="44.690332609202436" lon="9.331686846824944"><ele>404.0</ele><time>2026-03-28T12:23:31Z</time></trkpt><trkpt lat="44.69029425492899" lon="9.33161011067797"><ele>404.0</ele><time>2026-03-28T12:23:32Z</time></trkpt><trkpt lat="44.69026260847336" lon="9.331526434219267"><ele>403.99999999999994</ele><time>2026-03-28T12:23:33Z</time></trkpt><trkpt lat="44.69023296262497" lon="9.331429842236451"><ele>404.0</ele><time>2026-03-28T12:23:34Z</time></trkpt><trkpt lat="44.690209870854844" lon="9.331321069128057"><ele>398.2</ele><time>2026-03-28T12:23:35Z</time></trkpt><trkpt lat="44.69019156069459" lon="9.33120177518886"><ele>392.4</ele><time>2026-03-28T12:23:36Z</time></trkpt><trkpt lat="44.69017966282604" lon="9.331072141629427"><ele>386.6</ele><time>2026-03-28T12:23:37Z</time></trkpt><trkpt lat="44.69018114064535" lon="9.330939768200029"><ele>380.8</ele><time>2026-03-28T12:23:38Z</time></trkpt><trkpt lat="44.69019337753932" lon="9.330807477511728"><ele>375.0</ele><time>2026-03-28T12:23:39Z</time></trkpt><trkpt lat="44.69021616696488" lon="9.330673731028917"><ele>375.5</ele><time>2026-03-28T12:23:40Z</time></trkpt><trkpt lat="44.69023787328587" lon="9.330525030558404"><ele>376.0</ele><time>2026-03-28T12:23:41Z</time></trkpt><trkpt lat="44.6902451417639" lon="9.330354618369919"><ele>376.5</ele><time>2026-03-28T12:23:42Z</time></trkpt><trkpt lat="44.690249198989406" lon="9.330176199009559"><ele>377.0</ele><time>2026-03-28T12:23:43Z</time></trkpt><trkpt lat="44.69025435070689" lon="9.330017267667376"><ele>377.0</ele><time>2026-03-28T12:23:44Z</time></trkpt><trkpt lat="44.690234243114844" lon="9.329880229308163"><ele>377.0</ele><time>2026-03-28T12:23:45Z</time></trkpt><trkpt lat="44.69017288827475" lon="9.329755303515942"><ele>377.0</ele><time>2026-03-28T12:23:46Z</time></trkpt><trkpt lat="44.69009551985455" lon="9.32963071119092"><ele>377.0</ele><time>2026-03-28T12:23:47Z</time></trkpt><trkpt lat="44.68996394630423" lon="9.329547454029745"><ele>376.33333333333337</ele><time>2026-03-28T12:23:48Z</time></trkpt><trkpt lat="44.68981878580569" lon="9.329457706745961"><ele>375.6666666666667</ele><time>2026-03-28T12:23:49Z</time></trkpt><trkpt lat="44.689673620930655" lon="9.329367256300285"><ele>375.0</ele><time>2026-03-28T12:23:50Z</time></trkpt><trkpt lat="44.689539369281434" lon="9.329307891755734"><ele>375.0</ele><time>2026-03-28T12:23:51Z</time></trkpt><trkpt lat="44.689434163462266" lon="9.329241695272414"><ele>375.0</ele><time>2026-03-28T12:23:52Z</time></trkpt><trkpt lat="44.689338630719675" lon="9.329177882279708"><ele>375.0</ele><time>2026-03-28T12:23:52.999Z</time></trkpt><trkpt lat="44.68925092783986" lon="9.329119002649549"><ele>375.0</ele><time>2026-03-28T12:23:53.999Z</time></trkpt><trkpt lat="44.68916172674807" lon="9.329064379722299"><ele>375.0</ele><time>2026-03-28T12:23:54.999Z</time></trkpt><trkpt lat="44.689079927628384" lon="9.32900621963793"><ele>374.6666666666667</ele><time>2026-03-28T12:23:55.999Z</time></trkpt><trkpt lat="44.689014739218266" lon="9.328955157564177"><ele>374.3333333333333</ele><time>2026-03-28T12:23:56.999Z</time></trkpt><trkpt lat="44.68896041003288" lon="9.32889097308751"><ele>374.0</ele><time>2026-03-28T12:23:57.999Z</time></trkpt><trkpt lat="44.68891837148194" lon="9.328792028267157"><ele>373.66666666666663</ele><time>2026-03-28T12:23:58.999Z</time></trkpt><trkpt lat="44.68891099056796" lon="9.32867297374428"><ele>373.3333333333333</ele><time>2026-03-28T12:23:59.999Z</time></trkpt><trkpt lat="44.68893403675851" lon="9.32855155470826"><ele>373.0</ele><time>2026-03-28T12:24:00.999Z</time></trkpt><trkpt lat="44.688972393597325" lon="9.328413210428083"><ele>373.0</ele><time>2026-03-28T12:24:01.999Z</time></trkpt><trkpt lat="44.689015353217215" lon="9.328260868250325"><ele>373.0</ele><time>2026-03-28T12:24:02.999Z</time></trkpt><trkpt lat="44.68904131176459" lon="9.328135063762488"><ele>373.0</ele><time>2026-03-28T12:24:03.999Z</time></trkpt><trkpt lat="44.6890730473626" lon="9.327992015991741"><ele>373.0</ele><time>2026-03-28T12:24:05.999Z</time></trkpt><trkpt lat="44.68909595199351" lon="9.327895067984967"><ele>373.0</ele><time>2026-03-28T12:24:06.999Z</time></trkpt><trkpt lat="44.68911260400107" lon="9.327783345893184"><ele>373.8333333333333</ele><time>2026-03-28T12:24:07.999Z</time></trkpt><trkpt lat="44.689119058361015" lon="9.327657404049583"><ele>374.66666666666663</ele><time>2026-03-28T12:24:08.999Z</time></trkpt><trkpt lat="44.68912707496145" lon="9.327549538136031"><ele>375.5</ele><time>2026-03-28T12:24:09.999Z</time></trkpt><trkpt lat="44.68913667378913" lon="9.327402213806266"><ele>376.3333333333333</ele><time>2026-03-28T12:24:11.999Z</time></trkpt><trkpt lat="44.68914733144296" lon="9.32730302886214"><ele>377.1666666666667</ele><time>2026-03-28T12:24:13.999Z</time></trkpt><trkpt lat="44.68916134889081" lon="9.327206079154628"><ele>378.0</ele><time>2026-03-28T12:24:16.999Z</time></trkpt><trkpt lat="44.689168983781315" lon="9.327116034294537"><ele>379.1666666666667</ele><time>2026-03-28T12:25:17Z</time></trkpt><trkpt lat="44.689177528116396" lon="9.326971089519347"><ele>380.33333333333337</ele><time>2026-03-28T12:25:19Z</time></trkpt><trkpt lat="44.68919237562264" lon="9.326863871630508"><ele>381.5</ele><time>2026-03-28T12:25:20Z</time></trkpt><trkpt lat="44.68920810428179" lon="9.326758229893693"><ele>382.6666666666667</ele><time>2026-03-28T12:25:21Z</time></trkpt><trkpt lat="44.689219171286446" lon="9.326647341813851"><ele>383.83333333333337</ele><time>2026-03-28T12:25:22Z</time></trkpt><trkpt lat="44.689232998947666" lon="9.326536687833011"><ele>385.0</ele><time>2026-03-28T12:25:23Z</time></trkpt><trkpt lat="44.68925712049661" lon="9.326431195472368"><ele>385.6666666666667</ele><time>2026-03-28T12:25:24Z</time></trkpt><trkpt lat="44.68928232083041" lon="9.326327830333586"><ele>386.33333333333337</ele><time>2026-03-28T12:25:25Z</time></trkpt><trkpt lat="44.68929917777195" lon="9.32622020000586"><ele>387.0</ele><time>2026-03-28T12:25:26Z</time></trkpt><trkpt lat="44.68931090844964" lon="9.326109992799413"><ele>387.66666666666663</ele><time>2026-03-28T12:25:27Z</time></trkpt><trkpt lat="44.68931896782748" lon="9.325993199271888"><ele>388.3333333333333</ele><time>2026-03-28T12:25:28Z</time></trkpt><trkpt lat="44.68932282647947" lon="9.325868682458282"><ele>389.0</ele><time>2026-03-28T12:25:29Z</time></trkpt><trkpt lat="44.68933241638295" lon="9.325743000294269"><ele>389.0</ele><time>2026-03-28T12:25:30Z</time></trkpt><trkpt lat="44.6893389326914" lon="9.3256169584571"><ele>389.0</ele><time>2026-03-28T12:25:31Z</time></trkpt><trkpt lat="44.689340087090706" lon="9.325486186791501"><ele>389.0</ele><time>2026-03-28T12:25:32Z</time></trkpt><trkpt lat="44.68934130387384" lon="9.325349730762204"><ele>389.0</ele><time>2026-03-28T12:25:33Z</time></trkpt><trkpt lat="44.68934065693052" lon="9.325210551144401"><ele>389.0</ele><time>2026-03-28T12:25:34Z</time></trkpt><trkpt lat="44.689336421186766" lon="9.325065390614723"><ele>389.6</ele><time>2026-03-28T12:25:35Z</time></trkpt><trkpt lat="44.68933346041909" lon="9.324913097920913"><ele>390.2</ele><time>2026-03-28T12:25:36Z</time></trkpt><trkpt lat="44.68933269552285" lon="9.324758608133683"><ele>390.8</ele><time>2026-03-28T12:25:37Z</time></trkpt><trkpt lat="44.68932521503415" lon="9.32460115645038"><ele>391.40000000000003</ele><time>2026-03-28T12:25:38Z</time></trkpt><trkpt lat="44.689319358866925" lon="9.324438860724028"><ele>392.0</ele><time>2026-03-28T12:25:39Z</time></trkpt><trkpt lat="44.68931554995442" lon="9.324285940261744"><ele>391.8</ele><time>2026-03-28T12:25:40Z</time></trkpt><trkpt lat="44.689315202711626" lon="9.324135318907741"><ele>391.6</ele><time>2026-03-28T12:25:41Z</time></trkpt><trkpt lat="44.68930649623734" lon="9.323987056213104"><ele>391.40000000000003</ele><time>2026-03-28T12:25:42Z</time></trkpt><trkpt lat="44.68927802671137" lon="9.323840180778294"><ele>391.20000000000005</ele><time>2026-03-28T12:25:43Z</time></trkpt><trkpt lat="44.68921926666891" lon="9.323698333393287"><ele>391.0</ele><time>2026-03-28T12:25:44Z</time></trkpt><trkpt lat="44.689134807114876" lon="9.323550994300808"><ele>391.0</ele><time>2026-03-28T12:25:45Z</time></trkpt><trkpt lat="44.689061580638885" lon="9.323401899944074"><ele>391.0</ele><time>2026-03-28T12:25:46Z</time></trkpt><trkpt lat="44.68898703887664" lon="9.323279571026472"><ele>391.0</ele><time>2026-03-28T12:25:47Z</time></trkpt><trkpt lat="44.68889662916611" lon="9.323176787102565"><ele>391.0</ele><time>2026-03-28T12:25:48Z</time></trkpt><trkpt lat="44.68878827865641" lon="9.323102124780076"><ele>389.0</ele><time>2026-03-28T12:25:49Z</time></trkpt><trkpt lat="44.6886680971806" lon="9.323060325279892"><ele>387.0</ele><time>2026-03-28T12:25:50Z</time></trkpt><trkpt lat="44.68854490078332" lon="9.32302160179516"><ele>385.0</ele><time>2026-03-28T12:25:51Z</time></trkpt><trkpt lat="44.688436540379605" lon="9.322973470533286"><ele>383.0</ele><time>2026-03-28T12:25:52Z</time></trkpt><trkpt lat="44.688344997018156" lon="9.322907492174"><ele>388.25</ele><time>2026-03-28T12:25:53Z</time></trkpt><trkpt lat="44.688259270669214" lon="9.322799514951607"><ele>393.5</ele><time>2026-03-28T12:25:54Z</time></trkpt><trkpt lat="44.68820458031395" lon="9.322657211218347"><ele>398.75</ele><time>2026-03-28T12:25:55Z</time></trkpt><trkpt lat="44.688193578856335" lon="9.322495382082774"><ele>404.0</ele><time>2026-03-28T12:25:56Z</time></trkpt><trkpt lat="44.688215210153146" lon="9.322334915284321"><ele>404.0</ele><time>2026-03-28T12:25:57Z</time></trkpt><trkpt lat="44.68823395698217" lon="9.322172801386941"><ele>404.0</ele><time>2026-03-28T12:25:58Z</time></trkpt><trkpt lat="44.688200266940754" lon="9.322014282459405"><ele>404.0</ele><time>2026-03-28T12:25:59Z</time></trkpt><trkpt lat="44.68813500308938" lon="9.321867891079716"><ele>404.0</ele><time>2026-03-28T12:25:59.999Z</time></trkpt><trkpt lat="44.68807707920138" lon="9.321705785200265"><ele>404.0</ele><time>2026-03-28T12:26:00.999Z</time></trkpt><trkpt lat="44.68805550341701" lon="9.321523869266441"><ele>404.0</ele><time>2026-03-28T12:26:01.999Z</time></trkpt><trkpt lat="44.68806611677308" lon="9.321335859356626"><ele>404.0</ele><time>2026-03-28T12:26:02.999Z</time></trkpt><trkpt lat="44.688076319171174" lon="9.321146299535972"><ele>404.0</ele><time>2026-03-28T12:26:03.999Z</time></trkpt><trkpt lat="44.688084672980324" lon="9.320959773863953"><ele>403.0</ele><time>2026-03-28T12:26:04.999Z</time></trkpt><trkpt lat="44.68809207417431" lon="9.320769771339586"><ele>402.0</ele><time>2026-03-28T12:26:05.999Z</time></trkpt><trkpt lat="44.68809690858003" lon="9.320570480215908"><ele>401.0</ele><time>2026-03-28T12:26:06.999Z</time></trkpt><trkpt lat="44.68810271581071" lon="9.32037225236113"><ele>400.0</ele><time>2026-03-28T12:26:07.999Z</time></trkpt><trkpt lat="44.68811336080613" lon="9.320172445405412"><ele>398.5</ele><time>2026-03-28T12:26:08.999Z</time></trkpt><trkpt lat="44.688123963748595" lon="9.319969301869552"><ele>397.0</ele><time>2026-03-28T12:26:09.999Z</time></trkpt><trkpt lat="44.68813089242262" lon="9.319782984887592"><ele>395.5</ele><time>2026-03-28T12:26:10.999Z</time></trkpt><trkpt lat="44.68812749661633" lon="9.319616336196189"><ele>394.0</ele><time>2026-03-28T12:26:11.999Z</time></trkpt><trkpt lat="44.68809284670218" lon="9.319468107935922"><ele>392.79999999999995</ele><time>2026-03-28T12:26:12.999Z</time></trkpt><trkpt lat="44.6880173320429" lon="9.31934619665385"><ele>391.59999999999997</ele><time>2026-03-28T12:26:13.999Z</time></trkpt><trkpt lat="44.68791693676117" lon="9.319256792438818"><ele>390.4</ele><time>2026-03-28T12:26:14.999Z</time></trkpt><trkpt lat="44.68782361839174" lon="9.31920443710014"><ele>389.2</ele><time>2026-03-28T12:26:15.999Z</time></trkpt><trkpt lat="44.68772403940885" lon="9.31921429628149"><ele>388.0</ele><time>2026-03-28T12:26:16.999Z</time></trkpt><trkpt lat="44.68761524996833" lon="9.31926458020395"><ele>394.2</ele><time>2026-03-28T12:26:17.999Z</time></trkpt><trkpt lat="44.68750830228707" lon="9.319368658930188"><ele>400.4</ele><time>2026-03-28T12:26:18.999Z</time></trkpt><trkpt lat="44.68740585451158" lon="9.31945523340715"><ele>406.59999999999997</ele><time>2026-03-28T12:26:19.999Z</time></trkpt><trkpt lat="44.68731114463376" lon="9.31950131543527"><ele>412.79999999999995</ele><time>2026-03-28T12:26:20.999Z</time></trkpt><trkpt lat="44.68722495798959" lon="9.319517658522603"><ele>419.0</ele><time>2026-03-28T12:26:21.999Z</time></trkpt><trkpt lat="44.68714165003617" lon="9.319436971669456"><ele>419.0</ele><time>2026-03-28T12:26:22.999Z</time></trkpt><trkpt lat="44.68707161119129" lon="9.319304522698516"><ele>419.0</ele><time>2026-03-28T12:26:23.999Z</time></trkpt><trkpt lat="44.68701801288273" lon="9.319142321362948"><ele>419.0</ele><time>2026-03-28T12:26:24.999Z</time></trkpt><trkpt lat="44.68696397553978" lon="9.318964322140287"><ele>419.0</ele><time>2026-03-28T12:26:25.999Z</time></trkpt><trkpt lat="44.68690330454248" lon="9.318777638926498"><ele>416.75</ele><time>2026-03-28T12:26:26.999Z</time></trkpt><trkpt lat="44.68686221581524" lon="9.318572503779203"><ele>414.5</ele><time>2026-03-28T12:26:27.999Z</time></trkpt><trkpt lat="44.68686779274198" lon="9.318366222503888"><ele>412.25</ele><time>2026-03-28T12:26:28.999Z</time></trkpt><trkpt lat="44.68691721574015" lon="9.31816777516427"><ele>410.0</ele><time>2026-03-28T12:26:29.999Z</time></trkpt><trkpt lat="44.68699655256267" lon="9.317978998002188"><ele>410.0</ele><time>2026-03-28T12:26:30.999Z</time></trkpt><trkpt lat="44.687106301422645" lon="9.31781230475229"><ele>410.0</ele><time>2026-03-28T12:26:31.999Z</time></trkpt><trkpt lat="44.68721688192037" lon="9.31767556103556"><ele>410.0</ele><time>2026-03-28T12:26:32.999Z</time></trkpt><trkpt lat="44.68729464540953" lon="9.317534345924201"><ele>410.0</ele><time>2026-03-28T12:26:33.999Z</time></trkpt><trkpt lat="44.687325497940485" lon="9.317379051756385"><ele>413.0</ele><time>2026-03-28T12:26:34.999Z</time></trkpt><trkpt lat="44.68730664556514" lon="9.317214042996563"><ele>416.0</ele><time>2026-03-28T12:26:35.999Z</time></trkpt><trkpt lat="44.68725307570428" lon="9.317039199931077"><ele>419.0</ele><time>2026-03-28T12:26:36.999Z</time></trkpt><trkpt lat="44.68722642732984" lon="9.316851956273572"><ele>422.0</ele><time>2026-03-28T12:26:37.999Z</time></trkpt><trkpt lat="44.68725671475918" lon="9.316646929947836"><ele>422.0</ele><time>2026-03-28T12:26:38.999Z</time></trkpt><trkpt lat="44.68730122017024" lon="9.316435566922012"><ele>422.0</ele><time>2026-03-28T12:26:39.999Z</time></trkpt><trkpt lat="44.68733556311273" lon="9.316223486603095"><ele>422.0</ele><time>2026-03-28T12:26:40.999Z</time></trkpt><trkpt lat="44.68736482849578" lon="9.31600617427542"><ele>424.5</ele><time>2026-03-28T12:26:41.999Z</time></trkpt><trkpt lat="44.687392697588514" lon="9.315804943863636"><ele>427.0</ele><time>2026-03-28T12:26:42.999Z</time></trkpt><trkpt lat="44.687403204364834" lon="9.315627776692294"><ele>429.5</ele><time>2026-03-28T12:26:43.999Z</time></trkpt><trkpt lat="44.68737817471759" lon="9.315457575944535"><ele>432.0</ele><time>2026-03-28T12:26:44.999Z</time></trkpt><trkpt lat="44.68735831324124" lon="9.3153019796979"><ele>434.6</ele><time>2026-03-28T12:26:45.999Z</time></trkpt><trkpt lat="44.687398040511006" lon="9.31518915895928"><ele>437.20000000000005</ele><time>2026-03-28T12:26:46.999Z</time></trkpt><trkpt lat="44.68746766676654" lon="9.31512478810777"><ele>439.8</ele><time>2026-03-28T12:26:47.999Z</time></trkpt><trkpt lat="44.68752961103203" lon="9.315040557835308"><ele>442.4</ele><time>2026-03-28T12:26:48.999Z</time></trkpt><trkpt lat="44.68757932413872" lon="9.314904976421122"><ele>445.0</ele><time>2026-03-28T12:26:49.999Z</time></trkpt><trkpt lat="44.687631042831576" lon="9.314756048184949"><ele>447.5</ele><time>2026-03-28T12:26:50.999Z</time></trkpt><trkpt lat="44.68768798990105" lon="9.314599756511544"><ele>450.0</ele><time>2026-03-28T12:26:51.999Z</time></trkpt><trkpt lat="44.68773259908523" lon="9.314426835230986"><ele>452.5</ele><time>2026-03-28T12:26:52.999Z</time></trkpt><trkpt lat="44.68775039123241" lon="9.314237588598138"><ele>455.0</ele><time>2026-03-28T12:26:53.999Z</time></trkpt><trkpt lat="44.68775015914098" lon="9.314050081744272"><ele>452.4</ele><time>2026-03-28T12:26:54.999Z</time></trkpt><trkpt lat="44.68774248813543" lon="9.313888264259653"><ele>449.8</ele><time>2026-03-28T12:26:55.999Z</time></trkpt><trkpt lat="44.687714413598876" lon="9.313751152264068"><ele>447.20000000000005</ele><time>2026-03-28T12:26:56.999Z</time></trkpt><trkpt lat="44.68765050260355" lon="9.313634621215712"><ele>444.6</ele><time>2026-03-28T12:26:57.999Z</time></trkpt><trkpt lat="44.687550431638286" lon="9.313551412137931"><ele>442.0</ele><time>2026-03-28T12:26:58.999Z</time></trkpt><trkpt lat="44.68743344872453" lon="9.31350928248808"><ele>442.0</ele><time>2026-03-28T12:26:59.999Z</time></trkpt><trkpt lat="44.68732706465349" lon="9.313451351287386"><ele>442.0</ele><time>2026-03-28T12:27:00.999Z</time></trkpt><trkpt lat="44.68725729072183" lon="9.313342712373535"><ele>442.0</ele><time>2026-03-28T12:27:01.999Z</time></trkpt><trkpt lat="44.68721483316599" lon="9.31317921843622"><ele>442.0</ele><time>2026-03-28T12:27:02.999Z</time></trkpt><trkpt lat="44.68717480627042" lon="9.312996487780811"><ele>436.6666666666667</ele><time>2026-03-28T12:27:03.999Z</time></trkpt><trkpt lat="44.687120904519226" lon="9.312803931429528"><ele>431.33333333333337</ele><time>2026-03-28T12:27:04.999Z</time></trkpt><trkpt lat="44.687057195332265" lon="9.312598496761062"><ele>426.0</ele><time>2026-03-28T12:27:05.999Z</time></trkpt><trkpt lat="44.68699433374933" lon="9.312394112274808"><ele>436.0</ele><time>2026-03-28T12:27:06.999Z</time></trkpt><trkpt lat="44.68692322016792" lon="9.312206405022048"><ele>446.0</ele><time>2026-03-28T12:27:07.999Z</time></trkpt><trkpt lat="44.68684211841602" lon="9.312021502196597"><ele>456.0</ele><time>2026-03-28T12:27:08.999Z</time></trkpt><trkpt lat="44.686758715456655" lon="9.311851101934652"><ele>456.0</ele><time>2026-03-28T12:27:09.999Z</time></trkpt><trkpt lat="44.68665647918951" lon="9.311715270657363"><ele>456.0</ele><time>2026-03-28T12:27:10.999Z</time></trkpt><trkpt lat="44.68652259690072" lon="9.311617039087789"><ele>456.0</ele><time>2026-03-28T12:27:12Z</time></trkpt><trkpt lat="44.68640085507501" lon="9.31153419183623"><ele>456.0</ele><time>2026-03-28T12:27:13Z</time></trkpt><trkpt lat="44.686308957659364" lon="9.31141839818801"><ele>454.0</ele><time>2026-03-28T12:27:14Z</time></trkpt><trkpt lat="44.6862549062951" lon="9.311274282291025"><ele>452.0</ele><time>2026-03-28T12:27:15Z</time></trkpt><trkpt lat="44.686233906597515" lon="9.311082686700148"><ele>450.0</ele><time>2026-03-28T12:27:16Z</time></trkpt><trkpt lat="44.68624488709069" lon="9.310873877581113"><ele>448.0</ele><time>2026-03-28T12:27:17Z</time></trkpt><trkpt lat="44.68628511486715" lon="9.310656553332846"><ele>453.5</ele><time>2026-03-28T12:27:18Z</time></trkpt><trkpt lat="44.68635241317873" lon="9.3104490091038"><ele>459.0</ele><time>2026-03-28T12:27:19Z</time></trkpt><trkpt lat="44.68643690721391" lon="9.31030060888079"><ele>464.5</ele><time>2026-03-28T12:27:20Z</time></trkpt><trkpt lat="44.686540822992384" lon="9.310226114041072"><ele>470.0</ele><time>2026-03-28T12:27:21Z</time></trkpt><trkpt lat="44.686647125143075" lon="9.310210680690078"><ele>470.0</ele><time>2026-03-28T12:27:22Z</time></trkpt><trkpt lat="44.68675769831356" lon="9.310187938236188"><ele>470.0</ele><time>2026-03-28T12:27:23Z</time></trkpt><trkpt lat="44.68685952956374" lon="9.310091363739144"><ele>470.0</ele><time>2026-03-28T12:27:24Z</time></trkpt><trkpt lat="44.68694962757207" lon="9.309948646554572"><ele>470.0</ele><time>2026-03-28T12:27:25Z</time></trkpt><trkpt lat="44.687005877870426" lon="9.309781994019534"><ele>469.5</ele><time>2026-03-28T12:27:26Z</time></trkpt><trkpt lat="44.68701631289743" lon="9.309601663866621"><ele>469.0</ele><time>2026-03-28T12:27:27Z</time></trkpt><trkpt lat="44.686987517621944" lon="9.309421868928167"><ele>468.5</ele><time>2026-03-28T12:27:28Z</time></trkpt><trkpt lat="44.68693368260526" lon="9.309259833646069"><ele>468.0</ele><time>2026-03-28T12:27:29Z</time></trkpt><trkpt lat="44.686855545148674" lon="9.309122323309863"><ele>468.0</ele><time>2026-03-28T12:27:30Z</time></trkpt><trkpt lat="44.68674165195176" lon="9.309029655394852"><ele>468.0</ele><time>2026-03-28T12:27:31Z</time></trkpt><trkpt lat="44.68659577332504" lon="9.308973277768144"><ele>468.0</ele><time>2026-03-28T12:27:32Z</time></trkpt><trkpt lat="44.68643115881038" lon="9.308918159704406"><ele>464.0</ele><time>2026-03-28T12:27:33Z</time></trkpt><trkpt lat="44.68628522250453" lon="9.308854684338502"><ele>460.0</ele><time>2026-03-28T12:27:34Z</time></trkpt><trkpt lat="44.68615183785617" lon="9.308818364720855"><ele>456.0</ele><time>2026-03-28T12:27:35Z</time></trkpt><trkpt lat="44.686010837004545" lon="9.308831434715167"><ele>452.0</ele><time>2026-03-28T12:27:36Z</time></trkpt><trkpt lat="44.68585902928979" lon="9.308843007364091"><ele>452.0</ele><time>2026-03-28T12:27:37Z</time></trkpt><trkpt lat="44.68570202621138" lon="9.308863221223307"><ele>452.0</ele><time>2026-03-28T12:27:38Z</time></trkpt><trkpt lat="44.68554110899099" lon="9.308845687610551"><ele>452.0</ele><time>2026-03-28T12:27:39Z</time></trkpt><trkpt lat="44.685381738072095" lon="9.308840612663465"><ele>456.0</ele><time>2026-03-28T12:27:40Z</time></trkpt><trkpt lat="44.685229884766265" lon="9.308841430051595"><ele>460.0</ele><time>2026-03-28T12:27:41Z</time></trkpt><trkpt lat="44.68509151891186" lon="9.308863844679317"><ele>464.0</ele><time>2026-03-28T12:27:42Z</time></trkpt><trkpt lat="44.68496518838218" lon="9.308893157917334"><ele>468.0</ele><time>2026-03-28T12:27:43Z</time></trkpt><trkpt lat="44.68483674378077" lon="9.308929789465314"><ele>473.5</ele><time>2026-03-28T12:27:44Z</time></trkpt><trkpt lat="44.684723067320604" lon="9.309013164092518"><ele>479.0</ele><time>2026-03-28T12:27:45Z</time></trkpt><trkpt lat="44.68462512179525" lon="9.309099770385936"><ele>484.5</ele><time>2026-03-28T12:27:46Z</time></trkpt><trkpt lat="44.68448842112553" lon="9.309121172434585"><ele>490.0</ele><time>2026-03-28T12:27:47Z</time></trkpt><trkpt lat="44.68433592745592" lon="9.309110743346153"><ele>490.2</ele><time>2026-03-28T12:27:48Z</time></trkpt><trkpt lat="44.68422729645949" lon="9.309113591828204"><ele>490.4</ele><time>2026-03-28T12:27:49Z</time></trkpt><trkpt lat="44.684119938965" lon="9.30910091093638"><ele>490.6</ele><time>2026-03-28T12:27:50Z</time></trkpt><trkpt lat="44.684028075503136" lon="9.309061651065514"><ele>490.8</ele><time>2026-03-28T12:27:51Z</time></trkpt><trkpt lat="44.68394696331862" lon="9.308980440079013"><ele>491.0</ele><time>2026-03-28T12:27:52Z</time></trkpt><trkpt lat="44.683891802555024" lon="9.308841067196761"><ele>490.5</ele><time>2026-03-28T12:27:53Z</time></trkpt><trkpt lat="44.68383530225512" lon="9.308691576832857"><ele>490.0</ele><time>2026-03-28T12:27:54Z</time></trkpt><trkpt lat="44.68374231223828" lon="9.308576060164826"><ele>489.5</ele><time>2026-03-28T12:27:55Z</time></trkpt><trkpt lat="44.68363680714649" lon="9.308491555600332"><ele>489.0</ele><time>2026-03-28T12:27:56Z</time></trkpt><trkpt lat="44.683525146221356" lon="9.3084315359261"><ele>489.0</ele><time>2026-03-28T12:27:57Z</time></trkpt><trkpt lat="44.683419803657685" lon="9.308357317930676"><ele>489.0</ele><time>2026-03-28T12:27:58Z</time></trkpt><trkpt lat="44.68335517689822" lon="9.308273243372573"><ele>489.0</ele><time>2026-03-28T12:27:59Z</time></trkpt><trkpt lat="44.68332686776814" lon="9.308182235840125"><ele>489.0</ele><time>2026-03-28T12:28:00Z</time></trkpt><trkpt lat="44.683333971613976" lon="9.308089299116432"><ele>489.0</ele><time>2026-03-28T12:28:01Z</time></trkpt><trkpt lat="44.68338202431563" lon="9.307993845124265"><ele>489.0</ele><time>2026-03-28T12:28:02Z</time></trkpt><trkpt lat="44.68345130009404" lon="9.307897835373105"><ele>487.25</ele><time>2026-03-28T12:28:03Z</time></trkpt><trkpt lat="44.68352814161636" lon="9.307800813637419"><ele>485.5</ele><time>2026-03-28T12:28:04Z</time></trkpt><trkpt lat="44.68360336656012" lon="9.307675149339403"><ele>483.75</ele><time>2026-03-28T12:28:05Z</time></trkpt><trkpt lat="44.683665871580324" lon="9.307531205353712"><ele>482.0</ele><time>2026-03-28T12:28:06Z</time></trkpt><trkpt lat="44.683717007805456" lon="9.307373813078152"><ele>481.75</ele><time>2026-03-28T12:28:06.999Z</time></trkpt><trkpt lat="44.68375326017573" lon="9.307196215841806"><ele>481.5</ele><time>2026-03-28T12:28:07.999Z</time></trkpt><trkpt lat="44.683783110006104" lon="9.30700247497536"><ele>481.25</ele><time>2026-03-28T12:28:08.999Z</time></trkpt><trkpt lat="44.683817525444766" lon="9.306816444474807"><ele>481.0</ele><time>2026-03-28T12:28:09.999Z</time></trkpt><trkpt lat="44.683831779939254" lon="9.30665826482668"><ele>481.0</ele><time>2026-03-28T12:28:10.999Z</time></trkpt><trkpt lat="44.683808903317804" lon="9.306499239621816"><ele>481.0</ele><time>2026-03-28T12:28:11.999Z</time></trkpt><trkpt lat="44.683751057839814" lon="9.306335610192917"><ele>481.0</ele><time>2026-03-28T12:28:12.999Z</time></trkpt><trkpt lat="44.68372418875204" lon="9.306162557526088"><ele>481.0</ele><time>2026-03-28T12:28:13.999Z</time></trkpt><trkpt lat="44.683690366829374" lon="9.30602924485587"><ele>478.20000000000005</ele><time>2026-03-28T12:28:14.999Z</time></trkpt><trkpt lat="44.68362396127974" lon="9.30593912072753"><ele>475.40000000000003</ele><time>2026-03-28T12:28:15.999Z</time></trkpt><trkpt lat="44.683520868243725" lon="9.305897972749992"><ele>472.6</ele><time>2026-03-28T12:28:16.999Z</time></trkpt><trkpt lat="44.683409679108244" lon="9.305872259731942"><ele>469.8</ele><time>2026-03-28T12:28:17.999Z</time></trkpt><trkpt lat="44.683295148440784" lon="9.30579821016215"><ele>467.0</ele><time>2026-03-28T12:28:18.999Z</time></trkpt><trkpt lat="44.6831988303754" lon="9.305702149245269"><ele>471.40000000000003</ele><time>2026-03-28T12:28:19.999Z</time></trkpt><trkpt lat="44.6831350206468" lon="9.30559993016178"><ele>475.80000000000007</ele><time>2026-03-28T12:28:20.999Z</time></trkpt><trkpt lat="44.683106754130385" lon="9.305463627249159"><ele>480.2</ele><time>2026-03-28T12:28:21.999Z</time></trkpt><trkpt lat="44.68312254843339" lon="9.305312272525041"><ele>484.6</ele><time>2026-03-28T12:28:22.999Z</time></trkpt><trkpt lat="44.68313354200595" lon="9.305161515467175"><ele>489.0</ele><time>2026-03-28T12:28:23.999Z</time></trkpt><trkpt lat="44.68309269312025" lon="9.305010547924162"><ele>489.0</ele><time>2026-03-28T12:28:24.999Z</time></trkpt><trkpt lat="44.68302655838301" lon="9.30486216478302"><ele>489.0</ele><time>2026-03-28T12:28:25.999Z</time></trkpt><trkpt lat="44.68296172306744" lon="9.304706244569285"><ele>489.0</ele><time>2026-03-28T12:28:26.999Z</time></trkpt><trkpt lat="44.682902000232495" lon="9.304539136213595"><ele>489.0</ele><time>2026-03-28T12:28:27.999Z</time></trkpt><trkpt lat="44.68283378771141" lon="9.304370231498442"><ele>489.5</ele><time>2026-03-28T12:28:28.999Z</time></trkpt><trkpt lat="44.682773178559074" lon="9.304206625664754"><ele>490.0</ele><time>2026-03-28T12:28:29.999Z</time></trkpt><trkpt lat="44.682710560639485" lon="9.304073100712014"><ele>490.5</ele><time>2026-03-28T12:28:30.999Z</time></trkpt><trkpt lat="44.68262996338159" lon="9.303970332001281"><ele>491.0</ele><time>2026-03-28T12:28:31.999Z</time></trkpt><trkpt lat="44.682528481293616" lon="9.303912694585188"><ele>493.0</ele><time>2026-03-28T12:28:32.999Z</time></trkpt><trkpt lat="44.68241257451311" lon="9.303911418022182"><ele>495.0</ele><time>2026-03-28T12:28:33.999Z</time></trkpt><trkpt lat="44.682307231373" lon="9.30392172033947"><ele>497.0</ele><time>2026-03-28T12:28:34.999Z</time></trkpt><trkpt lat="44.68221857243394" lon="9.30394507593676"><ele>499.0</ele><time>2026-03-28T12:28:35.999Z</time></trkpt><trkpt lat="44.68214090771466" lon="9.303965535130782"><ele>501.0</ele><time>2026-03-28T12:28:36.999Z</time></trkpt><trkpt lat="44.68206914230609" lon="9.304000795396382"><ele>501.0</ele><time>2026-03-28T12:28:37.999Z</time></trkpt><trkpt lat="44.6820072931712" lon="9.304018392477994"><ele>501.0</ele><time>2026-03-28T12:28:38.999Z</time></trkpt><trkpt lat="44.68190475798605" lon="9.304024162594184"><ele>501.0</ele><time>2026-03-28T12:28:40.999Z</time></trkpt><trkpt lat="44.681833200391694" lon="9.304065304342142"><ele>501.0</ele><time>2026-03-28T12:28:42.999Z</time></trkpt><trkpt lat="44.68176834081012" lon="9.30407273318812"><ele>501.0</ele><time>2026-03-28T12:29:08.999Z</time></trkpt><trkpt lat="44.68169884452398" lon="9.3040746121327"><ele>501.0</ele><time>2026-03-28T12:29:13.999Z</time></trkpt><trkpt lat="44.68160872479775" lon="9.30409476101791"><ele>501.8333333333333</ele><time>2026-03-28T12:29:15.999Z</time></trkpt><trkpt lat="44.681484132242616" lon="9.304122467754844"><ele>502.66666666666663</ele><time>2026-03-28T12:29:18Z</time></trkpt><trkpt lat="44.6814149325082" lon="9.30415981819107"><ele>503.5</ele><time>2026-03-28T12:29:19Z</time></trkpt><trkpt lat="44.681340361923134" lon="9.304176360413726"><ele>504.3333333333333</ele><time>2026-03-28T12:29:20Z</time></trkpt><trkpt lat="44.68126089770991" lon="9.304188604026644"><ele>505.16666666666663</ele><time>2026-03-28T12:29:21Z</time></trkpt><trkpt lat="44.68118138696843" lon="9.304188968421808"><ele>506.0</ele><time>2026-03-28T12:29:22Z</time></trkpt><trkpt lat="44.681097133532646" lon="9.304173222496761"><ele>505.0</ele><time>2026-03-28T12:29:23Z</time></trkpt><trkpt lat="44.68101244974484" lon="9.304134108529697"><ele>504.0</ele><time>2026-03-28T12:29:24Z</time></trkpt><trkpt lat="44.68092893672283" lon="9.304083711000066"><ele>503.0</ele><time>2026-03-28T12:29:25Z</time></trkpt><trkpt lat="44.68084595260277" lon="9.304018431211606"><ele>502.0</ele><time>2026-03-28T12:29:26Z</time></trkpt><trkpt lat="44.68075739478911" lon="9.303931474462281"><ele>501.0</ele><time>2026-03-28T12:29:27Z</time></trkpt><trkpt lat="44.680666804182614" lon="9.303832819186233"><ele>501.0</ele><time>2026-03-28T12:29:28Z</time></trkpt><trkpt lat="44.68058059081832" lon="9.303732771986208"><ele>501.0</ele><time>2026-03-28T12:29:29Z</time></trkpt><trkpt lat="44.68049641027254" lon="9.303630553946645"><ele>501.0</ele><time>2026-03-28T12:29:30Z</time></trkpt><trkpt lat="44.68041106018625" lon="9.303530780964849"><ele>501.0</ele><time>2026-03-28T12:29:31Z</time></trkpt><trkpt lat="44.68032560617393" lon="9.303432858587838"><ele>501.0</ele><time>2026-03-28T12:29:32Z</time></trkpt><trkpt lat="44.680234071877834" lon="9.30334864352267"><ele>505.25</ele><time>2026-03-28T12:29:33Z</time></trkpt><trkpt lat="44.680136266913806" lon="9.303290992275887"><ele>509.5</ele><time>2026-03-28T12:29:34Z</time></trkpt><trkpt lat="44.680030839868415" lon="9.303298537752594"><ele>513.75</ele><time>2026-03-28T12:29:35Z</time></trkpt><trkpt lat="44.67992077901081" lon="9.303335314453053"><ele>518.0</ele><time>2026-03-28T12:29:36Z</time></trkpt><trkpt lat="44.67981175540885" lon="9.303420807868575"><ele>518.0</ele><time>2026-03-28T12:29:37Z</time></trkpt><trkpt lat="44.679708657236986" lon="9.303509922619547"><ele>518.0</ele><time>2026-03-28T12:29:38Z</time></trkpt><trkpt lat="44.67960329921007" lon="9.303604288774906"><ele>518.0</ele><time>2026-03-28T12:29:39Z</time></trkpt><trkpt lat="44.679493885787" lon="9.303691891047672"><ele>518.0</ele><time>2026-03-28T12:29:40Z</time></trkpt><trkpt lat="44.679380523803154" lon="9.303769438427155"><ele>515.5</ele><time>2026-03-28T12:29:41Z</time></trkpt><trkpt lat="44.67925353047819" lon="9.303794040953742"><ele>513.0</ele><time>2026-03-28T12:29:42Z</time></trkpt><trkpt lat="44.67912318307749" lon="9.303804804011019"><ele>510.5</ele><time>2026-03-28T12:29:43Z</time></trkpt><trkpt lat="44.678995880118904" lon="9.303821343211231"><ele>508.0</ele><time>2026-03-28T12:29:44Z</time></trkpt><trkpt lat="44.678870937400326" lon="9.303854929067578"><ele>508.0</ele><time>2026-03-28T12:29:45Z</time></trkpt><trkpt lat="44.678747682433425" lon="9.30390742532196"><ele>508.0</ele><time>2026-03-28T12:29:46Z</time></trkpt><trkpt lat="44.67862605561742" lon="9.303976774947605"><ele>508.0</ele><time>2026-03-28T12:29:47Z</time></trkpt><trkpt lat="44.67851513572439" lon="9.304070407561996"><ele>508.0</ele><time>2026-03-28T12:29:48Z</time></trkpt><trkpt lat="44.67840975737987" lon="9.304176811899199"><ele>510.4</ele><time>2026-03-28T12:29:49Z</time></trkpt><trkpt lat="44.67834263843047" lon="9.304332577643375"><ele>512.8</ele><time>2026-03-28T12:29:50Z</time></trkpt><trkpt lat="44.678293133654414" lon="9.304478628776545"><ele>515.2</ele><time>2026-03-28T12:29:51Z</time></trkpt><trkpt lat="44.6782457568391" lon="9.304604544264373"><ele>517.6</ele><time>2026-03-28T12:29:52Z</time></trkpt><trkpt lat="44.67818653810713" lon="9.304707198926673"><ele>520.0</ele><time>2026-03-28T12:29:53Z</time></trkpt><trkpt lat="44.67808231124932" lon="9.304750938388334"><ele>522.2</ele><time>2026-03-28T12:29:54Z</time></trkpt><trkpt lat="44.67797263172738" lon="9.30476281044282"><ele>524.4</ele><time>2026-03-28T12:29:55Z</time></trkpt><trkpt lat="44.6778740585042" lon="9.304818619909154"><ele>526.6</ele><time>2026-03-28T12:29:56Z</time></trkpt><trkpt lat="44.67777558467098" lon="9.30490318313764"><ele>528.8</ele><time>2026-03-28T12:29:57Z</time></trkpt><trkpt lat="44.6777002658259" lon="9.305014471575296"><ele>531.0</ele><time>2026-03-28T12:29:58Z</time></trkpt><trkpt lat="44.677629335858065" lon="9.305093461084123"><ele>531.0</ele><time>2026-03-28T12:29:59Z</time></trkpt><trkpt lat="44.677533739528734" lon="9.305161834365347"><ele>531.0</ele><time>2026-03-28T12:30:00Z</time></trkpt><trkpt lat="44.67741664725662" lon="9.305170326965285"><ele>531.0</ele><time>2026-03-28T12:30:01Z</time></trkpt><trkpt lat="44.67729721200035" lon="9.305183050495994"><ele>531.0</ele><time>2026-03-28T12:30:02Z</time></trkpt><trkpt lat="44.67717405013627" lon="9.305211987132223"><ele>531.0</ele><time>2026-03-28T12:30:03Z</time></trkpt><trkpt lat="44.677043123295256" lon="9.305237747371685"><ele>531.0</ele><time>2026-03-28T12:30:04Z</time></trkpt><trkpt lat="44.676906807615076" lon="9.305259507575231"><ele>531.0</ele><time>2026-03-28T12:30:05Z</time></trkpt><trkpt lat="44.67677055723006" lon="9.305283249064724"><ele>531.0</ele><time>2026-03-28T12:30:06Z</time></trkpt><trkpt lat="44.67662776070286" lon="9.305307192095704"><ele>530.75</ele><time>2026-03-28T12:30:07Z</time></trkpt><trkpt lat="44.67648276218085" lon="9.30532742351399"><ele>530.5</ele><time>2026-03-28T12:30:08Z</time></trkpt><trkpt lat="44.67633959518348" lon="9.305352470924444"><ele>530.25</ele><time>2026-03-28T12:30:09Z</time></trkpt><trkpt lat="44.67621100025843" lon="9.305384763141872"><ele>530.0</ele><time>2026-03-28T12:30:10Z</time></trkpt><trkpt lat="44.67608913340237" lon="9.305445698071837"><ele>532.0</ele><time>2026-03-28T12:30:11Z</time></trkpt><trkpt lat="44.675958108256715" lon="9.305519662287033"><ele>534.0</ele><time>2026-03-28T12:30:12Z</time></trkpt><trkpt lat="44.675850885791036" lon="9.305660802524537"><ele>536.0</ele><time>2026-03-28T12:30:13Z</time></trkpt><trkpt lat="44.67576651153339" lon="9.305836549881082"><ele>538.0</ele><time>2026-03-28T12:30:14Z</time></trkpt><trkpt lat="44.67569121097965" lon="9.30601023103015"><ele>538.0</ele><time>2026-03-28T12:30:15Z</time></trkpt><trkpt lat="44.67562832736788" lon="9.306180981095986"><ele>538.0</ele><time>2026-03-28T12:30:15.999Z</time></trkpt><trkpt lat="44.67559557226393" lon="9.306386850956159"><ele>538.0</ele><time>2026-03-28T12:30:16.999Z</time></trkpt><trkpt lat="44.67560692094444" lon="9.306598289418622"><ele>538.0</ele><time>2026-03-28T12:30:17.999Z</time></trkpt><trkpt lat="44.6756195141237" lon="9.30677286328251"><ele>540.8</ele><time>2026-03-28T12:30:18.999Z</time></trkpt><trkpt lat="44.67561181143721" lon="9.306883665260177"><ele>543.5999999999999</ele><time>2026-03-28T12:30:19.999Z</time></trkpt><trkpt lat="44.67558489263625" lon="9.306968563674845"><ele>546.4000000000001</ele><time>2026-03-28T12:30:20.999Z</time></trkpt><trkpt lat="44.67549519138357" lon="9.307016327091898"><ele>549.2</ele><time>2026-03-28T12:30:21.999Z</time></trkpt><trkpt lat="44.67539963931673" lon="9.307096714799375"><ele>552.0</ele><time>2026-03-28T12:30:22.999Z</time></trkpt><trkpt lat="44.67531277056117" lon="9.307187986809824"><ele>545.75</ele><time>2026-03-28T12:30:23.999Z</time></trkpt><trkpt lat="44.67524465531347" lon="9.307311399329304"><ele>539.5</ele><time>2026-03-28T12:30:24.999Z</time></trkpt><trkpt lat="44.67521814773968" lon="9.307492450685642"><ele>533.25</ele><time>2026-03-28T12:30:25.999Z</time></trkpt><trkpt lat="44.67522444836565" lon="9.307682490772033"><ele>527.0</ele><time>2026-03-28T12:30:26.999Z</time></trkpt><trkpt lat="44.67525464878117" lon="9.307871900229374"><ele>535.25</ele><time>2026-03-28T12:30:27.999Z</time></trkpt><trkpt lat="44.675299725323185" lon="9.308053982168056"><ele>543.5</ele><time>2026-03-28T12:30:28.999Z</time></trkpt><trkpt lat="44.67534286243027" lon="9.308234544517017"><ele>551.75</ele><time>2026-03-28T12:30:29.999Z</time></trkpt><trkpt lat="44.67538951999116" lon="9.30839642369582"><ele>560.0</ele><time>2026-03-28T12:30:30.999Z</time></trkpt><trkpt lat="44.67544033057965" lon="9.30853817778828"><ele>560.2857142857143</ele><time>2026-03-28T12:30:31.999Z</time></trkpt><trkpt lat="44.675482867660556" lon="9.308651460304176"><ele>560.5714285714286</ele><time>2026-03-28T12:30:32.999Z</time></trkpt><trkpt lat="44.675491083917834" lon="9.308741039474231"><ele>560.8571428571429</ele><time>2026-03-28T12:30:33.999Z</time></trkpt><trkpt lat="44.675458823894566" lon="9.308822804704127"><ele>561.1428571428571</ele><time>2026-03-28T12:30:34.999Z</time></trkpt><trkpt lat="44.67540911542362" lon="9.308881118056703"><ele>561.4285714285714</ele><time>2026-03-28T12:30:35.999Z</time></trkpt><trkpt lat="44.675328546493766" lon="9.308958516812712"><ele>561.7142857142858</ele><time>2026-03-28T12:30:37.999Z</time></trkpt><trkpt lat="44.67526789524656" lon="9.308989032046156"><ele>562.0</ele><time>2026-03-28T12:30:39.999Z</time></trkpt><trkpt lat="44.67520468061991" lon="9.309076011673962"><ele>559.8333333333334</ele><time>2026-03-28T12:31:48Z</time></trkpt><trkpt lat="44.675114775537246" lon="9.309154353137453"><ele>557.6666666666667</ele><time>2026-03-28T12:31:50Z</time></trkpt><trkpt lat="44.6750490998544" lon="9.309181610436852"><ele>555.5</ele><time>2026-03-28T12:31:51Z</time></trkpt><trkpt lat="44.674990486405044" lon="9.309228784130331"><ele>553.3333333333334</ele><time>2026-03-28T12:31:52Z</time></trkpt><trkpt lat="44.67492956627094" lon="9.309274620205827"><ele>551.1666666666666</ele><time>2026-03-28T12:31:53Z</time></trkpt><trkpt lat="44.67485500526785" lon="9.309292292638542"><ele>549.0</ele><time>2026-03-28T12:31:54Z</time></trkpt><trkpt lat="44.67478233139823" lon="9.309236153348406"><ele>549.0</ele><time>2026-03-28T12:31:55Z</time></trkpt><trkpt lat="44.67472661209263" lon="9.309135547440164"><ele>549.0</ele><time>2026-03-28T12:31:56Z</time></trkpt><trkpt lat="44.67466772286486" lon="9.309042406851963"><ele>549.0</ele><time>2026-03-28T12:31:57Z</time></trkpt><trkpt lat="44.67458847592835" lon="9.308976582910761"><ele>549.0</ele><time>2026-03-28T12:31:58Z</time></trkpt><trkpt lat="44.674497116606354" lon="9.308946542251034"><ele>549.0</ele><time>2026-03-28T12:31:59Z</time></trkpt><trkpt lat="44.67439756674111" lon="9.30895610238664"><ele>551.0</ele><time>2026-03-28T12:32:00Z</time></trkpt><trkpt lat="44.67429714116045" lon="9.308999897653322"><ele>553.0</ele><time>2026-03-28T12:32:01Z</time></trkpt><trkpt lat="44.67418864297034" lon="9.30902617701221"><ele>555.0</ele><time>2026-03-28T12:32:02Z</time></trkpt><trkpt lat="44.674071907622015" lon="9.309011611800502"><ele>557.0</ele><time>2026-03-28T12:32:03Z</time></trkpt><trkpt lat="44.673958849463794" lon="9.308945804436581"><ele>550.5</ele><time>2026-03-28T12:32:04Z</time></trkpt><trkpt lat="44.67385517396003" lon="9.308843408860241"><ele>544.0</ele><time>2026-03-28T12:32:05Z</time></trkpt><trkpt lat="44.67376366491182" lon="9.30871720660718"><ele>537.5</ele><time>2026-03-28T12:32:06Z</time></trkpt><trkpt lat="44.67367127742001" lon="9.308604693233505"><ele>531.0</ele><time>2026-03-28T12:32:07Z</time></trkpt><trkpt lat="44.67356650479587" lon="9.308528425393622"><ele>531.0</ele><time>2026-03-28T12:32:08Z</time></trkpt><trkpt lat="44.67347312522591" lon="9.308461592932359"><ele>531.0</ele><time>2026-03-28T12:32:09Z</time></trkpt><trkpt lat="44.6733798710814" lon="9.308432221760542"><ele>531.0</ele><time>2026-03-28T12:32:10Z</time></trkpt><trkpt lat="44.6732822125715" lon="9.308444412914078"><ele>531.0</ele><time>2026-03-28T12:32:11Z</time></trkpt><trkpt lat="44.673180519517" lon="9.308478767751089"><ele>531.0</ele><time>2026-03-28T12:32:12Z</time></trkpt><trkpt lat="44.67309238489552" lon="9.308582749785531"><ele>531.0</ele><time>2026-03-28T12:32:13Z</time></trkpt><trkpt lat="44.67301995918495" lon="9.308710906196497"><ele>531.0</ele><time>2026-03-28T12:32:14Z</time></trkpt><trkpt lat="44.672950616757305" lon="9.308848714458197"><ele>531.0</ele><time>2026-03-28T12:32:15Z</time></trkpt><trkpt lat="44.67288004889645" lon="9.308988553154396"><ele>531.0</ele><time>2026-03-28T12:32:16Z</time></trkpt><trkpt lat="44.672805676192645" lon="9.309119986731579"><ele>533.5</ele><time>2026-03-28T12:32:17Z</time></trkpt><trkpt lat="44.67270889902756" lon="9.309229989170312"><ele>536.0</ele><time>2026-03-28T12:32:17.999Z</time></trkpt><trkpt lat="44.67259994413156" lon="9.309318723733039"><ele>538.5</ele><time>2026-03-28T12:32:18.999Z</time></trkpt><trkpt lat="44.67248715040713" lon="9.309401521588738"><ele>541.0</ele><time>2026-03-28T12:32:19.999Z</time></trkpt><trkpt lat="44.67237270788541" lon="9.309486542944803"><ele>541.0</ele><time>2026-03-28T12:32:20.999Z</time></trkpt><trkpt lat="44.67226179351117" lon="9.309568260147541"><ele>541.0</ele><time>2026-03-28T12:32:21.999Z</time></trkpt><trkpt lat="44.672164766317586" lon="9.309652493878"><ele>541.0</ele><time>2026-03-28T12:32:22.999Z</time></trkpt><trkpt lat="44.672045430578834" lon="9.309662339303554"><ele>541.0</ele><time>2026-03-28T12:32:23.999Z</time></trkpt><trkpt lat="44.67192082219523" lon="9.309650498216845"><ele>538.0</ele><time>2026-03-28T12:32:24.999Z</time></trkpt><trkpt lat="44.67179322933167" lon="9.309630806656177"><ele>535.0</ele><time>2026-03-28T12:32:25.999Z</time></trkpt><trkpt lat="44.67166192046554" lon="9.309646863613326"><ele>532.0</ele><time>2026-03-28T12:32:26.999Z</time></trkpt><trkpt lat="44.67154947863131" lon="9.309667839245122"><ele>529.0</ele><time>2026-03-28T12:32:27.999Z</time></trkpt><trkpt lat="44.671434933760935" lon="9.309611486482337"><ele>529.0</ele><time>2026-03-28T12:32:28.999Z</time></trkpt><trkpt lat="44.67133218733814" lon="9.309513587490084"><ele>529.0</ele><time>2026-03-28T12:32:29.999Z</time></trkpt><trkpt lat="44.67123923896538" lon="9.309428397215328"><ele>529.0</ele><time>2026-03-28T12:32:30.999Z</time></trkpt><trkpt lat="44.67114445430923" lon="9.30937993839733"><ele>529.0</ele><time>2026-03-28T12:32:31.999Z</time></trkpt><trkpt lat="44.671048197271745" lon="9.309392828870177"><ele>529.0</ele><time>2026-03-28T12:32:32.999Z</time></trkpt><trkpt lat="44.67094123821518" lon="9.309440998082732"><ele>529.75</ele><time>2026-03-28T12:32:33.999Z</time></trkpt><trkpt lat="44.670847599828264" lon="9.309536484514284"><ele>530.5</ele><time>2026-03-28T12:32:34.999Z</time></trkpt><trkpt lat="44.67072973074604" lon="9.309590692842319"><ele>531.25</ele><time>2026-03-28T12:32:35.999Z</time></trkpt><trkpt lat="44.670591457187136" lon="9.309593853588705"><ele>532.0</ele><time>2026-03-28T12:32:36.999Z</time></trkpt><trkpt lat="44.67044861057979" lon="9.309602458354265"><ele>532.0</ele><time>2026-03-28T12:32:37.999Z</time></trkpt><trkpt lat="44.670307314458746" lon="9.309554924956386"><ele>532.0</ele><time>2026-03-28T12:32:38.999Z</time></trkpt><trkpt lat="44.67018516497548" lon="9.309468569512727"><ele>532.0</ele><time>2026-03-28T12:32:39.999Z</time></trkpt><trkpt lat="44.67007781150717" lon="9.309399361944187"><ele>532.0</ele><time>2026-03-28T12:32:40.999Z</time></trkpt><trkpt lat="44.66996682604516" lon="9.309393148048892"><ele>530.25</ele><time>2026-03-28T12:32:41.999Z</time></trkpt><trkpt lat="44.66985881259723" lon="9.30946198593819"><ele>528.5</ele><time>2026-03-28T12:32:42.999Z</time></trkpt><trkpt lat="44.66974777737061" lon="9.309569123603175"><ele>526.75</ele><time>2026-03-28T12:32:43.999Z</time></trkpt><trkpt lat="44.66966770887021" lon="9.309727927982827"><ele>525.0</ele><time>2026-03-28T12:32:44.999Z</time></trkpt><trkpt lat="44.66963523864924" lon="9.309931532878334"><ele>532.25</ele><time>2026-03-28T12:32:45.999Z</time></trkpt><trkpt lat="44.66965294237447" lon="9.310151596443013"><ele>539.5</ele><time>2026-03-28T12:32:46.999Z</time></trkpt><trkpt lat="44.669679750555225" lon="9.310355497492251"><ele>546.75</ele><time>2026-03-28T12:32:47.999Z</time></trkpt><trkpt lat="44.66969701488156" lon="9.31049891365734"><ele>554.0</ele><time>2026-03-28T12:32:48.999Z</time></trkpt><trkpt lat="44.66970075357221" lon="9.310622312568146"><ele>551.0</ele><time>2026-03-28T12:32:49.999Z</time></trkpt><trkpt lat="44.669662401284995" lon="9.310712855350955"><ele>548.0</ele><time>2026-03-28T12:32:50.999Z</time></trkpt><trkpt lat="44.669600134242565" lon="9.310794030329319"><ele>545.0</ele><time>2026-03-28T12:32:51.999Z</time></trkpt><trkpt lat="44.669483239356005" lon="9.310809368289718"><ele>542.0</ele><time>2026-03-28T12:32:52.999Z</time></trkpt><trkpt lat="44.66935370248032" lon="9.310828848107878"><ele>539.0</ele><time>2026-03-28T12:32:53.999Z</time></trkpt><trkpt lat="44.66922123839539" lon="9.310859264427357"><ele>539.0</ele><time>2026-03-28T12:32:54.999Z</time></trkpt><trkpt lat="44.669111660402976" lon="9.310921079712626"><ele>539.0</ele><time>2026-03-28T12:32:55.999Z</time></trkpt><trkpt lat="44.66902955525604" lon="9.311037531771118"><ele>539.0</ele><time>2026-03-28T12:32:56.999Z</time></trkpt><trkpt lat="44.668962088459445" lon="9.311187157338262"><ele>539.0</ele><time>2026-03-28T12:32:57.999Z</time></trkpt><trkpt lat="44.668930970381446" lon="9.311377325993437"><ele>545.25</ele><time>2026-03-28T12:32:58.999Z</time></trkpt><trkpt lat="44.668899222398615" lon="9.311577253923906"><ele>551.5</ele><time>2026-03-28T12:32:59.999Z</time></trkpt><trkpt lat="44.66887103127293" lon="9.31175188775196"><ele>557.75</ele><time>2026-03-28T12:33:00.999Z</time></trkpt><trkpt lat="44.66884007434167" lon="9.31188597738798"><ele>564.0</ele><time>2026-03-28T12:33:01.999Z</time></trkpt><trkpt lat="44.66879538960161" lon="9.311992991158881"><ele>564.0</ele><time>2026-03-28T12:33:02.999Z</time></trkpt><trkpt lat="44.66867677594821" lon="9.312060777696587"><ele>564.0</ele><time>2026-03-28T12:33:03.999Z</time></trkpt><trkpt lat="44.66853237607541" lon="9.312074682595398"><ele>564.0</ele><time>2026-03-28T12:33:04.999Z</time></trkpt><trkpt lat="44.668383727462036" lon="9.312066405264614"><ele>564.0</ele><time>2026-03-28T12:33:05.999Z</time></trkpt><trkpt lat="44.668232527639915" lon="9.312029646564831"><ele>559.0</ele><time>2026-03-28T12:33:06.999Z</time></trkpt><trkpt lat="44.66811090221551" lon="9.311928973839068"><ele>554.0</ele><time>2026-03-28T12:33:07.999Z</time></trkpt><trkpt lat="44.668027264432325" lon="9.31180113048825"><ele>549.0</ele><time>2026-03-28T12:33:08.999Z</time></trkpt><trkpt lat="44.66793153107429" lon="9.311718204968392"><ele>544.0</ele><time>2026-03-28T12:33:09.999Z</time></trkpt><trkpt lat="44.66783005134083" lon="9.311713155989596"><ele>540.5</ele><time>2026-03-28T12:33:10.999Z</time></trkpt><trkpt lat="44.667733898380575" lon="9.311756569331084"><ele>537.0</ele><time>2026-03-28T12:33:11.999Z</time></trkpt><trkpt lat="44.66765206119131" lon="9.311876859156305"><ele>533.5</ele><time>2026-03-28T12:33:12.999Z</time></trkpt><trkpt lat="44.66758705767661" lon="9.312035124172604"><ele>530.0</ele><time>2026-03-28T12:33:13.999Z</time></trkpt><trkpt lat="44.667514349995926" lon="9.312195625814889"><ele>537.0</ele><time>2026-03-28T12:33:14.999Z</time></trkpt><trkpt lat="44.667439686739336" lon="9.31236044474501"><ele>544.0</ele><time>2026-03-28T12:33:15.999Z</time></trkpt><trkpt lat="44.667371461060675" lon="9.312512995563132"><ele>551.0</ele><time>2026-03-28T12:33:16.999Z</time></trkpt><trkpt lat="44.66730656212544" lon="9.312648675866418"><ele>558.0</ele><time>2026-03-28T12:33:17.999Z</time></trkpt><trkpt lat="44.66723915693179" lon="9.312774405196475"><ele>558.0</ele><time>2026-03-28T12:33:18.999Z</time></trkpt><trkpt lat="44.66712746242799" lon="9.312838441523892"><ele>558.0</ele><time>2026-03-28T12:33:19.999Z</time></trkpt><trkpt lat="44.66700453511713" lon="9.312875748491027"><ele>558.0</ele><time>2026-03-28T12:33:20.999Z</time></trkpt><trkpt lat="44.666877678416874" lon="9.312910857840846"><ele>558.0</ele><time>2026-03-28T12:33:21.999Z</time></trkpt><trkpt lat="44.66674533666545" lon="9.312948483778047"><ele>554.1999999999999</ele><time>2026-03-28T12:33:22.999Z</time></trkpt><trkpt lat="44.66661977196317" lon="9.312981881166154"><ele>550.4</ele><time>2026-03-28T12:33:23.999Z</time></trkpt><trkpt lat="44.666511011738876" lon="9.313023686411674"><ele>546.5999999999999</ele><time>2026-03-28T12:33:24.999Z</time></trkpt><trkpt lat="44.66640986878138" lon="9.3130569848501"><ele>542.8</ele><time>2026-03-28T12:33:25.999Z</time></trkpt><trkpt lat="44.666309158826245" lon="9.313055930292569"><ele>539.0</ele><time>2026-03-28T12:33:26.999Z</time></trkpt><trkpt lat="44.66621258322897" lon="9.312986737897972"><ele>539.0</ele><time>2026-03-28T12:33:27.999Z</time></trkpt><trkpt lat="44.66615204783643" lon="9.312865453730213"><ele>539.0</ele><time>2026-03-28T12:33:28.999Z</time></trkpt><trkpt lat="44.66610923059261" lon="9.312717183649074"><ele>539.0</ele><time>2026-03-28T12:33:30Z</time></trkpt><trkpt lat="44.66603079023219" lon="9.312596654098483"><ele>539.0</ele><time>2026-03-28T12:33:31Z</time></trkpt><trkpt lat="44.66591057366429" lon="9.312528185498017"><ele>539.0</ele><time>2026-03-28T12:33:32Z</time></trkpt><trkpt lat="44.66577739750719" lon="9.312472671393147"><ele>539.0</ele><time>2026-03-28T12:33:33Z</time></trkpt><trkpt lat="44.66566920588131" lon="9.312372537357126"><ele>539.0</ele><time>2026-03-28T12:33:34Z</time></trkpt><trkpt lat="44.66557844769708" lon="9.31223043054604"><ele>539.0</ele><time>2026-03-28T12:33:35Z</time></trkpt><trkpt lat="44.665521894443096" lon="9.312054520101256"><ele>539.0</ele><time>2026-03-28T12:33:36Z</time></trkpt><trkpt lat="44.66547308376141" lon="9.31187141283845"><ele>539.0</ele><time>2026-03-28T12:33:37Z</time></trkpt><trkpt lat="44.66539585613045" lon="9.311710375603598"><ele>539.0</ele><time>2026-03-28T12:33:38Z</time></trkpt><trkpt lat="44.66529326153094" lon="9.311564525954251"><ele>539.0</ele><time>2026-03-28T12:33:39Z</time></trkpt><trkpt lat="44.66518242492803" lon="9.311421445097997"><ele>541.0</ele><time>2026-03-28T12:33:40Z</time></trkpt><trkpt lat="44.66506059637498" lon="9.311299986367816"><ele>543.0</ele><time>2026-03-28T12:33:41Z</time></trkpt><trkpt lat="44.66492507254624" lon="9.311212256096049"><ele>545.0</ele><time>2026-03-28T12:33:42Z</time></trkpt><trkpt lat="44.664781765876945" lon="9.31116940199828"><ele>547.0</ele><time>2026-03-28T12:33:43Z</time></trkpt><trkpt lat="44.664639141587216" lon="9.311171866789557"><ele>547.0</ele><time>2026-03-28T12:33:44Z</time></trkpt><trkpt lat="44.66449244987282" lon="9.311195772960533"><ele>547.0</ele><time>2026-03-28T12:33:45Z</time></trkpt><trkpt lat="44.66433934742683" lon="9.311236171526987"><ele>547.0</ele><time>2026-03-28T12:33:46Z</time></trkpt><trkpt lat="44.664193547103885" lon="9.311285522970211"><ele>545.5</ele><time>2026-03-28T12:33:47Z</time></trkpt><trkpt lat="44.664061967164066" lon="9.311343919664324"><ele>544.0</ele><time>2026-03-28T12:33:48Z</time></trkpt><trkpt lat="44.663935079658" lon="9.311418304078513"><ele>542.5</ele><time>2026-03-28T12:33:49Z</time></trkpt><trkpt lat="44.66382701660273" lon="9.311565377673421"><ele>541.0</ele><time>2026-03-28T12:33:50Z</time></trkpt><trkpt lat="44.66371817888636" lon="9.311706718510179"><ele>541.0</ele><time>2026-03-28T12:33:51Z</time></trkpt><trkpt lat="44.66359404193623" lon="9.311834389725988"><ele>541.0</ele><time>2026-03-28T12:33:52Z</time></trkpt><trkpt lat="44.66345151742297" lon="9.311933508238114"><ele>541.0</ele><time>2026-03-28T12:33:53Z</time></trkpt><trkpt lat="44.66330959846776" lon="9.312019063469402"><ele>541.0</ele><time>2026-03-28T12:33:54Z</time></trkpt><trkpt lat="44.663174873080955" lon="9.312105176254239"><ele>541.0</ele><time>2026-03-28T12:33:55Z</time></trkpt><trkpt lat="44.66304236535317" lon="9.31220556712302"><ele>541.0</ele><time>2026-03-28T12:33:56Z</time></trkpt><trkpt lat="44.662920160962784" lon="9.312326643124367"><ele>541.0</ele><time>2026-03-28T12:33:57Z</time></trkpt><trkpt lat="44.6628080970823" lon="9.312444750081468"><ele>540.75</ele><time>2026-03-28T12:33:58Z</time></trkpt><trkpt lat="44.66270099351186" lon="9.312553622981694"><ele>540.5</ele><time>2026-03-28T12:33:59Z</time></trkpt><trkpt lat="44.6625982970819" lon="9.3126578666791"><ele>540.25</ele><time>2026-03-28T12:34:00Z</time></trkpt><trkpt lat="44.662536174641" lon="9.312819863915502"><ele>540.0</ele><time>2026-03-28T12:34:01Z</time></trkpt><trkpt lat="44.662498325512246" lon="9.31299023882319"><ele>545.25</ele><time>2026-03-28T12:34:02Z</time></trkpt><trkpt lat="44.662435125726375" lon="9.313136142860426"><ele>550.5</ele><time>2026-03-28T12:34:03Z</time></trkpt><trkpt lat="44.662331891208204" lon="9.313244681728225"><ele>555.75</ele><time>2026-03-28T12:34:04Z</time></trkpt><trkpt lat="44.662214050821575" lon="9.313329271238647"><ele>561.0</ele><time>2026-03-28T12:34:05Z</time></trkpt><trkpt lat="44.66210903083699" lon="9.313399943512314"><ele>561.0</ele><time>2026-03-28T12:34:06Z</time></trkpt><trkpt lat="44.66200750095673" lon="9.31343683321613"><ele>561.0</ele><time>2026-03-28T12:34:07Z</time></trkpt><trkpt lat="44.661909645117056" lon="9.313383994545276"><ele>561.0</ele><time>2026-03-28T12:34:08Z</time></trkpt><trkpt lat="44.66183334590077" lon="9.313277464301784"><ele>561.0</ele><time>2026-03-28T12:34:09Z</time></trkpt><trkpt lat="44.661782426464754" lon="9.31313015300166"><ele>561.0</ele><time>2026-03-28T12:34:10Z</time></trkpt><trkpt lat="44.66173502757876" lon="9.312960239432574"><ele>556.0</ele><time>2026-03-28T12:34:11Z</time></trkpt><trkpt lat="44.66167369031183" lon="9.312778437122473"><ele>551.0</ele><time>2026-03-28T12:34:12Z</time></trkpt><trkpt lat="44.6616087002152" lon="9.312584538212887"><ele>546.0</ele><time>2026-03-28T12:34:13Z</time></trkpt><trkpt lat="44.66153636404497" lon="9.31239163445322"><ele>543.0</ele><time>2026-03-28T12:34:14Z</time></trkpt><trkpt lat="44.661461471405644" lon="9.312187859387098"><ele>540.0</ele><time>2026-03-28T12:34:15Z</time></trkpt><trkpt lat="44.6613864877965" lon="9.311973528178015"><ele>537.0</ele><time>2026-03-28T12:34:16Z</time></trkpt><trkpt lat="44.66131164388352" lon="9.311747225295402"><ele>537.0</ele><time>2026-03-28T12:34:17Z</time></trkpt><trkpt lat="44.661246529588695" lon="9.31150824430851"><ele>537.0</ele><time>2026-03-28T12:34:18Z</time></trkpt><trkpt lat="44.66119945712173" lon="9.311258546671567"><ele>537.0</ele><time>2026-03-28T12:34:19Z</time></trkpt><trkpt lat="44.66117160792539" lon="9.311008856264795"><ele>536.0</ele><time>2026-03-28T12:34:20Z</time></trkpt><trkpt lat="44.661146642272726" lon="9.310773958697519"><ele>535.0</ele><time>2026-03-28T12:34:21Z</time></trkpt><trkpt lat="44.66111469460042" lon="9.310549824455263"><ele>534.0</ele><time>2026-03-28T12:34:22Z</time></trkpt><trkpt lat="44.66107554326352" lon="9.310342021588136"><ele>534.0</ele><time>2026-03-28T12:34:23Z</time></trkpt><trkpt lat="44.661020533481405" lon="9.310150805797187"><ele>534.0</ele><time>2026-03-28T12:34:24Z</time></trkpt><trkpt lat="44.660958110567364" lon="9.31000596442486"><ele>534.0</ele><time>2026-03-28T12:34:24.999Z</time></trkpt><trkpt lat="44.660867540553085" lon="9.309917466543284"><ele>534.0</ele><time>2026-03-28T12:34:25.999Z</time></trkpt><trkpt lat="44.66075804890212" lon="9.30991000989615"><ele>534.0</ele><time>2026-03-28T12:34:26.999Z</time></trkpt><trkpt lat="44.660657172401805" lon="9.309985411336994"><ele>534.0</ele><time>2026-03-28T12:34:27.999Z</time></trkpt><trkpt lat="44.66057132317767" lon="9.31011240145598"><ele>534.0</ele><time>2026-03-28T12:34:28.999Z</time></trkpt><trkpt lat="44.66052218000167" lon="9.310286597621406"><ele>534.0</ele><time>2026-03-28T12:34:29.999Z</time></trkpt><trkpt lat="44.660477657074225" lon="9.310455619910796"><ele>534.0</ele><time>2026-03-28T12:34:30.999Z</time></trkpt><trkpt lat="44.660421965700706" lon="9.31058867734043"><ele>534.0</ele><time>2026-03-28T12:34:31.999Z</time></trkpt><trkpt lat="44.66033038626743" lon="9.310662147955322"><ele>534.0</ele><time>2026-03-28T12:34:32.999Z</time></trkpt><trkpt lat="44.660210793776066" lon="9.310723552392114"><ele>534.0</ele><time>2026-03-28T12:34:33.999Z</time></trkpt><trkpt lat="44.66007949448651" lon="9.310810952087175"><ele>534.0</ele><time>2026-03-28T12:34:34.999Z</time></trkpt><trkpt lat="44.659948148194516" lon="9.310928869181467"><ele>534.0</ele><time>2026-03-28T12:34:35.999Z</time></trkpt><trkpt lat="44.65981596621786" lon="9.311067852489881"><ele>534.0</ele><time>2026-03-28T12:34:36.999Z</time></trkpt><trkpt lat="44.65968754442666" lon="9.311226275188243"><ele>534.0</ele><time>2026-03-28T12:34:37.999Z</time></trkpt><trkpt lat="44.659559202777366" lon="9.311378895553869"><ele>534.0</ele><time>2026-03-28T12:34:38.999Z</time></trkpt><trkpt lat="44.65941516180077" lon="9.311515686243682"><ele>534.0</ele><time>2026-03-28T12:34:39.999Z</time></trkpt><trkpt lat="44.659253573212716" lon="9.31160972544545"><ele>534.0</ele><time>2026-03-28T12:34:40.999Z</time></trkpt><trkpt lat="44.659083265752244" lon="9.31166974498289"><ele>534.0</ele><time>2026-03-28T12:34:41.999Z</time></trkpt><trkpt lat="44.658930330577405" lon="9.31178902781415"><ele>534.0</ele><time>2026-03-28T12:34:42.999Z</time></trkpt><trkpt lat="44.65877426718404" lon="9.31187117928174"><ele>534.0</ele><time>2026-03-28T12:34:43.999Z</time></trkpt><trkpt lat="44.65861923177332" lon="9.311977674079952"><ele>534.0</ele><time>2026-03-28T12:34:44.999Z</time></trkpt><trkpt lat="44.65846242132241" lon="9.312085388060611"><ele>534.0</ele><time>2026-03-28T12:34:45.999Z</time></trkpt><trkpt lat="44.658306630301134" lon="9.312193028519518"><ele>535.0</ele><time>2026-03-28T12:34:46.999Z</time></trkpt><trkpt lat="44.65815387216426" lon="9.312299158588155"><ele>536.0</ele><time>2026-03-28T12:34:47.999Z</time></trkpt><trkpt lat="44.65799931356551" lon="9.312406040034256"><ele>537.0</ele><time>2026-03-28T12:34:48.999Z</time></trkpt><trkpt lat="44.657849127685644" lon="9.31251725466213"><ele>533.0</ele><time>2026-03-28T12:34:49.999Z</time></trkpt><trkpt lat="44.65769581625206" lon="9.312617939704928"><ele>529.0</ele><time>2026-03-28T12:34:50.999Z</time></trkpt><trkpt lat="44.65753148209725" lon="9.312650318556237"><ele>525.0</ele><time>2026-03-28T12:34:51.999Z</time></trkpt><trkpt lat="44.65738402676566" lon="9.31270868120277"><ele>525.0</ele><time>2026-03-28T12:34:52.999Z</time></trkpt><trkpt lat="44.65725042156172" lon="9.312794530003693"><ele>525.0</ele><time>2026-03-28T12:34:53.999Z</time></trkpt><trkpt lat="44.65711862489475" lon="9.312867254986516"><ele>525.0</ele><time>2026-03-28T12:34:54.999Z</time></trkpt><trkpt lat="44.65699694921199" lon="9.31291674722322"><ele>525.0</ele><time>2026-03-28T12:34:55.999Z</time></trkpt><trkpt lat="44.6568843916938" lon="9.31291368462451"><ele>525.75</ele><time>2026-03-28T12:34:56.999Z</time></trkpt><trkpt lat="44.65678033336428" lon="9.31280788329907"><ele>526.5</ele><time>2026-03-28T12:34:57.999Z</time></trkpt><trkpt lat="44.6566882454213" lon="9.312668147512387"><ele>527.25</ele><time>2026-03-28T12:34:58.999Z</time></trkpt><trkpt lat="44.65659038880157" lon="9.31253422694166"><ele>528.0</ele><time>2026-03-28T12:34:59.999Z</time></trkpt><trkpt lat="44.6564929088702" lon="9.31240962340428"><ele>528.0</ele><time>2026-03-28T12:35:00.999Z</time></trkpt><trkpt lat="44.65640085393969" lon="9.312295184005315"><ele>528.0</ele><time>2026-03-28T12:35:01.999Z</time></trkpt><trkpt lat="44.65630353077981" lon="9.31221051205453"><ele>528.0</ele><time>2026-03-28T12:35:02.999Z</time></trkpt><trkpt lat="44.65620168671936" lon="9.312179429919436"><ele>528.0</ele><time>2026-03-28T12:35:03.999Z</time></trkpt><trkpt lat="44.656098261180944" lon="9.31221342746541"><ele>528.0</ele><time>2026-03-28T12:35:04.999Z</time></trkpt><trkpt lat="44.65598861436827" lon="9.312283965992986"><ele>528.0</ele><time>2026-03-28T12:35:05.999Z</time></trkpt><trkpt lat="44.65588107626612" lon="9.312381837421643"><ele>528.0</ele><time>2026-03-28T12:35:06.999Z</time></trkpt><trkpt lat="44.655766975940026" lon="9.312466558705493"><ele>528.0</ele><time>2026-03-28T12:35:07.999Z</time></trkpt><trkpt lat="44.6556422578517" lon="9.312515751417427"><ele>528.0</ele><time>2026-03-28T12:35:08.999Z</time></trkpt><trkpt lat="44.65551155523967" lon="9.31251174042908"><ele>528.0</ele><time>2026-03-28T12:35:09.999Z</time></trkpt><trkpt lat="44.65537126674244" lon="9.312487690716367"><ele>528.0</ele><time>2026-03-28T12:35:10.999Z</time></trkpt><trkpt lat="44.65522429445852" lon="9.312433970327808"><ele>528.0</ele><time>2026-03-28T12:35:11.999Z</time></trkpt><trkpt lat="44.655088980496274" lon="9.312340232524843"><ele>528.0</ele><time>2026-03-28T12:35:12.999Z</time></trkpt><trkpt lat="44.65497408076753" lon="9.312247570415188"><ele>527.5</ele><time>2026-03-28T12:35:13.999Z</time></trkpt><trkpt lat="44.65486611118756" lon="9.312183171426316"><ele>527.0</ele><time>2026-03-28T12:35:14.999Z</time></trkpt><trkpt lat="44.65475830522632" lon="9.312190966480934"><ele>526.5</ele><time>2026-03-28T12:35:15.999Z</time></trkpt><trkpt lat="44.65465429718897" lon="9.312267092474837"><ele>526.0</ele><time>2026-03-28T12:35:16.999Z</time></trkpt><trkpt lat="44.65453840930818" lon="9.312352619868816"><ele>523.25</ele><time>2026-03-28T12:35:17.999Z</time></trkpt><trkpt lat="44.65443880194406" lon="9.312494934678107"><ele>520.5</ele><time>2026-03-28T12:35:18.999Z</time></trkpt><trkpt lat="44.654356110685896" lon="9.31266566397421"><ele>517.75</ele><time>2026-03-28T12:35:19.999Z</time></trkpt><trkpt lat="44.65429270978841" lon="9.312836491614279"><ele>515.0</ele><time>2026-03-28T12:35:20.999Z</time></trkpt><trkpt lat="44.654209842149434" lon="9.312979224875013"><ele>516.25</ele><time>2026-03-28T12:35:21.999Z</time></trkpt><trkpt lat="44.654111299124835" lon="9.313097582053517"><ele>517.5</ele><time>2026-03-28T12:35:22.999Z</time></trkpt><trkpt lat="44.65402681754121" lon="9.313217120428654"><ele>518.75</ele><time>2026-03-28T12:35:23.999Z</time></trkpt><trkpt lat="44.6539431319515" lon="9.313316865391837"><ele>520.0</ele><time>2026-03-28T12:35:24.999Z</time></trkpt><trkpt lat="44.65391622016577" lon="9.313468610397358"><ele>520.0</ele><time>2026-03-28T12:35:25.999Z</time></trkpt><trkpt lat="44.653957769755145" lon="9.313637043532895"><ele>520.0</ele><time>2026-03-28T12:35:26.999Z</time></trkpt><trkpt lat="44.65406095030363" lon="9.313771521093022"><ele>520.0</ele><time>2026-03-28T12:35:27.999Z</time></trkpt><trkpt lat="44.65415138702308" lon="9.313902697715847"><ele>520.0</ele><time>2026-03-28T12:35:28.999Z</time></trkpt><trkpt lat="44.65424452165699" lon="9.314035305466101"><ele>518.5</ele><time>2026-03-28T12:35:29.999Z</time></trkpt><trkpt lat="44.654326632831044" lon="9.314162049483048"><ele>517.0</ele><time>2026-03-28T12:35:30.999Z</time></trkpt><trkpt lat="44.65439311654538" lon="9.314292171228029"><ele>515.5</ele><time>2026-03-28T12:35:31.999Z</time></trkpt><trkpt lat="44.654439912867055" lon="9.314445873116872"><ele>514.0</ele><time>2026-03-28T12:35:32.999Z</time></trkpt><trkpt lat="44.65444155342064" lon="9.314611513214977"><ele>514.5</ele><time>2026-03-28T12:35:33.999Z</time></trkpt><trkpt lat="44.65440169749943" lon="9.31475454416367"><ele>515.0</ele><time>2026-03-28T12:35:34.999Z</time></trkpt><trkpt lat="44.65433622978603" lon="9.314877805064468"><ele>515.5</ele><time>2026-03-28T12:35:36Z</time></trkpt><trkpt lat="44.654229928574196" lon="9.314933039945341"><ele>516.0</ele><time>2026-03-28T12:35:37Z</time></trkpt><trkpt lat="44.65410563295036" lon="9.3149764189655"><ele>516.0</ele><time>2026-03-28T12:35:38Z</time></trkpt><trkpt lat="44.653972836935075" lon="9.315028002551934"><ele>516.0</ele><time>2026-03-28T12:35:39Z</time></trkpt><trkpt lat="44.653834057738806" lon="9.315065988442221"><ele>516.0</ele><time>2026-03-28T12:35:40Z</time></trkpt><trkpt lat="44.65370032095223" lon="9.315095634604775"><ele>516.0</ele><time>2026-03-28T12:35:41Z</time></trkpt><trkpt lat="44.65359431383072" lon="9.315147576176166"><ele>515.0</ele><time>2026-03-28T12:35:42Z</time></trkpt><trkpt lat="44.65350753179453" lon="9.31523509446065"><ele>514.0</ele><time>2026-03-28T12:35:43Z</time></trkpt><trkpt lat="44.6534411332797" lon="9.315393140647876"><ele>513.0</ele><time>2026-03-28T12:35:44Z</time></trkpt><trkpt lat="44.65339087026668" lon="9.315564145660655"><ele>512.0</ele><time>2026-03-28T12:35:45Z</time></trkpt><trkpt lat="44.65332372366256" lon="9.31569915703468"><ele>512.0</ele><time>2026-03-28T12:35:46Z</time></trkpt><trkpt lat="44.65321471543449" lon="9.315777768579672"><ele>512.0</ele><time>2026-03-28T12:35:47Z</time></trkpt><trkpt lat="44.653087783352404" lon="9.315813053721989"><ele>512.0</ele><time>2026-03-28T12:35:48Z</time></trkpt><trkpt lat="44.65294715052174" lon="9.315827859089428"><ele>512.0</ele><time>2026-03-28T12:35:49Z</time></trkpt><trkpt lat="44.652810673288705" lon="9.315823620698296"><ele>508.0</ele><time>2026-03-28T12:35:50Z</time></trkpt><trkpt lat="44.65268570603618" lon="9.315868445927391"><ele>504.0</ele><time>2026-03-28T12:35:51Z</time></trkpt><trkpt lat="44.65256269729222" lon="9.315939499976766"><ele>500.0</ele><time>2026-03-28T12:35:52Z</time></trkpt><trkpt lat="44.652476417699546" lon="9.316112465278556"><ele>496.0</ele><time>2026-03-28T12:35:53Z</time></trkpt><trkpt lat="44.652414262044665" lon="9.316281498774735"><ele>500.25</ele><time>2026-03-28T12:35:54Z</time></trkpt><trkpt lat="44.65237468545305" lon="9.316403072941734"><ele>504.5</ele><time>2026-03-28T12:35:55Z</time></trkpt><trkpt lat="44.65224911493318" lon="9.316473404855394"><ele>508.75</ele><time>2026-03-28T12:35:56Z</time></trkpt><trkpt lat="44.65211971608393" lon="9.316508953412889"><ele>513.0</ele><time>2026-03-28T12:35:57Z</time></trkpt><trkpt lat="44.651987379219" lon="9.316565450572453"><ele>506.75</ele><time>2026-03-28T12:35:58Z</time></trkpt><trkpt lat="44.651868870748686" lon="9.316659642791077"><ele>500.5</ele><time>2026-03-28T12:35:59Z</time></trkpt><trkpt lat="44.651792438357845" lon="9.316798323548477"><ele>494.25</ele><time>2026-03-28T12:36:00Z</time></trkpt><trkpt lat="44.651756138501575" lon="9.316972989877248"><ele>488.0</ele><time>2026-03-28T12:36:01Z</time></trkpt><trkpt lat="44.651712826874274" lon="9.317106756325424"><ele>488.0</ele><time>2026-03-28T12:36:02Z</time></trkpt><trkpt lat="44.651614609248476" lon="9.31711674189502"><ele>487.99999999999994</ele><time>2026-03-28T12:36:03Z</time></trkpt><trkpt lat="44.651518333931996" lon="9.317153540337666"><ele>487.99999999999994</ele><time>2026-03-28T12:36:04Z</time></trkpt><trkpt lat="44.65142765240703" lon="9.317233006515982"><ele>488.0</ele><time>2026-03-28T12:36:05Z</time></trkpt><trkpt lat="44.65137237623638" lon="9.317362921889375"><ele>488.0</ele><time>2026-03-28T12:36:06Z</time></trkpt><trkpt lat="44.65134145710563" lon="9.317512450947872"><ele>490.25</ele><time>2026-03-28T12:36:07Z</time></trkpt><trkpt lat="44.65135117848193" lon="9.317681266795384"><ele>492.5</ele><time>2026-03-28T12:36:08Z</time></trkpt><trkpt lat="44.651360033691404" lon="9.317868864871482"><ele>494.75</ele><time>2026-03-28T12:36:09Z</time></trkpt><trkpt lat="44.65129288537542" lon="9.318036196789453"><ele>497.0</ele><time>2026-03-28T12:36:10Z</time></trkpt><trkpt lat="44.651238383522866" lon="9.31821597048503"><ele>500.75</ele><time>2026-03-28T12:36:11Z</time></trkpt><trkpt lat="44.651206544014165" lon="9.318388733174942"><ele>504.5</ele><time>2026-03-28T12:36:12Z</time></trkpt><trkpt lat="44.651197523193275" lon="9.318554303829766"><ele>508.25</ele><time>2026-03-28T12:36:13Z</time></trkpt><trkpt lat="44.65121163067151" lon="9.318739276827108"><ele>512.0</ele><time>2026-03-28T12:36:14Z</time></trkpt><trkpt lat="44.651229652510715" lon="9.318930361441604"><ele>512.0</ele><time>2026-03-28T12:36:15Z</time></trkpt><trkpt lat="44.651237809479206" lon="9.319133773893846"><ele>512.0</ele><time>2026-03-28T12:36:16Z</time></trkpt><trkpt lat="44.65125544984378" lon="9.319338144413887"><ele>512.0</ele><time>2026-03-28T12:36:17Z</time></trkpt><trkpt lat="44.651264071631" lon="9.3195274899736"><ele>512.0</ele><time>2026-03-28T12:36:18Z</time></trkpt><trkpt lat="44.65130319817377" lon="9.319709877185504"><ele>508.6</ele><time>2026-03-28T12:36:19Z</time></trkpt><trkpt lat="44.65135373279275" lon="9.31987240944915"><ele>505.20000000000005</ele><time>2026-03-28T12:36:20Z</time></trkpt><trkpt lat="44.65139188683452" lon="9.320022548132739"><ele>501.8</ele><time>2026-03-28T12:36:21Z</time></trkpt><trkpt lat="44.65137913566551" lon="9.320148646676113"><ele>498.4</ele><time>2026-03-28T12:36:22Z</time></trkpt><trkpt lat="44.65130477150765" lon="9.320229605215115"><ele>495.0</ele><time>2026-03-28T12:36:23Z</time></trkpt><trkpt lat="44.65122277201636" lon="9.320308383116242"><ele>495.0</ele><time>2026-03-28T12:36:24Z</time></trkpt><trkpt lat="44.651164455639844" lon="9.320415221061985"><ele>495.0</ele><time>2026-03-28T12:36:25Z</time></trkpt><trkpt lat="44.651168234957815" lon="9.320557903020465"><ele>495.0</ele><time>2026-03-28T12:36:26Z</time></trkpt><trkpt lat="44.65121640508816" lon="9.320689013245532"><ele>495.0</ele><time>2026-03-28T12:36:27Z</time></trkpt><trkpt lat="44.65135179173412" lon="9.320741938452581"><ele>495.0</ele><time>2026-03-28T12:36:28Z</time></trkpt><trkpt lat="44.65145177370765" lon="9.320773590553872"><ele>491.6</ele><time>2026-03-28T12:36:28.999Z</time></trkpt><trkpt lat="44.651533948190156" lon="9.320820380790472"><ele>488.2</ele><time>2026-03-28T12:36:29.999Z</time></trkpt><trkpt lat="44.65158070309931" lon="9.320914980441666"><ele>484.79999999999995</ele><time>2026-03-28T12:36:30.999Z</time></trkpt><trkpt lat="44.65161675118623" lon="9.321003474520127"><ele>481.4</ele><time>2026-03-28T12:36:31.999Z</time></trkpt><trkpt lat="44.651608753318826" lon="9.32116424822433"><ele>478.0</ele><time>2026-03-28T12:36:33.999Z</time></trkpt><trkpt lat="44.65154249798522" lon="9.321315888156018"><ele>478.0</ele><time>2026-03-28T12:36:35.999Z</time></trkpt><trkpt lat="44.65150733729864" lon="9.321407217716018"><ele>477.99999999999994</ele><time>2026-03-28T12:36:36.999Z</time></trkpt><trkpt lat="44.65145974039665" lon="9.321535348528768"><ele>477.99999999999994</ele><time>2026-03-28T12:36:38.999Z</time></trkpt><trkpt lat="44.651414743224855" lon="9.321643577395763"><ele>478.0</ele><time>2026-03-28T12:36:40.999Z</time></trkpt><trkpt lat="44.65132025910734" lon="9.321747031234837"><ele>478.0</ele><time>2026-03-28T12:36:42.999Z</time></trkpt><trkpt lat="44.651206779452124" lon="9.321705494413013"><ele>478.0</ele><time>2026-03-28T12:36:44.999Z</time></trkpt><trkpt lat="44.65114037592008" lon="9.321550833718785"><ele>477.99999999999994</ele><time>2026-03-28T12:36:46.999Z</time></trkpt><trkpt lat="44.6510738004218" lon="9.32141968780713"><ele>477.99999999999994</ele><time>2026-03-28T12:36:48.999Z</time></trkpt><trkpt lat="44.6510279581568" lon="9.321352653157401"><ele>478.0</ele><time>2026-03-28T12:36:49.999Z</time></trkpt><trkpt lat="44.6509720298359" lon="9.321299400152492"><ele>478.0</ele><time>2026-03-28T12:36:50.999Z</time></trkpt><trkpt lat="44.65089452164957" lon="9.321269954812918"><ele>476.50000000000006</ele><time>2026-03-28T12:36:51.999Z</time></trkpt><trkpt lat="44.65080870142775" lon="9.3212599702521"><ele>475.0</ele><time>2026-03-28T12:36:52.999Z</time></trkpt><trkpt lat="44.65072304061181" lon="9.32124087775017"><ele>473.5</ele><time>2026-03-28T12:36:53.999Z</time></trkpt><trkpt lat="44.650650333438655" lon="9.321209592557873"><ele>472.0</ele><time>2026-03-28T12:36:54.999Z</time></trkpt><trkpt lat="44.65059024141518" lon="9.321163891319555"><ele>470.50000000000006</ele><time>2026-03-28T12:36:55.999Z</time></trkpt><trkpt lat="44.65048636471488" lon="9.32107817795112"><ele>469.0</ele><time>2026-03-28T12:36:57.999Z</time></trkpt><trkpt lat="44.65039114318734" lon="9.320983153028214"><ele>469.0</ele><time>2026-03-28T12:36:59.999Z</time></trkpt><trkpt lat="44.650335991385305" lon="9.320819002171985"><ele>469.0</ele><time>2026-03-28T12:37:01.999Z</time></trkpt><trkpt lat="44.650320462322135" lon="9.320724953405838"><ele>469.0</ele><time>2026-03-28T12:37:02.999Z</time></trkpt><trkpt lat="44.65029197495733" lon="9.320554865701178"><ele>469.0</ele><time>2026-03-28T12:37:04.999Z</time></trkpt><trkpt lat="44.65020937989608" lon="9.320440428641279"><ele>469.0</ele><time>2026-03-28T12:37:06.999Z</time></trkpt><trkpt lat="44.650142002292945" lon="9.320428367361844"><ele>467.6666666666667</ele><time>2026-03-28T12:37:07.999Z</time></trkpt><trkpt lat="44.65007133933736" lon="9.32041207834608"><ele>466.33333333333337</ele><time>2026-03-28T12:37:08.999Z</time></trkpt><trkpt lat="44.649996231104076" lon="9.320444978492842"><ele>465.0</ele><time>2026-03-28T12:37:09.999Z</time></trkpt><trkpt lat="44.649925504141414" lon="9.320490996351792"><ele>463.66666666666663</ele><time>2026-03-28T12:37:10.999Z</time></trkpt><trkpt lat="44.649855472728106" lon="9.320534144589669"><ele>462.3333333333333</ele><time>2026-03-28T12:37:11.999Z</time></trkpt><trkpt lat="44.64978650736264" lon="9.32057868895749"><ele>461.0</ele><time>2026-03-28T12:37:12.999Z</time></trkpt><trkpt lat="44.649712814304884" lon="9.320626286558753"><ele>460.99999999999994</ele><time>2026-03-28T12:37:13.999Z</time></trkpt><trkpt lat="44.64963817688626" lon="9.320673201032525"><ele>461.0</ele><time>2026-03-28T12:37:14.999Z</time></trkpt><trkpt lat="44.64956923437038" lon="9.320716302543687"><ele>461.0</ele><time>2026-03-28T12:37:15.999Z</time></trkpt><trkpt lat="44.64949708249134" lon="9.320761410456324"><ele>461.0</ele><time>2026-03-28T12:37:16.999Z</time></trkpt><trkpt lat="44.64942088323711" lon="9.320820339132771"><ele>460.99999999999994</ele><time>2026-03-28T12:37:17.999Z</time></trkpt><trkpt lat="44.64934498095323" lon="9.32089786639052"><ele>461.0</ele><time>2026-03-28T12:37:18.999Z</time></trkpt><trkpt lat="44.649279624819926" lon="9.321004702006874"><ele>461.5</ele><time>2026-03-28T12:37:19.999Z</time></trkpt><trkpt lat="44.6492092943629" lon="9.321141055143297"><ele>462.0</ele><time>2026-03-28T12:37:20.999Z</time></trkpt><trkpt lat="44.64913047809718" lon="9.321301440062413"><ele>462.5</ele><time>2026-03-28T12:37:21.999Z</time></trkpt><trkpt lat="44.6490433516082" lon="9.321477521293216"><ele>463.0</ele><time>2026-03-28T12:37:22.999Z</time></trkpt><trkpt lat="44.64895069536369" lon="9.321655987143851"><ele>463.0</ele><time>2026-03-28T12:37:23.999Z</time></trkpt><trkpt lat="44.648857036541855" lon="9.321839237021154"><ele>463.0</ele><time>2026-03-28T12:37:24.999Z</time></trkpt><trkpt lat="44.64876635354547" lon="9.322025582380757"><ele>463.0</ele><time>2026-03-28T12:37:25.999Z</time></trkpt><trkpt lat="44.64868607198046" lon="9.322213467549522"><ele>456.6666666666667</ele><time>2026-03-28T12:37:26.999Z</time></trkpt><trkpt lat="44.64862045889313" lon="9.322399760581575"><ele>450.33333333333337</ele><time>2026-03-28T12:37:27.999Z</time></trkpt><trkpt lat="44.64855815610176" lon="9.322604103197426"><ele>444.0</ele><time>2026-03-28T12:37:28.999Z</time></trkpt><trkpt lat="44.64849762084856" lon="9.322812348256234"><ele>444.0</ele><time>2026-03-28T12:37:29.999Z</time></trkpt><trkpt lat="44.648436013324925" lon="9.323026503870421"><ele>444.0</ele><time>2026-03-28T12:37:30.999Z</time></trkpt><trkpt lat="44.64837324073197" lon="9.323243396746658"><ele>444.0</ele><time>2026-03-28T12:37:31.999Z</time></trkpt><trkpt lat="44.648310089327055" lon="9.32345861519055"><ele>444.33333333333337</ele><time>2026-03-28T12:37:32.999Z</time></trkpt><trkpt lat="44.64824524074431" lon="9.32367947004287"><ele>444.6666666666667</ele><time>2026-03-28T12:37:33.999Z</time></trkpt><trkpt lat="44.64818145878644" lon="9.323896692443746"><ele>445.0</ele><time>2026-03-28T12:37:34.999Z</time></trkpt><trkpt lat="44.64811600144619" lon="9.324119620570654"><ele>448.0</ele><time>2026-03-28T12:37:35.999Z</time></trkpt><trkpt lat="44.64804998542718" lon="9.324344451435715"><ele>451.0</ele><time>2026-03-28T12:37:36.999Z</time></trkpt><trkpt lat="44.647983769790095" lon="9.324569962168432"><ele>454.0</ele><time>2026-03-28T12:37:37.999Z</time></trkpt><trkpt lat="44.64791773110285" lon="9.32479487026784"><ele>454.33333333333337</ele><time>2026-03-28T12:37:38.999Z</time></trkpt><trkpt lat="44.64785189352066" lon="9.325019093444645"><ele>454.66666666666663</ele><time>2026-03-28T12:37:39.999Z</time></trkpt><trkpt lat="44.6477835977044" lon="9.325251688686476"><ele>455.0</ele><time>2026-03-28T12:37:40.999Z</time></trkpt><trkpt lat="44.64771561535182" lon="9.32548422757754"><ele>453.0</ele><time>2026-03-28T12:37:42Z</time></trkpt><trkpt lat="44.64764882504601" lon="9.325715688039237"><ele>451.0</ele><time>2026-03-28T12:37:43Z</time></trkpt><trkpt lat="44.6475730251047" lon="9.325945291785505"><ele>449.0</ele><time>2026-03-28T12:37:44Z</time></trkpt><trkpt lat="44.64748262826908" lon="9.326162637190736"><ele>449.0</ele><time>2026-03-28T12:37:45Z</time></trkpt><trkpt lat="44.647379358206045" lon="9.326371599179428"><ele>449.0</ele><time>2026-03-28T12:37:46Z</time></trkpt><trkpt lat="44.64726551377633" lon="9.326575192375165"><ele>449.0</ele><time>2026-03-28T12:37:47Z</time></trkpt><trkpt lat="44.64714273389055" lon="9.326770187803445"><ele>449.0</ele><time>2026-03-28T12:37:48Z</time></trkpt><trkpt lat="44.647007029088016" lon="9.32695459685674"><ele>449.0</ele><time>2026-03-28T12:37:49Z</time></trkpt><trkpt lat="44.64686072752073" lon="9.327124071208836"><ele>449.0</ele><time>2026-03-28T12:37:50Z</time></trkpt><trkpt lat="44.646706363863096" lon="9.327277725513927"><ele>450.0</ele><time>2026-03-28T12:37:51Z</time></trkpt><trkpt lat="44.646544610134704" lon="9.327413189383716"><ele>451.0</ele><time>2026-03-28T12:37:52Z</time></trkpt><trkpt lat="44.646386644621685" lon="9.327556928160837"><ele>452.0</ele><time>2026-03-28T12:37:53Z</time></trkpt><trkpt lat="44.64621736191809" lon="9.327680292189843"><ele>457.66666666666663</ele><time>2026-03-28T12:37:54Z</time></trkpt><trkpt lat="44.646048684844665" lon="9.327804578213417"><ele>463.33333333333337</ele><time>2026-03-28T12:37:55Z</time></trkpt><trkpt lat="44.64588009113679" lon="9.327922472637551"><ele>469.0</ele><time>2026-03-28T12:37:56Z</time></trkpt><trkpt lat="44.64570605008015" lon="9.328020795837743"><ele>468.33333333333337</ele><time>2026-03-28T12:37:57Z</time></trkpt><trkpt lat="44.64554048640057" lon="9.328136835631534"><ele>467.66666666666663</ele><time>2026-03-28T12:37:58Z</time></trkpt><trkpt lat="44.64537667605168" lon="9.328250125776147"><ele>467.0</ele><time>2026-03-28T12:37:59Z</time></trkpt><trkpt lat="44.64520956011141" lon="9.328354955515259"><ele>467.0</ele><time>2026-03-28T12:38:00Z</time></trkpt><trkpt lat="44.645037848484456" lon="9.328442561626556"><ele>467.0</ele><time>2026-03-28T12:38:01Z</time></trkpt><trkpt lat="44.64486398511341" lon="9.328513526508218"><ele>467.0</ele><time>2026-03-28T12:38:02Z</time></trkpt><trkpt lat="44.64468669494618" lon="9.328585533819133"><ele>467.0</ele><time>2026-03-28T12:38:03Z</time></trkpt><trkpt lat="44.64450182122317" lon="9.328621224049073"><ele>467.0</ele><time>2026-03-28T12:38:04Z</time></trkpt><trkpt lat="44.644320144197465" lon="9.328664797631095"><ele>467.0</ele><time>2026-03-28T12:38:05Z</time></trkpt><trkpt lat="44.64413984752087" lon="9.328710495785906"><ele>467.66666666666663</ele><time>2026-03-28T12:38:06Z</time></trkpt><trkpt lat="44.643959639391014" lon="9.3287726682846"><ele>468.33333333333337</ele><time>2026-03-28T12:38:07Z</time></trkpt><trkpt lat="44.6437800824504" lon="9.328812340647923"><ele>469.0</ele><time>2026-03-28T12:38:08Z</time></trkpt><trkpt lat="44.643599021323155" lon="9.328857883743176"><ele>465.6666666666667</ele><time>2026-03-28T12:38:09Z</time></trkpt><trkpt lat="44.643421601269154" lon="9.328904742789248"><ele>462.33333333333337</ele><time>2026-03-28T12:38:10Z</time></trkpt><trkpt lat="44.64324017799574" lon="9.328954403484097"><ele>459.0</ele><time>2026-03-28T12:38:11Z</time></trkpt><trkpt lat="44.64305842138939" lon="9.329002045047178"><ele>459.0</ele><time>2026-03-28T12:38:12Z</time></trkpt><trkpt lat="44.64287807299825" lon="9.329052652611596"><ele>459.0</ele><time>2026-03-28T12:38:13Z</time></trkpt><trkpt lat="44.64269753910391" lon="9.32910196185802"><ele>459.0</ele><time>2026-03-28T12:38:14Z</time></trkpt><trkpt lat="44.642515899220406" lon="9.329147196183628"><ele>459.66666666666663</ele><time>2026-03-28T12:38:15Z</time></trkpt><trkpt lat="44.64233313210968" lon="9.329192151147923"><ele>460.3333333333333</ele><time>2026-03-28T12:38:16Z</time></trkpt><trkpt lat="44.642151510624416" lon="9.32923790302047"><ele>461.0</ele><time>2026-03-28T12:38:17Z</time></trkpt><trkpt lat="44.641970862938486" lon="9.32928306303238"><ele>462.0</ele><time>2026-03-28T12:38:18Z</time></trkpt><trkpt lat="44.64178894547833" lon="9.329338200437029"><ele>463.0</ele><time>2026-03-28T12:38:19Z</time></trkpt><trkpt lat="44.641609497645725" lon="9.32938142965118"><ele>464.0</ele><time>2026-03-28T12:38:20Z</time></trkpt><trkpt lat="44.641430604859536" lon="9.329433291508959"><ele>464.0</ele><time>2026-03-28T12:38:21Z</time></trkpt><trkpt lat="44.641250023125764" lon="9.32948102633349"><ele>464.0</ele><time>2026-03-28T12:38:22Z</time></trkpt><trkpt lat="44.64106651959177" lon="9.329531285430955"><ele>464.0</ele><time>2026-03-28T12:38:23Z</time></trkpt><trkpt lat="44.64088976586444" lon="9.329574198014658"><ele>465.3333333333333</ele><time>2026-03-28T12:38:24Z</time></trkpt><trkpt lat="44.64070701530852" lon="9.32963174860382"><ele>466.66666666666663</ele><time>2026-03-28T12:38:25Z</time></trkpt><trkpt lat="44.64052464917754" lon="9.329685687054278"><ele>468.0</ele><time>2026-03-28T12:38:26Z</time></trkpt><trkpt lat="44.64034766550979" lon="9.329734583897785"><ele>465.0</ele><time>2026-03-28T12:38:27Z</time></trkpt><trkpt lat="44.64016510582652" lon="9.3297617686839"><ele>462.0</ele><time>2026-03-28T12:38:28Z</time></trkpt><trkpt lat="44.63998236054261" lon="9.329829012745009"><ele>459.0</ele><time>2026-03-28T12:38:29Z</time></trkpt><trkpt lat="44.63980642016185" lon="9.32987804557442"><ele>459.0</ele><time>2026-03-28T12:38:30Z</time></trkpt><trkpt lat="44.63963133405627" lon="9.329925159276055"><ele>459.0</ele><time>2026-03-28T12:38:31Z</time></trkpt><trkpt lat="44.63944405010157" lon="9.329964624722841"><ele>459.0</ele><time>2026-03-28T12:38:32Z</time></trkpt><trkpt lat="44.63926188063942" lon="9.330003762945234"><ele>459.66666666666663</ele><time>2026-03-28T12:38:33Z</time></trkpt><trkpt lat="44.639080915824046" lon="9.330027240234296"><ele>460.3333333333333</ele><time>2026-03-28T12:38:34Z</time></trkpt><trkpt lat="44.638902571209805" lon="9.330017183888188"><ele>461.0</ele><time>2026-03-28T12:38:35Z</time></trkpt><trkpt lat="44.63872247415458" lon="9.32997461872086"><ele>460.66666666666663</ele><time>2026-03-28T12:38:35.999Z</time></trkpt><trkpt lat="44.63854328936619" lon="9.329913548028712"><ele>460.33333333333337</ele><time>2026-03-28T12:38:36.999Z</time></trkpt><trkpt lat="44.638371289048976" lon="9.329828074849592"><ele>460.0</ele><time>2026-03-28T12:38:37.999Z</time></trkpt><trkpt lat="44.63820489887445" lon="9.329717066764399"><ele>460.0</ele><time>2026-03-28T12:38:38.999Z</time></trkpt><trkpt lat="44.6380417630049" lon="9.329590220102563"><ele>460.0</ele><time>2026-03-28T12:38:39.999Z</time></trkpt><trkpt lat="44.63787754625803" lon="9.329467329182723"><ele>460.0</ele><time>2026-03-28T12:38:40.999Z</time></trkpt><trkpt lat="44.63771365483027" lon="9.329355420874704"><ele>462.6666666666667</ele><time>2026-03-28T12:38:41.999Z</time></trkpt><trkpt lat="44.63754965343997" lon="9.329242377290022"><ele>465.33333333333337</ele><time>2026-03-28T12:38:42.999Z</time></trkpt><trkpt lat="44.637387629681555" lon="9.329125340798303"><ele>468.0</ele><time>2026-03-28T12:38:43.999Z</time></trkpt><trkpt lat="44.637225480588015" lon="9.329006519243528"><ele>468.0</ele><time>2026-03-28T12:38:44.999Z</time></trkpt><trkpt lat="44.63706501792599" lon="9.328893078892092"><ele>468.0</ele><time>2026-03-28T12:38:45.999Z</time></trkpt><trkpt lat="44.63690069467709" lon="9.328760397040016"><ele>468.0</ele><time>2026-03-28T12:38:46.999Z</time></trkpt><trkpt lat="44.63673446718815" lon="9.328650000671905"><ele>466.33333333333337</ele><time>2026-03-28T12:38:47.999Z</time></trkpt><trkpt lat="44.63656160499602" lon="9.328557368381245"><ele>464.6666666666667</ele><time>2026-03-28T12:38:48.999Z</time></trkpt><trkpt lat="44.636379385813186" lon="9.328486092015375"><ele>463.0</ele><time>2026-03-28T12:38:49.999Z</time></trkpt><trkpt lat="44.636184780530236" lon="9.32844726627247"><ele>464.33333333333337</ele><time>2026-03-28T12:38:50.999Z</time></trkpt><trkpt lat="44.63597738532384" lon="9.32844945564943"><ele>465.66666666666663</ele><time>2026-03-28T12:38:51.999Z</time></trkpt><trkpt lat="44.63575638787761" lon="9.328484870900489"><ele>467.0</ele><time>2026-03-28T12:38:52.999Z</time></trkpt><trkpt lat="44.63554342709838" lon="9.328550786402742"><ele>467.0</ele><time>2026-03-28T12:38:53.999Z</time></trkpt><trkpt lat="44.635353266593135" lon="9.328649301007287"><ele>467.0</ele><time>2026-03-28T12:38:54.999Z</time></trkpt><trkpt lat="44.63516968182181" lon="9.328780373139455"><ele>467.0</ele><time>2026-03-28T12:38:55.999Z</time></trkpt><trkpt lat="44.6349888088409" lon="9.328917575106269"><ele>467.66666666666663</ele><time>2026-03-28T12:38:56.999Z</time></trkpt><trkpt lat="44.63479797334165" lon="9.329045544950079"><ele>468.33333333333337</ele><time>2026-03-28T12:38:57.999Z</time></trkpt><trkpt lat="44.634609028033864" lon="9.329181903034836"><ele>469.0</ele><time>2026-03-28T12:38:58.999Z</time></trkpt><trkpt lat="44.63442183983541" lon="9.329307700003804"><ele>469.0</ele><time>2026-03-28T12:38:59.999Z</time></trkpt><trkpt lat="44.63423554093434" lon="9.329443351953243"><ele>469.0</ele><time>2026-03-28T12:39:00.999Z</time></trkpt><trkpt lat="44.63404784575392" lon="9.329579520373619"><ele>469.0</ele><time>2026-03-28T12:39:01.999Z</time></trkpt><trkpt lat="44.63385843869659" lon="9.329716325128356"><ele>470.0</ele><time>2026-03-28T12:39:02.999Z</time></trkpt><trkpt lat="44.63366497325837" lon="9.32984479653788"><ele>471.0</ele><time>2026-03-28T12:39:03.999Z</time></trkpt><trkpt lat="44.63346695011981" lon="9.329958056490511"><ele>472.0</ele><time>2026-03-28T12:39:04.999Z</time></trkpt><trkpt lat="44.633273728212124" lon="9.33008882935689"><ele>472.0</ele><time>2026-03-28T12:39:05.999Z</time></trkpt><trkpt lat="44.633078866712225" lon="9.33022065141506"><ele>472.0</ele><time>2026-03-28T12:39:06.999Z</time></trkpt><trkpt lat="44.63288820688784" lon="9.33038672544346"><ele>472.0</ele><time>2026-03-28T12:39:07.999Z</time></trkpt><trkpt lat="44.632700395348856" lon="9.330546757614144"><ele>474.0</ele><time>2026-03-28T12:39:08.999Z</time></trkpt><trkpt lat="44.632506547445594" lon="9.330725670091429"><ele>476.0</ele><time>2026-03-28T12:39:09.999Z</time></trkpt><trkpt lat="44.63232240103912" lon="9.330907818739252"><ele>476.0</ele><time>2026-03-28T12:39:10.999Z</time></trkpt><trkpt lat="44.63213641088962" lon="9.33109182099158"><ele>476.0</ele><time>2026-03-28T12:39:11.999Z</time></trkpt><trkpt lat="44.631955672293344" lon="9.331270627755696"><ele>476.0</ele><time>2026-03-28T12:39:12.999Z</time></trkpt><trkpt lat="44.631770004024666" lon="9.331454311557938"><ele>477.3333333333333</ele><time>2026-03-28T12:39:13.999Z</time></trkpt><trkpt lat="44.63158715902339" lon="9.331635128174664"><ele>478.66666666666663</ele><time>2026-03-28T12:39:14.999Z</time></trkpt><trkpt lat="44.63140273760836" lon="9.331816001444277"><ele>480.0</ele><time>2026-03-28T12:39:15.999Z</time></trkpt><trkpt lat="44.63122095286871" lon="9.331999875071231"><ele>482.5</ele><time>2026-03-28T12:39:16.999Z</time></trkpt><trkpt lat="44.63101434686771" lon="9.33212476453447"><ele>485.0</ele><time>2026-03-28T12:39:17.999Z</time></trkpt><trkpt lat="44.630814082053504" lon="9.332268001726112"><ele>485.0</ele><time>2026-03-28T12:39:18.999Z</time></trkpt><trkpt lat="44.630614832222435" lon="9.332409957276722"><ele>485.0</ele><time>2026-03-28T12:39:19.999Z</time></trkpt><trkpt lat="44.630414742138754" lon="9.332551715421204"><ele>485.0</ele><time>2026-03-28T12:39:20.999Z</time></trkpt><trkpt lat="44.63021401734834" lon="9.332688831733709"><ele>480.3333333333333</ele><time>2026-03-28T12:39:21.999Z</time></trkpt><trkpt lat="44.630008098149226" lon="9.332811679397892"><ele>475.66666666666663</ele><time>2026-03-28T12:39:22.999Z</time></trkpt><trkpt lat="44.629798086724" lon="9.332912140813463"><ele>471.0</ele><time>2026-03-28T12:39:23.999Z</time></trkpt><trkpt lat="44.62958288761056" lon="9.332983057091337"><ele>471.33333333333337</ele><time>2026-03-28T12:39:24.999Z</time></trkpt><trkpt lat="44.629378233543505" lon="9.333051424335254"><ele>471.6666666666667</ele><time>2026-03-28T12:39:25.999Z</time></trkpt><trkpt lat="44.629185537716715" lon="9.333068707653183"><ele>472.0</ele><time>2026-03-28T12:39:26.999Z</time></trkpt><trkpt lat="44.62900288891921" lon="9.333071346558736"><ele>472.33333333333337</ele><time>2026-03-28T12:39:27.999Z</time></trkpt><trkpt lat="44.62882001097886" lon="9.333059864165037"><ele>472.66666666666663</ele><time>2026-03-28T12:39:28.999Z</time></trkpt><trkpt lat="44.62863248863783" lon="9.333039768729533"><ele>473.0</ele><time>2026-03-28T12:39:29.999Z</time></trkpt><trkpt lat="44.628440918462715" lon="9.333021793532566"><ele>473.0</ele><time>2026-03-28T12:39:30.999Z</time></trkpt><trkpt lat="44.62824805835324" lon="9.333006199452138"><ele>473.0</ele><time>2026-03-28T12:39:31.999Z</time></trkpt><trkpt lat="44.62805419984227" lon="9.33299333518709"><ele>473.0</ele><time>2026-03-28T12:39:32.999Z</time></trkpt><trkpt lat="44.62786300242776" lon="9.332979241576755"><ele>473.0</ele><time>2026-03-28T12:39:33.999Z</time></trkpt><trkpt lat="44.62766772090298" lon="9.332945618516494"><ele>473.0</ele><time>2026-03-28T12:39:34.999Z</time></trkpt><trkpt lat="44.627475796513494" lon="9.332945244437237"><ele>473.0</ele><time>2026-03-28T12:39:35.999Z</time></trkpt><trkpt lat="44.62728430342976" lon="9.332917838250555"><ele>473.0</ele><time>2026-03-28T12:39:36.999Z</time></trkpt><trkpt lat="44.6270939997733" lon="9.332879219103182"><ele>473.0</ele><time>2026-03-28T12:39:37.999Z</time></trkpt><trkpt lat="44.626905057719604" lon="9.332832555457388"><ele>473.0</ele><time>2026-03-28T12:39:38.999Z</time></trkpt><trkpt lat="44.62671665008755" lon="9.332778691305647"><ele>475.0</ele><time>2026-03-28T12:39:39.999Z</time></trkpt><trkpt lat="44.62652948739791" lon="9.332720023022276"><ele>477.0</ele><time>2026-03-28T12:39:40.999Z</time></trkpt><trkpt lat="44.62634404980524" lon="9.332654465539521"><ele>479.0</ele><time>2026-03-28T12:39:41.999Z</time></trkpt><trkpt lat="44.62616050608707" lon="9.332579397268507"><ele>477.3333333333333</ele><time>2026-03-28T12:39:42.999Z</time></trkpt><trkpt lat="44.62597892205731" lon="9.332495020918406"><ele>475.66666666666663</ele><time>2026-03-28T12:39:43.999Z</time></trkpt><trkpt lat="44.62579822916455" lon="9.33240367926682"><ele>474.0</ele><time>2026-03-28T12:39:44.999Z</time></trkpt><trkpt lat="44.625620476897836" lon="9.332305574657017"><ele>476.0</ele><time>2026-03-28T12:39:45.999Z</time></trkpt><trkpt lat="44.625443536918624" lon="9.33220482939177"><ele>478.0</ele><time>2026-03-28T12:39:46.999Z</time></trkpt><trkpt lat="44.62525771620555" lon="9.332100722715047"><ele>480.0</ele><time>2026-03-28T12:39:48Z</time></trkpt><trkpt lat="44.62508094002258" lon="9.332013441127932"><ele>480.0</ele><time>2026-03-28T12:39:49Z</time></trkpt><trkpt lat="44.62490534875142" lon="9.33190709730984"><ele>480.0</ele><time>2026-03-28T12:39:50Z</time></trkpt><trkpt lat="44.62473126416368" lon="9.331797530330185"><ele>480.0</ele><time>2026-03-28T12:39:51Z</time></trkpt><trkpt lat="44.62455235566679" lon="9.331700349398515"><ele>480.66666666666663</ele><time>2026-03-28T12:39:52Z</time></trkpt><trkpt lat="44.62437472397674" lon="9.331602499725832"><ele>481.3333333333333</ele><time>2026-03-28T12:39:53Z</time></trkpt><trkpt lat="44.62419585817611" lon="9.331498427617385"><ele>482.0</ele><time>2026-03-28T12:39:54Z</time></trkpt><trkpt lat="44.62401909546047" lon="9.331402315248495"><ele>481.0</ele><time>2026-03-28T12:39:55Z</time></trkpt><trkpt lat="44.62384323147921" lon="9.331302413074539"><ele>480.0</ele><time>2026-03-28T12:39:56Z</time></trkpt><trkpt lat="44.62366572727641" lon="9.331209097057933"><ele>479.0</ele><time>2026-03-28T12:39:57Z</time></trkpt><trkpt lat="44.62348930507915" lon="9.331109510028568"><ele>478.66666666666663</ele><time>2026-03-28T12:39:58Z</time></trkpt><trkpt lat="44.623313937619685" lon="9.331012844673472"><ele>478.33333333333337</ele><time>2026-03-28T12:39:59Z</time></trkpt><trkpt lat="44.62313660175876" lon="9.330915324421326"><ele>478.0</ele><time>2026-03-28T12:40:00Z</time></trkpt><trkpt lat="44.622963174937155" lon="9.330802064682878"><ele>478.33333333333337</ele><time>2026-03-28T12:40:01Z</time></trkpt><trkpt lat="44.62279573986596" lon="9.330674877994705"><ele>478.66666666666663</ele><time>2026-03-28T12:40:02Z</time></trkpt><trkpt lat="44.62263194718568" lon="9.330536081495397"><ele>479.0</ele><time>2026-03-28T12:40:03Z</time></trkpt><trkpt lat="44.622472334115166" lon="9.330386151988703"><ele>480.3333333333333</ele><time>2026-03-28T12:40:04Z</time></trkpt><trkpt lat="44.62232142161545" lon="9.330220707795553"><ele>481.66666666666663</ele><time>2026-03-28T12:40:05Z</time></trkpt><trkpt lat="44.62217501636573" lon="9.330046391254525"><ele>483.0</ele><time>2026-03-28T12:40:06Z</time></trkpt><trkpt lat="44.62203372379615" lon="9.329863043906913"><ele>484.0</ele><time>2026-03-28T12:40:07Z</time></trkpt><trkpt lat="44.62190173941915" lon="9.329667603055992"><ele>485.0</ele><time>2026-03-28T12:40:08Z</time></trkpt><trkpt lat="44.62177687466848" lon="9.329463782364849"><ele>486.0</ele><time>2026-03-28T12:40:09Z</time></trkpt><trkpt lat="44.62166042099381" lon="9.329248320337154"><ele>486.0</ele><time>2026-03-28T12:40:10Z</time></trkpt><trkpt lat="44.621553534052154" lon="9.329028692030791"><ele>486.0</ele><time>2026-03-28T12:40:11Z</time></trkpt><trkpt lat="44.62145637679078" lon="9.328796647191057"><ele>486.0</ele><time>2026-03-28T12:40:12Z</time></trkpt><trkpt lat="44.62136924757769" lon="9.328559506322328"><ele>485.0</ele><time>2026-03-28T12:40:13Z</time></trkpt><trkpt lat="44.62126908938976" lon="9.328335555454775"><ele>484.0</ele><time>2026-03-28T12:40:14Z</time></trkpt><trkpt lat="44.62117486669815" lon="9.328101763479017"><ele>483.0</ele><time>2026-03-28T12:40:15Z</time></trkpt><trkpt lat="44.62108015802823" lon="9.327871363875111"><ele>483.0</ele><time>2026-03-28T12:40:16Z</time></trkpt><trkpt lat="44.62098611597425" lon="9.327644384699296"><ele>483.0</ele><time>2026-03-28T12:40:17Z</time></trkpt><trkpt lat="44.62088995320091" lon="9.327415190832536"><ele>483.0</ele><time>2026-03-28T12:40:18Z</time></trkpt><trkpt lat="44.62079298108953" lon="9.327182905101315"><ele>483.33333333333337</ele><time>2026-03-28T12:40:19Z</time></trkpt><trkpt lat="44.6206926764453" lon="9.326954362375943"><ele>483.6666666666667</ele><time>2026-03-28T12:40:20Z</time></trkpt><trkpt lat="44.620576748014095" lon="9.326743866024897"><ele>484.0</ele><time>2026-03-28T12:40:21Z</time></trkpt><trkpt lat="44.62046308126065" lon="9.32653251560991"><ele>484.33333333333337</ele><time>2026-03-28T12:40:22Z</time></trkpt><trkpt lat="44.620336748502226" lon="9.326328433361743"><ele>484.66666666666663</ele><time>2026-03-28T12:40:23Z</time></trkpt><trkpt lat="44.6202074020974" lon="9.326130827432479"><ele>485.0</ele><time>2026-03-28T12:40:24Z</time></trkpt><trkpt lat="44.62006892302376" lon="9.325943140572141"><ele>486.0</ele><time>2026-03-28T12:40:25Z</time></trkpt><trkpt lat="44.61993357766488" lon="9.325757519959208"><ele>487.0</ele><time>2026-03-28T12:40:26Z</time></trkpt><trkpt lat="44.61979398419529" lon="9.325573025335618"><ele>488.0</ele><time>2026-03-28T12:40:27Z</time></trkpt><trkpt lat="44.61965659409861" lon="9.325389498623455"><ele>488.0</ele><time>2026-03-28T12:40:28Z</time></trkpt><trkpt lat="44.619514478992265" lon="9.325212177921939"><ele>488.0</ele><time>2026-03-28T12:40:29Z</time></trkpt><trkpt lat="44.61937932857288" lon="9.32503269749527"><ele>488.0</ele><time>2026-03-28T12:40:30Z</time></trkpt><trkpt lat="44.61924114417414" lon="9.32484098159483"><ele>493.3333333333333</ele><time>2026-03-28T12:40:31Z</time></trkpt><trkpt lat="44.61910669279705" lon="9.324651355091568"><ele>498.66666666666663</ele><time>2026-03-28T12:40:32Z</time></trkpt><trkpt lat="44.61896739518125" lon="9.324467504638255"><ele>504.0</ele><time>2026-03-28T12:40:33Z</time></trkpt><trkpt lat="44.61882766097938" lon="9.3242842772031"><ele>504.0</ele><time>2026-03-28T12:40:34Z</time></trkpt><trkpt lat="44.61868427556435" lon="9.324106424833857"><ele>504.0</ele><time>2026-03-28T12:40:35Z</time></trkpt><trkpt lat="44.61854678404766" lon="9.323922416786122"><ele>504.0</ele><time>2026-03-28T12:40:36Z</time></trkpt><trkpt lat="44.61840923877388" lon="9.323735315874867"><ele>502.33333333333337</ele><time>2026-03-28T12:40:37Z</time></trkpt><trkpt lat="44.618272394621506" lon="9.323549414754657"><ele>500.6666666666667</ele><time>2026-03-28T12:40:38Z</time></trkpt><trkpt lat="44.61813518286533" lon="9.32336109329977"><ele>499.0</ele><time>2026-03-28T12:40:39Z</time></trkpt><trkpt lat="44.61799677251724" lon="9.323172870913302"><ele>500.33333333333337</ele><time>2026-03-28T12:40:40Z</time></trkpt><trkpt lat="44.61785662623637" lon="9.322986458567065"><ele>501.66666666666663</ele><time>2026-03-28T12:40:40.999Z</time></trkpt><trkpt lat="44.61772011725538" lon="9.322798336138545"><ele>503.0</ele><time>2026-03-28T12:40:41.999Z</time></trkpt><trkpt lat="44.61758057290666" lon="9.322613520639333"><ele>498.66666666666663</ele><time>2026-03-28T12:40:42.999Z</time></trkpt><trkpt lat="44.61744459889739" lon="9.322422524999258"><ele>494.33333333333337</ele><time>2026-03-28T12:40:43.999Z</time></trkpt><trkpt lat="44.617302737909235" lon="9.322237362833862"><ele>490.0</ele><time>2026-03-28T12:40:44.999Z</time></trkpt><trkpt lat="44.617152980566075" lon="9.322072353147036"><ele>490.0</ele><time>2026-03-28T12:40:45.999Z</time></trkpt><trkpt lat="44.61698905463547" lon="9.321939899552042"><ele>490.0</ele><time>2026-03-28T12:40:46.999Z</time></trkpt><trkpt lat="44.616811104900556" lon="9.321844830024567"><ele>490.0</ele><time>2026-03-28T12:40:47.999Z</time></trkpt><trkpt lat="44.61662223156399" lon="9.321793260486809"><ele>494.0</ele><time>2026-03-28T12:40:48.999Z</time></trkpt><trkpt lat="44.6164347598342" lon="9.321774071451664"><ele>498.0</ele><time>2026-03-28T12:40:49.999Z</time></trkpt><trkpt lat="44.61624451131528" lon="9.321787226515763"><ele>502.0</ele><time>2026-03-28T12:40:50.999Z</time></trkpt><trkpt lat="44.61605333961332" lon="9.321804426754982"><ele>504.33333333333337</ele><time>2026-03-28T12:40:51.999Z</time></trkpt><trkpt lat="44.615863881858886" lon="9.321816938608317"><ele>506.66666666666663</ele><time>2026-03-28T12:40:52.999Z</time></trkpt><trkpt lat="44.61567217379191" lon="9.321802050276473"><ele>509.0</ele><time>2026-03-28T12:40:53.999Z</time></trkpt><trkpt lat="44.61548432507253" lon="9.321806907968426"><ele>509.66666666666663</ele><time>2026-03-28T12:40:54.999Z</time></trkpt><trkpt lat="44.61529558746605" lon="9.3217856512477"><ele>510.33333333333337</ele><time>2026-03-28T12:40:55.999Z</time></trkpt><trkpt lat="44.61511510562697" lon="9.321722395547738"><ele>511.0</ele><time>2026-03-28T12:40:56.999Z</time></trkpt><trkpt lat="44.61496999329645" lon="9.321626541997814"><ele>511.0</ele><time>2026-03-28T12:40:57.999Z</time></trkpt><trkpt lat="44.614845904335894" lon="9.32148905920957"><ele>511.0</ele><time>2026-03-28T12:40:58.999Z</time></trkpt><trkpt lat="44.61474653031683" lon="9.321386292765112"><ele>511.0</ele><time>2026-03-28T12:40:59.999Z</time></trkpt><trkpt lat="44.61464209785352" lon="9.321348137811396"><ele>511.0</ele><time>2026-03-28T12:41:00.999Z</time></trkpt><trkpt lat="44.61452068156553" lon="9.321348877260196"><ele>508.75</ele><time>2026-03-28T12:41:01.999Z</time></trkpt><trkpt lat="44.6143794988681" lon="9.321377270511848"><ele>506.5</ele><time>2026-03-28T12:41:02.999Z</time></trkpt><trkpt lat="44.61423606730416" lon="9.32140256141061"><ele>504.25</ele><time>2026-03-28T12:41:03.999Z</time></trkpt><trkpt lat="44.614092390888686" lon="9.321447610127437"><ele>502.0</ele><time>2026-03-28T12:41:04.999Z</time></trkpt><trkpt lat="44.613940237112104" lon="9.32148549469215"><ele>507.0</ele><time>2026-03-28T12:41:05.999Z</time></trkpt><trkpt lat="44.613782164082984" lon="9.32152645569017"><ele>512.0</ele><time>2026-03-28T12:41:06.999Z</time></trkpt><trkpt lat="44.61361447557158" lon="9.3215534536988"><ele>517.0</ele><time>2026-03-28T12:41:07.999Z</time></trkpt><trkpt lat="44.61346942292314" lon="9.321599738465626"><ele>517.0</ele><time>2026-03-28T12:41:08.999Z</time></trkpt><trkpt lat="44.61333633683378" lon="9.321662864931952"><ele>517.0</ele><time>2026-03-28T12:41:09.999Z</time></trkpt><trkpt lat="44.61321411892668" lon="9.321676832761755"><ele>517.0</ele><time>2026-03-28T12:41:10.999Z</time></trkpt><trkpt lat="44.613111437695586" lon="9.32164214836019"><ele>517.0</ele><time>2026-03-28T12:41:11.999Z</time></trkpt><trkpt lat="44.61304158245737" lon="9.321547679627331"><ele>517.0</ele><time>2026-03-28T12:41:12.999Z</time></trkpt><trkpt lat="44.613006230213" lon="9.321406913710057"><ele>517.0</ele><time>2026-03-28T12:41:13.999Z</time></trkpt><trkpt lat="44.61299588831519" lon="9.3212468667826"><ele>517.0</ele><time>2026-03-28T12:41:14.999Z</time></trkpt><trkpt lat="44.61297253173551" lon="9.321085143859156"><ele>517.0</ele><time>2026-03-28T12:41:15.999Z</time></trkpt><trkpt lat="44.61294826937556" lon="9.320889713159543"><ele>514.0</ele><time>2026-03-28T12:41:16.999Z</time></trkpt><trkpt lat="44.61289742938752" lon="9.320706078557349"><ele>511.0</ele><time>2026-03-28T12:41:17.999Z</time></trkpt><trkpt lat="44.61282453662948" lon="9.320534418872125"><ele>508.0</ele><time>2026-03-28T12:41:18.999Z</time></trkpt><trkpt lat="44.612703111450685" lon="9.320410827297168"><ele>505.0</ele><time>2026-03-28T12:41:19.999Z</time></trkpt><trkpt lat="44.61259530612854" lon="9.320321341649015"><ele>505.0</ele><time>2026-03-28T12:41:20.999Z</time></trkpt><trkpt lat="44.612451567600054" lon="9.320220236647856"><ele>505.0</ele><time>2026-03-28T12:41:21.999Z</time></trkpt><trkpt lat="44.61232724007516" lon="9.320115489723733"><ele>505.0</ele><time>2026-03-28T12:41:22.999Z</time></trkpt><trkpt lat="44.61219393898782" lon="9.32000068600017"><ele>505.0</ele><time>2026-03-28T12:41:23.999Z</time></trkpt><trkpt lat="44.61207683811308" lon="9.319899603537252"><ele>505.0</ele><time>2026-03-28T12:41:24.999Z</time></trkpt><trkpt lat="44.611989265851065" lon="9.3198181504758"><ele>505.0</ele><time>2026-03-28T12:41:25.999Z</time></trkpt><trkpt lat="44.611931761598704" lon="9.319708609563675"><ele>505.0</ele><time>2026-03-28T12:41:26.999Z</time></trkpt><trkpt lat="44.611915902493465" lon="9.319558748283878"><ele>505.0</ele><time>2026-03-28T12:41:27.999Z</time></trkpt><trkpt lat="44.611925086463245" lon="9.319405888504203"><ele>505.0</ele><time>2026-03-28T12:41:28.999Z</time></trkpt><trkpt lat="44.61192727052715" lon="9.319242009879172"><ele>505.0</ele><time>2026-03-28T12:41:29.999Z</time></trkpt><trkpt lat="44.61192844494847" lon="9.319081946869064"><ele>505.0</ele><time>2026-03-28T12:41:30.999Z</time></trkpt><trkpt lat="44.611906832617926" lon="9.318958006360733"><ele>505.0</ele><time>2026-03-28T12:41:31.999Z</time></trkpt><trkpt lat="44.61182308841345" lon="9.318847141135297"><ele>505.0</ele><time>2026-03-28T12:41:32.999Z</time></trkpt><trkpt lat="44.61172027576782" lon="9.31875978134678"><ele>512.0</ele><time>2026-03-28T12:41:33.999Z</time></trkpt><trkpt lat="44.61162340075683" lon="9.318669342034474"><ele>519.0</ele><time>2026-03-28T12:41:34.999Z</time></trkpt><trkpt lat="44.61152204644054" lon="9.318571978377078"><ele>526.0</ele><time>2026-03-28T12:41:35.999Z</time></trkpt><trkpt lat="44.611416631150526" lon="9.318479511877015"><ele>533.0</ele><time>2026-03-28T12:41:36.999Z</time></trkpt><trkpt lat="44.61131234756815" lon="9.318371184530292"><ele>533.0</ele><time>2026-03-28T12:41:37.999Z</time></trkpt><trkpt lat="44.61119568317112" lon="9.318281928759268"><ele>533.0</ele><time>2026-03-28T12:41:38.999Z</time></trkpt><trkpt lat="44.61108147739383" lon="9.318185728515772"><ele>533.0</ele><time>2026-03-28T12:41:39.999Z</time></trkpt><trkpt lat="44.61096067557918" lon="9.318137637802636"><ele>533.0</ele><time>2026-03-28T12:41:40.999Z</time></trkpt><trkpt lat="44.61087384233408" lon="9.31805576313095"><ele>528.8</ele><time>2026-03-28T12:41:41.999Z</time></trkpt><trkpt lat="44.610823816203514" lon="9.317956501350011"><ele>524.5999999999999</ele><time>2026-03-28T12:41:42.999Z</time></trkpt><trkpt lat="44.61079940191913" lon="9.317817615578273"><ele>520.4000000000001</ele><time>2026-03-28T12:41:43.999Z</time></trkpt><trkpt lat="44.610803301846445" lon="9.317671630036289"><ele>516.2</ele><time>2026-03-28T12:41:44.999Z</time></trkpt><trkpt lat="44.61081335766189" lon="9.317520976008097"><ele>512.0</ele><time>2026-03-28T12:41:45.999Z</time></trkpt><trkpt lat="44.61080709336314" lon="9.317366319126593"><ele>513.25</ele><time>2026-03-28T12:41:46.999Z</time></trkpt><trkpt lat="44.610800301561675" lon="9.317191381135544"><ele>514.5</ele><time>2026-03-28T12:41:47.999Z</time></trkpt><trkpt lat="44.61078497344293" lon="9.317024050372073"><ele>515.75</ele><time>2026-03-28T12:41:48.999Z</time></trkpt><trkpt lat="44.610771240314094" lon="9.31685724034327"><ele>517.0</ele><time>2026-03-28T12:41:49.999Z</time></trkpt><trkpt lat="44.61079000908764" lon="9.316687186314404"><ele>517.0</ele><time>2026-03-28T12:41:50.999Z</time></trkpt><trkpt lat="44.610838019402934" lon="9.316526839765631"><ele>517.0</ele><time>2026-03-28T12:41:51.999Z</time></trkpt><trkpt lat="44.61087591457638" lon="9.316361227360682"><ele>517.0</ele><time>2026-03-28T12:41:52.999Z</time></trkpt><trkpt lat="44.61087734444816" lon="9.316184581607338"><ele>517.0</ele><time>2026-03-28T12:41:54Z</time></trkpt><trkpt lat="44.61086113911419" lon="9.316009701624006"><ele>517.25</ele><time>2026-03-28T12:41:55Z</time></trkpt><trkpt lat="44.61084000639253" lon="9.315835121475716"><ele>517.5</ele><time>2026-03-28T12:41:56Z</time></trkpt><trkpt lat="44.61080404563512" lon="9.315651065259996"><ele>517.75</ele><time>2026-03-28T12:41:57Z</time></trkpt><trkpt lat="44.610758570698735" lon="9.315466239273404"><ele>518.0</ele><time>2026-03-28T12:41:58Z</time></trkpt><trkpt lat="44.61071463097193" lon="9.315283454049744"><ele>518.25</ele><time>2026-03-28T12:41:59Z</time></trkpt><trkpt lat="44.61066310155738" lon="9.315091602986435"><ele>518.5</ele><time>2026-03-28T12:42:00Z</time></trkpt><trkpt lat="44.61061466492018" lon="9.31489890967457"><ele>518.75</ele><time>2026-03-28T12:42:01Z</time></trkpt><trkpt lat="44.610573219730995" lon="9.31470497485727"><ele>519.0</ele><time>2026-03-28T12:42:02Z</time></trkpt><trkpt lat="44.61055045654945" lon="9.31452288156715"><ele>521.0</ele><time>2026-03-28T12:42:03Z</time></trkpt><trkpt lat="44.610543908548486" lon="9.31432696277829"><ele>523.0</ele><time>2026-03-28T12:42:04Z</time></trkpt><trkpt lat="44.610547916052404" lon="9.314124822847887"><ele>525.0</ele><time>2026-03-28T12:42:05Z</time></trkpt><trkpt lat="44.610548574587774" lon="9.313918359721907"><ele>527.0</ele><time>2026-03-28T12:42:06Z</time></trkpt><trkpt lat="44.61054109134361" lon="9.313711554916976"><ele>527.0</ele><time>2026-03-28T12:42:07Z</time></trkpt><trkpt lat="44.610526785789965" lon="9.313500617439423"><ele>527.0</ele><time>2026-03-28T12:42:08Z</time></trkpt><trkpt lat="44.61049140016504" lon="9.313293508862717"><ele>527.0</ele><time>2026-03-28T12:42:09Z</time></trkpt><trkpt lat="44.610448367784926" lon="9.313085851202029"><ele>529.3333333333333</ele><time>2026-03-28T12:42:10Z</time></trkpt><trkpt lat="44.61040217017665" lon="9.312877304655187"><ele>531.6666666666666</ele><time>2026-03-28T12:42:11Z</time></trkpt><trkpt lat="44.61035557541334" lon="9.312668399614795"><ele>534.0</ele><time>2026-03-28T12:42:12Z</time></trkpt><trkpt lat="44.610295959888504" lon="9.312473618813137"><ele>528.25</ele><time>2026-03-28T12:42:13Z</time></trkpt><trkpt lat="44.61022860121757" lon="9.312283581516072"><ele>522.5</ele><time>2026-03-28T12:42:14Z</time></trkpt><trkpt lat="44.61016831674561" lon="9.312088844563892"><ele>516.75</ele><time>2026-03-28T12:42:15Z</time></trkpt><trkpt lat="44.61013641338735" lon="9.311919355884186"><ele>511.0</ele><time>2026-03-28T12:42:16Z</time></trkpt><trkpt lat="44.610138886440936" lon="9.311752714053494"><ele>511.0</ele><time>2026-03-28T12:42:17Z</time></trkpt><trkpt lat="44.61016953731919" lon="9.311575986947654"><ele>511.0</ele><time>2026-03-28T12:42:18Z</time></trkpt><trkpt lat="44.610230632939576" lon="9.311421372637067"><ele>511.0</ele><time>2026-03-28T12:42:19Z</time></trkpt><trkpt lat="44.610317471911735" lon="9.31129142837446"><ele>511.0</ele><time>2026-03-28T12:42:20Z</time></trkpt><trkpt lat="44.6104069192658" lon="9.311152527058551"><ele>512.0</ele><time>2026-03-28T12:42:21Z</time></trkpt><trkpt lat="44.610494536690794" lon="9.311004650502355"><ele>513.0</ele><time>2026-03-28T12:42:22Z</time></trkpt><trkpt lat="44.61059040332431" lon="9.310858475334474"><ele>514.0</ele><time>2026-03-28T12:42:23Z</time></trkpt><trkpt lat="44.61068150621948" lon="9.310711126765497"><ele>515.0</ele><time>2026-03-28T12:42:24Z</time></trkpt><trkpt lat="44.610779025368146" lon="9.310562132098994"><ele>515.0</ele><time>2026-03-28T12:42:25Z</time></trkpt><trkpt lat="44.610880052608806" lon="9.310414190983197"><ele>515.0</ele><time>2026-03-28T12:42:26Z</time></trkpt><trkpt lat="44.610978130029046" lon="9.310253252955095"><ele>515.0</ele><time>2026-03-28T12:42:27Z</time></trkpt><trkpt lat="44.61107029384421" lon="9.31010696752119"><ele>515.0</ele><time>2026-03-28T12:42:28Z</time></trkpt><trkpt lat="44.61113682167773" lon="9.30993687541737"><ele>525.0</ele><time>2026-03-28T12:42:29Z</time></trkpt><trkpt lat="44.61116291155415" lon="9.309733151031496"><ele>535.0</ele><time>2026-03-28T12:42:30Z</time></trkpt><trkpt lat="44.6111750122507" lon="9.309516365735378"><ele>545.0</ele><time>2026-03-28T12:42:31Z</time></trkpt><trkpt lat="44.611206750947375" lon="9.309301864405445"><ele>545.0</ele><time>2026-03-28T12:42:32Z</time></trkpt><trkpt lat="44.61125443316307" lon="9.30910087964715"><ele>545.0</ele><time>2026-03-28T12:42:33Z</time></trkpt><trkpt lat="44.61128263129967" lon="9.308949921724551"><ele>545.0</ele><time>2026-03-28T12:42:34Z</time></trkpt><trkpt lat="44.61127131950991" lon="9.30881039190933"><ele>545.0</ele><time>2026-03-28T12:42:35Z</time></trkpt><trkpt lat="44.611198802310184" lon="9.308671966692248"><ele>534.6666666666666</ele><time>2026-03-28T12:42:36Z</time></trkpt><trkpt lat="44.61110378977925" lon="9.308524999932342"><ele>524.3333333333334</ele><time>2026-03-28T12:42:37Z</time></trkpt><trkpt lat="44.61100821247599" lon="9.308358937925613"><ele>514.0</ele><time>2026-03-28T12:42:38Z</time></trkpt><trkpt lat="44.610903375655106" lon="9.308183766284994"><ele>516.25</ele><time>2026-03-28T12:42:39Z</time></trkpt><trkpt lat="44.610814195607745" lon="9.308023719860685"><ele>518.5</ele><time>2026-03-28T12:42:40Z</time></trkpt><trkpt lat="44.610728973208595" lon="9.307880630618047"><ele>520.75</ele><time>2026-03-28T12:42:41Z</time></trkpt><trkpt lat="44.61066243471342" lon="9.30773320689463"><ele>523.0</ele><time>2026-03-28T12:42:42Z</time></trkpt><trkpt lat="44.610621139640315" lon="9.307578524366079"><ele>523.0</ele><time>2026-03-28T12:42:43Z</time></trkpt><trkpt lat="44.61061802698785" lon="9.307407200467784"><ele>523.0</ele><time>2026-03-28T12:42:44Z</time></trkpt><trkpt lat="44.610630606395894" lon="9.307233273141945"><ele>523.0</ele><time>2026-03-28T12:42:45Z</time></trkpt><trkpt lat="44.610606775088854" lon="9.307060556513933"><ele>523.0</ele><time>2026-03-28T12:42:46Z</time></trkpt><trkpt lat="44.610520408584144" lon="9.306927193572381"><ele>526.0</ele><time>2026-03-28T12:42:47Z</time></trkpt><trkpt lat="44.610396365653735" lon="9.306828819142472"><ele>529.0</ele><time>2026-03-28T12:42:47.999Z</time></trkpt><trkpt lat="44.61026757844485" lon="9.30674596516844"><ele>532.0</ele><time>2026-03-28T12:42:48.999Z</time></trkpt><trkpt lat="44.610130645316225" lon="9.30666360548329"><ele>535.0</ele><time>2026-03-28T12:42:49.999Z</time></trkpt><trkpt lat="44.60996832019754" lon="9.306658352466098"><ele>535.0</ele><time>2026-03-28T12:42:50.999Z</time></trkpt><trkpt lat="44.60980924040677" lon="9.306682484480156"><ele>535.0</ele><time>2026-03-28T12:42:51.999Z</time></trkpt><trkpt lat="44.609656767889405" lon="9.306705839439388"><ele>535.0</ele><time>2026-03-28T12:42:52.999Z</time></trkpt><trkpt lat="44.60950284033984" lon="9.306731963406136"><ele>533.3333333333334</ele><time>2026-03-28T12:42:53.999Z</time></trkpt><trkpt lat="44.60934657510875" lon="9.306769842919051"><ele>531.6666666666666</ele><time>2026-03-28T12:42:54.999Z</time></trkpt><trkpt lat="44.60919157474862" lon="9.306819584133484"><ele>530.0</ele><time>2026-03-28T12:42:55.999Z</time></trkpt><trkpt lat="44.60902827321604" lon="9.306877573023968"><ele>530.0</ele><time>2026-03-28T12:42:56.999Z</time></trkpt><trkpt lat="44.60886075881462" lon="9.306941797490467"><ele>530.0</ele><time>2026-03-28T12:42:57.999Z</time></trkpt><trkpt lat="44.608706050259144" lon="9.307000166519718"><ele>530.0</ele><time>2026-03-28T12:42:58.999Z</time></trkpt><trkpt lat="44.60856527398362" lon="9.307043522110733"><ele>529.3333333333333</ele><time>2026-03-28T12:42:59.999Z</time></trkpt><trkpt lat="44.608421474326406" lon="9.30702116784343"><ele>528.6666666666666</ele><time>2026-03-28T12:43:00.999Z</time></trkpt><trkpt lat="44.6082612515899" lon="9.306984404018834"><ele>528.0</ele><time>2026-03-28T12:43:01.999Z</time></trkpt><trkpt lat="44.60810142339651" lon="9.306953568205861"><ele>528.0</ele><time>2026-03-28T12:43:02.999Z</time></trkpt><trkpt lat="44.60793621013584" lon="9.30694556511604"><ele>528.0</ele><time>2026-03-28T12:43:03.999Z</time></trkpt><trkpt lat="44.60778075505892" lon="9.306948566658779"><ele>528.0</ele><time>2026-03-28T12:43:04.999Z</time></trkpt><trkpt lat="44.60764013301547" lon="9.306950952135722"><ele>527.5</ele><time>2026-03-28T12:43:05.999Z</time></trkpt><trkpt lat="44.60750505802052" lon="9.306940137415488"><ele>527.0</ele><time>2026-03-28T12:43:06.999Z</time></trkpt><trkpt lat="44.60736515439621" lon="9.306853277211202"><ele>526.5</ele><time>2026-03-28T12:43:07.999Z</time></trkpt><trkpt lat="44.60724028936412" lon="9.306725699975738"><ele>526.0</ele><time>2026-03-28T12:43:08.999Z</time></trkpt><trkpt lat="44.607121159057485" lon="9.30658766759251"><ele>526.0</ele><time>2026-03-28T12:43:09.999Z</time></trkpt><trkpt lat="44.60701481113597" lon="9.306456989447705"><ele>526.0</ele><time>2026-03-28T12:43:10.999Z</time></trkpt><trkpt lat="44.60693664633058" lon="9.30629545194726"><ele>526.0</ele><time>2026-03-28T12:43:11.999Z</time></trkpt><trkpt lat="44.6068846534794" lon="9.306101294344684"><ele>526.0</ele><time>2026-03-28T12:43:12.999Z</time></trkpt><trkpt lat="44.60684572587462" lon="9.305891393255017"><ele>526.3333333333334</ele><time>2026-03-28T12:43:13.999Z</time></trkpt><trkpt lat="44.60680609630003" lon="9.305677373671909"><ele>526.6666666666666</ele><time>2026-03-28T12:43:14.999Z</time></trkpt><trkpt lat="44.606761872917325" lon="9.305452522850041"><ele>527.0</ele><time>2026-03-28T12:43:15.999Z</time></trkpt><trkpt lat="44.60672598635818" lon="9.305226214232079"><ele>527.0</ele><time>2026-03-28T12:43:16.999Z</time></trkpt><trkpt lat="44.606705908200965" lon="9.305000865466715"><ele>527.0</ele><time>2026-03-28T12:43:17.999Z</time></trkpt><trkpt lat="44.60670136573087" lon="9.304793242862633"><ele>527.0</ele><time>2026-03-28T12:43:18.999Z</time></trkpt><trkpt lat="44.60673207878673" lon="9.30460114342174"><ele>528.5</ele><time>2026-03-28T12:43:19.999Z</time></trkpt><trkpt lat="44.60679762242413" lon="9.304433892138706"><ele>530.0</ele><time>2026-03-28T12:43:20.999Z</time></trkpt><trkpt lat="44.60689778047173" lon="9.304333829341022"><ele>531.5</ele><time>2026-03-28T12:43:21.999Z</time></trkpt><trkpt lat="44.60701864215837" lon="9.304318113157903"><ele>533.0</ele><time>2026-03-28T12:43:22.999Z</time></trkpt><trkpt lat="44.60715121361568" lon="9.304338249304648"><ele>533.0</ele><time>2026-03-28T12:43:23.999Z</time></trkpt><trkpt lat="44.607279369060656" lon="9.304321576156255"><ele>533.0</ele><time>2026-03-28T12:43:24.999Z</time></trkpt><trkpt lat="44.607416123815845" lon="9.304263654236689"><ele>533.0</ele><time>2026-03-28T12:43:25.999Z</time></trkpt><trkpt lat="44.60755688021729" lon="9.304191501148246"><ele>533.0</ele><time>2026-03-28T12:43:26.999Z</time></trkpt><trkpt lat="44.6076932434098" lon="9.304078928503351"><ele>533.0</ele><time>2026-03-28T12:43:27.999Z</time></trkpt><trkpt lat="44.607821898465666" lon="9.303953053990158"><ele>533.0</ele><time>2026-03-28T12:43:28.999Z</time></trkpt><trkpt lat="44.60795021225258" lon="9.303812814286628"><ele>533.0</ele><time>2026-03-28T12:43:29.999Z</time></trkpt><trkpt lat="44.60807663865855" lon="9.303662786071603"><ele>533.3333333333333</ele><time>2026-03-28T12:43:30.999Z</time></trkpt><trkpt lat="44.60819319705895" lon="9.303493953244779"><ele>533.6666666666666</ele><time>2026-03-28T12:43:31.999Z</time></trkpt><trkpt lat="44.60829186522786" lon="9.30330496930889"><ele>534.0</ele><time>2026-03-28T12:43:32.999Z</time></trkpt><trkpt lat="44.608365134866794" lon="9.303110410425038"><ele>533.5</ele><time>2026-03-28T12:43:33.999Z</time></trkpt><trkpt lat="44.60843235492623" lon="9.302935427332052"><ele>533.0</ele><time>2026-03-28T12:43:34.999Z</time></trkpt><trkpt lat="44.60850347378039" lon="9.302776102744584"><ele>532.5</ele><time>2026-03-28T12:43:35.999Z</time></trkpt><trkpt lat="44.60853639048963" lon="9.302602134429284"><ele>532.0</ele><time>2026-03-28T12:43:36.999Z</time></trkpt><trkpt lat="44.608521328962055" lon="9.302409474709998"><ele>531.5</ele><time>2026-03-28T12:43:37.999Z</time></trkpt><trkpt lat="44.60848903027028" lon="9.30222045389252"><ele>531.0</ele><time>2026-03-28T12:43:38.999Z</time></trkpt><trkpt lat="44.60846336889953" lon="9.302026396183892"><ele>530.5</ele><time>2026-03-28T12:43:39.999Z</time></trkpt><trkpt lat="44.60843912568859" lon="9.301832787896775"><ele>530.0</ele><time>2026-03-28T12:43:40.999Z</time></trkpt><trkpt lat="44.608418151319064" lon="9.301636492194515"><ele>530.0</ele><time>2026-03-28T12:43:41.999Z</time></trkpt><trkpt lat="44.60840317236283" lon="9.301443156519833"><ele>530.0</ele><time>2026-03-28T12:43:42.999Z</time></trkpt><trkpt lat="44.60839623284808" lon="9.301244430245571"><ele>530.0</ele><time>2026-03-28T12:43:43.999Z</time></trkpt><trkpt lat="44.60837839178383" lon="9.301034910551474"><ele>530.0</ele><time>2026-03-28T12:43:44.999Z</time></trkpt><trkpt lat="44.60837292595905" lon="9.300824148085102"><ele>531.0</ele><time>2026-03-28T12:43:45.999Z</time></trkpt><trkpt lat="44.60837186357557" lon="9.300607841584885"><ele>532.0</ele><time>2026-03-28T12:43:46.999Z</time></trkpt><trkpt lat="44.608367975340286" lon="9.300391003179843"><ele>533.0</ele><time>2026-03-28T12:43:47.999Z</time></trkpt><trkpt lat="44.60835568109152" lon="9.300174579628113"><ele>535.6666666666666</ele><time>2026-03-28T12:43:48.999Z</time></trkpt><trkpt lat="44.60833472281229" lon="9.299956063684114"><ele>538.3333333333334</ele><time>2026-03-28T12:43:49.999Z</time></trkpt><trkpt lat="44.608310292111874" lon="9.299734852345333"><ele>541.0</ele><time>2026-03-28T12:43:50.999Z</time></trkpt><trkpt lat="44.608277595850666" lon="9.299511011648304"><ele>543.0</ele><time>2026-03-28T12:43:51.999Z</time></trkpt><trkpt lat="44.608244666294325" lon="9.299286552359924"><ele>545.0</ele><time>2026-03-28T12:43:52.999Z</time></trkpt><trkpt lat="44.60821104409247" lon="9.299064919037344"><ele>547.0</ele><time>2026-03-28T12:43:53.999Z</time></trkpt><trkpt lat="44.60818438642988" lon="9.298848344316307"><ele>548.5</ele><time>2026-03-28T12:43:54.999Z</time></trkpt><trkpt lat="44.608161161338124" lon="9.298649551263145"><ele>550.0</ele><time>2026-03-28T12:43:55.999Z</time></trkpt><trkpt lat="44.608125745435956" lon="9.298463270098091"><ele>551.5</ele><time>2026-03-28T12:43:56.999Z</time></trkpt><trkpt lat="44.608083333737426" lon="9.298303647727348"><ele>553.0</ele><time>2026-03-28T12:43:57.999Z</time></trkpt><trkpt lat="44.60801526180696" lon="9.298183420053629"><ele>556.0</ele><time>2026-03-28T12:43:58.999Z</time></trkpt><trkpt lat="44.60790906526777" lon="9.298059217264463"><ele>559.0</ele><time>2026-03-28T12:44:00Z</time></trkpt><trkpt lat="44.60777143576719" lon="9.297987176479667"><ele>562.0</ele><time>2026-03-28T12:44:01Z</time></trkpt><trkpt lat="44.60763687526815" lon="9.297916982512925"><ele>565.0</ele><time>2026-03-28T12:44:02Z</time></trkpt><trkpt lat="44.607513796494125" lon="9.297826424166368"><ele>554.6666666666667</ele><time>2026-03-28T12:44:03Z</time></trkpt><trkpt lat="44.607388489721664" lon="9.29771041352284"><ele>544.3333333333334</ele><time>2026-03-28T12:44:04Z</time></trkpt><trkpt lat="44.60730663108697" lon="9.297522968906785"><ele>534.0</ele><time>2026-03-28T12:44:05Z</time></trkpt><trkpt lat="44.607203145539" lon="9.297361559055688"><ele>532.0</ele><time>2026-03-28T12:44:06Z</time></trkpt><trkpt lat="44.60710707786441" lon="9.297198004265818"><ele>530.0</ele><time>2026-03-28T12:44:07Z</time></trkpt><trkpt lat="44.60702952041487" lon="9.297031656128183"><ele>528.0</ele><time>2026-03-28T12:44:08Z</time></trkpt><trkpt lat="44.60695854731743" lon="9.296859493753821"><ele>526.0</ele><time>2026-03-28T12:44:09Z</time></trkpt><trkpt lat="44.606904544222694" lon="9.296670013374877"><ele>526.0</ele><time>2026-03-28T12:44:10Z</time></trkpt><trkpt lat="44.606873067190996" lon="9.29646540101599"><ele>526.0</ele><time>2026-03-28T12:44:11Z</time></trkpt><trkpt lat="44.606849613773406" lon="9.296263400572586"><ele>526.0</ele><time>2026-03-28T12:44:12Z</time></trkpt><trkpt lat="44.6067865090012" lon="9.296080430378272"><ele>526.0</ele><time>2026-03-28T12:44:13Z</time></trkpt><trkpt lat="44.606702674841536" lon="9.295909245984015"><ele>526.75</ele><time>2026-03-28T12:44:14Z</time></trkpt><trkpt lat="44.60662019696893" lon="9.295736793492665"><ele>527.5</ele><time>2026-03-28T12:44:15Z</time></trkpt><trkpt lat="44.60654137470063" lon="9.295565582233609"><ele>528.25</ele><time>2026-03-28T12:44:16Z</time></trkpt><trkpt lat="44.60646173856005" lon="9.295393891705563"><ele>529.0</ele><time>2026-03-28T12:44:17Z</time></trkpt><trkpt lat="44.606378706643284" lon="9.295222487534616"><ele>529.0</ele><time>2026-03-28T12:44:18Z</time></trkpt><trkpt lat="44.606292456269095" lon="9.295053107704751"><ele>529.0</ele><time>2026-03-28T12:44:19Z</time></trkpt><trkpt lat="44.606209235796356" lon="9.294884549831641"><ele>529.0</ele><time>2026-03-28T12:44:20Z</time></trkpt><trkpt lat="44.60612986797461" lon="9.294713518730235"><ele>529.0</ele><time>2026-03-28T12:44:21Z</time></trkpt><trkpt lat="44.60605048868129" lon="9.29454548569168"><ele>527.75</ele><time>2026-03-28T12:44:22Z</time></trkpt><trkpt lat="44.60596956776559" lon="9.294376551444985"><ele>526.5</ele><time>2026-03-28T12:44:23Z</time></trkpt><trkpt lat="44.60589156073908" lon="9.294207918558154"><ele>525.25</ele><time>2026-03-28T12:44:24Z</time></trkpt><trkpt lat="44.605810904020345" lon="9.294052655068624"><ele>524.0</ele><time>2026-03-28T12:44:25Z</time></trkpt><trkpt lat="44.605734544336315" lon="9.29389277530174"><ele>524.0</ele><time>2026-03-28T12:44:26Z</time></trkpt><trkpt lat="44.605657791321455" lon="9.293739553345912"><ele>524.0</ele><time>2026-03-28T12:44:27Z</time></trkpt><trkpt lat="44.60558432880866" lon="9.293589747723555"><ele>524.0</ele><time>2026-03-28T12:44:28Z</time></trkpt><trkpt lat="44.605514746228764" lon="9.293441901388798"><ele>524.0</ele><time>2026-03-28T12:44:29Z</time></trkpt><trkpt lat="44.605446283660086" lon="9.293298469995756"><ele>524.0</ele><time>2026-03-28T12:44:30Z</time></trkpt><trkpt lat="44.60538164248094" lon="9.293161403862715"><ele>524.0</ele><time>2026-03-28T12:44:31Z</time></trkpt><trkpt lat="44.60531382239583" lon="9.293030663710615"><ele>524.0</ele><time>2026-03-28T12:44:32Z</time></trkpt><trkpt lat="44.60524661742615" lon="9.292894459141197"><ele>524.0</ele><time>2026-03-28T12:44:33Z</time></trkpt><trkpt lat="44.60518067076732" lon="9.292754563157098"><ele>524.25</ele><time>2026-03-28T12:44:34Z</time></trkpt><trkpt lat="44.605116079925935" lon="9.292619398981415"><ele>524.5</ele><time>2026-03-28T12:44:35Z</time></trkpt><trkpt lat="44.60504973025016" lon="9.29248749591381"><ele>524.75</ele><time>2026-03-28T12:44:36Z</time></trkpt><trkpt lat="44.6049853695959" lon="9.292359496103973"><ele>525.0</ele><time>2026-03-28T12:44:37Z</time></trkpt><trkpt lat="44.60492066286182" lon="9.29223338882389"><ele>525.75</ele><time>2026-03-28T12:44:38Z</time></trkpt><trkpt lat="44.60485094449805" lon="9.292112481261613"><ele>526.5</ele><time>2026-03-28T12:44:39Z</time></trkpt><trkpt lat="44.60477261246894" lon="9.291994458003701"><ele>527.25</ele><time>2026-03-28T12:44:40Z</time></trkpt><trkpt lat="44.60468472367377" lon="9.29189426374618"><ele>528.0</ele><time>2026-03-28T12:44:41Z</time></trkpt><trkpt lat="44.60458611303167" lon="9.291817107917089"><ele>527.25</ele><time>2026-03-28T12:44:42Z</time></trkpt><trkpt lat="44.604483269482756" lon="9.291753606220587"><ele>526.5</ele><time>2026-03-28T12:44:43Z</time></trkpt><trkpt lat="44.60437593125341" lon="9.291703742823483"><ele>525.75</ele><time>2026-03-28T12:44:44Z</time></trkpt><trkpt lat="44.604264515545225" lon="9.291657690513137"><ele>525.0</ele><time>2026-03-28T12:44:45Z</time></trkpt><trkpt lat="44.60415681031" lon="9.291601959479497"><ele>525.0</ele><time>2026-03-28T12:44:46Z</time></trkpt><trkpt lat="44.60404864815384" lon="9.291543064326282"><ele>525.0</ele><time>2026-03-28T12:44:47Z</time></trkpt><trkpt lat="44.60394006219178" lon="9.291472632068498"><ele>525.0</ele><time>2026-03-28T12:44:48Z</time></trkpt><trkpt lat="44.603822209425566" lon="9.291432895319165"><ele>525.0</ele><time>2026-03-28T12:44:49Z</time></trkpt><trkpt lat="44.603709617363286" lon="9.291375747900059"><ele>524.25</ele><time>2026-03-28T12:44:49.999Z</time></trkpt><trkpt lat="44.603593865823804" lon="9.291312067071809"><ele>523.5</ele><time>2026-03-28T12:44:50.999Z</time></trkpt><trkpt lat="44.60347888534013" lon="9.291248782909024"><ele>522.75</ele><time>2026-03-28T12:44:51.999Z</time></trkpt><trkpt lat="44.60336171617236" lon="9.291188697798205"><ele>522.0</ele><time>2026-03-28T12:44:52.999Z</time></trkpt><trkpt lat="44.60324137205591" lon="9.291128707011408"><ele>522.0</ele><time>2026-03-28T12:44:53.999Z</time></trkpt><trkpt lat="44.603117719519275" lon="9.291069890757063"><ele>522.0</ele><time>2026-03-28T12:44:54.999Z</time></trkpt><trkpt lat="44.60299463327167" lon="9.291010030773508"><ele>522.0</ele><time>2026-03-28T12:44:55.999Z</time></trkpt><trkpt lat="44.60287058355957" lon="9.290946772465203"><ele>522.0</ele><time>2026-03-28T12:44:56.999Z</time></trkpt><trkpt lat="44.60274394417984" lon="9.290884246943616"><ele>524.25</ele><time>2026-03-28T12:44:57.999Z</time></trkpt><trkpt lat="44.602615733820876" lon="9.290819375531765"><ele>526.5</ele><time>2026-03-28T12:44:58.999Z</time></trkpt><trkpt lat="44.60248432750934" lon="9.290753677265512"><ele>528.75</ele><time>2026-03-28T12:44:59.999Z</time></trkpt><trkpt lat="44.6023524724508" lon="9.29068552043918"><ele>531.0</ele><time>2026-03-28T12:45:00.999Z</time></trkpt><trkpt lat="44.602217991063625" lon="9.29061644479997"><ele>531.0</ele><time>2026-03-28T12:45:01.999Z</time></trkpt><trkpt lat="44.60208193761758" lon="9.290546470619022"><ele>531.0</ele><time>2026-03-28T12:45:02.999Z</time></trkpt><trkpt lat="44.60194577513357" lon="9.290474774947494"><ele>531.0</ele><time>2026-03-28T12:45:03.999Z</time></trkpt><trkpt lat="44.60181187906072" lon="9.290404870318332"><ele>531.0</ele><time>2026-03-28T12:45:04.999Z</time></trkpt><trkpt lat="44.60167838489156" lon="9.290342850586967"><ele>531.0</ele><time>2026-03-28T12:45:05.999Z</time></trkpt><trkpt lat="44.601543157696845" lon="9.290304150515901"><ele>531.0</ele><time>2026-03-28T12:45:06.999Z</time></trkpt><trkpt lat="44.60140245318432" lon="9.290289240710296"><ele>531.0</ele><time>2026-03-28T12:45:07.999Z</time></trkpt><trkpt lat="44.601255677608876" lon="9.290302098476241"><ele>531.0</ele><time>2026-03-28T12:45:08.999Z</time></trkpt><trkpt lat="44.60110453250439" lon="9.290321251535316"><ele>531.0</ele><time>2026-03-28T12:45:09.999Z</time></trkpt><trkpt lat="44.60095798843958" lon="9.29037715254039"><ele>531.0</ele><time>2026-03-28T12:45:10.999Z</time></trkpt><trkpt lat="44.60080817436459" lon="9.29044389848226"><ele>531.0</ele><time>2026-03-28T12:45:11.999Z</time></trkpt><trkpt lat="44.600663775032515" lon="9.290534187233435"><ele>531.3333333333334</ele><time>2026-03-28T12:45:12.999Z</time></trkpt><trkpt lat="44.60052540819688" lon="9.290612351928564"><ele>531.6666666666667</ele><time>2026-03-28T12:45:13.999Z</time></trkpt><trkpt lat="44.60039799428685" lon="9.29068679100524"><ele>532.0</ele><time>2026-03-28T12:45:14.999Z</time></trkpt><trkpt lat="44.60028012127383" lon="9.290862967181043"><ele>532.0</ele><time>2026-03-28T12:45:15.999Z</time></trkpt><trkpt lat="44.60018630432392" lon="9.291040864999761"><ele>532.0</ele><time>2026-03-28T12:45:16.999Z</time></trkpt><trkpt lat="44.600091671650894" lon="9.291227934077357"><ele>532.0</ele><time>2026-03-28T12:45:17.999Z</time></trkpt><trkpt lat="44.60000922906092" lon="9.291397793410928"><ele>536.0</ele><time>2026-03-28T12:45:18.999Z</time></trkpt><trkpt lat="44.59991724085003" lon="9.291599569169332"><ele>540.0</ele><time>2026-03-28T12:45:19.999Z</time></trkpt><trkpt lat="44.599830781910164" lon="9.291803217610433"><ele>544.0</ele><time>2026-03-28T12:45:20.999Z</time></trkpt><trkpt lat="44.59975020640998" lon="9.2919979899878"><ele>544.0</ele><time>2026-03-28T12:45:21.999Z</time></trkpt><trkpt lat="44.59967407867079" lon="9.292197825099672"><ele>544.0</ele><time>2026-03-28T12:45:22.999Z</time></trkpt><trkpt lat="44.59960254073735" lon="9.292401445438694"><ele>544.0</ele><time>2026-03-28T12:45:23.999Z</time></trkpt><trkpt lat="44.599541272077694" lon="9.292579914745017"><ele>541.75</ele><time>2026-03-28T12:45:24.999Z</time></trkpt><trkpt lat="44.59947067867441" lon="9.2927293841649"><ele>539.5</ele><time>2026-03-28T12:45:25.999Z</time></trkpt><trkpt lat="44.599359934300054" lon="9.292833903091386"><ele>537.25</ele><time>2026-03-28T12:45:26.999Z</time></trkpt><trkpt lat="44.59924368519953" lon="9.292913428760432"><ele>535.0</ele><time>2026-03-28T12:45:27.999Z</time></trkpt><trkpt lat="44.599110165155295" lon="9.292995730390254"><ele>535.0</ele><time>2026-03-28T12:45:28.999Z</time></trkpt><trkpt lat="44.59896684305315" lon="9.293074418385427"><ele>535.0</ele><time>2026-03-28T12:45:29.999Z</time></trkpt><trkpt lat="44.59881372232721" lon="9.293158524747069"><ele>535.0</ele><time>2026-03-28T12:45:30.999Z</time></trkpt><trkpt lat="44.59865335433208" lon="9.293250564803179"><ele>538.6666666666667</ele><time>2026-03-28T12:45:31.999Z</time></trkpt><trkpt lat="44.598497274859774" lon="9.293340143575367"><ele>542.3333333333334</ele><time>2026-03-28T12:45:32.999Z</time></trkpt><trkpt lat="44.598335878009834" lon="9.293432774106144"><ele>546.0</ele><time>2026-03-28T12:45:33.999Z</time></trkpt><trkpt lat="44.59819198560526" lon="9.293517333026179"><ele>546.0</ele><time>2026-03-28T12:45:34.999Z</time></trkpt><trkpt lat="44.59805515976851" lon="9.293582673550148"><ele>546.0</ele><time>2026-03-28T12:45:35.999Z</time></trkpt><trkpt lat="44.59791859122821" lon="9.293615959832788"><ele>546.0</ele><time>2026-03-28T12:45:36.999Z</time></trkpt><trkpt lat="44.597770355546395" lon="9.293633729837875"><ele>546.0</ele><time>2026-03-28T12:45:37.999Z</time></trkpt><trkpt lat="44.597619642801384" lon="9.293613412195317"><ele>545.3333333333334</ele><time>2026-03-28T12:45:38.999Z</time></trkpt><trkpt lat="44.59746889568311" lon="9.29355882251265"><ele>544.6666666666667</ele><time>2026-03-28T12:45:39.999Z</time></trkpt><trkpt lat="44.59732768130856" lon="9.293447687375378"><ele>544.0</ele><time>2026-03-28T12:45:40.999Z</time></trkpt><trkpt lat="44.597178473345444" lon="9.29334357342896"><ele>544.0</ele><time>2026-03-28T12:45:41.999Z</time></trkpt><trkpt lat="44.597018711637695" lon="9.293259199622714"><ele>544.0</ele><time>2026-03-28T12:45:42.999Z</time></trkpt><trkpt lat="44.596852436704076" lon="9.293187893703744"><ele>544.0</ele><time>2026-03-28T12:45:43.999Z</time></trkpt><trkpt lat="44.59667977590631" lon="9.2931178974443"><ele>541.3333333333334</ele><time>2026-03-28T12:45:44.999Z</time></trkpt><trkpt lat="44.59650093036144" lon="9.293059021542593"><ele>538.6666666666666</ele><time>2026-03-28T12:45:45.999Z</time></trkpt><trkpt lat="44.59631536795444" lon="9.293006032580555"><ele>536.0</ele><time>2026-03-28T12:45:46.999Z</time></trkpt><trkpt lat="44.59612812898008" lon="9.292952290312593"><ele>536.0</ele><time>2026-03-28T12:45:47.999Z</time></trkpt><trkpt lat="44.59594657891692" lon="9.292902888761219"><ele>536.0</ele><time>2026-03-28T12:45:48.999Z</time></trkpt><trkpt lat="44.59577452723834" lon="9.29282742291721"><ele>536.0</ele><time>2026-03-28T12:45:49.999Z</time></trkpt><trkpt lat="44.59560743691502" lon="9.292776556127022"><ele>536.0</ele><time>2026-03-28T12:45:50.999Z</time></trkpt><trkpt lat="44.595440906381796" lon="9.292727189354128"><ele>536.0</ele><time>2026-03-28T12:45:51.999Z</time></trkpt><trkpt lat="44.59529030714961" lon="9.29268286019447"><ele>536.0</ele><time>2026-03-28T12:45:52.999Z</time></trkpt><trkpt lat="44.595154453031434" lon="9.292646493134287"><ele>540.75</ele><time>2026-03-28T12:45:53.999Z</time></trkpt><trkpt lat="44.595063626850205" lon="9.292505497751234"><ele>545.5</ele><time>2026-03-28T12:45:54.999Z</time></trkpt><trkpt lat="44.59494892279344" lon="9.29238884720935"><ele>550.25</ele><time>2026-03-28T12:45:55.999Z</time></trkpt><trkpt lat="44.594826004441636" lon="9.292293930349558"><ele>555.0</ele><time>2026-03-28T12:45:56.999Z</time></trkpt><trkpt lat="44.5946796796767" lon="9.29228734238388"><ele>554.6666666666666</ele><time>2026-03-28T12:45:57.999Z</time></trkpt><trkpt lat="44.594536212680765" lon="9.292253572159405"><ele>554.3333333333333</ele><time>2026-03-28T12:45:58.999Z</time></trkpt><trkpt lat="44.59439615740453" lon="9.29218725725505"><ele>554.0</ele><time>2026-03-28T12:45:59.999Z</time></trkpt><trkpt lat="44.59427306241359" lon="9.292051527522029"><ele>554.0</ele><time>2026-03-28T12:46:00.999Z</time></trkpt><trkpt lat="44.59417850812619" lon="9.291890328116574"><ele>554.0</ele><time>2026-03-28T12:46:01.999Z</time></trkpt><trkpt lat="44.59411167201749" lon="9.29170893978123"><ele>554.0</ele><time>2026-03-28T12:46:02.999Z</time></trkpt><trkpt lat="44.59405883621793" lon="9.291497958744467"><ele>549.0</ele><time>2026-03-28T12:46:03.999Z</time></trkpt><trkpt lat="44.594023711462135" lon="9.291274398351534"><ele>544.0</ele><time>2026-03-28T12:46:04.999Z</time></trkpt><trkpt lat="44.593962387797674" lon="9.291055813936074"><ele>539.0</ele><time>2026-03-28T12:46:06Z</time></trkpt><trkpt lat="44.59388811017516" lon="9.290843658311502"><ele>539.0</ele><time>2026-03-28T12:46:07Z</time></trkpt><trkpt lat="44.59379613381391" lon="9.290638136394852"><ele>539.0</ele><time>2026-03-28T12:46:08Z</time></trkpt><trkpt lat="44.59368882170584" lon="9.290441204328681"><ele>539.0</ele><time>2026-03-28T12:46:09Z</time></trkpt><trkpt lat="44.59357673323504" lon="9.290248571525524"><ele>541.6666666666666</ele><time>2026-03-28T12:46:10Z</time></trkpt><trkpt lat="44.593461955932405" lon="9.290056829846188"><ele>544.3333333333334</ele><time>2026-03-28T12:46:11Z</time></trkpt><trkpt lat="44.59335493821481" lon="9.289858236877027"><ele>547.0</ele><time>2026-03-28T12:46:12Z</time></trkpt><trkpt lat="44.59325012495081" lon="9.289648453463252"><ele>547.0</ele><time>2026-03-28T12:46:13Z</time></trkpt><trkpt lat="44.593148615768094" lon="9.289432219512516"><ele>547.0</ele><time>2026-03-28T12:46:14Z</time></trkpt><trkpt lat="44.59305984962173" lon="9.289223101487357"><ele>547.0</ele><time>2026-03-28T12:46:15Z</time></trkpt><trkpt lat="44.5929705086915" lon="9.289044036684263"><ele>546.0</ele><time>2026-03-28T12:46:16Z</time></trkpt><trkpt lat="44.592874618213614" lon="9.2888858082287"><ele>545.0</ele><time>2026-03-28T12:46:17Z</time></trkpt><trkpt lat="44.59277024652811" lon="9.288771402001087"><ele>544.0</ele><time>2026-03-28T12:46:18Z</time></trkpt><trkpt lat="44.592658229775324" lon="9.28866942291493"><ele>543.0</ele><time>2026-03-28T12:46:19Z</time></trkpt><trkpt lat="44.592521373453486" lon="9.288618483541578"><ele>543.0</ele><time>2026-03-28T12:46:20Z</time></trkpt><trkpt lat="44.592379977379196" lon="9.288634425359803"><ele>543.0</ele><time>2026-03-28T12:46:21Z</time></trkpt><trkpt lat="44.5922404758711" lon="9.288674599471003"><ele>543.0</ele><time>2026-03-28T12:46:22Z</time></trkpt><trkpt lat="44.59211230201288" lon="9.288722732975701"><ele>543.0</ele><time>2026-03-28T12:46:23Z</time></trkpt><trkpt lat="44.59198832804587" lon="9.288758049606608"><ele>544.75</ele><time>2026-03-28T12:46:24Z</time></trkpt><trkpt lat="44.59185891348502" lon="9.288772809111554"><ele>546.5</ele><time>2026-03-28T12:46:25Z</time></trkpt><trkpt lat="44.59172347966909" lon="9.288738236563361"><ele>548.25</ele><time>2026-03-28T12:46:26Z</time></trkpt><trkpt lat="44.59158259744476" lon="9.288685342374194"><ele>550.0</ele><time>2026-03-28T12:46:27Z</time></trkpt><trkpt lat="44.59143848193419" lon="9.288600078529743"><ele>550.0</ele><time>2026-03-28T12:46:28Z</time></trkpt><trkpt lat="44.59128934118526" lon="9.288516744670702"><ele>550.0</ele><time>2026-03-28T12:46:29Z</time></trkpt><trkpt lat="44.59115555989485" lon="9.288439480962094"><ele>550.0</ele><time>2026-03-28T12:46:30Z</time></trkpt><trkpt lat="44.59104066983488" lon="9.288329848515884"><ele>550.0</ele><time>2026-03-28T12:46:31Z</time></trkpt><trkpt lat="44.59094816600794" lon="9.288175983455085"><ele>551.0</ele><time>2026-03-28T12:46:32Z</time></trkpt><trkpt lat="44.59088205585446" lon="9.287987230557922"><ele>552.0</ele><time>2026-03-28T12:46:33Z</time></trkpt><trkpt lat="44.59082476399066" lon="9.287787821894067"><ele>553.0</ele><time>2026-03-28T12:46:34Z</time></trkpt><trkpt lat="44.59077365898915" lon="9.287571679124623"><ele>553.0</ele><time>2026-03-28T12:46:35Z</time></trkpt><trkpt lat="44.59071225046696" lon="9.287360377215263"><ele>553.0</ele><time>2026-03-28T12:46:36Z</time></trkpt><trkpt lat="44.59064186187972" lon="9.287140214340539"><ele>553.0</ele><time>2026-03-28T12:46:37Z</time></trkpt><trkpt lat="44.590566863253585" lon="9.286914698663296"><ele>551.0</ele><time>2026-03-28T12:46:38Z</time></trkpt><trkpt lat="44.590498664029724" lon="9.286682939324505"><ele>549.0</ele><time>2026-03-28T12:46:39Z</time></trkpt><trkpt lat="44.59042677276238" lon="9.286450452472351"><ele>547.0</ele><time>2026-03-28T12:46:40Z</time></trkpt><trkpt lat="44.59034899913278" lon="9.286226554996443"><ele>551.0</ele><time>2026-03-28T12:46:41Z</time></trkpt><trkpt lat="44.59026730918426" lon="9.286030060855483"><ele>555.0</ele><time>2026-03-28T12:46:42Z</time></trkpt><trkpt lat="44.590167423891685" lon="9.28587505042392"><ele>559.0</ele><time>2026-03-28T12:46:43Z</time></trkpt><trkpt lat="44.59004581885388" lon="9.285740771687898"><ele>559.0</ele><time>2026-03-28T12:46:44Z</time></trkpt><trkpt lat="44.58991795912555" lon="9.285611172408553"><ele>559.0</ele><time>2026-03-28T12:46:45Z</time></trkpt><trkpt lat="44.58980594133406" lon="9.285461088652928"><ele>559.0</ele><time>2026-03-28T12:46:46Z</time></trkpt><trkpt lat="44.58971399825543" lon="9.285274282994473"><ele>562.0</ele><time>2026-03-28T12:46:47Z</time></trkpt><trkpt lat="44.589637925191624" lon="9.285064452534861"><ele>565.0</ele><time>2026-03-28T12:46:48Z</time></trkpt><trkpt lat="44.58956656126805" lon="9.28485336034867"><ele>568.0</ele><time>2026-03-28T12:46:49Z</time></trkpt><trkpt lat="44.58947954362967" lon="9.284640889887564"><ele>568.0</ele><time>2026-03-28T12:46:50Z</time></trkpt><trkpt lat="44.58939360970116" lon="9.284429232088685"><ele>568.0</ele><time>2026-03-28T12:46:51Z</time></trkpt><trkpt lat="44.58931955943022" lon="9.284232778638103"><ele>568.0</ele><time>2026-03-28T12:46:52Z</time></trkpt><trkpt lat="44.58927745518575" lon="9.284036733656352"><ele>568.0</ele><time>2026-03-28T12:46:53Z</time></trkpt><trkpt lat="44.58927596617576" lon="9.283824117233971"><ele>568.0</ele><time>2026-03-28T12:46:54Z</time></trkpt><trkpt lat="44.58930025879346" lon="9.283615789388802"><ele>568.0</ele><time>2026-03-28T12:46:55Z</time></trkpt><trkpt lat="44.589309321068114" lon="9.283403048768994"><ele>568.0</ele><time>2026-03-28T12:46:56Z</time></trkpt><trkpt lat="44.58929011224873" lon="9.28317874039835"><ele>568.0</ele><time>2026-03-28T12:46:57Z</time></trkpt><trkpt lat="44.589247729254275" lon="9.282957866556808"><ele>568.0</ele><time>2026-03-28T12:46:58Z</time></trkpt><trkpt lat="44.58919668071335" lon="9.282767081531238"><ele>566.0</ele><time>2026-03-28T12:46:59Z</time></trkpt><trkpt lat="44.58914486866982" lon="9.282588170126221"><ele>564.0</ele><time>2026-03-28T12:47:00Z</time></trkpt><trkpt lat="44.589093251689675" lon="9.282424785150972"><ele>562.0</ele><time>2026-03-28T12:47:00.999Z</time></trkpt><trkpt lat="44.589046392603805" lon="9.28228325285476"><ele>560.0</ele><time>2026-03-28T12:47:01.999Z</time></trkpt><trkpt lat="44.5890038793779" lon="9.282168644088424"><ele>560.0</ele><time>2026-03-28T12:47:02.999Z</time></trkpt><trkpt lat="44.58896001078453" lon="9.28208078711823"><ele>560.0</ele><time>2026-03-28T12:47:03.999Z</time></trkpt><trkpt lat="44.58891505289099" lon="9.281983158102374"><ele>560.0</ele><time>2026-03-28T12:47:05.999Z</time></trkpt><trkpt lat="44.588878594296645" lon="9.281902929665575"><ele>560.0</ele><time>2026-03-28T12:48:17Z</time></trkpt><trkpt lat="44.58879437142458" lon="9.28183103218337"><ele>560.0</ele><time>2026-03-28T12:48:19Z</time></trkpt><trkpt lat="44.58867314645658" lon="9.281778983839462"><ele>560.0</ele><time>2026-03-28T12:48:21Z</time></trkpt><trkpt lat="44.58860135906813" lon="9.281720602939046"><ele>560.0</ele><time>2026-03-28T12:48:22Z</time></trkpt><trkpt lat="44.58851937357196" lon="9.281711819022972"><ele>560.0</ele><time>2026-03-28T12:48:23Z</time></trkpt><trkpt lat="44.588420204395284" lon="9.281736000592494"><ele>560.0</ele><time>2026-03-28T12:48:24Z</time></trkpt><trkpt lat="44.588330673294905" lon="9.281780274393356"><ele>560.0</ele><time>2026-03-28T12:48:25Z</time></trkpt><trkpt lat="44.58824232459027" lon="9.281839448026552"><ele>560.0</ele><time>2026-03-28T12:48:26Z</time></trkpt><trkpt lat="44.58815875155009" lon="9.281895103279828"><ele>560.0</ele><time>2026-03-28T12:48:27Z</time></trkpt><trkpt lat="44.588076413203005" lon="9.281948442716752"><ele>560.0</ele><time>2026-03-28T12:48:28Z</time></trkpt><trkpt lat="44.58799374559749" lon="9.28199802131749"><ele>560.0</ele><time>2026-03-28T12:48:29Z</time></trkpt><trkpt lat="44.58791152863863" lon="9.282042361573641"><ele>560.0</ele><time>2026-03-28T12:48:30Z</time></trkpt><trkpt lat="44.58782124544173" lon="9.282063139607063"><ele>560.0</ele><time>2026-03-28T12:48:31Z</time></trkpt><trkpt lat="44.587727571885445" lon="9.282048806737157"><ele>560.0</ele><time>2026-03-28T12:48:32Z</time></trkpt><trkpt lat="44.587632142710845" lon="9.282008844783324"><ele>560.0</ele><time>2026-03-28T12:48:33Z</time></trkpt><trkpt lat="44.58753865189556" lon="9.281945113314523"><ele>560.0</ele><time>2026-03-28T12:48:34Z</time></trkpt><trkpt lat="44.58744143650305" lon="9.281866789118837"><ele>560.0</ele><time>2026-03-28T12:48:35Z</time></trkpt><trkpt lat="44.58734193712155" lon="9.28178000593918"><ele>560.0</ele><time>2026-03-28T12:48:36Z</time></trkpt><trkpt lat="44.58724248842093" lon="9.28168485864029"><ele>560.0</ele><time>2026-03-28T12:48:37Z</time></trkpt><trkpt lat="44.587145320832526" lon="9.281575830508489"><ele>560.0</ele><time>2026-03-28T12:48:38Z</time></trkpt><trkpt lat="44.587041885058156" lon="9.281466838695417"><ele>560.0</ele><time>2026-03-28T12:48:39Z</time></trkpt><trkpt lat="44.586947677322385" lon="9.281335022406298"><ele>560.5</ele><time>2026-03-28T12:48:40Z</time></trkpt><trkpt lat="44.586860191872866" lon="9.281193169941037"><ele>561.0</ele><time>2026-03-28T12:48:41Z</time></trkpt><trkpt lat="44.58678193650839" lon="9.281030573272888"><ele>561.5</ele><time>2026-03-28T12:48:42Z</time></trkpt><trkpt lat="44.58671101684436" lon="9.28085816740288"><ele>562.0</ele><time>2026-03-28T12:48:43Z</time></trkpt><trkpt lat="44.5866408821732" lon="9.28068512149472"><ele>558.3333333333334</ele><time>2026-03-28T12:48:44Z</time></trkpt><trkpt lat="44.5865694297866" lon="9.280501758544155"><ele>554.6666666666666</ele><time>2026-03-28T12:48:45Z</time></trkpt><trkpt lat="44.58649776241814" lon="9.280300779113778"><ele>551.0</ele><time>2026-03-28T12:48:46Z</time></trkpt><trkpt lat="44.58642048200968" lon="9.280100581721305"><ele>551.0</ele><time>2026-03-28T12:48:47Z</time></trkpt><trkpt lat="44.58634909488457" lon="9.279884225430573"><ele>551.0</ele><time>2026-03-28T12:48:48Z</time></trkpt><trkpt lat="44.58627782253613" lon="9.279656719436051"><ele>551.0</ele><time>2026-03-28T12:48:49Z</time></trkpt><trkpt lat="44.58620467082379" lon="9.279415832727329"><ele>555.3333333333333</ele><time>2026-03-28T12:48:50Z</time></trkpt><trkpt lat="44.58615147764022" lon="9.27916038532351"><ele>559.6666666666666</ele><time>2026-03-28T12:48:51Z</time></trkpt><trkpt lat="44.58608988747481" lon="9.278900740942563"><ele>564.0</ele><time>2026-03-28T12:48:52Z</time></trkpt><trkpt lat="44.5859964372083" lon="9.278644021704858"><ele>564.0</ele><time>2026-03-28T12:48:53Z</time></trkpt><trkpt lat="44.58588681793872" lon="9.278402159539276"><ele>564.0</ele><time>2026-03-28T12:48:54Z</time></trkpt><trkpt lat="44.5857742512967" lon="9.278189936993765"><ele>564.0</ele><time>2026-03-28T12:48:55Z</time></trkpt><trkpt lat="44.58566480130074" lon="9.277973631979307"><ele>562.0</ele><time>2026-03-28T12:48:56Z</time></trkpt><trkpt lat="44.58557279142312" lon="9.277740320635203"><ele>560.0</ele><time>2026-03-28T12:48:57Z</time></trkpt><trkpt lat="44.58546623561094" lon="9.27752026162415"><ele>558.0</ele><time>2026-03-28T12:48:58Z</time></trkpt><trkpt lat="44.5853877676189" lon="9.277330972714832"><ele>557.0</ele><time>2026-03-28T12:48:59Z</time></trkpt><trkpt lat="44.585346873117885" lon="9.277128619809371"><ele>556.0</ele><time>2026-03-28T12:49:00Z</time></trkpt><trkpt lat="44.585323370559706" lon="9.276890834724687"><ele>555.0</ele><time>2026-03-28T12:49:01Z</time></trkpt><trkpt lat="44.58532596080682" lon="9.276657738234192"><ele>562.0</ele><time>2026-03-28T12:49:02Z</time></trkpt><trkpt lat="44.585313473665884" lon="9.276411983979097"><ele>569.0</ele><time>2026-03-28T12:49:03Z</time></trkpt><trkpt lat="44.58530038584769" lon="9.276167918698329"><ele>576.0</ele><time>2026-03-28T12:49:03.999Z</time></trkpt><trkpt lat="44.58528155616517" lon="9.27592612142456"><ele>576.0</ele><time>2026-03-28T12:49:04.999Z</time></trkpt><trkpt lat="44.5852428491501" lon="9.275696145234155"><ele>576.0</ele><time>2026-03-28T12:49:05.999Z</time></trkpt><trkpt lat="44.585166264692084" lon="9.27548215814956"><ele>576.0</ele><time>2026-03-28T12:49:06.999Z</time></trkpt><trkpt lat="44.58508626491444" lon="9.275275389817836"><ele>573.3333333333334</ele><time>2026-03-28T12:49:07.999Z</time></trkpt><trkpt lat="44.585011904488624" lon="9.275065661686394"><ele>570.6666666666667</ele><time>2026-03-28T12:49:08.999Z</time></trkpt><trkpt lat="44.5849294881976" lon="9.27485656917831"><ele>568.0</ele><time>2026-03-28T12:49:09.999Z</time></trkpt><trkpt lat="44.58485658129348" lon="9.274644690887472"><ele>566.6666666666667</ele><time>2026-03-28T12:49:10.999Z</time></trkpt><trkpt lat="44.584787998881644" lon="9.274422628996625"><ele>565.3333333333334</ele><time>2026-03-28T12:49:11.999Z</time></trkpt><trkpt lat="44.58471449350737" lon="9.274206331625843"><ele>564.0</ele><time>2026-03-28T12:49:12.999Z</time></trkpt><trkpt lat="44.584634407249986" lon="9.273993245940007"><ele>563.0</ele><time>2026-03-28T12:49:13.999Z</time></trkpt><trkpt lat="44.584540685195826" lon="9.273795127379138"><ele>562.0</ele><time>2026-03-28T12:49:14.999Z</time></trkpt><trkpt lat="44.58443746834161" lon="9.273601159820483"><ele>561.0</ele><time>2026-03-28T12:49:15.999Z</time></trkpt><trkpt lat="44.58433562345897" lon="9.273407717053125"><ele>563.6666666666666</ele><time>2026-03-28T12:49:16.999Z</time></trkpt><trkpt lat="44.58423170852238" lon="9.273219353132983"><ele>566.3333333333333</ele><time>2026-03-28T12:49:17.999Z</time></trkpt><trkpt lat="44.58412725475158" lon="9.273043786984836"><ele>569.0</ele><time>2026-03-28T12:49:18.999Z</time></trkpt><trkpt lat="44.58402095868297" lon="9.272850835589729"><ele>569.0</ele><time>2026-03-28T12:49:19.999Z</time></trkpt><trkpt lat="44.58392097616551" lon="9.272655644499512"><ele>569.0</ele><time>2026-03-28T12:49:20.999Z</time></trkpt><trkpt lat="44.58381611792348" lon="9.272468830898685"><ele>569.0</ele><time>2026-03-28T12:49:21.999Z</time></trkpt><trkpt lat="44.58370258577675" lon="9.272284739450805"><ele>570.0</ele><time>2026-03-28T12:49:22.999Z</time></trkpt><trkpt lat="44.58358950682926" lon="9.272104741840817"><ele>571.0</ele><time>2026-03-28T12:49:23.999Z</time></trkpt><trkpt lat="44.583486080962544" lon="9.271921184722778"><ele>572.0</ele><time>2026-03-28T12:49:24.999Z</time></trkpt><trkpt lat="44.58334386334251" lon="9.2717752861301"><ele>572.0</ele><time>2026-03-28T12:49:25.999Z</time></trkpt><trkpt lat="44.583199238945674" lon="9.271651241937782"><ele>572.0</ele><time>2026-03-28T12:49:26.999Z</time></trkpt><trkpt lat="44.58304890084259" lon="9.27153850972433"><ele>572.0</ele><time>2026-03-28T12:49:27.999Z</time></trkpt><trkpt lat="44.58289386109749" lon="9.2714300538491"><ele>570.6666666666666</ele><time>2026-03-28T12:49:28.999Z</time></trkpt><trkpt lat="44.58273477962868" lon="9.271318006819826"><ele>569.3333333333334</ele><time>2026-03-28T12:49:29.999Z</time></trkpt><trkpt lat="44.58257732757146" lon="9.271229053144886"><ele>568.0</ele><time>2026-03-28T12:49:30.999Z</time></trkpt><trkpt lat="44.582426154524846" lon="9.271120531508462"><ele>568.0</ele><time>2026-03-28T12:49:31.999Z</time></trkpt><trkpt lat="44.582274300916836" lon="9.271015357363858"><ele>568.0</ele><time>2026-03-28T12:49:32.999Z</time></trkpt><trkpt lat="44.582122259211765" lon="9.270905549338789"><ele>568.0</ele><time>2026-03-28T12:49:33.999Z</time></trkpt><trkpt lat="44.58196965052745" lon="9.270799159073126"><ele>567.6666666666667</ele><time>2026-03-28T12:49:34.999Z</time></trkpt><trkpt lat="44.581816187137115" lon="9.270694694008128"><ele>567.3333333333334</ele><time>2026-03-28T12:49:35.999Z</time></trkpt><trkpt lat="44.58166501373129" lon="9.27058811845127"><ele>567.0</ele><time>2026-03-28T12:49:36.999Z</time></trkpt><trkpt lat="44.58151046558546" lon="9.27048252093266"><ele>567.0</ele><time>2026-03-28T12:49:37.999Z</time></trkpt><trkpt lat="44.581362928331465" lon="9.27035796810165"><ele>567.0</ele><time>2026-03-28T12:49:38.999Z</time></trkpt><trkpt lat="44.58120481170928" lon="9.27026946347217"><ele>567.0</ele><time>2026-03-28T12:49:39.999Z</time></trkpt><trkpt lat="44.58103537218721" lon="9.270214683265191"><ele>569.0</ele><time>2026-03-28T12:49:40.999Z</time></trkpt><trkpt lat="44.58086809447063" lon="9.270179347895239"><ele>571.0</ele><time>2026-03-28T12:49:41.999Z</time></trkpt><trkpt lat="44.580699384579745" lon="9.270147470838983"><ele>573.0</ele><time>2026-03-28T12:49:42.999Z</time></trkpt><trkpt lat="44.58052968948624" lon="9.270122033780348"><ele>573.0</ele><time>2026-03-28T12:49:43.999Z</time></trkpt><trkpt lat="44.580358813957154" lon="9.270121721830115"><ele>573.0</ele><time>2026-03-28T12:49:44.999Z</time></trkpt><trkpt lat="44.580187854532" lon="9.27009673522809"><ele>573.0</ele><time>2026-03-28T12:49:45.999Z</time></trkpt><trkpt lat="44.580018519088235" lon="9.27007426341716"><ele>574.0</ele><time>2026-03-28T12:49:46.999Z</time></trkpt><trkpt lat="44.57984846983005" lon="9.27005319629317"><ele>575.0</ele><time>2026-03-28T12:49:47.999Z</time></trkpt><trkpt lat="44.57967875420514" lon="9.270031166897066"><ele>576.0</ele><time>2026-03-28T12:49:48.999Z</time></trkpt><trkpt lat="44.579508486749596" lon="9.270012168168737"><ele>576.0</ele><time>2026-03-28T12:49:49.999Z</time></trkpt><trkpt lat="44.5793392259601" lon="9.269999118448052"><ele>576.0</ele><time>2026-03-28T12:49:50.999Z</time></trkpt><trkpt lat="44.57917158737214" lon="9.26998355407972"><ele>576.0</ele><time>2026-03-28T12:49:51.999Z</time></trkpt><trkpt lat="44.57900014096093" lon="9.26997896623646"><ele>576.0</ele><time>2026-03-28T12:49:52.999Z</time></trkpt><trkpt lat="44.57883491754977" lon="9.270001338974948"><ele>576.0</ele><time>2026-03-28T12:49:53.999Z</time></trkpt><trkpt lat="44.57866922244644" lon="9.270022091247538"><ele>576.0</ele><time>2026-03-28T12:49:54.999Z</time></trkpt><trkpt lat="44.57850459065362" lon="9.27006953761377"><ele>575.6666666666666</ele><time>2026-03-28T12:49:55.999Z</time></trkpt><trkpt lat="44.57834200571627" lon="9.270119357129513"><ele>575.3333333333333</ele><time>2026-03-28T12:49:56.999Z</time></trkpt><trkpt lat="44.57817780683119" lon="9.270169429851135"><ele>575.0</ele><time>2026-03-28T12:49:57.999Z</time></trkpt><trkpt lat="44.57801063522721" lon="9.270216509105417"><ele>575.0</ele><time>2026-03-28T12:49:58.999Z</time></trkpt><trkpt lat="44.577842897585896" lon="9.270248129298025"><ele>575.0</ele><time>2026-03-28T12:49:59.999Z</time></trkpt><trkpt lat="44.577675625509364" lon="9.270261681176942"><ele>575.0</ele><time>2026-03-28T12:50:00.999Z</time></trkpt><trkpt lat="44.57751029692596" lon="9.27025598388888"><ele>575.0</ele><time>2026-03-28T12:50:01.999Z</time></trkpt><trkpt lat="44.57734102631165" lon="9.270254960562406"><ele>575.0</ele><time>2026-03-28T12:50:02.999Z</time></trkpt><trkpt lat="44.577173970319045" lon="9.270228587699822"><ele>575.0</ele><time>2026-03-28T12:50:03.999Z</time></trkpt><trkpt lat="44.577022433236344" lon="9.270212646629789"><ele>575.6666666666666</ele><time>2026-03-28T12:50:04.999Z</time></trkpt><trkpt lat="44.576879805319" lon="9.270182641418929"><ele>576.3333333333334</ele><time>2026-03-28T12:50:05.999Z</time></trkpt><trkpt lat="44.576723591759375" lon="9.270218335763527"><ele>577.0</ele><time>2026-03-28T12:50:06.999Z</time></trkpt><trkpt lat="44.57656927072212" lon="9.270260955684924"><ele>577.0</ele><time>2026-03-28T12:50:07.999Z</time></trkpt><trkpt lat="44.576414347596504" lon="9.270312640413394"><ele>577.0</ele><time>2026-03-28T12:50:08.999Z</time></trkpt><trkpt lat="44.57626872232724" lon="9.270362225714079"><ele>577.0</ele><time>2026-03-28T12:50:09.999Z</time></trkpt><trkpt lat="44.576135275660945" lon="9.270403678725055"><ele>577.0</ele><time>2026-03-28T12:50:10.999Z</time></trkpt><trkpt lat="44.57600614276085" lon="9.270443791739751"><ele>577.5</ele><time>2026-03-28T12:50:11.999Z</time></trkpt><trkpt lat="44.57588904899929" lon="9.27049135111465"><ele>578.0</ele><time>2026-03-28T12:50:12.999Z</time></trkpt><trkpt lat="44.575766812761614" lon="9.270491632843676"><ele>578.5</ele><time>2026-03-28T12:50:13.999Z</time></trkpt><trkpt lat="44.57565710365008" lon="9.27053050149694"><ele>579.0</ele><time>2026-03-28T12:50:14.999Z</time></trkpt><trkpt lat="44.57556777256641" lon="9.270623111862276"><ele>579.5</ele><time>2026-03-28T12:50:15.999Z</time></trkpt><trkpt lat="44.57546242974539" lon="9.270694705225655"><ele>580.0</ele><time>2026-03-28T12:50:17Z</time></trkpt><trkpt lat="44.57537115124229" lon="9.270801219249936"><ele>580.5</ele><time>2026-03-28T12:50:18Z</time></trkpt><trkpt lat="44.575286618360614" lon="9.270928612186562"><ele>581.0</ele><time>2026-03-28T12:50:19Z</time></trkpt><trkpt lat="44.57521807584691" lon="9.271076045200514"><ele>581.0</ele><time>2026-03-28T12:50:20Z</time></trkpt><trkpt lat="44.575129018899005" lon="9.271192248293731"><ele>581.0</ele><time>2026-03-28T12:50:21Z</time></trkpt><trkpt lat="44.57505604449297" lon="9.271321625000994"><ele>581.0</ele><time>2026-03-28T12:50:22Z</time></trkpt><trkpt lat="44.57498587796985" lon="9.27145064100898"><ele>581.0</ele><time>2026-03-28T12:50:23Z</time></trkpt><trkpt lat="44.57491608724604" lon="9.271587575038417"><ele>582.5</ele><time>2026-03-28T12:50:24Z</time></trkpt><trkpt lat="44.574860200605926" lon="9.27173539520057"><ele>584.0</ele><time>2026-03-28T12:50:25Z</time></trkpt><trkpt lat="44.574794785236264" lon="9.271877043413035"><ele>585.5</ele><time>2026-03-28T12:50:26Z</time></trkpt><trkpt lat="44.574739670228496" lon="9.272033100151354"><ele>587.0</ele><time>2026-03-28T12:50:27Z</time></trkpt><trkpt lat="44.57467438102455" lon="9.272187404724566"><ele>589.0</ele><time>2026-03-28T12:50:28Z</time></trkpt><trkpt lat="44.574623614700535" lon="9.272356432992204"><ele>591.0</ele><time>2026-03-28T12:50:29Z</time></trkpt><trkpt lat="44.57457452361211" lon="9.27252636004063"><ele>593.0</ele><time>2026-03-28T12:50:30Z</time></trkpt><trkpt lat="44.57452424319467" lon="9.272703629377673"><ele>595.0</ele><time>2026-03-28T12:50:31Z</time></trkpt><trkpt lat="44.574468375786054" lon="9.272872544651326"><ele>593.0</ele><time>2026-03-28T12:50:32Z</time></trkpt><trkpt lat="44.57440060477446" lon="9.273036351878813"><ele>591.0</ele><time>2026-03-28T12:50:33Z</time></trkpt><trkpt lat="44.574302943897436" lon="9.273162076358108"><ele>589.0</ele><time>2026-03-28T12:50:34Z</time></trkpt><trkpt lat="44.57419540407187" lon="9.273283618248351"><ele>587.0</ele><time>2026-03-28T12:50:35Z</time></trkpt><trkpt lat="44.574087047176874" lon="9.273408082839657"><ele>587.0</ele><time>2026-03-28T12:50:36Z</time></trkpt><trkpt lat="44.57397935173844" lon="9.273534624771306"><ele>587.0</ele><time>2026-03-28T12:50:37Z</time></trkpt><trkpt lat="44.5738698043485" lon="9.273668224957289"><ele>587.0</ele><time>2026-03-28T12:50:38Z</time></trkpt><trkpt lat="44.57375883330776" lon="9.273805063737091"><ele>587.0</ele><time>2026-03-28T12:50:39Z</time></trkpt><trkpt lat="44.5736449028723" lon="9.27394249867059"><ele>586.3333333333333</ele><time>2026-03-28T12:50:40Z</time></trkpt><trkpt lat="44.573527226821206" lon="9.27408382445336"><ele>585.6666666666666</ele><time>2026-03-28T12:50:41Z</time></trkpt><trkpt lat="44.57340568126792" lon="9.274229422589979"><ele>585.0</ele><time>2026-03-28T12:50:42Z</time></trkpt><trkpt lat="44.57327753054065" lon="9.27438285017788"><ele>585.0</ele><time>2026-03-28T12:50:43Z</time></trkpt><trkpt lat="44.57314871745346" lon="9.274533152591397"><ele>585.0</ele><time>2026-03-28T12:50:44Z</time></trkpt><trkpt lat="44.57301686777771" lon="9.274695002037168"><ele>585.0</ele><time>2026-03-28T12:50:45Z</time></trkpt><trkpt lat="44.57285780606421" lon="9.274807015302"><ele>585.6666666666666</ele><time>2026-03-28T12:50:46Z</time></trkpt><trkpt lat="44.57269943883653" lon="9.274928513760393"><ele>586.3333333333333</ele><time>2026-03-28T12:50:47Z</time></trkpt><trkpt lat="44.57254617687101" lon="9.27505229466644"><ele>587.0</ele><time>2026-03-28T12:50:48Z</time></trkpt><trkpt lat="44.572396511445774" lon="9.275197695151302"><ele>587.0</ele><time>2026-03-28T12:50:49Z</time></trkpt><trkpt lat="44.57223534625809" lon="9.275307286455986"><ele>587.0</ele><time>2026-03-28T12:50:50Z</time></trkpt><trkpt lat="44.57207398541244" lon="9.275408590853285"><ele>587.0</ele><time>2026-03-28T12:50:51Z</time></trkpt><trkpt lat="44.57191459954654" lon="9.27550822393052"><ele>587.6666666666666</ele><time>2026-03-28T12:50:52Z</time></trkpt><trkpt lat="44.57176843025246" lon="9.27562342411718"><ele>588.3333333333334</ele><time>2026-03-28T12:50:53Z</time></trkpt><trkpt lat="44.57164519934644" lon="9.275747605222042"><ele>589.0</ele><time>2026-03-28T12:50:54Z</time></trkpt><trkpt lat="44.57153542413299" lon="9.275872723103816"><ele>589.0</ele><time>2026-03-28T12:50:55Z</time></trkpt><trkpt lat="44.571427756968866" lon="9.275993685908553"><ele>589.0</ele><time>2026-03-28T12:50:56Z</time></trkpt><trkpt lat="44.57133229883916" lon="9.276094888290672"><ele>589.0</ele><time>2026-03-28T12:50:57Z</time></trkpt><trkpt lat="44.57122113726504" lon="9.276152940746087"><ele>589.0</ele><time>2026-03-28T12:50:58Z</time></trkpt><trkpt lat="44.57109727489047" lon="9.276153940956748"><ele>589.0</ele><time>2026-03-28T12:50:59Z</time></trkpt><trkpt lat="44.57097197389179" lon="9.276084976034465"><ele>589.0</ele><time>2026-03-28T12:51:00Z</time></trkpt><trkpt lat="44.57084961923114" lon="9.275977220876952"><ele>589.0</ele><time>2026-03-28T12:51:01Z</time></trkpt><trkpt lat="44.570718799527555" lon="9.275876208571935"><ele>589.0</ele><time>2026-03-28T12:51:02Z</time></trkpt><trkpt lat="44.57057067756204" lon="9.275800502236686"><ele>589.0</ele><time>2026-03-28T12:51:03Z</time></trkpt><trkpt lat="44.5704103365618" lon="9.27575981293233"><ele>589.0</ele><time>2026-03-28T12:51:04Z</time></trkpt><trkpt lat="44.57024111474343" lon="9.275754517838315"><ele>589.0</ele><time>2026-03-28T12:51:05Z</time></trkpt><trkpt lat="44.57006447487038" lon="9.275762968767706"><ele>587.3333333333334</ele><time>2026-03-28T12:51:06Z</time></trkpt><trkpt lat="44.56988523196806" lon="9.275794451755528"><ele>585.6666666666666</ele><time>2026-03-28T12:51:07Z</time></trkpt><trkpt lat="44.56971166465947" lon="9.275872182328476"><ele>584.0</ele><time>2026-03-28T12:51:08Z</time></trkpt><trkpt lat="44.56954833437063" lon="9.275989369430008"><ele>583.3333333333333</ele><time>2026-03-28T12:51:09Z</time></trkpt><trkpt lat="44.569411654733315" lon="9.27613278686433"><ele>582.6666666666666</ele><time>2026-03-28T12:51:10Z</time></trkpt><trkpt lat="44.569297409185204" lon="9.276305029873656"><ele>582.0</ele><time>2026-03-28T12:51:11Z</time></trkpt><trkpt lat="44.569211249255424" lon="9.276510251120559"><ele>582.0</ele><time>2026-03-28T12:51:12Z</time></trkpt><trkpt lat="44.56914530831258" lon="9.276740562701216"><ele>582.0</ele><time>2026-03-28T12:51:12.999Z</time></trkpt><trkpt lat="44.56908033301063" lon="9.276960723126605"><ele>582.0</ele><time>2026-03-28T12:51:13.999Z</time></trkpt><trkpt lat="44.56900894943222" lon="9.277161239363647"><ele>582.0</ele><time>2026-03-28T12:51:14.999Z</time></trkpt><trkpt lat="44.568902865262004" lon="9.277310721323117"><ele>582.0</ele><time>2026-03-28T12:51:15.999Z</time></trkpt><trkpt lat="44.56877949298197" lon="9.277455759503155"><ele>582.0</ele><time>2026-03-28T12:51:16.999Z</time></trkpt><trkpt lat="44.56864803620828" lon="9.277586678801635"><ele>582.0</ele><time>2026-03-28T12:51:17.999Z</time></trkpt><trkpt lat="44.568515893506344" lon="9.27773732101279"><ele>582.0</ele><time>2026-03-28T12:51:18.999Z</time></trkpt><trkpt lat="44.5683813634304" lon="9.277882435995258"><ele>582.0</ele><time>2026-03-28T12:51:19.999Z</time></trkpt><trkpt lat="44.56824555401199" lon="9.27803013159909"><ele>583.3333333333334</ele><time>2026-03-28T12:51:20.999Z</time></trkpt><trkpt lat="44.56810679191745" lon="9.278179621561637"><ele>584.6666666666667</ele><time>2026-03-28T12:51:21.999Z</time></trkpt><trkpt lat="44.56796807044517" lon="9.278330760666126"><ele>586.0</ele><time>2026-03-28T12:51:22.999Z</time></trkpt><trkpt lat="44.56782529099323" lon="9.278474255736146"><ele>586.0</ele><time>2026-03-28T12:51:23.999Z</time></trkpt><trkpt lat="44.56768406966878" lon="9.27862364825012"><ele>586.0</ele><time>2026-03-28T12:51:24.999Z</time></trkpt><trkpt lat="44.5675347237053" lon="9.27876250214706"><ele>586.0</ele><time>2026-03-28T12:51:25.999Z</time></trkpt><trkpt lat="44.56737991590093" lon="9.278892405378981"><ele>586.6666666666667</ele><time>2026-03-28T12:51:26.999Z</time></trkpt><trkpt lat="44.56721855903945" lon="9.279016198676784"><ele>587.3333333333334</ele><time>2026-03-28T12:51:27.999Z</time></trkpt><trkpt lat="44.56705620019995" lon="9.279140383990045"><ele>588.0</ele><time>2026-03-28T12:51:28.999Z</time></trkpt><trkpt lat="44.56688426494663" lon="9.279249951778427"><ele>588.0</ele><time>2026-03-28T12:51:29.999Z</time></trkpt><trkpt lat="44.56671895686088" lon="9.279375376647005"><ele>588.0</ele><time>2026-03-28T12:51:30.999Z</time></trkpt><trkpt lat="44.56656205034476" lon="9.279498705213236"><ele>588.0</ele><time>2026-03-28T12:51:31.999Z</time></trkpt><trkpt lat="44.56641478007811" lon="9.279623842393159"><ele>588.3333333333334</ele><time>2026-03-28T12:51:32.999Z</time></trkpt><trkpt lat="44.56630805948161" lon="9.279801187413966"><ele>588.6666666666667</ele><time>2026-03-28T12:51:33.999Z</time></trkpt><trkpt lat="44.56621697260651" lon="9.27999993224485"><ele>589.0</ele><time>2026-03-28T12:51:34.999Z</time></trkpt><trkpt lat="44.56612328660537" lon="9.280192054828536"><ele>589.0</ele><time>2026-03-28T12:51:35.999Z</time></trkpt><trkpt lat="44.56604116309583" lon="9.280389549649378"><ele>589.0</ele><time>2026-03-28T12:51:36.999Z</time></trkpt><trkpt lat="44.56595946574024" lon="9.280589906870544"><ele>589.0</ele><time>2026-03-28T12:51:37.999Z</time></trkpt><trkpt lat="44.56589879202553" lon="9.28079829438134"><ele>590.0</ele><time>2026-03-28T12:51:38.999Z</time></trkpt><trkpt lat="44.5658118449381" lon="9.280946667779352"><ele>591.0</ele><time>2026-03-28T12:51:39.999Z</time></trkpt><trkpt lat="44.565729624728284" lon="9.281036678096795"><ele>592.0</ele><time>2026-03-28T12:51:40.999Z</time></trkpt><trkpt lat="44.56564780682383" lon="9.281107759119461"><ele>593.0</ele><time>2026-03-28T12:51:41.999Z</time></trkpt><trkpt lat="44.56557834714126" lon="9.281146196257712"><ele>594.0</ele><time>2026-03-28T12:51:42.999Z</time></trkpt><trkpt lat="44.565497740357685" lon="9.281156549653614"><ele>594.0</ele><time>2026-03-28T12:51:43.999Z</time></trkpt><trkpt lat="44.56540946685962" lon="9.28109727011257"><ele>594.0</ele><time>2026-03-28T12:51:44.999Z</time></trkpt><trkpt lat="44.56532172802186" lon="9.281004814048902"><ele>594.0</ele><time>2026-03-28T12:51:45.999Z</time></trkpt><trkpt lat="44.56522003323117" lon="9.280912863131613"><ele>594.0</ele><time>2026-03-28T12:51:46.999Z</time></trkpt><trkpt lat="44.56511492920478" lon="9.280829393677461"><ele>594.0</ele><time>2026-03-28T12:51:47.999Z</time></trkpt><trkpt lat="44.56502025947931" lon="9.280761345458226"><ele>593.25</ele><time>2026-03-28T12:51:48.999Z</time></trkpt><trkpt lat="44.56491287942199" lon="9.280720155731354"><ele>592.5</ele><time>2026-03-28T12:51:49.999Z</time></trkpt><trkpt lat="44.56478927377654" lon="9.280777271265121"><ele>591.75</ele><time>2026-03-28T12:51:50.999Z</time></trkpt><trkpt lat="44.56469074953617" lon="9.280929093798365"><ele>591.0</ele><time>2026-03-28T12:51:51.999Z</time></trkpt><trkpt lat="44.564577934933496" lon="9.281094128102907"><ele>590.6666666666666</ele><time>2026-03-28T12:51:52.999Z</time></trkpt><trkpt lat="44.564441721767984" lon="9.28124073377212"><ele>590.3333333333333</ele><time>2026-03-28T12:51:53.999Z</time></trkpt><trkpt lat="44.56430051870984" lon="9.281403417943743"><ele>590.0</ele><time>2026-03-28T12:51:54.999Z</time></trkpt><trkpt lat="44.56413671517918" lon="9.281567441411903"><ele>590.0</ele><time>2026-03-28T12:51:55.999Z</time></trkpt><trkpt lat="44.56396327720191" lon="9.281734021434058"><ele>590.0</ele><time>2026-03-28T12:51:56.999Z</time></trkpt><trkpt lat="44.56379581791417" lon="9.281890746980446"><ele>590.0</ele><time>2026-03-28T12:51:57.999Z</time></trkpt><trkpt lat="44.56363310207905" lon="9.282044001981198"><ele>589.6666666666666</ele><time>2026-03-28T12:51:58.999Z</time></trkpt><trkpt lat="44.563471601148585" lon="9.282196697734545"><ele>589.3333333333334</ele><time>2026-03-28T12:51:59.999Z</time></trkpt><trkpt lat="44.563309699726695" lon="9.282350172564039"><ele>589.0</ele><time>2026-03-28T12:52:00.999Z</time></trkpt><trkpt lat="44.563148274056495" lon="9.28250319639813"><ele>589.0</ele><time>2026-03-28T12:52:01.999Z</time></trkpt><trkpt lat="44.562989480765175" lon="9.282653724869139"><ele>589.0</ele><time>2026-03-28T12:52:02.999Z</time></trkpt><trkpt lat="44.56283417458366" lon="9.282800947761212"><ele>589.0</ele><time>2026-03-28T12:52:03.999Z</time></trkpt><trkpt lat="44.56268453378748" lon="9.28294314160352"><ele>589.6666666666667</ele><time>2026-03-28T12:52:04.999Z</time></trkpt><trkpt lat="44.562536141774764" lon="9.283075715244983"><ele>590.3333333333334</ele><time>2026-03-28T12:52:05.999Z</time></trkpt><trkpt lat="44.56238088724147" lon="9.283209505172074"><ele>591.0</ele><time>2026-03-28T12:52:06.999Z</time></trkpt><trkpt lat="44.562229264660324" lon="9.283347911879213"><ele>591.0</ele><time>2026-03-28T12:52:07.999Z</time></trkpt><trkpt lat="44.56206649061984" lon="9.283459501689466"><ele>591.0</ele><time>2026-03-28T12:52:08.999Z</time></trkpt><trkpt lat="44.56190144601257" lon="9.283563402372083"><ele>591.0</ele><time>2026-03-28T12:52:09.999Z</time></trkpt><trkpt lat="44.5617227254744" lon="9.283631892414588"><ele>599.0</ele><time>2026-03-28T12:52:10.999Z</time></trkpt><trkpt lat="44.56153860379218" lon="9.283680560365957"><ele>607.0</ele><time>2026-03-28T12:52:11.999Z</time></trkpt><trkpt lat="44.5613502552787" lon="9.283723852398822"><ele>615.0</ele><time>2026-03-28T12:52:12.999Z</time></trkpt><trkpt lat="44.56116570319738" lon="9.283742870887865"><ele>619.3333333333334</ele><time>2026-03-28T12:52:13.999Z</time></trkpt><trkpt lat="44.56099818878945" lon="9.283761036198342"><ele>623.6666666666667</ele><time>2026-03-28T12:52:14.999Z</time></trkpt><trkpt lat="44.56083959932692" lon="9.283806674337317"><ele>628.0</ele><time>2026-03-28T12:52:15.999Z</time></trkpt><trkpt lat="44.56067069901339" lon="9.283821379159749"><ele>628.0</ele><time>2026-03-28T12:52:16.999Z</time></trkpt><trkpt lat="44.56049446516509" lon="9.283828355970327"><ele>628.0</ele><time>2026-03-28T12:52:17.999Z</time></trkpt><trkpt lat="44.560316503361975" lon="9.283828879975305"><ele>628.0</ele><time>2026-03-28T12:52:18.999Z</time></trkpt><trkpt lat="44.56013943555529" lon="9.283811563407047"><ele>628.0</ele><time>2026-03-28T12:52:19.999Z</time></trkpt><trkpt lat="44.55997429745134" lon="9.28380254779406"><ele>628.0</ele><time>2026-03-28T12:52:20.999Z</time></trkpt><trkpt lat="44.55982408618989" lon="9.283794462666338"><ele>628.0</ele><time>2026-03-28T12:52:21.999Z</time></trkpt><trkpt lat="44.55969367324793" lon="9.28377627310476"><ele>628.0</ele><time>2026-03-28T12:52:23Z</time></trkpt><trkpt lat="44.55956766134783" lon="9.283714475964775"><ele>621.25</ele><time>2026-03-28T12:52:24Z</time></trkpt><trkpt lat="44.5594696886454" lon="9.28362297612498"><ele>614.5</ele><time>2026-03-28T12:52:25Z</time></trkpt><trkpt lat="44.55936974324778" lon="9.283506651695623"><ele>607.75</ele><time>2026-03-28T12:52:26Z</time></trkpt><trkpt lat="44.559299908408754" lon="9.283340809484644"><ele>601.0</ele><time>2026-03-28T12:52:27Z</time></trkpt><trkpt lat="44.559273090024995" lon="9.283140901764154"><ele>604.0</ele><time>2026-03-28T12:52:28Z</time></trkpt><trkpt lat="44.559276295344006" lon="9.28293739970752"><ele>607.0</ele><time>2026-03-28T12:52:29Z</time></trkpt><trkpt lat="44.559261820765556" lon="9.282747027856338"><ele>610.0</ele><time>2026-03-28T12:52:30Z</time></trkpt><trkpt lat="44.559222724687025" lon="9.282550809646638"><ele>613.0</ele><time>2026-03-28T12:52:31Z</time></trkpt><trkpt lat="44.55915466745726" lon="9.282373335221852"><ele>611.25</ele><time>2026-03-28T12:52:32Z</time></trkpt><trkpt lat="44.559061011968176" lon="9.282223267401225"><ele>609.5</ele><time>2026-03-28T12:52:33Z</time></trkpt><trkpt lat="44.55894962590558" lon="9.282102927779396"><ele>607.75</ele><time>2026-03-28T12:52:34Z</time></trkpt><trkpt lat="44.558824405377266" lon="9.282011565070365"><ele>606.0</ele><time>2026-03-28T12:52:35Z</time></trkpt><trkpt lat="44.5586878687414" lon="9.281963310589497"><ele>606.0</ele><time>2026-03-28T12:52:36Z</time></trkpt><trkpt lat="44.55855112958456" lon="9.281925594153105"><ele>606.0</ele><time>2026-03-28T12:52:37Z</time></trkpt><trkpt lat="44.5584148216444" lon="9.281947081354659"><ele>606.0</ele><time>2026-03-28T12:52:38Z</time></trkpt><trkpt lat="44.55827804868799" lon="9.28199923401473"><ele>606.0</ele><time>2026-03-28T12:52:39Z</time></trkpt><trkpt lat="44.5581433986816" lon="9.28207965411738"><ele>606.0</ele><time>2026-03-28T12:52:40Z</time></trkpt><trkpt lat="44.55801287803171" lon="9.282159676456025"><ele>606.0</ele><time>2026-03-28T12:52:41Z</time></trkpt><trkpt lat="44.55787758032892" lon="9.282243738705954"><ele>606.0</ele><time>2026-03-28T12:52:42Z</time></trkpt><trkpt lat="44.557740442023686" lon="9.282329575173934"><ele>606.0</ele><time>2026-03-28T12:52:43Z</time></trkpt><trkpt lat="44.557602641313125" lon="9.282416407081662"><ele>603.6666666666666</ele><time>2026-03-28T12:52:44Z</time></trkpt><trkpt lat="44.55746253125016" lon="9.282504694179405"><ele>601.3333333333333</ele><time>2026-03-28T12:52:45Z</time></trkpt><trkpt lat="44.55732070205499" lon="9.282594065321378"><ele>599.0</ele><time>2026-03-28T12:52:46Z</time></trkpt><trkpt lat="44.55718930747214" lon="9.282711999764867"><ele>599.0</ele><time>2026-03-28T12:52:47Z</time></trkpt><trkpt lat="44.557048965602604" lon="9.282800818199654"><ele>599.0</ele><time>2026-03-28T12:52:48Z</time></trkpt><trkpt lat="44.55690942720845" lon="9.282887693042014"><ele>599.0</ele><time>2026-03-28T12:52:49Z</time></trkpt><trkpt lat="44.55677253297118" lon="9.282972939703741"><ele>599.25</ele><time>2026-03-28T12:52:50Z</time></trkpt><trkpt lat="44.55663231564963" lon="9.283031232758988"><ele>599.5</ele><time>2026-03-28T12:52:51Z</time></trkpt><trkpt lat="44.556498163317706" lon="9.283117376708937"><ele>599.75</ele><time>2026-03-28T12:52:52Z</time></trkpt><trkpt lat="44.55636564533205" lon="9.28320221574515"><ele>600.0</ele><time>2026-03-28T12:52:53Z</time></trkpt><trkpt lat="44.55623624923914" lon="9.28328439374933"><ele>601.75</ele><time>2026-03-28T12:52:54Z</time></trkpt><trkpt lat="44.556107016791096" lon="9.283366503156277"><ele>603.5</ele><time>2026-03-28T12:52:55Z</time></trkpt><trkpt lat="44.55598270925479" lon="9.283464241673734"><ele>605.25</ele><time>2026-03-28T12:52:56Z</time></trkpt><trkpt lat="44.5558528246676" lon="9.283521179195436"><ele>607.0</ele><time>2026-03-28T12:52:57Z</time></trkpt><trkpt lat="44.55574374930843" lon="9.283537437077205"><ele>607.0</ele><time>2026-03-28T12:52:58Z</time></trkpt><trkpt lat="44.555641075097796" lon="9.283514697460733"><ele>607.0</ele><time>2026-03-28T12:52:59Z</time></trkpt><trkpt lat="44.55553982457314" lon="9.283449272404265"><ele>607.0</ele><time>2026-03-28T12:53:00Z</time></trkpt><trkpt lat="44.55545378921169" lon="9.283324280557778"><ele>607.0</ele><time>2026-03-28T12:53:01Z</time></trkpt><trkpt lat="44.55538501598435" lon="9.2831768243504"><ele>605.75</ele><time>2026-03-28T12:53:02Z</time></trkpt><trkpt lat="44.55532661449911" lon="9.283014928136254"><ele>604.5</ele><time>2026-03-28T12:53:03Z</time></trkpt><trkpt lat="44.55527388249376" lon="9.28283216880351"><ele>603.25</ele><time>2026-03-28T12:53:04Z</time></trkpt><trkpt lat="44.55522502698732" lon="9.282636631887552"><ele>602.0</ele><time>2026-03-28T12:53:05Z</time></trkpt><trkpt lat="44.555141946052814" lon="9.28244495710433"><ele>609.3333333333333</ele><time>2026-03-28T12:53:06Z</time></trkpt><trkpt lat="44.55503764120036" lon="9.28226393961591"><ele>616.6666666666666</ele><time>2026-03-28T12:53:07Z</time></trkpt><trkpt lat="44.55492932792564" lon="9.282081985702924"><ele>624.0</ele><time>2026-03-28T12:53:08Z</time></trkpt><trkpt lat="44.55481477848236" lon="9.281927004808132"><ele>624.0</ele><time>2026-03-28T12:53:09Z</time></trkpt><trkpt lat="44.5546890370507" lon="9.281782403737193"><ele>624.0</ele><time>2026-03-28T12:53:10Z</time></trkpt><trkpt lat="44.554580948897026" lon="9.281630083581673"><ele>624.0</ele><time>2026-03-28T12:53:11Z</time></trkpt><trkpt lat="44.55449014990355" lon="9.281449628040656"><ele>624.6666666666666</ele><time>2026-03-28T12:53:12Z</time></trkpt><trkpt lat="44.55440442992569" lon="9.281266937623744"><ele>625.3333333333333</ele><time>2026-03-28T12:53:13Z</time></trkpt><trkpt lat="44.55429841159279" lon="9.281104708797077"><ele>626.0</ele><time>2026-03-28T12:53:14Z</time></trkpt><trkpt lat="44.55419800555913" lon="9.280931152848254"><ele>626.0</ele><time>2026-03-28T12:53:15Z</time></trkpt><trkpt lat="44.554029711687235" lon="9.280877523782523"><ele>626.0</ele><time>2026-03-28T12:53:16Z</time></trkpt><trkpt lat="44.553881289653496" lon="9.28079297843433"><ele>626.0</ele><time>2026-03-28T12:53:17Z</time></trkpt><trkpt lat="44.55373367816207" lon="9.280704912129911"><ele>623.6666666666666</ele><time>2026-03-28T12:53:17.999Z</time></trkpt><trkpt lat="44.55358829369546" lon="9.280609713384052"><ele>621.3333333333334</ele><time>2026-03-28T12:53:18.999Z</time></trkpt><trkpt lat="44.55344159128084" lon="9.280516803426947"><ele>619.0</ele><time>2026-03-28T12:53:19.999Z</time></trkpt><trkpt lat="44.55329156638555" lon="9.280426655247426"><ele>619.0</ele><time>2026-03-28T12:53:20.999Z</time></trkpt><trkpt lat="44.553141743337804" lon="9.2803426386086"><ele>619.0</ele><time>2026-03-28T12:53:21.999Z</time></trkpt><trkpt lat="44.55299356673348" lon="9.28025450202527"><ele>619.0</ele><time>2026-03-28T12:53:22.999Z</time></trkpt><trkpt lat="44.55285353218749" lon="9.28016045048848"><ele>616.6666666666667</ele><time>2026-03-28T12:53:23.999Z</time></trkpt><trkpt lat="44.552712901989956" lon="9.280048648340317"><ele>614.3333333333334</ele><time>2026-03-28T12:53:24.999Z</time></trkpt><trkpt lat="44.55257105736578" lon="9.279937561285626"><ele>612.0</ele><time>2026-03-28T12:53:25.999Z</time></trkpt><trkpt lat="44.5524319020684" lon="9.279823750291394"><ele>611.0</ele><time>2026-03-28T12:53:26.999Z</time></trkpt><trkpt lat="44.55229220354443" lon="9.279711082323907"><ele>610.0</ele><time>2026-03-28T12:53:27.999Z</time></trkpt><trkpt lat="44.55214991042733" lon="9.279601625916499"><ele>609.0</ele><time>2026-03-28T12:53:28.999Z</time></trkpt><trkpt lat="44.55200546524092" lon="9.279496200145605"><ele>609.0</ele><time>2026-03-28T12:53:29.999Z</time></trkpt><trkpt lat="44.55186346401042" lon="9.279398143115074"><ele>609.0</ele><time>2026-03-28T12:53:30.999Z</time></trkpt><trkpt lat="44.55173642819831" lon="9.27928965804546"><ele>609.0</ele><time>2026-03-28T12:53:31.999Z</time></trkpt><trkpt lat="44.55161227275593" lon="9.279156786465759"><ele>609.0</ele><time>2026-03-28T12:53:32.999Z</time></trkpt><trkpt lat="44.55151965263814" lon="9.278997076296648"><ele>609.0</ele><time>2026-03-28T12:53:33.999Z</time></trkpt><trkpt lat="44.55145584211365" lon="9.278826951831652"><ele>609.0</ele><time>2026-03-28T12:53:34.999Z</time></trkpt><trkpt lat="44.5514241502379" lon="9.278639859049266"><ele>609.0</ele><time>2026-03-28T12:53:35.999Z</time></trkpt><trkpt lat="44.551423175570584" lon="9.278432362416044"><ele>611.0</ele><time>2026-03-28T12:53:36.999Z</time></trkpt><trkpt lat="44.55143444840612" lon="9.2782151792316"><ele>613.0</ele><time>2026-03-28T12:53:37.999Z</time></trkpt><trkpt lat="44.55144928816353" lon="9.277987776214857"><ele>615.0</ele><time>2026-03-28T12:53:38.999Z</time></trkpt><trkpt lat="44.55146111242634" lon="9.277750772354459"><ele>617.0</ele><time>2026-03-28T12:53:39.999Z</time></trkpt><trkpt lat="44.55147306071289" lon="9.277504533682805"><ele>619.0</ele><time>2026-03-28T12:53:40.999Z</time></trkpt><trkpt lat="44.55149896660737" lon="9.277254047965837"><ele>621.0</ele><time>2026-03-28T12:53:41.999Z</time></trkpt><trkpt lat="44.55154027242599" lon="9.276998764200197"><ele>621.0</ele><time>2026-03-28T12:53:42.999Z</time></trkpt><trkpt lat="44.55159809869292" lon="9.276747557061178"><ele>621.0</ele><time>2026-03-28T12:53:43.999Z</time></trkpt><trkpt lat="44.55165738014223" lon="9.276504586696614"><ele>621.0</ele><time>2026-03-28T12:53:44.999Z</time></trkpt><trkpt lat="44.55171376690214" lon="9.276262011606262"><ele>619.6666666666666</ele><time>2026-03-28T12:53:45.999Z</time></trkpt><trkpt lat="44.55177024538588" lon="9.276019680511533"><ele>618.3333333333333</ele><time>2026-03-28T12:53:46.999Z</time></trkpt><trkpt lat="44.551826378368574" lon="9.275780214491027"><ele>617.0</ele><time>2026-03-28T12:53:47.999Z</time></trkpt><trkpt lat="44.55188055603874" lon="9.275552325645803"><ele>617.0</ele><time>2026-03-28T12:53:48.999Z</time></trkpt><trkpt lat="44.551912226939265" lon="9.27534475134495"><ele>617.0</ele><time>2026-03-28T12:53:49.999Z</time></trkpt><trkpt lat="44.551903768491904" lon="9.275172604339833"><ele>617.0</ele><time>2026-03-28T12:53:50.999Z</time></trkpt><trkpt lat="44.55185215827911" lon="9.275005113369554"><ele>617.0</ele><time>2026-03-28T12:53:51.999Z</time></trkpt><trkpt lat="44.55176020308167" lon="9.27485404533934"><ele>620.5</ele><time>2026-03-28T12:53:52.999Z</time></trkpt><trkpt lat="44.551647146334595" lon="9.274716209652404"><ele>624.0</ele><time>2026-03-28T12:53:53.999Z</time></trkpt><trkpt lat="44.55155577386789" lon="9.274563130627508"><ele>627.5</ele><time>2026-03-28T12:53:54.999Z</time></trkpt><trkpt lat="44.551499164956375" lon="9.274363297635468"><ele>631.0</ele><time>2026-03-28T12:53:55.999Z</time></trkpt><trkpt lat="44.551460327104905" lon="9.27414030055312"><ele>640.0</ele><time>2026-03-28T12:53:56.999Z</time></trkpt><trkpt lat="44.551414959156816" lon="9.27391174357"><ele>649.0</ele><time>2026-03-28T12:53:57.999Z</time></trkpt><trkpt lat="44.55134011717023" lon="9.27368698583366"><ele>658.0</ele><time>2026-03-28T12:53:58.999Z</time></trkpt><trkpt lat="44.551241315883296" lon="9.273473826496609"><ele>651.0</ele><time>2026-03-28T12:53:59.999Z</time></trkpt><trkpt lat="44.55112646177325" lon="9.27326565347623"><ele>644.0</ele><time>2026-03-28T12:54:00.999Z</time></trkpt><trkpt lat="44.5510055624998" lon="9.27305433002036"><ele>637.0</ele><time>2026-03-28T12:54:01.999Z</time></trkpt><trkpt lat="44.550884854947945" lon="9.272852278403809"><ele>637.0</ele><time>2026-03-28T12:54:02.999Z</time></trkpt><trkpt lat="44.55076737600565" lon="9.272650893736158"><ele>637.0</ele><time>2026-03-28T12:54:03.999Z</time></trkpt><trkpt lat="44.550651668924" lon="9.272466258981462"><ele>637.0</ele><time>2026-03-28T12:54:04.999Z</time></trkpt><trkpt lat="44.550529773536475" lon="9.272296313474063"><ele>636.3333333333334</ele><time>2026-03-28T12:54:05.999Z</time></trkpt><trkpt lat="44.55040335522312" lon="9.272123824292098"><ele>635.6666666666666</ele><time>2026-03-28T12:54:06.999Z</time></trkpt><trkpt lat="44.55024518179005" lon="9.271999515703266"><ele>635.0</ele><time>2026-03-28T12:54:07.999Z</time></trkpt><trkpt lat="44.550080142740285" lon="9.271880636843719"><ele>635.0</ele><time>2026-03-28T12:54:08.999Z</time></trkpt><trkpt lat="44.549913848708734" lon="9.27176423085552"><ele>635.0</ele><time>2026-03-28T12:54:09.999Z</time></trkpt><trkpt lat="44.549742527561726" lon="9.271662255938024"><ele>635.0</ele><time>2026-03-28T12:54:10.999Z</time></trkpt><trkpt lat="44.549581701261225" lon="9.271545145701959"><ele>634.6666666666666</ele><time>2026-03-28T12:54:11.999Z</time></trkpt><trkpt lat="44.549418279005124" lon="9.271421958214102"><ele>634.3333333333334</ele><time>2026-03-28T12:54:12.999Z</time></trkpt><trkpt lat="44.54925084212056" lon="9.271300773820357"><ele>634.0</ele><time>2026-03-28T12:54:13.999Z</time></trkpt><trkpt lat="44.549078483159164" lon="9.271201266520942"><ele>634.0</ele><time>2026-03-28T12:54:14.999Z</time></trkpt><trkpt lat="44.54889839472371" lon="9.271116951656404"><ele>634.0</ele><time>2026-03-28T12:54:15.999Z</time></trkpt><trkpt lat="44.54871274136121" lon="9.27104936516504"><ele>634.0</ele><time>2026-03-28T12:54:16.999Z</time></trkpt><trkpt lat="44.54853064109652" lon="9.270966008552858"><ele>628.3333333333334</ele><time>2026-03-28T12:54:17.999Z</time></trkpt><trkpt lat="44.54835472696796" lon="9.270887710018966"><ele>622.6666666666666</ele><time>2026-03-28T12:54:18.999Z</time></trkpt><trkpt lat="44.548185503077164" lon="9.270781358665605"><ele>617.0</ele><time>2026-03-28T12:54:19.999Z</time></trkpt><trkpt lat="44.54802019323825" lon="9.270656490190337"><ele>616.3333333333333</ele><time>2026-03-28T12:54:20.999Z</time></trkpt><trkpt lat="44.54786518932667" lon="9.270509824636502"><ele>615.6666666666666</ele><time>2026-03-28T12:54:21.999Z</time></trkpt><trkpt lat="44.547728742076444" lon="9.27033871898155"><ele>615.0</ele><time>2026-03-28T12:54:22.999Z</time></trkpt><trkpt lat="44.54760471848307" lon="9.270144618320572"><ele>615.0</ele><time>2026-03-28T12:54:23.999Z</time></trkpt><trkpt lat="44.54749636645612" lon="9.269935284148465"><ele>615.0</ele><time>2026-03-28T12:54:24.999Z</time></trkpt><trkpt lat="44.547411145244986" lon="9.269707008247568"><ele>615.0</ele><time>2026-03-28T12:54:25.999Z</time></trkpt><trkpt lat="44.54734279005272" lon="9.269468800148443"><ele>618.6666666666666</ele><time>2026-03-28T12:54:26.999Z</time></trkpt><trkpt lat="44.547270373598955" lon="9.269232435417047"><ele>622.3333333333333</ele><time>2026-03-28T12:54:27.999Z</time></trkpt><trkpt lat="44.54719216293005" lon="9.269008316355464"><ele>626.0</ele><time>2026-03-28T12:54:29Z</time></trkpt><trkpt lat="44.54711605312288" lon="9.268808598703933"><ele>624.0</ele><time>2026-03-28T12:54:30Z</time></trkpt><trkpt lat="44.54701573442226" lon="9.268630563910458"><ele>622.0</ele><time>2026-03-28T12:54:31Z</time></trkpt><trkpt lat="44.54689184777537" lon="9.268461670493645"><ele>620.0</ele><time>2026-03-28T12:54:32Z</time></trkpt><trkpt lat="44.54676508936278" lon="9.26829727696953"><ele>620.0</ele><time>2026-03-28T12:54:33Z</time></trkpt><trkpt lat="44.546635915188354" lon="9.268135626849762"><ele>620.0</ele><time>2026-03-28T12:54:34Z</time></trkpt><trkpt lat="44.5465033791909" lon="9.267978612158387"><ele>620.0</ele><time>2026-03-28T12:54:35Z</time></trkpt><trkpt lat="44.546365998963196" lon="9.267817166920956"><ele>621.6666666666666</ele><time>2026-03-28T12:54:36Z</time></trkpt><trkpt lat="44.54623130651935" lon="9.2676520826418"><ele>623.3333333333334</ele><time>2026-03-28T12:54:37Z</time></trkpt><trkpt lat="44.54610888763317" lon="9.267489403943257"><ele>625.0</ele><time>2026-03-28T12:54:38Z</time></trkpt><trkpt lat="44.5460129086016" lon="9.26732484082645"><ele>623.75</ele><time>2026-03-28T12:54:39Z</time></trkpt><trkpt lat="44.545943970003705" lon="9.267159467173189"><ele>622.5</ele><time>2026-03-28T12:54:40Z</time></trkpt><trkpt lat="44.54589782892453" lon="9.266963087693366"><ele>621.25</ele><time>2026-03-28T12:54:41Z</time></trkpt><trkpt lat="44.545872863067615" lon="9.266744077216664"><ele>620.0</ele><time>2026-03-28T12:54:42Z</time></trkpt><trkpt lat="44.54585536533544" lon="9.266517600966495"><ele>622.0</ele><time>2026-03-28T12:54:43Z</time></trkpt><trkpt lat="44.545828012406695" lon="9.266283950472141"><ele>624.0</ele><time>2026-03-28T12:54:44Z</time></trkpt><trkpt lat="44.54578415625582" lon="9.266046598553604"><ele>626.0</ele><time>2026-03-28T12:54:45Z</time></trkpt><trkpt lat="44.545727367785275" lon="9.265805972230398"><ele>628.6666666666666</ele><time>2026-03-28T12:54:46Z</time></trkpt><trkpt lat="44.54566769495365" lon="9.265561189363419"><ele>631.3333333333334</ele><time>2026-03-28T12:54:47Z</time></trkpt><trkpt lat="44.54560845559982" lon="9.265319185588424"><ele>634.0</ele><time>2026-03-28T12:54:48Z</time></trkpt><trkpt lat="44.54554770270471" lon="9.265078700997652"><ele>634.0</ele><time>2026-03-28T12:54:49Z</time></trkpt><trkpt lat="44.545484827155846" lon="9.264833807278102"><ele>634.0</ele><time>2026-03-28T12:54:50Z</time></trkpt><trkpt lat="44.545412553421315" lon="9.264593938744671"><ele>634.0</ele><time>2026-03-28T12:54:51Z</time></trkpt><trkpt lat="44.545340180153836" lon="9.264348147590246"><ele>634.0</ele><time>2026-03-28T12:54:52Z</time></trkpt><trkpt lat="44.54526597151873" lon="9.264104975203784"><ele>634.0</ele><time>2026-03-28T12:54:53Z</time></trkpt><trkpt lat="44.545186032493326" lon="9.26386786453666"><ele>634.0</ele><time>2026-03-28T12:54:54Z</time></trkpt><trkpt lat="44.54510660206448" lon="9.263631058850367"><ele>634.0</ele><time>2026-03-28T12:54:55Z</time></trkpt><trkpt lat="44.545023998483856" lon="9.263394965109192"><ele>634.0</ele><time>2026-03-28T12:54:56Z</time></trkpt><trkpt lat="44.544942946873036" lon="9.263159451361032"><ele>634.0</ele><time>2026-03-28T12:54:57Z</time></trkpt><trkpt lat="44.54486384035192" lon="9.262921074436402"><ele>639.0</ele><time>2026-03-28T12:54:58Z</time></trkpt><trkpt lat="44.5447813575334" lon="9.262683762200165"><ele>644.0</ele><time>2026-03-28T12:54:59Z</time></trkpt><trkpt lat="44.54470110480321" lon="9.262447886911803"><ele>649.0</ele><time>2026-03-28T12:55:00Z</time></trkpt><trkpt lat="44.544621690808846" lon="9.26221138730521"><ele>649.0</ele><time>2026-03-28T12:55:01Z</time></trkpt><trkpt lat="44.54455196984915" lon="9.261969622838402"><ele>649.0</ele><time>2026-03-28T12:55:02Z</time></trkpt><trkpt lat="44.544487404324215" lon="9.26172421123988"><ele>649.0</ele><time>2026-03-28T12:55:03Z</time></trkpt><trkpt lat="44.54444065007288" lon="9.261482946167433"><ele>640.6666666666667</ele><time>2026-03-28T12:55:04Z</time></trkpt><trkpt lat="44.54440036681265" lon="9.261262563347588"><ele>632.3333333333334</ele><time>2026-03-28T12:55:05Z</time></trkpt><trkpt lat="44.54435916062473" lon="9.26105531650032"><ele>624.0</ele><time>2026-03-28T12:55:06Z</time></trkpt><trkpt lat="44.54431900604405" lon="9.260859791948407"><ele>624.0</ele><time>2026-03-28T12:55:07Z</time></trkpt><trkpt lat="44.54426907082269" lon="9.260681946539629"><ele>624.0</ele><time>2026-03-28T12:55:08Z</time></trkpt><trkpt lat="44.544212505901015" lon="9.260553508611922"><ele>624.0</ele><time>2026-03-28T12:55:09Z</time></trkpt><trkpt lat="44.544153867275625" lon="9.260478059689234"><ele>624.0</ele><time>2026-03-28T12:55:10Z</time></trkpt><trkpt lat="44.54406805500116" lon="9.260427680670002"><ele>624.0</ele><time>2026-03-28T12:55:11Z</time></trkpt><trkpt lat="44.543967091142605" lon="9.260387092499162"><ele>623.5</ele><time>2026-03-28T12:55:12Z</time></trkpt><trkpt lat="44.54385876287181" lon="9.260344784109448"><ele>623.0</ele><time>2026-03-28T12:55:13Z</time></trkpt><trkpt lat="44.54374342147384" lon="9.260301567989968"><ele>622.5</ele><time>2026-03-28T12:55:14Z</time></trkpt><trkpt lat="44.5436220719687" lon="9.260250473717914"><ele>622.0</ele><time>2026-03-28T12:55:15Z</time></trkpt><trkpt lat="44.54349319139529" lon="9.260191930440785"><ele>622.0</ele><time>2026-03-28T12:55:16Z</time></trkpt><trkpt lat="44.543353954496006" lon="9.260133671832062"><ele>622.0</ele><time>2026-03-28T12:55:17Z</time></trkpt><trkpt lat="44.54320746872408" lon="9.260077903417399"><ele>622.0</ele><time>2026-03-28T12:55:18Z</time></trkpt><trkpt lat="44.54305932261106" lon="9.260014861695991"><ele>622.0</ele><time>2026-03-28T12:55:19Z</time></trkpt><trkpt lat="44.54291131568487" lon="9.259945765560488"><ele>622.0</ele><time>2026-03-28T12:55:20Z</time></trkpt><trkpt lat="44.54276504494027" lon="9.25988180306467"><ele>622.0</ele><time>2026-03-28T12:55:21Z</time></trkpt><trkpt lat="44.542625724301736" lon="9.259821206019542"><ele>622.5</ele><time>2026-03-28T12:55:22Z</time></trkpt><trkpt lat="44.54248967234312" lon="9.259764763192448"><ele>623.0</ele><time>2026-03-28T12:55:23Z</time></trkpt><trkpt lat="44.54235976730128" lon="9.259725593023274"><ele>623.5</ele><time>2026-03-28T12:55:24Z</time></trkpt><trkpt lat="44.54222376108502" lon="9.259723835581797"><ele>624.0</ele><time>2026-03-28T12:55:25Z</time></trkpt><trkpt lat="44.54208538823621" lon="9.25976092507415"><ele>624.75</ele><time>2026-03-28T12:55:26Z</time></trkpt><trkpt lat="44.54195198992049" lon="9.25985489402338"><ele>625.5</ele><time>2026-03-28T12:55:27Z</time></trkpt><trkpt lat="44.54185474661952" lon="9.260018402507724"><ele>626.25</ele><time>2026-03-28T12:55:27.999Z</time></trkpt><trkpt lat="44.54174223833945" lon="9.260147684331294"><ele>627.0</ele><time>2026-03-28T12:55:28.999Z</time></trkpt><trkpt lat="44.54164246672008" lon="9.260297247535371"><ele>627.0</ele><time>2026-03-28T12:55:29.999Z</time></trkpt><trkpt lat="44.54154232206221" lon="9.26043687102191"><ele>627.0</ele><time>2026-03-28T12:55:30.999Z</time></trkpt><trkpt lat="44.54142976512154" lon="9.26056019868077"><ele>627.0</ele><time>2026-03-28T12:55:31.999Z</time></trkpt><trkpt lat="44.541305175374" lon="9.260665976556854"><ele>627.0</ele><time>2026-03-28T12:55:32.999Z</time></trkpt><trkpt lat="44.54117132249357" lon="9.260753553205735"><ele>628.6666666666666</ele><time>2026-03-28T12:55:33.999Z</time></trkpt><trkpt lat="44.54103443292804" lon="9.26083686725974"><ele>630.3333333333333</ele><time>2026-03-28T12:55:34.999Z</time></trkpt><trkpt lat="44.54088341946792" lon="9.26087408867884"><ele>632.0</ele><time>2026-03-28T12:55:35.999Z</time></trkpt><trkpt lat="44.54072946795721" lon="9.260897458418"><ele>632.0</ele><time>2026-03-28T12:55:36.999Z</time></trkpt><trkpt lat="44.54057180523256" lon="9.260886038855805"><ele>632.0</ele><time>2026-03-28T12:55:37.999Z</time></trkpt><trkpt lat="44.540413206458446" lon="9.260895680386492"><ele>632.0</ele><time>2026-03-28T12:55:38.999Z</time></trkpt><trkpt lat="44.54025508812043" lon="9.260901964670111"><ele>635.3333333333333</ele><time>2026-03-28T12:55:39.999Z</time></trkpt><trkpt lat="44.540097923528826" lon="9.260931265936101"><ele>638.6666666666666</ele><time>2026-03-28T12:55:40.999Z</time></trkpt><trkpt lat="44.53993493833443" lon="9.260936352008358"><ele>642.0</ele><time>2026-03-28T12:55:41.999Z</time></trkpt><trkpt lat="44.539773800008064" lon="9.260920701576982"><ele>642.0</ele><time>2026-03-28T12:55:42.999Z</time></trkpt><trkpt lat="44.53961165996466" lon="9.260926864128136"><ele>642.0</ele><time>2026-03-28T12:55:43.999Z</time></trkpt><trkpt lat="44.53944675231435" lon="9.260932809225157"><ele>642.0</ele><time>2026-03-28T12:55:44.999Z</time></trkpt><trkpt lat="44.53928015263538" lon="9.260938724293117"><ele>644.0</ele><time>2026-03-28T12:55:45.999Z</time></trkpt><trkpt lat="44.53911097144117" lon="9.260967133325051"><ele>646.0</ele><time>2026-03-28T12:55:46.999Z</time></trkpt><trkpt lat="44.53893802473458" lon="9.260950871437966"><ele>648.0</ele><time>2026-03-28T12:55:47.999Z</time></trkpt><trkpt lat="44.5387565170594" lon="9.260956595529796"><ele>645.0</ele><time>2026-03-28T12:55:48.999Z</time></trkpt><trkpt lat="44.53857185821008" lon="9.260981007889232"><ele>642.0</ele><time>2026-03-28T12:55:49.999Z</time></trkpt><trkpt lat="44.538377521745744" lon="9.260984238615"><ele>639.0</ele><time>2026-03-28T12:55:50.999Z</time></trkpt><trkpt lat="44.53817841729756" lon="9.260985588271158"><ele>639.0</ele><time>2026-03-28T12:55:51.999Z</time></trkpt><trkpt lat="44.53798030063657" lon="9.260977511609031"><ele>639.0</ele><time>2026-03-28T12:55:52.999Z</time></trkpt><trkpt lat="44.537780134150886" lon="9.260979993208935"><ele>639.0</ele><time>2026-03-28T12:55:53.999Z</time></trkpt><trkpt lat="44.53758168859418" lon="9.26098465722659"><ele>639.0</ele><time>2026-03-28T12:55:54.999Z</time></trkpt><trkpt lat="44.53738280486025" lon="9.260991216536446"><ele>639.0</ele><time>2026-03-28T12:55:55.999Z</time></trkpt><trkpt lat="44.53718322096014" lon="9.261001587090353"><ele>639.0</ele><time>2026-03-28T12:55:56.999Z</time></trkpt><trkpt lat="44.53698369519938" lon="9.261025062662675"><ele>639.0</ele><time>2026-03-28T12:55:57.999Z</time></trkpt><trkpt lat="44.53678289362524" lon="9.261057103756155"><ele>639.0</ele><time>2026-03-28T12:55:58.999Z</time></trkpt><trkpt lat="44.53658210995266" lon="9.26109157173779"><ele>639.0</ele><time>2026-03-28T12:55:59.999Z</time></trkpt><trkpt lat="44.53638569933726" lon="9.261130763540987"><ele>645.6666666666666</ele><time>2026-03-28T12:56:00.999Z</time></trkpt><trkpt lat="44.53620035605711" lon="9.261157601790403"><ele>652.3333333333333</ele><time>2026-03-28T12:56:01.999Z</time></trkpt><trkpt lat="44.53600997586603" lon="9.261167808834744"><ele>659.0</ele><time>2026-03-28T12:56:02.999Z</time></trkpt><trkpt lat="44.535825389530444" lon="9.261150955832285"><ele>659.0</ele><time>2026-03-28T12:56:03.999Z</time></trkpt><trkpt lat="44.535651141623184" lon="9.261131636520993"><ele>659.0</ele><time>2026-03-28T12:56:04.999Z</time></trkpt><trkpt lat="44.53548345248956" lon="9.261175999034045"><ele>659.0</ele><time>2026-03-28T12:56:05.999Z</time></trkpt><trkpt lat="44.535315182823176" lon="9.261260304500077"><ele>662.0</ele><time>2026-03-28T12:56:06.999Z</time></trkpt><trkpt lat="44.535157453998885" lon="9.26139052030131"><ele>665.0</ele><time>2026-03-28T12:56:07.999Z</time></trkpt><trkpt lat="44.53500190494589" lon="9.261530192789436"><ele>668.0</ele><time>2026-03-28T12:56:08.999Z</time></trkpt><trkpt lat="44.53484887879832" lon="9.261666819110763"><ele>658.0</ele><time>2026-03-28T12:56:09.999Z</time></trkpt><trkpt lat="44.534698698923584" lon="9.26177771380623"><ele>648.0</ele><time>2026-03-28T12:56:10.999Z</time></trkpt><trkpt lat="44.534533944247116" lon="9.261853892382353"><ele>638.0</ele><time>2026-03-28T12:56:11.999Z</time></trkpt><trkpt lat="44.53438428704003" lon="9.26190843431009"><ele>638.0</ele><time>2026-03-28T12:56:12.999Z</time></trkpt><trkpt lat="44.53425162180779" lon="9.261945035964727"><ele>638.0</ele><time>2026-03-28T12:56:13.999Z</time></trkpt><trkpt lat="44.53412688025903" lon="9.261949566146997"><ele>638.0</ele><time>2026-03-28T12:56:14.999Z</time></trkpt><trkpt lat="44.53402180706219" lon="9.26192556944314"><ele>638.0</ele><time>2026-03-28T12:56:15.999Z</time></trkpt><trkpt lat="44.53394079005156" lon="9.261810030617072"><ele>638.0</ele><time>2026-03-28T12:56:16.999Z</time></trkpt><trkpt lat="44.533882492435275" lon="9.261651429188493"><ele>638.0</ele><time>2026-03-28T12:56:17.999Z</time></trkpt><trkpt lat="44.53385467872212" lon="9.261461192672737"><ele>638.0</ele><time>2026-03-28T12:56:18.999Z</time></trkpt><trkpt lat="44.53383933636575" lon="9.261262377343876"><ele>638.0</ele><time>2026-03-28T12:56:19.999Z</time></trkpt><trkpt lat="44.53384083954679" lon="9.261046063997517"><ele>642.3333333333333</ele><time>2026-03-28T12:56:20.999Z</time></trkpt><trkpt lat="44.533852452702206" lon="9.260821199389301"><ele>646.6666666666666</ele><time>2026-03-28T12:56:21.999Z</time></trkpt><trkpt lat="44.533850556422514" lon="9.26058314869389"><ele>651.0</ele><time>2026-03-28T12:56:22.999Z</time></trkpt><trkpt lat="44.53385075804057" lon="9.260333604433846"><ele>653.3333333333334</ele><time>2026-03-28T12:56:23.999Z</time></trkpt><trkpt lat="44.53384262992184" lon="9.260075198019756"><ele>655.6666666666667</ele><time>2026-03-28T12:56:24.999Z</time></trkpt><trkpt lat="44.53384876919587" lon="9.25980894491009"><ele>658.0</ele><time>2026-03-28T12:56:25.999Z</time></trkpt><trkpt lat="44.533863383518124" lon="9.259539805018646"><ele>658.3333333333334</ele><time>2026-03-28T12:56:26.999Z</time></trkpt><trkpt lat="44.53389002154903" lon="9.259273412365003"><ele>658.6666666666666</ele><time>2026-03-28T12:56:27.999Z</time></trkpt><trkpt lat="44.533903612792955" lon="9.259004791775203"><ele>659.0</ele><time>2026-03-28T12:56:28.999Z</time></trkpt><trkpt lat="44.53388942103911" lon="9.258735840047967"><ele>659.0</ele><time>2026-03-28T12:56:29.999Z</time></trkpt><trkpt lat="44.53386132268459" lon="9.258469795338906"><ele>659.0</ele><time>2026-03-28T12:56:30.999Z</time></trkpt><trkpt lat="44.533842648652616" lon="9.258216807812218"><ele>659.0</ele><time>2026-03-28T12:56:31.999Z</time></trkpt><trkpt lat="44.53385328077903" lon="9.257969672423963"><ele>659.0</ele><time>2026-03-28T12:56:32.999Z</time></trkpt><trkpt lat="44.53387905886916" lon="9.257711344166372"><ele>659.0</ele><time>2026-03-28T12:56:33.999Z</time></trkpt><trkpt lat="44.533909125567874" lon="9.25745478694895"><ele>659.0</ele><time>2026-03-28T12:56:35Z</time></trkpt><trkpt lat="44.53393759495222" lon="9.257193574392023"><ele>659.0</ele><time>2026-03-28T12:56:36Z</time></trkpt><trkpt lat="44.53395896681175" lon="9.256936166961868"><ele>659.0</ele><time>2026-03-28T12:56:37Z</time></trkpt><trkpt lat="44.533981033497916" lon="9.25669432064284"><ele>659.0</ele><time>2026-03-28T12:56:38Z</time></trkpt><trkpt lat="44.53400440691446" lon="9.256474372704552"><ele>659.0</ele><time>2026-03-28T12:56:39Z</time></trkpt><trkpt lat="44.534029515892364" lon="9.256268412872148"><ele>659.0</ele><time>2026-03-28T12:56:40Z</time></trkpt><trkpt lat="44.534057479461694" lon="9.256075608379335"><ele>659.0</ele><time>2026-03-28T12:56:41Z</time></trkpt><trkpt lat="44.534077642155516" lon="9.255895241690006"><ele>659.0</ele><time>2026-03-28T12:56:42Z</time></trkpt><trkpt lat="44.534041266671714" lon="9.255719616828918"><ele>662.3333333333333</ele><time>2026-03-28T12:56:43Z</time></trkpt><trkpt lat="44.53396717822303" lon="9.25553736233073"><ele>665.6666666666666</ele><time>2026-03-28T12:56:44Z</time></trkpt><trkpt lat="44.533872716516804" lon="9.25536822059133"><ele>669.0</ele><time>2026-03-28T12:56:45Z</time></trkpt><trkpt lat="44.53376424358434" lon="9.255194906766405"><ele>667.6666666666666</ele><time>2026-03-28T12:56:46Z</time></trkpt><trkpt lat="44.533644198297544" lon="9.255026604476019"><ele>666.3333333333333</ele><time>2026-03-28T12:56:47Z</time></trkpt><trkpt lat="44.533507073194606" lon="9.254869055147902"><ele>665.0</ele><time>2026-03-28T12:56:48Z</time></trkpt><trkpt lat="44.53335511652108" lon="9.254728603480963"><ele>665.0</ele><time>2026-03-28T12:56:49Z</time></trkpt><trkpt lat="44.533206129526384" lon="9.254580676910418"><ele>665.0</ele><time>2026-03-28T12:56:50Z</time></trkpt><trkpt lat="44.53306323963037" lon="9.254450331571528"><ele>665.0</ele><time>2026-03-28T12:56:51Z</time></trkpt><trkpt lat="44.532929777703835" lon="9.254331790670511"><ele>659.6666666666666</ele><time>2026-03-28T12:56:52Z</time></trkpt><trkpt lat="44.532805143056" lon="9.254223239567319"><ele>654.3333333333334</ele><time>2026-03-28T12:56:53Z</time></trkpt><trkpt lat="44.53265880028534" lon="9.25417385212951"><ele>649.0</ele><time>2026-03-28T12:56:54Z</time></trkpt><trkpt lat="44.53250033900372" lon="9.254160604162177"><ele>649.0</ele><time>2026-03-28T12:56:55Z</time></trkpt><trkpt lat="44.53233695277786" lon="9.25414768026418"><ele>649.0</ele><time>2026-03-28T12:56:56Z</time></trkpt><trkpt lat="44.53216569705349" lon="9.254150922752371"><ele>649.0</ele><time>2026-03-28T12:56:57Z</time></trkpt><trkpt lat="44.531997750641146" lon="9.254188977519899"><ele>653.6666666666667</ele><time>2026-03-28T12:56:58Z</time></trkpt><trkpt lat="44.53182945179517" lon="9.254282064803492"><ele>658.3333333333334</ele><time>2026-03-28T12:56:59Z</time></trkpt><trkpt lat="44.531669493451275" lon="9.254405246906838"><ele>663.0</ele><time>2026-03-28T12:57:00Z</time></trkpt><trkpt lat="44.53151538217692" lon="9.254544509264703"><ele>663.0</ele><time>2026-03-28T12:57:01Z</time></trkpt><trkpt lat="44.531371900302766" lon="9.254713751806815"><ele>663.0</ele><time>2026-03-28T12:57:02Z</time></trkpt><trkpt lat="44.53123625345074" lon="9.254899689076495"><ele>663.0</ele><time>2026-03-28T12:57:03Z</time></trkpt><trkpt lat="44.53110840023639" lon="9.255103143725139"><ele>664.3333333333334</ele><time>2026-03-28T12:57:04Z</time></trkpt><trkpt lat="44.53098654858182" lon="9.25531709075957"><ele>665.6666666666667</ele><time>2026-03-28T12:57:05Z</time></trkpt><trkpt lat="44.530870852403794" lon="9.255525932630782"><ele>667.0</ele><time>2026-03-28T12:57:06Z</time></trkpt><trkpt lat="44.53076428839146" lon="9.255730374742502"><ele>661.0</ele><time>2026-03-28T12:57:07Z</time></trkpt><trkpt lat="44.53067178307092" lon="9.25595359733159"><ele>655.0</ele><time>2026-03-28T12:57:08Z</time></trkpt><trkpt lat="44.530595730645615" lon="9.256176508112336"><ele>649.0</ele><time>2026-03-28T12:57:09Z</time></trkpt><trkpt lat="44.53053800522678" lon="9.256401200703285"><ele>647.3333333333334</ele><time>2026-03-28T12:57:10Z</time></trkpt><trkpt lat="44.530458288123" lon="9.256598816493765"><ele>645.6666666666666</ele><time>2026-03-28T12:57:11Z</time></trkpt><trkpt lat="44.53042584278404" lon="9.256829345713573"><ele>644.0</ele><time>2026-03-28T12:57:12Z</time></trkpt><trkpt lat="44.530415689186874" lon="9.257071465949169"><ele>644.3333333333333</ele><time>2026-03-28T12:57:13Z</time></trkpt><trkpt lat="44.53040320881233" lon="9.257322771170577"><ele>644.6666666666666</ele><time>2026-03-28T12:57:14Z</time></trkpt><trkpt lat="44.530392801489455" lon="9.257570966847242"><ele>645.0</ele><time>2026-03-28T12:57:15Z</time></trkpt><trkpt lat="44.53038683496371" lon="9.257822185354474"><ele>645.3333333333334</ele><time>2026-03-28T12:57:16Z</time></trkpt><trkpt lat="44.53038532921506" lon="9.2580810847919"><ele>645.6666666666667</ele><time>2026-03-28T12:57:17Z</time></trkpt><trkpt lat="44.53039280246499" lon="9.258341668096275"><ele>646.0</ele><time>2026-03-28T12:57:18Z</time></trkpt><trkpt lat="44.53040295911985" lon="9.258599847779847"><ele>646.0</ele><time>2026-03-28T12:57:19Z</time></trkpt><trkpt lat="44.53041502651166" lon="9.258868811857214"><ele>646.0</ele><time>2026-03-28T12:57:20Z</time></trkpt><trkpt lat="44.530428116681065" lon="9.259140813912628"><ele>646.0</ele><time>2026-03-28T12:57:21Z</time></trkpt><trkpt lat="44.53044074531287" lon="9.259406110489017"><ele>646.3333333333334</ele><time>2026-03-28T12:57:22Z</time></trkpt><trkpt lat="44.530451478403144" lon="9.259657495711492"><ele>646.6666666666666</ele><time>2026-03-28T12:57:23Z</time></trkpt><trkpt lat="44.53039818513718" lon="9.259878078487665"><ele>647.0</ele><time>2026-03-28T12:57:24Z</time></trkpt><trkpt lat="44.53031411176816" lon="9.260091667538264"><ele>647.3333333333333</ele><time>2026-03-28T12:57:25Z</time></trkpt><trkpt lat="44.53018937511867" lon="9.260266806768945"><ele>647.6666666666666</ele><time>2026-03-28T12:57:26Z</time></trkpt><trkpt lat="44.530044449624974" lon="9.260407102423864"><ele>648.0</ele><time>2026-03-28T12:57:27Z</time></trkpt><trkpt lat="44.529869233553725" lon="9.260452509656984"><ele>648.0</ele><time>2026-03-28T12:57:28Z</time></trkpt><trkpt lat="44.52968434695247" lon="9.26044972784975"><ele>648.0</ele><time>2026-03-28T12:57:29Z</time></trkpt><trkpt lat="44.52950009458513" lon="9.260400489398403"><ele>648.0</ele><time>2026-03-28T12:57:30Z</time></trkpt><trkpt lat="44.52933329674085" lon="9.260285140210796"><ele>653.3333333333334</ele><time>2026-03-28T12:57:30.999Z</time></trkpt><trkpt lat="44.529151492360874" lon="9.260192088284272"><ele>658.6666666666667</ele><time>2026-03-28T12:57:31.999Z</time></trkpt><trkpt lat="44.528969172262975" lon="9.260131780449937"><ele>664.0</ele><time>2026-03-28T12:57:32.999Z</time></trkpt><trkpt lat="44.52878110325193" lon="9.260097966662235"><ele>660.0</ele><time>2026-03-28T12:57:33.999Z</time></trkpt><trkpt lat="44.528600576948904" lon="9.26007555089488"><ele>656.0</ele><time>2026-03-28T12:57:34.999Z</time></trkpt><trkpt lat="44.52844093150247" lon="9.259966033501078"><ele>652.0</ele><time>2026-03-28T12:57:35.999Z</time></trkpt><trkpt lat="44.5282938385" lon="9.259801078134759"><ele>654.0</ele><time>2026-03-28T12:57:36.999Z</time></trkpt><trkpt lat="44.52814671614878" lon="9.2596293798945"><ele>656.0</ele><time>2026-03-28T12:57:37.999Z</time></trkpt><trkpt lat="44.52799477452277" lon="9.259459036977798"><ele>658.0</ele><time>2026-03-28T12:57:38.999Z</time></trkpt><trkpt lat="44.527840137466555" lon="9.259297176387038"><ele>658.0</ele><time>2026-03-28T12:57:39.999Z</time></trkpt><trkpt lat="44.52768842819008" lon="9.25913352893152"><ele>658.0</ele><time>2026-03-28T12:57:40.999Z</time></trkpt><trkpt lat="44.527510612101565" lon="9.259029481144628"><ele>658.0</ele><time>2026-03-28T12:57:41.999Z</time></trkpt><trkpt lat="44.5273387847304" lon="9.25891186196658"><ele>658.0</ele><time>2026-03-28T12:57:42.999Z</time></trkpt><trkpt lat="44.5271643035499" lon="9.258792070556066"><ele>658.0</ele><time>2026-03-28T12:57:43.999Z</time></trkpt><trkpt lat="44.52700187897366" lon="9.25865137912471"><ele>658.0</ele><time>2026-03-28T12:57:44.999Z</time></trkpt><trkpt lat="44.52685275713444" lon="9.258485458188785"><ele>658.0</ele><time>2026-03-28T12:57:45.999Z</time></trkpt><trkpt lat="44.526716079308066" lon="9.258301580690112"><ele>658.0</ele><time>2026-03-28T12:57:46.999Z</time></trkpt><trkpt lat="44.52660732349534" lon="9.25808922483846"><ele>658.0</ele><time>2026-03-28T12:57:47.999Z</time></trkpt><trkpt lat="44.526523659752534" lon="9.257853565805751"><ele>661.0</ele><time>2026-03-28T12:57:48.999Z</time></trkpt><trkpt lat="44.526454823560414" lon="9.257606402166342"><ele>664.0</ele><time>2026-03-28T12:57:49.999Z</time></trkpt><trkpt lat="44.5264216475594" lon="9.25734586334171"><ele>667.0</ele><time>2026-03-28T12:57:50.999Z</time></trkpt><trkpt lat="44.52642284926864" lon="9.25708319360787"><ele>667.0</ele><time>2026-03-28T12:57:51.999Z</time></trkpt><trkpt lat="44.5264497995516" lon="9.256823314752419"><ele>667.0</ele><time>2026-03-28T12:57:52.999Z</time></trkpt><trkpt lat="44.52650828985339" lon="9.256575221168326"><ele>667.0</ele><time>2026-03-28T12:57:53.999Z</time></trkpt><trkpt lat="44.52659610702881" lon="9.256337873584439"><ele>664.6666666666667</ele><time>2026-03-28T12:57:54.999Z</time></trkpt><trkpt lat="44.52669531925224" lon="9.256110987667823"><ele>662.3333333333334</ele><time>2026-03-28T12:57:55.999Z</time></trkpt><trkpt lat="44.526793173807135" lon="9.255882652227507"><ele>660.0</ele><time>2026-03-28T12:57:56.999Z</time></trkpt><trkpt lat="44.52689314330894" lon="9.255652889844958"><ele>658.0</ele><time>2026-03-28T12:57:57.999Z</time></trkpt><trkpt lat="44.527002004504766" lon="9.25542775967096"><ele>656.0</ele><time>2026-03-28T12:57:58.999Z</time></trkpt><trkpt lat="44.52711503132817" lon="9.255205903795666"><ele>654.0</ele><time>2026-03-28T12:57:59.999Z</time></trkpt><trkpt lat="44.52722935428206" lon="9.254986858657926"><ele>655.0</ele><time>2026-03-28T12:58:00.999Z</time></trkpt><trkpt lat="44.5273504979461" lon="9.254772805104121"><ele>656.0</ele><time>2026-03-28T12:58:01.999Z</time></trkpt><trkpt lat="44.52747048149836" lon="9.254558435959483"><ele>657.0</ele><time>2026-03-28T12:58:02.999Z</time></trkpt><trkpt lat="44.52758700974091" lon="9.25434252437839"><ele>657.0</ele><time>2026-03-28T12:58:03.999Z</time></trkpt><trkpt lat="44.5277031334561" lon="9.25412776280948"><ele>657.0</ele><time>2026-03-28T12:58:04.999Z</time></trkpt><trkpt lat="44.527821010208804" lon="9.253914664491987"><ele>657.0</ele><time>2026-03-28T12:58:05.999Z</time></trkpt><trkpt lat="44.52794031221493" lon="9.253703365960241"><ele>662.0</ele><time>2026-03-28T12:58:06.999Z</time></trkpt><trkpt lat="44.52805820944509" lon="9.253491477028547"><ele>667.0</ele><time>2026-03-28T12:58:07.999Z</time></trkpt><trkpt lat="44.5281684845001" lon="9.253291902954189"><ele>672.0</ele><time>2026-03-28T12:58:08.999Z</time></trkpt><trkpt lat="44.528261636230376" lon="9.253104870099234"><ele>672.0</ele><time>2026-03-28T12:58:09.999Z</time></trkpt><trkpt lat="44.52832020131609" lon="9.252898242043097"><ele>672.0</ele><time>2026-03-28T12:58:10.999Z</time></trkpt><trkpt lat="44.52834952526507" lon="9.252660429211321"><ele>672.0</ele><time>2026-03-28T12:58:11.999Z</time></trkpt><trkpt lat="44.52835570231118" lon="9.252421666422745"><ele>672.6666666666666</ele><time>2026-03-28T12:58:12.999Z</time></trkpt><trkpt lat="44.5283423299696" lon="9.252206126183944"><ele>673.3333333333333</ele><time>2026-03-28T12:58:13.999Z</time></trkpt><trkpt lat="44.528317985146266" lon="9.2519948027851"><ele>674.0</ele><time>2026-03-28T12:58:14.999Z</time></trkpt><trkpt lat="44.52826755401186" lon="9.251792043213456"><ele>674.0</ele><time>2026-03-28T12:58:15.999Z</time></trkpt><trkpt lat="44.5281994436236" lon="9.251604140654347"><ele>674.0</ele><time>2026-03-28T12:58:16.999Z</time></trkpt><trkpt lat="44.52812272803641" lon="9.251443298613532"><ele>674.0</ele><time>2026-03-28T12:58:17.999Z</time></trkpt><trkpt lat="44.528036179871975" lon="9.251311186267511"><ele>674.0</ele><time>2026-03-28T12:58:18.999Z</time></trkpt><trkpt lat="44.52794440420769" lon="9.251207816153748"><ele>669.5</ele><time>2026-03-28T12:58:19.999Z</time></trkpt><trkpt lat="44.527857258230604" lon="9.251111436672424"><ele>665.0</ele><time>2026-03-28T12:58:20.999Z</time></trkpt><trkpt lat="44.527763443328794" lon="9.251024884307103"><ele>660.5</ele><time>2026-03-28T12:58:21.999Z</time></trkpt><trkpt lat="44.527668213156645" lon="9.250945083229242"><ele>656.0</ele><time>2026-03-28T12:58:22.999Z</time></trkpt><trkpt lat="44.52756767477486" lon="9.250856242513775"><ele>656.0</ele><time>2026-03-28T12:58:23.999Z</time></trkpt><trkpt lat="44.52747292363848" lon="9.250751500141266"><ele>656.0</ele><time>2026-03-28T12:58:24.999Z</time></trkpt><trkpt lat="44.52738221384657" lon="9.25063844571138"><ele>656.0</ele><time>2026-03-28T12:58:25.999Z</time></trkpt><trkpt lat="44.52729728392723" lon="9.250517835691962"><ele>656.0</ele><time>2026-03-28T12:58:26.999Z</time></trkpt><trkpt lat="44.52721457384174" lon="9.250400187435432"><ele>656.5999999999999</ele><time>2026-03-28T12:58:27.999Z</time></trkpt><trkpt lat="44.527133931043984" lon="9.250286131015237"><ele>657.2</ele><time>2026-03-28T12:58:28.999Z</time></trkpt><trkpt lat="44.52705619482146" lon="9.25016952400924"><ele>657.8</ele><time>2026-03-28T12:58:29.999Z</time></trkpt><trkpt lat="44.52698078189962" lon="9.25005826721497"><ele>658.4000000000001</ele><time>2026-03-28T12:58:30.999Z</time></trkpt><trkpt lat="44.526901260753334" lon="9.249948818424201"><ele>659.0</ele><time>2026-03-28T12:58:31.999Z</time></trkpt><trkpt lat="44.52682324862059" lon="9.249837488819821"><ele>660.2</ele><time>2026-03-28T12:58:32.999Z</time></trkpt><trkpt lat="44.52674504720472" lon="9.24972096834845"><ele>661.4000000000001</ele><time>2026-03-28T12:58:33.999Z</time></trkpt><trkpt lat="44.526667497221574" lon="9.249607119822238"><ele>662.6</ele><time>2026-03-28T12:58:34.999Z</time></trkpt><trkpt lat="44.526591776366786" lon="9.249490675391005"><ele>663.8</ele><time>2026-03-28T12:58:35.999Z</time></trkpt><trkpt lat="44.526515701454656" lon="9.249378453996346"><ele>665.0</ele><time>2026-03-28T12:58:36.999Z</time></trkpt><trkpt lat="44.52644283189088" lon="9.249261550475918"><ele>665.0</ele><time>2026-03-28T12:58:37.999Z</time></trkpt><trkpt lat="44.526368195121265" lon="9.24915406355677"><ele>665.0</ele><time>2026-03-28T12:58:38.999Z</time></trkpt><trkpt lat="44.526302538641744" lon="9.249038232027605"><ele>665.0</ele><time>2026-03-28T12:58:39.999Z</time></trkpt><trkpt lat="44.52623857648852" lon="9.248916580199355"><ele>665.0</ele><time>2026-03-28T12:58:41Z</time></trkpt><trkpt lat="44.52619089934805" lon="9.248780175505862"><ele>665.0</ele><time>2026-03-28T12:58:42Z</time></trkpt><trkpt lat="44.52612034984893" lon="9.248670291976655"><ele>664.6</ele><time>2026-03-28T12:58:43Z</time></trkpt><trkpt lat="44.526067961227014" lon="9.248546410241417"><ele>664.2</ele><time>2026-03-28T12:58:44Z</time></trkpt><trkpt lat="44.5260168592202" lon="9.2484236208851"><ele>663.8</ele><time>2026-03-28T12:58:45Z</time></trkpt><trkpt lat="44.52596082107241" lon="9.248301869236565"><ele>663.4</ele><time>2026-03-28T12:58:46Z</time></trkpt><trkpt lat="44.5259032283195" lon="9.24818187484969"><ele>663.0</ele><time>2026-03-28T12:58:47Z</time></trkpt><trkpt lat="44.52584381430869" lon="9.24806152683057"><ele>663.8</ele><time>2026-03-28T12:58:48Z</time></trkpt><trkpt lat="44.52579025360604" lon="9.247933191640188"><ele>664.5999999999999</ele><time>2026-03-28T12:58:49Z</time></trkpt><trkpt lat="44.525730743877304" lon="9.247806764017504"><ele>665.4000000000001</ele><time>2026-03-28T12:58:50Z</time></trkpt><trkpt lat="44.525659740522066" lon="9.24768825340633"><ele>666.2</ele><time>2026-03-28T12:58:51Z</time></trkpt><trkpt lat="44.525599602774925" lon="9.2475689076157"><ele>667.0</ele><time>2026-03-28T12:58:52Z</time></trkpt><trkpt lat="44.525539112170854" lon="9.247451567037986"><ele>667.0</ele><time>2026-03-28T12:58:53Z</time></trkpt><trkpt lat="44.52547355716774" lon="9.247335545104075"><ele>667.0</ele><time>2026-03-28T12:58:54Z</time></trkpt><trkpt lat="44.525406705282826" lon="9.24721627426548"><ele>667.0</ele><time>2026-03-28T12:58:55Z</time></trkpt><trkpt lat="44.525330889110094" lon="9.247108907007995"><ele>667.0</ele><time>2026-03-28T12:58:56Z</time></trkpt><trkpt lat="44.52528205201832" lon="9.246974381890329"><ele>667.0</ele><time>2026-03-28T12:58:57Z</time></trkpt><trkpt lat="44.52523869076181" lon="9.246832672085711"><ele>665.8</ele><time>2026-03-28T12:58:58Z</time></trkpt><trkpt lat="44.52521579983265" lon="9.246694645855738"><ele>664.6</ele><time>2026-03-28T12:58:59Z</time></trkpt><trkpt lat="44.525216384489134" lon="9.246569001304671"><ele>663.4</ele><time>2026-03-28T12:59:00Z</time></trkpt><trkpt lat="44.52524443743937" lon="9.24643500485625"><ele>662.1999999999999</ele><time>2026-03-28T12:59:01Z</time></trkpt><trkpt lat="44.525282412060974" lon="9.24629099752247"><ele>661.0</ele><time>2026-03-28T12:59:02Z</time></trkpt><trkpt lat="44.52531053316264" lon="9.246124105683355"><ele>660.5</ele><time>2026-03-28T12:59:03Z</time></trkpt><trkpt lat="44.52532618823444" lon="9.245945824434946"><ele>660.0</ele><time>2026-03-28T12:59:04Z</time></trkpt><trkpt lat="44.52534316885237" lon="9.24576004100906"><ele>659.5</ele><time>2026-03-28T12:59:05Z</time></trkpt><trkpt lat="44.525363692071295" lon="9.245564518244706"><ele>659.0</ele><time>2026-03-28T12:59:06Z</time></trkpt><trkpt lat="44.52539652168135" lon="9.245364284892284"><ele>664.6666666666666</ele><time>2026-03-28T12:59:07Z</time></trkpt><trkpt lat="44.52544149295969" lon="9.24515997586925"><ele>670.3333333333334</ele><time>2026-03-28T12:59:08Z</time></trkpt><trkpt lat="44.52549610807567" lon="9.24496338961723"><ele>676.0</ele><time>2026-03-28T12:59:09Z</time></trkpt><trkpt lat="44.52555511119778" lon="9.244763455832029"><ele>676.0</ele><time>2026-03-28T12:59:10Z</time></trkpt><trkpt lat="44.52561360894031" lon="9.24456214127357"><ele>676.0</ele><time>2026-03-28T12:59:11Z</time></trkpt><trkpt lat="44.525671525252775" lon="9.244359980027639"><ele>676.0</ele><time>2026-03-28T12:59:12Z</time></trkpt><trkpt lat="44.52572679469549" lon="9.244156457794558"><ele>673.6666666666667</ele><time>2026-03-28T12:59:13Z</time></trkpt><trkpt lat="44.525783054691004" lon="9.24395161079848"><ele>671.3333333333334</ele><time>2026-03-28T12:59:14Z</time></trkpt><trkpt lat="44.52583949164276" lon="9.243747679108216"><ele>669.0</ele><time>2026-03-28T12:59:15Z</time></trkpt><trkpt lat="44.525909796133945" lon="9.243549113086296"><ele>669.0</ele><time>2026-03-28T12:59:16Z</time></trkpt><trkpt lat="44.52600272913028" lon="9.243366811605748"><ele>669.0</ele><time>2026-03-28T12:59:17Z</time></trkpt><trkpt lat="44.52609984465918" lon="9.243202075181443"><ele>669.0</ele><time>2026-03-28T12:59:18Z</time></trkpt><trkpt lat="44.526162037046895" lon="9.24301712431255"><ele>667.75</ele><time>2026-03-28T12:59:19Z</time></trkpt><trkpt lat="44.52619402361461" lon="9.242817316026535"><ele>666.5</ele><time>2026-03-28T12:59:20Z</time></trkpt><trkpt lat="44.52622249552214" lon="9.24261620757184"><ele>665.25</ele><time>2026-03-28T12:59:21Z</time></trkpt><trkpt lat="44.52624323592792" lon="9.242426263737661"><ele>664.0</ele><time>2026-03-28T12:59:22Z</time></trkpt><trkpt lat="44.52626638631741" lon="9.242253221409149"><ele>666.8000000000001</ele><time>2026-03-28T12:59:23Z</time></trkpt><trkpt lat="44.526284554143245" lon="9.242094184620646"><ele>669.6</ele><time>2026-03-28T12:59:24Z</time></trkpt><trkpt lat="44.52630091459041" lon="9.24196829516396"><ele>672.4</ele><time>2026-03-28T12:59:25Z</time></trkpt><trkpt lat="44.52631756506002" lon="9.241864691964372"><ele>675.2</ele><time>2026-03-28T12:59:26Z</time></trkpt><trkpt lat="44.526336704954595" lon="9.241777861810363"><ele>678.0</ele><time>2026-03-28T12:59:27Z</time></trkpt><trkpt lat="44.52637884684042" lon="9.241644239437402"><ele>678.0</ele><time>2026-03-28T12:59:29Z</time></trkpt><trkpt lat="44.5263975273509" lon="9.241555237602556"><ele>678.0</ele><time>2026-03-28T12:59:31Z</time></trkpt><trkpt lat="44.5263996560363" lon="9.24145898003575"><ele>678.0</ele><time>2026-03-28T12:59:34.999Z</time></trkpt><trkpt lat="44.526506998584765" lon="9.241367350000754"><ele>678.0</ele><time>2026-03-28T13:01:30Z</time></trkpt><trkpt lat="44.52661553316176" lon="9.241271823678712"><ele>678.0</ele><time>2026-03-28T13:01:32Z</time></trkpt><trkpt lat="44.52668351579843" lon="9.241235792148416"><ele>678.3333333333334</ele><time>2026-03-28T13:01:33Z</time></trkpt><trkpt lat="44.526755093976675" lon="9.241207618560132"><ele>678.6666666666666</ele><time>2026-03-28T13:01:34Z</time></trkpt><trkpt lat="44.52682585215063" lon="9.24118180299811"><ele>679.0</ele><time>2026-03-28T13:01:35Z</time></trkpt><trkpt lat="44.52689799308608" lon="9.241149522469597"><ele>679.3333333333333</ele><time>2026-03-28T13:01:36Z</time></trkpt><trkpt lat="44.52696942801095" lon="9.241097592049456"><ele>679.6666666666666</ele><time>2026-03-28T13:01:37Z</time></trkpt><trkpt lat="44.527043552877174" lon="9.24104812470931"><ele>680.0</ele><time>2026-03-28T13:01:38Z</time></trkpt><trkpt lat="44.52711936398906" lon="9.240993135201139"><ele>680.0</ele><time>2026-03-28T13:01:39Z</time></trkpt><trkpt lat="44.52720971410543" lon="9.240952884234662"><ele>680.0</ele><time>2026-03-28T13:01:40Z</time></trkpt><trkpt lat="44.52730092554773" lon="9.240904082617748"><ele>680.0</ele><time>2026-03-28T13:01:41Z</time></trkpt><trkpt lat="44.52739903937683" lon="9.240865285512445"><ele>680.0</ele><time>2026-03-28T13:01:42Z</time></trkpt><trkpt lat="44.52750362503281" lon="9.240830865970121"><ele>680.0</ele><time>2026-03-28T13:01:43Z</time></trkpt><trkpt lat="44.52761423888434" lon="9.240760068739673"><ele>680.0</ele><time>2026-03-28T13:01:44Z</time></trkpt><trkpt lat="44.52771347131165" lon="9.240699198044409"><ele>680.0</ele><time>2026-03-28T13:01:45Z</time></trkpt><trkpt lat="44.52780609764396" lon="9.240615687598524"><ele>680.0</ele><time>2026-03-28T13:01:46Z</time></trkpt><trkpt lat="44.527901022089196" lon="9.240553489584958"><ele>680.0</ele><time>2026-03-28T13:01:46.999Z</time></trkpt><trkpt lat="44.52799591639756" lon="9.240509965222987"><ele>680.0</ele><time>2026-03-28T13:01:47.999Z</time></trkpt><trkpt lat="44.52809933936981" lon="9.240494431527889"><ele>680.0</ele><time>2026-03-28T13:01:48.999Z</time></trkpt><trkpt lat="44.528201565553" lon="9.240521458551342"><ele>680.0</ele><time>2026-03-28T13:01:49.999Z</time></trkpt><trkpt lat="44.52829553217225" lon="9.240568391428466"><ele>680.0</ele><time>2026-03-28T13:01:50.999Z</time></trkpt><trkpt lat="44.528386528709774" lon="9.240587383610558"><ele>680.0</ele><time>2026-03-28T13:01:51.999Z</time></trkpt><trkpt lat="44.52845537136598" lon="9.240550399154918"><ele>680.0</ele><time>2026-03-28T13:01:52.999Z</time></trkpt><trkpt lat="44.52849685142502" lon="9.240476403395947"><ele>680.0</ele><time>2026-03-28T13:01:53.999Z</time></trkpt><trkpt lat="44.52852016123238" lon="9.24037789636203"><ele>680.0</ele><time>2026-03-28T13:01:54.999Z</time></trkpt><trkpt lat="44.528469971849916" lon="9.240269721533574"><ele>680.0</ele><time>2026-03-28T13:01:55.999Z</time></trkpt><trkpt lat="44.52842648963383" lon="9.240159254159133"><ele>680.0</ele><time>2026-03-28T13:01:56.999Z</time></trkpt><trkpt lat="44.528429980393085" lon="9.240019585363038"><ele>680.0</ele><time>2026-03-28T13:01:57.999Z</time></trkpt><trkpt lat="44.528479460739376" lon="9.239895720590408"><ele>680.0</ele><time>2026-03-28T13:01:58.999Z</time></trkpt><trkpt lat="44.528565331656424" lon="9.239760285853707"><ele>679.0</ele><time>2026-03-28T13:01:59.999Z</time></trkpt><trkpt lat="44.528647310807585" lon="9.239600767977617"><ele>678.0</ele><time>2026-03-28T13:02:00.999Z</time></trkpt><trkpt lat="44.52873073659369" lon="9.239423380124117"><ele>677.0</ele><time>2026-03-28T13:02:01.999Z</time></trkpt><trkpt lat="44.52879425707065" lon="9.239221014161371"><ele>676.0</ele><time>2026-03-28T13:02:02.999Z</time></trkpt><trkpt lat="44.528833384591614" lon="9.238999064718726"><ele>686.0</ele><time>2026-03-28T13:02:03.999Z</time></trkpt><trkpt lat="44.5288774603194" lon="9.238775823099054"><ele>696.0</ele><time>2026-03-28T13:02:04.999Z</time></trkpt><trkpt lat="44.52893887089532" lon="9.23856190231262"><ele>706.0</ele><time>2026-03-28T13:02:05.999Z</time></trkpt><trkpt lat="44.52895913666673" lon="9.238342347459435"><ele>707.0</ele><time>2026-03-28T13:02:06.999Z</time></trkpt><trkpt lat="44.52895279756187" lon="9.238121616824793"><ele>708.0</ele><time>2026-03-28T13:02:07.999Z</time></trkpt><trkpt lat="44.52896602308286" lon="9.237925786021114"><ele>709.0</ele><time>2026-03-28T13:02:08.999Z</time></trkpt><trkpt lat="44.52899346444661" lon="9.237771033256081"><ele>710.0</ele><time>2026-03-28T13:02:09.999Z</time></trkpt><trkpt lat="44.52897371324173" lon="9.237626906810982"><ele>710.0</ele><time>2026-03-28T13:02:10.999Z</time></trkpt><trkpt lat="44.52891237269878" lon="9.237497320910668"><ele>710.0</ele><time>2026-03-28T13:02:11.999Z</time></trkpt><trkpt lat="44.52885154857989" lon="9.237347318880994"><ele>710.0</ele><time>2026-03-28T13:02:12.999Z</time></trkpt><trkpt lat="44.528794949001465" lon="9.23718378659451"><ele>710.0</ele><time>2026-03-28T13:02:13.999Z</time></trkpt><trkpt lat="44.52873289614257" lon="9.237016234149051"><ele>706.5</ele><time>2026-03-28T13:02:14.999Z</time></trkpt><trkpt lat="44.52867843053581" lon="9.236839553202413"><ele>703.0</ele><time>2026-03-28T13:02:15.999Z</time></trkpt><trkpt lat="44.528621800852044" lon="9.236654978581575"><ele>699.5</ele><time>2026-03-28T13:02:16.999Z</time></trkpt><trkpt lat="44.528573399309366" lon="9.2364746201948"><ele>696.0</ele><time>2026-03-28T13:02:17.999Z</time></trkpt><trkpt lat="44.52853611331461" lon="9.236308377118862"><ele>696.0</ele><time>2026-03-28T13:02:18.999Z</time></trkpt><trkpt lat="44.528517703478975" lon="9.23615213983695"><ele>696.0</ele><time>2026-03-28T13:02:19.999Z</time></trkpt><trkpt lat="44.52852135650802" lon="9.236004186338043"><ele>696.0</ele><time>2026-03-28T13:02:20.999Z</time></trkpt><trkpt lat="44.52852322123475" lon="9.23586179835999"><ele>696.0</ele><time>2026-03-28T13:02:21.999Z</time></trkpt><trkpt lat="44.528475833286734" lon="9.235725520528927"><ele>696.0</ele><time>2026-03-28T13:02:22.999Z</time></trkpt><trkpt lat="44.52839923601104" lon="9.235589469853238"><ele>696.25</ele><time>2026-03-28T13:02:23.999Z</time></trkpt><trkpt lat="44.52835692074326" lon="9.235425940260459"><ele>696.5</ele><time>2026-03-28T13:02:24.999Z</time></trkpt><trkpt lat="44.52832794653961" lon="9.235247204504919"><ele>696.75</ele><time>2026-03-28T13:02:25.999Z</time></trkpt><trkpt lat="44.52832465683307" lon="9.235066461030522"><ele>697.0</ele><time>2026-03-28T13:02:26.999Z</time></trkpt><trkpt lat="44.52834752629874" lon="9.234873038451324"><ele>694.5</ele><time>2026-03-28T13:02:27.999Z</time></trkpt><trkpt lat="44.528367882444265" lon="9.234691308222317"><ele>692.0</ele><time>2026-03-28T13:02:28.999Z</time></trkpt><trkpt lat="44.52837740513856" lon="9.234520284665907"><ele>689.5</ele><time>2026-03-28T13:02:29.999Z</time></trkpt><trkpt lat="44.52838567475895" lon="9.234342733904498"><ele>687.0</ele><time>2026-03-28T13:02:30.999Z</time></trkpt><trkpt lat="44.52838820379578" lon="9.234179401040707"><ele>687.0</ele><time>2026-03-28T13:02:31.999Z</time></trkpt><trkpt lat="44.52840530490497" lon="9.234032816528826"><ele>687.0</ele><time>2026-03-28T13:02:32.999Z</time></trkpt><trkpt lat="44.52845264054336" lon="9.233907542105008"><ele>687.0</ele><time>2026-03-28T13:02:33.999Z</time></trkpt><trkpt lat="44.52853336348568" lon="9.233818418679913"><ele>687.0</ele><time>2026-03-28T13:02:34.999Z</time></trkpt><trkpt lat="44.52863191895716" lon="9.233728665058374"><ele>687.0</ele><time>2026-03-28T13:02:35.999Z</time></trkpt><trkpt lat="44.52873704699989" lon="9.233646541766278"><ele>690.25</ele><time>2026-03-28T13:02:36.999Z</time></trkpt><trkpt lat="44.528870585850726" lon="9.233587738484374"><ele>693.5</ele><time>2026-03-28T13:02:37.999Z</time></trkpt><trkpt lat="44.52901027071081" lon="9.233551446087393"><ele>696.75</ele><time>2026-03-28T13:02:38.999Z</time></trkpt><trkpt lat="44.5291385606469" lon="9.233520146796907"><ele>700.0</ele><time>2026-03-28T13:02:39.999Z</time></trkpt><trkpt lat="44.529258609235214" lon="9.233474573563017"><ele>700.0</ele><time>2026-03-28T13:02:40.999Z</time></trkpt><trkpt lat="44.529351714050165" lon="9.233397001924669"><ele>700.0</ele><time>2026-03-28T13:02:41.999Z</time></trkpt><trkpt lat="44.52942045716575" lon="9.233285268958308"><ele>700.0</ele><time>2026-03-28T13:02:42.999Z</time></trkpt><trkpt lat="44.529474371292984" lon="9.233145065447626"><ele>700.0</ele><time>2026-03-28T13:02:43.999Z</time></trkpt><trkpt lat="44.52953804381213" lon="9.233010564678851"><ele>700.0</ele><time>2026-03-28T13:02:44.999Z</time></trkpt><trkpt lat="44.529605196266104" lon="9.232895796163938"><ele>701.1666666666667</ele><time>2026-03-28T13:02:45.999Z</time></trkpt><trkpt lat="44.52967427674492" lon="9.232792278952033"><ele>702.3333333333334</ele><time>2026-03-28T13:02:46.999Z</time></trkpt><trkpt lat="44.529772442696505" lon="9.232771859409233"><ele>703.5</ele><time>2026-03-28T13:02:47.999Z</time></trkpt><trkpt lat="44.529859048667284" lon="9.232715249709189"><ele>704.6666666666666</ele><time>2026-03-28T13:02:48.999Z</time></trkpt><trkpt lat="44.52993590914203" lon="9.232687688547626"><ele>705.8333333333333</ele><time>2026-03-28T13:02:49.999Z</time></trkpt><trkpt lat="44.52997678698759" lon="9.232605734072513"><ele>707.0</ele><time>2026-03-28T13:02:50.999Z</time></trkpt><trkpt lat="44.529981204585155" lon="9.232503750148549"><ele>707.0</ele><time>2026-03-28T13:02:51.999Z</time></trkpt><trkpt lat="44.52995476892304" lon="9.23238950720781"><ele>707.0</ele><time>2026-03-28T13:02:53Z</time></trkpt><trkpt lat="44.52985875618598" lon="9.23232545156731"><ele>707.0</ele><time>2026-03-28T13:02:54Z</time></trkpt><trkpt lat="44.52978497569638" lon="9.232257666241162"><ele>707.0</ele><time>2026-03-28T13:02:55Z</time></trkpt><trkpt lat="44.529734867159256" lon="9.232128242386098"><ele>707.0</ele><time>2026-03-28T13:02:56Z</time></trkpt><trkpt lat="44.52971121088789" lon="9.231951723272589"><ele>704.25</ele><time>2026-03-28T13:02:57Z</time></trkpt><trkpt lat="44.52968082985859" lon="9.231774271447595"><ele>701.5</ele><time>2026-03-28T13:02:58Z</time></trkpt><trkpt lat="44.52963042616187" lon="9.231590639995206"><ele>698.75</ele><time>2026-03-28T13:02:59Z</time></trkpt><trkpt lat="44.529570574472665" lon="9.231421649357138"><ele>696.0</ele><time>2026-03-28T13:03:00Z</time></trkpt><trkpt lat="44.52951251096663" lon="9.231269597272282"><ele>696.0</ele><time>2026-03-28T13:03:01Z</time></trkpt><trkpt lat="44.529456150296404" lon="9.231123757361983"><ele>696.0</ele><time>2026-03-28T13:03:02Z</time></trkpt><trkpt lat="44.529398598280025" lon="9.230960493927643"><ele>696.0</ele><time>2026-03-28T13:03:03Z</time></trkpt><trkpt lat="44.52935005006038" lon="9.230778712508602"><ele>696.0</ele><time>2026-03-28T13:03:04Z</time></trkpt><trkpt lat="44.529303449845294" lon="9.23058573393008"><ele>697.0</ele><time>2026-03-28T13:03:05Z</time></trkpt><trkpt lat="44.52925964540057" lon="9.230390531368608"><ele>698.0</ele><time>2026-03-28T13:03:06Z</time></trkpt><trkpt lat="44.529233879809574" lon="9.230222078284141"><ele>699.0</ele><time>2026-03-28T13:03:07Z</time></trkpt><trkpt lat="44.529193922980085" lon="9.230081066483123"><ele>700.0</ele><time>2026-03-28T13:03:08Z</time></trkpt><trkpt lat="44.529119115899675" lon="9.229952801934527"><ele>700.0</ele><time>2026-03-28T13:03:09Z</time></trkpt><trkpt lat="44.52903821906492" lon="9.229825640209725"><ele>700.0</ele><time>2026-03-28T13:03:10Z</time></trkpt><trkpt lat="44.528934190346476" lon="9.229711223561717"><ele>700.0</ele><time>2026-03-28T13:03:11Z</time></trkpt><trkpt lat="44.5288085856101" lon="9.229626491876427"><ele>700.0</ele><time>2026-03-28T13:03:12Z</time></trkpt><trkpt lat="44.52868254057059" lon="9.229537471929254"><ele>700.5</ele><time>2026-03-28T13:03:13Z</time></trkpt><trkpt lat="44.52857677359347" lon="9.229397203684286"><ele>701.0</ele><time>2026-03-28T13:03:14Z</time></trkpt><trkpt lat="44.52846093376963" lon="9.229280084277212"><ele>701.5</ele><time>2026-03-28T13:03:15Z</time></trkpt><trkpt lat="44.52835824639313" lon="9.22917656580694"><ele>702.0</ele><time>2026-03-28T13:03:16Z</time></trkpt><trkpt lat="44.52825857736255" lon="9.229106655918766"><ele>702.0</ele><time>2026-03-28T13:03:17Z</time></trkpt><trkpt lat="44.52818282326926" lon="9.229024088668004"><ele>702.0</ele><time>2026-03-28T13:03:18Z</time></trkpt><trkpt lat="44.528133740119" lon="9.228924459580027"><ele>702.0</ele><time>2026-03-28T13:03:19Z</time></trkpt><trkpt lat="44.52810718569406" lon="9.22880544509059"><ele>702.0</ele><time>2026-03-28T13:03:20Z</time></trkpt><trkpt lat="44.52808677996945" lon="9.228664926761864"><ele>702.0</ele><time>2026-03-28T13:03:21Z</time></trkpt><trkpt lat="44.52805502071132" lon="9.228510508234121"><ele>703.2</ele><time>2026-03-28T13:03:22Z</time></trkpt><trkpt lat="44.52800277402846" lon="9.228368691956794"><ele>704.4000000000001</ele><time>2026-03-28T13:03:23Z</time></trkpt><trkpt lat="44.527983759883554" lon="9.228234451041438"><ele>705.5999999999999</ele><time>2026-03-28T13:03:24Z</time></trkpt><trkpt lat="44.528004596765996" lon="9.228100734442299"><ele>706.8</ele><time>2026-03-28T13:03:25Z</time></trkpt><trkpt lat="44.52806102947435" lon="9.227974036557898"><ele>708.0</ele><time>2026-03-28T13:03:26Z</time></trkpt><trkpt lat="44.528134877168995" lon="9.227864736547254"><ele>708.0</ele><time>2026-03-28T13:03:27Z</time></trkpt><trkpt lat="44.52822738945207" lon="9.227744320046856"><ele>708.0</ele><time>2026-03-28T13:03:28Z</time></trkpt><trkpt lat="44.52831778804285" lon="9.227611980113549"><ele>708.0</ele><time>2026-03-28T13:03:29Z</time></trkpt><trkpt lat="44.52841410369919" lon="9.227469281880285"><ele>708.0</ele><time>2026-03-28T13:03:30Z</time></trkpt><trkpt lat="44.52850320254915" lon="9.227306170344804"><ele>705.25</ele><time>2026-03-28T13:03:31Z</time></trkpt><trkpt lat="44.528586420893184" lon="9.227128229096879"><ele>702.5</ele><time>2026-03-28T13:03:32Z</time></trkpt><trkpt lat="44.528669678753104" lon="9.226968739708765"><ele>699.75</ele><time>2026-03-28T13:03:33Z</time></trkpt><trkpt lat="44.52877142566911" lon="9.226835675060348"><ele>697.0</ele><time>2026-03-28T13:03:34Z</time></trkpt><trkpt lat="44.52889004093295" lon="9.226715245835901"><ele>698.3333333333334</ele><time>2026-03-28T13:03:35Z</time></trkpt><trkpt lat="44.529013845725956" lon="9.226591291513436"><ele>699.6666666666666</ele><time>2026-03-28T13:03:36Z</time></trkpt><trkpt lat="44.52912377717507" lon="9.226447610830185"><ele>701.0</ele><time>2026-03-28T13:03:37Z</time></trkpt><trkpt lat="44.52922778651456" lon="9.2262813319331"><ele>701.0</ele><time>2026-03-28T13:03:38Z</time></trkpt><trkpt lat="44.52932781508677" lon="9.22610665701819"><ele>701.0</ele><time>2026-03-28T13:03:39Z</time></trkpt><trkpt lat="44.5294178766349" lon="9.22593202450467"><ele>701.0</ele><time>2026-03-28T13:03:40Z</time></trkpt><trkpt lat="44.52948240379361" lon="9.225755420444345"><ele>700.0</ele><time>2026-03-28T13:03:41Z</time></trkpt><trkpt lat="44.529537124754256" lon="9.225590437490073"><ele>699.0</ele><time>2026-03-28T13:03:42Z</time></trkpt><trkpt lat="44.529593168217836" lon="9.225422994543251"><ele>698.0</ele><time>2026-03-28T13:03:43Z</time></trkpt><trkpt lat="44.52963997993015" lon="9.225236550489914"><ele>697.0</ele><time>2026-03-28T13:03:44Z</time></trkpt><trkpt lat="44.529679721271215" lon="9.225036001958419"><ele>703.25</ele><time>2026-03-28T13:03:45Z</time></trkpt><trkpt lat="44.5297090556195" lon="9.224825879448108"><ele>709.5</ele><time>2026-03-28T13:03:46Z</time></trkpt><trkpt lat="44.52972356570777" lon="9.224626834750026"><ele>715.75</ele><time>2026-03-28T13:03:47Z</time></trkpt><trkpt lat="44.529716763045585" lon="9.224431670319552"><ele>722.0</ele><time>2026-03-28T13:03:48Z</time></trkpt><trkpt lat="44.52969092987486" lon="9.224242590483074"><ele>722.0</ele><time>2026-03-28T13:03:49Z</time></trkpt><trkpt lat="44.52965184437844" lon="9.224049439956211"><ele>722.0</ele><time>2026-03-28T13:03:50Z</time></trkpt><trkpt lat="44.52959194857639" lon="9.22386214031893"><ele>722.0</ele><time>2026-03-28T13:03:51Z</time></trkpt><trkpt lat="44.5295135285959" lon="9.223677455094585"><ele>722.0</ele><time>2026-03-28T13:03:51.999Z</time></trkpt><trkpt lat="44.52942744559677" lon="9.223507303901625"><ele>722.75</ele><time>2026-03-28T13:03:52.999Z</time></trkpt><trkpt lat="44.52933623098721" lon="9.223368541314528"><ele>723.5</ele><time>2026-03-28T13:03:53.999Z</time></trkpt><trkpt lat="44.52924564933326" lon="9.223241179478213"><ele>724.25</ele><time>2026-03-28T13:03:54.999Z</time></trkpt><trkpt lat="44.52911860502347" lon="9.223163028872904"><ele>725.0</ele><time>2026-03-28T13:03:55.999Z</time></trkpt><trkpt lat="44.52898401893354" lon="9.223114607986028"><ele>725.0</ele><time>2026-03-28T13:03:56.999Z</time></trkpt><trkpt lat="44.5288470792542" lon="9.2230681066765"><ele>725.0</ele><time>2026-03-28T13:03:57.999Z</time></trkpt><trkpt lat="44.528720870156064" lon="9.223038597337831"><ele>725.0</ele><time>2026-03-28T13:03:58.999Z</time></trkpt><trkpt lat="44.52861153729348" lon="9.222942578147805"><ele>725.0</ele><time>2026-03-28T13:03:59.999Z</time></trkpt><trkpt lat="44.528515313030525" lon="9.22281545972707"><ele>721.2</ele><time>2026-03-28T13:04:00.999Z</time></trkpt><trkpt lat="44.528421986762176" lon="9.222699617589365"><ele>717.4</ele><time>2026-03-28T13:04:01.999Z</time></trkpt><trkpt lat="44.52833980951276" lon="9.222590935728768"><ele>713.5999999999999</ele><time>2026-03-28T13:04:02.999Z</time></trkpt><trkpt lat="44.52827926095779" lon="9.222492340050572"><ele>709.8</ele><time>2026-03-28T13:04:03.999Z</time></trkpt><trkpt lat="44.52825032040564" lon="9.222373230738947"><ele>706.0</ele><time>2026-03-28T13:04:04.999Z</time></trkpt><trkpt lat="44.528245601923985" lon="9.22223048491031"><ele>706.0</ele><time>2026-03-28T13:04:05.999Z</time></trkpt><trkpt lat="44.52824482475548" lon="9.222084482084806"><ele>706.0</ele><time>2026-03-28T13:04:06.999Z</time></trkpt><trkpt lat="44.52826079247111" lon="9.221933603914781"><ele>706.0</ele><time>2026-03-28T13:04:07.999Z</time></trkpt><trkpt lat="44.528287579988685" lon="9.221781396697947"><ele>706.0</ele><time>2026-03-28T13:04:08.999Z</time></trkpt><trkpt lat="44.52832242396483" lon="9.22162987472574"><ele>706.0</ele><time>2026-03-28T13:04:09.999Z</time></trkpt><trkpt lat="44.52835327156375" lon="9.22146795598361"><ele>704.75</ele><time>2026-03-28T13:04:10.999Z</time></trkpt><trkpt lat="44.52838124251739" lon="9.22130464202282"><ele>703.5</ele><time>2026-03-28T13:04:11.999Z</time></trkpt><trkpt lat="44.52841581680061" lon="9.221145098510346"><ele>702.25</ele><time>2026-03-28T13:04:12.999Z</time></trkpt><trkpt lat="44.52845711205992" lon="9.220989666748828"><ele>701.0</ele><time>2026-03-28T13:04:13.999Z</time></trkpt><trkpt lat="44.52851584223742" lon="9.220847725422393"><ele>701.0</ele><time>2026-03-28T13:04:14.999Z</time></trkpt><trkpt lat="44.52858328027199" lon="9.220717213560132"><ele>701.0</ele><time>2026-03-28T13:04:15.999Z</time></trkpt><trkpt lat="44.52865793502022" lon="9.220598634408397"><ele>701.0</ele><time>2026-03-28T13:04:16.999Z</time></trkpt><trkpt lat="44.52873981460121" lon="9.220490611592538"><ele>701.0</ele><time>2026-03-28T13:04:17.999Z</time></trkpt><trkpt lat="44.52882783261454" lon="9.22038788403687"><ele>701.75</ele><time>2026-03-28T13:04:18.999Z</time></trkpt><trkpt lat="44.52890108807507" lon="9.220265159810461"><ele>702.5</ele><time>2026-03-28T13:04:19.999Z</time></trkpt><trkpt lat="44.52894337687461" lon="9.220116641568898"><ele>703.25</ele><time>2026-03-28T13:04:20.999Z</time></trkpt><trkpt lat="44.528969111828324" lon="9.219958046144097"><ele>704.0</ele><time>2026-03-28T13:04:21.999Z</time></trkpt><trkpt lat="44.52901642851304" lon="9.219803690454187"><ele>704.0</ele><time>2026-03-28T13:04:22.999Z</time></trkpt><trkpt lat="44.52909427833153" lon="9.219668040306109"><ele>704.0</ele><time>2026-03-28T13:04:23.999Z</time></trkpt><trkpt lat="44.529185003292866" lon="9.219546346993349"><ele>704.0</ele><time>2026-03-28T13:04:24.999Z</time></trkpt><trkpt lat="44.52927515671707" lon="9.219425306505702"><ele>704.0</ele><time>2026-03-28T13:04:25.999Z</time></trkpt><trkpt lat="44.52936590623837" lon="9.21930803338849"><ele>704.0</ele><time>2026-03-28T13:04:26.999Z</time></trkpt><trkpt lat="44.529453874600215" lon="9.219185554405353"><ele>704.0</ele><time>2026-03-28T13:04:27.999Z</time></trkpt><trkpt lat="44.52954338538757" lon="9.219063127333738"><ele>704.0</ele><time>2026-03-28T13:04:28.999Z</time></trkpt><trkpt lat="44.529632986010625" lon="9.218947593396079"><ele>704.0</ele><time>2026-03-28T13:04:29.999Z</time></trkpt><trkpt lat="44.52970786367899" lon="9.218814692345438"><ele>708.25</ele><time>2026-03-28T13:04:30.999Z</time></trkpt><trkpt lat="44.52974728266369" lon="9.218651152581135"><ele>712.5</ele><time>2026-03-28T13:04:31.999Z</time></trkpt><trkpt lat="44.52976421274817" lon="9.218483136028967"><ele>716.75</ele><time>2026-03-28T13:04:32.999Z</time></trkpt><trkpt lat="44.52978987390673" lon="9.218320905951296"><ele>721.0</ele><time>2026-03-28T13:04:33.999Z</time></trkpt><trkpt lat="44.529859379843224" lon="9.218173238906003"><ele>717.5</ele><time>2026-03-28T13:04:34.999Z</time></trkpt><trkpt lat="44.529947569480726" lon="9.218065987984332"><ele>714.0</ele><time>2026-03-28T13:04:35.999Z</time></trkpt><trkpt lat="44.53005528744971" lon="9.218009471903251"><ele>710.5</ele><time>2026-03-28T13:04:36.999Z</time></trkpt><trkpt lat="44.530169513756874" lon="9.217967735913794"><ele>707.0</ele><time>2026-03-28T13:04:37.999Z</time></trkpt><trkpt lat="44.53028080186099" lon="9.217897785367716"><ele>707.0</ele><time>2026-03-28T13:04:38.999Z</time></trkpt><trkpt lat="44.53037038240419" lon="9.217783259458294"><ele>707.0</ele><time>2026-03-28T13:04:39.999Z</time></trkpt><trkpt lat="44.53043796214616" lon="9.217637007580674"><ele>707.0</ele><time>2026-03-28T13:04:40.999Z</time></trkpt><trkpt lat="44.53050888135421" lon="9.217515065935254"><ele>707.0</ele><time>2026-03-28T13:04:41.999Z</time></trkpt><trkpt lat="44.53060566101448" lon="9.217456019208292"><ele>712.75</ele><time>2026-03-28T13:04:42.999Z</time></trkpt><trkpt lat="44.53070402620347" lon="9.21745975520552"><ele>718.5</ele><time>2026-03-28T13:04:43.999Z</time></trkpt><trkpt lat="44.530807739829555" lon="9.217518833841323"><ele>724.25</ele><time>2026-03-28T13:04:44.999Z</time></trkpt><trkpt lat="44.53091220781988" lon="9.21761874277384"><ele>730.0</ele><time>2026-03-28T13:04:45.999Z</time></trkpt><trkpt lat="44.53103613141302" lon="9.217645105778642"><ele>730.0</ele><time>2026-03-28T13:04:46.999Z</time></trkpt><trkpt lat="44.53116929955307" lon="9.217613891636839"><ele>730.0</ele><time>2026-03-28T13:04:47.999Z</time></trkpt><trkpt lat="44.53131908867974" lon="9.217607384470638"><ele>730.0</ele><time>2026-03-28T13:04:48.999Z</time></trkpt><trkpt lat="44.53145475797444" lon="9.217629267603476"><ele>730.0</ele><time>2026-03-28T13:04:49.999Z</time></trkpt><trkpt lat="44.53156540560735" lon="9.217658316230374"><ele>732.8333333333334</ele><time>2026-03-28T13:04:50.999Z</time></trkpt><trkpt lat="44.531663498497785" lon="9.21765427002943"><ele>735.6666666666667</ele><time>2026-03-28T13:04:51.999Z</time></trkpt><trkpt lat="44.53173836967607" lon="9.217607753511752"><ele>738.5</ele><time>2026-03-28T13:04:52.999Z</time></trkpt><trkpt lat="44.531785158629454" lon="9.217528797063727"><ele>741.3333333333334</ele><time>2026-03-28T13:04:53.999Z</time></trkpt><trkpt lat="44.53179126600181" lon="9.2174296442264"><ele>744.1666666666666</ele><time>2026-03-28T13:04:54.999Z</time></trkpt><trkpt lat="44.531771318707705" lon="9.217308029557232"><ele>747.0</ele><time>2026-03-28T13:04:55.999Z</time></trkpt><trkpt lat="44.5316856636414" lon="9.217208120621288"><ele>747.25</ele><time>2026-03-28T13:04:56.999Z</time></trkpt><trkpt lat="44.53158188220756" lon="9.217124437964673"><ele>747.5</ele><time>2026-03-28T13:04:57.999Z</time></trkpt><trkpt lat="44.531472761488246" lon="9.217038597509562"><ele>747.75</ele><time>2026-03-28T13:04:59Z</time></trkpt><trkpt lat="44.531369847989986" lon="9.216958054371263"><ele>748.0</ele><time>2026-03-28T13:05:00Z</time></trkpt><trkpt lat="44.5312808519721" lon="9.216877760386353"><ele>748.0</ele><time>2026-03-28T13:05:01Z</time></trkpt><trkpt lat="44.53121969766571" lon="9.216791939604477"><ele>748.0</ele><time>2026-03-28T13:05:02Z</time></trkpt><trkpt lat="44.53122644615826" lon="9.216657621271391"><ele>748.0</ele><time>2026-03-28T13:05:03Z</time></trkpt><trkpt lat="44.53128914082775" lon="9.216520915032579"><ele>748.0</ele><time>2026-03-28T13:05:04Z</time></trkpt><trkpt lat="44.531399616704284" lon="9.216413869964294"><ele>748.0</ele><time>2026-03-28T13:05:05Z</time></trkpt><trkpt lat="44.531506446632875" lon="9.216332207211577"><ele>743.5</ele><time>2026-03-28T13:05:06Z</time></trkpt><trkpt lat="44.5316092535697" lon="9.216230573426001"><ele>739.0</ele><time>2026-03-28T13:05:07Z</time></trkpt><trkpt lat="44.53171984684238" lon="9.216158601157288"><ele>734.5</ele><time>2026-03-28T13:05:08Z</time></trkpt><trkpt lat="44.531849503717204" lon="9.216140655958384"><ele>730.0</ele><time>2026-03-28T13:05:09Z</time></trkpt><trkpt lat="44.53198355322244" lon="9.216156500250216"><ele>733.25</ele><time>2026-03-28T13:05:10Z</time></trkpt><trkpt lat="44.53212146175362" lon="9.216156653237851"><ele>736.5</ele><time>2026-03-28T13:05:11Z</time></trkpt><trkpt lat="44.532258990098235" lon="9.216159067610892"><ele>739.75</ele><time>2026-03-28T13:05:12Z</time></trkpt><trkpt lat="44.532399847187115" lon="9.216167087698508"><ele>743.0</ele><time>2026-03-28T13:05:13Z</time></trkpt><trkpt lat="44.53254558353345" lon="9.216176785920686"><ele>743.0</ele><time>2026-03-28T13:05:14Z</time></trkpt><trkpt lat="44.53269018733047" lon="9.216186284078418"><ele>743.0</ele><time>2026-03-28T13:05:15Z</time></trkpt><trkpt lat="44.532836968766055" lon="9.216192632681766"><ele>743.0</ele><time>2026-03-28T13:05:16Z</time></trkpt><trkpt lat="44.53298270659717" lon="9.216193360680245"><ele>743.0</ele><time>2026-03-28T13:05:17Z</time></trkpt><trkpt lat="44.53312525883659" lon="9.216197627651455"><ele>746.0</ele><time>2026-03-28T13:05:18Z</time></trkpt><trkpt lat="44.53326596691701" lon="9.216203667988989"><ele>749.0</ele><time>2026-03-28T13:05:19Z</time></trkpt><trkpt lat="44.53340573209095" lon="9.216208317882074"><ele>752.0</ele><time>2026-03-28T13:05:20Z</time></trkpt><trkpt lat="44.53354488580245" lon="9.216212633924068"><ele>755.0</ele><time>2026-03-28T13:05:21Z</time></trkpt><trkpt lat="44.53369001751969" lon="9.21622653086402"><ele>759.4</ele><time>2026-03-28T13:05:22Z</time></trkpt><trkpt lat="44.53381846284435" lon="9.216232518185704"><ele>763.8</ele><time>2026-03-28T13:05:23Z</time></trkpt><trkpt lat="44.53392596749229" lon="9.21622831774498"><ele>768.2</ele><time>2026-03-28T13:05:24Z</time></trkpt><trkpt lat="44.53402649621471" lon="9.216211883963847"><ele>772.6</ele><time>2026-03-28T13:05:25Z</time></trkpt><trkpt lat="44.53410979373587" lon="9.216177523097194"><ele>777.0</ele><time>2026-03-28T13:05:26Z</time></trkpt><trkpt lat="44.53417380062667" lon="9.2161079565016"><ele>777.0</ele><time>2026-03-28T13:05:27Z</time></trkpt><trkpt lat="44.53421738429487" lon="9.216003027107249"><ele>777.0</ele><time>2026-03-28T13:05:28Z</time></trkpt><trkpt lat="44.5342317879433" lon="9.215864690230651"><ele>777.0</ele><time>2026-03-28T13:05:29Z</time></trkpt><trkpt lat="44.53420777266597" lon="9.21572970643939"><ele>777.0</ele><time>2026-03-28T13:05:30Z</time></trkpt><trkpt lat="44.534157027328725" lon="9.215591075613812"><ele>777.0</ele><time>2026-03-28T13:05:31Z</time></trkpt><trkpt lat="44.5340644235572" lon="9.215475356705825"><ele>775.25</ele><time>2026-03-28T13:05:32Z</time></trkpt><trkpt lat="44.533959410294905" lon="9.215354463597231"><ele>773.5</ele><time>2026-03-28T13:05:33Z</time></trkpt><trkpt lat="44.53385000182509" lon="9.215222040512545"><ele>771.75</ele><time>2026-03-28T13:05:34Z</time></trkpt><trkpt lat="44.53372059478028" lon="9.215107378911927"><ele>770.0</ele><time>2026-03-28T13:05:35Z</time></trkpt><trkpt lat="44.5335878947757" lon="9.21500097577166"><ele>770.0</ele><time>2026-03-28T13:05:36Z</time></trkpt><trkpt lat="44.533459496198276" lon="9.21489746432462"><ele>770.0</ele><time>2026-03-28T13:05:37Z</time></trkpt><trkpt lat="44.53334193322795" lon="9.214833228595738"><ele>770.0</ele><time>2026-03-28T13:05:38Z</time></trkpt><trkpt lat="44.53326325249499" lon="9.214734683237216"><ele>770.0</ele><time>2026-03-28T13:05:39Z</time></trkpt><trkpt lat="44.53322956400399" lon="9.214627260424734"><ele>770.8</ele><time>2026-03-28T13:05:40Z</time></trkpt><trkpt lat="44.533227135324196" lon="9.21449290671289"><ele>771.6</ele><time>2026-03-28T13:05:41Z</time></trkpt><trkpt lat="44.533273155268894" lon="9.214357987902659"><ele>772.4000000000001</ele><time>2026-03-28T13:05:42Z</time></trkpt><trkpt lat="44.5333533910074" lon="9.214247222459766"><ele>773.2</ele><time>2026-03-28T13:05:43Z</time></trkpt><trkpt lat="44.53345969573737" lon="9.214197301613563"><ele>774.0</ele><time>2026-03-28T13:05:44Z</time></trkpt><trkpt lat="44.533571735021546" lon="9.21418765122225"><ele>774.0</ele><time>2026-03-28T13:05:45Z</time></trkpt><trkpt lat="44.53369441342122" lon="9.214194117450512"><ele>774.0</ele><time>2026-03-28T13:05:46Z</time></trkpt><trkpt lat="44.533833935126744" lon="9.214197711637578"><ele>774.0</ele><time>2026-03-28T13:05:47Z</time></trkpt><trkpt lat="44.53397956641948" lon="9.214185876589484"><ele>774.0</ele><time>2026-03-28T13:05:48Z</time></trkpt><trkpt lat="44.53412978874101" lon="9.214176225799232"><ele>774.5</ele><time>2026-03-28T13:05:49Z</time></trkpt><trkpt lat="44.53428075225258" lon="9.214164312227702"><ele>775.0</ele><time>2026-03-28T13:05:50Z</time></trkpt><trkpt lat="44.534399252814644" lon="9.21412411341116"><ele>775.5</ele><time>2026-03-28T13:05:51Z</time></trkpt><trkpt lat="44.53448338364148" lon="9.214043997021232"><ele>776.0</ele><time>2026-03-28T13:05:52Z</time></trkpt><trkpt lat="44.53452834360718" lon="9.213939103536436"><ele>776.0</ele><time>2026-03-28T13:05:52.999Z</time></trkpt><trkpt lat="44.53452668129388" lon="9.213780015407087"><ele>776.0</ele><time>2026-03-28T13:05:53.999Z</time></trkpt><trkpt lat="44.5345127069291" lon="9.213612284765334"><ele>776.0</ele><time>2026-03-28T13:05:54.999Z</time></trkpt><trkpt lat="44.534532263084365" lon="9.213467754234049"><ele>776.0</ele><time>2026-03-28T13:05:55.999Z</time></trkpt><trkpt lat="44.5345886861809" lon="9.213372694957874"><ele>776.0</ele><time>2026-03-28T13:05:56.999Z</time></trkpt><trkpt lat="44.534688106427716" lon="9.213322852622198"><ele>781.0</ele><time>2026-03-28T13:05:57.999Z</time></trkpt><trkpt lat="44.53479906064316" lon="9.21333620028624"><ele>786.0</ele><time>2026-03-28T13:05:58.999Z</time></trkpt><trkpt lat="44.53491938332183" lon="9.213376151661011"><ele>791.0</ele><time>2026-03-28T13:05:59.999Z</time></trkpt><trkpt lat="44.53503874610481" lon="9.213424949904267"><ele>796.0</ele><time>2026-03-28T13:06:00.999Z</time></trkpt><trkpt lat="44.53512848482064" lon="9.213515317588188"><ele>796.0</ele><time>2026-03-28T13:06:01.999Z</time></trkpt><trkpt lat="44.53520543870424" lon="9.21365456739398"><ele>796.0</ele><time>2026-03-28T13:06:02.999Z</time></trkpt><trkpt lat="44.5352767920665" lon="9.213821838032839"><ele>796.0</ele><time>2026-03-28T13:06:03.999Z</time></trkpt><trkpt lat="44.53534556876601" lon="9.214002584913763"><ele>796.0</ele><time>2026-03-28T13:06:04.999Z</time></trkpt><trkpt lat="44.53542050012268" lon="9.214182854550895"><ele>800.25</ele><time>2026-03-28T13:06:05.999Z</time></trkpt><trkpt lat="44.535498601224056" lon="9.214358002132755"><ele>804.5</ele><time>2026-03-28T13:06:06.999Z</time></trkpt><trkpt lat="44.53557494999569" lon="9.214510570191099"><ele>808.75</ele><time>2026-03-28T13:06:07.999Z</time></trkpt><trkpt lat="44.53566591161007" lon="9.214616104024618"><ele>813.0</ele><time>2026-03-28T13:06:08.999Z</time></trkpt><trkpt lat="44.53578455080688" lon="9.214682560362245"><ele>813.0</ele><time>2026-03-28T13:06:09.999Z</time></trkpt><trkpt lat="44.53591150278748" lon="9.214701907820364"><ele>813.0</ele><time>2026-03-28T13:06:10.999Z</time></trkpt><trkpt lat="44.53602821423775" lon="9.21468454043355"><ele>813.0</ele><time>2026-03-28T13:06:11.999Z</time></trkpt><trkpt lat="44.53614598408603" lon="9.214598231413955"><ele>813.0</ele><time>2026-03-28T13:06:12.999Z</time></trkpt><trkpt lat="44.53623887211979" lon="9.214476222175605"><ele>812.0</ele><time>2026-03-28T13:06:13.999Z</time></trkpt><trkpt lat="44.536300793239796" lon="9.214312920155427"><ele>811.0</ele><time>2026-03-28T13:06:14.999Z</time></trkpt><trkpt lat="44.53632941823807" lon="9.214131442189307"><ele>810.0</ele><time>2026-03-28T13:06:15.999Z</time></trkpt><trkpt lat="44.5363476724434" lon="9.213947800109668"><ele>809.0</ele><time>2026-03-28T13:06:16.999Z</time></trkpt><trkpt lat="44.53639908200812" lon="9.213808198651458"><ele>809.0</ele><time>2026-03-28T13:06:17.999Z</time></trkpt><trkpt lat="44.53647960027382" lon="9.213741867893818"><ele>809.0</ele><time>2026-03-28T13:06:18.999Z</time></trkpt><trkpt lat="44.53657348421124" lon="9.213720432770938"><ele>809.0</ele><time>2026-03-28T13:06:19.999Z</time></trkpt><trkpt lat="44.53668852641505" lon="9.213773812049817"><ele>809.0</ele><time>2026-03-28T13:06:20.999Z</time></trkpt><trkpt lat="44.53680840641588" lon="9.213819322945664"><ele>809.0</ele><time>2026-03-28T13:06:21.999Z</time></trkpt><trkpt lat="44.5369330551503" lon="9.213846041945914"><ele>811.6</ele><time>2026-03-28T13:06:22.999Z</time></trkpt><trkpt lat="44.53706383080917" lon="9.213882299421067"><ele>814.2</ele><time>2026-03-28T13:06:23.999Z</time></trkpt><trkpt lat="44.53717670835812" lon="9.213897442439759"><ele>816.8000000000001</ele><time>2026-03-28T13:06:24.999Z</time></trkpt><trkpt lat="44.53726527464172" lon="9.213852878579319"><ele>819.4000000000001</ele><time>2026-03-28T13:06:25.999Z</time></trkpt><trkpt lat="44.537331731369605" lon="9.213749066200416"><ele>822.0</ele><time>2026-03-28T13:06:26.999Z</time></trkpt><trkpt lat="44.53740664321354" lon="9.213647329897734"><ele>822.0</ele><time>2026-03-28T13:06:27.999Z</time></trkpt><trkpt lat="44.53749761479886" lon="9.213590802387632"><ele>822.0</ele><time>2026-03-28T13:06:28.999Z</time></trkpt><trkpt lat="44.53760466321274" lon="9.213599432758695"><ele>822.0</ele><time>2026-03-28T13:06:29.999Z</time></trkpt><trkpt lat="44.53770822047858" lon="9.213661465506652"><ele>822.0</ele><time>2026-03-28T13:06:30.999Z</time></trkpt><trkpt lat="44.537812756924865" lon="9.21370485325908"><ele>822.0</ele><time>2026-03-28T13:06:31.999Z</time></trkpt><trkpt lat="44.53792051907934" lon="9.213758595014454"><ele>821.2</ele><time>2026-03-28T13:06:32.999Z</time></trkpt><trkpt lat="44.538025175689505" lon="9.213806814715875"><ele>820.4000000000001</ele><time>2026-03-28T13:06:33.999Z</time></trkpt><trkpt lat="44.53811686813163" lon="9.213880066845542"><ele>819.5999999999999</ele><time>2026-03-28T13:06:34.999Z</time></trkpt><trkpt lat="44.538191506591126" lon="9.213978487916728"><ele>818.8</ele><time>2026-03-28T13:06:35.999Z</time></trkpt><trkpt lat="44.538261522241896" lon="9.214086807278917"><ele>818.0</ele><time>2026-03-28T13:06:36.999Z</time></trkpt><trkpt lat="44.53831936663984" lon="9.214230397400442"><ele>823.5999999999999</ele><time>2026-03-28T13:06:37.999Z</time></trkpt><trkpt lat="44.538367259871094" lon="9.21435933291159"><ele>829.1999999999999</ele><time>2026-03-28T13:06:38.999Z</time></trkpt><trkpt lat="44.53842365213852" lon="9.214478324854918"><ele>834.8</ele><time>2026-03-28T13:06:39.999Z</time></trkpt><trkpt lat="44.53849183800716" lon="9.214599185542308"><ele>840.4</ele><time>2026-03-28T13:06:40.999Z</time></trkpt><trkpt lat="44.538562853255904" lon="9.214726505315667"><ele>846.0</ele><time>2026-03-28T13:06:41.999Z</time></trkpt><trkpt lat="44.53863137366165" lon="9.214864903091838"><ele>850.1999999999999</ele><time>2026-03-28T13:06:42.999Z</time></trkpt><trkpt lat="44.538708327822235" lon="9.214986962702465"><ele>854.4</ele><time>2026-03-28T13:06:43.999Z</time></trkpt><trkpt lat="44.53878076646632" lon="9.215074876621243"><ele>858.6</ele><time>2026-03-28T13:06:44.999Z</time></trkpt><trkpt lat="44.538864012432626" lon="9.215119172993067"><ele>862.8</ele><time>2026-03-28T13:06:45.999Z</time></trkpt><trkpt lat="44.53893851785427" lon="9.215159178114993"><ele>867.0</ele><time>2026-03-28T13:06:46.999Z</time></trkpt><trkpt lat="44.539007740051154" lon="9.215190756469836"><ele>867.0</ele><time>2026-03-28T13:06:48.999Z</time></trkpt><trkpt lat="44.53910965351223" lon="9.215179213955642"><ele>867.0</ele><time>2026-03-28T13:06:49.999Z</time></trkpt><trkpt lat="44.539087357487574" lon="9.215028132526013"><ele>867.0</ele><time>2026-03-28T13:06:50.999Z</time></trkpt><trkpt lat="44.5391531830045" lon="9.21495143617267"><ele>867.0</ele><time>2026-03-28T13:06:52.999Z</time></trkpt><trkpt lat="44.5391948851241" lon="9.214782506310197"><ele>867.0</ele><time>2026-03-28T13:06:54.999Z</time></trkpt><trkpt lat="44.539191893000535" lon="9.2146554889217"><ele>863.2</ele><time>2026-03-28T13:06:55.999Z</time></trkpt><trkpt lat="44.539201132411065" lon="9.21451284477443"><ele>859.4000000000001</ele><time>2026-03-28T13:06:56.999Z</time></trkpt><trkpt lat="44.539233791729906" lon="9.214374011392959"><ele>855.5999999999999</ele><time>2026-03-28T13:06:57.999Z</time></trkpt><trkpt lat="44.5392766270339" lon="9.214244751482486"><ele>851.8</ele><time>2026-03-28T13:06:58.999Z</time></trkpt><trkpt lat="44.5393248142842" lon="9.214121001890117"><ele>848.0</ele><time>2026-03-28T13:06:59.999Z</time></trkpt><trkpt lat="44.53937386129926" lon="9.214011299394539"><ele>849.6666666666667</ele><time>2026-03-28T13:07:00.999Z</time></trkpt><trkpt lat="44.5394189731306" lon="9.213889751062265"><ele>851.3333333333334</ele><time>2026-03-28T13:07:01.999Z</time></trkpt><trkpt lat="44.5394522445652" lon="9.213771034678432"><ele>853.0</ele><time>2026-03-28T13:07:02.999Z</time></trkpt><trkpt lat="44.53947641964964" lon="9.213657492905426"><ele>854.6666666666667</ele><time>2026-03-28T13:07:03.999Z</time></trkpt><trkpt lat="44.539506224788326" lon="9.21355406593626"><ele>856.3333333333334</ele><time>2026-03-28T13:07:05Z</time></trkpt><trkpt lat="44.5395630321554" lon="9.213481148354703"><ele>858.0</ele><time>2026-03-28T13:07:06Z</time></trkpt><trkpt lat="44.539636128282304" lon="9.21344453292966"><ele>858.0</ele><time>2026-03-28T13:07:07Z</time></trkpt><trkpt lat="44.539722674743786" lon="9.21344968681383"><ele>858.0</ele><time>2026-03-28T13:07:08Z</time></trkpt><trkpt lat="44.53980944184042" lon="9.213442345264072"><ele>858.0</ele><time>2026-03-28T13:07:09Z</time></trkpt><trkpt lat="44.53990172673627" lon="9.213406853528893"><ele>858.0</ele><time>2026-03-28T13:07:10Z</time></trkpt><trkpt lat="44.53999726636338" lon="9.213347857822244"><ele>858.0</ele><time>2026-03-28T13:07:11Z</time></trkpt><trkpt lat="44.54009076547911" lon="9.213278483441174"><ele>858.0</ele><time>2026-03-28T13:07:12Z</time></trkpt><trkpt lat="44.540187256364185" lon="9.21321459212405"><ele>858.0</ele><time>2026-03-28T13:07:13Z</time></trkpt><trkpt lat="44.54026318004175" lon="9.213118711568791"><ele>858.0</ele><time>2026-03-28T13:07:14Z</time></trkpt><trkpt lat="44.540319337445005" lon="9.213018319816708"><ele>858.0</ele><time>2026-03-28T13:07:15Z</time></trkpt><trkpt lat="44.5403818531749" lon="9.212942143529943"><ele>858.0</ele><time>2026-03-28T13:07:16Z</time></trkpt><trkpt lat="44.540467297249734" lon="9.212862352972014"><ele>854.5999999999999</ele><time>2026-03-28T13:07:17Z</time></trkpt><trkpt lat="44.54056712191014" lon="9.212812351363635"><ele>851.1999999999999</ele><time>2026-03-28T13:07:18Z</time></trkpt><trkpt lat="44.540672943621196" lon="9.212779748074988"><ele>847.8</ele><time>2026-03-28T13:07:19Z</time></trkpt><trkpt lat="44.5407738239516" lon="9.212743948610516"><ele>844.4</ele><time>2026-03-28T13:07:20Z</time></trkpt><trkpt lat="44.540877112670444" lon="9.21272111310444"><ele>841.0</ele><time>2026-03-28T13:07:21Z</time></trkpt><trkpt lat="44.54099075825858" lon="9.212700867063136"><ele>841.0</ele><time>2026-03-28T13:07:22Z</time></trkpt><trkpt lat="44.54111721409106" lon="9.212669610387051"><ele>841.0</ele><time>2026-03-28T13:07:23Z</time></trkpt><trkpt lat="44.54123606205983" lon="9.212657908220232"><ele>841.0</ele><time>2026-03-28T13:07:24Z</time></trkpt><trkpt lat="44.5413485928586" lon="9.212673155497555"><ele>841.0</ele><time>2026-03-28T13:07:25Z</time></trkpt><trkpt lat="44.54145444981719" lon="9.212653165267787"><ele>840.1666666666666</ele><time>2026-03-28T13:07:26Z</time></trkpt><trkpt lat="44.54155419137625" lon="9.212686786555588"><ele>839.3333333333333</ele><time>2026-03-28T13:07:27Z</time></trkpt><trkpt lat="44.541642801989354" lon="9.212735511275616"><ele>838.5</ele><time>2026-03-28T13:07:28Z</time></trkpt><trkpt lat="44.54170977095174" lon="9.212799974307334"><ele>837.6666666666667</ele><time>2026-03-28T13:07:29Z</time></trkpt><trkpt lat="44.54176777814551" lon="9.21285862298166"><ele>836.8333333333334</ele><time>2026-03-28T13:07:30Z</time></trkpt><trkpt lat="44.54181703488566" lon="9.212947527851052"><ele>836.0</ele><time>2026-03-28T13:07:31Z</time></trkpt><trkpt lat="44.54184539474687" lon="9.213058015290477"><ele>840.0</ele><time>2026-03-28T13:07:32Z</time></trkpt><trkpt lat="44.54186329491359" lon="9.213178889957994"><ele>844.0</ele><time>2026-03-28T13:07:33Z</time></trkpt><trkpt lat="44.541878923698874" lon="9.21330391739809"><ele>847.9999999999999</ele><time>2026-03-28T13:07:34Z</time></trkpt><trkpt lat="44.54190670873254" lon="9.213433781093915"><ele>852.0</ele><time>2026-03-28T13:07:35Z</time></trkpt><trkpt lat="44.54194964778692" lon="9.213554934782218"><ele>856.0</ele><time>2026-03-28T13:07:36Z</time></trkpt><trkpt lat="44.54198370581847" lon="9.21365773774707"><ele>855.9999999999999</ele><time>2026-03-28T13:07:37Z</time></trkpt><trkpt lat="44.54202834415509" lon="9.213731499995015"><ele>856.0</ele><time>2026-03-28T13:07:38Z</time></trkpt><trkpt lat="44.54208706985227" lon="9.213776125894249"><ele>856.0</ele><time>2026-03-28T13:07:39Z</time></trkpt><trkpt lat="44.54215644427162" lon="9.21377303157331"><ele>856.0</ele><time>2026-03-28T13:07:40Z</time></trkpt><trkpt lat="44.542219050927365" lon="9.213719037905276"><ele>855.9999999999999</ele><time>2026-03-28T13:07:41Z</time></trkpt><trkpt lat="44.542264751192775" lon="9.213610741036785"><ele>856.0</ele><time>2026-03-28T13:07:42Z</time></trkpt><trkpt lat="44.5422871695688" lon="9.213473838334062"><ele>855.0</ele><time>2026-03-28T13:07:43Z</time></trkpt><trkpt lat="44.54231514718174" lon="9.213320014208167"><ele>853.9999999999999</ele><time>2026-03-28T13:07:44Z</time></trkpt><trkpt lat="44.54235471897441" lon="9.213168879902454"><ele>853.0</ele><time>2026-03-28T13:07:45Z</time></trkpt><trkpt lat="44.54239057261965" lon="9.213022467522993"><ele>852.0</ele><time>2026-03-28T13:07:46Z</time></trkpt><trkpt lat="44.54241784180939" lon="9.212889720785894"><ele>851.0</ele><time>2026-03-28T13:07:47Z</time></trkpt><trkpt lat="44.542444745792665" lon="9.212757083324071"><ele>847.0</ele><time>2026-03-28T13:07:48Z</time></trkpt><trkpt lat="44.542474774599114" lon="9.212645120538497"><ele>843.0</ele><time>2026-03-28T13:07:49Z</time></trkpt><trkpt lat="44.542529937821286" lon="9.212565171427624"><ele>839.0</ele><time>2026-03-28T13:07:51Z</time></trkpt><trkpt lat="44.54267323395409" lon="9.212542158107581"><ele>835.0</ele><time>2026-03-28T13:07:53Z</time></trkpt><trkpt lat="44.54277021711133" lon="9.21251668959041"><ele>831.0</ele><time>2026-03-28T13:07:54Z</time></trkpt><trkpt lat="44.542882509340906" lon="9.212470853014635"><ele>831.0</ele><time>2026-03-28T13:07:55Z</time></trkpt><trkpt lat="44.542990986184556" lon="9.212436507634274"><ele>831.0</ele><time>2026-03-28T13:07:56Z</time></trkpt><trkpt lat="44.543076441906614" lon="9.212372309886554"><ele>831.0</ele><time>2026-03-28T13:07:57Z</time></trkpt><trkpt lat="44.54316283508747" lon="9.2123092752229"><ele>831.0</ele><time>2026-03-28T13:07:58Z</time></trkpt><trkpt lat="44.543229666602805" lon="9.212271876007712"><ele>831.0</ele><time>2026-03-28T13:07:59Z</time></trkpt><trkpt lat="44.54330073991339" lon="9.212169905611022"><ele>828.8</ele><time>2026-03-28T13:08:01Z</time></trkpt><trkpt lat="44.54326036470655" lon="9.211998578344447"><ele>826.5999999999999</ele><time>2026-03-28T13:08:03Z</time></trkpt><trkpt lat="44.543195340995844" lon="9.211944125012076"><ele>824.4</ele><time>2026-03-28T13:08:03.999Z</time></trkpt><trkpt lat="44.54311887165748" lon="9.211875044461447"><ele>822.2</ele><time>2026-03-28T13:08:04.999Z</time></trkpt><trkpt lat="44.54302676128841" lon="9.211835260987431"><ele>820.0</ele><time>2026-03-28T13:08:05.999Z</time></trkpt><trkpt lat="44.54292293727932" lon="9.211798329087348"><ele>818.0</ele><time>2026-03-28T13:08:06.999Z</time></trkpt><trkpt lat="44.54280821076035" lon="9.211780686633425"><ele>816.0</ele><time>2026-03-28T13:08:07.999Z</time></trkpt><trkpt lat="44.54270233387104" lon="9.211737511175984"><ele>814.0</ele><time>2026-03-28T13:08:08.999Z</time></trkpt><trkpt lat="44.54259658080831" lon="9.211698552902158"><ele>812.0</ele><time>2026-03-28T13:08:09.999Z</time></trkpt><trkpt lat="44.54249593096281" lon="9.2116592612644"><ele>810.0</ele><time>2026-03-28T13:08:10.999Z</time></trkpt><trkpt lat="44.542417893825245" lon="9.211605750730962"><ele>810.0</ele><time>2026-03-28T13:08:11.999Z</time></trkpt><trkpt lat="44.54236068846196" lon="9.211566153990713"><ele>810.0</ele><time>2026-03-28T13:08:12.999Z</time></trkpt><trkpt lat="44.54228686060424" lon="9.211506300574376"><ele>810.0</ele><time>2026-03-28T13:08:14.999Z</time></trkpt><trkpt lat="44.54235322673391" lon="9.211388682790444"><ele>810.0</ele><time>2026-03-28T13:08:16.999Z</time></trkpt><trkpt lat="44.542420093637574" lon="9.211397286595293"><ele>810.0</ele><time>2026-03-28T13:08:17.999Z</time></trkpt><trkpt lat="44.542503279459595" lon="9.211429875212996"><ele>810.0</ele><time>2026-03-28T13:08:18.999Z</time></trkpt><trkpt lat="44.54259196503834" lon="9.211459068573106"><ele>810.0</ele><time>2026-03-28T13:08:19.999Z</time></trkpt><trkpt lat="44.54268895329357" lon="9.211485125935543"><ele>810.0</ele><time>2026-03-28T13:08:20.999Z</time></trkpt><trkpt lat="44.5427782758306" lon="9.211501654127895"><ele>810.0</ele><time>2026-03-28T13:08:21.999Z</time></trkpt><trkpt lat="44.54285796078021" lon="9.211533316924907"><ele>810.0</ele><time>2026-03-28T13:08:22.999Z</time></trkpt><trkpt lat="44.542921551554016" lon="9.21153371270322"><ele>810.0</ele><time>2026-03-28T13:08:23.999Z</time></trkpt><trkpt lat="44.54301952442589" lon="9.21143786264986"><ele>814.2</ele><time>2026-03-28T13:08:25.999Z</time></trkpt><trkpt lat="44.54306225838473" lon="9.211311900586246"><ele>818.4</ele><time>2026-03-28T13:08:27.999Z</time></trkpt><trkpt lat="44.54303263720345" lon="9.211152177094238"><ele>822.5999999999999</ele><time>2026-03-28T13:08:29.999Z</time></trkpt><trkpt lat="44.54298744834757" lon="9.211071785076687"><ele>826.8</ele><time>2026-03-28T13:08:30.999Z</time></trkpt><trkpt lat="44.54293781266991" lon="9.210990510535224"><ele>831.0</ele><time>2026-03-28T13:08:31.999Z</time></trkpt><trkpt lat="44.54288448293317" lon="9.210894073551193"><ele>833.0</ele><time>2026-03-28T13:08:32.999Z</time></trkpt><trkpt lat="44.54283704728805" lon="9.210774064784621"><ele>835.0</ele><time>2026-03-28T13:08:33.999Z</time></trkpt><trkpt lat="44.54278451372578" lon="9.210671451478312"><ele>837.0</ele><time>2026-03-28T13:08:34.999Z</time></trkpt><trkpt lat="44.54273178565211" lon="9.210565916297455"><ele>839.0</ele><time>2026-03-28T13:08:35.999Z</time></trkpt><trkpt lat="44.54267962058501" lon="9.210468067008836"><ele>841.0</ele><time>2026-03-28T13:08:36.999Z</time></trkpt><trkpt lat="44.54260493311527" lon="9.210390805595123"><ele>841.0</ele><time>2026-03-28T13:08:37.999Z</time></trkpt><trkpt lat="44.542515771009136" lon="9.210310629568683"><ele>841.0</ele><time>2026-03-28T13:08:38.999Z</time></trkpt><trkpt lat="44.542413292994176" lon="9.210281462566606"><ele>841.0</ele><time>2026-03-28T13:08:39.999Z</time></trkpt><trkpt lat="44.54231444265669" lon="9.210251700077968"><ele>841.0</ele><time>2026-03-28T13:08:40.999Z</time></trkpt><trkpt lat="44.54221623723551" lon="9.21021594359326"><ele>841.0</ele><time>2026-03-28T13:08:41.999Z</time></trkpt><trkpt lat="44.5421076025023" lon="9.21020155494939"><ele>838.1999999999999</ele><time>2026-03-28T13:08:42.999Z</time></trkpt><trkpt lat="44.5420005931233" lon="9.21020700304225"><ele>835.4</ele><time>2026-03-28T13:08:43.999Z</time></trkpt><trkpt lat="44.54188609135398" lon="9.210183296491811"><ele>832.6</ele><time>2026-03-28T13:08:44.999Z</time></trkpt><trkpt lat="44.54177049209646" lon="9.210176065750959"><ele>829.8</ele><time>2026-03-28T13:08:45.999Z</time></trkpt><trkpt lat="44.541660120977845" lon="9.210189026552474"><ele>827.0</ele><time>2026-03-28T13:08:46.999Z</time></trkpt><trkpt lat="44.54154729828032" lon="9.210193239364044"><ele>827.0</ele><time>2026-03-28T13:08:47.999Z</time></trkpt><trkpt lat="44.54143365788443" lon="9.21020977951861"><ele>827.0</ele><time>2026-03-28T13:08:48.999Z</time></trkpt><trkpt lat="44.54131445559641" lon="9.21022516064136"><ele>827.0</ele><time>2026-03-28T13:08:49.999Z</time></trkpt><trkpt lat="44.54119092008365" lon="9.210235191922985"><ele>827.0</ele><time>2026-03-28T13:08:50.999Z</time></trkpt><trkpt lat="44.54107227060192" lon="9.21023855386336"><ele>828.0</ele><time>2026-03-28T13:08:51.999Z</time></trkpt><trkpt lat="44.54095593801315" lon="9.210229966927237"><ele>829.0</ele><time>2026-03-28T13:08:52.999Z</time></trkpt><trkpt lat="44.54084200646178" lon="9.210211151773048"><ele>830.0</ele><time>2026-03-28T13:08:53.999Z</time></trkpt><trkpt lat="44.54073739811602" lon="9.21017781221206"><ele>831.0</ele><time>2026-03-28T13:08:54.999Z</time></trkpt><trkpt lat="44.54063084196238" lon="9.210154393640451"><ele>832.0</ele><time>2026-03-28T13:08:55.999Z</time></trkpt><trkpt lat="44.54052159655597" lon="9.21016085171631"><ele>832.0</ele><time>2026-03-28T13:08:56.999Z</time></trkpt><trkpt lat="44.54041424417793" lon="9.21013506620962"><ele>832.0</ele><time>2026-03-28T13:08:57.999Z</time></trkpt><trkpt lat="44.540308911294225" lon="9.210063402374415"><ele>832.0</ele><time>2026-03-28T13:08:58.999Z</time></trkpt><trkpt lat="44.54020657940595" lon="9.209998596372396"><ele>832.0</ele><time>2026-03-28T13:08:59.999Z</time></trkpt><trkpt lat="44.540098319811236" lon="9.209993127932105"><ele>832.0</ele><time>2026-03-28T13:09:00.999Z</time></trkpt><trkpt lat="44.539992579120735" lon="9.210036265125034"><ele>832.0</ele><time>2026-03-28T13:09:01.999Z</time></trkpt><trkpt lat="44.539886858584225" lon="9.210099470669807"><ele>832.0</ele><time>2026-03-28T13:09:02.999Z</time></trkpt><trkpt lat="44.5397847989603" lon="9.210139373461857"><ele>832.0</ele><time>2026-03-28T13:09:03.999Z</time></trkpt><trkpt lat="44.53966598486657" lon="9.210126630894408"><ele>832.0</ele><time>2026-03-28T13:09:04.999Z</time></trkpt><trkpt lat="44.53954977184562" lon="9.21008772970722"><ele>833.25</ele><time>2026-03-28T13:09:05.999Z</time></trkpt><trkpt lat="44.53943257916131" lon="9.210044253109249"><ele>834.5</ele><time>2026-03-28T13:09:06.999Z</time></trkpt><trkpt lat="44.539306535882446" lon="9.210046750508827"><ele>835.75</ele><time>2026-03-28T13:09:07.999Z</time></trkpt><trkpt lat="44.53918261065267" lon="9.2100967199888"><ele>837.0</ele><time>2026-03-28T13:09:08.999Z</time></trkpt><trkpt lat="44.53906642439591" lon="9.210126995247213"><ele>837.0</ele><time>2026-03-28T13:09:09.999Z</time></trkpt><trkpt lat="44.53897212728421" lon="9.210159816149048"><ele>837.0</ele><time>2026-03-28T13:09:11Z</time></trkpt><trkpt lat="44.53889882669008" lon="9.21017332489675"><ele>837.0</ele><time>2026-03-28T13:09:12Z</time></trkpt><trkpt lat="44.53881588717544" lon="9.210162154331478"><ele>837.0</ele><time>2026-03-28T13:09:13Z</time></trkpt><trkpt lat="44.5387303893368" lon="9.210107289825181"><ele>837.0</ele><time>2026-03-28T13:09:14Z</time></trkpt><trkpt lat="44.5386354226935" lon="9.210066172649448"><ele>837.0</ele><time>2026-03-28T13:09:15Z</time></trkpt><trkpt lat="44.538525557368544" lon="9.210049700641031"><ele>836.8</ele><time>2026-03-28T13:09:16Z</time></trkpt><trkpt lat="44.53841202413616" lon="9.21004280145984"><ele>836.6</ele><time>2026-03-28T13:09:17Z</time></trkpt><trkpt lat="44.53830695134722" lon="9.210062370954672"><ele>836.4</ele><time>2026-03-28T13:09:18Z</time></trkpt><trkpt lat="44.53820738598998" lon="9.210087876594725"><ele>836.1999999999999</ele><time>2026-03-28T13:09:19Z</time></trkpt><trkpt lat="44.53809744977249" lon="9.210080010301112"><ele>836.0</ele><time>2026-03-28T13:09:20Z</time></trkpt><trkpt lat="44.537981737151924" lon="9.21010148749091"><ele>833.5999999999999</ele><time>2026-03-28T13:09:21Z</time></trkpt><trkpt lat="44.537861958383466" lon="9.210090388344993"><ele>831.2</ele><time>2026-03-28T13:09:22Z</time></trkpt><trkpt lat="44.53774113946781" lon="9.210070365115042"><ele>828.8</ele><time>2026-03-28T13:09:23Z</time></trkpt><trkpt lat="44.53763223441466" lon="9.2100689550092"><ele>826.4000000000001</ele><time>2026-03-28T13:09:24Z</time></trkpt><trkpt lat="44.53753527094758" lon="9.210080562071123"><ele>824.0</ele><time>2026-03-28T13:09:25Z</time></trkpt><trkpt lat="44.537459894937236" lon="9.21009337904794"><ele>824.0</ele><time>2026-03-28T13:09:26Z</time></trkpt><trkpt lat="44.53736257941682" lon="9.210073288142766"><ele>824.0</ele><time>2026-03-28T13:09:28Z</time></trkpt><trkpt lat="44.537323369151636" lon="9.20996526611715"><ele>824.0</ele><time>2026-03-28T13:09:30Z</time></trkpt><trkpt lat="44.537381308483056" lon="9.209864171514246"><ele>824.0</ele><time>2026-03-28T13:09:31Z</time></trkpt><trkpt lat="44.53744443839924" lon="9.209772886668429"><ele>824.0</ele><time>2026-03-28T13:09:32Z</time></trkpt><trkpt lat="44.53748680611577" lon="9.209666538699038"><ele>822.4000000000001</ele><time>2026-03-28T13:09:33Z</time></trkpt><trkpt lat="44.53752826626982" lon="9.209544966052784"><ele>820.8</ele><time>2026-03-28T13:09:34Z</time></trkpt><trkpt lat="44.53757365154398" lon="9.209429935885492"><ele>819.2</ele><time>2026-03-28T13:09:35Z</time></trkpt><trkpt lat="44.53762359977529" lon="9.209321425262507"><ele>817.5999999999999</ele><time>2026-03-28T13:09:36Z</time></trkpt><trkpt lat="44.53767338395015" lon="9.209219730737297"><ele>816.0</ele><time>2026-03-28T13:09:37Z</time></trkpt><trkpt lat="44.53771971268087" lon="9.209120762916202"><ele>816.0</ele><time>2026-03-28T13:09:38Z</time></trkpt><trkpt lat="44.537762098400606" lon="9.20902950371748"><ele>816.0</ele><time>2026-03-28T13:09:39Z</time></trkpt><trkpt lat="44.53780193805391" lon="9.208938094336046"><ele>816.0</ele><time>2026-03-28T13:09:40Z</time></trkpt><trkpt lat="44.53784382474055" lon="9.20886165880005"><ele>816.0</ele><time>2026-03-28T13:09:41Z</time></trkpt><trkpt lat="44.53790768017661" lon="9.208802535126297"><ele>816.0</ele><time>2026-03-28T13:09:42Z</time></trkpt><trkpt lat="44.537977514761636" lon="9.208781703140755"><ele>816.0</ele><time>2026-03-28T13:09:43Z</time></trkpt><trkpt lat="44.53805283597254" lon="9.208770164703758"><ele>816.0</ele><time>2026-03-28T13:09:44Z</time></trkpt><trkpt lat="44.538121972853645" lon="9.208744974714831"><ele>815.0</ele><time>2026-03-28T13:09:45Z</time></trkpt><trkpt lat="44.53818172962507" lon="9.208702128849785"><ele>814.0</ele><time>2026-03-28T13:09:46Z</time></trkpt><trkpt lat="44.538268506833454" lon="9.208579984311662"><ele>813.0</ele><time>2026-03-28T13:09:48Z</time></trkpt><trkpt lat="44.53836498953769" lon="9.208482019910996"><ele>812.0</ele><time>2026-03-28T13:09:50Z</time></trkpt><trkpt lat="44.538471986645256" lon="9.208404539421247"><ele>811.0</ele><time>2026-03-28T13:09:52Z</time></trkpt><trkpt lat="44.53854083613763" lon="9.208375551242158"><ele>810.9999999999999</ele><time>2026-03-28T13:09:53Z</time></trkpt><trkpt lat="44.53861934407997" lon="9.208364121730327"><ele>811.0</ele><time>2026-03-28T13:09:54Z</time></trkpt><trkpt lat="44.538703929464354" lon="9.208366614407463"><ele>811.0</ele><time>2026-03-28T13:09:55Z</time></trkpt><trkpt lat="44.53879118449517" lon="9.208361665881577"><ele>811.0</ele><time>2026-03-28T13:09:56Z</time></trkpt><trkpt lat="44.53888050035046" lon="9.208321974088573"><ele>810.9999999999999</ele><time>2026-03-28T13:09:57Z</time></trkpt><trkpt lat="44.53896099935068" lon="9.208266915329222"><ele>811.0</ele><time>2026-03-28T13:09:58Z</time></trkpt><trkpt lat="44.53903473667904" lon="9.208204940785356"><ele>809.0</ele><time>2026-03-28T13:09:59Z</time></trkpt><trkpt lat="44.539115053058346" lon="9.208143451432434"><ele>807.0</ele><time>2026-03-28T13:10:00Z</time></trkpt><trkpt lat="44.53918600967411" lon="9.208064621368777"><ele>805.0</ele><time>2026-03-28T13:10:01Z</time></trkpt><trkpt lat="44.539242261240354" lon="9.207959988823742"><ele>803.0</ele><time>2026-03-28T13:10:02Z</time></trkpt><trkpt lat="44.539284717563916" lon="9.207843300954512"><ele>801.0</ele><time>2026-03-28T13:10:03Z</time></trkpt><trkpt lat="44.53931808056865" lon="9.207711655798683"><ele>801.0</ele><time>2026-03-28T13:10:04Z</time></trkpt><trkpt lat="44.53934228910191" lon="9.207583660154768"><ele>801.0</ele><time>2026-03-28T13:10:05Z</time></trkpt><trkpt lat="44.53936709715799" lon="9.207464271873299"><ele>801.0</ele><time>2026-03-28T13:10:06Z</time></trkpt><trkpt lat="44.53940104184323" lon="9.20738475141451"><ele>801.0</ele><time>2026-03-28T13:10:07Z</time></trkpt><trkpt lat="44.53950969249519" lon="9.207298406102966"><ele>801.0</ele><time>2026-03-28T13:10:08.999Z</time></trkpt><trkpt lat="44.539577842559424" lon="9.207293106014333"><ele>801.0</ele><time>2026-03-28T13:10:09.999Z</time></trkpt><trkpt lat="44.53964076374033" lon="9.207335769489903"><ele>800.0</ele><time>2026-03-28T13:10:10.999Z</time></trkpt><trkpt lat="44.53971089738718" lon="9.20734510285435"><ele>799.0</ele><time>2026-03-28T13:10:11.999Z</time></trkpt><trkpt lat="44.53979644929843" lon="9.207282410934221"><ele>798.0</ele><time>2026-03-28T13:10:13.999Z</time></trkpt><trkpt lat="44.539851500165675" lon="9.207174733243004"><ele>797.0</ele><time>2026-03-28T13:10:15.999Z</time></trkpt><trkpt lat="44.539811173309296" lon="9.207069699066771"><ele>796.0</ele><time>2026-03-28T13:10:16.999Z</time></trkpt><trkpt lat="44.539728188465084" lon="9.207008867687978"><ele>795.0</ele><time>2026-03-28T13:10:17.999Z</time></trkpt><trkpt lat="44.53966116955035" lon="9.206955396094678"><ele>795.0</ele><time>2026-03-28T13:10:18.999Z</time></trkpt><trkpt lat="44.53956967567908" lon="9.206882397119006"><ele>795.0</ele><time>2026-03-28T13:10:20.999Z</time></trkpt><trkpt lat="44.53948680706936" lon="9.206816279845661"><ele>795.0</ele><time>2026-03-28T13:10:22.999Z</time></trkpt><trkpt lat="44.539404317949234" lon="9.206743307315781"><ele>795.0</ele><time>2026-03-28T13:10:24.999Z</time></trkpt><trkpt lat="44.539284481628606" lon="9.206688320726698"><ele>795.0</ele><time>2026-03-28T13:10:26.999Z</time></trkpt><trkpt lat="44.5392130908659" lon="9.206703109261573"><ele>793.1666666666666</ele><time>2026-03-28T13:10:27.999Z</time></trkpt><trkpt lat="44.5391402581684" lon="9.206756009214665"><ele>791.3333333333333</ele><time>2026-03-28T13:10:28.999Z</time></trkpt><trkpt lat="44.53908877599179" lon="9.20684481535425"><ele>789.5</ele><time>2026-03-28T13:10:29.999Z</time></trkpt><trkpt lat="44.53906862318452" lon="9.206949161651737"><ele>787.6666666666666</ele><time>2026-03-28T13:10:30.999Z</time></trkpt><trkpt lat="44.5390547835708" lon="9.207059102268287"><ele>785.8333333333333</ele><time>2026-03-28T13:10:31.999Z</time></trkpt><trkpt lat="44.53903973244084" lon="9.207169030857827"><ele>784.0</ele><time>2026-03-28T13:10:32.999Z</time></trkpt><trkpt lat="44.539031676253934" lon="9.207278567118513"><ele>786.8333333333333</ele><time>2026-03-28T13:10:33.999Z</time></trkpt><trkpt lat="44.539023201520955" lon="9.207372423714906"><ele>789.6666666666666</ele><time>2026-03-28T13:10:34.999Z</time></trkpt><trkpt lat="44.539001981667035" lon="9.207459092945022"><ele>792.5</ele><time>2026-03-28T13:10:35.999Z</time></trkpt><trkpt lat="44.538963750543786" lon="9.207537999749501"><ele>795.3333333333333</ele><time>2026-03-28T13:10:36.999Z</time></trkpt><trkpt lat="44.53891622761222" lon="9.207606225882445"><ele>798.1666666666666</ele><time>2026-03-28T13:10:37.999Z</time></trkpt><trkpt lat="44.538800604151604" lon="9.207665446821274"><ele>801.0</ele><time>2026-03-28T13:10:39.999Z</time></trkpt><trkpt lat="44.538734718622834" lon="9.207673242279657"><ele>799.0</ele><time>2026-03-28T13:10:40.999Z</time></trkpt><trkpt lat="44.53866684127346" lon="9.207624159937748"><ele>797.0</ele><time>2026-03-28T13:10:41.999Z</time></trkpt><trkpt lat="44.53859913558168" lon="9.207573169703686"><ele>795.0</ele><time>2026-03-28T13:10:42.999Z</time></trkpt><trkpt lat="44.53853276490812" lon="9.207526407260552"><ele>793.0</ele><time>2026-03-28T13:10:43.999Z</time></trkpt><trkpt lat="44.5384611918583" lon="9.207493599355205"><ele>791.0</ele><time>2026-03-28T13:10:44.999Z</time></trkpt><trkpt lat="44.53839397628104" lon="9.207480015174003"><ele>789.0</ele><time>2026-03-28T13:10:45.999Z</time></trkpt><trkpt lat="44.53832785443388" lon="9.207474604118097"><ele>787.0</ele><time>2026-03-28T13:10:46.999Z</time></trkpt><trkpt lat="44.538260636891856" lon="9.207469869522782"><ele>786.9999999999999</ele><time>2026-03-28T13:10:47.999Z</time></trkpt><trkpt lat="44.53818388138014" lon="9.207505482314087"><ele>787.0</ele><time>2026-03-28T13:10:48.999Z</time></trkpt><trkpt lat="44.53810920319241" lon="9.207583735105834"><ele>787.0</ele><time>2026-03-28T13:10:49.999Z</time></trkpt><trkpt lat="44.53803830655909" lon="9.207676167559123"><ele>787.0</ele><time>2026-03-28T13:10:50.999Z</time></trkpt><trkpt lat="44.5379792762421" lon="9.207751819434893"><ele>786.9999999999999</ele><time>2026-03-28T13:10:51.999Z</time></trkpt><trkpt lat="44.537912263319626" lon="9.207834632593224"><ele>787.0</ele><time>2026-03-28T13:10:53.999Z</time></trkpt><trkpt lat="44.537853321000824" lon="9.207884782883431"><ele>778.0</ele><time>2026-03-28T13:10:55.999Z</time></trkpt><trkpt lat="44.53779087317622" lon="9.2078221464892"><ele>769.0</ele><time>2026-03-28T13:10:57.999Z</time></trkpt><trkpt lat="44.53772526261526" lon="9.207703107251401"><ele>760.0</ele><time>2026-03-28T13:10:59.999Z</time></trkpt><trkpt lat="44.537646375571114" lon="9.207584599063928"><ele>751.0</ele><time>2026-03-28T13:11:01.999Z</time></trkpt><trkpt lat="44.53757113873409" lon="9.207470812902173"><ele>742.0</ele><time>2026-03-28T13:11:03.999Z</time></trkpt><trkpt lat="44.537506165596014" lon="9.207369119251755"><ele>749.0</ele><time>2026-03-28T13:11:05.999Z</time></trkpt><trkpt lat="44.537434206395254" lon="9.207259623542393"><ele>756.0</ele><time>2026-03-28T13:11:07.999Z</time></trkpt><trkpt lat="44.537357304769095" lon="9.207135409347245"><ele>763.0</ele><time>2026-03-28T13:11:09.999Z</time></trkpt><trkpt lat="44.53727838233708" lon="9.207005758117978"><ele>770.0</ele><time>2026-03-28T13:11:11.999Z</time></trkpt><trkpt lat="44.537197891641696" lon="9.206883275693732"><ele>770.0</ele><time>2026-03-28T13:11:13.999Z</time></trkpt><trkpt lat="44.53712169446826" lon="9.206763028733274"><ele>770.0</ele><time>2026-03-28T13:11:15.999Z</time></trkpt><trkpt lat="44.53705042969995" lon="9.20665133229185"><ele>770.0</ele><time>2026-03-28T13:11:18Z</time></trkpt><trkpt lat="44.53697524545199" lon="9.206527773349437"><ele>770.0</ele><time>2026-03-28T13:11:20Z</time></trkpt><trkpt lat="44.53689213416832" lon="9.206399055231078"><ele>768.7142857142857</ele><time>2026-03-28T13:11:22Z</time></trkpt><trkpt lat="44.536851235134456" lon="9.206330722331357"><ele>767.4285714285714</ele><time>2026-03-28T13:11:23Z</time></trkpt><trkpt lat="44.53680911698298" lon="9.206262238802156"><ele>766.1428571428571</ele><time>2026-03-28T13:11:24Z</time></trkpt><trkpt lat="44.536767805089006" lon="9.20619554608334"><ele>764.8571428571429</ele><time>2026-03-28T13:11:25Z</time></trkpt><trkpt lat="44.536723878044974" lon="9.20612889650799"><ele>763.5714285714286</ele><time>2026-03-28T13:11:26Z</time></trkpt><trkpt lat="44.536682682655815" lon="9.206060855462512"><ele>762.2857142857142</ele><time>2026-03-28T13:11:27Z</time></trkpt><trkpt lat="44.536638616928784" lon="9.205994976187945"><ele>761.0</ele><time>2026-03-28T13:11:28Z</time></trkpt><trkpt lat="44.53657408378169" lon="9.205864418821479"><ele>761.0</ele><time>2026-03-28T13:11:30Z</time></trkpt><trkpt lat="44.53649497854774" lon="9.205775148931167"><ele>761.0</ele><time>2026-03-28T13:11:32Z</time></trkpt><trkpt lat="44.536424636321364" lon="9.205652745447"><ele>761.0</ele><time>2026-03-28T13:11:34Z</time></trkpt><trkpt lat="44.53634860697061" lon="9.205534084181899"><ele>761.0</ele><time>2026-03-28T13:11:36Z</time></trkpt><trkpt lat="44.536293750931584" lon="9.205414998668198"><ele>761.0</ele><time>2026-03-28T13:11:38Z</time></trkpt><trkpt lat="44.53627788088075" lon="9.205263722530017"><ele>764.4</ele><time>2026-03-28T13:11:40Z</time></trkpt><trkpt lat="44.536271439140044" lon="9.20512023180355"><ele>767.8</ele><time>2026-03-28T13:11:42Z</time></trkpt><trkpt lat="44.536271669212695" lon="9.204967144980262"><ele>771.1999999999999</ele><time>2026-03-28T13:11:44Z</time></trkpt><trkpt lat="44.5362699017568" lon="9.204806414243516"><ele>774.5999999999999</ele><time>2026-03-28T13:11:46Z</time></trkpt><trkpt lat="44.5362611550169" lon="9.204718229834409"><ele>778.0</ele><time>2026-03-28T13:11:47Z</time></trkpt><trkpt lat="44.5362440060897" lon="9.204625681339927"><ele>781.8333333333333</ele><time>2026-03-28T13:11:48Z</time></trkpt><trkpt lat="44.53621609326249" lon="9.204535234379149"><ele>785.6666666666666</ele><time>2026-03-28T13:11:49Z</time></trkpt><trkpt lat="44.536174459429354" lon="9.20444420940193"><ele>789.5</ele><time>2026-03-28T13:11:50Z</time></trkpt><trkpt lat="44.53614427775732" lon="9.204342761331702"><ele>793.3333333333333</ele><time>2026-03-28T13:11:51Z</time></trkpt><trkpt lat="44.53609720351969" lon="9.204257164289773"><ele>797.1666666666666</ele><time>2026-03-28T13:11:52Z</time></trkpt><trkpt lat="44.53605051205548" lon="9.204174337668116"><ele>801.0</ele><time>2026-03-28T13:11:53Z</time></trkpt><trkpt lat="44.536006933952855" lon="9.204090675625629"><ele>800.8333333333334</ele><time>2026-03-28T13:11:54Z</time></trkpt><trkpt lat="44.53596359407987" lon="9.203987743750806"><ele>800.6666666666667</ele><time>2026-03-28T13:11:55Z</time></trkpt><trkpt lat="44.535933043938506" lon="9.203893254781352"><ele>800.5</ele><time>2026-03-28T13:11:56Z</time></trkpt><trkpt lat="44.535895571391706" lon="9.20379414912006"><ele>800.3333333333334</ele><time>2026-03-28T13:11:57Z</time></trkpt><trkpt lat="44.53588214959886" lon="9.203683343586246"><ele>800.1666666666667</ele><time>2026-03-28T13:11:58Z</time></trkpt><trkpt lat="44.53585760213369" lon="9.203588727504316"><ele>800.0</ele><time>2026-03-28T13:11:59Z</time></trkpt><trkpt lat="44.53582827843677" lon="9.203479097325872"><ele>800.0</ele><time>2026-03-28T13:12:00Z</time></trkpt><trkpt lat="44.53581269650806" lon="9.20334392556334"><ele>800.0</ele><time>2026-03-28T13:12:01Z</time></trkpt><trkpt lat="44.53578707653757" lon="9.203211979965804"><ele>800.0</ele><time>2026-03-28T13:12:02Z</time></trkpt><trkpt lat="44.53574288591081" lon="9.20308200206449"><ele>800.0</ele><time>2026-03-28T13:12:03Z</time></trkpt><trkpt lat="44.53573360395813" lon="9.202943119826363"><ele>800.0</ele><time>2026-03-28T13:12:04Z</time></trkpt><trkpt lat="44.53571044707406" lon="9.202801532762322"><ele>798.2</ele><time>2026-03-28T13:12:05Z</time></trkpt><trkpt lat="44.535655635068615" lon="9.202677585075815"><ele>796.4</ele><time>2026-03-28T13:12:06Z</time></trkpt><trkpt lat="44.53558169817372" lon="9.202554177078065"><ele>794.5999999999999</ele><time>2026-03-28T13:12:07Z</time></trkpt><trkpt lat="44.53554323477787" lon="9.20241288344015"><ele>792.8</ele><time>2026-03-28T13:12:08Z</time></trkpt><trkpt lat="44.535509756971194" lon="9.202281144008294"><ele>791.0</ele><time>2026-03-28T13:12:09Z</time></trkpt><trkpt lat="44.53548925083669" lon="9.202164392817735"><ele>790.5000000000001</ele><time>2026-03-28T13:12:10Z</time></trkpt><trkpt lat="44.53548110705147" lon="9.202045502536057"><ele>790.0</ele><time>2026-03-28T13:12:11Z</time></trkpt><trkpt lat="44.53550122419548" lon="9.201924694478311"><ele>789.5</ele><time>2026-03-28T13:12:12Z</time></trkpt><trkpt lat="44.535551601722815" lon="9.201830849121006"><ele>789.0</ele><time>2026-03-28T13:12:12.999Z</time></trkpt><trkpt lat="44.53558151822719" lon="9.201731297156407"><ele>788.5000000000001</ele><time>2026-03-28T13:12:13.999Z</time></trkpt><trkpt lat="44.535595012210486" lon="9.201629768902116"><ele>788.0</ele><time>2026-03-28T13:12:14.999Z</time></trkpt><trkpt lat="44.535595606008016" lon="9.201515230792905"><ele>788.4</ele><time>2026-03-28T13:12:15.999Z</time></trkpt><trkpt lat="44.535575247213394" lon="9.201405192361003"><ele>788.8</ele><time>2026-03-28T13:12:16.999Z</time></trkpt><trkpt lat="44.535548855080165" lon="9.201320270705775"><ele>789.2</ele><time>2026-03-28T13:12:17.999Z</time></trkpt><trkpt lat="44.5354634520078" lon="9.201187617343422"><ele>789.6</ele><time>2026-03-28T13:12:19.999Z</time></trkpt><trkpt lat="44.5353802348164" lon="9.201193580471628"><ele>790.0</ele><time>2026-03-28T13:12:20.999Z</time></trkpt><trkpt lat="44.53537179480349" lon="9.201384380516734"><ele>795.4999999999999</ele><time>2026-03-28T13:12:21.999Z</time></trkpt><trkpt lat="44.53538195109964" lon="9.201483761926482"><ele>801.0</ele><time>2026-03-28T13:12:22.999Z</time></trkpt><trkpt lat="44.53537504405441" lon="9.201591567967908"><ele>806.5</ele><time>2026-03-28T13:12:23.999Z</time></trkpt><trkpt lat="44.535338081980626" lon="9.201687919462648"><ele>812.0</ele><time>2026-03-28T13:12:24.999Z</time></trkpt><trkpt lat="44.53528367670031" lon="9.201805736653998"><ele>817.4999999999999</ele><time>2026-03-28T13:12:25.999Z</time></trkpt><trkpt lat="44.535253265033944" lon="9.201936489321135"><ele>823.0</ele><time>2026-03-28T13:12:26.999Z</time></trkpt><trkpt lat="44.53523542534561" lon="9.202066142437287"><ele>824.0</ele><time>2026-03-28T13:12:27.999Z</time></trkpt><trkpt lat="44.535246278981994" lon="9.202226086366187"><ele>825.0</ele><time>2026-03-28T13:12:28.999Z</time></trkpt><trkpt lat="44.535261590170855" lon="9.202379869104803"><ele>826.0</ele><time>2026-03-28T13:12:29.999Z</time></trkpt><trkpt lat="44.53528276570334" lon="9.202539605754485"><ele>827.0</ele><time>2026-03-28T13:12:30.999Z</time></trkpt><trkpt lat="44.53530420481379" lon="9.202691453104952"><ele>827.0</ele><time>2026-03-28T13:12:31.999Z</time></trkpt><trkpt lat="44.53532350337907" lon="9.202829557991215"><ele>827.0</ele><time>2026-03-28T13:12:32.999Z</time></trkpt><trkpt lat="44.53535686555498" lon="9.202964434179279"><ele>827.0</ele><time>2026-03-28T13:12:33.999Z</time></trkpt><trkpt lat="44.53536282779262" lon="9.203111703286067"><ele>827.0</ele><time>2026-03-28T13:12:34.999Z</time></trkpt><trkpt lat="44.53536475374659" lon="9.203230342861595"><ele>827.0</ele><time>2026-03-28T13:12:35.999Z</time></trkpt><trkpt lat="44.53537315471053" lon="9.20334661580609"><ele>826.6666666666667</ele><time>2026-03-28T13:12:36.999Z</time></trkpt><trkpt lat="44.53538152104223" lon="9.2034507295534"><ele>826.3333333333334</ele><time>2026-03-28T13:12:37.999Z</time></trkpt><trkpt lat="44.535390537022565" lon="9.20355185571147"><ele>826.0</ele><time>2026-03-28T13:12:38.999Z</time></trkpt><trkpt lat="44.53538225466999" lon="9.203656222078266"><ele>825.6666666666667</ele><time>2026-03-28T13:12:39.999Z</time></trkpt><trkpt lat="44.535367137381165" lon="9.203758597052406"><ele>825.3333333333334</ele><time>2026-03-28T13:12:40.999Z</time></trkpt><trkpt lat="44.5352711877476" lon="9.20384962037763"><ele>825.0</ele><time>2026-03-28T13:12:42.999Z</time></trkpt><trkpt lat="44.53519462770146" lon="9.203848914466276"><ele>825.0</ele><time>2026-03-28T13:12:43.999Z</time></trkpt><trkpt lat="44.53513451370262" lon="9.203781201787644"><ele>825.0</ele><time>2026-03-28T13:12:44.999Z</time></trkpt><trkpt lat="44.53514696369274" lon="9.20368034266506"><ele>825.0</ele><time>2026-03-28T13:12:45.999Z</time></trkpt><trkpt lat="44.535149181711205" lon="9.203562105634534"><ele>825.0</ele><time>2026-03-28T13:12:46.999Z</time></trkpt><trkpt lat="44.53516068160411" lon="9.20345564757147"><ele>825.0</ele><time>2026-03-28T13:12:47.999Z</time></trkpt><trkpt lat="44.535185013171805" lon="9.20332456288874"><ele>825.0</ele><time>2026-03-28T13:12:48.999Z</time></trkpt><trkpt lat="44.53518535074674" lon="9.203175996330735"><ele>825.5</ele><time>2026-03-28T13:12:49.999Z</time></trkpt><trkpt lat="44.53516001515198" lon="9.203019449312762"><ele>826.0</ele><time>2026-03-28T13:12:50.999Z</time></trkpt><trkpt lat="44.53513802077328" lon="9.202860248659274"><ele>826.5</ele><time>2026-03-28T13:12:51.999Z</time></trkpt><trkpt lat="44.53511418360103" lon="9.202702362736531"><ele>827.0</ele><time>2026-03-28T13:12:52.999Z</time></trkpt><trkpt lat="44.53508704538607" lon="9.20255169174992"><ele>827.0</ele><time>2026-03-28T13:12:53.999Z</time></trkpt><trkpt lat="44.53505754601495" lon="9.202395186824695"><ele>827.0</ele><time>2026-03-28T13:12:54.999Z</time></trkpt><trkpt lat="44.53502881295129" lon="9.202240359214104"><ele>827.0</ele><time>2026-03-28T13:12:55.999Z</time></trkpt><trkpt lat="44.53500868890006" lon="9.202081266240272"><ele>827.0</ele><time>2026-03-28T13:12:56.999Z</time></trkpt><trkpt lat="44.5349844231115" lon="9.201927454843926"><ele>827.2</ele><time>2026-03-28T13:12:57.999Z</time></trkpt><trkpt lat="44.534958591748875" lon="9.201774345913964"><ele>827.4000000000001</ele><time>2026-03-28T13:12:58.999Z</time></trkpt><trkpt lat="44.534944047931845" lon="9.201616574302628"><ele>827.5999999999999</ele><time>2026-03-28T13:12:59.999Z</time></trkpt><trkpt lat="44.53492129049033" lon="9.201462689697118"><ele>827.8</ele><time>2026-03-28T13:13:00.999Z</time></trkpt><trkpt lat="44.53489812984643" lon="9.201309556911857"><ele>828.0</ele><time>2026-03-28T13:13:01.999Z</time></trkpt><trkpt lat="44.534877392764464" lon="9.201156057606244"><ele>827.0</ele><time>2026-03-28T13:13:02.999Z</time></trkpt><trkpt lat="44.53485752555984" lon="9.201007520262038"><ele>826.0</ele><time>2026-03-28T13:13:03.999Z</time></trkpt><trkpt lat="44.53482179703649" lon="9.200885045979296"><ele>825.0</ele><time>2026-03-28T13:13:04.999Z</time></trkpt><trkpt lat="44.53478628090364" lon="9.200777418979701"><ele>824.0</ele><time>2026-03-28T13:13:05.999Z</time></trkpt><trkpt lat="44.53470998414424" lon="9.200700102487199"><ele>823.0</ele><time>2026-03-28T13:13:06.999Z</time></trkpt><trkpt lat="44.5346299104649" lon="9.200640429664183"><ele>826.5999999999999</ele><time>2026-03-28T13:13:07.999Z</time></trkpt><trkpt lat="44.5345343890419" lon="9.200598695063134"><ele>830.1999999999999</ele><time>2026-03-28T13:13:08.999Z</time></trkpt><trkpt lat="44.534442500982664" lon="9.200539214002395"><ele>833.8</ele><time>2026-03-28T13:13:09.999Z</time></trkpt><trkpt lat="44.534350263003184" lon="9.200474495524691"><ele>837.4</ele><time>2026-03-28T13:13:10.999Z</time></trkpt><trkpt lat="44.53425591158244" lon="9.200422558969835"><ele>841.0</ele><time>2026-03-28T13:13:11.999Z</time></trkpt><trkpt lat="44.53417856029825" lon="9.200364199677741"><ele>841.0</ele><time>2026-03-28T13:13:12.999Z</time></trkpt><trkpt lat="44.53414120082385" lon="9.200282253339953"><ele>841.0</ele><time>2026-03-28T13:13:13.999Z</time></trkpt><trkpt lat="44.53410741054128" lon="9.200176006997534"><ele>841.0</ele><time>2026-03-28T13:13:14.999Z</time></trkpt><trkpt lat="44.534142719083384" lon="9.200054145995649"><ele>841.0</ele><time>2026-03-28T13:13:15.999Z</time></trkpt><trkpt lat="44.534194212716386" lon="9.199930776505488"><ele>841.0</ele><time>2026-03-28T13:13:16.999Z</time></trkpt><trkpt lat="44.53427620654458" lon="9.199824550660734"><ele>840.25</ele><time>2026-03-28T13:13:17.999Z</time></trkpt><trkpt lat="44.53436602860003" lon="9.19971596067399"><ele>839.5</ele><time>2026-03-28T13:13:18.999Z</time></trkpt><trkpt lat="44.53444238958741" lon="9.199591964739415"><ele>838.75</ele><time>2026-03-28T13:13:19.999Z</time></trkpt><trkpt lat="44.5345106620023" lon="9.199465091185019"><ele>838.0</ele><time>2026-03-28T13:13:20.999Z</time></trkpt><trkpt lat="44.534573237096794" lon="9.19934498991404"><ele>837.9999999999999</ele><time>2026-03-28T13:13:21.999Z</time></trkpt><trkpt lat="44.534583310186584" lon="9.199220186187357"><ele>838.0</ele><time>2026-03-28T13:13:23Z</time></trkpt><trkpt lat="44.5345865197557" lon="9.199093986487874"><ele>838.0</ele><time>2026-03-28T13:13:24Z</time></trkpt><trkpt lat="44.53456029428751" lon="9.198983651522687"><ele>838.0</ele><time>2026-03-28T13:13:25Z</time></trkpt><trkpt lat="44.53450907244383" lon="9.198907725163627"><ele>837.9999999999999</ele><time>2026-03-28T13:13:26Z</time></trkpt><trkpt lat="44.53442660427565" lon="9.198881937689231"><ele>838.0</ele><time>2026-03-28T13:13:27Z</time></trkpt><trkpt lat="44.53434521970242" lon="9.198909668287468"><ele>841.2</ele><time>2026-03-28T13:13:28Z</time></trkpt><trkpt lat="44.53427750693303" lon="9.19898100006334"><ele>844.4</ele><time>2026-03-28T13:13:29Z</time></trkpt><trkpt lat="44.534218063395016" lon="9.199062331135293"><ele>847.6000000000001</ele><time>2026-03-28T13:13:30Z</time></trkpt><trkpt lat="44.534184118530085" lon="9.199196699282556"><ele>850.8000000000001</ele><time>2026-03-28T13:13:31Z</time></trkpt><trkpt lat="44.53419878972598" lon="9.19934314789119"><ele>854.0</ele><time>2026-03-28T13:13:32Z</time></trkpt><trkpt lat="44.53419377983878" lon="9.199450847775855"><ele>854.0</ele><time>2026-03-28T13:13:33Z</time></trkpt><trkpt lat="44.534097404463125" lon="9.199587958904868"><ele>854.0000000000001</ele><time>2026-03-28T13:13:35Z</time></trkpt><trkpt lat="44.53400448883391" lon="9.199616302454714"><ele>854.0000000000001</ele><time>2026-03-28T13:13:36Z</time></trkpt><trkpt lat="44.533907137337835" lon="9.199556123019088"><ele>854.0</ele><time>2026-03-28T13:13:37Z</time></trkpt><trkpt lat="44.53380389063471" lon="9.19951635708993"><ele>854.0</ele><time>2026-03-28T13:13:38Z</time></trkpt><trkpt lat="44.53370067157358" lon="9.199533973834658"><ele>858.4000000000001</ele><time>2026-03-28T13:13:39Z</time></trkpt><trkpt lat="44.53362142667041" lon="9.199571203970006"><ele>862.8000000000001</ele><time>2026-03-28T13:13:40Z</time></trkpt><trkpt lat="44.533550527473274" lon="9.199626173233204"><ele>867.1999999999999</ele><time>2026-03-28T13:13:41Z</time></trkpt><trkpt lat="44.53350263485497" lon="9.199738868960779"><ele>871.5999999999999</ele><time>2026-03-28T13:13:42Z</time></trkpt><trkpt lat="44.53351291074422" lon="9.199896230512772"><ele>876.0</ele><time>2026-03-28T13:13:43Z</time></trkpt><trkpt lat="44.53352225680569" lon="9.20003188936001"><ele>876.0</ele><time>2026-03-28T13:13:44Z</time></trkpt><trkpt lat="44.533534015783275" lon="9.20016979880425"><ele>875.9999999999999</ele><time>2026-03-28T13:13:45Z</time></trkpt><trkpt lat="44.53354599682816" lon="9.200320417684182"><ele>875.9999999999999</ele><time>2026-03-28T13:13:46Z</time></trkpt><trkpt lat="44.53354816468881" lon="9.200471233424654"><ele>876.0</ele><time>2026-03-28T13:13:47Z</time></trkpt><trkpt lat="44.5335339592357" lon="9.200630411921145"><ele>876.0</ele><time>2026-03-28T13:13:48Z</time></trkpt><trkpt lat="44.53351949487734" lon="9.200809549574311"><ele>876.75</ele><time>2026-03-28T13:13:49Z</time></trkpt><trkpt lat="44.533506347814225" lon="9.200987181879777"><ele>877.5</ele><time>2026-03-28T13:13:50Z</time></trkpt><trkpt lat="44.53350591351948" lon="9.201165626394417"><ele>878.25</ele><time>2026-03-28T13:13:51Z</time></trkpt><trkpt lat="44.5335284561389" lon="9.201356304892556"><ele>879.0</ele><time>2026-03-28T13:13:52Z</time></trkpt><trkpt lat="44.53356552096867" lon="9.201532247184248"><ele>879.75</ele><time>2026-03-28T13:13:53Z</time></trkpt><trkpt lat="44.53361899660037" lon="9.20169321346509"><ele>880.5</ele><time>2026-03-28T13:13:54Z</time></trkpt><trkpt lat="44.533682702685304" lon="9.20185002861608"><ele>881.25</ele><time>2026-03-28T13:13:55Z</time></trkpt><trkpt lat="44.53373369703286" lon="9.202005579836845"><ele>882.0</ele><time>2026-03-28T13:13:56Z</time></trkpt><trkpt lat="44.533804377770416" lon="9.202146555166689"><ele>878.4000000000001</ele><time>2026-03-28T13:13:57Z</time></trkpt><trkpt lat="44.533883149589805" lon="9.202282253515783"><ele>874.8000000000001</ele><time>2026-03-28T13:13:58Z</time></trkpt><trkpt lat="44.533978122975206" lon="9.202368538133786"><ele>871.2</ele><time>2026-03-28T13:13:59Z</time></trkpt><trkpt lat="44.534024711459125" lon="9.202474840981486"><ele>867.6</ele><time>2026-03-28T13:14:00Z</time></trkpt><trkpt lat="44.534041335898834" lon="9.202567770828427"><ele>864.0</ele><time>2026-03-28T13:14:01Z</time></trkpt><trkpt lat="44.53398584760943" lon="9.202734505578526"><ele>864.0</ele><time>2026-03-28T13:14:03Z</time></trkpt><trkpt lat="44.53390719540811" lon="9.20276038370959"><ele>864.0</ele><time>2026-03-28T13:14:04Z</time></trkpt><trkpt lat="44.53384659058195" lon="9.202729063407205"><ele>864.0</ele><time>2026-03-28T13:14:05Z</time></trkpt><trkpt lat="44.53377802845567" lon="9.202666056899325"><ele>864.0</ele><time>2026-03-28T13:14:07Z</time></trkpt><trkpt lat="44.533716556892365" lon="9.202555632641223"><ele>864.0</ele><time>2026-03-28T13:14:09Z</time></trkpt><trkpt lat="44.53368945571292" lon="9.202457952123826"><ele>864.0</ele><time>2026-03-28T13:14:10Z</time></trkpt><trkpt lat="44.53363905653982" lon="9.202357163503834"><ele>867.6</ele><time>2026-03-28T13:14:11Z</time></trkpt><trkpt lat="44.5335911362054" lon="9.202246254219563"><ele>871.2</ele><time>2026-03-28T13:14:12Z</time></trkpt><trkpt lat="44.53357253536992" lon="9.202118427649024"><ele>874.8000000000001</ele><time>2026-03-28T13:14:13Z</time></trkpt><trkpt lat="44.53353668974023" lon="9.20200195919842"><ele>878.4000000000001</ele><time>2026-03-28T13:14:14Z</time></trkpt><trkpt lat="44.53349658781037" lon="9.201885680448019"><ele>882.0</ele><time>2026-03-28T13:14:15Z</time></trkpt><trkpt lat="44.53343852904852" lon="9.201775107503162"><ele>882.0</ele><time>2026-03-28T13:14:16Z</time></trkpt><trkpt lat="44.53340007241452" lon="9.201661719141"><ele>882.0</ele><time>2026-03-28T13:14:17Z</time></trkpt><trkpt lat="44.53336849203966" lon="9.201533607423624"><ele>882.0</ele><time>2026-03-28T13:14:18Z</time></trkpt><trkpt lat="44.5333194852306" lon="9.20142526646945"><ele>882.0</ele><time>2026-03-28T13:14:19Z</time></trkpt><trkpt lat="44.533275958126815" lon="9.201307581492951"><ele>882.0</ele><time>2026-03-28T13:14:19.999Z</time></trkpt><trkpt lat="44.53323240366551" lon="9.201185533306116"><ele>881.4000000000001</ele><time>2026-03-28T13:14:20.999Z</time></trkpt><trkpt lat="44.53319572182245" lon="9.201062006712236"><ele>880.8000000000001</ele><time>2026-03-28T13:14:21.999Z</time></trkpt><trkpt lat="44.53315068642325" lon="9.200945347659337"><ele>880.2</ele><time>2026-03-28T13:14:22.999Z</time></trkpt><trkpt lat="44.53311186522131" lon="9.200830446619236"><ele>879.6</ele><time>2026-03-28T13:14:23.999Z</time></trkpt><trkpt lat="44.53306924271666" lon="9.200723844301791"><ele>879.0</ele><time>2026-03-28T13:14:24.999Z</time></trkpt><trkpt lat="44.53302868504652" lon="9.200599567648817"><ele>878.4000000000001</ele><time>2026-03-28T13:14:25.999Z</time></trkpt><trkpt lat="44.5329908741688" lon="9.200473397091262"><ele>877.8000000000001</ele><time>2026-03-28T13:14:26.999Z</time></trkpt><trkpt lat="44.532950937059745" lon="9.200348346444398"><ele>877.1999999999999</ele><time>2026-03-28T13:14:27.999Z</time></trkpt><trkpt lat="44.532909927069" lon="9.200223336715972"><ele>876.5999999999999</ele><time>2026-03-28T13:14:28.999Z</time></trkpt><trkpt lat="44.53286274553412" lon="9.20009477823254"><ele>876.0</ele><time>2026-03-28T13:14:29.999Z</time></trkpt><trkpt lat="44.53280871638511" lon="9.199961784936"><ele>881.4</ele><time>2026-03-28T13:14:30.999Z</time></trkpt><trkpt lat="44.53273040622159" lon="9.199830192954046"><ele>886.8</ele><time>2026-03-28T13:14:31.999Z</time></trkpt><trkpt lat="44.53266704451108" lon="9.19969222288233"><ele>892.1999999999999</ele><time>2026-03-28T13:14:32.999Z</time></trkpt><trkpt lat="44.5326191769686" lon="9.199556085169132"><ele>897.5999999999999</ele><time>2026-03-28T13:14:33.999Z</time></trkpt><trkpt lat="44.532588202335766" lon="9.199440427784518"><ele>903.0</ele><time>2026-03-28T13:14:34.999Z</time></trkpt><trkpt lat="44.53254899690936" lon="9.199332919973457"><ele>903.0</ele><time>2026-03-28T13:14:35.999Z</time></trkpt><trkpt lat="44.532553419708336" lon="9.19918991518794"><ele>903.0</ele><time>2026-03-28T13:14:36.999Z</time></trkpt><trkpt lat="44.53264336104641" lon="9.199106286957532"><ele>903.0</ele><time>2026-03-28T13:14:37.999Z</time></trkpt><trkpt lat="44.53271954714972" lon="9.199071466469475"><ele>903.0</ele><time>2026-03-28T13:14:38.999Z</time></trkpt><trkpt lat="44.53279427654541" lon="9.199031911654755"><ele>903.0</ele><time>2026-03-28T13:14:39.999Z</time></trkpt><trkpt lat="44.53286228721632" lon="9.198957891596026"><ele>904.8333333333334</ele><time>2026-03-28T13:14:40.999Z</time></trkpt><trkpt lat="44.53288549715274" lon="9.198841629427994"><ele>906.6666666666667</ele><time>2026-03-28T13:14:41.999Z</time></trkpt><trkpt lat="44.53288840266479" lon="9.198725966227684"><ele>908.5</ele><time>2026-03-28T13:14:42.999Z</time></trkpt><trkpt lat="44.53284413795153" lon="9.198612493953535"><ele>910.3333333333334</ele><time>2026-03-28T13:14:43.999Z</time></trkpt><trkpt lat="44.53279322263353" lon="9.198506273031201"><ele>912.1666666666667</ele><time>2026-03-28T13:14:44.999Z</time></trkpt><trkpt lat="44.53277144085459" lon="9.198390479834197"><ele>914.0</ele><time>2026-03-28T13:14:45.999Z</time></trkpt><trkpt lat="44.53280520124516" lon="9.198258471007692"><ele>914.0</ele><time>2026-03-28T13:14:46.999Z</time></trkpt><trkpt lat="44.53288521657146" lon="9.198210207794578"><ele>914.0000000000001</ele><time>2026-03-28T13:14:47.999Z</time></trkpt><trkpt lat="44.53296970939511" lon="9.198187404858777"><ele>914.0000000000001</ele><time>2026-03-28T13:14:48.999Z</time></trkpt><trkpt lat="44.53306005962542" lon="9.198170769745058"><ele>914.0</ele><time>2026-03-28T13:14:49.999Z</time></trkpt><trkpt lat="44.53316267988929" lon="9.198144788320953"><ele>914.0</ele><time>2026-03-28T13:14:50.999Z</time></trkpt><trkpt lat="44.53327653057116" lon="9.198109120336893"><ele>916.25</ele><time>2026-03-28T13:14:51.999Z</time></trkpt><trkpt lat="44.53339294120645" lon="9.198064493732291"><ele>918.5</ele><time>2026-03-28T13:14:52.999Z</time></trkpt><trkpt lat="44.533507689830266" lon="9.198022944706754"><ele>920.75</ele><time>2026-03-28T13:14:53.999Z</time></trkpt><trkpt lat="44.533622679346834" lon="9.19798837066677"><ele>923.0</ele><time>2026-03-28T13:14:54.999Z</time></trkpt><trkpt lat="44.53372606400097" lon="9.197945682051971"><ele>917.8</ele><time>2026-03-28T13:14:55.999Z</time></trkpt><trkpt lat="44.53379539570254" lon="9.197865441372715"><ele>912.5999999999999</ele><time>2026-03-28T13:14:56.999Z</time></trkpt><trkpt lat="44.53383933476397" lon="9.197742377965497"><ele>907.4000000000001</ele><time>2026-03-28T13:14:57.999Z</time></trkpt><trkpt lat="44.53386387144281" lon="9.19759484264766"><ele>902.2</ele><time>2026-03-28T13:14:58.999Z</time></trkpt><trkpt lat="44.53386172526964" lon="9.197441981586094"><ele>897.0</ele><time>2026-03-28T13:14:59.999Z</time></trkpt><trkpt lat="44.53385798879748" lon="9.197284447659861"><ele>896.4000000000001</ele><time>2026-03-28T13:15:00.999Z</time></trkpt><trkpt lat="44.53385137734299" lon="9.197130387892399"><ele>895.8000000000001</ele><time>2026-03-28T13:15:01.999Z</time></trkpt><trkpt lat="44.53381927826828" lon="9.19698821617185"><ele>895.2</ele><time>2026-03-28T13:15:02.999Z</time></trkpt><trkpt lat="44.533764944093996" lon="9.196857026487583"><ele>894.6</ele><time>2026-03-28T13:15:03.999Z</time></trkpt><trkpt lat="44.533702839440664" lon="9.196722637926555"><ele>894.0</ele><time>2026-03-28T13:15:04.999Z</time></trkpt><trkpt lat="44.533642453255695" lon="9.196588907838173"><ele>898.6</ele><time>2026-03-28T13:15:05.999Z</time></trkpt><trkpt lat="44.53358940945451" lon="9.196453704750033"><ele>903.2</ele><time>2026-03-28T13:15:06.999Z</time></trkpt><trkpt lat="44.53353277136476" lon="9.196317695203346"><ele>907.8000000000001</ele><time>2026-03-28T13:15:07.999Z</time></trkpt><trkpt lat="44.53347310657455" lon="9.1961850621327"><ele>912.4000000000001</ele><time>2026-03-28T13:15:08.999Z</time></trkpt><trkpt lat="44.533410718329826" lon="9.19605677474919"><ele>917.0</ele><time>2026-03-28T13:15:09.999Z</time></trkpt><trkpt lat="44.53335476515483" lon="9.195954026696102"><ele>917.0</ele><time>2026-03-28T13:15:10.999Z</time></trkpt><trkpt lat="44.53330421671337" lon="9.195855425881009"><ele>917.0</ele><time>2026-03-28T13:15:11.999Z</time></trkpt><trkpt lat="44.53320580759241" lon="9.195782512362346"><ele>917.0</ele><time>2026-03-28T13:15:12.999Z</time></trkpt><trkpt lat="44.53308939698792" lon="9.195769892814557"><ele>917.0</ele><time>2026-03-28T13:15:13.999Z</time></trkpt><trkpt lat="44.532983561138444" lon="9.195740386128394"><ele>917.0</ele><time>2026-03-28T13:15:14.999Z</time></trkpt><trkpt lat="44.53288241437147" lon="9.195703916082019"><ele>919.6</ele><time>2026-03-28T13:15:15.999Z</time></trkpt><trkpt lat="44.53281706268729" lon="9.195635467092755"><ele>922.2</ele><time>2026-03-28T13:15:16.999Z</time></trkpt><trkpt lat="44.53276865106105" lon="9.195515874448907"><ele>924.8</ele><time>2026-03-28T13:15:17.999Z</time></trkpt><trkpt lat="44.53270358722158" lon="9.195385563753856"><ele>927.4</ele><time>2026-03-28T13:15:18.999Z</time></trkpt><trkpt lat="44.53261794376482" lon="9.195285370805438"><ele>930.0</ele><time>2026-03-28T13:15:19.999Z</time></trkpt><trkpt lat="44.532531821097486" lon="9.195175780821092"><ele>930.0</ele><time>2026-03-28T13:15:20.999Z</time></trkpt><trkpt lat="44.53244679187878" lon="9.195073430436292"><ele>930.0</ele><time>2026-03-28T13:15:21.999Z</time></trkpt><trkpt lat="44.532341560872695" lon="9.195008495525524"><ele>930.0</ele><time>2026-03-28T13:15:22.999Z</time></trkpt><trkpt lat="44.53225555047489" lon="9.194967973379887"><ele>930.0</ele><time>2026-03-28T13:15:23.999Z</time></trkpt><trkpt lat="44.532182798313904" lon="9.194938477006854"><ele>930.0</ele><time>2026-03-28T13:15:24.999Z</time></trkpt><trkpt lat="44.53215224127824" lon="9.194829205454488"><ele>932.6</ele><time>2026-03-28T13:15:25.999Z</time></trkpt><trkpt lat="44.53214461011536" lon="9.194700619454672"><ele>935.2</ele><time>2026-03-28T13:15:26.999Z</time></trkpt><trkpt lat="44.53215044525682" lon="9.19457174645425"><ele>937.8</ele><time>2026-03-28T13:15:27.999Z</time></trkpt><trkpt lat="44.53219379373542" lon="9.194463395138333"><ele>940.4</ele><time>2026-03-28T13:15:29Z</time></trkpt><trkpt lat="44.53226523613031" lon="9.194378002863766"><ele>943.0</ele><time>2026-03-28T13:15:30Z</time></trkpt><trkpt lat="44.53235440953938" lon="9.194314402285691"><ele>943.0</ele><time>2026-03-28T13:15:31Z</time></trkpt><trkpt lat="44.53245221143596" lon="9.194261102965363"><ele>943.0</ele><time>2026-03-28T13:15:32Z</time></trkpt><trkpt lat="44.532557225278616" lon="9.194206272315972"><ele>943.0</ele><time>2026-03-28T13:15:33Z</time></trkpt><trkpt lat="44.532673378189806" lon="9.194172517842889"><ele>943.0</ele><time>2026-03-28T13:15:34Z</time></trkpt><trkpt lat="44.532790117575864" lon="9.194134597374596"><ele>939.8</ele><time>2026-03-28T13:15:35Z</time></trkpt><trkpt lat="44.53289888202282" lon="9.194092003718465"><ele>936.5999999999999</ele><time>2026-03-28T13:15:36Z</time></trkpt><trkpt lat="44.53299003996958" lon="9.194041342976128"><ele>933.4000000000001</ele><time>2026-03-28T13:15:37Z</time></trkpt><trkpt lat="44.533058819459214" lon="9.19395499212074"><ele>930.2</ele><time>2026-03-28T13:15:38Z</time></trkpt><trkpt lat="44.53309527883837" lon="9.193834852415316"><ele>927.0</ele><time>2026-03-28T13:15:39Z</time></trkpt><trkpt lat="44.53309744521562" lon="9.193693900047453"><ele>927.0</ele><time>2026-03-28T13:15:40Z</time></trkpt><trkpt lat="44.53307433896851" lon="9.193548384342868"><ele>927.0</ele><time>2026-03-28T13:15:41Z</time></trkpt><trkpt lat="44.53304862294992" lon="9.193408198104287"><ele>927.0</ele><time>2026-03-28T13:15:42Z</time></trkpt><trkpt lat="44.533038012570906" lon="9.193267872561087"><ele>927.0</ele><time>2026-03-28T13:15:43Z</time></trkpt><trkpt lat="44.53304259100661" lon="9.193136828918576"><ele>927.0</ele><time>2026-03-28T13:15:44Z</time></trkpt><trkpt lat="44.53307149786408" lon="9.19300311842797"><ele>929.8</ele><time>2026-03-28T13:15:45Z</time></trkpt><trkpt lat="44.53311197814667" lon="9.192869965003432"><ele>932.6</ele><time>2026-03-28T13:15:46Z</time></trkpt><trkpt lat="44.53315759684929" lon="9.192741779113254"><ele>935.3999999999999</ele><time>2026-03-28T13:15:47Z</time></trkpt><trkpt lat="44.53319780819036" lon="9.192615964733925"><ele>938.1999999999999</ele><time>2026-03-28T13:15:48Z</time></trkpt><trkpt lat="44.53323246623639" lon="9.192498127887786"><ele>941.0</ele><time>2026-03-28T13:15:49Z</time></trkpt><trkpt lat="44.533252556845" lon="9.192381277705518"><ele>939.3333333333334</ele><time>2026-03-28T13:15:50Z</time></trkpt><trkpt lat="44.53325117397469" lon="9.19227001837323"><ele>937.6666666666667</ele><time>2026-03-28T13:15:51Z</time></trkpt><trkpt lat="44.533229404721084" lon="9.192171003665417"><ele>936.0</ele><time>2026-03-28T13:15:52Z</time></trkpt><trkpt lat="44.53321240888432" lon="9.192071869474999"><ele>934.3333333333333</ele><time>2026-03-28T13:15:53Z</time></trkpt><trkpt lat="44.53315427112387" lon="9.19200296083844"><ele>932.6666666666666</ele><time>2026-03-28T13:15:54Z</time></trkpt><trkpt lat="44.533085883985144" lon="9.191954104371227"><ele>931.0</ele><time>2026-03-28T13:15:55Z</time></trkpt><trkpt lat="44.53299451737953" lon="9.191921835864488"><ele>931.0</ele><time>2026-03-28T13:15:56Z</time></trkpt><trkpt lat="44.53290004947807" lon="9.191916135183348"><ele>930.9999999999999</ele><time>2026-03-28T13:15:57Z</time></trkpt><trkpt lat="44.53280730536257" lon="9.19192946056813"><ele>930.9999999999999</ele><time>2026-03-28T13:15:58Z</time></trkpt><trkpt lat="44.5327096980036" lon="9.191979309906333"><ele>931.0</ele><time>2026-03-28T13:15:59Z</time></trkpt><trkpt lat="44.53261945144393" lon="9.192035081958338"><ele>931.0</ele><time>2026-03-28T13:16:00Z</time></trkpt><trkpt lat="44.53253375850651" lon="9.192101657218817"><ele>932.1999999999999</ele><time>2026-03-28T13:16:01Z</time></trkpt><trkpt lat="44.53245116515124" lon="9.192173170086512"><ele>933.3999999999999</ele><time>2026-03-28T13:16:02Z</time></trkpt><trkpt lat="44.53234525764528" lon="9.192165114908171"><ele>934.6</ele><time>2026-03-28T13:16:03Z</time></trkpt><trkpt lat="44.532247893484104" lon="9.192100488759257"><ele>935.8</ele><time>2026-03-28T13:16:04Z</time></trkpt><trkpt lat="44.532158548019176" lon="9.192005077073297"><ele>937.0</ele><time>2026-03-28T13:16:05Z</time></trkpt><trkpt lat="44.53205778993714" lon="9.191939056550465"><ele>939.5</ele><time>2026-03-28T13:16:06Z</time></trkpt><trkpt lat="44.53194133458735" lon="9.191889950713094"><ele>942.0</ele><time>2026-03-28T13:16:07Z</time></trkpt><trkpt lat="44.531816885956914" lon="9.191878684308247"><ele>944.5</ele><time>2026-03-28T13:16:08Z</time></trkpt><trkpt lat="44.53169120100033" lon="9.191875173174394"><ele>947.0</ele><time>2026-03-28T13:16:09Z</time></trkpt><trkpt lat="44.53156877637671" lon="9.191878099543587"><ele>947.0</ele><time>2026-03-28T13:16:10Z</time></trkpt><trkpt lat="44.531443823979416" lon="9.191903810614784"><ele>947.0</ele><time>2026-03-28T13:16:11Z</time></trkpt><trkpt lat="44.53131922063431" lon="9.191876007979639"><ele>947.0</ele><time>2026-03-28T13:16:12Z</time></trkpt><trkpt lat="44.53119296551901" lon="9.191868772752795"><ele>947.0</ele><time>2026-03-28T13:16:13Z</time></trkpt><trkpt lat="44.531074323341606" lon="9.191856131133092"><ele>951.0</ele><time>2026-03-28T13:16:14Z</time></trkpt><trkpt lat="44.530957043853746" lon="9.191837502123681"><ele>955.0</ele><time>2026-03-28T13:16:15Z</time></trkpt><trkpt lat="44.530853756008206" lon="9.191816665369478"><ele>959.0</ele><time>2026-03-28T13:16:16Z</time></trkpt><trkpt lat="44.53075272431144" lon="9.19173887435936"><ele>963.0</ele><time>2026-03-28T13:16:17Z</time></trkpt><trkpt lat="44.53065721318542" lon="9.191650465765104"><ele>963.0</ele><time>2026-03-28T13:16:18Z</time></trkpt><trkpt lat="44.53056808313758" lon="9.19154691309902"><ele>963.0</ele><time>2026-03-28T13:16:19Z</time></trkpt><trkpt lat="44.53048494232626" lon="9.191420372536184"><ele>963.0</ele><time>2026-03-28T13:16:20Z</time></trkpt><trkpt lat="44.53042100726145" lon="9.191269854302194"><ele>963.0</ele><time>2026-03-28T13:16:21Z</time></trkpt><trkpt lat="44.530370596860024" lon="9.191142647331768"><ele>963.4</ele><time>2026-03-28T13:16:22Z</time></trkpt><trkpt lat="44.5303022654421" lon="9.19104747231461"><ele>963.8</ele><time>2026-03-28T13:16:23Z</time></trkpt><trkpt lat="44.530219649352084" lon="9.190997728610123"><ele>964.2</ele><time>2026-03-28T13:16:24Z</time></trkpt><trkpt lat="44.53013137185129" lon="9.190986767737787"><ele>964.6</ele><time>2026-03-28T13:16:24.999Z</time></trkpt><trkpt lat="44.53002731539581" lon="9.19101046609657"><ele>965.0</ele><time>2026-03-28T13:16:25.999Z</time></trkpt><trkpt lat="44.52991968558838" lon="9.191005229256671"><ele>965.0</ele><time>2026-03-28T13:16:26.999Z</time></trkpt><trkpt lat="44.529799054803625" lon="9.191005229257863"><ele>965.0</ele><time>2026-03-28T13:16:27.999Z</time></trkpt><trkpt lat="44.52967497128983" lon="9.191014275680148"><ele>965.0</ele><time>2026-03-28T13:16:28.999Z</time></trkpt><trkpt lat="44.52955628677395" lon="9.190937682514466"><ele>965.0</ele><time>2026-03-28T13:16:29.999Z</time></trkpt><trkpt lat="44.529447067917694" lon="9.190822927502142"><ele>964.5</ele><time>2026-03-28T13:16:30.999Z</time></trkpt><trkpt lat="44.52934538990569" lon="9.190697440026796"><ele>964.0</ele><time>2026-03-28T13:16:31.999Z</time></trkpt><trkpt lat="44.52924645128061" lon="9.190589457767057"><ele>963.5</ele><time>2026-03-28T13:16:32.999Z</time></trkpt><trkpt lat="44.529157999131364" lon="9.19048290379695"><ele>963.0</ele><time>2026-03-28T13:16:33.999Z</time></trkpt><trkpt lat="44.52906901427621" lon="9.190414587180834"><ele>963.0</ele><time>2026-03-28T13:16:34.999Z</time></trkpt><trkpt lat="44.52896561981962" lon="9.190402162964437"><ele>963.0</ele><time>2026-03-28T13:16:35.999Z</time></trkpt><trkpt lat="44.528864950496676" lon="9.19042457178982"><ele>963.0</ele><time>2026-03-28T13:16:36.999Z</time></trkpt><trkpt lat="44.52876873633638" lon="9.19046259353573"><ele>963.0</ele><time>2026-03-28T13:16:37.999Z</time></trkpt><trkpt lat="44.52868194352632" lon="9.190564177134156"><ele>963.0</ele><time>2026-03-28T13:16:38.999Z</time></trkpt><trkpt lat="44.52859619167115" lon="9.190665990291173"><ele>967.5</ele><time>2026-03-28T13:16:39.999Z</time></trkpt><trkpt lat="44.52850685981058" lon="9.190769374977103"><ele>972.0</ele><time>2026-03-28T13:16:40.999Z</time></trkpt><trkpt lat="44.52840987110386" lon="9.19086372396778"><ele>976.5</ele><time>2026-03-28T13:16:41.999Z</time></trkpt><trkpt lat="44.52830607260618" lon="9.19094991409975"><ele>981.0</ele><time>2026-03-28T13:16:42.999Z</time></trkpt><trkpt lat="44.52819922925105" lon="9.191039273911523"><ele>981.0</ele><time>2026-03-28T13:16:43.999Z</time></trkpt><trkpt lat="44.52809375027171" lon="9.191131063236096"><ele>981.0</ele><time>2026-03-28T13:16:44.999Z</time></trkpt><trkpt lat="44.527987435267804" lon="9.191221824698484"><ele>981.0</ele><time>2026-03-28T13:16:45.999Z</time></trkpt><trkpt lat="44.52788273743842" lon="9.191307058371898"><ele>981.0</ele><time>2026-03-28T13:16:46.999Z</time></trkpt><trkpt lat="44.52778043198605" lon="9.19139484044782"><ele>982.0</ele><time>2026-03-28T13:16:47.999Z</time></trkpt><trkpt lat="44.52768033478481" lon="9.191486034132067"><ele>983.0</ele><time>2026-03-28T13:16:48.999Z</time></trkpt><trkpt lat="44.52758157557571" lon="9.191572986055059"><ele>984.0</ele><time>2026-03-28T13:16:49.999Z</time></trkpt><trkpt lat="44.52748090477194" lon="9.191659640041603"><ele>985.0</ele><time>2026-03-28T13:16:50.999Z</time></trkpt><trkpt lat="44.52738181715123" lon="9.191743238881614"><ele>985.0</ele><time>2026-03-28T13:16:51.999Z</time></trkpt><trkpt lat="44.52728558385515" lon="9.19182787290242"><ele>985.0</ele><time>2026-03-28T13:16:52.999Z</time></trkpt><trkpt lat="44.527196051330336" lon="9.191901329476506"><ele>985.0</ele><time>2026-03-28T13:16:53.999Z</time></trkpt><trkpt lat="44.52708857814857" lon="9.19190842957007"><ele>985.0</ele><time>2026-03-28T13:16:54.999Z</time></trkpt><trkpt lat="44.52698651711842" lon="9.191887968255108"><ele>985.0</ele><time>2026-03-28T13:16:55.999Z</time></trkpt><trkpt lat="44.526886902592324" lon="9.19184269149192"><ele>986.6</ele><time>2026-03-28T13:16:56.999Z</time></trkpt><trkpt lat="44.52678705127527" lon="9.191797684518086"><ele>988.2</ele><time>2026-03-28T13:16:57.999Z</time></trkpt><trkpt lat="44.526706838361704" lon="9.191717967634212"><ele>989.8</ele><time>2026-03-28T13:16:58.999Z</time></trkpt><trkpt lat="44.526644616183845" lon="9.191607120764754"><ele>991.4</ele><time>2026-03-28T13:16:59.999Z</time></trkpt><trkpt lat="44.526590401994184" lon="9.191497764175756"><ele>993.0</ele><time>2026-03-28T13:17:00.999Z</time></trkpt><trkpt lat="44.52651762554393" lon="9.191434350083586"><ele>992.5999999999999</ele><time>2026-03-28T13:17:01.999Z</time></trkpt><trkpt lat="44.52642595771442" lon="9.191407874394953"><ele>992.1999999999999</ele><time>2026-03-28T13:17:02.999Z</time></trkpt><trkpt lat="44.52632374573438" lon="9.191396098132293"><ele>991.8</ele><time>2026-03-28T13:17:03.999Z</time></trkpt><trkpt lat="44.52621748327536" lon="9.19139210154655"><ele>991.4</ele><time>2026-03-28T13:17:04.999Z</time></trkpt><trkpt lat="44.52610931992362" lon="9.19138831592447"><ele>991.0</ele><time>2026-03-28T13:17:05.999Z</time></trkpt><trkpt lat="44.526007929833305" lon="9.19135737834906"><ele>991.0</ele><time>2026-03-28T13:17:06.999Z</time></trkpt><trkpt lat="44.52592212366197" lon="9.191328808842892"><ele>990.9999999999999</ele><time>2026-03-28T13:17:07.999Z</time></trkpt><trkpt lat="44.52583208223466" lon="9.191285398143535"><ele>990.9999999999999</ele><time>2026-03-28T13:17:08.999Z</time></trkpt><trkpt lat="44.52575789017148" lon="9.191175685729046"><ele>991.0</ele><time>2026-03-28T13:17:09.999Z</time></trkpt><trkpt lat="44.52568200201049" lon="9.191060743473813"><ele>991.0</ele><time>2026-03-28T13:17:10.999Z</time></trkpt><trkpt lat="44.52558230881841" lon="9.190964064245842"><ele>991.0</ele><time>2026-03-28T13:17:11.999Z</time></trkpt><trkpt lat="44.52547363620535" lon="9.19088615478027"><ele>991.0</ele><time>2026-03-28T13:17:12.999Z</time></trkpt><trkpt lat="44.525361709482844" lon="9.190791267564654"><ele>991.0</ele><time>2026-03-28T13:17:13.999Z</time></trkpt><trkpt lat="44.525243301855085" lon="9.190695712075234"><ele>991.0</ele><time>2026-03-28T13:17:14.999Z</time></trkpt><trkpt lat="44.52512505040185" lon="9.190594510548431"><ele>993.5</ele><time>2026-03-28T13:17:15.999Z</time></trkpt><trkpt lat="44.52500597627838" lon="9.190491774049068"><ele>996.0</ele><time>2026-03-28T13:17:16.999Z</time></trkpt><trkpt lat="44.524890634811165" lon="9.190392887054907"><ele>998.5</ele><time>2026-03-28T13:17:17.999Z</time></trkpt><trkpt lat="44.524795309233475" lon="9.190298916863425"><ele>1001.0</ele><time>2026-03-28T13:17:18.999Z</time></trkpt><trkpt lat="44.52472215653374" lon="9.190199709386437"><ele>1001.0</ele><time>2026-03-28T13:17:19.999Z</time></trkpt><trkpt lat="44.52468486741171" lon="9.190080955618383"><ele>1000.9999999999999</ele><time>2026-03-28T13:17:20.999Z</time></trkpt><trkpt lat="44.524665987666495" lon="9.189936178254197"><ele>1000.9999999999999</ele><time>2026-03-28T13:17:21.999Z</time></trkpt><trkpt lat="44.52463215005647" lon="9.189795088155797"><ele>1001.0</ele><time>2026-03-28T13:17:22.999Z</time></trkpt><trkpt lat="44.52455550778993" lon="9.189686692684468"><ele>1001.0</ele><time>2026-03-28T13:17:23.999Z</time></trkpt><trkpt lat="44.524457858262735" lon="9.189597016566431"><ele>1003.25</ele><time>2026-03-28T13:17:24.999Z</time></trkpt><trkpt lat="44.524360003130475" lon="9.189505393243085"><ele>1005.5</ele><time>2026-03-28T13:17:25.999Z</time></trkpt><trkpt lat="44.52426354723349" lon="9.189403849130636"><ele>1007.75</ele><time>2026-03-28T13:17:26.999Z</time></trkpt><trkpt lat="44.52416207538674" lon="9.189307796264728"><ele>1010.0</ele><time>2026-03-28T13:17:27.999Z</time></trkpt><trkpt lat="44.524058460204394" lon="9.189212192257889"><ele>1010.0</ele><time>2026-03-28T13:17:28.999Z</time></trkpt><trkpt lat="44.52395648651298" lon="9.189120245328658"><ele>1010.0</ele><time>2026-03-28T13:17:29.999Z</time></trkpt><trkpt lat="44.52386276382184" lon="9.189042944024104"><ele>1010.0</ele><time>2026-03-28T13:17:30.999Z</time></trkpt><trkpt lat="44.52378794909426" lon="9.188962780691618"><ele>1010.0</ele><time>2026-03-28T13:17:31.999Z</time></trkpt><trkpt lat="44.523717770801085" lon="9.188867388081034"><ele>1010.0</ele><time>2026-03-28T13:17:32.999Z</time></trkpt><trkpt lat="44.523631839033506" lon="9.18879922732236"><ele>1011.6</ele><time>2026-03-28T13:17:33.999Z</time></trkpt><trkpt lat="44.523551204686754" lon="9.188702874166935"><ele>1013.2</ele><time>2026-03-28T13:17:35Z</time></trkpt><trkpt lat="44.52347249628794" lon="9.1886331214099"><ele>1014.8</ele><time>2026-03-28T13:17:36Z</time></trkpt><trkpt lat="44.523380197390374" lon="9.188585662321398"><ele>1016.4</ele><time>2026-03-28T13:17:37Z</time></trkpt><trkpt lat="44.52327855266329" lon="9.18854208900374"><ele>1018.0</ele><time>2026-03-28T13:17:38Z</time></trkpt><trkpt lat="44.52317090184593" lon="9.188535594272295"><ele>1018.0</ele><time>2026-03-28T13:17:39Z</time></trkpt><trkpt lat="44.523062911706994" lon="9.18851498940755"><ele>1018.0</ele><time>2026-03-28T13:17:40Z</time></trkpt><trkpt lat="44.52296001363092" lon="9.18847309257762"><ele>1018.0</ele><time>2026-03-28T13:17:41Z</time></trkpt><trkpt lat="44.52287934582782" lon="9.188369110066516"><ele>1018.0</ele><time>2026-03-28T13:17:42Z</time></trkpt><trkpt lat="44.52280013738796" lon="9.188252944828962"><ele>1018.0</ele><time>2026-03-28T13:17:43Z</time></trkpt><trkpt lat="44.522732483103944" lon="9.188115458696384"><ele>1020.75</ele><time>2026-03-28T13:17:44Z</time></trkpt><trkpt lat="44.522678082406394" lon="9.187959769811512"><ele>1023.5</ele><time>2026-03-28T13:17:45Z</time></trkpt><trkpt lat="44.522623882572525" lon="9.187808070914071"><ele>1026.25</ele><time>2026-03-28T13:17:46Z</time></trkpt><trkpt lat="44.522562798201996" lon="9.187666743829878"><ele>1029.0</ele><time>2026-03-28T13:17:47Z</time></trkpt><trkpt lat="44.52249051261607" lon="9.18754403442946"><ele>1029.0</ele><time>2026-03-28T13:17:48Z</time></trkpt><trkpt lat="44.52240139988215" lon="9.18745390773873"><ele>1029.0</ele><time>2026-03-28T13:17:49Z</time></trkpt><trkpt lat="44.52231217195053" lon="9.187378589801803"><ele>1029.0</ele><time>2026-03-28T13:17:50Z</time></trkpt><trkpt lat="44.52224212773827" lon="9.18728534221744"><ele>1029.0</ele><time>2026-03-28T13:17:51Z</time></trkpt><trkpt lat="44.52219229427395" lon="9.187173170033757"><ele>1029.0</ele><time>2026-03-28T13:17:52Z</time></trkpt><trkpt lat="44.52217882071128" lon="9.18705102018187"><ele>1028.8333333333333</ele><time>2026-03-28T13:17:53Z</time></trkpt><trkpt lat="44.52219224710679" lon="9.18695080383575"><ele>1028.6666666666667</ele><time>2026-03-28T13:17:54Z</time></trkpt><trkpt lat="44.52221369908009" lon="9.186865190664024"><ele>1028.5</ele><time>2026-03-28T13:17:55Z</time></trkpt><trkpt lat="44.52228159567793" lon="9.186719128232738"><ele>1028.3333333333335</ele><time>2026-03-28T13:17:57Z</time></trkpt><trkpt lat="44.52232198668471" lon="9.186630135464332"><ele>1028.1666666666667</ele><time>2026-03-28T13:17:58Z</time></trkpt><trkpt lat="44.52237375059572" lon="9.186547102818375"><ele>1028.0</ele><time>2026-03-28T13:17:59Z</time></trkpt><trkpt lat="44.522427626214565" lon="9.186449901711935"><ele>1027.6</ele><time>2026-03-28T13:18:00Z</time></trkpt><trkpt lat="44.52247793814027" lon="9.18633829782982"><ele>1027.1999999999998</ele><time>2026-03-28T13:18:01Z</time></trkpt><trkpt lat="44.52252648793546" lon="9.18621755239082"><ele>1026.8</ele><time>2026-03-28T13:18:02Z</time></trkpt><trkpt lat="44.52258222432" lon="9.186095086676254"><ele>1026.3999999999999</ele><time>2026-03-28T13:18:03Z</time></trkpt><trkpt lat="44.5226478416633" lon="9.185973342996801"><ele>1026.0</ele><time>2026-03-28T13:18:04Z</time></trkpt><trkpt lat="44.52269402100006" lon="9.18582859193603"><ele>1026.8</ele><time>2026-03-28T13:18:05Z</time></trkpt><trkpt lat="44.522703854694" lon="9.185675164843886"><ele>1027.6</ele><time>2026-03-28T13:18:06Z</time></trkpt><trkpt lat="44.52272759636441" lon="9.185524913451204"><ele>1028.4</ele><time>2026-03-28T13:18:07Z</time></trkpt><trkpt lat="44.52277982304744" lon="9.185391863602117"><ele>1029.2</ele><time>2026-03-28T13:18:08Z</time></trkpt><trkpt lat="44.52279915419501" lon="9.185268500826764"><ele>1030.0</ele><time>2026-03-28T13:18:09Z</time></trkpt><trkpt lat="44.522769443161096" lon="9.185130228751397"><ele>1030.0</ele><time>2026-03-28T13:18:10Z</time></trkpt><trkpt lat="44.52271691946588" lon="9.185001019851809"><ele>1030.0</ele><time>2026-03-28T13:18:11Z</time></trkpt><trkpt lat="44.52269133285199" lon="9.184862185482158"><ele>1030.0</ele><time>2026-03-28T13:18:12Z</time></trkpt><trkpt lat="44.52269974774087" lon="9.184709469737557"><ele>1030.0</ele><time>2026-03-28T13:18:13Z</time></trkpt><trkpt lat="44.522688392454235" lon="9.184582835441987"><ele>1030.0</ele><time>2026-03-28T13:18:14Z</time></trkpt><trkpt lat="44.52263445257376" lon="9.184493485928162"><ele>1033.8</ele><time>2026-03-28T13:18:15Z</time></trkpt><trkpt lat="44.52256464730479" lon="9.184402509573133"><ele>1037.6</ele><time>2026-03-28T13:18:16Z</time></trkpt><trkpt lat="44.52245603161005" lon="9.184395544800578"><ele>1041.4</ele><time>2026-03-28T13:18:17Z</time></trkpt><trkpt lat="44.52236251902144" lon="9.184376487949494"><ele>1045.2</ele><time>2026-03-28T13:18:18Z</time></trkpt><trkpt lat="44.522276530578154" lon="9.18433736889166"><ele>1049.0</ele><time>2026-03-28T13:18:19Z</time></trkpt><trkpt lat="44.52218718275659" lon="9.184280136275323"><ele>1049.0</ele><time>2026-03-28T13:18:20Z</time></trkpt><trkpt lat="44.522124074068884" lon="9.184152580783524"><ele>1049.0</ele><time>2026-03-28T13:18:21Z</time></trkpt><trkpt lat="44.52207884879044" lon="9.184005925977987"><ele>1049.0</ele><time>2026-03-28T13:18:22Z</time></trkpt><trkpt lat="44.52205557037686" lon="9.183846202377119"><ele>1049.0</ele><time>2026-03-28T13:18:23Z</time></trkpt><trkpt lat="44.52204316521019" lon="9.183677452455765"><ele>1047.8</ele><time>2026-03-28T13:18:24Z</time></trkpt><trkpt lat="44.52203810277646" lon="9.183522075762207"><ele>1046.6000000000001</ele><time>2026-03-28T13:18:25Z</time></trkpt><trkpt lat="44.522013669572466" lon="9.183391420642353"><ele>1045.4</ele><time>2026-03-28T13:18:26Z</time></trkpt><trkpt lat="44.5219537038624" lon="9.183305128193451"><ele>1044.2</ele><time>2026-03-28T13:18:27Z</time></trkpt><trkpt lat="44.52186777260614" lon="9.183262362508845"><ele>1043.0</ele><time>2026-03-28T13:18:28Z</time></trkpt><trkpt lat="44.521774990054524" lon="9.183214209250249"><ele>1048.2</ele><time>2026-03-28T13:18:29Z</time></trkpt><trkpt lat="44.521677063606795" lon="9.183166930677379"><ele>1053.4</ele><time>2026-03-28T13:18:30Z</time></trkpt><trkpt lat="44.521598590967166" lon="9.183064369174035"><ele>1058.6000000000001</ele><time>2026-03-28T13:18:31Z</time></trkpt><trkpt lat="44.52151710771708" lon="9.182948287896325"><ele>1063.8</ele><time>2026-03-28T13:18:31.999Z</time></trkpt><trkpt lat="44.52143073357681" lon="9.182835451092487"><ele>1069.0</ele><time>2026-03-28T13:18:32.999Z</time></trkpt><trkpt lat="44.52133212489454" lon="9.182732973188934"><ele>1069.0</ele><time>2026-03-28T13:18:33.999Z</time></trkpt><trkpt lat="44.521237087797374" lon="9.182642529254982"><ele>1069.0</ele><time>2026-03-28T13:18:34.999Z</time></trkpt><trkpt lat="44.52115488389848" lon="9.182553255333142"><ele>1069.0</ele><time>2026-03-28T13:18:35.999Z</time></trkpt><trkpt lat="44.52109223034377" lon="9.182428021605237"><ele>1069.0</ele><time>2026-03-28T13:18:36.999Z</time></trkpt><trkpt lat="44.5210550338003" lon="9.182283572686558"><ele>1069.0</ele><time>2026-03-28T13:18:37.999Z</time></trkpt><trkpt lat="44.52100555044101" lon="9.182138006633814"><ele>1067.0</ele><time>2026-03-28T13:18:38.999Z</time></trkpt><trkpt lat="44.52094584784873" lon="9.18199475038305"><ele>1065.0</ele><time>2026-03-28T13:18:39.999Z</time></trkpt><trkpt lat="44.52088318968802" lon="9.181849229698354"><ele>1063.0</ele><time>2026-03-28T13:18:40.999Z</time></trkpt><trkpt lat="44.52081266172898" lon="9.181708297511845"><ele>1061.0</ele><time>2026-03-28T13:18:41.999Z</time></trkpt><trkpt lat="44.520736380984054" lon="9.18157871220949"><ele>1060.8</ele><time>2026-03-28T13:18:42.999Z</time></trkpt><trkpt lat="44.52066835897346" lon="9.181472446568756"><ele>1060.6</ele><time>2026-03-28T13:18:43.999Z</time></trkpt><trkpt lat="44.52061296228651" lon="9.181373207972777"><ele>1060.4</ele><time>2026-03-28T13:18:44.999Z</time></trkpt><trkpt lat="44.520582116529944" lon="9.181266232191389"><ele>1060.2</ele><time>2026-03-28T13:18:45.999Z</time></trkpt><trkpt lat="44.520563318605916" lon="9.181146509242055"><ele>1060.0</ele><time>2026-03-28T13:18:46.999Z</time></trkpt><trkpt lat="44.52058932675271" lon="9.181013208692264"><ele>1060.0</ele><time>2026-03-28T13:18:47.999Z</time></trkpt><trkpt lat="44.52063968143374" lon="9.180919106682733"><ele>1060.0</ele><time>2026-03-28T13:18:48.999Z</time></trkpt><trkpt lat="44.52072017027934" lon="9.180867348651983"><ele>1060.0</ele><time>2026-03-28T13:18:49.999Z</time></trkpt><trkpt lat="44.52080791874887" lon="9.180849295774332"><ele>1060.0</ele><time>2026-03-28T13:18:50.999Z</time></trkpt><trkpt lat="44.5209102708957" lon="9.180867858559996"><ele>1060.0</ele><time>2026-03-28T13:18:51.999Z</time></trkpt><trkpt lat="44.5210106086137" lon="9.180890535532905"><ele>1060.0</ele><time>2026-03-28T13:18:52.999Z</time></trkpt><trkpt lat="44.52112154747344" lon="9.180902212621383"><ele>1060.0</ele><time>2026-03-28T13:18:53.999Z</time></trkpt><trkpt lat="44.5212414538301" lon="9.180908072720419"><ele>1060.0</ele><time>2026-03-28T13:18:54.999Z</time></trkpt><trkpt lat="44.52136328320655" lon="9.180923122601877"><ele>1060.0</ele><time>2026-03-28T13:18:55.999Z</time></trkpt><trkpt lat="44.52148724444369" lon="9.180944722456578"><ele>1058.5</ele><time>2026-03-28T13:18:56.999Z</time></trkpt><trkpt lat="44.52161313256329" lon="9.180971170039097"><ele>1057.0</ele><time>2026-03-28T13:18:57.999Z</time></trkpt><trkpt lat="44.52174245060569" lon="9.18099766213115"><ele>1055.5</ele><time>2026-03-28T13:18:58.999Z</time></trkpt><trkpt lat="44.52187508828113" lon="9.181015690468179"><ele>1054.0</ele><time>2026-03-28T13:18:59.999Z</time></trkpt><trkpt lat="44.52200979222177" lon="9.181009518439836"><ele>1056.0</ele><time>2026-03-28T13:19:00.999Z</time></trkpt><trkpt lat="44.52214600539993" lon="9.180972192179775"><ele>1058.0</ele><time>2026-03-28T13:19:01.999Z</time></trkpt><trkpt lat="44.52228239810754" lon="9.180909513587423"><ele>1060.0</ele><time>2026-03-28T13:19:02.999Z</time></trkpt><trkpt lat="44.52242305585318" lon="9.18083555977474"><ele>1062.0</ele><time>2026-03-28T13:19:03.999Z</time></trkpt><trkpt lat="44.522563894614244" lon="9.180774619003484"><ele>1062.0</ele><time>2026-03-28T13:19:04.999Z</time></trkpt><trkpt lat="44.522690291930466" lon="9.180715074865134"><ele>1062.0</ele><time>2026-03-28T13:19:05.999Z</time></trkpt><trkpt lat="44.522827755130514" lon="9.180655335877342"><ele>1062.0</ele><time>2026-03-28T13:19:06.999Z</time></trkpt><trkpt lat="44.52296213866024" lon="9.180581343720549"><ele>1062.0</ele><time>2026-03-28T13:19:07.999Z</time></trkpt><trkpt lat="44.52308605747478" lon="9.18048405162323"><ele>1060.5</ele><time>2026-03-28T13:19:08.999Z</time></trkpt><trkpt lat="44.52319319819057" lon="9.180351479179699"><ele>1059.0</ele><time>2026-03-28T13:19:09.999Z</time></trkpt><trkpt lat="44.52327602826647" lon="9.180191295056812"><ele>1057.5</ele><time>2026-03-28T13:19:10.999Z</time></trkpt><trkpt lat="44.52335202019289" lon="9.180027407078894"><ele>1056.0</ele><time>2026-03-28T13:19:11.999Z</time></trkpt><trkpt lat="44.52345292993579" lon="9.179899281791764"><ele>1056.5</ele><time>2026-03-28T13:19:12.999Z</time></trkpt><trkpt lat="44.52357741601889" lon="9.179802925262628"><ele>1057.0</ele><time>2026-03-28T13:19:13.999Z</time></trkpt><trkpt lat="44.52368430924335" lon="9.179698438228629"><ele>1057.5</ele><time>2026-03-28T13:19:14.999Z</time></trkpt><trkpt lat="44.52376533871411" lon="9.179558545048737"><ele>1058.0</ele><time>2026-03-28T13:19:15.999Z</time></trkpt><trkpt lat="44.523818900062246" lon="9.179388633921256"><ele>1058.0</ele><time>2026-03-28T13:19:16.999Z</time></trkpt><trkpt lat="44.52385058461974" lon="9.179198309896321"><ele>1058.0</ele><time>2026-03-28T13:19:17.999Z</time></trkpt><trkpt lat="44.52385875308889" lon="9.179007513390262"><ele>1058.0</ele><time>2026-03-28T13:19:18.999Z</time></trkpt><trkpt lat="44.52386425460707" lon="9.17883581389706"><ele>1058.0</ele><time>2026-03-28T13:19:19.999Z</time></trkpt><trkpt lat="44.52389469621259" lon="9.178706387140773"><ele>1054.8333333333335</ele><time>2026-03-28T13:19:20.999Z</time></trkpt><trkpt lat="44.523941725994504" lon="9.178632542980118"><ele>1051.6666666666667</ele><time>2026-03-28T13:19:21.999Z</time></trkpt><trkpt lat="44.52400773025443" lon="9.17859300927372"><ele>1048.5</ele><time>2026-03-28T13:19:22.999Z</time></trkpt><trkpt lat="44.52408390350686" lon="9.178589796435407"><ele>1045.3333333333333</ele><time>2026-03-28T13:19:23.999Z</time></trkpt><trkpt lat="44.52416327110766" lon="9.178621948421872"><ele>1042.1666666666665</ele><time>2026-03-28T13:19:24.999Z</time></trkpt><trkpt lat="44.52422141825714" lon="9.178711881911516"><ele>1039.0</ele><time>2026-03-28T13:19:25.999Z</time></trkpt><trkpt lat="44.52427693177268" lon="9.178820909385767"><ele>1039.0</ele><time>2026-03-28T13:19:26.999Z</time></trkpt><trkpt lat="44.52434800939656" lon="9.178909958555083"><ele>1039.0</ele><time>2026-03-28T13:19:27.999Z</time></trkpt><trkpt lat="44.524428905965294" lon="9.17899552534598"><ele>1039.0</ele><time>2026-03-28T13:19:28.999Z</time></trkpt><trkpt lat="44.52455531686217" lon="9.178990787832024"><ele>1039.0</ele><time>2026-03-28T13:19:29.999Z</time></trkpt><trkpt lat="44.52467890548182" lon="9.178993897883206"><ele>1039.0</ele><time>2026-03-28T13:19:30.999Z</time></trkpt><trkpt lat="44.524804296674944" lon="9.178971399524498"><ele>1038.5</ele><time>2026-03-28T13:19:31.999Z</time></trkpt><trkpt lat="44.524923721363656" lon="9.178910232605695"><ele>1038.0</ele><time>2026-03-28T13:19:32.999Z</time></trkpt><trkpt lat="44.52502343611042" lon="9.178815949413778"><ele>1037.5</ele><time>2026-03-28T13:19:33.999Z</time></trkpt><trkpt lat="44.525124529427494" lon="9.178717073444943"><ele>1037.0</ele><time>2026-03-28T13:19:34.999Z</time></trkpt><trkpt lat="44.525229441894496" lon="9.178640338971233"><ele>1037.0</ele><time>2026-03-28T13:19:35.999Z</time></trkpt><trkpt lat="44.52533529834784" lon="9.17860622355973"><ele>1037.0</ele><time>2026-03-28T13:19:36.999Z</time></trkpt><trkpt lat="44.525439898467276" lon="9.178613807072951"><ele>1037.0</ele><time>2026-03-28T13:19:37.999Z</time></trkpt><trkpt lat="44.52553584991246" lon="9.178673976469513"><ele>1037.0</ele><time>2026-03-28T13:19:38.999Z</time></trkpt><trkpt lat="44.52560608878151" lon="9.178796105779762"><ele>1037.0</ele><time>2026-03-28T13:19:39.999Z</time></trkpt><trkpt lat="44.52569219778304" lon="9.178896792199474"><ele>1035.8</ele><time>2026-03-28T13:19:41Z</time></trkpt><trkpt lat="44.52575999117696" lon="9.17899914027856"><ele>1034.6</ele><time>2026-03-28T13:19:42Z</time></trkpt><trkpt lat="44.52584699703602" lon="9.179061110182703"><ele>1033.3999999999999</ele><time>2026-03-28T13:19:43Z</time></trkpt><trkpt lat="44.5259480941645" lon="9.179085383887118"><ele>1032.2</ele><time>2026-03-28T13:19:44Z</time></trkpt><trkpt lat="44.526065166538736" lon="9.179071645845582"><ele>1031.0</ele><time>2026-03-28T13:19:45Z</time></trkpt><trkpt lat="44.52617437433677" lon="9.179021191421558"><ele>1031.75</ele><time>2026-03-28T13:19:46Z</time></trkpt><trkpt lat="44.526279505798264" lon="9.178943807962522"><ele>1032.5</ele><time>2026-03-28T13:19:47Z</time></trkpt><trkpt lat="44.52638552378326" lon="9.178851577618037"><ele>1033.25</ele><time>2026-03-28T13:19:48Z</time></trkpt><trkpt lat="44.52649407553177" lon="9.178751909436176"><ele>1034.0</ele><time>2026-03-28T13:19:49Z</time></trkpt><trkpt lat="44.526605355689455" lon="9.178641984260295"><ele>1034.0</ele><time>2026-03-28T13:19:50Z</time></trkpt><trkpt lat="44.52671883214803" lon="9.17852853899317"><ele>1034.0</ele><time>2026-03-28T13:19:51Z</time></trkpt><trkpt lat="44.52683295371421" lon="9.17841412506897"><ele>1034.0</ele><time>2026-03-28T13:19:52Z</time></trkpt><trkpt lat="44.52694455139169" lon="9.17830284947173"><ele>1034.0</ele><time>2026-03-28T13:19:53Z</time></trkpt><trkpt lat="44.52705626974168" lon="9.178195025902394"><ele>1033.75</ele><time>2026-03-28T13:19:54Z</time></trkpt><trkpt lat="44.52716928511012" lon="9.178089559590424"><ele>1033.5</ele><time>2026-03-28T13:19:55Z</time></trkpt><trkpt lat="44.52727744163723" lon="9.177986513856247"><ele>1033.25</ele><time>2026-03-28T13:19:56Z</time></trkpt><trkpt lat="44.5273823375523" lon="9.177882371593757"><ele>1033.0</ele><time>2026-03-28T13:19:57Z</time></trkpt><trkpt lat="44.52748183990875" lon="9.177770247023856"><ele>1033.0</ele><time>2026-03-28T13:19:58Z</time></trkpt><trkpt lat="44.52756899826455" lon="9.177643607735897"><ele>1033.0</ele><time>2026-03-28T13:19:59Z</time></trkpt><trkpt lat="44.52764402304366" lon="9.177503614181544"><ele>1033.0</ele><time>2026-03-28T13:20:00Z</time></trkpt><trkpt lat="44.527697140937796" lon="9.177345682136512"><ele>1033.0</ele><time>2026-03-28T13:20:01Z</time></trkpt><trkpt lat="44.527738598394556" lon="9.177186196402085"><ele>1033.5</ele><time>2026-03-28T13:20:02Z</time></trkpt><trkpt lat="44.52779380298684" lon="9.177047069897627"><ele>1034.0</ele><time>2026-03-28T13:20:03Z</time></trkpt><trkpt lat="44.52786358617321" lon="9.176922744755533"><ele>1034.5</ele><time>2026-03-28T13:20:04Z</time></trkpt><trkpt lat="44.52795018080371" lon="9.176818124920251"><ele>1035.0</ele><time>2026-03-28T13:20:05Z</time></trkpt><trkpt lat="44.52805559384525" lon="9.176734627253195"><ele>1035.0</ele><time>2026-03-28T13:20:06Z</time></trkpt><trkpt lat="44.528173887631105" lon="9.176684867220047"><ele>1035.0</ele><time>2026-03-28T13:20:07Z</time></trkpt><trkpt lat="44.528291016816134" lon="9.17665149930482"><ele>1035.0</ele><time>2026-03-28T13:20:08Z</time></trkpt><trkpt lat="44.52838755977015" lon="9.176604859781815"><ele>1035.0</ele><time>2026-03-28T13:20:09Z</time></trkpt><trkpt lat="44.52845918858462" lon="9.17651786410447"><ele>1035.0</ele><time>2026-03-28T13:20:10Z</time></trkpt><trkpt lat="44.528525650529836" lon="9.176393007722705"><ele>1031.5</ele><time>2026-03-28T13:20:11Z</time></trkpt><trkpt lat="44.52859574009103" lon="9.176259357686767"><ele>1028.0</ele><time>2026-03-28T13:20:12Z</time></trkpt><trkpt lat="44.52867584067437" lon="9.17612481728271"><ele>1024.5</ele><time>2026-03-28T13:20:13Z</time></trkpt><trkpt lat="44.528760675221626" lon="9.175986847765927"><ele>1021.0</ele><time>2026-03-28T13:20:14Z</time></trkpt><trkpt lat="44.5288509253118" lon="9.175853416678454"><ele>1021.0</ele><time>2026-03-28T13:20:15Z</time></trkpt><trkpt lat="44.528934616828636" lon="9.175721174075692"><ele>1021.0</ele><time>2026-03-28T13:20:16Z</time></trkpt><trkpt lat="44.52900565897602" lon="9.175576093486391"><ele>1021.0</ele><time>2026-03-28T13:20:17Z</time></trkpt><trkpt lat="44.52907186504256" lon="9.175422285397094"><ele>1021.0</ele><time>2026-03-28T13:20:18Z</time></trkpt><trkpt lat="44.529141554714556" lon="9.175267859045562"><ele>1021.0</ele><time>2026-03-28T13:20:19Z</time></trkpt><trkpt lat="44.52921435643018" lon="9.175134693537965"><ele>1021.0</ele><time>2026-03-28T13:20:20Z</time></trkpt><trkpt lat="44.529280520512486" lon="9.174997966016692"><ele>1021.0</ele><time>2026-03-28T13:20:21Z</time></trkpt><trkpt lat="44.52929955947333" lon="9.17483313268116"><ele>1021.0</ele><time>2026-03-28T13:20:22Z</time></trkpt><trkpt lat="44.52929270812007" lon="9.174663027629796"><ele>1020.25</ele><time>2026-03-28T13:20:23Z</time></trkpt><trkpt lat="44.52925889327468" lon="9.174494417551884"><ele>1019.5</ele><time>2026-03-28T13:20:24Z</time></trkpt><trkpt lat="44.52921582648854" lon="9.174325534693375"><ele>1018.75</ele><time>2026-03-28T13:20:25Z</time></trkpt><trkpt lat="44.52917178557095" lon="9.174153148578629"><ele>1018.0</ele><time>2026-03-28T13:20:26Z</time></trkpt><trkpt lat="44.529138910832735" lon="9.173979487840715"><ele>1018.0</ele><time>2026-03-28T13:20:27Z</time></trkpt><trkpt lat="44.52912857073065" lon="9.173815689115614"><ele>1018.0</ele><time>2026-03-28T13:20:28Z</time></trkpt><trkpt lat="44.52915621947118" lon="9.17366120850753"><ele>1018.0</ele><time>2026-03-28T13:20:29Z</time></trkpt><trkpt lat="44.529207251079775" lon="9.173513502020253"><ele>1018.0</ele><time>2026-03-28T13:20:30Z</time></trkpt><trkpt lat="44.52926946154441" lon="9.173357844103869"><ele>1017.0</ele><time>2026-03-28T13:20:31Z</time></trkpt><trkpt lat="44.529330223485175" lon="9.173186896888103"><ele>1016.0</ele><time>2026-03-28T13:20:32Z</time></trkpt><trkpt lat="44.529389723849505" lon="9.173016313673843"><ele>1015.0</ele><time>2026-03-28T13:20:33Z</time></trkpt><trkpt lat="44.52944388038974" lon="9.172859999777703"><ele>1014.0</ele><time>2026-03-28T13:20:34Z</time></trkpt><trkpt lat="44.52949894925079" lon="9.17272063285938"><ele>1014.6</ele><time>2026-03-28T13:20:35Z</time></trkpt><trkpt lat="44.52956837122918" lon="9.172616426979012"><ele>1015.2</ele><time>2026-03-28T13:20:36Z</time></trkpt><trkpt lat="44.529654884177106" lon="9.172529749808886"><ele>1015.8000000000001</ele><time>2026-03-28T13:20:37Z</time></trkpt><trkpt lat="44.52975102357648" lon="9.17249825629664"><ele>1016.4000000000001</ele><time>2026-03-28T13:20:38Z</time></trkpt><trkpt lat="44.52985577679287" lon="9.172509954448179"><ele>1017.0</ele><time>2026-03-28T13:20:39Z</time></trkpt><trkpt lat="44.52996986739252" lon="9.17254183116359"><ele>1017.0</ele><time>2026-03-28T13:20:39.999Z</time></trkpt><trkpt lat="44.530071667004925" lon="9.17260815041215"><ele>1017.0</ele><time>2026-03-28T13:20:40.999Z</time></trkpt><trkpt lat="44.53016023274326" lon="9.172647028197149"><ele>1017.0</ele><time>2026-03-28T13:20:41.999Z</time></trkpt><trkpt lat="44.530260831739824" lon="9.172614501214417"><ele>1017.0</ele><time>2026-03-28T13:20:42.999Z</time></trkpt><trkpt lat="44.530339157476256" lon="9.172527017857432"><ele>1017.0</ele><time>2026-03-28T13:20:43.999Z</time></trkpt><trkpt lat="44.530391067594294" lon="9.17240518397037"><ele>1017.6</ele><time>2026-03-28T13:20:44.999Z</time></trkpt><trkpt lat="44.53042279023801" lon="9.17226113631076"><ele>1018.2</ele><time>2026-03-28T13:20:45.999Z</time></trkpt><trkpt lat="44.5304399666143" lon="9.1721073491672"><ele>1018.8</ele><time>2026-03-28T13:20:46.999Z</time></trkpt><trkpt lat="44.5304775627399" lon="9.171975679955098"><ele>1019.4</ele><time>2026-03-28T13:20:47.999Z</time></trkpt><trkpt lat="44.53054393594368" lon="9.17187980969024"><ele>1020.0</ele><time>2026-03-28T13:20:48.999Z</time></trkpt><trkpt lat="44.53063083614373" lon="9.171819317996704"><ele>1020.0</ele><time>2026-03-28T13:20:49.999Z</time></trkpt><trkpt lat="44.53071469288994" lon="9.171766284926877"><ele>1020.0</ele><time>2026-03-28T13:20:50.999Z</time></trkpt><trkpt lat="44.53078093374123" lon="9.171705252269243"><ele>1020.0</ele><time>2026-03-28T13:20:51.999Z</time></trkpt><trkpt lat="44.53083214812487" lon="9.171641850239233"><ele>1020.0</ele><time>2026-03-28T13:20:52.999Z</time></trkpt><trkpt lat="44.53090621295454" lon="9.171541189715155"><ele>1020.0</ele><time>2026-03-28T13:20:54.999Z</time></trkpt><trkpt lat="44.53095051784023" lon="9.1714768700161"><ele>1020.0</ele><time>2026-03-28T13:20:56.999Z</time></trkpt><trkpt lat="44.53100823347093" lon="9.171368399757672"><ele>1021.8333333333334</ele><time>2026-03-28T13:21:06.999Z</time></trkpt><trkpt lat="44.53104211065019" lon="9.171287240700318"><ele>1023.6666666666667</ele><time>2026-03-28T13:21:07.999Z</time></trkpt><trkpt lat="44.53107978616112" lon="9.171201014398141"><ele>1025.5</ele><time>2026-03-28T13:21:08.999Z</time></trkpt><trkpt lat="44.53112420018265" lon="9.171107082684546"><ele>1027.3333333333335</ele><time>2026-03-28T13:21:09.999Z</time></trkpt><trkpt lat="44.53117718187011" lon="9.171021428424782"><ele>1029.1666666666667</ele><time>2026-03-28T13:21:10.999Z</time></trkpt><trkpt lat="44.5312282892508" lon="9.170937577137092"><ele>1031.0</ele><time>2026-03-28T13:21:11.999Z</time></trkpt><trkpt lat="44.531276280287166" lon="9.170856289763744"><ele>1031.0</ele><time>2026-03-28T13:21:12.999Z</time></trkpt><trkpt lat="44.53132335904372" lon="9.170776769106409"><ele>1031.0</ele><time>2026-03-28T13:21:13.999Z</time></trkpt><trkpt lat="44.53137511824908" lon="9.170701849810248"><ele>1031.0</ele><time>2026-03-28T13:21:14.999Z</time></trkpt><trkpt lat="44.531438711722615" lon="9.170623482682307"><ele>1031.0</ele><time>2026-03-28T13:21:15.999Z</time></trkpt><trkpt lat="44.53150382933908" lon="9.170558521102162"><ele>1031.0</ele><time>2026-03-28T13:21:16.999Z</time></trkpt><trkpt lat="44.53157533632929" lon="9.170514658092564"><ele>1031.0</ele><time>2026-03-28T13:21:17.999Z</time></trkpt><trkpt lat="44.53165922544111" lon="9.17047300543121"><ele>1025.6666666666667</ele><time>2026-03-28T13:21:18.999Z</time></trkpt><trkpt lat="44.53173765887094" lon="9.170431523312532"><ele>1020.3333333333334</ele><time>2026-03-28T13:21:19.999Z</time></trkpt><trkpt lat="44.53181323540665" lon="9.170379991018597"><ele>1015.0</ele><time>2026-03-28T13:21:20.999Z</time></trkpt><trkpt lat="44.5318851699968" lon="9.170301300532373"><ele>1009.6666666666667</ele><time>2026-03-28T13:21:21.999Z</time></trkpt><trkpt lat="44.53194343922043" lon="9.170199573407128"><ele>1004.3333333333334</ele><time>2026-03-28T13:21:22.999Z</time></trkpt><trkpt lat="44.531987321254114" lon="9.170085113738638"><ele>999.0</ele><time>2026-03-28T13:21:23.999Z</time></trkpt><trkpt lat="44.53201150651183" lon="9.169947119970157"><ele>999.8000000000001</ele><time>2026-03-28T13:21:24.999Z</time></trkpt><trkpt lat="44.53204096496598" lon="9.169813881116802"><ele>1000.6000000000001</ele><time>2026-03-28T13:21:25.999Z</time></trkpt><trkpt lat="44.53209943917897" lon="9.169698673368051"><ele>1001.4</ele><time>2026-03-28T13:21:26.999Z</time></trkpt><trkpt lat="44.53218031394748" lon="9.169622177618779"><ele>1002.2</ele><time>2026-03-28T13:21:27.999Z</time></trkpt><trkpt lat="44.532262961880235" lon="9.169569270131804"><ele>1003.0</ele><time>2026-03-28T13:21:28.999Z</time></trkpt><trkpt lat="44.53235584174882" lon="9.169532855382082"><ele>1002.9999999999999</ele><time>2026-03-28T13:21:29.999Z</time></trkpt><trkpt lat="44.5324486831267" lon="9.169503920235652"><ele>1003.0</ele><time>2026-03-28T13:21:30.999Z</time></trkpt><trkpt lat="44.532520072671275" lon="9.169455904628206"><ele>1003.0</ele><time>2026-03-28T13:21:31.999Z</time></trkpt><trkpt lat="44.53257634898077" lon="9.1693822161857"><ele>1003.0</ele><time>2026-03-28T13:21:32.999Z</time></trkpt><trkpt lat="44.532609933513385" lon="9.169280817397597"><ele>1002.9999999999999</ele><time>2026-03-28T13:21:33.999Z</time></trkpt><trkpt lat="44.53263176486921" lon="9.169154078006184"><ele>1003.0</ele><time>2026-03-28T13:21:34.999Z</time></trkpt><trkpt lat="44.53268073386621" lon="9.169051046526384"><ele>1002.8</ele><time>2026-03-28T13:21:35.999Z</time></trkpt><trkpt lat="44.53274611558519" lon="9.168999847761626"><ele>1002.5999999999999</ele><time>2026-03-28T13:21:36.999Z</time></trkpt><trkpt lat="44.53282976996151" lon="9.168972618791168"><ele>1002.4000000000001</ele><time>2026-03-28T13:21:37.999Z</time></trkpt><trkpt lat="44.53292623733253" lon="9.168959952352404"><ele>1002.2</ele><time>2026-03-28T13:21:38.999Z</time></trkpt><trkpt lat="44.533029914398675" lon="9.16894841330132"><ele>1002.0</ele><time>2026-03-28T13:21:39.999Z</time></trkpt><trkpt lat="44.53313909370043" lon="9.168917680982577"><ele>1002.0</ele><time>2026-03-28T13:21:40.999Z</time></trkpt><trkpt lat="44.533250165546846" lon="9.168873082995969"><ele>1002.0</ele><time>2026-03-28T13:21:41.999Z</time></trkpt><trkpt lat="44.53335934777031" lon="9.168832592021763"><ele>1002.0</ele><time>2026-03-28T13:21:42.999Z</time></trkpt><trkpt lat="44.53344142874662" lon="9.168802496626952"><ele>1002.0</ele><time>2026-03-28T13:21:43.999Z</time></trkpt><trkpt lat="44.53350106069434" lon="9.168758403281515"><ele>1002.0</ele><time>2026-03-28T13:21:44.999Z</time></trkpt><trkpt lat="44.53354193900153" lon="9.168665946971513"><ele>1002.0</ele><time>2026-03-28T13:21:45.999Z</time></trkpt><trkpt lat="44.53355148993408" lon="9.168542392947302"><ele>1002.0</ele><time>2026-03-28T13:21:47Z</time></trkpt><trkpt lat="44.53352251091307" lon="9.168413574972822"><ele>1002.0</ele><time>2026-03-28T13:21:48Z</time></trkpt><trkpt lat="44.53345865570495" lon="9.168300474808893"><ele>1002.0</ele><time>2026-03-28T13:21:49Z</time></trkpt><trkpt lat="44.53336694157233" lon="9.16821232949449"><ele>1002.0</ele><time>2026-03-28T13:21:50Z</time></trkpt><trkpt lat="44.53325626490227" lon="9.168150638748791"><ele>1003.4000000000001</ele><time>2026-03-28T13:21:51Z</time></trkpt><trkpt lat="44.53315381052721" lon="9.168068213933061"><ele>1004.8000000000001</ele><time>2026-03-28T13:21:52Z</time></trkpt><trkpt lat="44.5330559498572" lon="9.168012624771926"><ele>1006.2</ele><time>2026-03-28T13:21:53Z</time></trkpt><trkpt lat="44.53297493465023" lon="9.167922683722232"><ele>1007.6</ele><time>2026-03-28T13:21:54Z</time></trkpt><trkpt lat="44.532891136762274" lon="9.167808546341425"><ele>1009.0</ele><time>2026-03-28T13:21:55Z</time></trkpt><trkpt lat="44.53280831111735" lon="9.167672193553175"><ele>1004.5</ele><time>2026-03-28T13:21:56Z</time></trkpt><trkpt lat="44.53273015082428" lon="9.167520585432529"><ele>1000.0</ele><time>2026-03-28T13:21:57Z</time></trkpt><trkpt lat="44.53266781143301" lon="9.167350933170201"><ele>995.5</ele><time>2026-03-28T13:21:58Z</time></trkpt><trkpt lat="44.53262409422757" lon="9.167171101886476"><ele>991.0</ele><time>2026-03-28T13:21:59Z</time></trkpt><trkpt lat="44.53259007074394" lon="9.166989151585016"><ele>991.0</ele><time>2026-03-28T13:22:00Z</time></trkpt><trkpt lat="44.5325616355491" lon="9.166789617148824"><ele>991.0</ele><time>2026-03-28T13:22:01Z</time></trkpt><trkpt lat="44.53254350903156" lon="9.166576263856738"><ele>991.0</ele><time>2026-03-28T13:22:02Z</time></trkpt><trkpt lat="44.53253170710793" lon="9.166373618706134"><ele>991.0</ele><time>2026-03-28T13:22:03Z</time></trkpt><trkpt lat="44.53252290834632" lon="9.166178075941547"><ele>992.0</ele><time>2026-03-28T13:22:04Z</time></trkpt><trkpt lat="44.53252354026534" lon="9.16599495611766"><ele>992.9999999999999</ele><time>2026-03-28T13:22:05Z</time></trkpt><trkpt lat="44.532518291236634" lon="9.165859816002435"><ele>993.9999999999999</ele><time>2026-03-28T13:22:06Z</time></trkpt><trkpt lat="44.53249403916209" lon="9.165743065483241"><ele>995.0</ele><time>2026-03-28T13:22:07Z</time></trkpt><trkpt lat="44.53243728951166" lon="9.165640822647413"><ele>996.0</ele><time>2026-03-28T13:22:08Z</time></trkpt><trkpt lat="44.53235383256873" lon="9.16555665923334"><ele>995.0</ele><time>2026-03-28T13:22:09Z</time></trkpt><trkpt lat="44.53226762343504" lon="9.165515083462383"><ele>993.9999999999999</ele><time>2026-03-28T13:22:10Z</time></trkpt><trkpt lat="44.53219315560347" lon="9.165510575789902"><ele>992.9999999999999</ele><time>2026-03-28T13:22:11Z</time></trkpt><trkpt lat="44.53211162512995" lon="9.16557741483806"><ele>992.0</ele><time>2026-03-28T13:22:12Z</time></trkpt><trkpt lat="44.53203082784991" lon="9.165661199385426"><ele>991.0</ele><time>2026-03-28T13:22:13Z</time></trkpt><trkpt lat="44.531944211235846" lon="9.165750392909219"><ele>991.0</ele><time>2026-03-28T13:22:14Z</time></trkpt><trkpt lat="44.53185564381314" lon="9.165835908321485"><ele>991.0</ele><time>2026-03-28T13:22:15Z</time></trkpt><trkpt lat="44.531754559053795" lon="9.165928795418166"><ele>991.0</ele><time>2026-03-28T13:22:16Z</time></trkpt><trkpt lat="44.5316497559515" lon="9.166026408455188"><ele>991.0</ele><time>2026-03-28T13:22:17Z</time></trkpt><trkpt lat="44.53155827038473" lon="9.166137596791817"><ele>990.9999999999999</ele><time>2026-03-28T13:22:18Z</time></trkpt><trkpt lat="44.5314861084303" lon="9.166278988493174"><ele>991.0</ele><time>2026-03-28T13:22:19Z</time></trkpt><trkpt lat="44.53142662265342" lon="9.166370951319431"><ele>991.0</ele><time>2026-03-28T13:22:20Z</time></trkpt><trkpt lat="44.53135466433831" lon="9.166437502319711"><ele>991.0</ele><time>2026-03-28T13:22:21Z</time></trkpt><trkpt lat="44.531272023804725" lon="9.166439798348431"><ele>990.9999999999999</ele><time>2026-03-28T13:22:22Z</time></trkpt><trkpt lat="44.53121594072787" lon="9.166388552927245"><ele>991.0</ele><time>2026-03-28T13:22:23Z</time></trkpt><trkpt lat="44.531156582400016" lon="9.166336596711531"><ele>990.5999999999999</ele><time>2026-03-28T13:22:24Z</time></trkpt><trkpt lat="44.53107758799119" lon="9.166292391224864"><ele>990.1999999999999</ele><time>2026-03-28T13:22:25Z</time></trkpt><trkpt lat="44.53099994436765" lon="9.166229184686232"><ele>989.8000000000001</ele><time>2026-03-28T13:22:26Z</time></trkpt><trkpt lat="44.53091126502684" lon="9.166190572649619"><ele>989.4000000000001</ele><time>2026-03-28T13:22:27Z</time></trkpt><trkpt lat="44.53082042122663" lon="9.166188031997052"><ele>989.0</ele><time>2026-03-28T13:22:28Z</time></trkpt><trkpt lat="44.53071649632959" lon="9.166186109212823"><ele>989.0</ele><time>2026-03-28T13:22:29Z</time></trkpt><trkpt lat="44.53060296878622" lon="9.166155420327062"><ele>989.0</ele><time>2026-03-28T13:22:30Z</time></trkpt><trkpt lat="44.53048594580173" lon="9.166167907026102"><ele>989.0</ele><time>2026-03-28T13:22:31Z</time></trkpt><trkpt lat="44.530374433152524" lon="9.16612491686376"><ele>989.0</ele><time>2026-03-28T13:22:32Z</time></trkpt><trkpt lat="44.530270277858826" lon="9.16604462544671"><ele>991.75</ele><time>2026-03-28T13:22:33Z</time></trkpt><trkpt lat="44.53016311495661" lon="9.16594912662612"><ele>994.5</ele><time>2026-03-28T13:22:34Z</time></trkpt><trkpt lat="44.530050987246156" lon="9.165848305662555"><ele>997.25</ele><time>2026-03-28T13:22:35Z</time></trkpt><trkpt lat="44.5299331945362" lon="9.165749778755174"><ele>1000.0</ele><time>2026-03-28T13:22:36Z</time></trkpt><trkpt lat="44.52981058364739" lon="9.165650285942144"><ele>1000.0</ele><time>2026-03-28T13:22:37Z</time></trkpt><trkpt lat="44.52968588454146" lon="9.165549018965601"><ele>1000.0</ele><time>2026-03-28T13:22:38Z</time></trkpt><trkpt lat="44.529564064712666" lon="9.165444646633974"><ele>1000.0</ele><time>2026-03-28T13:22:39Z</time></trkpt><trkpt lat="44.52944875758829" lon="9.165350740815725"><ele>1000.0</ele><time>2026-03-28T13:22:40Z</time></trkpt><trkpt lat="44.529335406867986" lon="9.165296922101188"><ele>996.4</ele><time>2026-03-28T13:22:41Z</time></trkpt><trkpt lat="44.52924142541795" lon="9.16526232903196"><ele>992.8</ele><time>2026-03-28T13:22:42Z</time></trkpt><trkpt lat="44.52914298962392" lon="9.16531099535255"><ele>989.2</ele><time>2026-03-28T13:22:43Z</time></trkpt><trkpt lat="44.52906764553547" lon="9.165427146734231"><ele>985.6</ele><time>2026-03-28T13:22:43.999Z</time></trkpt><trkpt lat="44.528997756918685" lon="9.165518960414285"><ele>982.0</ele><time>2026-03-28T13:22:44.999Z</time></trkpt><trkpt lat="44.52892660492117" lon="9.16558655955065"><ele>981.9999999999999</ele><time>2026-03-28T13:22:45.999Z</time></trkpt><trkpt lat="44.52886212404788" lon="9.165623579853188"><ele>982.0</ele><time>2026-03-28T13:22:46.999Z</time></trkpt><trkpt lat="44.52878521446052" lon="9.165644497287994"><ele>982.0</ele><time>2026-03-28T13:22:47.999Z</time></trkpt><trkpt lat="44.5287031515669" lon="9.165593807152025"><ele>982.0</ele><time>2026-03-28T13:22:48.999Z</time></trkpt><trkpt lat="44.52863659213286" lon="9.16550404547783"><ele>981.9999999999999</ele><time>2026-03-28T13:22:49.999Z</time></trkpt><trkpt lat="44.52857782592076" lon="9.165386905034497"><ele>982.0</ele><time>2026-03-28T13:22:50.999Z</time></trkpt><trkpt lat="44.528523392875115" lon="9.165248246018898"><ele>979.5</ele><time>2026-03-28T13:22:51.999Z</time></trkpt><trkpt lat="44.52847317940828" lon="9.165091586791728"><ele>977.0</ele><time>2026-03-28T13:22:52.999Z</time></trkpt><trkpt lat="44.52841999572224" lon="9.16492962554359"><ele>974.5</ele><time>2026-03-28T13:22:53.999Z</time></trkpt><trkpt lat="44.528347656018084" lon="9.164772874588975"><ele>972.0</ele><time>2026-03-28T13:22:54.999Z</time></trkpt><trkpt lat="44.52825926173393" lon="9.16462297784629"><ele>972.0</ele><time>2026-03-28T13:22:55.999Z</time></trkpt><trkpt lat="44.52816107802188" lon="9.164489496398867"><ele>972.0</ele><time>2026-03-28T13:22:56.999Z</time></trkpt><trkpt lat="44.52804464713452" lon="9.164392847170454"><ele>972.0</ele><time>2026-03-28T13:22:57.999Z</time></trkpt><trkpt lat="44.52790842578513" lon="9.16434671263112"><ele>972.0</ele><time>2026-03-28T13:22:58.999Z</time></trkpt><trkpt lat="44.52776158524664" lon="9.164339675950503"><ele>966.75</ele><time>2026-03-28T13:22:59.999Z</time></trkpt><trkpt lat="44.52762588808674" lon="9.16431473551131"><ele>961.5</ele><time>2026-03-28T13:23:00.999Z</time></trkpt><trkpt lat="44.527504829844894" lon="9.164320479212968"><ele>956.25</ele><time>2026-03-28T13:23:01.999Z</time></trkpt><trkpt lat="44.52739994536986" lon="9.164249647768656"><ele>951.0</ele><time>2026-03-28T13:23:02.999Z</time></trkpt><trkpt lat="44.52732612340484" lon="9.164136970815065"><ele>951.5</ele><time>2026-03-28T13:23:03.999Z</time></trkpt><trkpt lat="44.527293631786634" lon="9.163990238091646"><ele>952.0</ele><time>2026-03-28T13:23:04.999Z</time></trkpt><trkpt lat="44.527291149090885" lon="9.163826724754546"><ele>952.5</ele><time>2026-03-28T13:23:05.999Z</time></trkpt><trkpt lat="44.52728283878454" lon="9.163654750060036"><ele>953.0</ele><time>2026-03-28T13:23:06.999Z</time></trkpt><trkpt lat="44.52727310972464" lon="9.16347030513731"><ele>953.0</ele><time>2026-03-28T13:23:07.999Z</time></trkpt><trkpt lat="44.527270767420326" lon="9.163287736711872"><ele>953.0</ele><time>2026-03-28T13:23:08.999Z</time></trkpt><trkpt lat="44.527284997641765" lon="9.163098220189285"><ele>953.0</ele><time>2026-03-28T13:23:09.999Z</time></trkpt><trkpt lat="44.52731564124433" lon="9.16290279442883"><ele>953.0</ele><time>2026-03-28T13:23:10.999Z</time></trkpt><trkpt lat="44.52735276198847" lon="9.162704726954551"><ele>951.75</ele><time>2026-03-28T13:23:11.999Z</time></trkpt><trkpt lat="44.52738904215589" lon="9.162509109309724"><ele>950.5</ele><time>2026-03-28T13:23:12.999Z</time></trkpt><trkpt lat="44.52742747971343" lon="9.162324043995618"><ele>949.25</ele><time>2026-03-28T13:23:13.999Z</time></trkpt><trkpt lat="44.527466971103216" lon="9.162146580379245"><ele>948.0</ele><time>2026-03-28T13:23:14.999Z</time></trkpt><trkpt lat="44.52749804784936" lon="9.16199700069407"><ele>947.8</ele><time>2026-03-28T13:23:15.999Z</time></trkpt><trkpt lat="44.52749400128037" lon="9.16187870249497"><ele>947.5999999999999</ele><time>2026-03-28T13:23:16.999Z</time></trkpt><trkpt lat="44.527453315260466" lon="9.161778791314564"><ele>947.4000000000001</ele><time>2026-03-28T13:23:17.999Z</time></trkpt><trkpt lat="44.52737526705571" lon="9.161708896350033"><ele>947.2</ele><time>2026-03-28T13:23:18.999Z</time></trkpt><trkpt lat="44.52728804959498" lon="9.161641254978845"><ele>947.0</ele><time>2026-03-28T13:23:19.999Z</time></trkpt><trkpt lat="44.527212252048706" lon="9.161536261477886"><ele>947.75</ele><time>2026-03-28T13:23:20.999Z</time></trkpt><trkpt lat="44.52717506166491" lon="9.16139956304191"><ele>948.5</ele><time>2026-03-28T13:23:21.999Z</time></trkpt><trkpt lat="44.52717457053659" lon="9.161248935119605"><ele>949.25</ele><time>2026-03-28T13:23:22.999Z</time></trkpt><trkpt lat="44.527147517161566" lon="9.161090458773709"><ele>950.0</ele><time>2026-03-28T13:23:23.999Z</time></trkpt><trkpt lat="44.527086018653534" lon="9.160937494764744"><ele>943.0</ele><time>2026-03-28T13:23:24.999Z</time></trkpt><trkpt lat="44.52701295829797" lon="9.160780763224356"><ele>936.0</ele><time>2026-03-28T13:23:25.999Z</time></trkpt><trkpt lat="44.52695250387117" lon="9.160613044897657"><ele>929.0</ele><time>2026-03-28T13:23:26.999Z</time></trkpt><trkpt lat="44.52692621744366" lon="9.160436463546946"><ele>922.0</ele><time>2026-03-28T13:23:27.999Z</time></trkpt><trkpt lat="44.526940483711805" lon="9.16027391573378"><ele>921.8</ele><time>2026-03-28T13:23:28.999Z</time></trkpt><trkpt lat="44.52698339162551" lon="9.160125607358406"><ele>921.6</ele><time>2026-03-28T13:23:29.999Z</time></trkpt><trkpt lat="44.52705976629272" lon="9.15999894031981"><ele>921.3999999999999</ele><time>2026-03-28T13:23:30.999Z</time></trkpt><trkpt lat="44.52712184789392" lon="9.15988256842881"><ele>921.1999999999999</ele><time>2026-03-28T13:23:31.999Z</time></trkpt><trkpt lat="44.5271336993064" lon="9.159730606564636"><ele>921.0</ele><time>2026-03-28T13:23:32.999Z</time></trkpt><trkpt lat="44.527099401863" lon="9.159574516597752"><ele>923.25</ele><time>2026-03-28T13:23:33.999Z</time></trkpt><trkpt lat="44.52703429997447" lon="9.159436003422096"><ele>925.5</ele><time>2026-03-28T13:23:34.999Z</time></trkpt><trkpt lat="44.52696176763502" lon="9.159346860395878"><ele>927.75</ele><time>2026-03-28T13:23:35.999Z</time></trkpt><trkpt lat="44.52683980884527" lon="9.159317633731419"><ele>930.0</ele><time>2026-03-28T13:23:36.999Z</time></trkpt><trkpt lat="44.526708016333046" lon="9.159330920252962"><ele>930.0</ele><time>2026-03-28T13:23:37.999Z</time></trkpt><trkpt lat="44.52657310644019" lon="9.159355847149063"><ele>930.0</ele><time>2026-03-28T13:23:38.999Z</time></trkpt><trkpt lat="44.5264305993721" lon="9.159387782250946"><ele>930.0</ele><time>2026-03-28T13:23:39.999Z</time></trkpt><trkpt lat="44.52629716974097" lon="9.159415842011123"><ele>930.0</ele><time>2026-03-28T13:23:40.999Z</time></trkpt><trkpt lat="44.526194237586466" lon="9.159426430764361"><ele>927.0</ele><time>2026-03-28T13:23:41.999Z</time></trkpt><trkpt lat="44.52611051400482" lon="9.159404911976985"><ele>924.0</ele><time>2026-03-28T13:23:42.999Z</time></trkpt><trkpt lat="44.526041656839524" lon="9.159295048421983"><ele>921.0</ele><time>2026-03-28T13:23:43.999Z</time></trkpt><trkpt lat="44.525993211350425" lon="9.159168007498499"><ele>918.0</ele><time>2026-03-28T13:23:44.999Z</time></trkpt><trkpt lat="44.52598712596347" lon="9.15905453986666"><ele>915.0</ele><time>2026-03-28T13:23:45.999Z</time></trkpt><trkpt lat="44.52602371434085" lon="9.158928752347075"><ele>915.0</ele><time>2026-03-28T13:23:46.999Z</time></trkpt><trkpt lat="44.52606072325068" lon="9.158791323493734"><ele>915.0</ele><time>2026-03-28T13:23:47.999Z</time></trkpt><trkpt lat="44.52606835244436" lon="9.158635785956612"><ele>915.0</ele><time>2026-03-28T13:23:48.999Z</time></trkpt><trkpt lat="44.52602649842935" lon="9.158480124010532"><ele>915.0</ele><time>2026-03-28T13:23:49.999Z</time></trkpt><trkpt lat="44.52596338905979" lon="9.158327362101565"><ele>914.25</ele><time>2026-03-28T13:23:50.999Z</time></trkpt><trkpt lat="44.52593202171177" lon="9.158159764605317"><ele>913.5</ele><time>2026-03-28T13:23:51.999Z</time></trkpt><trkpt lat="44.525941918609846" lon="9.157980217917288"><ele>912.75</ele><time>2026-03-28T13:23:53Z</time></trkpt><trkpt lat="44.52596795859754" lon="9.157800700858699"><ele>912.0</ele><time>2026-03-28T13:23:54Z</time></trkpt><trkpt lat="44.52599031149328" lon="9.157629708388118"><ele>912.0</ele><time>2026-03-28T13:23:55Z</time></trkpt><trkpt lat="44.526012498506205" lon="9.157465367665159"><ele>912.0</ele><time>2026-03-28T13:23:56Z</time></trkpt><trkpt lat="44.52605610830921" lon="9.157313935769947"><ele>912.0</ele><time>2026-03-28T13:23:57Z</time></trkpt><trkpt lat="44.52612231118212" lon="9.15719093959369"><ele>912.0</ele><time>2026-03-28T13:23:58Z</time></trkpt><trkpt lat="44.52619798172781" lon="9.157089612391951"><ele>911.3333333333334</ele><time>2026-03-28T13:23:59Z</time></trkpt><trkpt lat="44.526237026349534" lon="9.156964406629262"><ele>910.6666666666667</ele><time>2026-03-28T13:24:00Z</time></trkpt><trkpt lat="44.5262683230265" lon="9.156857779328844"><ele>910.0</ele><time>2026-03-28T13:24:01Z</time></trkpt><trkpt lat="44.52623690955666" lon="9.15676439048069"><ele>909.3333333333334</ele><time>2026-03-28T13:24:02Z</time></trkpt><trkpt lat="44.52617018416395" lon="9.156716122753686"><ele>908.6666666666667</ele><time>2026-03-28T13:24:03Z</time></trkpt><trkpt lat="44.52609710777543" lon="9.156662310985913"><ele>908.0</ele><time>2026-03-28T13:24:04Z</time></trkpt><trkpt lat="44.52599625325882" lon="9.156698197591043"><ele>908.0</ele><time>2026-03-28T13:24:05Z</time></trkpt><trkpt lat="44.52593652679414" lon="9.156819791338975"><ele>908.0</ele><time>2026-03-28T13:24:06Z</time></trkpt><trkpt lat="44.52589588128886" lon="9.15694171857381"><ele>908.0</ele><time>2026-03-28T13:24:07Z</time></trkpt><trkpt lat="44.5258526758186" lon="9.157071978355999"><ele>908.0</ele><time>2026-03-28T13:24:08Z</time></trkpt><trkpt lat="44.525811268710335" lon="9.157209302751117"><ele>908.0</ele><time>2026-03-28T13:24:09Z</time></trkpt><trkpt lat="44.52576944108353" lon="9.157352750601873"><ele>908.8</ele><time>2026-03-28T13:24:10Z</time></trkpt><trkpt lat="44.52572411856236" lon="9.157499752896365"><ele>909.5999999999999</ele><time>2026-03-28T13:24:11Z</time></trkpt><trkpt lat="44.525677396705284" lon="9.157646792169851"><ele>910.4000000000001</ele><time>2026-03-28T13:24:12Z</time></trkpt><trkpt lat="44.525628362309135" lon="9.157783819364735"><ele>911.2</ele><time>2026-03-28T13:24:13Z</time></trkpt><trkpt lat="44.52558980906562" lon="9.157918731464987"><ele>912.0</ele><time>2026-03-28T13:24:14Z</time></trkpt><trkpt lat="44.52555898921972" lon="9.158051897028809"><ele>912.0</ele><time>2026-03-28T13:24:15Z</time></trkpt><trkpt lat="44.52554656926184" lon="9.158186079231442"><ele>912.0</ele><time>2026-03-28T13:24:16Z</time></trkpt><trkpt lat="44.5255771786202" lon="9.158334295158669"><ele>912.0</ele><time>2026-03-28T13:24:17Z</time></trkpt><trkpt lat="44.52561467573115" lon="9.158475079780724"><ele>912.0</ele><time>2026-03-28T13:24:18Z</time></trkpt><trkpt lat="44.52564764578967" lon="9.158618305518257"><ele>912.0</ele><time>2026-03-28T13:24:19Z</time></trkpt><trkpt lat="44.52563852337032" lon="9.158773899048501"><ele>912.0</ele><time>2026-03-28T13:24:20Z</time></trkpt><trkpt lat="44.52560470464721" lon="9.15893013535508"><ele>912.0</ele><time>2026-03-28T13:24:21Z</time></trkpt><trkpt lat="44.52555979864923" lon="9.159096686140279"><ele>912.0</ele><time>2026-03-28T13:24:22Z</time></trkpt><trkpt lat="44.52551998473017" lon="9.159257681141145"><ele>912.0</ele><time>2026-03-28T13:24:23Z</time></trkpt><trkpt lat="44.5255039597455" lon="9.15943359419873"><ele>912.0</ele><time>2026-03-28T13:24:24Z</time></trkpt><trkpt lat="44.525479227877156" lon="9.15958976308486"><ele>912.0</ele><time>2026-03-28T13:24:25Z</time></trkpt><trkpt lat="44.52548848797102" lon="9.15974920321174"><ele>912.0</ele><time>2026-03-28T13:24:26Z</time></trkpt><trkpt lat="44.525534668532785" lon="9.15987008714809"><ele>912.0</ele><time>2026-03-28T13:24:27Z</time></trkpt><trkpt lat="44.52560434893519" lon="9.159964241238397"><ele>912.0</ele><time>2026-03-28T13:24:28Z</time></trkpt><trkpt lat="44.52566081209426" lon="9.160062186593432"><ele>910.8</ele><time>2026-03-28T13:24:29Z</time></trkpt><trkpt lat="44.525652493125705" lon="9.160171057947514"><ele>909.6</ele><time>2026-03-28T13:24:30Z</time></trkpt><trkpt lat="44.525575667717746" lon="9.160320652271075"><ele>908.3999999999999</ele><time>2026-03-28T13:24:32Z</time></trkpt><trkpt lat="44.52550246036269" lon="9.160343553487225"><ele>907.1999999999999</ele><time>2026-03-28T13:24:33Z</time></trkpt><trkpt lat="44.52540567184527" lon="9.160350391373244"><ele>906.0</ele><time>2026-03-28T13:24:34Z</time></trkpt><trkpt lat="44.52530301055311" lon="9.16037420792102"><ele>901.1999999999999</ele><time>2026-03-28T13:24:35Z</time></trkpt><trkpt lat="44.52519319302183" lon="9.160347330098656"><ele>896.3999999999999</ele><time>2026-03-28T13:24:36Z</time></trkpt><trkpt lat="44.52509741900346" lon="9.160313079509022"><ele>891.6</ele><time>2026-03-28T13:24:37Z</time></trkpt><trkpt lat="44.524995410719534" lon="9.160333539000554"><ele>886.8</ele><time>2026-03-28T13:24:38Z</time></trkpt><trkpt lat="44.52488173202156" lon="9.160362406292121"><ele>882.0</ele><time>2026-03-28T13:24:39Z</time></trkpt><trkpt lat="44.52478144584938" lon="9.160471147595688"><ele>882.0</ele><time>2026-03-28T13:24:40Z</time></trkpt><trkpt lat="44.52470379815646" lon="9.160609307523432"><ele>882.0</ele><time>2026-03-28T13:24:41Z</time></trkpt><trkpt lat="44.524640460717066" lon="9.160740035166148"><ele>882.0</ele><time>2026-03-28T13:24:42Z</time></trkpt><trkpt lat="44.52459229285165" lon="9.160872080571355"><ele>882.0</ele><time>2026-03-28T13:24:43Z</time></trkpt><trkpt lat="44.52455493578104" lon="9.16099829638204"><ele>882.0</ele><time>2026-03-28T13:24:44Z</time></trkpt><trkpt lat="44.52451700239986" lon="9.161123553222291"><ele>881.0</ele><time>2026-03-28T13:24:45Z</time></trkpt><trkpt lat="44.52447943782651" lon="9.161265211481776"><ele>880.0</ele><time>2026-03-28T13:24:46Z</time></trkpt><trkpt lat="44.524452139188625" lon="9.161421258276759"><ele>879.0</ele><time>2026-03-28T13:24:47Z</time></trkpt><trkpt lat="44.524433423069624" lon="9.16158878683281"><ele>878.0</ele><time>2026-03-28T13:24:48Z</time></trkpt><trkpt lat="44.524431419845676" lon="9.161738909989905"><ele>878.0</ele><time>2026-03-28T13:24:48.999Z</time></trkpt><trkpt lat="44.52442326348512" lon="9.16184930144908"><ele>878.0</ele><time>2026-03-28T13:24:49.999Z</time></trkpt><trkpt lat="44.52433371141757" lon="9.161944006506443"><ele>878.0</ele><time>2026-03-28T13:24:51.999Z</time></trkpt><trkpt lat="44.524242889067374" lon="9.161910194733638"><ele>878.0</ele><time>2026-03-28T13:24:52.999Z</time></trkpt><trkpt lat="44.524149559891875" lon="9.161892508870595"><ele>878.0</ele><time>2026-03-28T13:24:53.999Z</time></trkpt><trkpt lat="44.52403830676745" lon="9.161883553421934"><ele>878.0</ele><time>2026-03-28T13:24:54.999Z</time></trkpt><trkpt lat="44.5239274614095" lon="9.161911226912256"><ele>878.0</ele><time>2026-03-28T13:24:55.999Z</time></trkpt><trkpt lat="44.5238250646295" lon="9.16197422032975"><ele>878.0</ele><time>2026-03-28T13:24:56.999Z</time></trkpt><trkpt lat="44.52372761471945" lon="9.162079853068807"><ele>878.0</ele><time>2026-03-28T13:24:57.999Z</time></trkpt><trkpt lat="44.523633916367174" lon="9.162178223243558"><ele>878.0</ele><time>2026-03-28T13:24:58.999Z</time></trkpt><trkpt lat="44.5235426767474" lon="9.162274443838854"><ele>878.0</ele><time>2026-03-28T13:24:59.999Z</time></trkpt><trkpt lat="44.523448552245895" lon="9.162374399844007"><ele>878.0</ele><time>2026-03-28T13:25:00.999Z</time></trkpt><trkpt lat="44.523354897879315" lon="9.162470885264831"><ele>878.0</ele><time>2026-03-28T13:25:01.999Z</time></trkpt><trkpt lat="44.52327103403186" lon="9.162574420036654"><ele>878.0</ele><time>2026-03-28T13:25:02.999Z</time></trkpt><trkpt lat="44.52316077061887" lon="9.162608578918615"><ele>878.0</ele><time>2026-03-28T13:25:03.999Z</time></trkpt><trkpt lat="44.52305137691411" lon="9.16259820730235"><ele>878.0</ele><time>2026-03-28T13:25:04.999Z</time></trkpt><trkpt lat="44.5229559007897" lon="9.162602364079852"><ele>878.0</ele><time>2026-03-28T13:25:05.999Z</time></trkpt><trkpt lat="44.522871617468" lon="9.162648460410864"><ele>878.0</ele><time>2026-03-28T13:25:06.999Z</time></trkpt><trkpt lat="44.522810502387365" lon="9.162787713167262"><ele>876.4</ele><time>2026-03-28T13:25:07.999Z</time></trkpt><trkpt lat="44.52277853908374" lon="9.162947414156193"><ele>874.8</ele><time>2026-03-28T13:25:08.999Z</time></trkpt><trkpt lat="44.52274048116699" lon="9.163089935386559"><ele>873.2</ele><time>2026-03-28T13:25:09.999Z</time></trkpt><trkpt lat="44.52268121917949" lon="9.1631936603172"><ele>871.6</ele><time>2026-03-28T13:25:10.999Z</time></trkpt><trkpt lat="44.52260588574479" lon="9.163283798045548"><ele>870.0</ele><time>2026-03-28T13:25:11.999Z</time></trkpt><trkpt lat="44.522500769332936" lon="9.16330868532003"><ele>870.0</ele><time>2026-03-28T13:25:12.999Z</time></trkpt><trkpt lat="44.52240413351186" lon="9.163332842898816"><ele>870.0</ele><time>2026-03-28T13:25:13.999Z</time></trkpt><trkpt lat="44.52231085460444" lon="9.163401479601061"><ele>870.0</ele><time>2026-03-28T13:25:14.999Z</time></trkpt><trkpt lat="44.52222335001592" lon="9.163504006069923"><ele>870.0</ele><time>2026-03-28T13:25:15.999Z</time></trkpt><trkpt lat="44.522151784604006" lon="9.163640540429746"><ele>870.0</ele><time>2026-03-28T13:25:16.999Z</time></trkpt><trkpt lat="44.522084943147185" lon="9.16377473025241"><ele>871.2</ele><time>2026-03-28T13:25:17.999Z</time></trkpt><trkpt lat="44.522014599518016" lon="9.16390267829413"><ele>872.4</ele><time>2026-03-28T13:25:18.999Z</time></trkpt><trkpt lat="44.52193578701514" lon="9.163994480881442"><ele>873.5999999999999</ele><time>2026-03-28T13:25:19.999Z</time></trkpt><trkpt lat="44.52185214885066" lon="9.16405449500406"><ele>874.8</ele><time>2026-03-28T13:25:20.999Z</time></trkpt><trkpt lat="44.52175083788342" lon="9.164029689575646"><ele>876.0</ele><time>2026-03-28T13:25:21.999Z</time></trkpt><trkpt lat="44.521654534399445" lon="9.163964924564295"><ele>868.25</ele><time>2026-03-28T13:25:22.999Z</time></trkpt><trkpt lat="44.5215578992369" lon="9.163888283561642"><ele>860.5</ele><time>2026-03-28T13:25:23.999Z</time></trkpt><trkpt lat="44.52145149241141" lon="9.163820741926395"><ele>852.75</ele><time>2026-03-28T13:25:24.999Z</time></trkpt><trkpt lat="44.52133445053149" lon="9.163772954868252"><ele>845.0</ele><time>2026-03-28T13:25:25.999Z</time></trkpt><trkpt lat="44.52122861646895" lon="9.163763362872333"><ele>841.75</ele><time>2026-03-28T13:25:26.999Z</time></trkpt><trkpt lat="44.52111866113126" lon="9.163789392672014"><ele>838.5</ele><time>2026-03-28T13:25:27.999Z</time></trkpt><trkpt lat="44.52101243586095" lon="9.16383419438414"><ele>835.25</ele><time>2026-03-28T13:25:28.999Z</time></trkpt><trkpt lat="44.52090434617588" lon="9.16388625155176"><ele>832.0</ele><time>2026-03-28T13:25:29.999Z</time></trkpt><trkpt lat="44.520792052920825" lon="9.163932647422564"><ele>832.0</ele><time>2026-03-28T13:25:30.999Z</time></trkpt><trkpt lat="44.52067794231106" lon="9.163954476575034"><ele>832.0</ele><time>2026-03-28T13:25:31.999Z</time></trkpt><trkpt lat="44.520566952979216" lon="9.163977921859315"><ele>832.0</ele><time>2026-03-28T13:25:32.999Z</time></trkpt><trkpt lat="44.520459116941616" lon="9.164011733936556"><ele>832.0</ele><time>2026-03-28T13:25:33.999Z</time></trkpt><trkpt lat="44.520376591174355" lon="9.164068048631849"><ele>832.0</ele><time>2026-03-28T13:25:34.999Z</time></trkpt><trkpt lat="44.52031563948949" lon="9.164107566633263"><ele>831.9999999999999</ele><time>2026-03-28T13:25:35.999Z</time></trkpt><trkpt lat="44.520197469006206" lon="9.164120100922949"><ele>832.0</ele><time>2026-03-28T13:25:37.999Z</time></trkpt><trkpt lat="44.52015314762331" lon="9.164037654201415"><ele>832.0</ele><time>2026-03-28T13:25:38.999Z</time></trkpt><trkpt lat="44.52015543229497" lon="9.16392443038197"><ele>832.0</ele><time>2026-03-28T13:25:39.999Z</time></trkpt><trkpt lat="44.52018513110612" lon="9.163807735142154"><ele>831.9999999999999</ele><time>2026-03-28T13:25:40.999Z</time></trkpt><trkpt lat="44.52019724248282" lon="9.163707705280281"><ele>832.0</ele><time>2026-03-28T13:25:41.999Z</time></trkpt><trkpt lat="44.52017907970044" lon="9.16362022922423"><ele>831.9999999999999</ele><time>2026-03-28T13:25:42.999Z</time></trkpt><trkpt lat="44.52013392206143" lon="9.163556416546733"><ele>832.0</ele><time>2026-03-28T13:25:43.999Z</time></trkpt><trkpt lat="44.5200686137874" lon="9.163531486935867"><ele>832.0</ele><time>2026-03-28T13:25:44.999Z</time></trkpt><trkpt lat="44.519995088877046" lon="9.163545255298697"><ele>832.0</ele><time>2026-03-28T13:25:45.999Z</time></trkpt><trkpt lat="44.51991704855437" lon="9.16353142505323"><ele>831.9999999999999</ele><time>2026-03-28T13:25:46.999Z</time></trkpt><trkpt lat="44.51984909816666" lon="9.163479058413484"><ele>832.0</ele><time>2026-03-28T13:25:47.999Z</time></trkpt><trkpt lat="44.51978139246552" lon="9.163395082375809"><ele>832.0</ele><time>2026-03-28T13:25:48.999Z</time></trkpt><trkpt lat="44.519710946497774" lon="9.163300982813432"><ele>832.0</ele><time>2026-03-28T13:25:49.999Z</time></trkpt><trkpt lat="44.519629165406464" lon="9.163201507810266"><ele>832.0</ele><time>2026-03-28T13:25:50.999Z</time></trkpt><trkpt lat="44.51954800620995" lon="9.16311133210348"><ele>832.0</ele><time>2026-03-28T13:25:51.999Z</time></trkpt><trkpt lat="44.51946932186993" lon="9.163024367519816"><ele>832.0</ele><time>2026-03-28T13:25:52.999Z</time></trkpt><trkpt lat="44.519370393435324" lon="9.16299015866741"><ele>829.8</ele><time>2026-03-28T13:25:53.999Z</time></trkpt><trkpt lat="44.51926550341545" lon="9.162984121867481"><ele>827.6</ele><time>2026-03-28T13:25:54.999Z</time></trkpt><trkpt lat="44.519169715532776" lon="9.163006543352013"><ele>825.4</ele><time>2026-03-28T13:25:55.999Z</time></trkpt><trkpt lat="44.5190865816569" lon="9.16301277301881"><ele>823.1999999999999</ele><time>2026-03-28T13:25:56.999Z</time></trkpt><trkpt lat="44.51900686933541" lon="9.162953047087317"><ele>821.0</ele><time>2026-03-28T13:25:57.999Z</time></trkpt><trkpt lat="44.51895766802873" lon="9.162823732804473"><ele>821.0</ele><time>2026-03-28T13:25:59Z</time></trkpt><trkpt lat="44.51891851191143" lon="9.162690556237264"><ele>821.0</ele><time>2026-03-28T13:26:00Z</time></trkpt><trkpt lat="44.518872247892844" lon="9.16256579577967"><ele>821.0</ele><time>2026-03-28T13:26:01Z</time></trkpt><trkpt lat="44.5188033307023" lon="9.162460069940584"><ele>821.0</ele><time>2026-03-28T13:26:02Z</time></trkpt><trkpt lat="44.5187147798931" lon="9.162391052686292"><ele>821.0</ele><time>2026-03-28T13:26:03Z</time></trkpt><trkpt lat="44.51862145688653" lon="9.162335479187567"><ele>821.1999999999999</ele><time>2026-03-28T13:26:04Z</time></trkpt><trkpt lat="44.51851871209231" lon="9.162301031497625"><ele>821.4</ele><time>2026-03-28T13:26:05Z</time></trkpt><trkpt lat="44.51842051568346" lon="9.162284634607012"><ele>821.6</ele><time>2026-03-28T13:26:06Z</time></trkpt><trkpt lat="44.51831887303127" lon="9.16226131671969"><ele>821.8</ele><time>2026-03-28T13:26:07Z</time></trkpt><trkpt lat="44.51821631025203" lon="9.16229279011192"><ele>822.0</ele><time>2026-03-28T13:26:08Z</time></trkpt><trkpt lat="44.51812033402721" lon="9.162386949466812"><ele>822.0</ele><time>2026-03-28T13:26:09Z</time></trkpt><trkpt lat="44.51804714124916" lon="9.162521696808533"><ele>822.0</ele><time>2026-03-28T13:26:10Z</time></trkpt><trkpt lat="44.518004813353" lon="9.162682723982522"><ele>822.0</ele><time>2026-03-28T13:26:11Z</time></trkpt><trkpt lat="44.51802514645897" lon="9.162845217114848"><ele>822.0</ele><time>2026-03-28T13:26:12Z</time></trkpt><trkpt lat="44.51807985229299" lon="9.162976514243727"><ele>822.0</ele><time>2026-03-28T13:26:13Z</time></trkpt><trkpt lat="44.51813897248328" lon="9.163082680350941"><ele>822.0</ele><time>2026-03-28T13:26:14Z</time></trkpt><trkpt lat="44.51818772310042" lon="9.163163343910794"><ele>822.0</ele><time>2026-03-28T13:26:15Z</time></trkpt><trkpt lat="44.518226238280825" lon="9.163272885939357"><ele>822.0</ele><time>2026-03-28T13:26:17Z</time></trkpt><trkpt lat="44.518167086564695" lon="9.163345398191753"><ele>822.0</ele><time>2026-03-28T13:26:20Z</time></trkpt><trkpt lat="44.518089994448495" lon="9.163518378121172"><ele>822.6</ele><time>2026-03-28T13:26:22Z</time></trkpt><trkpt lat="44.51803568792116" lon="9.163602942183312"><ele>823.2</ele><time>2026-03-28T13:26:23Z</time></trkpt><trkpt lat="44.517971931151166" lon="9.163700288986528"><ele>823.8</ele><time>2026-03-28T13:26:24Z</time></trkpt><trkpt lat="44.51791300465029" lon="9.16379965577523"><ele>824.4</ele><time>2026-03-28T13:26:25Z</time></trkpt><trkpt lat="44.5178869334991" lon="9.163916897933802"><ele>825.0</ele><time>2026-03-28T13:26:26Z</time></trkpt><trkpt lat="44.5179034368273" lon="9.164065799512512"><ele>826.0</ele><time>2026-03-28T13:26:27Z</time></trkpt><trkpt lat="44.51792613803954" lon="9.164207377879125"><ele>827.0</ele><time>2026-03-28T13:26:28Z</time></trkpt><trkpt lat="44.51794988823531" lon="9.16436045550173"><ele>828.0</ele><time>2026-03-28T13:26:29Z</time></trkpt><trkpt lat="44.51797014877954" lon="9.164509475555754"><ele>829.0</ele><time>2026-03-28T13:26:30Z</time></trkpt><trkpt lat="44.517985746229186" lon="9.164667064469691"><ele>830.0</ele><time>2026-03-28T13:26:31Z</time></trkpt><trkpt lat="44.51797993254716" lon="9.164804687292014"><ele>829.6666666666667</ele><time>2026-03-28T13:26:32Z</time></trkpt><trkpt lat="44.51794660730595" lon="9.164887712141836"><ele>829.3333333333334</ele><time>2026-03-28T13:26:33Z</time></trkpt><trkpt lat="44.517895010741" lon="9.164948727446339"><ele>829.0</ele><time>2026-03-28T13:26:34Z</time></trkpt><trkpt lat="44.517815503051274" lon="9.164966308987484"><ele>828.6666666666667</ele><time>2026-03-28T13:26:35Z</time></trkpt><trkpt lat="44.51772361506516" lon="9.164911535762311"><ele>828.3333333333334</ele><time>2026-03-28T13:26:36Z</time></trkpt><trkpt lat="44.517644261248606" lon="9.164820975136108"><ele>828.0</ele><time>2026-03-28T13:26:37Z</time></trkpt><trkpt lat="44.51755316205841" lon="9.164742737903646"><ele>828.0</ele><time>2026-03-28T13:26:38Z</time></trkpt><trkpt lat="44.51745467140407" lon="9.164689121826232"><ele>828.0</ele><time>2026-03-28T13:26:39Z</time></trkpt><trkpt lat="44.517353145852354" lon="9.164658824479945"><ele>828.0</ele><time>2026-03-28T13:26:40Z</time></trkpt><trkpt lat="44.51725168653218" lon="9.164687900565907"><ele>828.0</ele><time>2026-03-28T13:26:41Z</time></trkpt><trkpt lat="44.51715707724856" lon="9.164762734423588"><ele>828.0</ele><time>2026-03-28T13:26:42Z</time></trkpt><trkpt lat="44.5170844294772" lon="9.164886213221898"><ele>825.25</ele><time>2026-03-28T13:26:43Z</time></trkpt><trkpt lat="44.51701074068416" lon="9.165014629939602"><ele>822.5</ele><time>2026-03-28T13:26:44Z</time></trkpt><trkpt lat="44.51693409368793" lon="9.165148698490507"><ele>819.75</ele><time>2026-03-28T13:26:45Z</time></trkpt><trkpt lat="44.51685675984063" lon="9.165283968433068"><ele>817.0</ele><time>2026-03-28T13:26:46Z</time></trkpt><trkpt lat="44.516778581001034" lon="9.165421776581356"><ele>817.0</ele><time>2026-03-28T13:26:47Z</time></trkpt><trkpt lat="44.51670119878725" lon="9.16557975336834"><ele>817.0</ele><time>2026-03-28T13:26:48Z</time></trkpt><trkpt lat="44.516646019390635" lon="9.165759497635396"><ele>817.0</ele><time>2026-03-28T13:26:49Z</time></trkpt><trkpt lat="44.51659080435109" lon="9.165940544094749"><ele>817.0</ele><time>2026-03-28T13:26:50Z</time></trkpt><trkpt lat="44.51653935631154" lon="9.166123220342929"><ele>821.75</ele><time>2026-03-28T13:26:51Z</time></trkpt><trkpt lat="44.51649119107012" lon="9.166296702685804"><ele>826.5</ele><time>2026-03-28T13:26:52Z</time></trkpt><trkpt lat="44.516456548542706" lon="9.16646102753236"><ele>831.25</ele><time>2026-03-28T13:26:53Z</time></trkpt><trkpt lat="44.51641214178826" lon="9.16660764805208"><ele>836.0</ele><time>2026-03-28T13:26:54Z</time></trkpt><trkpt lat="44.516335067740464" lon="9.166717570771814"><ele>836.0</ele><time>2026-03-28T13:26:54.999Z</time></trkpt><trkpt lat="44.51621073207784" lon="9.166753609085381"><ele>836.0</ele><time>2026-03-28T13:26:55.999Z</time></trkpt><trkpt lat="44.51606936714067" lon="9.166738761596816"><ele>836.0</ele><time>2026-03-28T13:26:56.999Z</time></trkpt><trkpt lat="44.51592547094666" lon="9.166688512269864"><ele>836.0</ele><time>2026-03-28T13:26:57.999Z</time></trkpt><trkpt lat="44.51577488540755" lon="9.166628164765216"><ele>836.0</ele><time>2026-03-28T13:26:58.999Z</time></trkpt><trkpt lat="44.51562600616669" lon="9.166574531317394"><ele>836.0</ele><time>2026-03-28T13:26:59.999Z</time></trkpt><trkpt lat="44.51548732241906" lon="9.166555817535626"><ele>836.0</ele><time>2026-03-28T13:27:00.999Z</time></trkpt><trkpt lat="44.5153645801426" lon="9.166603632202937"><ele>836.0</ele><time>2026-03-28T13:27:01.999Z</time></trkpt><trkpt lat="44.51525135989727" lon="9.166720354285742"><ele>837.0</ele><time>2026-03-28T13:27:02.999Z</time></trkpt><trkpt lat="44.515124452780675" lon="9.166827622978287"><ele>838.0</ele><time>2026-03-28T13:27:03.999Z</time></trkpt><trkpt lat="44.51498439154749" lon="9.166893851316246"><ele>839.0</ele><time>2026-03-28T13:27:04.999Z</time></trkpt><trkpt lat="44.51484506135573" lon="9.16698134226693"><ele>840.0</ele><time>2026-03-28T13:27:05.999Z</time></trkpt><trkpt lat="44.51471670845738" lon="9.167107476801213"><ele>840.0</ele><time>2026-03-28T13:27:06.999Z</time></trkpt><trkpt lat="44.51459968578629" lon="9.167223848390504"><ele>840.0</ele><time>2026-03-28T13:27:07.999Z</time></trkpt><trkpt lat="44.51446778954631" lon="9.16723806557572"><ele>840.0</ele><time>2026-03-28T13:27:08.999Z</time></trkpt><trkpt lat="44.514323499249116" lon="9.16721227395602"><ele>840.0</ele><time>2026-03-28T13:27:09.999Z</time></trkpt><trkpt lat="44.51420082089651" lon="9.16715114923052"><ele>840.2</ele><time>2026-03-28T13:27:10.999Z</time></trkpt><trkpt lat="44.51409147244828" lon="9.167107795664668"><ele>840.4</ele><time>2026-03-28T13:27:11.999Z</time></trkpt><trkpt lat="44.5139838876831" lon="9.167130436286719"><ele>840.5999999999999</ele><time>2026-03-28T13:27:12.999Z</time></trkpt><trkpt lat="44.513886944556646" lon="9.167154831988444"><ele>840.8</ele><time>2026-03-28T13:27:13.999Z</time></trkpt><trkpt lat="44.51381425372437" lon="9.167284944332012"><ele>841.0</ele><time>2026-03-28T13:27:14.999Z</time></trkpt><trkpt lat="44.5137410794348" lon="9.167406359822566"><ele>848.25</ele><time>2026-03-28T13:27:15.999Z</time></trkpt><trkpt lat="44.51369495220732" lon="9.167565408602789"><ele>855.5</ele><time>2026-03-28T13:27:16.999Z</time></trkpt><trkpt lat="44.513647574025555" lon="9.167739238657008"><ele>862.75</ele><time>2026-03-28T13:27:17.999Z</time></trkpt><trkpt lat="44.513594838774125" lon="9.167917109806792"><ele>870.0</ele><time>2026-03-28T13:27:18.999Z</time></trkpt><trkpt lat="44.513539579394426" lon="9.168103002025504"><ele>869.75</ele><time>2026-03-28T13:27:20.022Z</time></trkpt><trkpt lat="44.51348649576531" lon="9.168280236099749"><ele>869.5</ele><time>2026-03-28T13:27:21.023Z</time></trkpt><trkpt lat="44.513427253481325" lon="9.168448275068593"><ele>869.25</ele><time>2026-03-28T13:27:22.021Z</time></trkpt><trkpt lat="44.513387428780064" lon="9.168626058400505"><ele>869.0</ele><time>2026-03-28T13:27:23.02Z</time></trkpt><trkpt lat="44.51321532507716" lon="9.169283541148857"><ele>869.0</ele><time>2026-03-28T13:27:26.999Z</time></trkpt><trkpt lat="44.5132052774669" lon="9.169475027300583"><ele>869.0</ele><time>2026-03-28T13:27:27.999Z</time></trkpt><trkpt lat="44.51318904932901" lon="9.16970574889343"><ele>869.0</ele><time>2026-03-28T13:27:28.999Z</time></trkpt><trkpt lat="44.51318319102182" lon="9.169917405909631"><ele>866.0</ele><time>2026-03-28T13:27:29.999Z</time></trkpt><trkpt lat="44.513156465695594" lon="9.170145896967561"><ele>863.0</ele><time>2026-03-28T13:27:30.999Z</time></trkpt><trkpt lat="44.513155165631986" lon="9.170382854623115"><ele>860.0</ele><time>2026-03-28T13:27:31.999Z</time></trkpt><trkpt lat="44.51312859417869" lon="9.170583652876095"><ele>857.75</ele><time>2026-03-28T13:27:32.999Z</time></trkpt><trkpt lat="44.513116506545664" lon="9.170779162335961"><ele>855.5</ele><time>2026-03-28T13:27:33.999Z</time></trkpt><trkpt lat="44.51310296242682" lon="9.170965799387337"><ele>853.25</ele><time>2026-03-28T13:27:34.999Z</time></trkpt><trkpt lat="44.51309016525868" lon="9.171157334174627"><ele>851.0</ele><time>2026-03-28T13:27:35.999Z</time></trkpt><trkpt lat="44.513071809924696" lon="9.171355241182987"><ele>848.75</ele><time>2026-03-28T13:27:36.999Z</time></trkpt><trkpt lat="44.51305782477892" lon="9.171545964891044"><ele>846.5</ele><time>2026-03-28T13:27:37.999Z</time></trkpt><trkpt lat="44.51303929127298" lon="9.17172065203274"><ele>844.25</ele><time>2026-03-28T13:27:38.999Z</time></trkpt><trkpt lat="44.51300460658661" lon="9.171878885744425"><ele>842.0</ele><time>2026-03-28T13:27:39.999Z</time></trkpt><trkpt lat="44.51293837937011" lon="9.171998539136851"><ele>847.8</ele><time>2026-03-28T13:27:40.999Z</time></trkpt><trkpt lat="44.512851443389195" lon="9.172067895110098"><ele>853.6</ele><time>2026-03-28T13:27:41.999Z</time></trkpt><trkpt lat="44.51274042829768" lon="9.172080872318883"><ele>859.3999999999999</ele><time>2026-03-28T13:27:42.999Z</time></trkpt><trkpt lat="44.512630644831084" lon="9.172123569863562"><ele>865.1999999999999</ele><time>2026-03-28T13:27:43.999Z</time></trkpt><trkpt lat="44.51251725605084" lon="9.172159884419912"><ele>871.0</ele><time>2026-03-28T13:27:44.999Z</time></trkpt><trkpt lat="44.51241554609427" lon="9.172210496220362"><ele>871.0</ele><time>2026-03-28T13:27:45.999Z</time></trkpt><trkpt lat="44.512366544449876" lon="9.172344052569677"><ele>870.9999999999999</ele><time>2026-03-28T13:27:46.999Z</time></trkpt><trkpt lat="44.512340780841086" lon="9.172476259300318"><ele>870.9999999999999</ele><time>2026-03-28T13:27:47.999Z</time></trkpt><trkpt lat="44.51234092287259" lon="9.17262019364968"><ele>871.0</ele><time>2026-03-28T13:27:48.999Z</time></trkpt><trkpt lat="44.51235614552612" lon="9.172770235967066"><ele>871.0</ele><time>2026-03-28T13:27:49.999Z</time></trkpt><trkpt lat="44.51234620195607" lon="9.172932918532515"><ele>867.5999999999999</ele><time>2026-03-28T13:27:50.999Z</time></trkpt><trkpt lat="44.51233929886771" lon="9.173095181833911"><ele>864.1999999999999</ele><time>2026-03-28T13:27:51.999Z</time></trkpt><trkpt lat="44.51231124048238" lon="9.173211025247426"><ele>860.8000000000001</ele><time>2026-03-28T13:27:52.999Z</time></trkpt><trkpt lat="44.51226503254239" lon="9.173284505739234"><ele>857.4000000000001</ele><time>2026-03-28T13:27:53.999Z</time></trkpt><trkpt lat="44.512207454531826" lon="9.173388121354854"><ele>854.0</ele><time>2026-03-28T13:27:54.999Z</time></trkpt><trkpt lat="44.512104198138694" lon="9.173441602656851"><ele>856.0</ele><time>2026-03-28T13:27:55.999Z</time></trkpt><trkpt lat="44.51198362687083" lon="9.173450263111185"><ele>858.0</ele><time>2026-03-28T13:27:56.999Z</time></trkpt><trkpt lat="44.51185929412251" lon="9.173459999834503"><ele>860.0</ele><time>2026-03-28T13:27:57.999Z</time></trkpt><trkpt lat="44.51172892769817" lon="9.173468946552436"><ele>862.0</ele><time>2026-03-28T13:27:58.999Z</time></trkpt><trkpt lat="44.511594084410405" lon="9.173500837867039"><ele>862.0</ele><time>2026-03-28T13:27:59.999Z</time></trkpt><trkpt lat="44.511453382215606" lon="9.173503533640073"><ele>862.0</ele><time>2026-03-28T13:28:00.999Z</time></trkpt><trkpt lat="44.51131779889937" lon="9.173513061918301"><ele>862.0</ele><time>2026-03-28T13:28:01.999Z</time></trkpt><trkpt lat="44.51119825388433" lon="9.17351766335696"><ele>862.0</ele><time>2026-03-28T13:28:02.999Z</time></trkpt><trkpt lat="44.511099514261566" lon="9.173534424929304"><ele>863.6666666666666</ele><time>2026-03-28T13:28:03.999Z</time></trkpt><trkpt lat="44.511012608551155" lon="9.173552211651463"><ele>865.3333333333333</ele><time>2026-03-28T13:28:05Z</time></trkpt><trkpt lat="44.51094889645612" lon="9.173622692306743"><ele>867.0</ele><time>2026-03-28T13:28:06Z</time></trkpt><trkpt lat="44.510921234144" lon="9.17374699386577"><ele>868.6666666666667</ele><time>2026-03-28T13:28:07Z</time></trkpt><trkpt lat="44.51092706739508" lon="9.173869586238752"><ele>870.3333333333334</ele><time>2026-03-28T13:28:08Z</time></trkpt><trkpt lat="44.51096933248501" lon="9.173988515235845"><ele>872.0</ele><time>2026-03-28T13:28:09Z</time></trkpt><trkpt lat="44.511063960597454" lon="9.174074379858856"><ele>872.25</ele><time>2026-03-28T13:28:10Z</time></trkpt><trkpt lat="44.511165983777786" lon="9.17415865075622"><ele>872.5</ele><time>2026-03-28T13:28:11Z</time></trkpt><trkpt lat="44.51126207079837" lon="9.174274852354927"><ele>872.75</ele><time>2026-03-28T13:28:12Z</time></trkpt><trkpt lat="44.51133556152752" lon="9.174445574638709"><ele>873.0</ele><time>2026-03-28T13:28:13Z</time></trkpt><trkpt lat="44.51139148441314" lon="9.174614222250046"><ele>863.3333333333333</ele><time>2026-03-28T13:28:14Z</time></trkpt><trkpt lat="44.511419502140576" lon="9.174805195015823"><ele>853.6666666666666</ele><time>2026-03-28T13:28:15Z</time></trkpt><trkpt lat="44.5114475329327" lon="9.1750193816065"><ele>844.0</ele><time>2026-03-28T13:28:16Z</time></trkpt><trkpt lat="44.51147787961512" lon="9.175240239722148"><ele>844.0</ele><time>2026-03-28T13:28:17Z</time></trkpt><trkpt lat="44.51150762846223" lon="9.175458718458374"><ele>844.0</ele><time>2026-03-28T13:28:18Z</time></trkpt><trkpt lat="44.51153381548056" lon="9.175659709778389"><ele>844.0</ele><time>2026-03-28T13:28:19Z</time></trkpt><trkpt lat="44.511560277148554" lon="9.175853669848115"><ele>844.0</ele><time>2026-03-28T13:28:20Z</time></trkpt><trkpt lat="44.51154913982015" lon="9.17604641074873"><ele>844.0</ele><time>2026-03-28T13:28:21Z</time></trkpt><trkpt lat="44.51150307661743" lon="9.17620743755377"><ele>844.0</ele><time>2026-03-28T13:28:22Z</time></trkpt><trkpt lat="44.5114107556772" lon="9.176321474802526"><ele>844.0</ele><time>2026-03-28T13:28:23Z</time></trkpt><trkpt lat="44.51128821131228" lon="9.176385709557328"><ele>844.0</ele><time>2026-03-28T13:28:24Z</time></trkpt><trkpt lat="44.51117479258671" lon="9.176471610912978"><ele>848.0</ele><time>2026-03-28T13:28:25Z</time></trkpt><trkpt lat="44.511070167763215" lon="9.176599121810721"><ele>852.0</ele><time>2026-03-28T13:28:26Z</time></trkpt><trkpt lat="44.51098618422076" lon="9.176761620080688"><ele>856.0</ele><time>2026-03-28T13:28:27Z</time></trkpt><trkpt lat="44.51091900128592" lon="9.176939176972057"><ele>860.0</ele><time>2026-03-28T13:28:28Z</time></trkpt><trkpt lat="44.510841824452186" lon="9.177093755047697"><ele>860.0</ele><time>2026-03-28T13:28:29Z</time></trkpt><trkpt lat="44.51078319886561" lon="9.177244104346961"><ele>860.0</ele><time>2026-03-28T13:28:30Z</time></trkpt><trkpt lat="44.5107458069872" lon="9.177369049570448"><ele>860.0</ele><time>2026-03-28T13:28:31Z</time></trkpt><trkpt lat="44.51067214547418" lon="9.17744695045002"><ele>860.0</ele><time>2026-03-28T13:28:32Z</time></trkpt><trkpt lat="44.5105819562205" lon="9.177466569842332"><ele>860.0</ele><time>2026-03-28T13:28:33Z</time></trkpt><trkpt lat="44.510497510590135" lon="9.177398177731598"><ele>860.0</ele><time>2026-03-28T13:28:34Z</time></trkpt><trkpt lat="44.51041651310315" lon="9.1773210298993"><ele>860.0</ele><time>2026-03-28T13:28:35Z</time></trkpt><trkpt lat="44.5103216700512" lon="9.177239177731892"><ele>860.0</ele><time>2026-03-28T13:28:36Z</time></trkpt><trkpt lat="44.510222250846056" lon="9.17714093575053"><ele>860.0</ele><time>2026-03-28T13:28:37Z</time></trkpt><trkpt lat="44.51011856365797" lon="9.177028855828476"><ele>859.75</ele><time>2026-03-28T13:28:38Z</time></trkpt><trkpt lat="44.5100047199847" lon="9.176913824451642"><ele>859.5</ele><time>2026-03-28T13:28:39Z</time></trkpt><trkpt lat="44.50988053360212" lon="9.176799618132502"><ele>859.25</ele><time>2026-03-28T13:28:40Z</time></trkpt><trkpt lat="44.509738912354564" lon="9.176703929103011"><ele>859.0</ele><time>2026-03-28T13:28:41Z</time></trkpt><trkpt lat="44.509584410688454" lon="9.176623899735425"><ele>861.3333333333333</ele><time>2026-03-28T13:28:42Z</time></trkpt><trkpt lat="44.50942484938872" lon="9.176535240603362"><ele>863.6666666666667</ele><time>2026-03-28T13:28:43Z</time></trkpt><trkpt lat="44.50928291638364" lon="9.176395689936728"><ele>866.0</ele><time>2026-03-28T13:28:44Z</time></trkpt><trkpt lat="44.50913379954378" lon="9.176317714290446"><ele>866.0</ele><time>2026-03-28T13:28:45Z</time></trkpt><trkpt lat="44.50898312703519" lon="9.176240328669277"><ele>866.0</ele><time>2026-03-28T13:28:46Z</time></trkpt><trkpt lat="44.508834296244515" lon="9.17616059311112"><ele>866.0</ele><time>2026-03-28T13:28:47Z</time></trkpt><trkpt lat="44.50868767660658" lon="9.176078115274233"><ele>861.5</ele><time>2026-03-28T13:28:48Z</time></trkpt><trkpt lat="44.50855398651796" lon="9.175980421178341"><ele>857.0</ele><time>2026-03-28T13:28:49Z</time></trkpt><trkpt lat="44.5084187512952" lon="9.175914800830958"><ele>852.5</ele><time>2026-03-28T13:28:50Z</time></trkpt><trkpt lat="44.50827169972949" lon="9.175891612945465"><ele>848.0</ele><time>2026-03-28T13:28:51Z</time></trkpt><trkpt lat="44.50812920761224" lon="9.175847393434225"><ele>848.0</ele><time>2026-03-28T13:28:52Z</time></trkpt><trkpt lat="44.50798935529796" lon="9.175790284957422"><ele>848.0</ele><time>2026-03-28T13:28:53Z</time></trkpt><trkpt lat="44.50785645583962" lon="9.175713096944"><ele>848.0</ele><time>2026-03-28T13:28:54Z</time></trkpt><trkpt lat="44.50772859361008" lon="9.175629582535313"><ele>848.0</ele><time>2026-03-28T13:28:55Z</time></trkpt><trkpt lat="44.507611021512126" lon="9.175539098119335"><ele>849.5</ele><time>2026-03-28T13:28:56Z</time></trkpt><trkpt lat="44.50749217951726" lon="9.17545624602985"><ele>851.0</ele><time>2026-03-28T13:28:57Z</time></trkpt><trkpt lat="44.507359480219414" lon="9.175400046315254"><ele>852.5</ele><time>2026-03-28T13:28:58Z</time></trkpt><trkpt lat="44.50722667958752" lon="9.175365344405186"><ele>854.0</ele><time>2026-03-28T13:28:59Z</time></trkpt><trkpt lat="44.507109935986534" lon="9.175339735354358"><ele>852.8000000000001</ele><time>2026-03-28T13:29:00Z</time></trkpt><trkpt lat="44.50701851677659" lon="9.175351202434147"><ele>851.6000000000001</ele><time>2026-03-28T13:29:00.999Z</time></trkpt><trkpt lat="44.506931452665846" lon="9.17538009794321"><ele>850.4</ele><time>2026-03-28T13:29:01.999Z</time></trkpt><trkpt lat="44.506866662966075" lon="9.175501023262333"><ele>849.2</ele><time>2026-03-28T13:29:02.999Z</time></trkpt><trkpt lat="44.506829471779625" lon="9.175655363827305"><ele>848.0</ele><time>2026-03-28T13:29:03.999Z</time></trkpt><trkpt lat="44.50680255002536" lon="9.175817986993302"><ele>844.8</ele><time>2026-03-28T13:29:04.999Z</time></trkpt><trkpt lat="44.50680297119414" lon="9.175979370575565"><ele>841.5999999999999</ele><time>2026-03-28T13:29:05.999Z</time></trkpt><trkpt lat="44.50685089323564" lon="9.176107934369826"><ele>838.4000000000001</ele><time>2026-03-28T13:29:06.999Z</time></trkpt><trkpt lat="44.506941947344714" lon="9.176195470112425"><ele>835.2</ele><time>2026-03-28T13:29:07.999Z</time></trkpt><trkpt lat="44.507042705694204" lon="9.176278561815653"><ele>832.0</ele><time>2026-03-28T13:29:08.999Z</time></trkpt><trkpt lat="44.507154794601455" lon="9.176357779262984"><ele>832.25</ele><time>2026-03-28T13:29:09.999Z</time></trkpt><trkpt lat="44.507266090661936" lon="9.176453202896642"><ele>832.5</ele><time>2026-03-28T13:29:10.999Z</time></trkpt><trkpt lat="44.507373731966666" lon="9.176547385294072"><ele>832.75</ele><time>2026-03-28T13:29:11.999Z</time></trkpt><trkpt lat="44.5074776460902" lon="9.176636654411789"><ele>833.0</ele><time>2026-03-28T13:29:12.999Z</time></trkpt><trkpt lat="44.50755593947481" lon="9.17670228437633"><ele>833.0000000000001</ele><time>2026-03-28T13:29:13.999Z</time></trkpt><trkpt lat="44.5076187069944" lon="9.176767620043911"><ele>833.0</ele><time>2026-03-28T13:29:15.999Z</time></trkpt><trkpt lat="44.50770606146234" lon="9.176790910895722"><ele>833.0</ele><time>2026-03-28T13:29:54.999Z</time></trkpt><trkpt lat="44.507793923101524" lon="9.176906301264044"><ele>833.0</ele><time>2026-03-28T13:29:56.999Z</time></trkpt><trkpt lat="44.50786008478505" lon="9.176928316422837"><ele>833.0000000000001</ele><time>2026-03-28T13:29:57.999Z</time></trkpt><trkpt lat="44.507922530463766" lon="9.176943773627539"><ele>833.0</ele><time>2026-03-28T13:29:58.999Z</time></trkpt><trkpt lat="44.507996535225445" lon="9.176951129080203"><ele>834.0000000000001</ele><time>2026-03-28T13:29:59.999Z</time></trkpt><trkpt lat="44.508069894328536" lon="9.176980359843256"><ele>835.0</ele><time>2026-03-28T13:30:00.999Z</time></trkpt><trkpt lat="44.50814130636285" lon="9.177037794107136"><ele>836.0</ele><time>2026-03-28T13:30:01.999Z</time></trkpt><trkpt lat="44.508209498595306" lon="9.177111142845266"><ele>837.0</ele><time>2026-03-28T13:30:02.999Z</time></trkpt><trkpt lat="44.50826867962009" lon="9.177207754423076"><ele>838.0000000000001</ele><time>2026-03-28T13:30:03.999Z</time></trkpt><trkpt lat="44.50833247190135" lon="9.177321134369581"><ele>839.0</ele><time>2026-03-28T13:30:04.999Z</time></trkpt><trkpt lat="44.50839614302235" lon="9.17743597942301"><ele>839.0</ele><time>2026-03-28T13:30:05.999Z</time></trkpt><trkpt lat="44.50846361348132" lon="9.17755269380344"><ele>839.0</ele><time>2026-03-28T13:30:06.999Z</time></trkpt><trkpt lat="44.50851765630402" lon="9.177666636038118"><ele>839.0</ele><time>2026-03-28T13:30:07.999Z</time></trkpt><trkpt lat="44.50854894906268" lon="9.177785281998183"><ele>839.0</ele><time>2026-03-28T13:30:08.999Z</time></trkpt><trkpt lat="44.50854859526759" lon="9.177921972632086"><ele>839.0</ele><time>2026-03-28T13:30:09.999Z</time></trkpt><trkpt lat="44.50859611071914" lon="9.178038735576594"><ele>839.0</ele><time>2026-03-28T13:30:11Z</time></trkpt><trkpt lat="44.50870862544023" lon="9.178097702951883"><ele>839.0</ele><time>2026-03-28T13:30:12Z</time></trkpt><trkpt lat="44.50878555561037" lon="9.178193552960565"><ele>839.0</ele><time>2026-03-28T13:30:13Z</time></trkpt><trkpt lat="44.50884262846395" lon="9.178298114392039"><ele>839.0</ele><time>2026-03-28T13:30:14Z</time></trkpt><trkpt lat="44.508880090529416" lon="9.178388542592568"><ele>839.0</ele><time>2026-03-28T13:30:15Z</time></trkpt><trkpt lat="44.508872598200014" lon="9.178509622522249"><ele>839.0000000000001</ele><time>2026-03-28T13:30:17Z</time></trkpt><trkpt lat="44.50879205209176" lon="9.178496497665549"><ele>839.0</ele><time>2026-03-28T13:30:19Z</time></trkpt><trkpt lat="44.50874389935308" lon="9.17839852223474"><ele>839.0</ele><time>2026-03-28T13:30:20Z</time></trkpt><trkpt lat="44.50869386338745" lon="9.17831009673433"><ele>839.0</ele><time>2026-03-28T13:30:21Z</time></trkpt><trkpt lat="44.508620492499645" lon="9.178254728872165"><ele>839.0000000000001</ele><time>2026-03-28T13:30:22Z</time></trkpt><trkpt lat="44.508536659731064" lon="9.178180514066474"><ele>839.0</ele><time>2026-03-28T13:30:23Z</time></trkpt><trkpt lat="44.50846454088491" lon="9.178072925039071"><ele>839.0</ele><time>2026-03-28T13:30:24Z</time></trkpt><trkpt lat="44.50839096778453" lon="9.177963633855558"><ele>839.0</ele><time>2026-03-28T13:30:25Z</time></trkpt><trkpt lat="44.508315115145706" lon="9.177862888921512"><ele>839.0</ele><time>2026-03-28T13:30:26Z</time></trkpt><trkpt lat="44.5082329649297" lon="9.177761844435365"><ele>839.0</ele><time>2026-03-28T13:30:27Z</time></trkpt><trkpt lat="44.50814706515157" lon="9.17767159584035"><ele>839.0</ele><time>2026-03-28T13:30:28Z</time></trkpt><trkpt lat="44.508073674422434" lon="9.177615988859786"><ele>839.0000000000001</ele><time>2026-03-28T13:30:29Z</time></trkpt><trkpt lat="44.50799821054609" lon="9.177563789118544"><ele>839.0</ele><time>2026-03-28T13:30:30Z</time></trkpt><trkpt lat="44.507923917846526" lon="9.177547158414672"><ele>839.0</ele><time>2026-03-28T13:30:31Z</time></trkpt><trkpt lat="44.50783035340209" lon="9.177524138205468"><ele>839.0</ele><time>2026-03-28T13:30:32Z</time></trkpt><trkpt lat="44.50773659881965" lon="9.177552055764183"><ele>839.0000000000001</ele><time>2026-03-28T13:30:33Z</time></trkpt><trkpt lat="44.507638573330524" lon="9.177559368465221"><ele>839.0</ele><time>2026-03-28T13:30:34Z</time></trkpt><trkpt lat="44.50754287237953" lon="9.177555315960857"><ele>843.4000000000001</ele><time>2026-03-28T13:30:35Z</time></trkpt><trkpt lat="44.50744536430603" lon="9.177526703526405"><ele>847.8</ele><time>2026-03-28T13:30:36Z</time></trkpt><trkpt lat="44.50735146242431" lon="9.177483852745599"><ele>852.1999999999999</ele><time>2026-03-28T13:30:37Z</time></trkpt><trkpt lat="44.507257093981025" lon="9.177437257593946"><ele>856.5999999999999</ele><time>2026-03-28T13:30:38Z</time></trkpt><trkpt lat="44.50716645251655" lon="9.177409517887925"><ele>861.0</ele><time>2026-03-28T13:30:39Z</time></trkpt><trkpt lat="44.507085632454384" lon="9.177387338236139"><ele>863.0</ele><time>2026-03-28T13:30:40Z</time></trkpt><trkpt lat="44.5069988121165" lon="9.177417676242694"><ele>865.0</ele><time>2026-03-28T13:30:41Z</time></trkpt><trkpt lat="44.506926143541264" lon="9.17747910676908"><ele>867.0</ele><time>2026-03-28T13:30:42Z</time></trkpt><trkpt lat="44.50685438289552" lon="9.177512045630744"><ele>869.0</ele><time>2026-03-28T13:30:43Z</time></trkpt><trkpt lat="44.506774726188596" lon="9.177467206434846"><ele>871.0</ele><time>2026-03-28T13:30:44Z</time></trkpt><trkpt lat="44.5067087808229" lon="9.177380982726286"><ele>873.0</ele><time>2026-03-28T13:30:45Z</time></trkpt><trkpt lat="44.506645008207975" lon="9.177286488306875"><ele>869.8333333333334</ele><time>2026-03-28T13:30:46Z</time></trkpt><trkpt lat="44.50657134457509" lon="9.177198500448666"><ele>866.6666666666667</ele><time>2026-03-28T13:30:47Z</time></trkpt><trkpt lat="44.50649567842197" lon="9.177122868026952"><ele>863.5</ele><time>2026-03-28T13:30:48Z</time></trkpt><trkpt lat="44.5064215552001" lon="9.177081861942991"><ele>860.3333333333334</ele><time>2026-03-28T13:30:49Z</time></trkpt><trkpt lat="44.506358458814944" lon="9.177087613731967"><ele>857.1666666666667</ele><time>2026-03-28T13:30:50Z</time></trkpt><trkpt lat="44.506276227291394" lon="9.177096995157331"><ele>854.0</ele><time>2026-03-28T13:30:51Z</time></trkpt><trkpt lat="44.50619016819978" lon="9.177149707634612"><ele>854.0</ele><time>2026-03-28T13:30:52Z</time></trkpt><trkpt lat="44.50610465754299" lon="9.17721582433333"><ele>854.0000000000001</ele><time>2026-03-28T13:30:53Z</time></trkpt><trkpt lat="44.505999905047865" lon="9.177221514424343"><ele>854.0000000000001</ele><time>2026-03-28T13:30:54Z</time></trkpt><trkpt lat="44.505897590507864" lon="9.177228838540202"><ele>854.0</ele><time>2026-03-28T13:30:55Z</time></trkpt><trkpt lat="44.50579376424731" lon="9.177295035352747"><ele>854.0</ele><time>2026-03-28T13:30:56Z</time></trkpt><trkpt lat="44.50571285126519" lon="9.17739482408136"><ele>858.6</ele><time>2026-03-28T13:30:57Z</time></trkpt><trkpt lat="44.50566532781087" lon="9.177520163113773"><ele>863.2</ele><time>2026-03-28T13:30:58Z</time></trkpt><trkpt lat="44.50565078959998" lon="9.177675406105372"><ele>867.8000000000001</ele><time>2026-03-28T13:30:59Z</time></trkpt><trkpt lat="44.50564225707965" lon="9.177800676605823"><ele>872.4000000000001</ele><time>2026-03-28T13:31:00Z</time></trkpt><trkpt lat="44.50562339716725" lon="9.177913990484415"><ele>877.0</ele><time>2026-03-28T13:31:01Z</time></trkpt><trkpt lat="44.50559055047834" lon="9.178001090508534"><ele>876.9999999999999</ele><time>2026-03-28T13:31:02Z</time></trkpt><trkpt lat="44.50548760211165" lon="9.178008457134665"><ele>877.0</ele><time>2026-03-28T13:31:04Z</time></trkpt><trkpt lat="44.50540985930523" lon="9.17799217004251"><ele>877.0</ele><time>2026-03-28T13:31:05Z</time></trkpt><trkpt lat="44.50533248323424" lon="9.177971326383418"><ele>877.0</ele><time>2026-03-28T13:31:06Z</time></trkpt><trkpt lat="44.50527223957102" lon="9.17799891711698"><ele>876.9999999999999</ele><time>2026-03-28T13:31:07Z</time></trkpt><trkpt lat="44.505208313334236" lon="9.178120794933621"><ele>877.0</ele><time>2026-03-28T13:31:08.999Z</time></trkpt><trkpt lat="44.50527894313239" lon="9.178216420954595"><ele>876.9999999999999</ele><time>2026-03-28T13:31:09.999Z</time></trkpt><trkpt lat="44.50540359285349" lon="9.178181377708786"><ele>877.0</ele><time>2026-03-28T13:31:10.999Z</time></trkpt><trkpt lat="44.50547260858291" lon="9.178229310012837"><ele>877.0</ele><time>2026-03-28T13:31:11.999Z</time></trkpt><trkpt lat="44.50554758297549" lon="9.178269458630531"><ele>877.0</ele><time>2026-03-28T13:31:12.999Z</time></trkpt><trkpt lat="44.50563149973605" lon="9.178250594684364"><ele>876.9999999999999</ele><time>2026-03-28T13:31:13.999Z</time></trkpt><trkpt lat="44.505692692974286" lon="9.178198507168533"><ele>877.0</ele><time>2026-03-28T13:31:14.999Z</time></trkpt><trkpt lat="44.50574607876192" lon="9.178106356595805"><ele>877.0</ele><time>2026-03-28T13:31:15.999Z</time></trkpt><trkpt lat="44.50577704825372" lon="9.177995519149947"><ele>877.0</ele><time>2026-03-28T13:31:16.999Z</time></trkpt><trkpt lat="44.505815901512165" lon="9.177877968866687"><ele>877.0</ele><time>2026-03-28T13:31:17.999Z</time></trkpt><trkpt lat="44.50588271707606" lon="9.17779882226893"><ele>877.0</ele><time>2026-03-28T13:31:18.999Z</time></trkpt><trkpt lat="44.505967246692414" lon="9.17774288944933"><ele>877.0</ele><time>2026-03-28T13:31:19.999Z</time></trkpt><trkpt lat="44.50607412970645" lon="9.17771267480861"><ele>876.9999999999999</ele><time>2026-03-28T13:31:20.999Z</time></trkpt><trkpt lat="44.5061742044612" lon="9.177696371011466"><ele>877.0</ele><time>2026-03-28T13:31:21.999Z</time></trkpt><trkpt lat="44.50625734466961" lon="9.177732621293654"><ele>877.0</ele><time>2026-03-28T13:31:23.999Z</time></trkpt><trkpt lat="44.506231156911696" lon="9.177837437995956"><ele>877.0</ele><time>2026-03-28T13:31:25.999Z</time></trkpt><trkpt lat="44.50614994811686" lon="9.177811254555436"><ele>876.9999999999999</ele><time>2026-03-28T13:31:26.999Z</time></trkpt><trkpt lat="44.50607610378099" lon="9.17784623793786"><ele>877.0</ele><time>2026-03-28T13:31:27.999Z</time></trkpt><trkpt lat="44.50601380085881" lon="9.177895457721224"><ele>877.0</ele><time>2026-03-28T13:31:28.999Z</time></trkpt><trkpt lat="44.50594453274368" lon="9.177950531650747"><ele>877.0</ele><time>2026-03-28T13:31:29.999Z</time></trkpt><trkpt lat="44.50588976788867" lon="9.178063631444607"><ele>877.0</ele><time>2026-03-28T13:31:30.999Z</time></trkpt><trkpt lat="44.50584446062539" lon="9.178184939173574"><ele>877.0</ele><time>2026-03-28T13:31:31.999Z</time></trkpt><trkpt lat="44.505813006198736" lon="9.178326674325302"><ele>877.0</ele><time>2026-03-28T13:31:32.999Z</time></trkpt><trkpt lat="44.505779559988035" lon="9.178440707566043"><ele>879.3333333333333</ele><time>2026-03-28T13:31:33.999Z</time></trkpt><trkpt lat="44.50572757822902" lon="9.178525370531856"><ele>881.6666666666666</ele><time>2026-03-28T13:31:34.999Z</time></trkpt><trkpt lat="44.505652640562765" lon="9.178612180500155"><ele>884.0</ele><time>2026-03-28T13:31:35.999Z</time></trkpt><trkpt lat="44.505562172378305" lon="9.17864793461296"><ele>886.3333333333333</ele><time>2026-03-28T13:31:36.999Z</time></trkpt><trkpt lat="44.50549238189787" lon="9.17863900717106"><ele>888.6666666666666</ele><time>2026-03-28T13:31:37.999Z</time></trkpt><trkpt lat="44.50540748436157" lon="9.17860357398535"><ele>891.0</ele><time>2026-03-28T13:31:38.999Z</time></trkpt><trkpt lat="44.505314879473346" lon="9.178583774785977"><ele>891.0</ele><time>2026-03-28T13:31:39.999Z</time></trkpt><trkpt lat="44.50523307955842" lon="9.178621834120223"><ele>890.9999999999999</ele><time>2026-03-28T13:31:40.999Z</time></trkpt><trkpt lat="44.50515109794716" lon="9.17867602056125"><ele>890.9999999999999</ele><time>2026-03-28T13:31:41.999Z</time></trkpt><trkpt lat="44.50508805535841" lon="9.178772671329602"><ele>891.0</ele><time>2026-03-28T13:31:42.999Z</time></trkpt><trkpt lat="44.505023572654856" lon="9.178878533352828"><ele>891.0</ele><time>2026-03-28T13:31:43.999Z</time></trkpt><trkpt lat="44.504958159747744" lon="9.17898592245354"><ele>896.0</ele><time>2026-03-28T13:31:44.999Z</time></trkpt><trkpt lat="44.504901185797614" lon="9.179112209562659"><ele>901.0</ele><time>2026-03-28T13:31:45.999Z</time></trkpt><trkpt lat="44.504883976205846" lon="9.179256155613942"><ele>906.0</ele><time>2026-03-28T13:31:46.999Z</time></trkpt><trkpt lat="44.50486200721023" lon="9.179352584286782"><ele>911.0</ele><time>2026-03-28T13:31:47.999Z</time></trkpt><trkpt lat="44.50482932483954" lon="9.179435683983904"><ele>916.0</ele><time>2026-03-28T13:31:48.999Z</time></trkpt><trkpt lat="44.50475552213949" lon="9.179466332997274"><ele>921.0</ele><time>2026-03-28T13:31:49.999Z</time></trkpt><trkpt lat="44.50467998496925" lon="9.179451350879326"><ele>921.0</ele><time>2026-03-28T13:31:50.999Z</time></trkpt><trkpt lat="44.50461795568191" lon="9.179470717973597"><ele>920.9999999999999</ele><time>2026-03-28T13:31:51.999Z</time></trkpt><trkpt lat="44.504553332857476" lon="9.179531379668227"><ele>920.9999999999999</ele><time>2026-03-28T13:31:52.999Z</time></trkpt><trkpt lat="44.50450599877642" lon="9.17966741294996"><ele>921.0</ele><time>2026-03-28T13:31:53.999Z</time></trkpt><trkpt lat="44.504469806980055" lon="9.179768696739691"><ele>921.0</ele><time>2026-03-28T13:31:54.999Z</time></trkpt><trkpt lat="44.504356188737425" lon="9.179839872578514"><ele>922.8333333333334</ele><time>2026-03-28T13:31:56.999Z</time></trkpt><trkpt lat="44.50428032876766" lon="9.179792969207115"><ele>924.6666666666667</ele><time>2026-03-28T13:31:57.999Z</time></trkpt><trkpt lat="44.50421133123497" lon="9.179744885674635"><ele>926.5</ele><time>2026-03-28T13:31:58.999Z</time></trkpt><trkpt lat="44.50412564673716" lon="9.179747957179915"><ele>928.3333333333334</ele><time>2026-03-28T13:31:59.999Z</time></trkpt><trkpt lat="44.50404815219323" lon="9.179797454081923"><ele>930.1666666666667</ele><time>2026-03-28T13:32:00.999Z</time></trkpt><trkpt lat="44.50396884229475" lon="9.179843526122115"><ele>932.0</ele><time>2026-03-28T13:32:01.999Z</time></trkpt><trkpt lat="44.50391323213508" lon="9.179939999670164"><ele>932.0000000000001</ele><time>2026-03-28T13:32:02.999Z</time></trkpt><trkpt lat="44.50384307782872" lon="9.180013638975081"><ele>932.0</ele><time>2026-03-28T13:32:03.999Z</time></trkpt><trkpt lat="44.50374456482463" lon="9.180064695945354"><ele>932.0</ele><time>2026-03-28T13:32:04.999Z</time></trkpt><trkpt lat="44.503656971720034" lon="9.180096765929392"><ele>932.0</ele><time>2026-03-28T13:32:05.999Z</time></trkpt><trkpt lat="44.50356840716977" lon="9.180116865370952"><ele>932.0000000000001</ele><time>2026-03-28T13:32:06.999Z</time></trkpt><trkpt lat="44.5034946582063" lon="9.180112057538768"><ele>932.0</ele><time>2026-03-28T13:32:07.999Z</time></trkpt><trkpt lat="44.50343239186961" lon="9.180062283327793"><ele>933.2</ele><time>2026-03-28T13:32:08.999Z</time></trkpt><trkpt lat="44.503397956580955" lon="9.179933346879729"><ele>934.4000000000001</ele><time>2026-03-28T13:32:09.999Z</time></trkpt><trkpt lat="44.50334158749141" lon="9.179822239632813"><ele>935.5999999999999</ele><time>2026-03-28T13:32:10.999Z</time></trkpt><trkpt lat="44.50330053748402" lon="9.179695902569662"><ele>936.8</ele><time>2026-03-28T13:32:11.999Z</time></trkpt><trkpt lat="44.50329072115373" lon="9.179555542199223"><ele>938.0</ele><time>2026-03-28T13:32:12.999Z</time></trkpt><trkpt lat="44.50333930988426" lon="9.179440042331649"><ele>938.0</ele><time>2026-03-28T13:32:13.999Z</time></trkpt><trkpt lat="44.50335681466248" lon="9.179303933483883"><ele>938.0</ele><time>2026-03-28T13:32:14.999Z</time></trkpt><trkpt lat="44.50339340519481" lon="9.17918277310355"><ele>938.0</ele><time>2026-03-28T13:32:15.999Z</time></trkpt><trkpt lat="44.503413355300296" lon="9.179057609860482"><ele>938.0</ele><time>2026-03-28T13:32:17Z</time></trkpt><trkpt lat="44.50340610896118" lon="9.17893209150091"><ele>938.0</ele><time>2026-03-28T13:32:18Z</time></trkpt><trkpt lat="44.503374468876785" lon="9.178806572012611"><ele>938.3333333333334</ele><time>2026-03-28T13:32:19Z</time></trkpt><trkpt lat="44.50334177214992" lon="9.17868264734136"><ele>938.6666666666667</ele><time>2026-03-28T13:32:20Z</time></trkpt><trkpt lat="44.50334354358833" lon="9.17856598616597"><ele>939.0</ele><time>2026-03-28T13:32:21Z</time></trkpt><trkpt lat="44.50337083705231" lon="9.178446185581592"><ele>939.3333333333333</ele><time>2026-03-28T13:32:22Z</time></trkpt><trkpt lat="44.503402771945595" lon="9.178331182430586"><ele>939.6666666666666</ele><time>2026-03-28T13:32:23Z</time></trkpt><trkpt lat="44.50341482849499" lon="9.178210064947509"><ele>940.0</ele><time>2026-03-28T13:32:24Z</time></trkpt><trkpt lat="44.5034051934714" lon="9.178086059594222"><ele>940.0</ele><time>2026-03-28T13:32:25Z</time></trkpt><trkpt lat="44.50340829549278" lon="9.177958509073367"><ele>940.0</ele><time>2026-03-28T13:32:26Z</time></trkpt><trkpt lat="44.503418820762384" lon="9.177838669974495"><ele>940.0</ele><time>2026-03-28T13:32:27Z</time></trkpt><trkpt lat="44.50341911997795" lon="9.177748762340624"><ele>940.0</ele><time>2026-03-28T13:32:28Z</time></trkpt><trkpt lat="44.503397178599585" lon="9.177656150922466"><ele>940.0</ele><time>2026-03-28T13:32:29Z</time></trkpt><trkpt lat="44.50329329337658" lon="9.177518525201775"><ele>940.0</ele><time>2026-03-28T13:32:31Z</time></trkpt><trkpt lat="44.5031955727722" lon="9.17749607390725"><ele>940.0</ele><time>2026-03-28T13:32:32Z</time></trkpt><trkpt lat="44.50310840709051" lon="9.177451318186225"><ele>940.0</ele><time>2026-03-28T13:32:33Z</time></trkpt><trkpt lat="44.50301834790703" lon="9.177391015462742"><ele>940.0</ele><time>2026-03-28T13:32:34Z</time></trkpt><trkpt lat="44.50292427080747" lon="9.177351809372203"><ele>940.0</ele><time>2026-03-28T13:32:35Z</time></trkpt><trkpt lat="44.502868515325936" lon="9.177287555509103"><ele>941.0</ele><time>2026-03-28T13:32:36Z</time></trkpt><trkpt lat="44.50280558440094" lon="9.177251659803996"><ele>942.0</ele><time>2026-03-28T13:32:37Z</time></trkpt><trkpt lat="44.502720618506224" lon="9.177244706685874"><ele>943.0</ele><time>2026-03-28T13:32:38Z</time></trkpt><trkpt lat="44.502636119066835" lon="9.177299050765757"><ele>944.0</ele><time>2026-03-28T13:32:39Z</time></trkpt><trkpt lat="44.502561515006306" lon="9.177408823582205"><ele>945.0</ele><time>2026-03-28T13:32:40Z</time></trkpt><trkpt lat="44.50251259528454" lon="9.177532914736386"><ele>945.0</ele><time>2026-03-28T13:32:41Z</time></trkpt><trkpt lat="44.5024642418273" lon="9.177685603950135"><ele>945.0</ele><time>2026-03-28T13:32:42Z</time></trkpt><trkpt lat="44.502423435452776" lon="9.177814600205716"><ele>945.0</ele><time>2026-03-28T13:32:43Z</time></trkpt><trkpt lat="44.50237712774287" lon="9.177911691863516"><ele>945.0</ele><time>2026-03-28T13:32:44Z</time></trkpt><trkpt lat="44.50230322038418" lon="9.17796574524934"><ele>945.0</ele><time>2026-03-28T13:32:45Z</time></trkpt><trkpt lat="44.502207098315196" lon="9.17801710755518"><ele>945.0</ele><time>2026-03-28T13:32:46Z</time></trkpt><trkpt lat="44.50210444691093" lon="9.178041304953183"><ele>945.0</ele><time>2026-03-28T13:32:47Z</time></trkpt><trkpt lat="44.501987935109035" lon="9.178051461518551"><ele>945.0</ele><time>2026-03-28T13:32:48Z</time></trkpt><trkpt lat="44.50187490646277" lon="9.178113452520734"><ele>945.0</ele><time>2026-03-28T13:32:49Z</time></trkpt><trkpt lat="44.50178350604239" lon="9.178196530788911"><ele>950.25</ele><time>2026-03-28T13:32:50Z</time></trkpt><trkpt lat="44.50168036718932" lon="9.178282517067487"><ele>955.5</ele><time>2026-03-28T13:32:51Z</time></trkpt><trkpt lat="44.50156848881865" lon="9.178367418030508"><ele>960.75</ele><time>2026-03-28T13:32:52Z</time></trkpt><trkpt lat="44.50146170420358" lon="9.178448828402459"><ele>966.0</ele><time>2026-03-28T13:32:53Z</time></trkpt><trkpt lat="44.50136331612351" lon="9.178522936898032"><ele>966.0</ele><time>2026-03-28T13:32:54Z</time></trkpt><trkpt lat="44.501287550823136" lon="9.17855466925497"><ele>966.0</ele><time>2026-03-28T13:32:55Z</time></trkpt><trkpt lat="44.50120419207944" lon="9.178519293090783"><ele>966.0</ele><time>2026-03-28T13:32:56Z</time></trkpt><trkpt lat="44.50113071925422" lon="9.178439092975406"><ele>966.0</ele><time>2026-03-28T13:32:57Z</time></trkpt><trkpt lat="44.501078938535066" lon="9.178339808188237"><ele>966.0</ele><time>2026-03-28T13:32:58Z</time></trkpt><trkpt lat="44.50102605442502" lon="9.178255329123973"><ele>966.0</ele><time>2026-03-28T13:32:59Z</time></trkpt><trkpt lat="44.50094766280916" lon="9.178211072670283"><ele>966.8</ele><time>2026-03-28T13:33:00Z</time></trkpt><trkpt lat="44.500863026237596" lon="9.17819096588551"><ele>967.5999999999999</ele><time>2026-03-28T13:33:01Z</time></trkpt><trkpt lat="44.50077720358944" lon="9.178211254837299"><ele>968.4</ele><time>2026-03-28T13:33:02Z</time></trkpt><trkpt lat="44.500690974751144" lon="9.178244175632164"><ele>969.2</ele><time>2026-03-28T13:33:03Z</time></trkpt><trkpt lat="44.50061304563777" lon="9.178319836700979"><ele>970.0</ele><time>2026-03-28T13:33:04Z</time></trkpt><trkpt lat="44.500540257712046" lon="9.178405779860212"><ele>970.0</ele><time>2026-03-28T13:33:05Z</time></trkpt><trkpt lat="44.50043832247469" lon="9.178403623791997"><ele>970.0</ele><time>2026-03-28T13:33:06Z</time></trkpt><trkpt lat="44.50035503180083" lon="9.178355986070486"><ele>970.0</ele><time>2026-03-28T13:33:07Z</time></trkpt><trkpt lat="44.500281886068365" lon="9.178315694407447"><ele>970.0</ele><time>2026-03-28T13:33:08Z</time></trkpt><trkpt lat="44.500200800215445" lon="9.178326860207292"><ele>970.0</ele><time>2026-03-28T13:33:09Z</time></trkpt><trkpt lat="44.50011081323452" lon="9.17839684592501"><ele>968.6</ele><time>2026-03-28T13:33:09.999Z</time></trkpt><trkpt lat="44.500041228890844" lon="9.178495117344402"><ele>967.2</ele><time>2026-03-28T13:33:10.999Z</time></trkpt><trkpt lat="44.49999284553807" lon="9.178620239417599"><ele>965.8</ele><time>2026-03-28T13:33:11.999Z</time></trkpt><trkpt lat="44.499974938666064" lon="9.178751537789582"><ele>964.4</ele><time>2026-03-28T13:33:12.999Z</time></trkpt><trkpt lat="44.49996361139446" lon="9.178896848582982"><ele>963.0</ele><time>2026-03-28T13:33:13.999Z</time></trkpt><trkpt lat="44.49995449965371" lon="9.179029568460027"><ele>967.8</ele><time>2026-03-28T13:33:14.999Z</time></trkpt><trkpt lat="44.49992998165024" lon="9.179146039420768"><ele>972.5999999999999</ele><time>2026-03-28T13:33:15.999Z</time></trkpt><trkpt lat="44.49987279192794" lon="9.179249776325014"><ele>977.4000000000001</ele><time>2026-03-28T13:33:16.999Z</time></trkpt><trkpt lat="44.49978982228261" lon="9.179346550638158"><ele>982.2</ele><time>2026-03-28T13:33:17.999Z</time></trkpt><trkpt lat="44.499710964388065" lon="9.179446751616618"><ele>987.0</ele><time>2026-03-28T13:33:18.999Z</time></trkpt><trkpt lat="44.4996097797765" lon="9.17947460563912"><ele>983.5</ele><time>2026-03-28T13:33:19.999Z</time></trkpt><trkpt lat="44.49948812891303" lon="9.179472255566399"><ele>980.0</ele><time>2026-03-28T13:33:20.999Z</time></trkpt><trkpt lat="44.49937611555312" lon="9.179469696992435"><ele>976.5</ele><time>2026-03-28T13:33:21.999Z</time></trkpt><trkpt lat="44.49925811079179" lon="9.179518573240628"><ele>973.0</ele><time>2026-03-28T13:33:22.999Z</time></trkpt><trkpt lat="44.499163091984286" lon="9.179623589279466"><ele>973.0</ele><time>2026-03-28T13:33:23.999Z</time></trkpt><trkpt lat="44.499061488146616" lon="9.179694213110828"><ele>973.0</ele><time>2026-03-28T13:33:24.999Z</time></trkpt><trkpt lat="44.49896245496231" lon="9.179685041049051"><ele>973.0</ele><time>2026-03-28T13:33:25.999Z</time></trkpt><trkpt lat="44.49885989000121" lon="9.179643042747582"><ele>973.0</ele><time>2026-03-28T13:33:26.999Z</time></trkpt><trkpt lat="44.49875258687828" lon="9.179616734449713"><ele>973.0</ele><time>2026-03-28T13:33:27.999Z</time></trkpt><trkpt lat="44.49862764258741" lon="9.179628456306938"><ele>976.4</ele><time>2026-03-28T13:33:28.999Z</time></trkpt><trkpt lat="44.49850951449618" lon="9.179633458278118"><ele>979.8</ele><time>2026-03-28T13:33:29.999Z</time></trkpt><trkpt lat="44.49842253158087" lon="9.17967766935379"><ele>983.2</ele><time>2026-03-28T13:33:30.999Z</time></trkpt><trkpt lat="44.49834548900085" lon="9.17962930806108"><ele>986.6</ele><time>2026-03-28T13:33:31.999Z</time></trkpt><trkpt lat="44.4982828052837" lon="9.17952525507075"><ele>990.0</ele><time>2026-03-28T13:33:32.999Z</time></trkpt><trkpt lat="44.49823001465768" lon="9.179391610892244"><ele>990.0</ele><time>2026-03-28T13:33:33.999Z</time></trkpt><trkpt lat="44.49817508541848" lon="9.179239079701427"><ele>990.0</ele><time>2026-03-28T13:33:34.999Z</time></trkpt><trkpt lat="44.49811853939488" lon="9.179081578944288"><ele>990.0</ele><time>2026-03-28T13:33:35.999Z</time></trkpt><trkpt lat="44.49810147490477" lon="9.178923660640624"><ele>990.0</ele><time>2026-03-28T13:33:36.999Z</time></trkpt><trkpt lat="44.49809252733302" lon="9.178793535079954"><ele>991.75</ele><time>2026-03-28T13:33:37.999Z</time></trkpt><trkpt lat="44.4980379256504" lon="9.178677901680047"><ele>993.5</ele><time>2026-03-28T13:33:38.999Z</time></trkpt><trkpt lat="44.49794557639355" lon="9.178566699988142"><ele>995.25</ele><time>2026-03-28T13:33:39.999Z</time></trkpt><trkpt lat="44.49783451204717" lon="9.178461490687374"><ele>997.0</ele><time>2026-03-28T13:33:40.999Z</time></trkpt><trkpt lat="44.49771653952592" lon="9.17835876679394"><ele>997.0</ele><time>2026-03-28T13:33:41.999Z</time></trkpt><trkpt lat="44.4976136426427" lon="9.178273930162081"><ele>997.0</ele><time>2026-03-28T13:33:42.999Z</time></trkpt><trkpt lat="44.497514868442664" lon="9.178226252483968"><ele>997.0</ele><time>2026-03-28T13:33:43.999Z</time></trkpt><trkpt lat="44.497430168629016" lon="9.17821220690497"><ele>997.0</ele><time>2026-03-28T13:33:44.999Z</time></trkpt><trkpt lat="44.497334976165874" lon="9.178218783944358"><ele>997.0</ele><time>2026-03-28T13:33:46.999Z</time></trkpt><trkpt lat="44.49733186712979" lon="9.178393455573564"><ele>997.0</ele><time>2026-03-28T13:33:48.999Z</time></trkpt><trkpt lat="44.4974619657505" lon="9.178408389576362"><ele>997.0</ele><time>2026-03-28T13:33:49.999Z</time></trkpt><trkpt lat="44.497538544146984" lon="9.178458531853694"><ele>997.0</ele><time>2026-03-28T13:33:50.999Z</time></trkpt><trkpt lat="44.49761116513809" lon="9.178536146567945"><ele>997.0</ele><time>2026-03-28T13:33:51.999Z</time></trkpt><trkpt lat="44.49764542533399" lon="9.178685689450456"><ele>997.0</ele><time>2026-03-28T13:33:52.999Z</time></trkpt><trkpt lat="44.49770524651152" lon="9.178836313536186"><ele>997.0</ele><time>2026-03-28T13:33:53.999Z</time></trkpt><trkpt lat="44.497744540336726" lon="9.178970758782816"><ele>997.0</ele><time>2026-03-28T13:33:54.999Z</time></trkpt><trkpt lat="44.49778290266001" lon="9.17910329037877"><ele>997.0</ele><time>2026-03-28T13:33:55.999Z</time></trkpt><trkpt lat="44.497818448141125" lon="9.179232787951705"><ele>997.0</ele><time>2026-03-28T13:33:56.999Z</time></trkpt><trkpt lat="44.49784688292115" lon="9.17935377762727"><ele>997.0</ele><time>2026-03-28T13:33:57.999Z</time></trkpt><trkpt lat="44.497882812392085" lon="9.179437472081387"><ele>1000.8333333333333</ele><time>2026-03-28T13:33:58.999Z</time></trkpt><trkpt lat="44.49789281878332" lon="9.179582887082061"><ele>1004.6666666666666</ele><time>2026-03-28T13:34:00.999Z</time></trkpt><trkpt lat="44.497796784602606" lon="9.179586831693173"><ele>1008.5</ele><time>2026-03-28T13:34:02.999Z</time></trkpt><trkpt lat="44.497770947562536" lon="9.17948348022758"><ele>1012.3333333333333</ele><time>2026-03-28T13:34:03.999Z</time></trkpt><trkpt lat="44.49770998860168" lon="9.17940977270627"><ele>1016.1666666666666</ele><time>2026-03-28T13:34:04.999Z</time></trkpt><trkpt lat="44.49766341109338" lon="9.179311763176443"><ele>1020.0</ele><time>2026-03-28T13:34:05.999Z</time></trkpt><trkpt lat="44.49761284443171" lon="9.179201368114168"><ele>1020.0</ele><time>2026-03-28T13:34:06.999Z</time></trkpt><trkpt lat="44.497560102066295" lon="9.179086569378594"><ele>1020.0</ele><time>2026-03-28T13:34:07.999Z</time></trkpt><trkpt lat="44.49750022486654" lon="9.178975564146254"><ele>1020.0</ele><time>2026-03-28T13:34:08.999Z</time></trkpt><trkpt lat="44.49744714670223" lon="9.178861626626448"><ele>1020.0</ele><time>2026-03-28T13:34:09.999Z</time></trkpt><trkpt lat="44.49737999350943" lon="9.178799093005162"><ele>1020.0</ele><time>2026-03-28T13:34:10.999Z</time></trkpt><trkpt lat="44.49730079673666" lon="9.178780272653674"><ele>1017.2</ele><time>2026-03-28T13:34:11.999Z</time></trkpt><trkpt lat="44.49721732432363" lon="9.178813043184567"><ele>1014.4</ele><time>2026-03-28T13:34:12.999Z</time></trkpt><trkpt lat="44.49713624299013" lon="9.178863725082406"><ele>1011.5999999999999</ele><time>2026-03-28T13:34:13.999Z</time></trkpt><trkpt lat="44.49704897426482" lon="9.178894509881209"><ele>1008.8</ele><time>2026-03-28T13:34:14.999Z</time></trkpt><trkpt lat="44.49695045544632" lon="9.178904187041647"><ele>1006.0</ele><time>2026-03-28T13:34:15.999Z</time></trkpt><trkpt lat="44.496843769057726" lon="9.17891262927812"><ele>1006.0</ele><time>2026-03-28T13:34:16.999Z</time></trkpt><trkpt lat="44.49673464656122" lon="9.178920881493008"><ele>1005.9999999999999</ele><time>2026-03-28T13:34:17.999Z</time></trkpt><trkpt lat="44.496632354973514" lon="9.178946940001312"><ele>1005.9999999999999</ele><time>2026-03-28T13:34:18.999Z</time></trkpt><trkpt lat="44.49653276127139" lon="9.178908527478434"><ele>1006.0</ele><time>2026-03-28T13:34:19.999Z</time></trkpt><trkpt lat="44.49644018090743" lon="9.178871151955422"><ele>1006.0</ele><time>2026-03-28T13:34:20.999Z</time></trkpt><trkpt lat="44.49635031868755" lon="9.178853074845204"><ele>1009.4</ele><time>2026-03-28T13:34:21.999Z</time></trkpt><trkpt lat="44.496249750824425" lon="9.178856760079258"><ele>1012.8</ele><time>2026-03-28T13:34:23Z</time></trkpt><trkpt lat="44.496143827793" lon="9.178907595610386"><ele>1016.1999999999999</ele><time>2026-03-28T13:34:24Z</time></trkpt><trkpt lat="44.496053371719526" lon="9.17897998877792"><ele>1019.5999999999999</ele><time>2026-03-28T13:34:25Z</time></trkpt><trkpt lat="44.495968838746286" lon="9.179021803623618"><ele>1023.0</ele><time>2026-03-28T13:34:26Z</time></trkpt><trkpt lat="44.4958760482826" lon="9.179031756581546"><ele>1023.0</ele><time>2026-03-28T13:34:27Z</time></trkpt><trkpt lat="44.4958095583481" lon="9.178958497858124"><ele>1023.0</ele><time>2026-03-28T13:34:28Z</time></trkpt><trkpt lat="44.49573840011764" lon="9.178891137006495"><ele>1023.0</ele><time>2026-03-28T13:34:29Z</time></trkpt><trkpt lat="44.49568191902525" lon="9.178792142382111"><ele>1023.0</ele><time>2026-03-28T13:34:30Z</time></trkpt><trkpt lat="44.49561689102585" lon="9.178716266831943"><ele>1023.0</ele><time>2026-03-28T13:34:31Z</time></trkpt><trkpt lat="44.495549178269464" lon="9.17867872993954"><ele>1023.0</ele><time>2026-03-28T13:34:32Z</time></trkpt><trkpt lat="44.495432100243335" lon="9.17867805313513"><ele>1020.0</ele><time>2026-03-28T13:34:34Z</time></trkpt><trkpt lat="44.49536576071117" lon="9.178719765564098"><ele>1017.0</ele><time>2026-03-28T13:34:36Z</time></trkpt><trkpt lat="44.495310260392614" lon="9.178781196424248"><ele>1014.0</ele><time>2026-03-28T13:36:38.999Z</time></trkpt><trkpt lat="44.49526751005705" lon="9.178932934170602"><ele>1011.0</ele><time>2026-03-28T13:36:43.999Z</time></trkpt><trkpt lat="44.495276043619064" lon="9.179091750325002"><ele>1008.0</ele><time>2026-03-28T13:36:45.999Z</time></trkpt><trkpt lat="44.495296015365376" lon="9.17920356486292"><ele>1007.8</ele><time>2026-03-28T13:36:46.999Z</time></trkpt><trkpt lat="44.49532696984284" lon="9.179323592005952"><ele>1007.5999999999999</ele><time>2026-03-28T13:36:47.999Z</time></trkpt><trkpt lat="44.495360359553565" lon="9.179447815974216"><ele>1007.4000000000001</ele><time>2026-03-28T13:36:48.999Z</time></trkpt><trkpt lat="44.49538248873086" lon="9.179585378481063"><ele>1007.2</ele><time>2026-03-28T13:36:49.999Z</time></trkpt><trkpt lat="44.495391673778165" lon="9.179722449571862"><ele>1007.0</ele><time>2026-03-28T13:36:50.999Z</time></trkpt><trkpt lat="44.49538132088098" lon="9.179851010747605"><ele>1007.0</ele><time>2026-03-28T13:36:51.999Z</time></trkpt><trkpt lat="44.495360319154805" lon="9.179980025809453"><ele>1007.0</ele><time>2026-03-28T13:36:52.999Z</time></trkpt><trkpt lat="44.49532220763043" lon="9.180113268755193"><ele>1007.0</ele><time>2026-03-28T13:36:53.999Z</time></trkpt><trkpt lat="44.49526574126847" lon="9.180249813921389"><ele>1007.0</ele><time>2026-03-28T13:36:54.999Z</time></trkpt><trkpt lat="44.4951999164212" lon="9.180385148293716"><ele>1007.0</ele><time>2026-03-28T13:36:55.999Z</time></trkpt><trkpt lat="44.49512296660261" lon="9.180520094863146"><ele>1007.0</ele><time>2026-03-28T13:36:56.999Z</time></trkpt><trkpt lat="44.49504699441419" lon="9.180652850474837"><ele>1007.0</ele><time>2026-03-28T13:36:57.999Z</time></trkpt><trkpt lat="44.49497636464139" lon="9.18077417853181"><ele>1007.0</ele><time>2026-03-28T13:36:58.999Z</time></trkpt><trkpt lat="44.49489553381077" lon="9.180883222775691"><ele>1007.0</ele><time>2026-03-28T13:36:59.999Z</time></trkpt><trkpt lat="44.494815200375335" lon="9.181005631361858"><ele>1010.4000000000001</ele><time>2026-03-28T13:37:00.999Z</time></trkpt><trkpt lat="44.49475751041549" lon="9.181148398383225"><ele>1013.8000000000001</ele><time>2026-03-28T13:37:01.999Z</time></trkpt><trkpt lat="44.494712884220796" lon="9.181295466513639"><ele>1017.2</ele><time>2026-03-28T13:37:02.999Z</time></trkpt><trkpt lat="44.49467145529719" lon="9.181439676511907"><ele>1020.6</ele><time>2026-03-28T13:37:03.999Z</time></trkpt><trkpt lat="44.49463333615568" lon="9.181573653428643"><ele>1024.0</ele><time>2026-03-28T13:37:04.999Z</time></trkpt><trkpt lat="44.49459328282845" lon="9.181690776892273"><ele>1020.3333333333333</ele><time>2026-03-28T13:37:05.999Z</time></trkpt><trkpt lat="44.49453969523031" lon="9.181771216625696"><ele>1016.6666666666666</ele><time>2026-03-28T13:37:06.999Z</time></trkpt><trkpt lat="44.49446820708526" lon="9.181796756449527"><ele>1013.0</ele><time>2026-03-28T13:37:07.999Z</time></trkpt><trkpt lat="44.49438427896718" lon="9.181823878091464"><ele>1009.3333333333333</ele><time>2026-03-28T13:37:08.999Z</time></trkpt><trkpt lat="44.49430045312677" lon="9.181867205681304"><ele>1005.6666666666666</ele><time>2026-03-28T13:37:09.999Z</time></trkpt><trkpt lat="44.49421830473017" lon="9.181951043208098"><ele>1002.0</ele><time>2026-03-28T13:37:10.999Z</time></trkpt><trkpt lat="44.4941604889469" lon="9.182075526904459"><ele>1002.0</ele><time>2026-03-28T13:37:11.999Z</time></trkpt><trkpt lat="44.49410576591654" lon="9.182196045109361"><ele>1002.0</ele><time>2026-03-28T13:37:12.999Z</time></trkpt><trkpt lat="44.494042920561796" lon="9.182303773041822"><ele>1002.0</ele><time>2026-03-28T13:37:13.999Z</time></trkpt><trkpt lat="44.493956801433036" lon="9.182386318847955"><ele>1002.0</ele><time>2026-03-28T13:37:14.999Z</time></trkpt><trkpt lat="44.49386194040193" lon="9.18243217580963"><ele>1002.0</ele><time>2026-03-28T13:37:15.999Z</time></trkpt><trkpt lat="44.49377198780338" lon="9.182484345738072"><ele>999.8</ele><time>2026-03-28T13:37:16.999Z</time></trkpt><trkpt lat="44.49368872510943" lon="9.182534875263864"><ele>997.6</ele><time>2026-03-28T13:37:17.999Z</time></trkpt><trkpt lat="44.493600751597434" lon="9.182597577404348"><ele>995.3999999999999</ele><time>2026-03-28T13:37:18.999Z</time></trkpt><trkpt lat="44.493521550760796" lon="9.182673775537612"><ele>993.1999999999999</ele><time>2026-03-28T13:37:19.999Z</time></trkpt><trkpt lat="44.4934544145345" lon="9.182752353119577"><ele>991.0</ele><time>2026-03-28T13:37:20.999Z</time></trkpt><trkpt lat="44.49338600424744" lon="9.18283705028692"><ele>991.0</ele><time>2026-03-28T13:37:21.999Z</time></trkpt><trkpt lat="44.49331313386943" lon="9.182932638501276"><ele>990.9999999999999</ele><time>2026-03-28T13:37:22.999Z</time></trkpt><trkpt lat="44.49323789268032" lon="9.18303518048482"><ele>990.9999999999999</ele><time>2026-03-28T13:37:23.999Z</time></trkpt><trkpt lat="44.493158681247586" lon="9.183139655612754"><ele>991.0</ele><time>2026-03-28T13:37:24.999Z</time></trkpt><trkpt lat="44.49307525595548" lon="9.183243225766091"><ele>991.0</ele><time>2026-03-28T13:37:25.999Z</time></trkpt><trkpt lat="44.49298196087086" lon="9.183341376091317"><ele>990.25</ele><time>2026-03-28T13:37:26.999Z</time></trkpt><trkpt lat="44.49289107735003" lon="9.18343965947782"><ele>989.5</ele><time>2026-03-28T13:37:27.999Z</time></trkpt><trkpt lat="44.49278499701059" lon="9.18350614844091"><ele>988.75</ele><time>2026-03-28T13:37:28.999Z</time></trkpt><trkpt lat="44.49268014993864" lon="9.183553319158104"><ele>988.0</ele><time>2026-03-28T13:37:29.999Z</time></trkpt><trkpt lat="44.49256677652566" lon="9.183585907803325"><ele>988.0</ele><time>2026-03-28T13:37:30.999Z</time></trkpt><trkpt lat="44.492462308835506" lon="9.183655474298558"><ele>988.0</ele><time>2026-03-28T13:37:31.999Z</time></trkpt><trkpt lat="44.4923622682018" lon="9.183727010924267"><ele>988.0</ele><time>2026-03-28T13:37:32.999Z</time></trkpt><trkpt lat="44.49226562847718" lon="9.183774763978983"><ele>988.0</ele><time>2026-03-28T13:37:33.999Z</time></trkpt><trkpt lat="44.492168268864845" lon="9.183778544558798"><ele>988.0</ele><time>2026-03-28T13:37:34.999Z</time></trkpt><trkpt lat="44.49207159921422" lon="9.183755850351636"><ele>987.8</ele><time>2026-03-28T13:37:35.999Z</time></trkpt><trkpt lat="44.49199160910598" lon="9.183667439511666"><ele>987.5999999999999</ele><time>2026-03-28T13:37:36.999Z</time></trkpt><trkpt lat="44.491915903865205" lon="9.183567098470538"><ele>987.4000000000001</ele><time>2026-03-28T13:37:37.999Z</time></trkpt><trkpt lat="44.49182156121644" lon="9.183483271371042"><ele>987.2</ele><time>2026-03-28T13:37:38.999Z</time></trkpt><trkpt lat="44.49170413683322" lon="9.183435256523085"><ele>987.0</ele><time>2026-03-28T13:37:39.999Z</time></trkpt><trkpt lat="44.491583275614744" lon="9.183387062345378"><ele>987.0</ele><time>2026-03-28T13:37:40.999Z</time></trkpt><trkpt lat="44.491461706417454" lon="9.183326895369346"><ele>987.0</ele><time>2026-03-28T13:37:41.999Z</time></trkpt><trkpt lat="44.491347926575585" lon="9.183256048584104"><ele>987.0</ele><time>2026-03-28T13:37:42.999Z</time></trkpt><trkpt lat="44.491240548717585" lon="9.183183927950958"><ele>987.0</ele><time>2026-03-28T13:37:43.999Z</time></trkpt><trkpt lat="44.49113925265162" lon="9.183113024802402"><ele>981.6</ele><time>2026-03-28T13:37:44.999Z</time></trkpt><trkpt lat="44.491036211337416" lon="9.18304749245742"><ele>976.2</ele><time>2026-03-28T13:37:45.999Z</time></trkpt><trkpt lat="44.490933250763526" lon="9.18299532138351"><ele>970.8</ele><time>2026-03-28T13:37:46.999Z</time></trkpt><trkpt lat="44.4908504324214" lon="9.182991682299015"><ele>965.4</ele><time>2026-03-28T13:37:47.999Z</time></trkpt><trkpt lat="44.49078137399738" lon="9.183032439356941"><ele>960.0</ele><time>2026-03-28T13:37:48.999Z</time></trkpt><trkpt lat="44.49071701109636" lon="9.183098795763014"><ele>963.2</ele><time>2026-03-28T13:37:49.999Z</time></trkpt><trkpt lat="44.49069864345053" lon="9.18324028130403"><ele>966.4</ele><time>2026-03-28T13:37:50.999Z</time></trkpt><trkpt lat="44.49074733934502" lon="9.183388868673156"><ele>969.5999999999999</ele><time>2026-03-28T13:37:51.999Z</time></trkpt><trkpt lat="44.49077878670816" lon="9.183527147764263"><ele>972.8</ele><time>2026-03-28T13:37:52.999Z</time></trkpt><trkpt lat="44.49080580218412" lon="9.183686606014774"><ele>976.0</ele><time>2026-03-28T13:37:53.999Z</time></trkpt><trkpt lat="44.49082876858829" lon="9.183851079309225"><ele>976.0</ele><time>2026-03-28T13:37:54.999Z</time></trkpt><trkpt lat="44.49084594313014" lon="9.184008521894334"><ele>975.9999999999999</ele><time>2026-03-28T13:37:55.999Z</time></trkpt><trkpt lat="44.4908438936776" lon="9.184156841849944"><ele>975.9999999999999</ele><time>2026-03-28T13:37:56.999Z</time></trkpt><trkpt lat="44.490811688331206" lon="9.184286717779614"><ele>976.0</ele><time>2026-03-28T13:37:57.999Z</time></trkpt><trkpt lat="44.49074123282039" lon="9.18435837560375"><ele>976.0</ele><time>2026-03-28T13:37:58.999Z</time></trkpt><trkpt lat="44.49066748096823" lon="9.184453955074636"><ele>976.75</ele><time>2026-03-28T13:37:59.999Z</time></trkpt><trkpt lat="44.49061161590686" lon="9.18458963538689"><ele>977.5</ele><time>2026-03-28T13:38:00.999Z</time></trkpt><trkpt lat="44.49056266542699" lon="9.184741297121484"><ele>978.25</ele><time>2026-03-28T13:38:01.999Z</time></trkpt><trkpt lat="44.49051500855245" lon="9.184896122447988"><ele>979.0</ele><time>2026-03-28T13:38:02.999Z</time></trkpt><trkpt lat="44.49048380435652" lon="9.185066820781321"><ele>979.6</ele><time>2026-03-28T13:38:03.999Z</time></trkpt><trkpt lat="44.49044726171494" lon="9.185204125896751"><ele>980.2</ele><time>2026-03-28T13:38:04.999Z</time></trkpt><trkpt lat="44.490378245882795" lon="9.185265619834803"><ele>980.8000000000001</ele><time>2026-03-28T13:38:05.999Z</time></trkpt><trkpt lat="44.49032783817132" lon="9.185343239378057"><ele>981.4000000000001</ele><time>2026-03-28T13:38:06.999Z</time></trkpt><trkpt lat="44.490299792564905" lon="9.185474475780445"><ele>982.0</ele><time>2026-03-28T13:38:07.999Z</time></trkpt><trkpt lat="44.4903146055672" lon="9.185611441029705"><ele>980.4000000000001</ele><time>2026-03-28T13:38:08.999Z</time></trkpt><trkpt lat="44.49033995196278" lon="9.185747127723834"><ele>978.8000000000001</ele><time>2026-03-28T13:38:09.999Z</time></trkpt><trkpt lat="44.4903730812046" lon="9.185892697897751"><ele>977.2</ele><time>2026-03-28T13:38:10.999Z</time></trkpt><trkpt lat="44.49041527380151" lon="9.186044709052922"><ele>975.6</ele><time>2026-03-28T13:38:11.999Z</time></trkpt><trkpt lat="44.490468625859755" lon="9.186189950881367"><ele>974.0</ele><time>2026-03-28T13:38:12.999Z</time></trkpt><trkpt lat="44.49055019583261" lon="9.186312813905923"><ele>974.0</ele><time>2026-03-28T13:38:13.999Z</time></trkpt><trkpt lat="44.49066023359204" lon="9.186396620780547"><ele>974.0</ele><time>2026-03-28T13:38:14.999Z</time></trkpt><trkpt lat="44.490743033242865" lon="9.186525413430537"><ele>974.0</ele><time>2026-03-28T13:38:15.999Z</time></trkpt><trkpt lat="44.49082855442023" lon="9.186650872714884"><ele>974.0</ele><time>2026-03-28T13:38:16.999Z</time></trkpt><trkpt lat="44.49089892823522" lon="9.186730560460937"><ele>970.6666666666667</ele><time>2026-03-28T13:38:17.999Z</time></trkpt><trkpt lat="44.49097642783346" lon="9.186752140199678"><ele>967.3333333333334</ele><time>2026-03-28T13:38:18.999Z</time></trkpt><trkpt lat="44.491057822552094" lon="9.186731496167338"><ele>964.0</ele><time>2026-03-28T13:38:19.999Z</time></trkpt><trkpt lat="44.49112605530395" lon="9.18668126183536"><ele>960.6666666666667</ele><time>2026-03-28T13:38:20.999Z</time></trkpt><trkpt lat="44.49122060692898" lon="9.186697714169037"><ele>957.3333333333334</ele><time>2026-03-28T13:38:22.999Z</time></trkpt><trkpt lat="44.4912018834019" lon="9.186850148080994"><ele>954.0</ele><time>2026-03-28T13:38:24.999Z</time></trkpt><trkpt lat="44.4911072800541" lon="9.186817771373878"><ele>954.0</ele><time>2026-03-28T13:38:25.999Z</time></trkpt><trkpt lat="44.491026058608405" lon="9.186842688325989"><ele>954.0000000000001</ele><time>2026-03-28T13:38:26.999Z</time></trkpt><trkpt lat="44.490937534392344" lon="9.186862044372567"><ele>954.0000000000001</ele><time>2026-03-28T13:38:27.999Z</time></trkpt><trkpt lat="44.49083834531311" lon="9.186832651678516"><ele>954.0</ele><time>2026-03-28T13:38:28.999Z</time></trkpt><trkpt lat="44.49072859785009" lon="9.186768977156408"><ele>954.0</ele><time>2026-03-28T13:38:29.999Z</time></trkpt><trkpt lat="44.490600285253564" lon="9.186718331880035"><ele>954.0</ele><time>2026-03-28T13:38:30.999Z</time></trkpt><trkpt lat="44.490465873709496" lon="9.186721098108544"><ele>954.0</ele><time>2026-03-28T13:38:31.999Z</time></trkpt><trkpt lat="44.490342222135055" lon="9.186686698724646"><ele>954.0</ele><time>2026-03-28T13:38:32.999Z</time></trkpt><trkpt lat="44.490216587701134" lon="9.186687445144516"><ele>954.0</ele><time>2026-03-28T13:38:33.999Z</time></trkpt><trkpt lat="44.490099091355276" lon="9.186719228107743"><ele>950.6</ele><time>2026-03-28T13:38:35Z</time></trkpt><trkpt lat="44.490006572345415" lon="9.18677571822793"><ele>947.2</ele><time>2026-03-28T13:38:36Z</time></trkpt><trkpt lat="44.4899311349254" lon="9.186908582122857"><ele>943.8000000000001</ele><time>2026-03-28T13:38:37Z</time></trkpt><trkpt lat="44.48989312255088" lon="9.187058065921175"><ele>940.4000000000001</ele><time>2026-03-28T13:38:38Z</time></trkpt><trkpt lat="44.48984194493484" lon="9.18718975636316"><ele>937.0</ele><time>2026-03-28T13:38:39Z</time></trkpt><trkpt lat="44.4897703927351" lon="9.187316986278368"><ele>934.5</ele><time>2026-03-28T13:38:40Z</time></trkpt><trkpt lat="44.48969604141478" lon="9.187461507707317"><ele>932.0</ele><time>2026-03-28T13:38:41Z</time></trkpt><trkpt lat="44.489631147305666" lon="9.187612556714017"><ele>929.5</ele><time>2026-03-28T13:38:42Z</time></trkpt><trkpt lat="44.489566005299466" lon="9.187760008523632"><ele>927.0</ele><time>2026-03-28T13:38:43Z</time></trkpt><trkpt lat="44.48950127227657" lon="9.18789731754551"><ele>924.6</ele><time>2026-03-28T13:38:44Z</time></trkpt><trkpt lat="44.489437892419375" lon="9.188031419699525"><ele>922.2</ele><time>2026-03-28T13:38:45Z</time></trkpt><trkpt lat="44.48937288738287" lon="9.18815346943101"><ele>919.8</ele><time>2026-03-28T13:38:46Z</time></trkpt><trkpt lat="44.48929925502906" lon="9.188244129645055"><ele>917.4</ele><time>2026-03-28T13:38:47Z</time></trkpt><trkpt lat="44.489222869699276" lon="9.188313898495924"><ele>915.0</ele><time>2026-03-28T13:38:48Z</time></trkpt><trkpt lat="44.48915243122988" lon="9.18838804755331"><ele>915.0</ele><time>2026-03-28T13:38:49Z</time></trkpt><trkpt lat="44.48910414527214" lon="9.188498141000325"><ele>915.0</ele><time>2026-03-28T13:38:50Z</time></trkpt><trkpt lat="44.48907867513269" lon="9.188624631999195"><ele>915.0</ele><time>2026-03-28T13:38:51Z</time></trkpt><trkpt lat="44.489127284202326" lon="9.18877751980764"><ele>915.0</ele><time>2026-03-28T13:38:52Z</time></trkpt><trkpt lat="44.489154613394" lon="9.18893661300626"><ele>915.0</ele><time>2026-03-28T13:38:53Z</time></trkpt><trkpt lat="44.48921748705752" lon="9.189092244293942"><ele>914.5</ele><time>2026-03-28T13:38:54Z</time></trkpt><trkpt lat="44.4892483778941" lon="9.189272863544149"><ele>914.0</ele><time>2026-03-28T13:38:55Z</time></trkpt><trkpt lat="44.48927833798754" lon="9.189465190700814"><ele>913.5</ele><time>2026-03-28T13:38:56Z</time></trkpt><trkpt lat="44.489311550117726" lon="9.189663154617708"><ele>913.0</ele><time>2026-03-28T13:38:57Z</time></trkpt><trkpt lat="44.489350998838" lon="9.189851272404624"><ele>910.75</ele><time>2026-03-28T13:38:58Z</time></trkpt><trkpt lat="44.48939687625631" lon="9.190035524019061"><ele>908.5</ele><time>2026-03-28T13:38:59Z</time></trkpt><trkpt lat="44.4894424199234" lon="9.190214001605627"><ele>906.25</ele><time>2026-03-28T13:39:00Z</time></trkpt><trkpt lat="44.489482565959314" lon="9.190387881242998"><ele>904.0</ele><time>2026-03-28T13:39:01Z</time></trkpt><trkpt lat="44.48950475815538" lon="9.190561788062348"><ele>901.25</ele><time>2026-03-28T13:39:02Z</time></trkpt><trkpt lat="44.48948576690372" lon="9.190740171290006"><ele>898.5</ele><time>2026-03-28T13:39:03Z</time></trkpt><trkpt lat="44.48948831027652" lon="9.190905878081626"><ele>895.75</ele><time>2026-03-28T13:39:04Z</time></trkpt><trkpt lat="44.48949082246911" lon="9.19108419131328"><ele>893.0</ele><time>2026-03-28T13:39:05Z</time></trkpt><trkpt lat="44.48949330561517" lon="9.191262592950864"><ele>893.0</ele><time>2026-03-28T13:39:06Z</time></trkpt><trkpt lat="44.48948479411259" lon="9.191431297874725"><ele>893.0</ele><time>2026-03-28T13:39:07Z</time></trkpt><trkpt lat="44.48943172019441" lon="9.191592132888323"><ele>893.0</ele><time>2026-03-28T13:39:08Z</time></trkpt><trkpt lat="44.48938856002699" lon="9.19175339616649"><ele>893.0</ele><time>2026-03-28T13:39:09Z</time></trkpt><trkpt lat="44.48936385041173" lon="9.191913745209817"><ele>893.2</ele><time>2026-03-28T13:39:10Z</time></trkpt><trkpt lat="44.48935793565827" lon="9.192074015318969"><ele>893.4</ele><time>2026-03-28T13:39:11Z</time></trkpt><trkpt lat="44.48937373021758" lon="9.19223262613012"><ele>893.6000000000001</ele><time>2026-03-28T13:39:12Z</time></trkpt><trkpt lat="44.48939423909706" lon="9.192383404623623"><ele>893.8000000000001</ele><time>2026-03-28T13:39:13Z</time></trkpt><trkpt lat="44.48940800338923" lon="9.192533710219822"><ele>894.0</ele><time>2026-03-28T13:39:14Z</time></trkpt><trkpt lat="44.48941493727882" lon="9.192684171004144"><ele>894.0</ele><time>2026-03-28T13:39:15Z</time></trkpt><trkpt lat="44.48940603801153" lon="9.192829578739323"><ele>894.0</ele><time>2026-03-28T13:39:16Z</time></trkpt><trkpt lat="44.48935090015335" lon="9.192949685218723"><ele>894.0</ele><time>2026-03-28T13:39:17Z</time></trkpt><trkpt lat="44.48928048546944" lon="9.193096719659373"><ele>894.0</ele><time>2026-03-28T13:39:18Z</time></trkpt><trkpt lat="44.48919852921314" lon="9.193237279861153"><ele>896.5</ele><time>2026-03-28T13:39:19Z</time></trkpt><trkpt lat="44.489110391691796" lon="9.193374768059899"><ele>899.0</ele><time>2026-03-28T13:39:20Z</time></trkpt><trkpt lat="44.48901862558847" lon="9.193485757974958"><ele>901.5</ele><time>2026-03-28T13:39:21Z</time></trkpt><trkpt lat="44.48891942636037" lon="9.193573623027579"><ele>904.0</ele><time>2026-03-28T13:39:22Z</time></trkpt><trkpt lat="44.48880888526037" lon="9.193669599864041"><ele>901.5</ele><time>2026-03-28T13:39:23Z</time></trkpt><trkpt lat="44.4887057289313" lon="9.193789406530003"><ele>899.0</ele><time>2026-03-28T13:39:24Z</time></trkpt><trkpt lat="44.48862157268374" lon="9.193918073208664"><ele>896.5</ele><time>2026-03-28T13:39:24.999Z</time></trkpt><trkpt lat="44.48852347329723" lon="9.194016984656292"><ele>894.0</ele><time>2026-03-28T13:39:25.999Z</time></trkpt><trkpt lat="44.488397409496805" lon="9.194064748706161"><ele>894.0</ele><time>2026-03-28T13:39:26.999Z</time></trkpt><trkpt lat="44.48827896953068" lon="9.194148543142173"><ele>894.0</ele><time>2026-03-28T13:39:27.999Z</time></trkpt><trkpt lat="44.48817474067477" lon="9.194237588403858"><ele>894.0</ele><time>2026-03-28T13:39:28.999Z</time></trkpt><trkpt lat="44.48806614676754" lon="9.19429727755221"><ele>894.0</ele><time>2026-03-28T13:39:29.999Z</time></trkpt><trkpt lat="44.48794965742321" lon="9.194230253901647"><ele>889.5</ele><time>2026-03-28T13:39:30.999Z</time></trkpt><trkpt lat="44.48782304578488" lon="9.194217832214502"><ele>885.0</ele><time>2026-03-28T13:39:31.999Z</time></trkpt><trkpt lat="44.487701958695894" lon="9.194188797909387"><ele>880.5</ele><time>2026-03-28T13:39:32.999Z</time></trkpt><trkpt lat="44.48758209992012" lon="9.194177988369905"><ele>876.0</ele><time>2026-03-28T13:39:33.999Z</time></trkpt><trkpt lat="44.48745894870798" lon="9.194147771476148"><ele>876.0</ele><time>2026-03-28T13:39:34.999Z</time></trkpt><trkpt lat="44.487330665579364" lon="9.194152128821148"><ele>876.0</ele><time>2026-03-28T13:39:35.999Z</time></trkpt><trkpt lat="44.48720275988995" lon="9.194185495224469"><ele>876.0</ele><time>2026-03-28T13:39:36.999Z</time></trkpt><trkpt lat="44.48708408008655" lon="9.194216248318138"><ele>876.0</ele><time>2026-03-28T13:39:37.999Z</time></trkpt><trkpt lat="44.486981766048814" lon="9.194242760654276"><ele>872.1999999999999</ele><time>2026-03-28T13:39:38.999Z</time></trkpt><trkpt lat="44.486891917311645" lon="9.19427362668503"><ele>868.3999999999999</ele><time>2026-03-28T13:39:39.999Z</time></trkpt><trkpt lat="44.48682981876832" lon="9.194333941803267"><ele>864.6</ele><time>2026-03-28T13:39:40.999Z</time></trkpt><trkpt lat="44.48679247341384" lon="9.194450629224958"><ele>860.8</ele><time>2026-03-28T13:39:41.999Z</time></trkpt><trkpt lat="44.48680954301829" lon="9.194593697634636"><ele>857.0</ele><time>2026-03-28T13:39:42.999Z</time></trkpt><trkpt lat="44.486847421048424" lon="9.194724468332602"><ele>856.0</ele><time>2026-03-28T13:39:43.999Z</time></trkpt><trkpt lat="44.486890096080025" lon="9.19485282798667"><ele>855.0</ele><time>2026-03-28T13:39:44.999Z</time></trkpt><trkpt lat="44.48696784971279" lon="9.194980604240035"><ele>854.0</ele><time>2026-03-28T13:39:45.999Z</time></trkpt><trkpt lat="44.48706183516652" lon="9.195080141793298"><ele>853.0</ele><time>2026-03-28T13:39:46.999Z</time></trkpt><trkpt lat="44.48715474637812" lon="9.195160339988414"><ele>852.0</ele><time>2026-03-28T13:39:47.999Z</time></trkpt><trkpt lat="44.48725134595516" lon="9.195230870651153"><ele>856.5</ele><time>2026-03-28T13:39:48.999Z</time></trkpt><trkpt lat="44.487335655947774" lon="9.195299123597998"><ele>861.0</ele><time>2026-03-28T13:39:49.999Z</time></trkpt><trkpt lat="44.48739348968599" lon="9.195376716923144"><ele>865.5</ele><time>2026-03-28T13:39:50.999Z</time></trkpt><trkpt lat="44.487421267528" lon="9.195467273550388"><ele>870.0</ele><time>2026-03-28T13:39:51.999Z</time></trkpt><trkpt lat="44.48734289912423" lon="9.195579090630323"><ele>874.5</ele><time>2026-03-28T13:39:53.999Z</time></trkpt><trkpt lat="44.487298563641545" lon="9.195657858965799"><ele>879.0</ele><time>2026-03-28T13:39:54.999Z</time></trkpt><trkpt lat="44.48726305317789" lon="9.195785531622045"><ele>879.0</ele><time>2026-03-28T13:39:55.999Z</time></trkpt><trkpt lat="44.48725375385638" lon="9.195934401183575"><ele>879.0</ele><time>2026-03-28T13:39:56.999Z</time></trkpt><trkpt lat="44.487274920355986" lon="9.196071821010936"><ele>879.0</ele><time>2026-03-28T13:39:57.999Z</time></trkpt><trkpt lat="44.48727944623015" lon="9.19618370452118"><ele>879.0</ele><time>2026-03-28T13:39:58.999Z</time></trkpt><trkpt lat="44.48723904503576" lon="9.196262069487377"><ele>879.0</ele><time>2026-03-28T13:39:59.999Z</time></trkpt><trkpt lat="44.487172557548284" lon="9.19629103069721"><ele>879.0</ele><time>2026-03-28T13:40:00.999Z</time></trkpt><trkpt lat="44.48709696588926" lon="9.196290801403343"><ele>873.2</ele><time>2026-03-28T13:40:01.999Z</time></trkpt><trkpt lat="44.48701850511733" lon="9.19632870896697"><ele>867.4000000000001</ele><time>2026-03-28T13:40:02.999Z</time></trkpt><trkpt lat="44.48695113401854" lon="9.196424727282267"><ele>861.6</ele><time>2026-03-28T13:40:03.999Z</time></trkpt><trkpt lat="44.48690426709289" lon="9.19655376887325"><ele>855.8</ele><time>2026-03-28T13:40:04.999Z</time></trkpt><trkpt lat="44.48687443431352" lon="9.19669895500723"><ele>850.0</ele><time>2026-03-28T13:40:05.999Z</time></trkpt><trkpt lat="44.486849910381984" lon="9.196849624290707"><ele>850.0</ele><time>2026-03-28T13:40:06.999Z</time></trkpt><trkpt lat="44.486832870561805" lon="9.196985077984737"><ele>850.0</ele><time>2026-03-28T13:40:07.999Z</time></trkpt><trkpt lat="44.48682223786007" lon="9.19711664153857"><ele>850.0</ele><time>2026-03-28T13:40:08.999Z</time></trkpt><trkpt lat="44.486830545485475" lon="9.197256071516634"><ele>850.0</ele><time>2026-03-28T13:40:09.999Z</time></trkpt><trkpt lat="44.486870791057164" lon="9.197395143070624"><ele>850.0</ele><time>2026-03-28T13:40:10.999Z</time></trkpt><trkpt lat="44.48690822429274" lon="9.197485592027377"><ele>850.0</ele><time>2026-03-28T13:40:11.999Z</time></trkpt><trkpt lat="44.48688944127095" lon="9.197586563519016"><ele>850.0</ele><time>2026-03-28T13:40:13.999Z</time></trkpt><trkpt lat="44.486761653114655" lon="9.197597836010663"><ele>850.0</ele><time>2026-03-28T13:40:15.999Z</time></trkpt><trkpt lat="44.48668702293826" lon="9.197528746062856"><ele>850.0</ele><time>2026-03-28T13:40:16.999Z</time></trkpt><trkpt lat="44.48662412799786" lon="9.197437849827454"><ele>850.0</ele><time>2026-03-28T13:40:17.999Z</time></trkpt><trkpt lat="44.48657533103476" lon="9.197323806937803"><ele>850.0</ele><time>2026-03-28T13:40:18.999Z</time></trkpt><trkpt lat="44.486507702516256" lon="9.19721699422763"><ele>850.0</ele><time>2026-03-28T13:40:19.999Z</time></trkpt><trkpt lat="44.48643355385382" lon="9.197135409387927"><ele>850.0</ele><time>2026-03-28T13:40:20.999Z</time></trkpt><trkpt lat="44.48635923815636" lon="9.197050139277824"><ele>850.0</ele><time>2026-03-28T13:40:21.999Z</time></trkpt><trkpt lat="44.486278005692206" lon="9.196974296487847"><ele>850.0</ele><time>2026-03-28T13:40:22.999Z</time></trkpt><trkpt lat="44.48620075974476" lon="9.196888846823777"><ele>846.8</ele><time>2026-03-28T13:40:23.999Z</time></trkpt><trkpt lat="44.48612421429107" lon="9.19681603718082"><ele>843.6</ele><time>2026-03-28T13:40:24.999Z</time></trkpt><trkpt lat="44.4860336337526" lon="9.196779572291625"><ele>840.4000000000001</ele><time>2026-03-28T13:40:25.999Z</time></trkpt><trkpt lat="44.48593271368699" lon="9.1967689832548"><ele>837.2</ele><time>2026-03-28T13:40:26.999Z</time></trkpt><trkpt lat="44.48584123937218" lon="9.196765180362577"><ele>834.0</ele><time>2026-03-28T13:40:27.999Z</time></trkpt><trkpt lat="44.485753358133174" lon="9.196732178760874"><ele>834.0</ele><time>2026-03-28T13:40:28.999Z</time></trkpt><trkpt lat="44.48565317056652" lon="9.196765862623264"><ele>834.0</ele><time>2026-03-28T13:40:29.999Z</time></trkpt><trkpt lat="44.48556072797275" lon="9.196828171831662"><ele>834.0</ele><time>2026-03-28T13:40:30.999Z</time></trkpt><trkpt lat="44.48547295274824" lon="9.196874065759197"><ele>834.0</ele><time>2026-03-28T13:40:31.999Z</time></trkpt><trkpt lat="44.485372419936404" lon="9.196907506886022"><ele>834.0</ele><time>2026-03-28T13:40:32.999Z</time></trkpt><trkpt lat="44.48526432755186" lon="9.19694666540665"><ele>831.6</ele><time>2026-03-28T13:40:33.999Z</time></trkpt><trkpt lat="44.48516817675727" lon="9.196999888509625"><ele>829.2</ele><time>2026-03-28T13:40:34.999Z</time></trkpt><trkpt lat="44.485073458402795" lon="9.197052499503332"><ele>826.8000000000001</ele><time>2026-03-28T13:40:35.999Z</time></trkpt><trkpt lat="44.48497936047945" lon="9.197096385609704"><ele>824.4000000000001</ele><time>2026-03-28T13:40:36.999Z</time></trkpt><trkpt lat="44.4848791591464" lon="9.197065696299436"><ele>822.0</ele><time>2026-03-28T13:40:37.999Z</time></trkpt><trkpt lat="44.48477266447104" lon="9.196997295158639"><ele>822.0</ele><time>2026-03-28T13:40:38.999Z</time></trkpt><trkpt lat="44.484672014325945" lon="9.196915724467228"><ele>822.0</ele><time>2026-03-28T13:40:39.999Z</time></trkpt><trkpt lat="44.484580258503726" lon="9.196853291802336"><ele>822.0</ele><time>2026-03-28T13:40:41Z</time></trkpt><trkpt lat="44.48448750732227" lon="9.196802927650634"><ele>822.0</ele><time>2026-03-28T13:40:42Z</time></trkpt><trkpt lat="44.484392683024105" lon="9.196749698682948"><ele>822.0</ele><time>2026-03-28T13:40:43Z</time></trkpt><trkpt lat="44.48429304285654" lon="9.196685517686277"><ele>821.1666666666666</ele><time>2026-03-28T13:40:44Z</time></trkpt><trkpt lat="44.48420057899356" lon="9.196614787085075"><ele>820.3333333333333</ele><time>2026-03-28T13:40:45Z</time></trkpt><trkpt lat="44.48411650530332" lon="9.196541486901598"><ele>819.5</ele><time>2026-03-28T13:40:46Z</time></trkpt><trkpt lat="44.484032086588854" lon="9.196473330844547"><ele>818.6666666666666</ele><time>2026-03-28T13:40:47Z</time></trkpt><trkpt lat="44.48396159685531" lon="9.196427565431927"><ele>817.8333333333333</ele><time>2026-03-28T13:40:48Z</time></trkpt><trkpt lat="44.48389971079694" lon="9.19638398694825"><ele>817.0</ele><time>2026-03-28T13:40:49Z</time></trkpt><trkpt lat="44.48381340589274" lon="9.196391485488112"><ele>812.8</ele><time>2026-03-28T13:40:50Z</time></trkpt><trkpt lat="44.48374234468228" lon="9.19641924145278"><ele>808.6</ele><time>2026-03-28T13:40:51Z</time></trkpt><trkpt lat="44.483668572369886" lon="9.196486817615463"><ele>804.4</ele><time>2026-03-28T13:40:52Z</time></trkpt><trkpt lat="44.48363551017513" lon="9.196623886526092"><ele>800.1999999999999</ele><time>2026-03-28T13:40:53Z</time></trkpt><trkpt lat="44.48365002577838" lon="9.196773591373667"><ele>796.0</ele><time>2026-03-28T13:40:54Z</time></trkpt><trkpt lat="44.48367197239783" lon="9.196909750804616"><ele>796.0</ele><time>2026-03-28T13:40:55Z</time></trkpt><trkpt lat="44.48370738672532" lon="9.197038116626313"><ele>796.0</ele><time>2026-03-28T13:40:56Z</time></trkpt><trkpt lat="44.48377184416288" lon="9.197139252211377"><ele>796.0</ele><time>2026-03-28T13:40:57Z</time></trkpt><trkpt lat="44.48382615734184" lon="9.197238875364608"><ele>796.0</ele><time>2026-03-28T13:40:58Z</time></trkpt><trkpt lat="44.483873087725875" lon="9.197361960536508"><ele>796.0</ele><time>2026-03-28T13:40:59Z</time></trkpt><trkpt lat="44.48389940181412" lon="9.197503024758781"><ele>801.5999999999999</ele><time>2026-03-28T13:41:00Z</time></trkpt><trkpt lat="44.48394687215355" lon="9.197624886353562"><ele>807.2</ele><time>2026-03-28T13:41:01Z</time></trkpt><trkpt lat="44.48399942683781" lon="9.197729096567105"><ele>812.8</ele><time>2026-03-28T13:41:02Z</time></trkpt><trkpt lat="44.48403996638017" lon="9.197834945552387"><ele>818.4000000000001</ele><time>2026-03-28T13:41:03Z</time></trkpt><trkpt lat="44.484065333375774" lon="9.197954244828368"><ele>824.0</ele><time>2026-03-28T13:41:04Z</time></trkpt><trkpt lat="44.484078200089215" lon="9.198093735323312"><ele>821.2</ele><time>2026-03-28T13:41:05Z</time></trkpt><trkpt lat="44.48411065665332" lon="9.19824002262292"><ele>818.4000000000001</ele><time>2026-03-28T13:41:06Z</time></trkpt><trkpt lat="44.48416210385665" lon="9.198376847568728"><ele>815.6</ele><time>2026-03-28T13:41:07Z</time></trkpt><trkpt lat="44.484220909706536" lon="9.198506471297843"><ele>812.8</ele><time>2026-03-28T13:41:08Z</time></trkpt><trkpt lat="44.48427801193871" lon="9.198622646477315"><ele>810.0</ele><time>2026-03-28T13:41:09Z</time></trkpt><trkpt lat="44.48432633297114" lon="9.198723128586693"><ele>810.0</ele><time>2026-03-28T13:41:10Z</time></trkpt><trkpt lat="44.48436381726576" lon="9.198819092312723"><ele>810.0</ele><time>2026-03-28T13:41:11Z</time></trkpt><trkpt lat="44.484399838578845" lon="9.198906286978463"><ele>810.0</ele><time>2026-03-28T13:41:12Z</time></trkpt><trkpt lat="44.48445228567479" lon="9.199050890154568"><ele>810.0</ele><time>2026-03-28T13:41:14Z</time></trkpt><trkpt lat="44.48444595583936" lon="9.199197926504517"><ele>810.0</ele><time>2026-03-28T13:41:16Z</time></trkpt><trkpt lat="44.4843640422388" lon="9.199202901454969"><ele>810.4</ele><time>2026-03-28T13:41:17Z</time></trkpt><trkpt lat="44.484276403242944" lon="9.19918176293329"><ele>810.8</ele><time>2026-03-28T13:41:18Z</time></trkpt><trkpt lat="44.48418302045321" lon="9.199214137860798"><ele>811.2</ele><time>2026-03-28T13:41:19Z</time></trkpt><trkpt lat="44.48407499391237" lon="9.199198433172992"><ele>811.6</ele><time>2026-03-28T13:41:20Z</time></trkpt><trkpt lat="44.48398445143881" lon="9.199131887873198"><ele>812.0</ele><time>2026-03-28T13:41:21Z</time></trkpt><trkpt lat="44.48389542849775" lon="9.199111869668426"><ele>812.0</ele><time>2026-03-28T13:41:22Z</time></trkpt><trkpt lat="44.483789487315605" lon="9.19913467727212"><ele>812.0</ele><time>2026-03-28T13:41:23Z</time></trkpt><trkpt lat="44.48368945835994" lon="9.19917372375671"><ele>812.0</ele><time>2026-03-28T13:41:24Z</time></trkpt><trkpt lat="44.483583474768224" lon="9.199235651041844"><ele>812.0</ele><time>2026-03-28T13:41:25Z</time></trkpt><trkpt lat="44.48347886109634" lon="9.199296046419793"><ele>812.0</ele><time>2026-03-28T13:41:26Z</time></trkpt><trkpt lat="44.48336440336729" lon="9.199325059085444"><ele>806.25</ele><time>2026-03-28T13:41:27Z</time></trkpt><trkpt lat="44.48324585878253" lon="9.19934262702013"><ele>800.5</ele><time>2026-03-28T13:41:28Z</time></trkpt><trkpt lat="44.48313362894712" lon="9.199384974947662"><ele>794.75</ele><time>2026-03-28T13:41:29Z</time></trkpt><trkpt lat="44.48302980800682" lon="9.19943898880888"><ele>789.0</ele><time>2026-03-28T13:41:30Z</time></trkpt><trkpt lat="44.48292472082936" lon="9.199477200181796"><ele>785.2</ele><time>2026-03-28T13:41:31Z</time></trkpt><trkpt lat="44.48282505554938" lon="9.199569918536989"><ele>781.4000000000001</ele><time>2026-03-28T13:41:32Z</time></trkpt><trkpt lat="44.482736393849144" lon="9.1996566927713"><ele>777.6</ele><time>2026-03-28T13:41:33Z</time></trkpt><trkpt lat="44.482646650828826" lon="9.199719832231017"><ele>773.8</ele><time>2026-03-28T13:41:34Z</time></trkpt><trkpt lat="44.4825426832543" lon="9.1996936732732"><ele>770.0</ele><time>2026-03-28T13:41:35Z</time></trkpt><trkpt lat="44.48247472365682" lon="9.199702398804266"><ele>770.0000000000001</ele><time>2026-03-28T13:41:36Z</time></trkpt><trkpt lat="44.48241897693406" lon="9.199753374765328"><ele>770.0</ele><time>2026-03-28T13:41:37Z</time></trkpt><trkpt lat="44.48239800520435" lon="9.19986073677785"><ele>770.0</ele><time>2026-03-28T13:41:38Z</time></trkpt><trkpt lat="44.482427829693826" lon="9.199991049965925"><ele>770.0</ele><time>2026-03-28T13:41:39Z</time></trkpt><trkpt lat="44.482447562303584" lon="9.200106923026656"><ele>770.0000000000001</ele><time>2026-03-28T13:41:40Z</time></trkpt><trkpt lat="44.482452953634855" lon="9.200220228546453"><ele>770.0</ele><time>2026-03-28T13:41:41Z</time></trkpt><trkpt lat="44.482435077774106" lon="9.200321593755639"><ele>772.0000000000001</ele><time>2026-03-28T13:41:42Z</time></trkpt><trkpt lat="44.48241142623236" lon="9.200436351228188"><ele>774.0</ele><time>2026-03-28T13:41:43Z</time></trkpt><trkpt lat="44.4824008200989" lon="9.200557709855284"><ele>776.0</ele><time>2026-03-28T13:41:44Z</time></trkpt><trkpt lat="44.482423652239916" lon="9.200691537416487"><ele>778.0</ele><time>2026-03-28T13:41:45Z</time></trkpt><trkpt lat="44.48246181057613" lon="9.20080511965054"><ele>780.0000000000001</ele><time>2026-03-28T13:41:46Z</time></trkpt><trkpt lat="44.48251459191312" lon="9.20090282923047"><ele>782.0</ele><time>2026-03-28T13:41:47Z</time></trkpt><trkpt lat="44.48253784030386" lon="9.20099600238424"><ele>782.8333333333334</ele><time>2026-03-28T13:41:48Z</time></trkpt><trkpt lat="44.482541017322745" lon="9.201090349096933"><ele>783.6666666666667</ele><time>2026-03-28T13:41:49Z</time></trkpt><trkpt lat="44.48251346175304" lon="9.20118656116322"><ele>784.5</ele><time>2026-03-28T13:41:49.999Z</time></trkpt><trkpt lat="44.48248131635152" lon="9.20130310423013"><ele>785.3333333333333</ele><time>2026-03-28T13:41:50.999Z</time></trkpt><trkpt lat="44.48243778396802" lon="9.201411761155441"><ele>786.1666666666666</ele><time>2026-03-28T13:41:51.999Z</time></trkpt><trkpt lat="44.48237877556685" lon="9.201511957289306"><ele>787.0</ele><time>2026-03-28T13:41:52.999Z</time></trkpt><trkpt lat="44.482303354085445" lon="9.201615403514552"><ele>788.1666666666666</ele><time>2026-03-28T13:41:53.999Z</time></trkpt><trkpt lat="44.482226983964836" lon="9.20170854260259"><ele>789.3333333333333</ele><time>2026-03-28T13:41:54.999Z</time></trkpt><trkpt lat="44.482158607103294" lon="9.201810902196112"><ele>790.5</ele><time>2026-03-28T13:41:55.999Z</time></trkpt><trkpt lat="44.482116493655525" lon="9.201926224077516"><ele>791.6666666666667</ele><time>2026-03-28T13:41:56.999Z</time></trkpt><trkpt lat="44.48209492444442" lon="9.202022255876823"><ele>792.8333333333334</ele><time>2026-03-28T13:41:57.999Z</time></trkpt><trkpt lat="44.482107180994205" lon="9.20212682678246"><ele>794.0</ele><time>2026-03-28T13:41:58.999Z</time></trkpt><trkpt lat="44.482155926172105" lon="9.202224634340366"><ele>794.0</ele><time>2026-03-28T13:41:59.999Z</time></trkpt><trkpt lat="44.48219848158723" lon="9.202303594495843"><ele>794.0</ele><time>2026-03-28T13:42:00.999Z</time></trkpt><trkpt lat="44.48220960569037" lon="9.202447654660876"><ele>794.0</ele><time>2026-03-28T13:42:02.999Z</time></trkpt><trkpt lat="44.48209303627404" lon="9.202576749809905"><ele>794.0</ele><time>2026-03-28T13:42:04.999Z</time></trkpt><trkpt lat="44.48199808020818" lon="9.202610261663857"><ele>794.0</ele><time>2026-03-28T13:42:05.999Z</time></trkpt><trkpt lat="44.481890904260354" lon="9.20261416453525"><ele>790.3333333333334</ele><time>2026-03-28T13:42:06.999Z</time></trkpt><trkpt lat="44.481793255562096" lon="9.202594639860285"><ele>786.6666666666667</ele><time>2026-03-28T13:42:07.999Z</time></trkpt><trkpt lat="44.48172003346795" lon="9.202616929583233"><ele>783.0</ele><time>2026-03-28T13:42:08.999Z</time></trkpt><trkpt lat="44.4816515199511" lon="9.202674409867688"><ele>779.3333333333333</ele><time>2026-03-28T13:42:09.999Z</time></trkpt><trkpt lat="44.481598195542226" lon="9.202769920866068"><ele>775.6666666666666</ele><time>2026-03-28T13:42:10.999Z</time></trkpt><trkpt lat="44.48154521680178" lon="9.202827496361762"><ele>772.0</ele><time>2026-03-28T13:42:11.999Z</time></trkpt><trkpt lat="44.481480577280486" lon="9.202799278415506"><ele>771.9999999999999</ele><time>2026-03-28T13:42:12.999Z</time></trkpt><trkpt lat="44.4814128894262" lon="9.202719557726553"><ele>772.0</ele><time>2026-03-28T13:42:13.999Z</time></trkpt><trkpt lat="44.48133960447464" lon="9.20263062637906"><ele>772.0</ele><time>2026-03-28T13:42:14.999Z</time></trkpt><trkpt lat="44.48125715976525" lon="9.20256920859857"><ele>772.0</ele><time>2026-03-28T13:42:15.999Z</time></trkpt><trkpt lat="44.481183216621965" lon="9.202521563081005"><ele>771.9999999999999</ele><time>2026-03-28T13:42:16.999Z</time></trkpt><trkpt lat="44.481110932356415" lon="9.202458214948269"><ele>772.0</ele><time>2026-03-28T13:42:17.999Z</time></trkpt><trkpt lat="44.481053514151505" lon="9.20236231092815"><ele>769.4999999999999</ele><time>2026-03-28T13:42:18.999Z</time></trkpt><trkpt lat="44.48103366058073" lon="9.202234779456308"><ele>767.0</ele><time>2026-03-28T13:42:19.999Z</time></trkpt><trkpt lat="44.48105066570231" lon="9.202107176171028"><ele>764.5</ele><time>2026-03-28T13:42:20.999Z</time></trkpt><trkpt lat="44.481066436835725" lon="9.201988271982126"><ele>762.0</ele><time>2026-03-28T13:42:21.999Z</time></trkpt><trkpt lat="44.481035034010965" lon="9.201873336634778"><ele>759.5</ele><time>2026-03-28T13:42:22.999Z</time></trkpt><trkpt lat="44.48099700242742" lon="9.201766376917181"><ele>757.0</ele><time>2026-03-28T13:42:23.999Z</time></trkpt><trkpt lat="44.480937937800014" lon="9.201673328140675"><ele>757.0</ele><time>2026-03-28T13:42:24.999Z</time></trkpt><trkpt lat="44.48085981730438" lon="9.201594012079061"><ele>757.0</ele><time>2026-03-28T13:42:25.999Z</time></trkpt><trkpt lat="44.48077296921775" lon="9.201503455633329"><ele>757.0</ele><time>2026-03-28T13:42:26.999Z</time></trkpt><trkpt lat="44.48068560570825" lon="9.201422681493364"><ele>757.0</ele><time>2026-03-28T13:42:27.999Z</time></trkpt><trkpt lat="44.48059601053313" lon="9.201360656640656"><ele>757.0</ele><time>2026-03-28T13:42:28.999Z</time></trkpt><trkpt lat="44.480515016896724" lon="9.201291275988481"><ele>753.8333333333334</ele><time>2026-03-28T13:42:29.999Z</time></trkpt><trkpt lat="44.48044621678352" lon="9.201220579648554"><ele>750.6666666666667</ele><time>2026-03-28T13:42:30.999Z</time></trkpt><trkpt lat="44.48038335480887" lon="9.201147439656651"><ele>747.5</ele><time>2026-03-28T13:42:31.999Z</time></trkpt><trkpt lat="44.480323330085305" lon="9.201064752415732"><ele>744.3333333333334</ele><time>2026-03-28T13:42:32.999Z</time></trkpt><trkpt lat="44.48024124381487" lon="9.20101427876529"><ele>741.1666666666666</ele><time>2026-03-28T13:42:33.999Z</time></trkpt><trkpt lat="44.480144569985946" lon="9.201006336464506"><ele>738.0</ele><time>2026-03-28T13:42:34.999Z</time></trkpt><trkpt lat="44.48003723214976" lon="9.20100096422397"><ele>738.0</ele><time>2026-03-28T13:42:35.999Z</time></trkpt><trkpt lat="44.47993004363917" lon="9.200996147463435"><ele>738.0</ele><time>2026-03-28T13:42:36.999Z</time></trkpt><trkpt lat="44.47982384473979" lon="9.200997144127514"><ele>738.0</ele><time>2026-03-28T13:42:37.999Z</time></trkpt><trkpt lat="44.47971880893722" lon="9.200990709478015"><ele>738.0</ele><time>2026-03-28T13:42:38.999Z</time></trkpt><trkpt lat="44.47961666121889" lon="9.20103495282952"><ele>738.0</ele><time>2026-03-28T13:42:39.999Z</time></trkpt><trkpt lat="44.479512498726834" lon="9.201030723247674"><ele>737.0</ele><time>2026-03-28T13:42:40.999Z</time></trkpt><trkpt lat="44.479428050235946" lon="9.200993588078038"><ele>736.0</ele><time>2026-03-28T13:42:41.999Z</time></trkpt><trkpt lat="44.47936204116539" lon="9.20092823203913"><ele>735.0</ele><time>2026-03-28T13:42:42.999Z</time></trkpt><trkpt lat="44.479326618038115" lon="9.200824143874225"><ele>734.0</ele><time>2026-03-28T13:42:43.999Z</time></trkpt><trkpt lat="44.4793265029968" lon="9.20071656700031"><ele>733.0</ele><time>2026-03-28T13:42:44.999Z</time></trkpt><trkpt lat="44.4793412545916" lon="9.200611883014798"><ele>732.0</ele><time>2026-03-28T13:42:45.999Z</time></trkpt><trkpt lat="44.47932044960024" lon="9.200495273194957"><ele>732.0</ele><time>2026-03-28T13:42:47Z</time></trkpt><trkpt lat="44.479283832501444" lon="9.200367317459417"><ele>732.0</ele><time>2026-03-28T13:42:48Z</time></trkpt><trkpt lat="44.47922185342007" lon="9.200243738156933"><ele>732.0</ele><time>2026-03-28T13:42:49Z</time></trkpt><trkpt lat="44.47914683655977" lon="9.2001226166054"><ele>732.0</ele><time>2026-03-28T13:42:50Z</time></trkpt><trkpt lat="44.479063566933135" lon="9.200013056545547"><ele>732.0</ele><time>2026-03-28T13:42:51Z</time></trkpt><trkpt lat="44.47899400419683" lon="9.1999043237179"><ele>728.4000000000001</ele><time>2026-03-28T13:42:52Z</time></trkpt><trkpt lat="44.47894587108641" lon="9.199779067695777"><ele>724.8000000000001</ele><time>2026-03-28T13:42:53Z</time></trkpt><trkpt lat="44.47891411368453" lon="9.199648711613483"><ele>721.2</ele><time>2026-03-28T13:42:54Z</time></trkpt><trkpt lat="44.47887964151381" lon="9.199532113000293"><ele>717.6</ele><time>2026-03-28T13:42:55Z</time></trkpt><trkpt lat="44.478845773409574" lon="9.199412342720096"><ele>714.0</ele><time>2026-03-28T13:42:56Z</time></trkpt><trkpt lat="44.47880840025829" lon="9.199291015683498"><ele>716.0</ele><time>2026-03-28T13:42:57Z</time></trkpt><trkpt lat="44.478744493768694" lon="9.199194446646127"><ele>718.0</ele><time>2026-03-28T13:42:58Z</time></trkpt><trkpt lat="44.4786577913386" lon="9.199137463499405"><ele>720.0</ele><time>2026-03-28T13:42:59Z</time></trkpt><trkpt lat="44.47856225638395" lon="9.199086095115693"><ele>722.0</ele><time>2026-03-28T13:43:00Z</time></trkpt><trkpt lat="44.47845925583579" lon="9.199017954316346"><ele>724.0</ele><time>2026-03-28T13:43:01Z</time></trkpt><trkpt lat="44.47835758783415" lon="9.198928881772304"><ele>719.8000000000001</ele><time>2026-03-28T13:43:02Z</time></trkpt><trkpt lat="44.478267093901586" lon="9.198829803674538"><ele>715.6</ele><time>2026-03-28T13:43:03Z</time></trkpt><trkpt lat="44.478168132368666" lon="9.198763043306554"><ele>711.4</ele><time>2026-03-28T13:43:04Z</time></trkpt><trkpt lat="44.47806284783587" lon="9.198733149921411"><ele>707.2</ele><time>2026-03-28T13:43:05Z</time></trkpt><trkpt lat="44.47795417001514" lon="9.198721076745793"><ele>703.0</ele><time>2026-03-28T13:43:06Z</time></trkpt><trkpt lat="44.477840295224034" lon="9.198737805420567"><ele>701.5</ele><time>2026-03-28T13:43:07Z</time></trkpt><trkpt lat="44.47771472013741" lon="9.198745101434298"><ele>700.0</ele><time>2026-03-28T13:43:08Z</time></trkpt><trkpt lat="44.47758141403943" lon="9.198734171908274"><ele>698.5</ele><time>2026-03-28T13:43:09Z</time></trkpt><trkpt lat="44.47745414473654" lon="9.198714975555284"><ele>697.0</ele><time>2026-03-28T13:43:10Z</time></trkpt><trkpt lat="44.477333265792815" lon="9.198700009201437"><ele>697.0</ele><time>2026-03-28T13:43:11Z</time></trkpt><trkpt lat="44.47721531460729" lon="9.198667198814112"><ele>697.0</ele><time>2026-03-28T13:43:12Z</time></trkpt><trkpt lat="44.47710214243834" lon="9.19861972194065"><ele>697.0</ele><time>2026-03-28T13:43:13Z</time></trkpt><trkpt lat="44.47700961828902" lon="9.19858941710323"><ele>697.0</ele><time>2026-03-28T13:43:14Z</time></trkpt><trkpt lat="44.476924064875625" lon="9.19856207168438"><ele>697.0</ele><time>2026-03-28T13:43:15Z</time></trkpt><trkpt lat="44.47683829073737" lon="9.198590258862831"><ele>696.8</ele><time>2026-03-28T13:43:16Z</time></trkpt><trkpt lat="44.47674618802136" lon="9.19863464273679"><ele>696.6</ele><time>2026-03-28T13:43:18Z</time></trkpt><trkpt lat="44.47673813363685" lon="9.198513176430001"><ele>696.4</ele><time>2026-03-28T13:43:20Z</time></trkpt><trkpt lat="44.47686444036429" lon="9.198467314555732"><ele>696.1999999999999</ele><time>2026-03-28T13:43:22Z</time></trkpt><trkpt lat="44.47695509257258" lon="9.198454632014066"><ele>696.0</ele><time>2026-03-28T13:43:23Z</time></trkpt><trkpt lat="44.47704301751681" lon="9.198413862771421"><ele>696.1999999999999</ele><time>2026-03-28T13:43:24Z</time></trkpt><trkpt lat="44.47712611611275" lon="9.198330063235852"><ele>696.4</ele><time>2026-03-28T13:43:25Z</time></trkpt><trkpt lat="44.4771869116196" lon="9.198200382243627"><ele>696.6</ele><time>2026-03-28T13:43:26Z</time></trkpt><trkpt lat="44.477247640424" lon="9.198082059462106"><ele>696.8</ele><time>2026-03-28T13:43:27Z</time></trkpt><trkpt lat="44.477329709682856" lon="9.198001384145277"><ele>697.0</ele><time>2026-03-28T13:43:28Z</time></trkpt><trkpt lat="44.47742162647252" lon="9.197954330874465"><ele>693.0</ele><time>2026-03-28T13:43:29Z</time></trkpt><trkpt lat="44.477524338345596" lon="9.197943198258038"><ele>689.0</ele><time>2026-03-28T13:43:30Z</time></trkpt><trkpt lat="44.477626754915796" lon="9.197948524534976"><ele>685.0</ele><time>2026-03-28T13:43:31Z</time></trkpt><trkpt lat="44.477730029178275" lon="9.197927083090063"><ele>681.0</ele><time>2026-03-28T13:43:32Z</time></trkpt><trkpt lat="44.477828747568985" lon="9.197872467004043"><ele>677.0</ele><time>2026-03-28T13:43:33Z</time></trkpt><trkpt lat="44.47792362272577" lon="9.197806570601161"><ele>677.4000000000001</ele><time>2026-03-28T13:43:34Z</time></trkpt><trkpt lat="44.47800678912617" lon="9.19773020475605"><ele>677.8000000000001</ele><time>2026-03-28T13:43:35Z</time></trkpt><trkpt lat="44.47809195166637" lon="9.19766711500941"><ele>678.2</ele><time>2026-03-28T13:43:36Z</time></trkpt><trkpt lat="44.478183673720615" lon="9.197680644359833"><ele>678.6</ele><time>2026-03-28T13:43:37Z</time></trkpt><trkpt lat="44.47828173877173" lon="9.19763992427473"><ele>679.0</ele><time>2026-03-28T13:43:39Z</time></trkpt><trkpt lat="44.4782562144329" lon="9.19749734984437"><ele>679.0</ele><time>2026-03-28T13:43:41Z</time></trkpt><trkpt lat="44.478179614088184" lon="9.197465127681602"><ele>679.0</ele><time>2026-03-28T13:43:42Z</time></trkpt><trkpt lat="44.47808571993893" lon="9.197432060675714"><ele>679.0</ele><time>2026-03-28T13:43:43Z</time></trkpt><trkpt lat="44.47798103497006" lon="9.197475822725918"><ele>679.0</ele><time>2026-03-28T13:43:44Z</time></trkpt><trkpt lat="44.4778852627327" lon="9.197513450985433"><ele>679.0</ele><time>2026-03-28T13:43:45Z</time></trkpt><trkpt lat="44.47779615244863" lon="9.19755782586415"><ele>678.6</ele><time>2026-03-28T13:43:46Z</time></trkpt><trkpt lat="44.47768935673238" lon="9.197543743302848"><ele>678.2</ele><time>2026-03-28T13:43:47Z</time></trkpt><trkpt lat="44.47758799395037" lon="9.197520556447119"><ele>677.8000000000001</ele><time>2026-03-28T13:43:48Z</time></trkpt><trkpt lat="44.477479009294285" lon="9.197495893817386"><ele>677.4000000000001</ele><time>2026-03-28T13:43:49Z</time></trkpt><trkpt lat="44.477373585748765" lon="9.19746918937451"><ele>677.0</ele><time>2026-03-28T13:43:50Z</time></trkpt><trkpt lat="44.477272248898814" lon="9.197445033186812"><ele>677.0</ele><time>2026-03-28T13:43:51Z</time></trkpt><trkpt lat="44.477171227510134" lon="9.197431693214511"><ele>677.0</ele><time>2026-03-28T13:43:52Z</time></trkpt><trkpt lat="44.477064937770834" lon="9.197410869154075"><ele>677.0</ele><time>2026-03-28T13:43:53Z</time></trkpt><trkpt lat="44.47696411056133" lon="9.19738863080774"><ele>677.0</ele><time>2026-03-28T13:43:54Z</time></trkpt><trkpt lat="44.47687264835219" lon="9.197333134543026"><ele>677.0</ele><time>2026-03-28T13:43:55Z</time></trkpt><trkpt lat="44.47679064500385" lon="9.197254736981856"><ele>673.5</ele><time>2026-03-28T13:43:56Z</time></trkpt><trkpt lat="44.476720898198494" lon="9.197148194551469"><ele>670.0</ele><time>2026-03-28T13:43:57Z</time></trkpt><trkpt lat="44.47666135979974" lon="9.197043932716417"><ele>666.5</ele><time>2026-03-28T13:43:58Z</time></trkpt><trkpt lat="44.47659965773674" lon="9.196940229711018"><ele>663.0</ele><time>2026-03-28T13:43:59Z</time></trkpt><trkpt lat="44.476536644794095" lon="9.196854606543386"><ele>659.5</ele><time>2026-03-28T13:44:00Z</time></trkpt><trkpt lat="44.476472590568044" lon="9.196828143511611"><ele>656.0</ele><time>2026-03-28T13:44:00.999Z</time></trkpt><trkpt lat="44.47640723978198" lon="9.19683345415005"><ele>656.0</ele><time>2026-03-28T13:44:01.999Z</time></trkpt><trkpt lat="44.476342508519465" lon="9.196912368933937"><ele>656.0</ele><time>2026-03-28T13:44:02.999Z</time></trkpt><trkpt lat="44.47628535142902" lon="9.197017795353927"><ele>656.0</ele><time>2026-03-28T13:44:03.999Z</time></trkpt><trkpt lat="44.47622894599515" lon="9.19714037506948"><ele>656.0</ele><time>2026-03-28T13:44:04.999Z</time></trkpt><trkpt lat="44.47617439949496" lon="9.197255690164127"><ele>656.0</ele><time>2026-03-28T13:44:05.999Z</time></trkpt><trkpt lat="44.47612019720591" lon="9.197365625647048"><ele>656.1999999999999</ele><time>2026-03-28T13:44:06.999Z</time></trkpt><trkpt lat="44.4760600643644" lon="9.1974765540683"><ele>656.4</ele><time>2026-03-28T13:44:07.999Z</time></trkpt><trkpt lat="44.47598571222152" lon="9.197563599756124"><ele>656.6</ele><time>2026-03-28T13:44:08.999Z</time></trkpt><trkpt lat="44.47587957453459" lon="9.197616243445463"><ele>656.8</ele><time>2026-03-28T13:44:09.999Z</time></trkpt><trkpt lat="44.47576785767585" lon="9.19763626016105"><ele>657.0</ele><time>2026-03-28T13:44:10.999Z</time></trkpt><trkpt lat="44.47566091739673" lon="9.197664917172025"><ele>657.0</ele><time>2026-03-28T13:44:11.999Z</time></trkpt><trkpt lat="44.4755579691486" lon="9.197627477975223"><ele>657.0</ele><time>2026-03-28T13:44:12.999Z</time></trkpt><trkpt lat="44.47546131902479" lon="9.19759672482367"><ele>657.0</ele><time>2026-03-28T13:44:13.999Z</time></trkpt><trkpt lat="44.47536646045988" lon="9.197608723298895"><ele>657.0</ele><time>2026-03-28T13:44:14.999Z</time></trkpt><trkpt lat="44.47526334468816" lon="9.197630781423017"><ele>657.0</ele><time>2026-03-28T13:44:15.999Z</time></trkpt><trkpt lat="44.47515863138075" lon="9.19768959736612"><ele>651.25</ele><time>2026-03-28T13:44:16.999Z</time></trkpt><trkpt lat="44.47504494869599" lon="9.19773073484623"><ele>645.5</ele><time>2026-03-28T13:44:17.999Z</time></trkpt><trkpt lat="44.474937039849664" lon="9.19778621505904"><ele>639.75</ele><time>2026-03-28T13:44:18.999Z</time></trkpt><trkpt lat="44.4748433640587" lon="9.197871010315554"><ele>634.0</ele><time>2026-03-28T13:44:19.999Z</time></trkpt><trkpt lat="44.474760172859206" lon="9.197974536649719"><ele>634.0</ele><time>2026-03-28T13:44:20.999Z</time></trkpt><trkpt lat="44.47467975749912" lon="9.198074203347343"><ele>634.0</ele><time>2026-03-28T13:44:21.999Z</time></trkpt><trkpt lat="44.47460678266623" lon="9.198176376834526"><ele>634.0</ele><time>2026-03-28T13:44:22.999Z</time></trkpt><trkpt lat="44.47454387319549" lon="9.198313787590541"><ele>634.0</ele><time>2026-03-28T13:44:23.999Z</time></trkpt><trkpt lat="44.47451191864382" lon="9.198473235656852"><ele>634.0</ele><time>2026-03-28T13:44:24.999Z</time></trkpt><trkpt lat="44.47447316763845" lon="9.19861365549485"><ele>631.4</ele><time>2026-03-28T13:44:25.999Z</time></trkpt><trkpt lat="44.47443431062426" lon="9.198738156168723"><ele>628.8</ele><time>2026-03-28T13:44:26.999Z</time></trkpt><trkpt lat="44.47438694737738" lon="9.198862663291548"><ele>626.2</ele><time>2026-03-28T13:44:27.999Z</time></trkpt><trkpt lat="44.474314511487684" lon="9.198973847879346"><ele>623.6</ele><time>2026-03-28T13:44:28.999Z</time></trkpt><trkpt lat="44.47422576788886" lon="9.199067625977413"><ele>621.0</ele><time>2026-03-28T13:44:29.999Z</time></trkpt><trkpt lat="44.47413073741938" lon="9.199148021953738"><ele>620.8</ele><time>2026-03-28T13:44:30.999Z</time></trkpt><trkpt lat="44.47403345184921" lon="9.199215905699116"><ele>620.6</ele><time>2026-03-28T13:44:31.999Z</time></trkpt><trkpt lat="44.47393885493461" lon="9.199281295196842"><ele>620.4</ele><time>2026-03-28T13:44:32.999Z</time></trkpt><trkpt lat="44.47385697437948" lon="9.199376052288192"><ele>620.2</ele><time>2026-03-28T13:44:33.999Z</time></trkpt><trkpt lat="44.473794676163024" lon="9.199475952424399"><ele>620.0</ele><time>2026-03-28T13:44:34.999Z</time></trkpt><trkpt lat="44.47374049781067" lon="9.19959171607609"><ele>620.0</ele><time>2026-03-28T13:44:35.999Z</time></trkpt><trkpt lat="44.473702136412555" lon="9.199726070322136"><ele>620.0</ele><time>2026-03-28T13:44:36.999Z</time></trkpt><trkpt lat="44.47366572873609" lon="9.199857421153952"><ele>620.0</ele><time>2026-03-28T13:44:37.999Z</time></trkpt><trkpt lat="44.47362828452296" lon="9.199979986889119"><ele>620.0</ele><time>2026-03-28T13:44:38.999Z</time></trkpt><trkpt lat="44.473582146300394" lon="9.200083807567758"><ele>620.0</ele><time>2026-03-28T13:44:39.999Z</time></trkpt><trkpt lat="44.47352646019151" lon="9.20016196561703"><ele>620.0</ele><time>2026-03-28T13:44:40.999Z</time></trkpt><trkpt lat="44.47342641762785" lon="9.200231539675961"><ele>620.0</ele><time>2026-03-28T13:44:42.999Z</time></trkpt><trkpt lat="44.47333935815761" lon="9.200110816037117"><ele>620.0</ele><time>2026-03-28T13:44:44.999Z</time></trkpt><trkpt lat="44.47332720291288" lon="9.199993578380525"><ele>620.0</ele><time>2026-03-28T13:44:45.999Z</time></trkpt><trkpt lat="44.47331755637139" lon="9.199863599680281"><ele>620.0</ele><time>2026-03-28T13:44:46.999Z</time></trkpt><trkpt lat="44.473285707744836" lon="9.19971902885274"><ele>620.0</ele><time>2026-03-28T13:44:47.999Z</time></trkpt><trkpt lat="44.47326458860066" lon="9.19957363650397"><ele>620.0</ele><time>2026-03-28T13:44:48.999Z</time></trkpt><trkpt lat="44.47326689535532" lon="9.199422961204775"><ele>620.0</ele><time>2026-03-28T13:44:49.999Z</time></trkpt><trkpt lat="44.47328175393184" lon="9.199284888810627"><ele>620.0</ele><time>2026-03-28T13:44:50.999Z</time></trkpt><trkpt lat="44.47330009360615" lon="9.199141311951758"><ele>620.0</ele><time>2026-03-28T13:44:51.999Z</time></trkpt><trkpt lat="44.473310583856694" lon="9.199006047346101"><ele>618.4</ele><time>2026-03-28T13:44:53Z</time></trkpt><trkpt lat="44.47331766404375" lon="9.19887378482875"><ele>616.8</ele><time>2026-03-28T13:44:54Z</time></trkpt><trkpt lat="44.473314000170184" lon="9.198737013720734"><ele>615.2</ele><time>2026-03-28T13:44:55Z</time></trkpt><trkpt lat="44.47329878610585" lon="9.19858373384588"><ele>613.6</ele><time>2026-03-28T13:44:56Z</time></trkpt><trkpt lat="44.47327930102242" lon="9.198435717140859"><ele>612.0</ele><time>2026-03-28T13:44:57Z</time></trkpt><trkpt lat="44.4732464846472" lon="9.198288807955619"><ele>607.8000000000001</ele><time>2026-03-28T13:44:58Z</time></trkpt><trkpt lat="44.47321339493686" lon="9.198146381986975"><ele>603.6</ele><time>2026-03-28T13:44:59Z</time></trkpt><trkpt lat="44.473180784496485" lon="9.198007118976411"><ele>599.4000000000001</ele><time>2026-03-28T13:45:00Z</time></trkpt><trkpt lat="44.47314264983913" lon="9.19787497322934"><ele>595.2</ele><time>2026-03-28T13:45:01Z</time></trkpt><trkpt lat="44.47310648211991" lon="9.197748947692505"><ele>591.0</ele><time>2026-03-28T13:45:02Z</time></trkpt><trkpt lat="44.47305925872056" lon="9.197635270142184"><ele>591.0</ele><time>2026-03-28T13:45:03Z</time></trkpt><trkpt lat="44.47299073436716" lon="9.197541905034434"><ele>591.0</ele><time>2026-03-28T13:45:04Z</time></trkpt><trkpt lat="44.47289591610999" lon="9.197475270951257"><ele>591.0</ele><time>2026-03-28T13:45:05Z</time></trkpt><trkpt lat="44.47280110440239" lon="9.197418903497788"><ele>591.0</ele><time>2026-03-28T13:45:06Z</time></trkpt><trkpt lat="44.47270832309761" lon="9.197362108451717"><ele>591.0</ele><time>2026-03-28T13:45:07Z</time></trkpt><trkpt lat="44.47263526215588" lon="9.197348346349452"><ele>591.6</ele><time>2026-03-28T13:45:08Z</time></trkpt><trkpt lat="44.47251568425784" lon="9.197408153604066"><ele>592.2</ele><time>2026-03-28T13:45:10Z</time></trkpt><trkpt lat="44.472505595753454" lon="9.197550333235705"><ele>592.8</ele><time>2026-03-28T13:45:11Z</time></trkpt><trkpt lat="44.47254124193916" lon="9.197698788784379"><ele>593.4</ele><time>2026-03-28T13:45:12Z</time></trkpt><trkpt lat="44.472567345616746" lon="9.197826851356037"><ele>594.0</ele><time>2026-03-28T13:45:13Z</time></trkpt><trkpt lat="44.47258930544869" lon="9.197968304348928"><ele>594.0</ele><time>2026-03-28T13:45:14Z</time></trkpt><trkpt lat="44.47260065343961" lon="9.198104977311093"><ele>594.0</ele><time>2026-03-28T13:45:15Z</time></trkpt><trkpt lat="44.472602963769724" lon="9.198242473911733"><ele>594.0</ele><time>2026-03-28T13:45:16Z</time></trkpt><trkpt lat="44.472613750730396" lon="9.198380810672683"><ele>594.0</ele><time>2026-03-28T13:45:17Z</time></trkpt><trkpt lat="44.47263490873691" lon="9.198520665461515"><ele>594.0</ele><time>2026-03-28T13:45:18Z</time></trkpt><trkpt lat="44.47267217369615" lon="9.198658783635796"><ele>594.0</ele><time>2026-03-28T13:45:19Z</time></trkpt><trkpt lat="44.47271848682243" lon="9.198789388705892"><ele>594.0</ele><time>2026-03-28T13:45:20Z</time></trkpt><trkpt lat="44.47275902954729" lon="9.198912659951011"><ele>594.0</ele><time>2026-03-28T13:45:21Z</time></trkpt><trkpt lat="44.47278643624276" lon="9.199047601971213"><ele>594.0</ele><time>2026-03-28T13:45:22Z</time></trkpt><trkpt lat="44.47279759986218" lon="9.199197700327474"><ele>594.0</ele><time>2026-03-28T13:45:23Z</time></trkpt><trkpt lat="44.47280468241335" lon="9.19935326102639"><ele>592.25</ele><time>2026-03-28T13:45:24Z</time></trkpt><trkpt lat="44.47280762929853" lon="9.199510021256316"><ele>590.5</ele><time>2026-03-28T13:45:25Z</time></trkpt><trkpt lat="44.472809219665876" lon="9.199677375136867"><ele>588.75</ele><time>2026-03-28T13:45:26Z</time></trkpt><trkpt lat="44.472810642774995" lon="9.199840339383192"><ele>587.0</ele><time>2026-03-28T13:45:27Z</time></trkpt><trkpt lat="44.47281185314151" lon="9.200006054512993"><ele>587.0</ele><time>2026-03-28T13:45:28Z</time></trkpt><trkpt lat="44.472811828983616" lon="9.200170768269674"><ele>587.0</ele><time>2026-03-28T13:45:29Z</time></trkpt><trkpt lat="44.47281041871558" lon="9.200334054112119"><ele>587.0</ele><time>2026-03-28T13:45:30Z</time></trkpt><trkpt lat="44.47277451036306" lon="9.200485807382028"><ele>587.0</ele><time>2026-03-28T13:45:31Z</time></trkpt><trkpt lat="44.472709142007346" lon="9.200616042540462"><ele>589.8000000000001</ele><time>2026-03-28T13:45:32Z</time></trkpt><trkpt lat="44.47264386841755" lon="9.200742746073185"><ele>592.6</ele><time>2026-03-28T13:45:33Z</time></trkpt><trkpt lat="44.472582152110434" lon="9.200855439399383"><ele>595.4000000000001</ele><time>2026-03-28T13:45:34Z</time></trkpt><trkpt lat="44.472526198130836" lon="9.200959132469677"><ele>598.2</ele><time>2026-03-28T13:45:35Z</time></trkpt><trkpt lat="44.47247062807187" lon="9.201073094482343"><ele>601.0</ele><time>2026-03-28T13:45:36Z</time></trkpt><trkpt lat="44.47242546654136" lon="9.20120176689525"><ele>601.0</ele><time>2026-03-28T13:45:37Z</time></trkpt><trkpt lat="44.4724361055675" lon="9.201360214412084"><ele>601.0</ele><time>2026-03-28T13:45:38Z</time></trkpt><trkpt lat="44.47241348735319" lon="9.201504391107429"><ele>601.0</ele><time>2026-03-28T13:45:39Z</time></trkpt><trkpt lat="44.47240501766896" lon="9.201649378011844"><ele>601.0</ele><time>2026-03-28T13:45:40Z</time></trkpt><trkpt lat="44.47239238282923" lon="9.201796948353545"><ele>601.0</ele><time>2026-03-28T13:45:41Z</time></trkpt><trkpt lat="44.47237594048004" lon="9.201942502209103"><ele>603.2</ele><time>2026-03-28T13:45:42Z</time></trkpt><trkpt lat="44.47235635120852" lon="9.202090514314705"><ele>605.4000000000001</ele><time>2026-03-28T13:45:43Z</time></trkpt><trkpt lat="44.47233264889321" lon="9.202230036122334"><ele>607.6</ele><time>2026-03-28T13:45:44Z</time></trkpt><trkpt lat="44.47230795065513" lon="9.202366543953833"><ele>609.8000000000001</ele><time>2026-03-28T13:45:45Z</time></trkpt><trkpt lat="44.472302314253014" lon="9.20250226667855"><ele>612.0</ele><time>2026-03-28T13:45:46Z</time></trkpt><trkpt lat="44.47230801138923" lon="9.202642477636344"><ele>612.0</ele><time>2026-03-28T13:45:47Z</time></trkpt><trkpt lat="44.4723195262746" lon="9.202783499308119"><ele>612.0</ele><time>2026-03-28T13:45:48Z</time></trkpt><trkpt lat="44.47225263525034" lon="9.202886991669093"><ele>612.0</ele><time>2026-03-28T13:45:49Z</time></trkpt><trkpt lat="44.472226128695866" lon="9.202978847355277"><ele>612.0</ele><time>2026-03-28T13:45:50Z</time></trkpt><trkpt lat="44.47223974155921" lon="9.20309249375119"><ele>612.0</ele><time>2026-03-28T13:45:51Z</time></trkpt><trkpt lat="44.47225661338645" lon="9.203211953600762"><ele>612.0</ele><time>2026-03-28T13:45:52Z</time></trkpt><trkpt lat="44.47227533784033" lon="9.203338576580697"><ele>613.5</ele><time>2026-03-28T13:45:53Z</time></trkpt><trkpt lat="44.472263641531974" lon="9.203468586456204"><ele>615.0</ele><time>2026-03-28T13:45:54Z</time></trkpt><trkpt lat="44.47225442720465" lon="9.203586021575328"><ele>616.5</ele><time>2026-03-28T13:45:55Z</time></trkpt><trkpt lat="44.47221370745991" lon="9.203670368638047"><ele>618.0</ele><time>2026-03-28T13:45:56Z</time></trkpt><trkpt lat="44.47214798819866" lon="9.203713516716032"><ele>619.5</ele><time>2026-03-28T13:45:56.999Z</time></trkpt><trkpt lat="44.47207305859868" lon="9.203781228305012"><ele>621.0</ele><time>2026-03-28T13:45:57.999Z</time></trkpt><trkpt lat="44.4719920637948" lon="9.203871074414009"><ele>615.2</ele><time>2026-03-28T13:45:58.999Z</time></trkpt><trkpt lat="44.471921034120555" lon="9.203996660260056"><ele>609.4000000000001</ele><time>2026-03-28T13:45:59.999Z</time></trkpt><trkpt lat="44.4718484205647" lon="9.204098376589455"><ele>603.6</ele><time>2026-03-28T13:46:00.999Z</time></trkpt><trkpt lat="44.47176337790422" lon="9.204174471422064"><ele>597.8000000000001</ele><time>2026-03-28T13:46:01.999Z</time></trkpt><trkpt lat="44.47170201032551" lon="9.204263123531156"><ele>592.0</ele><time>2026-03-28T13:46:02.999Z</time></trkpt><trkpt lat="44.47165783084389" lon="9.204402630661335"><ele>592.0</ele><time>2026-03-28T13:46:03.999Z</time></trkpt><trkpt lat="44.47162367251087" lon="9.204543527991758"><ele>592.0</ele><time>2026-03-28T13:46:04.999Z</time></trkpt><trkpt lat="44.47156784943429" lon="9.20466038667408"><ele>592.0</ele><time>2026-03-28T13:46:05.999Z</time></trkpt><trkpt lat="44.47149195215128" lon="9.204770748256587"><ele>592.0</ele><time>2026-03-28T13:46:06.999Z</time></trkpt><trkpt lat="44.471426723983136" lon="9.204877666010363"><ele>592.0</ele><time>2026-03-28T13:46:07.999Z</time></trkpt><trkpt lat="44.47136383769386" lon="9.204967571922488"><ele>589.8000000000001</ele><time>2026-03-28T13:46:08.999Z</time></trkpt><trkpt lat="44.47129963493738" lon="9.205042635872452"><ele>587.6</ele><time>2026-03-28T13:46:09.999Z</time></trkpt><trkpt lat="44.471247943675905" lon="9.205141941137947"><ele>585.4000000000001</ele><time>2026-03-28T13:46:10.999Z</time></trkpt><trkpt lat="44.47116736033607" lon="9.20523529468725"><ele>583.2</ele><time>2026-03-28T13:46:11.999Z</time></trkpt><trkpt lat="44.47110884725288" lon="9.205362060163226"><ele>581.0</ele><time>2026-03-28T13:46:12.999Z</time></trkpt><trkpt lat="44.471068451017906" lon="9.205510270272814"><ele>581.8</ele><time>2026-03-28T13:46:13.999Z</time></trkpt><trkpt lat="44.471045876908654" lon="9.205665730414255"><ele>582.6</ele><time>2026-03-28T13:46:14.999Z</time></trkpt><trkpt lat="44.47102861062981" lon="9.205806944661575"><ele>583.4</ele><time>2026-03-28T13:46:15.999Z</time></trkpt><trkpt lat="44.4710114751966" lon="9.205940500864552"><ele>584.2</ele><time>2026-03-28T13:46:16.999Z</time></trkpt><trkpt lat="44.47097868595243" lon="9.20606674630345"><ele>585.0</ele><time>2026-03-28T13:46:17.999Z</time></trkpt><trkpt lat="44.47093962749548" lon="9.206179235223917"><ele>585.0</ele><time>2026-03-28T13:46:18.999Z</time></trkpt><trkpt lat="44.47089900578765" lon="9.206297852955064"><ele>585.0</ele><time>2026-03-28T13:46:19.999Z</time></trkpt><trkpt lat="44.470879886441" lon="9.2064424623918"><ele>585.0</ele><time>2026-03-28T13:46:20.999Z</time></trkpt><trkpt lat="44.47089394241971" lon="9.206593972885848"><ele>585.0</ele><time>2026-03-28T13:46:21.999Z</time></trkpt><trkpt lat="44.470915744968" lon="9.206740241144535"><ele>585.0</ele><time>2026-03-28T13:46:22.999Z</time></trkpt><trkpt lat="44.47093418016274" lon="9.206876828107138"><ele>586.0</ele><time>2026-03-28T13:46:23.999Z</time></trkpt><trkpt lat="44.470937753084264" lon="9.207006752300252"><ele>587.0</ele><time>2026-03-28T13:46:24.999Z</time></trkpt><trkpt lat="44.470914532641395" lon="9.207124238603253"><ele>588.0</ele><time>2026-03-28T13:46:25.999Z</time></trkpt><trkpt lat="44.47087999745105" lon="9.207244329601352"><ele>589.0</ele><time>2026-03-28T13:46:26.999Z</time></trkpt><trkpt lat="44.470812319121784" lon="9.207320158323794"><ele>590.0</ele><time>2026-03-28T13:46:27.999Z</time></trkpt><trkpt lat="44.470731638932364" lon="9.207346866175948"><ele>591.0</ele><time>2026-03-28T13:46:28.999Z</time></trkpt><trkpt lat="44.470660498176684" lon="9.207313559324215"><ele>591.0</ele><time>2026-03-28T13:46:29.999Z</time></trkpt><trkpt lat="44.47059807973489" lon="9.20723258437535"><ele>591.0</ele><time>2026-03-28T13:46:30.999Z</time></trkpt><trkpt lat="44.470556960754806" lon="9.20710512102581"><ele>591.0</ele><time>2026-03-28T13:46:31.999Z</time></trkpt><trkpt lat="44.470515219909906" lon="9.20698880784426"><ele>591.0</ele><time>2026-03-28T13:46:32.999Z</time></trkpt><trkpt lat="44.47045877499002" lon="9.206865989082266"><ele>591.0</ele><time>2026-03-28T13:46:33.999Z</time></trkpt><trkpt lat="44.47040673709446" lon="9.20672974316677"><ele>596.25</ele><time>2026-03-28T13:46:34.999Z</time></trkpt><trkpt lat="44.47038799847012" lon="9.206569587959795"><ele>601.5</ele><time>2026-03-28T13:46:35.999Z</time></trkpt><trkpt lat="44.47038260672995" lon="9.206405653660145"><ele>606.75</ele><time>2026-03-28T13:46:36.999Z</time></trkpt><trkpt lat="44.47037804800659" lon="9.206244029648708"><ele>612.0</ele><time>2026-03-28T13:46:37.999Z</time></trkpt><trkpt lat="44.47035865997148" lon="9.206090077122187"><ele>612.0</ele><time>2026-03-28T13:46:38.999Z</time></trkpt><trkpt lat="44.470326694374606" lon="9.20593801617173"><ele>612.0</ele><time>2026-03-28T13:46:39.999Z</time></trkpt><trkpt lat="44.4702892196644" lon="9.205806073294228"><ele>612.0</ele><time>2026-03-28T13:46:40.999Z</time></trkpt><trkpt lat="44.47022833530649" lon="9.205714269218626"><ele>612.0</ele><time>2026-03-28T13:46:41.999Z</time></trkpt><trkpt lat="44.470223261685234" lon="9.205590202312903"><ele>612.0</ele><time>2026-03-28T13:46:42.999Z</time></trkpt><trkpt lat="44.470247914295754" lon="9.205485823699064"><ele>612.2</ele><time>2026-03-28T13:46:43.999Z</time></trkpt><trkpt lat="44.47028997546375" lon="9.205395547032813"><ele>612.4000000000001</ele><time>2026-03-28T13:46:44.999Z</time></trkpt><trkpt lat="44.4703210810456" lon="9.20529484421105"><ele>612.5999999999999</ele><time>2026-03-28T13:46:45.999Z</time></trkpt><trkpt lat="44.47031934575369" lon="9.205161864320052"><ele>612.8</ele><time>2026-03-28T13:46:46.999Z</time></trkpt><trkpt lat="44.47029874691095" lon="9.205000643055557"><ele>613.0</ele><time>2026-03-28T13:46:47.999Z</time></trkpt><trkpt lat="44.47029009382229" lon="9.204819895723173"><ele>613.0</ele><time>2026-03-28T13:46:48.999Z</time></trkpt><trkpt lat="44.470294905189135" lon="9.204628217412067"><ele>613.0</ele><time>2026-03-28T13:46:49.999Z</time></trkpt><trkpt lat="44.47030031499013" lon="9.204453156186384"><ele>613.0</ele><time>2026-03-28T13:46:50.999Z</time></trkpt><trkpt lat="44.47032169179429" lon="9.204287823713544"><ele>613.0</ele><time>2026-03-28T13:46:51.999Z</time></trkpt><trkpt lat="44.47035841387813" lon="9.204114189759562"><ele>616.5</ele><time>2026-03-28T13:46:52.999Z</time></trkpt><trkpt lat="44.47039919098591" lon="9.20395195005165"><ele>620.0</ele><time>2026-03-28T13:46:53.999Z</time></trkpt><trkpt lat="44.47044675398107" lon="9.203813102572457"><ele>623.5</ele><time>2026-03-28T13:46:54.999Z</time></trkpt><trkpt lat="44.47051666730935" lon="9.203701531619465"><ele>627.0</ele><time>2026-03-28T13:46:55.999Z</time></trkpt><trkpt lat="44.47060308807402" lon="9.203594601363738"><ele>619.2</ele><time>2026-03-28T13:46:56.999Z</time></trkpt><trkpt lat="44.470707248390234" lon="9.203520153431748"><ele>611.4000000000001</ele><time>2026-03-28T13:46:58Z</time></trkpt><trkpt lat="44.47080904973663" lon="9.20346589665954"><ele>603.5999999999999</ele><time>2026-03-28T13:46:59Z</time></trkpt><trkpt lat="44.47086632487191" lon="9.203403589936979"><ele>595.8</ele><time>2026-03-28T13:47:00Z</time></trkpt><trkpt lat="44.47088744006999" lon="9.20322332772715"><ele>588.0</ele><time>2026-03-28T13:47:02Z</time></trkpt><trkpt lat="44.47085955715252" lon="9.203105337551614"><ele>588.0</ele><time>2026-03-28T13:47:03Z</time></trkpt><trkpt lat="44.47081618633505" lon="9.202982843560548"><ele>588.0</ele><time>2026-03-28T13:47:04Z</time></trkpt><trkpt lat="44.47077181614642" lon="9.202848487364788"><ele>588.0</ele><time>2026-03-28T13:47:05Z</time></trkpt><trkpt lat="44.47073041201321" lon="9.202713954997225"><ele>588.0</ele><time>2026-03-28T13:47:06Z</time></trkpt><trkpt lat="44.470695631063585" lon="9.20258262630304"><ele>588.0</ele><time>2026-03-28T13:47:07Z</time></trkpt><trkpt lat="44.4706760462578" lon="9.202457260875878"><ele>588.0</ele><time>2026-03-28T13:47:08Z</time></trkpt><trkpt lat="44.47066992960659" lon="9.202332629591067"><ele>588.0</ele><time>2026-03-28T13:47:09Z</time></trkpt><trkpt lat="44.47070221359178" lon="9.20220157823019"><ele>588.0</ele><time>2026-03-28T13:47:10Z</time></trkpt><trkpt lat="44.47074197421614" lon="9.20206280916446"><ele>588.0</ele><time>2026-03-28T13:47:11Z</time></trkpt><trkpt lat="44.470791793286836" lon="9.201921870379739"><ele>588.0</ele><time>2026-03-28T13:47:12Z</time></trkpt><trkpt lat="44.470856936504155" lon="9.201769176291963"><ele>589.0</ele><time>2026-03-28T13:47:13Z</time></trkpt><trkpt lat="44.470916902617795" lon="9.20163253504305"><ele>590.0</ele><time>2026-03-28T13:47:14Z</time></trkpt><trkpt lat="44.470946266990126" lon="9.201510929872937"><ele>591.0</ele><time>2026-03-28T13:47:15Z</time></trkpt><trkpt lat="44.47093395152486" lon="9.20137903951273"><ele>592.0</ele><time>2026-03-28T13:47:16Z</time></trkpt><trkpt lat="44.47089920225683" lon="9.201234355785749"><ele>593.0</ele><time>2026-03-28T13:47:17Z</time></trkpt><trkpt lat="44.47086703337621" lon="9.201072089289038"><ele>594.25</ele><time>2026-03-28T13:47:18Z</time></trkpt><trkpt lat="44.47086554688586" lon="9.200895184729385"><ele>595.5</ele><time>2026-03-28T13:47:19Z</time></trkpt><trkpt lat="44.470879122595015" lon="9.2007135428899"><ele>596.75</ele><time>2026-03-28T13:47:20Z</time></trkpt><trkpt lat="44.47089317312602" lon="9.200526143423732"><ele>598.0</ele><time>2026-03-28T13:47:21Z</time></trkpt><trkpt lat="44.47092846127738" lon="9.200330950192706"><ele>598.0</ele><time>2026-03-28T13:47:22Z</time></trkpt><trkpt lat="44.47098837897921" lon="9.200146831547292"><ele>598.0</ele><time>2026-03-28T13:47:23Z</time></trkpt><trkpt lat="44.471028672839076" lon="9.199984446002372"><ele>598.0</ele><time>2026-03-28T13:47:24Z</time></trkpt><trkpt lat="44.47105097568356" lon="9.199807088602078"><ele>598.0</ele><time>2026-03-28T13:47:25Z</time></trkpt><trkpt lat="44.471069161822506" lon="9.199629527423104"><ele>596.75</ele><time>2026-03-28T13:47:26Z</time></trkpt><trkpt lat="44.471102634570514" lon="9.199466936704205"><ele>595.5</ele><time>2026-03-28T13:47:27Z</time></trkpt><trkpt lat="44.471113355909495" lon="9.199310666875856"><ele>594.25</ele><time>2026-03-28T13:47:28Z</time></trkpt><trkpt lat="44.47112652288281" lon="9.199145769574383"><ele>593.0</ele><time>2026-03-28T13:47:29Z</time></trkpt><trkpt lat="44.47112131935083" lon="9.198982005243998"><ele>589.75</ele><time>2026-03-28T13:47:30Z</time></trkpt><trkpt lat="44.4711071584898" lon="9.198822253588444"><ele>586.5</ele><time>2026-03-28T13:47:31Z</time></trkpt><trkpt lat="44.47107099999975" lon="9.198677958310013"><ele>583.25</ele><time>2026-03-28T13:47:32Z</time></trkpt><trkpt lat="44.471031269019576" lon="9.198530197131"><ele>580.0</ele><time>2026-03-28T13:47:33Z</time></trkpt><trkpt lat="44.47094956962962" lon="9.198406908986767"><ele>580.0</ele><time>2026-03-28T13:47:34Z</time></trkpt><trkpt lat="44.470868109264245" lon="9.198311193953726"><ele>580.0</ele><time>2026-03-28T13:47:35Z</time></trkpt><trkpt lat="44.47075396775484" lon="9.198243364390017"><ele>580.0</ele><time>2026-03-28T13:47:36Z</time></trkpt><trkpt lat="44.47065017118406" lon="9.198176806051414"><ele>580.0</ele><time>2026-03-28T13:47:37Z</time></trkpt><trkpt lat="44.47054102383546" lon="9.198088456727117"><ele>582.0</ele><time>2026-03-28T13:47:38Z</time></trkpt><trkpt lat="44.470457116719494" lon="9.19794771671649"><ele>584.0</ele><time>2026-03-28T13:47:39Z</time></trkpt><trkpt lat="44.4703702343569" lon="9.197799340806151"><ele>586.0</ele><time>2026-03-28T13:47:40Z</time></trkpt><trkpt lat="44.470275573159455" lon="9.197654952763537"><ele>588.0</ele><time>2026-03-28T13:47:41Z</time></trkpt><trkpt lat="44.47018536019696" lon="9.197517322908126"><ele>588.0</ele><time>2026-03-28T13:47:42Z</time></trkpt><trkpt lat="44.47010349384443" lon="9.19738446295687"><ele>588.0</ele><time>2026-03-28T13:47:43Z</time></trkpt><trkpt lat="44.47004585366546" lon="9.19723287878217"><ele>588.0</ele><time>2026-03-28T13:47:44Z</time></trkpt><trkpt lat="44.47000451492521" lon="9.197058965183334"><ele>588.0</ele><time>2026-03-28T13:47:45Z</time></trkpt><trkpt lat="44.46998053271432" lon="9.196912491878788"><ele>585.1999999999999</ele><time>2026-03-28T13:47:46Z</time></trkpt><trkpt lat="44.46994219066981" lon="9.196828217373314"><ele>582.4</ele><time>2026-03-28T13:47:47Z</time></trkpt><trkpt lat="44.469886908538896" lon="9.196727834836468"><ele>579.5999999999999</ele><time>2026-03-28T13:47:48Z</time></trkpt><trkpt lat="44.46979457249177" lon="9.196643339012963"><ele>576.8</ele><time>2026-03-28T13:47:49Z</time></trkpt><trkpt lat="44.469692228184655" lon="9.19656809410895"><ele>574.0</ele><time>2026-03-28T13:47:50Z</time></trkpt><trkpt lat="44.469593905750216" lon="9.196496406058925"><ele>574.0</ele><time>2026-03-28T13:47:51Z</time></trkpt><trkpt lat="44.46948954209099" lon="9.196394858611368"><ele>574.0</ele><time>2026-03-28T13:47:52Z</time></trkpt><trkpt lat="44.46940686985278" lon="9.196250945752091"><ele>574.0</ele><time>2026-03-28T13:47:53Z</time></trkpt><trkpt lat="44.46933569728111" lon="9.196118264104188"><ele>574.0</ele><time>2026-03-28T13:47:54Z</time></trkpt><trkpt lat="44.46926584412784" lon="9.19599616456529"><ele>574.0</ele><time>2026-03-28T13:47:55Z</time></trkpt><trkpt lat="44.46922295124997" lon="9.195881928342716"><ele>574.0</ele><time>2026-03-28T13:47:55.999Z</time></trkpt><trkpt lat="44.469208756678604" lon="9.195747149668712"><ele>574.0</ele><time>2026-03-28T13:47:56.999Z</time></trkpt><trkpt lat="44.469238671098566" lon="9.195611578008448"><ele>574.0</ele><time>2026-03-28T13:47:57.999Z</time></trkpt><trkpt lat="44.46927053229134" lon="9.195481762102059"><ele>574.0</ele><time>2026-03-28T13:47:58.999Z</time></trkpt><trkpt lat="44.469265604994604" lon="9.195337064530111"><ele>570.6</ele><time>2026-03-28T13:47:59.999Z</time></trkpt><trkpt lat="44.46923576800543" lon="9.195196767030668"><ele>567.2</ele><time>2026-03-28T13:48:00.999Z</time></trkpt><trkpt lat="44.469193115173915" lon="9.19507496729464"><ele>563.8000000000001</ele><time>2026-03-28T13:48:01.999Z</time></trkpt><trkpt lat="44.4691313345756" lon="9.194982557141671"><ele>560.4</ele><time>2026-03-28T13:48:02.999Z</time></trkpt><trkpt lat="44.469051625039846" lon="9.194915352943303"><ele>557.0</ele><time>2026-03-28T13:48:03.999Z</time></trkpt><trkpt lat="44.46896841034869" lon="9.19487041121213"><ele>557.0</ele><time>2026-03-28T13:48:04.999Z</time></trkpt><trkpt lat="44.46886656584918" lon="9.194850223418245"><ele>557.0</ele><time>2026-03-28T13:48:05.999Z</time></trkpt><trkpt lat="44.468767751948455" lon="9.194849543610804"><ele>557.0</ele><time>2026-03-28T13:48:06.999Z</time></trkpt><trkpt lat="44.46866926198915" lon="9.194884805899283"><ele>557.0</ele><time>2026-03-28T13:48:07.999Z</time></trkpt><trkpt lat="44.46856387309596" lon="9.19494213697253"><ele>557.0</ele><time>2026-03-28T13:48:08.999Z</time></trkpt><trkpt lat="44.46845721721549" lon="9.195003511932356"><ele>557.6</ele><time>2026-03-28T13:48:09.999Z</time></trkpt><trkpt lat="44.46835859044778" lon="9.19506026656568"><ele>558.2</ele><time>2026-03-28T13:48:10.999Z</time></trkpt><trkpt lat="44.468264719989" lon="9.195111009228773"><ele>558.8</ele><time>2026-03-28T13:48:11.999Z</time></trkpt><trkpt lat="44.46817930101994" lon="9.195164046338126"><ele>559.4</ele><time>2026-03-28T13:48:12.999Z</time></trkpt><trkpt lat="44.46807574899226" lon="9.195145075283639"><ele>560.0</ele><time>2026-03-28T13:48:13.999Z</time></trkpt><trkpt lat="44.46796162376396" lon="9.19510079590775"><ele>560.8</ele><time>2026-03-28T13:48:14.999Z</time></trkpt><trkpt lat="44.46785168371755" lon="9.195052066331963"><ele>561.6</ele><time>2026-03-28T13:48:15.999Z</time></trkpt><trkpt lat="44.467754608476525" lon="9.195006722498965"><ele>562.4</ele><time>2026-03-28T13:48:16.999Z</time></trkpt><trkpt lat="44.46767354273285" lon="9.194968468247446"><ele>563.2</ele><time>2026-03-28T13:48:17.999Z</time></trkpt><trkpt lat="44.46760897280653" lon="9.19493705297398"><ele>564.0</ele><time>2026-03-28T13:48:18.999Z</time></trkpt><trkpt lat="44.46750263710836" lon="9.194882169963003"><ele>562.1666666666666</ele><time>2026-03-28T13:48:20.999Z</time></trkpt><trkpt lat="44.46743031102661" lon="9.194758107513483"><ele>560.3333333333334</ele><time>2026-03-28T13:48:22.999Z</time></trkpt><trkpt lat="44.46744190245411" lon="9.194668628488166"><ele>558.5</ele><time>2026-03-28T13:48:23.999Z</time></trkpt><trkpt lat="44.46749003645014" lon="9.194576657677276"><ele>556.6666666666667</ele><time>2026-03-28T13:48:24.999Z</time></trkpt><trkpt lat="44.46756134163083" lon="9.194507391485963"><ele>554.8333333333334</ele><time>2026-03-28T13:48:25.999Z</time></trkpt><trkpt lat="44.46762755565274" lon="9.194458220239067"><ele>553.0</ele><time>2026-03-28T13:48:26.999Z</time></trkpt><trkpt lat="44.46769886686229" lon="9.194404550753434"><ele>553.0</ele><time>2026-03-28T13:48:27.999Z</time></trkpt><trkpt lat="44.467768625286695" lon="9.194356897710565"><ele>553.0</ele><time>2026-03-28T13:48:28.999Z</time></trkpt><trkpt lat="44.46783602481916" lon="9.194322825982153"><ele>553.0</ele><time>2026-03-28T13:48:29.999Z</time></trkpt><trkpt lat="44.467904296322864" lon="9.194287913255623"><ele>553.0</ele><time>2026-03-28T13:48:30.999Z</time></trkpt><trkpt lat="44.46797104800028" lon="9.19423223826657"><ele>553.0</ele><time>2026-03-28T13:48:31.999Z</time></trkpt><trkpt lat="44.46803416203795" lon="9.194162766762867"><ele>553.0</ele><time>2026-03-28T13:48:32.999Z</time></trkpt><trkpt lat="44.468085743825355" lon="9.194093993471956"><ele>551.6666666666667</ele><time>2026-03-28T13:48:33.999Z</time></trkpt><trkpt lat="44.46812791136675" lon="9.19402594413202"><ele>550.3333333333334</ele><time>2026-03-28T13:48:34.999Z</time></trkpt><trkpt lat="44.46816985313248" lon="9.193939120323392"><ele>549.0</ele><time>2026-03-28T13:48:35.999Z</time></trkpt><trkpt lat="44.468207286795476" lon="9.193836386048924"><ele>547.6666666666666</ele><time>2026-03-28T13:48:36.999Z</time></trkpt><trkpt lat="44.46822908007796" lon="9.193716585180645"><ele>546.3333333333333</ele><time>2026-03-28T13:48:37.999Z</time></trkpt><trkpt lat="44.468237506338994" lon="9.193604346247213"><ele>545.0</ele><time>2026-03-28T13:48:38.999Z</time></trkpt><trkpt lat="44.46823014522087" lon="9.193492992484696"><ele>544.1666666666666</ele><time>2026-03-28T13:48:39.999Z</time></trkpt><trkpt lat="44.46820536366199" lon="9.193390240628197"><ele>543.3333333333333</ele><time>2026-03-28T13:48:40.999Z</time></trkpt><trkpt lat="44.46815471612569" lon="9.193325467251714"><ele>542.5</ele><time>2026-03-28T13:48:41.999Z</time></trkpt><trkpt lat="44.468080279686" lon="9.193292782176625"><ele>541.6666666666666</ele><time>2026-03-28T13:48:42.999Z</time></trkpt><trkpt lat="44.467990993194576" lon="9.19327155993898"><ele>540.8333333333334</ele><time>2026-03-28T13:48:43.999Z</time></trkpt><trkpt lat="44.467904786198915" lon="9.193239244955775"><ele>540.0</ele><time>2026-03-28T13:48:44.999Z</time></trkpt><trkpt lat="44.46781165550898" lon="9.193255184065176"><ele>539.0</ele><time>2026-03-28T13:48:45.999Z</time></trkpt><trkpt lat="44.46772509446567" lon="9.193314908257337"><ele>538.0</ele><time>2026-03-28T13:48:46.999Z</time></trkpt><trkpt lat="44.46765281033484" lon="9.193404987877994"><ele>537.0</ele><time>2026-03-28T13:48:47.999Z</time></trkpt><trkpt lat="44.46759002660478" lon="9.19350889874234"><ele>536.0</ele><time>2026-03-28T13:48:48.999Z</time></trkpt><trkpt lat="44.467523915328414" lon="9.193600757663928"><ele>535.0</ele><time>2026-03-28T13:48:49.999Z</time></trkpt><trkpt lat="44.46743810245548" lon="9.19366280539374"><ele>535.0</ele><time>2026-03-28T13:48:50.999Z</time></trkpt><trkpt lat="44.46733592156957" lon="9.193713473542559"><ele>535.0</ele><time>2026-03-28T13:48:51.999Z</time></trkpt><trkpt lat="44.46723039618451" lon="9.19373393032705"><ele>535.0</ele><time>2026-03-28T13:48:52.999Z</time></trkpt><trkpt lat="44.46712946638215" lon="9.193719200665281"><ele>535.0</ele><time>2026-03-28T13:48:53.999Z</time></trkpt><trkpt lat="44.46701057415216" lon="9.193715881404618"><ele>535.0</ele><time>2026-03-28T13:48:54.999Z</time></trkpt><trkpt lat="44.46690904688367" lon="9.193683422932356"><ele>531.25</ele><time>2026-03-28T13:48:55.999Z</time></trkpt><trkpt lat="44.466801699335036" lon="9.19370197012235"><ele>527.5</ele><time>2026-03-28T13:48:56.999Z</time></trkpt><trkpt lat="44.46668923255272" lon="9.19374683827616"><ele>523.75</ele><time>2026-03-28T13:48:57.999Z</time></trkpt><trkpt lat="44.466573135688655" lon="9.19379574726718"><ele>520.0</ele><time>2026-03-28T13:48:58.999Z</time></trkpt><trkpt lat="44.46645054861043" lon="9.193837327843074"><ele>520.0</ele><time>2026-03-28T13:48:59.999Z</time></trkpt><trkpt lat="44.46634748161887" lon="9.193857594999642"><ele>520.0</ele><time>2026-03-28T13:49:00.999Z</time></trkpt><trkpt lat="44.46624242901791" lon="9.193866713354792"><ele>520.0</ele><time>2026-03-28T13:49:01.999Z</time></trkpt><trkpt lat="44.466130269713865" lon="9.193867834594037"><ele>520.0</ele><time>2026-03-28T13:49:02.999Z</time></trkpt><trkpt lat="44.46601632040201" lon="9.193817665794734"><ele>520.0</ele><time>2026-03-28T13:49:04Z</time></trkpt><trkpt lat="44.46589817315702" lon="9.193760486265168"><ele>520.0</ele><time>2026-03-28T13:49:05Z</time></trkpt><trkpt lat="44.46579694831942" lon="9.193718880933407"><ele>520.0</ele><time>2026-03-28T13:49:06Z</time></trkpt><trkpt lat="44.465664477788835" lon="9.19371814303847"><ele>520.0</ele><time>2026-03-28T13:49:07Z</time></trkpt><trkpt lat="44.46554833106123" lon="9.193725247946382"><ele>520.0</ele><time>2026-03-28T13:49:08Z</time></trkpt><trkpt lat="44.46542723479444" lon="9.193711539980097"><ele>521.6</ele><time>2026-03-28T13:49:09Z</time></trkpt><trkpt lat="44.46531209134738" lon="9.19369543794895"><ele>523.2</ele><time>2026-03-28T13:49:10Z</time></trkpt><trkpt lat="44.465203918415135" lon="9.193681209967222"><ele>524.8</ele><time>2026-03-28T13:49:11Z</time></trkpt><trkpt lat="44.46512162430539" lon="9.193671138232514"><ele>526.4</ele><time>2026-03-28T13:49:12Z</time></trkpt><trkpt lat="44.4650348066757" lon="9.193666186448716"><ele>528.0</ele><time>2026-03-28T13:49:13Z</time></trkpt><trkpt lat="44.46498351559623" lon="9.193580817625708"><ele>528.0</ele><time>2026-03-28T13:49:14Z</time></trkpt><trkpt lat="44.464944048490494" lon="9.193473593937696"><ele>528.0</ele><time>2026-03-28T13:49:15Z</time></trkpt><trkpt lat="44.464873190032826" lon="9.193364747334195"><ele>528.0</ele><time>2026-03-28T13:49:16Z</time></trkpt><trkpt lat="44.46480813373152" lon="9.193253599822464"><ele>528.0</ele><time>2026-03-28T13:49:17Z</time></trkpt><trkpt lat="44.46473224807789" lon="9.193166486922898"><ele>528.0</ele><time>2026-03-28T13:49:18Z</time></trkpt><trkpt lat="44.464632154706486" lon="9.193111104240574"><ele>524.1999999999999</ele><time>2026-03-28T13:49:19Z</time></trkpt><trkpt lat="44.464533906076284" lon="9.193079503931571"><ele>520.4</ele><time>2026-03-28T13:49:20Z</time></trkpt><trkpt lat="44.46443726796719" lon="9.193039953106394"><ele>516.5999999999999</ele><time>2026-03-28T13:49:21Z</time></trkpt><trkpt lat="44.46431426883661" lon="9.19307667709274"><ele>512.8</ele><time>2026-03-28T13:49:22Z</time></trkpt><trkpt lat="44.4642018313324" lon="9.193111691470747"><ele>509.0</ele><time>2026-03-28T13:49:23Z</time></trkpt><trkpt lat="44.46410080965952" lon="9.19315620506155"><ele>509.0</ele><time>2026-03-28T13:49:24Z</time></trkpt><trkpt lat="44.46398211264495" lon="9.193113260361216"><ele>509.0</ele><time>2026-03-28T13:49:25Z</time></trkpt><trkpt lat="44.463874038096236" lon="9.193007211389341"><ele>509.0</ele><time>2026-03-28T13:49:26Z</time></trkpt><trkpt lat="44.463785278037406" lon="9.192884337738152"><ele>509.0</ele><time>2026-03-28T13:49:27Z</time></trkpt><trkpt lat="44.4636806167751" lon="9.192787492948758"><ele>512.5</ele><time>2026-03-28T13:49:28Z</time></trkpt><trkpt lat="44.46354892104435" lon="9.19272060465227"><ele>516.0</ele><time>2026-03-28T13:49:29Z</time></trkpt><trkpt lat="44.463435676146226" lon="9.192626650005096"><ele>519.5</ele><time>2026-03-28T13:49:30Z</time></trkpt><trkpt lat="44.46332913877951" lon="9.192512933818287"><ele>523.0</ele><time>2026-03-28T13:49:31Z</time></trkpt><trkpt lat="44.46324664691743" lon="9.192381552065628"><ele>518.4</ele><time>2026-03-28T13:49:32Z</time></trkpt><trkpt lat="44.46318261047956" lon="9.192246871308036"><ele>513.8</ele><time>2026-03-28T13:49:33Z</time></trkpt><trkpt lat="44.46312536583692" lon="9.192119482906794"><ele>509.2</ele><time>2026-03-28T13:49:34Z</time></trkpt><trkpt lat="44.46307603459541" lon="9.192022698872998"><ele>504.6</ele><time>2026-03-28T13:49:35Z</time></trkpt><trkpt lat="44.462998200366314" lon="9.192001585396445"><ele>500.0</ele><time>2026-03-28T13:49:36Z</time></trkpt><trkpt lat="44.46291173936928" lon="9.191978932191745"><ele>498.25</ele><time>2026-03-28T13:49:37Z</time></trkpt><trkpt lat="44.462809250219074" lon="9.192022050173874"><ele>496.5</ele><time>2026-03-28T13:49:38Z</time></trkpt><trkpt lat="44.46270279877918" lon="9.192091757121961"><ele>494.75</ele><time>2026-03-28T13:49:39Z</time></trkpt><trkpt lat="44.462595133356864" lon="9.192150790612203"><ele>493.0</ele><time>2026-03-28T13:49:40Z</time></trkpt><trkpt lat="44.46247973107274" lon="9.192196575995865"><ele>493.0</ele><time>2026-03-28T13:49:41Z</time></trkpt><trkpt lat="44.46236556801169" lon="9.192241806182006"><ele>493.0</ele><time>2026-03-28T13:49:42Z</time></trkpt><trkpt lat="44.46225921361717" lon="9.192300550891902"><ele>493.0</ele><time>2026-03-28T13:49:43Z</time></trkpt><trkpt lat="44.46215793301435" lon="9.192348988059555"><ele>493.0</ele><time>2026-03-28T13:49:44Z</time></trkpt><trkpt lat="44.46203341351205" lon="9.19232392133349"><ele>490.79999999999995</ele><time>2026-03-28T13:49:45Z</time></trkpt><trkpt lat="44.46192700300716" lon="9.19231348551885"><ele>488.59999999999997</ele><time>2026-03-28T13:49:46Z</time></trkpt><trkpt lat="44.461829385528596" lon="9.19230364508985"><ele>486.40000000000003</ele><time>2026-03-28T13:49:47Z</time></trkpt><trkpt lat="44.461747721221194" lon="9.192252477719595"><ele>484.20000000000005</ele><time>2026-03-28T13:49:48Z</time></trkpt><trkpt lat="44.46168432756909" lon="9.192189178258765"><ele>482.0</ele><time>2026-03-28T13:49:49Z</time></trkpt><trkpt lat="44.461619529617025" lon="9.19212908559527"><ele>482.0</ele><time>2026-03-28T13:49:50Z</time></trkpt><trkpt lat="44.46153840052776" lon="9.192086610838308"><ele>482.00000000000006</ele><time>2026-03-28T13:49:51Z</time></trkpt><trkpt lat="44.46144929127731" lon="9.192036033383857"><ele>482.00000000000006</ele><time>2026-03-28T13:49:52Z</time></trkpt><trkpt lat="44.46137022802768" lon="9.19197227791827"><ele>482.0</ele><time>2026-03-28T13:49:53Z</time></trkpt><trkpt lat="44.46129909875637" lon="9.191873693910482"><ele>482.0</ele><time>2026-03-28T13:49:54Z</time></trkpt><trkpt lat="44.4612316159178" lon="9.191741988155401"><ele>479.6</ele><time>2026-03-28T13:49:55Z</time></trkpt><trkpt lat="44.461158197604824" lon="9.191599656529709"><ele>477.20000000000005</ele><time>2026-03-28T13:49:56Z</time></trkpt><trkpt lat="44.46107903331416" lon="9.191479495951869"><ele>474.8</ele><time>2026-03-28T13:49:57Z</time></trkpt><trkpt lat="44.46099134349163" lon="9.191393965028144"><ele>472.4</ele><time>2026-03-28T13:49:58Z</time></trkpt><trkpt lat="44.4609085626787" lon="9.191314527913926"><ele>470.0</ele><time>2026-03-28T13:49:59Z</time></trkpt><trkpt lat="44.46081113962312" lon="9.191265196832463"><ele>470.0</ele><time>2026-03-28T13:50:00Z</time></trkpt><trkpt lat="44.46072232287601" lon="9.191251054041368"><ele>470.0</ele><time>2026-03-28T13:50:01Z</time></trkpt><trkpt lat="44.46062480994606" lon="9.191242726943056"><ele>470.0</ele><time>2026-03-28T13:50:02Z</time></trkpt><trkpt lat="44.46052148616935" lon="9.19122599910145"><ele>470.0</ele><time>2026-03-28T13:50:02.999Z</time></trkpt><trkpt lat="44.46040266122352" lon="9.191228127496416"><ele>470.0</ele><time>2026-03-28T13:50:03.999Z</time></trkpt><trkpt lat="44.46029458006524" lon="9.191183407562859"><ele>469.8</ele><time>2026-03-28T13:50:04.999Z</time></trkpt><trkpt lat="44.460189835868455" lon="9.19115959880505"><ele>469.6</ele><time>2026-03-28T13:50:05.999Z</time></trkpt><trkpt lat="44.46008870757956" lon="9.191184125218298"><ele>469.4</ele><time>2026-03-28T13:50:06.999Z</time></trkpt><trkpt lat="44.45997805462363" lon="9.19124415435446"><ele>469.2</ele><time>2026-03-28T13:50:07.999Z</time></trkpt><trkpt lat="44.45987160028209" lon="9.191316554803763"><ele>469.0</ele><time>2026-03-28T13:50:08.999Z</time></trkpt><trkpt lat="44.45977111544025" lon="9.19138766066998"><ele>469.0</ele><time>2026-03-28T13:50:09.999Z</time></trkpt><trkpt lat="44.45964447078674" lon="9.191436433033433"><ele>469.0</ele><time>2026-03-28T13:50:10.999Z</time></trkpt><trkpt lat="44.459539204616064" lon="9.191504718045916"><ele>469.0</ele><time>2026-03-28T13:50:11.999Z</time></trkpt><trkpt lat="44.45941819560214" lon="9.191559746398354"><ele>469.0</ele><time>2026-03-28T13:50:12.999Z</time></trkpt><trkpt lat="44.45929976005931" lon="9.191611390184223"><ele>473.5</ele><time>2026-03-28T13:50:13.999Z</time></trkpt><trkpt lat="44.459182702820144" lon="9.191664091218941"><ele>478.0</ele><time>2026-03-28T13:50:14.999Z</time></trkpt><trkpt lat="44.4590722557424" lon="9.191712443399627"><ele>482.5</ele><time>2026-03-28T13:50:15.999Z</time></trkpt><trkpt lat="44.45896707291828" lon="9.191749423815152"><ele>487.0</ele><time>2026-03-28T13:50:16.999Z</time></trkpt><trkpt lat="44.45885730438262" lon="9.191736925920205"><ele>484.75</ele><time>2026-03-28T13:50:17.999Z</time></trkpt><trkpt lat="44.45875080842034" lon="9.191731019770597"><ele>482.5</ele><time>2026-03-28T13:50:18.999Z</time></trkpt><trkpt lat="44.45864252355021" lon="9.191737482721527"><ele>480.25</ele><time>2026-03-28T13:50:19.999Z</time></trkpt><trkpt lat="44.45853048788185" lon="9.191709045303108"><ele>478.0</ele><time>2026-03-28T13:50:20.999Z</time></trkpt><trkpt lat="44.45841694791522" lon="9.191647734839025"><ele>478.0</ele><time>2026-03-28T13:50:21.999Z</time></trkpt><trkpt lat="44.45830944641943" lon="9.191587873353104"><ele>477.99999999999994</ele><time>2026-03-28T13:50:22.999Z</time></trkpt><trkpt lat="44.45822041496906" lon="9.19154782191371"><ele>477.99999999999994</ele><time>2026-03-28T13:50:23.999Z</time></trkpt><trkpt lat="44.45812811843691" lon="9.191546420277788"><ele>478.0</ele><time>2026-03-28T13:50:24.999Z</time></trkpt><trkpt lat="44.4580271419616" lon="9.191574024083922"><ele>478.0</ele><time>2026-03-28T13:50:25.999Z</time></trkpt><trkpt lat="44.45792539608921" lon="9.191647573346204"><ele>475.0</ele><time>2026-03-28T13:50:26.999Z</time></trkpt><trkpt lat="44.45780922782069" lon="9.191701654591297"><ele>471.99999999999994</ele><time>2026-03-28T13:50:27.999Z</time></trkpt><trkpt lat="44.45769734861713" lon="9.191694491103695"><ele>468.99999999999994</ele><time>2026-03-28T13:50:28.999Z</time></trkpt><trkpt lat="44.45760628403926" lon="9.191726207494673"><ele>466.0</ele><time>2026-03-28T13:50:29.999Z</time></trkpt><trkpt lat="44.45750964642323" lon="9.191787981705128"><ele>463.0</ele><time>2026-03-28T13:50:30.999Z</time></trkpt><trkpt lat="44.45745169275273" lon="9.191855620690507"><ele>463.0</ele><time>2026-03-28T13:50:31.999Z</time></trkpt><trkpt lat="44.45733496441583" lon="9.191835374663018"><ele>462.99999999999994</ele><time>2026-03-28T13:50:33.999Z</time></trkpt><trkpt lat="44.457263664145906" lon="9.191786895669276"><ele>462.99999999999994</ele><time>2026-03-28T13:50:34.999Z</time></trkpt><trkpt lat="44.4571785587164" lon="9.191796495688402"><ele>463.0</ele><time>2026-03-28T13:50:35.999Z</time></trkpt><trkpt lat="44.45707642493518" lon="9.191827449871608"><ele>463.0</ele><time>2026-03-28T13:50:36.999Z</time></trkpt><trkpt lat="44.45695882636632" lon="9.1918922845159"><ele>458.25</ele><time>2026-03-28T13:50:37.999Z</time></trkpt><trkpt lat="44.456830904082786" lon="9.191971738975637"><ele>453.5</ele><time>2026-03-28T13:50:38.999Z</time></trkpt><trkpt lat="44.456720992262206" lon="9.192059490402766"><ele>448.75</ele><time>2026-03-28T13:50:39.999Z</time></trkpt><trkpt lat="44.45661964447066" lon="9.19214577983219"><ele>444.0</ele><time>2026-03-28T13:50:40.999Z</time></trkpt><trkpt lat="44.456524866785216" lon="9.192248529414274"><ele>444.6</ele><time>2026-03-28T13:50:41.999Z</time></trkpt><trkpt lat="44.45645420149066" lon="9.192365771794368"><ele>445.2</ele><time>2026-03-28T13:50:42.999Z</time></trkpt><trkpt lat="44.4563883148397" lon="9.192463654663962"><ele>445.80000000000007</ele><time>2026-03-28T13:50:43.999Z</time></trkpt><trkpt lat="44.45631098654597" lon="9.192524861473734"><ele>446.40000000000003</ele><time>2026-03-28T13:50:44.999Z</time></trkpt><trkpt lat="44.4562277666171" lon="9.192574140994827"><ele>447.0</ele><time>2026-03-28T13:50:45.999Z</time></trkpt><trkpt lat="44.456131281789546" lon="9.19261589031211"><ele>447.0</ele><time>2026-03-28T13:50:46.999Z</time></trkpt><trkpt lat="44.45606829336552" lon="9.192606005525752"><ele>447.0</ele><time>2026-03-28T13:50:47.999Z</time></trkpt><trkpt lat="44.45598677308282" lon="9.19256473389288"><ele>447.0</ele><time>2026-03-28T13:50:49.999Z</time></trkpt><trkpt lat="44.45598635798372" lon="9.192465138066828"><ele>447.0</ele><time>2026-03-28T13:50:50.999Z</time></trkpt><trkpt lat="44.45607315506279" lon="9.19243671619681"><ele>447.0</ele><time>2026-03-28T13:50:51.999Z</time></trkpt><trkpt lat="44.45615902874176" lon="9.192461764032837"><ele>447.0</ele><time>2026-03-28T13:50:52.999Z</time></trkpt><trkpt lat="44.45624373791936" lon="9.192417001832625"><ele>446.40000000000003</ele><time>2026-03-28T13:50:53.999Z</time></trkpt><trkpt lat="44.456326902266284" lon="9.192343905846498"><ele>445.80000000000007</ele><time>2026-03-28T13:50:54.999Z</time></trkpt><trkpt lat="44.456392540368455" lon="9.192221777402231"><ele>445.2</ele><time>2026-03-28T13:50:55.999Z</time></trkpt><trkpt lat="44.45644736248521" lon="9.19210425575335"><ele>444.6</ele><time>2026-03-28T13:50:56.999Z</time></trkpt><trkpt lat="44.45651064124275" lon="9.191982425284735"><ele>444.0</ele><time>2026-03-28T13:50:57.999Z</time></trkpt><trkpt lat="44.45658833958258" lon="9.191875879787082"><ele>444.0</ele><time>2026-03-28T13:50:58.999Z</time></trkpt><trkpt lat="44.45668520189749" lon="9.191775942872393"><ele>444.0</ele><time>2026-03-28T13:50:59.999Z</time></trkpt><trkpt lat="44.45678277224182" lon="9.19168193034847"><ele>444.0</ele><time>2026-03-28T13:51:00.999Z</time></trkpt><trkpt lat="44.45685530319175" lon="9.191593547515737"><ele>444.0</ele><time>2026-03-28T13:51:01.999Z</time></trkpt><trkpt lat="44.45691252726571" lon="9.19151799302806"><ele>444.0</ele><time>2026-03-28T13:51:02.999Z</time></trkpt><trkpt lat="44.456952126668824" lon="9.191448953555549"><ele>444.0</ele><time>2026-03-28T13:51:03.999Z</time></trkpt><trkpt lat="44.45694117309552" lon="9.191306369388649"><ele>444.0</ele><time>2026-03-28T13:51:05.999Z</time></trkpt><trkpt lat="44.456811539495924" lon="9.19126560294665"><ele>444.0</ele><time>2026-03-28T13:51:07.999Z</time></trkpt><trkpt lat="44.456754377503366" lon="9.191395966740632"><ele>444.0</ele><time>2026-03-28T13:51:08.999Z</time></trkpt><trkpt lat="44.45670664081789" lon="9.191498563508539"><ele>444.0</ele><time>2026-03-28T13:51:10Z</time></trkpt><trkpt lat="44.4566533068907" lon="9.191595857728386"><ele>444.0</ele><time>2026-03-28T13:51:11Z</time></trkpt><trkpt lat="44.456573978078396" lon="9.19163181031871"><ele>444.0</ele><time>2026-03-28T13:51:12Z</time></trkpt><trkpt lat="44.456483538481045" lon="9.191662227292953"><ele>444.0</ele><time>2026-03-28T13:51:13Z</time></trkpt><trkpt lat="44.45640460825396" lon="9.191673814136662"><ele>444.0</ele><time>2026-03-28T13:51:14Z</time></trkpt><trkpt lat="44.45632997186128" lon="9.19172570846871"><ele>444.0</ele><time>2026-03-28T13:51:15Z</time></trkpt><trkpt lat="44.45625283930617" lon="9.191823109785648"><ele>444.0</ele><time>2026-03-28T13:51:16Z</time></trkpt><trkpt lat="44.45619491726885" lon="9.191911044449885"><ele>440.1666666666667</ele><time>2026-03-28T13:51:17Z</time></trkpt><trkpt lat="44.45614448407081" lon="9.191972462000304"><ele>436.33333333333337</ele><time>2026-03-28T13:51:18Z</time></trkpt><trkpt lat="44.45607330911992" lon="9.191937742063638"><ele>432.5</ele><time>2026-03-28T13:51:19Z</time></trkpt><trkpt lat="44.45604550648253" lon="9.191831406958377"><ele>428.6666666666667</ele><time>2026-03-28T13:51:20Z</time></trkpt><trkpt lat="44.456079544529935" lon="9.19173400938852"><ele>424.83333333333337</ele><time>2026-03-28T13:51:21Z</time></trkpt><trkpt lat="44.45615383724041" lon="9.19168840531298"><ele>421.0</ele><time>2026-03-28T13:51:22Z</time></trkpt><trkpt lat="44.4562419243397" lon="9.191597688937906"><ele>419.6</ele><time>2026-03-28T13:51:23Z</time></trkpt><trkpt lat="44.456319566992114" lon="9.191513251066715"><ele>418.20000000000005</ele><time>2026-03-28T13:51:24Z</time></trkpt><trkpt lat="44.4564103085366" lon="9.191418982519316"><ele>416.79999999999995</ele><time>2026-03-28T13:51:25Z</time></trkpt><trkpt lat="44.45650157794615" lon="9.191328380004773"><ele>415.4</ele><time>2026-03-28T13:51:26Z</time></trkpt><trkpt lat="44.456595144987155" lon="9.191232277317813"><ele>414.0</ele><time>2026-03-28T13:51:27Z</time></trkpt><trkpt lat="44.45669195623561" lon="9.191133494743736"><ele>414.0</ele><time>2026-03-28T13:51:28Z</time></trkpt><trkpt lat="44.456788468812675" lon="9.191055756275821"><ele>414.0</ele><time>2026-03-28T13:51:29Z</time></trkpt><trkpt lat="44.45688939355427" lon="9.190998370615091"><ele>414.0</ele><time>2026-03-28T13:51:30Z</time></trkpt><trkpt lat="44.45699340360722" lon="9.190983976146972"><ele>414.0</ele><time>2026-03-28T13:51:31Z</time></trkpt><trkpt lat="44.457096530173956" lon="9.190993566783003"><ele>414.0</ele><time>2026-03-28T13:51:32Z</time></trkpt><trkpt lat="44.45718552823265" lon="9.191001894167421"><ele>413.4</ele><time>2026-03-28T13:51:33Z</time></trkpt><trkpt lat="44.457270427138766" lon="9.190952708100463"><ele>412.79999999999995</ele><time>2026-03-28T13:51:34Z</time></trkpt><trkpt lat="44.45733163360733" lon="9.190854702272231"><ele>412.20000000000005</ele><time>2026-03-28T13:51:35Z</time></trkpt><trkpt lat="44.457370978536986" lon="9.190720517388105"><ele>411.6</ele><time>2026-03-28T13:51:36Z</time></trkpt><trkpt lat="44.457403409960826" lon="9.190581214576977"><ele>411.0</ele><time>2026-03-28T13:51:37Z</time></trkpt><trkpt lat="44.457455265016144" lon="9.190455586048076"><ele>411.0</ele><time>2026-03-28T13:51:38Z</time></trkpt><trkpt lat="44.45752169952035" lon="9.190357161337081"><ele>411.0</ele><time>2026-03-28T13:51:39Z</time></trkpt><trkpt lat="44.457584139646734" lon="9.190275093856556"><ele>411.0</ele><time>2026-03-28T13:51:40Z</time></trkpt><trkpt lat="44.45761749269401" lon="9.190197786969195"><ele>411.0</ele><time>2026-03-28T13:51:41Z</time></trkpt><trkpt lat="44.457586382237" lon="9.190050729381623"><ele>411.0</ele><time>2026-03-28T13:51:43Z</time></trkpt><trkpt lat="44.4575254163055" lon="9.190026883809043"><ele>411.0</ele><time>2026-03-28T13:51:44Z</time></trkpt><trkpt lat="44.45745125379853" lon="9.190028297636726"><ele>411.0</ele><time>2026-03-28T13:51:45Z</time></trkpt><trkpt lat="44.457378612487126" lon="9.190143757591878"><ele>411.0</ele><time>2026-03-28T13:51:46Z</time></trkpt><trkpt lat="44.457330362782834" lon="9.190256090697831"><ele>411.0</ele><time>2026-03-28T13:51:47Z</time></trkpt><trkpt lat="44.45728996226253" lon="9.190361395992355"><ele>411.0</ele><time>2026-03-28T13:51:48Z</time></trkpt><trkpt lat="44.457244901783184" lon="9.190464723360291"><ele>411.0</ele><time>2026-03-28T13:51:49Z</time></trkpt><trkpt lat="44.4572001224751" lon="9.190559863929089"><ele>411.0</ele><time>2026-03-28T13:51:50Z</time></trkpt><trkpt lat="44.45714248286663" lon="9.190638174997307"><ele>411.0</ele><time>2026-03-28T13:51:51Z</time></trkpt><trkpt lat="44.45706779912468" lon="9.190694733276432"><ele>411.0</ele><time>2026-03-28T13:51:52Z</time></trkpt><trkpt lat="44.4569643649619" lon="9.190688967976628"><ele>411.0</ele><time>2026-03-28T13:51:53Z</time></trkpt><trkpt lat="44.456860434623735" lon="9.190693354275625"><ele>411.0</ele><time>2026-03-28T13:51:54Z</time></trkpt><trkpt lat="44.456745235814196" lon="9.190692970962319"><ele>411.75</ele><time>2026-03-28T13:51:55Z</time></trkpt><trkpt lat="44.45663502113394" lon="9.190727744425981"><ele>412.5</ele><time>2026-03-28T13:51:56Z</time></trkpt><trkpt lat="44.45652589596961" lon="9.1907791327297"><ele>413.25</ele><time>2026-03-28T13:51:57Z</time></trkpt><trkpt lat="44.45641445855986" lon="9.190841758981017"><ele>414.0</ele><time>2026-03-28T13:51:58Z</time></trkpt><trkpt lat="44.456300240540166" lon="9.190907243305213"><ele>408.0</ele><time>2026-03-28T13:51:59Z</time></trkpt><trkpt lat="44.45618299473312" lon="9.190973005986365"><ele>402.0</ele><time>2026-03-28T13:52:00Z</time></trkpt><trkpt lat="44.45606268257766" lon="9.191040587318922"><ele>396.0</ele><time>2026-03-28T13:52:01Z</time></trkpt><trkpt lat="44.45594160409529" lon="9.191109456321795"><ele>390.0</ele><time>2026-03-28T13:52:02Z</time></trkpt><trkpt lat="44.455827428454796" lon="9.191177655204392"><ele>390.0</ele><time>2026-03-28T13:52:03Z</time></trkpt><trkpt lat="44.45572267976361" lon="9.191246824308415"><ele>390.0</ele><time>2026-03-28T13:52:04Z</time></trkpt><trkpt lat="44.45562229225881" lon="9.191314935886012"><ele>390.0</ele><time>2026-03-28T13:52:04.999Z</time></trkpt><trkpt lat="44.455528219863986" lon="9.191379181331675"><ele>390.0</ele><time>2026-03-28T13:52:05.999Z</time></trkpt><trkpt lat="44.455436743455586" lon="9.191439568225839"><ele>390.0</ele><time>2026-03-28T13:52:06.999Z</time></trkpt><trkpt lat="44.455350301859106" lon="9.19151138884429"><ele>390.2</ele><time>2026-03-28T13:52:07.999Z</time></trkpt><trkpt lat="44.45525918689917" lon="9.191558119884494"><ele>390.4</ele><time>2026-03-28T13:52:08.999Z</time></trkpt><trkpt lat="44.455172532949426" lon="9.191599160303712"><ele>390.6</ele><time>2026-03-28T13:52:09.999Z</time></trkpt><trkpt lat="44.45508621370887" lon="9.191639738531233"><ele>390.8</ele><time>2026-03-28T13:52:10.999Z</time></trkpt><trkpt lat="44.45500207920239" lon="9.19168231465374"><ele>391.0</ele><time>2026-03-28T13:52:11.999Z</time></trkpt><trkpt lat="44.45492261633544" lon="9.191731229802416"><ele>391.0</ele><time>2026-03-28T13:52:12.999Z</time></trkpt><trkpt lat="44.45483764354521" lon="9.191761472588146"><ele>391.0</ele><time>2026-03-28T13:52:13.999Z</time></trkpt><trkpt lat="44.45476191587291" lon="9.191833371506794"><ele>391.0</ele><time>2026-03-28T13:52:14.999Z</time></trkpt><trkpt lat="44.45468810074308" lon="9.191931893640296"><ele>391.0</ele><time>2026-03-28T13:52:15.999Z</time></trkpt><trkpt lat="44.45461440866552" lon="9.192043497042917"><ele>391.0</ele><time>2026-03-28T13:52:16.999Z</time></trkpt><trkpt lat="44.45453075266361" lon="9.192159267198612"><ele>389.75</ele><time>2026-03-28T13:52:17.999Z</time></trkpt><trkpt lat="44.454434125519825" lon="9.19224039731087"><ele>388.5</ele><time>2026-03-28T13:52:18.999Z</time></trkpt><trkpt lat="44.45434281188971" lon="9.192319572065385"><ele>387.25</ele><time>2026-03-28T13:52:19.999Z</time></trkpt><trkpt lat="44.45426799998145" lon="9.192438005373766"><ele>386.0</ele><time>2026-03-28T13:52:20.999Z</time></trkpt><trkpt lat="44.45419173043959" lon="9.192568591886978"><ele>386.0</ele><time>2026-03-28T13:52:21.999Z</time></trkpt><trkpt lat="44.45411613822535" lon="9.192700459417985"><ele>386.0</ele><time>2026-03-28T13:52:22.999Z</time></trkpt><trkpt lat="44.45403800840685" lon="9.192824068605544"><ele>386.0</ele><time>2026-03-28T13:52:23.999Z</time></trkpt><trkpt lat="44.453969034146944" lon="9.192951720555296"><ele>386.0</ele><time>2026-03-28T13:52:24.999Z</time></trkpt><trkpt lat="44.45388414032136" lon="9.193042536468393"><ele>385.99999999999994</ele><time>2026-03-28T13:52:25.999Z</time></trkpt><trkpt lat="44.45380950759393" lon="9.19311340871653"><ele>386.0</ele><time>2026-03-28T13:52:26.999Z</time></trkpt><trkpt lat="44.45375609456143" lon="9.193178465985227"><ele>386.0</ele><time>2026-03-28T13:52:27.999Z</time></trkpt><trkpt lat="44.45368706617363" lon="9.193185902324082"><ele>386.0</ele><time>2026-03-28T13:52:28.999Z</time></trkpt><trkpt lat="44.45364465089856" lon="9.19306659321402"><ele>385.99999999999994</ele><time>2026-03-28T13:52:31.999Z</time></trkpt><trkpt lat="44.45370353698044" lon="9.192987785030931"><ele>386.0</ele><time>2026-03-28T13:52:32.999Z</time></trkpt><trkpt lat="44.45377503811095" lon="9.192910083501369"><ele>386.0</ele><time>2026-03-28T13:52:33.999Z</time></trkpt><trkpt lat="44.45382119498354" lon="9.19279243901311"><ele>386.0</ele><time>2026-03-28T13:52:34.999Z</time></trkpt><trkpt lat="44.45386710281111" lon="9.192650109525148"><ele>386.0</ele><time>2026-03-28T13:52:35.999Z</time></trkpt><trkpt lat="44.4539151315227" lon="9.192508608217908"><ele>386.0</ele><time>2026-03-28T13:52:36.999Z</time></trkpt><trkpt lat="44.45396953401205" lon="9.192387278857408"><ele>386.0</ele><time>2026-03-28T13:52:37.999Z</time></trkpt><trkpt lat="44.45403133242623" lon="9.192274936082082"><ele>382.8</ele><time>2026-03-28T13:52:38.999Z</time></trkpt><trkpt lat="44.45411016549973" lon="9.19216163110836"><ele>379.6</ele><time>2026-03-28T13:52:39.999Z</time></trkpt><trkpt lat="44.4541931479643" lon="9.192067451368992"><ele>376.4</ele><time>2026-03-28T13:52:40.999Z</time></trkpt><trkpt lat="44.45428032953287" lon="9.192000412575952"><ele>373.2</ele><time>2026-03-28T13:52:41.999Z</time></trkpt><trkpt lat="44.454351672542295" lon="9.191923179320275"><ele>370.0</ele><time>2026-03-28T13:52:42.999Z</time></trkpt><trkpt lat="44.4544047094698" lon="9.191806511183644"><ele>370.0</ele><time>2026-03-28T13:52:43.999Z</time></trkpt><trkpt lat="44.45444476511801" lon="9.191667683111081"><ele>370.0</ele><time>2026-03-28T13:52:44.999Z</time></trkpt><trkpt lat="44.454495878333255" lon="9.191533527647184"><ele>370.0</ele><time>2026-03-28T13:52:45.999Z</time></trkpt><trkpt lat="44.45455482260407" lon="9.191429632602132"><ele>370.0</ele><time>2026-03-28T13:52:46.999Z</time></trkpt><trkpt lat="44.45461611588161" lon="9.19135462088496"><ele>370.0</ele><time>2026-03-28T13:52:47.999Z</time></trkpt><trkpt lat="44.45469792461995" lon="9.191300415143608"><ele>370.0</ele><time>2026-03-28T13:52:48.999Z</time></trkpt><trkpt lat="44.45478539512783" lon="9.191235858509026"><ele>370.0</ele><time>2026-03-28T13:52:49.999Z</time></trkpt><trkpt lat="44.45487481543125" lon="9.191157772627697"><ele>370.0</ele><time>2026-03-28T13:52:50.999Z</time></trkpt><trkpt lat="44.4549601528829" lon="9.191080646267007"><ele>370.0</ele><time>2026-03-28T13:52:51.999Z</time></trkpt><trkpt lat="44.45504557054737" lon="9.19099385919875"><ele>370.0</ele><time>2026-03-28T13:52:52.999Z</time></trkpt><trkpt lat="44.455129788534194" lon="9.190902090557941"><ele>370.0</ele><time>2026-03-28T13:52:53.999Z</time></trkpt><trkpt lat="44.45521282058836" lon="9.190812749335322"><ele>370.0</ele><time>2026-03-28T13:52:54.999Z</time></trkpt><trkpt lat="44.455290463888296" lon="9.19073611610558"><ele>370.0</ele><time>2026-03-28T13:52:55.999Z</time></trkpt><trkpt lat="44.45536675025778" lon="9.190669876376282"><ele>370.0</ele><time>2026-03-28T13:52:56.999Z</time></trkpt><trkpt lat="44.45545216381854" lon="9.190613605816425"><ele>370.0</ele><time>2026-03-28T13:52:57.999Z</time></trkpt><trkpt lat="44.45554084763355" lon="9.190568522478493"><ele>369.8333333333333</ele><time>2026-03-28T13:52:58.999Z</time></trkpt><trkpt lat="44.45562936031246" lon="9.190530077346828"><ele>369.66666666666663</ele><time>2026-03-28T13:52:59.999Z</time></trkpt><trkpt lat="44.455706943935155" lon="9.190479391513906"><ele>369.5</ele><time>2026-03-28T13:53:00.999Z</time></trkpt><trkpt lat="44.45576072634295" lon="9.190393506797879"><ele>369.3333333333333</ele><time>2026-03-28T13:53:01.999Z</time></trkpt><trkpt lat="44.45580001252132" lon="9.190279519077423"><ele>369.1666666666667</ele><time>2026-03-28T13:53:02.999Z</time></trkpt><trkpt lat="44.45584211124152" lon="9.190157449590487"><ele>369.0</ele><time>2026-03-28T13:53:03.999Z</time></trkpt><trkpt lat="44.4558985368847" lon="9.190035023785205"><ele>369.0</ele><time>2026-03-28T13:53:04.999Z</time></trkpt><trkpt lat="44.4559574606062" lon="9.189913436505538"><ele>369.0</ele><time>2026-03-28T13:53:05.999Z</time></trkpt><trkpt lat="44.45601443979453" lon="9.189788869923177"><ele>369.0</ele><time>2026-03-28T13:53:06.999Z</time></trkpt><trkpt lat="44.45606196860873" lon="9.189663004790733"><ele>369.0</ele><time>2026-03-28T13:53:07.999Z</time></trkpt><trkpt lat="44.45608371875631" lon="9.189534119810723"><ele>369.0</ele><time>2026-03-28T13:53:08.999Z</time></trkpt><trkpt lat="44.45608099066361" lon="9.189409019482996"><ele>367.8333333333333</ele><time>2026-03-28T13:53:09.999Z</time></trkpt><trkpt lat="44.45605478409609" lon="9.189289815093154"><ele>366.6666666666667</ele><time>2026-03-28T13:53:10.999Z</time></trkpt><trkpt lat="44.455996045787835" lon="9.18919475337219"><ele>365.5</ele><time>2026-03-28T13:53:11.999Z</time></trkpt><trkpt lat="44.45592338914802" lon="9.189129310183091"><ele>364.33333333333337</ele><time>2026-03-28T13:53:12.999Z</time></trkpt><trkpt lat="44.455837301517704" lon="9.189109504628288"><ele>363.1666666666667</ele><time>2026-03-28T13:53:13.999Z</time></trkpt><trkpt lat="44.455751070273145" lon="9.189100421775533"><ele>362.0</ele><time>2026-03-28T13:53:14.999Z</time></trkpt><trkpt lat="44.455657497044406" lon="9.189174095910213"><ele>362.0</ele><time>2026-03-28T13:53:16Z</time></trkpt><trkpt lat="44.45558377449819" lon="9.189265407988817"><ele>362.0</ele><time>2026-03-28T13:53:17Z</time></trkpt><trkpt lat="44.4555084300398" lon="9.189360813103214"><ele>362.0</ele><time>2026-03-28T13:53:18Z</time></trkpt><trkpt lat="44.45543706285809" lon="9.189449070742054"><ele>362.0</ele><time>2026-03-28T13:53:19Z</time></trkpt><trkpt lat="44.455363195160565" lon="9.189538273776126"><ele>362.0</ele><time>2026-03-28T13:53:20Z</time></trkpt><trkpt lat="44.45528968855365" lon="9.189627040703023"><ele>361.0</ele><time>2026-03-28T13:53:21Z</time></trkpt><trkpt lat="44.45521769140325" lon="9.189711288642386"><ele>360.0</ele><time>2026-03-28T13:53:22Z</time></trkpt><trkpt lat="44.45514541504492" lon="9.189791348623462"><ele>359.0</ele><time>2026-03-28T13:53:23Z</time></trkpt><trkpt lat="44.45507402476172" lon="9.18986716867448"><ele>358.0</ele><time>2026-03-28T13:53:24Z</time></trkpt><trkpt lat="44.45500356884292" lon="9.189936984242436"><ele>357.0</ele><time>2026-03-28T13:53:25Z</time></trkpt><trkpt lat="44.454931496615856" lon="9.190000564398112"><ele>356.0</ele><time>2026-03-28T13:53:26Z</time></trkpt><trkpt lat="44.45485362857889" lon="9.190066240882754"><ele>356.0</ele><time>2026-03-28T13:53:27Z</time></trkpt><trkpt lat="44.454767105882816" lon="9.190122652123751"><ele>356.0</ele><time>2026-03-28T13:53:28Z</time></trkpt><trkpt lat="44.45467642415237" lon="9.190193433452094"><ele>356.0</ele><time>2026-03-28T13:53:29Z</time></trkpt><trkpt lat="44.45457893804426" lon="9.190243304965055"><ele>356.0</ele><time>2026-03-28T13:53:30Z</time></trkpt><trkpt lat="44.454481115105686" lon="9.190280705294294"><ele>356.0</ele><time>2026-03-28T13:53:31Z</time></trkpt><trkpt lat="44.45439759679814" lon="9.190355754755084"><ele>355.83333333333337</ele><time>2026-03-28T13:53:32Z</time></trkpt><trkpt lat="44.454320814040535" lon="9.190433213929678"><ele>355.6666666666667</ele><time>2026-03-28T13:53:33Z</time></trkpt><trkpt lat="44.454239190742534" lon="9.190505513075882"><ele>355.5</ele><time>2026-03-28T13:53:34Z</time></trkpt><trkpt lat="44.454174713181885" lon="9.190595367087328"><ele>355.3333333333333</ele><time>2026-03-28T13:53:35Z</time></trkpt><trkpt lat="44.45411936722463" lon="9.190689066318942"><ele>355.16666666666663</ele><time>2026-03-28T13:53:36Z</time></trkpt><trkpt lat="44.4540660700055" lon="9.190772669532725"><ele>355.0</ele><time>2026-03-28T13:53:37Z</time></trkpt><trkpt lat="44.4539932614607" lon="9.190815331479673"><ele>355.0</ele><time>2026-03-28T13:53:38Z</time></trkpt><trkpt lat="44.45391319029611" lon="9.190827290417477"><ele>355.0</ele><time>2026-03-28T13:53:39Z</time></trkpt><trkpt lat="44.45382760150114" lon="9.190833082405865"><ele>355.0</ele><time>2026-03-28T13:53:40Z</time></trkpt><trkpt lat="44.45373294310022" lon="9.190840375085365"><ele>355.0</ele><time>2026-03-28T13:53:41Z</time></trkpt><trkpt lat="44.453647943507804" lon="9.190869016806396"><ele>355.0</ele><time>2026-03-28T13:53:42Z</time></trkpt><trkpt lat="44.45357090874472" lon="9.190924238451489"><ele>355.0</ele><time>2026-03-28T13:53:43Z</time></trkpt><trkpt lat="44.45350495758884" lon="9.191032368420265"><ele>353.6</ele><time>2026-03-28T13:53:44Z</time></trkpt><trkpt lat="44.45344573196727" lon="9.191150083786564"><ele>352.2</ele><time>2026-03-28T13:53:45Z</time></trkpt><trkpt lat="44.45337943626256" lon="9.191270801818018"><ele>350.79999999999995</ele><time>2026-03-28T13:53:46Z</time></trkpt><trkpt lat="44.45331173393345" lon="9.191400626089049"><ele>349.4</ele><time>2026-03-28T13:53:47Z</time></trkpt><trkpt lat="44.45326181934342" lon="9.191547504225865"><ele>348.0</ele><time>2026-03-28T13:53:48Z</time></trkpt><trkpt lat="44.4532065948269" lon="9.191675742448618"><ele>348.0</ele><time>2026-03-28T13:53:49Z</time></trkpt><trkpt lat="44.45316015927679" lon="9.191799441435302"><ele>348.0</ele><time>2026-03-28T13:53:50Z</time></trkpt><trkpt lat="44.4531273831165" lon="9.19192340576513"><ele>348.0</ele><time>2026-03-28T13:53:51Z</time></trkpt><trkpt lat="44.45305385927046" lon="9.192035544986"><ele>348.0</ele><time>2026-03-28T13:53:52Z</time></trkpt><trkpt lat="44.45302111917248" lon="9.192147056377264"><ele>348.0</ele><time>2026-03-28T13:53:53Z</time></trkpt><trkpt lat="44.45292807812745" lon="9.192263447710376"><ele>348.0</ele><time>2026-03-28T13:53:55Z</time></trkpt><trkpt lat="44.45285809733224" lon="9.192247449867839"><ele>348.0</ele><time>2026-03-28T13:53:56Z</time></trkpt><trkpt lat="44.452785959310795" lon="9.192229549340373"><ele>348.0</ele><time>2026-03-28T13:53:57Z</time></trkpt><trkpt lat="44.452736554692365" lon="9.1921617715528"><ele>348.0</ele><time>2026-03-28T13:53:58Z</time></trkpt><trkpt lat="44.45271946397926" lon="9.192047794539764"><ele>348.0</ele><time>2026-03-28T13:53:59Z</time></trkpt><trkpt lat="44.45272312513773" lon="9.191918552464697"><ele>348.0</ele><time>2026-03-28T13:54:00Z</time></trkpt><trkpt lat="44.4527200381278" lon="9.191772467265679"><ele>348.0</ele><time>2026-03-28T13:54:01Z</time></trkpt><trkpt lat="44.45272537068869" lon="9.191612236262092"><ele>348.0</ele><time>2026-03-28T13:54:02Z</time></trkpt><trkpt lat="44.452740990675245" lon="9.19144870097761"><ele>348.0</ele><time>2026-03-28T13:54:03Z</time></trkpt><trkpt lat="44.45276806507824" lon="9.19129591009309"><ele>348.0</ele><time>2026-03-28T13:54:04Z</time></trkpt><trkpt lat="44.452787155247336" lon="9.191159457400532"><ele>348.0</ele><time>2026-03-28T13:54:05Z</time></trkpt><trkpt lat="44.45282037120303" lon="9.1910208880649"><ele>346.4</ele><time>2026-03-28T13:54:06Z</time></trkpt><trkpt lat="44.45286374105872" lon="9.190884061614511"><ele>344.79999999999995</ele><time>2026-03-28T13:54:07Z</time></trkpt><trkpt lat="44.452906786851194" lon="9.1907421810186"><ele>343.2</ele><time>2026-03-28T13:54:08Z</time></trkpt><trkpt lat="44.45293743527709" lon="9.190603701453968"><ele>341.6</ele><time>2026-03-28T13:54:09Z</time></trkpt><trkpt lat="44.452946085770584" lon="9.190472974544853"><ele>340.0</ele><time>2026-03-28T13:54:10Z</time></trkpt><trkpt lat="44.452904025827166" lon="9.19036898416694"><ele>336.8</ele><time>2026-03-28T13:54:11Z</time></trkpt><trkpt lat="44.45283231537447" lon="9.19028895356147"><ele>333.6</ele><time>2026-03-28T13:54:12Z</time></trkpt><trkpt lat="44.4527628971823" lon="9.19020386053063"><ele>330.4</ele><time>2026-03-28T13:54:13Z</time></trkpt><trkpt lat="44.45269043578702" lon="9.190114967258266"><ele>327.2</ele><time>2026-03-28T13:54:13.999Z</time></trkpt><trkpt lat="44.45259775062375" lon="9.190044021348125"><ele>324.0</ele><time>2026-03-28T13:54:14.999Z</time></trkpt><trkpt lat="44.452507325869256" lon="9.189989104563443"><ele>324.0</ele><time>2026-03-28T13:54:15.999Z</time></trkpt><trkpt lat="44.45241613436354" lon="9.189949463160989"><ele>324.0</ele><time>2026-03-28T13:54:16.999Z</time></trkpt><trkpt lat="44.45232241736372" lon="9.189902442990528"><ele>324.0</ele><time>2026-03-28T13:54:17.999Z</time></trkpt><trkpt lat="44.45221941054087" lon="9.189906700250841"><ele>324.0</ele><time>2026-03-28T13:54:18.999Z</time></trkpt><trkpt lat="44.45211912061536" lon="9.189921515491276"><ele>324.0</ele><time>2026-03-28T13:54:19.999Z</time></trkpt><trkpt lat="44.45201973281675" lon="9.189934159146384"><ele>324.2</ele><time>2026-03-28T13:54:20.999Z</time></trkpt><trkpt lat="44.45191919659894" lon="9.189946839171448"><ele>324.4</ele><time>2026-03-28T13:54:21.999Z</time></trkpt><trkpt lat="44.45181916904475" lon="9.189978305286902"><ele>324.6</ele><time>2026-03-28T13:54:22.999Z</time></trkpt><trkpt lat="44.451718348335085" lon="9.18998000763531"><ele>324.8</ele><time>2026-03-28T13:54:23.999Z</time></trkpt><trkpt lat="44.45162008485712" lon="9.18998580856771"><ele>325.0</ele><time>2026-03-28T13:54:24.999Z</time></trkpt><trkpt lat="44.45152337647527" lon="9.190003168249204"><ele>325.0</ele><time>2026-03-28T13:54:25.999Z</time></trkpt><trkpt lat="44.45143587619303" lon="9.190052433308969"><ele>325.0</ele><time>2026-03-28T13:54:26.999Z</time></trkpt><trkpt lat="44.451373874991546" lon="9.190108261662083"><ele>325.0</ele><time>2026-03-28T13:54:27.999Z</time></trkpt><trkpt lat="44.45129693077936" lon="9.190090893705515"><ele>325.0</ele><time>2026-03-28T13:54:28.999Z</time></trkpt><trkpt lat="44.451225152436066" lon="9.190013121301394"><ele>325.0</ele><time>2026-03-28T13:54:29.999Z</time></trkpt><trkpt lat="44.451156464532644" lon="9.189935662743878"><ele>325.0</ele><time>2026-03-28T13:54:30.999Z</time></trkpt><trkpt lat="44.45107713474526" lon="9.189854502748917"><ele>324.6</ele><time>2026-03-28T13:54:31.999Z</time></trkpt><trkpt lat="44.45099907158958" lon="9.189764369304648"><ele>324.2</ele><time>2026-03-28T13:54:32.999Z</time></trkpt><trkpt lat="44.45092000735261" lon="9.189664394555512"><ele>323.79999999999995</ele><time>2026-03-28T13:54:33.999Z</time></trkpt><trkpt lat="44.45084619196876" lon="9.189541385141377"><ele>323.4</ele><time>2026-03-28T13:54:34.999Z</time></trkpt><trkpt lat="44.4507782001643" lon="9.18941623906831"><ele>323.0</ele><time>2026-03-28T13:54:35.999Z</time></trkpt><trkpt lat="44.45072590159573" lon="9.189295813329348"><ele>323.0</ele><time>2026-03-28T13:54:36.999Z</time></trkpt><trkpt lat="44.450680219833664" lon="9.189190587519173"><ele>323.0</ele><time>2026-03-28T13:54:37.999Z</time></trkpt><trkpt lat="44.45064529557709" lon="9.189073959214847"><ele>323.0</ele><time>2026-03-28T13:54:38.999Z</time></trkpt><trkpt lat="44.450602690985434" lon="9.188955959820932"><ele>323.0</ele><time>2026-03-28T13:54:39.999Z</time></trkpt><trkpt lat="44.450549782598266" lon="9.188835800558582"><ele>323.0</ele><time>2026-03-28T13:54:40.999Z</time></trkpt><trkpt lat="44.450481199156165" lon="9.188736938113719"><ele>322.79999999999995</ele><time>2026-03-28T13:54:41.999Z</time></trkpt><trkpt lat="44.450388155247815" lon="9.188666285118916"><ele>322.6</ele><time>2026-03-28T13:54:42.999Z</time></trkpt><trkpt lat="44.4502950553429" lon="9.188584246714411"><ele>322.4</ele><time>2026-03-28T13:54:43.999Z</time></trkpt><trkpt lat="44.45020934687707" lon="9.188481830359885"><ele>322.20000000000005</ele><time>2026-03-28T13:54:44.999Z</time></trkpt><trkpt lat="44.4501247917331" lon="9.188398033496398"><ele>322.0</ele><time>2026-03-28T13:54:45.999Z</time></trkpt><trkpt lat="44.45003514282961" lon="9.188315310287468"><ele>322.0</ele><time>2026-03-28T13:54:46.999Z</time></trkpt><trkpt lat="44.449924896367136" lon="9.188259160936173"><ele>322.0</ele><time>2026-03-28T13:54:47.999Z</time></trkpt><trkpt lat="44.44980640389907" lon="9.188215990639526"><ele>322.0</ele><time>2026-03-28T13:54:48.999Z</time></trkpt><trkpt lat="44.44968033781804" lon="9.188180190526735"><ele>322.0</ele><time>2026-03-28T13:54:49.999Z</time></trkpt><trkpt lat="44.44957527528474" lon="9.188161580654008"><ele>319.0</ele><time>2026-03-28T13:54:50.999Z</time></trkpt><trkpt lat="44.4494730279905" lon="9.188139917121697"><ele>316.0</ele><time>2026-03-28T13:54:51.999Z</time></trkpt><trkpt lat="44.449381926599294" lon="9.188106384905893"><ele>313.0</ele><time>2026-03-28T13:54:52.999Z</time></trkpt><trkpt lat="44.44929831799402" lon="9.187997782757199"><ele>310.0</ele><time>2026-03-28T13:54:53.999Z</time></trkpt><trkpt lat="44.44921201794831" lon="9.1878960660651"><ele>307.0</ele><time>2026-03-28T13:54:54.999Z</time></trkpt><trkpt lat="44.4491216423719" lon="9.18782144316365"><ele>307.0</ele><time>2026-03-28T13:54:55.999Z</time></trkpt><trkpt lat="44.449042597845256" lon="9.187745200573843"><ele>307.0</ele><time>2026-03-28T13:54:56.999Z</time></trkpt><trkpt lat="44.44893369705819" lon="9.187724346645018"><ele>307.0</ele><time>2026-03-28T13:54:57.999Z</time></trkpt><trkpt lat="44.44881718195653" lon="9.187761275987635"><ele>307.0</ele><time>2026-03-28T13:54:58.999Z</time></trkpt><trkpt lat="44.44872081982236" lon="9.187790258038424"><ele>307.0</ele><time>2026-03-28T13:54:59.999Z</time></trkpt><trkpt lat="44.4486324346218" lon="9.187752316110481"><ele>308.0</ele><time>2026-03-28T13:55:00.999Z</time></trkpt><trkpt lat="44.44854512522349" lon="9.187659807700806"><ele>309.0</ele><time>2026-03-28T13:55:01.999Z</time></trkpt><trkpt lat="44.448441054165734" lon="9.187624085142911"><ele>310.0</ele><time>2026-03-28T13:55:02.999Z</time></trkpt><trkpt lat="44.448326367734055" lon="9.187579710478104"><ele>311.0</ele><time>2026-03-28T13:55:03.999Z</time></trkpt><trkpt lat="44.44820846309048" lon="9.187539375861848"><ele>311.0</ele><time>2026-03-28T13:55:04.999Z</time></trkpt><trkpt lat="44.44809389632645" lon="9.18750125539372"><ele>311.0</ele><time>2026-03-28T13:55:05.999Z</time></trkpt><trkpt lat="44.44797811409464" lon="9.187478597125791"><ele>311.0</ele><time>2026-03-28T13:55:06.999Z</time></trkpt><trkpt lat="44.44785985021869" lon="9.187451256799664"><ele>311.0</ele><time>2026-03-28T13:55:07.999Z</time></trkpt><trkpt lat="44.44774541193648" lon="9.187491333816768"><ele>312.0</ele><time>2026-03-28T13:55:08.999Z</time></trkpt><trkpt lat="44.44765468446922" lon="9.18753254808572"><ele>313.0</ele><time>2026-03-28T13:55:09.999Z</time></trkpt><trkpt lat="44.44755277525745" lon="9.187490365229362"><ele>314.0</ele><time>2026-03-28T13:55:10.999Z</time></trkpt><trkpt lat="44.447452908294196" lon="9.187435252865596"><ele>315.0</ele><time>2026-03-28T13:55:11.999Z</time></trkpt><trkpt lat="44.44735039526626" lon="9.187419068028222"><ele>316.0</ele><time>2026-03-28T13:55:12.999Z</time></trkpt><trkpt lat="44.44723445595182" lon="9.187412245875718"><ele>312.5</ele><time>2026-03-28T13:55:13.999Z</time></trkpt><trkpt lat="44.447119057700164" lon="9.187446738206344"><ele>309.0</ele><time>2026-03-28T13:55:14.999Z</time></trkpt><trkpt lat="44.44700551200411" lon="9.187495984503363"><ele>305.5</ele><time>2026-03-28T13:55:15.999Z</time></trkpt><trkpt lat="44.446893313411515" lon="9.187546683459306"><ele>302.0</ele><time>2026-03-28T13:55:16.999Z</time></trkpt><trkpt lat="44.44678259911745" lon="9.187610868123967"><ele>302.0</ele><time>2026-03-28T13:55:17.999Z</time></trkpt><trkpt lat="44.44667600907257" lon="9.187680013911153"><ele>302.0</ele><time>2026-03-28T13:55:18.999Z</time></trkpt><trkpt lat="44.44657827067997" lon="9.18774095888602"><ele>302.0</ele><time>2026-03-28T13:55:19.999Z</time></trkpt><trkpt lat="44.44647602648097" lon="9.187752459001304"><ele>302.0</ele><time>2026-03-28T13:55:20.999Z</time></trkpt><trkpt lat="44.446377052017795" lon="9.187781908577865"><ele>302.0</ele><time>2026-03-28T13:55:22Z</time></trkpt><trkpt lat="44.44627564808395" lon="9.187825313145481"><ele>303.8</ele><time>2026-03-28T13:55:23Z</time></trkpt><trkpt lat="44.4461849451774" lon="9.187924868712248"><ele>305.6</ele><time>2026-03-28T13:55:24Z</time></trkpt><trkpt lat="44.44608478370561" lon="9.18800466506473"><ele>307.40000000000003</ele><time>2026-03-28T13:55:25Z</time></trkpt><trkpt lat="44.44598876316228" lon="9.188088936805103"><ele>309.2</ele><time>2026-03-28T13:55:26Z</time></trkpt><trkpt lat="44.44589804044962" lon="9.188149212750531"><ele>311.0</ele><time>2026-03-28T13:55:27Z</time></trkpt><trkpt lat="44.445816532367324" lon="9.188214759838083"><ele>311.0</ele><time>2026-03-28T13:55:28Z</time></trkpt><trkpt lat="44.445731362067505" lon="9.188269564409168"><ele>311.0</ele><time>2026-03-28T13:55:29Z</time></trkpt><trkpt lat="44.44566381342247" lon="9.188387967446735"><ele>311.0</ele><time>2026-03-28T13:55:30Z</time></trkpt><trkpt lat="44.44561815479819" lon="9.18853758831136"><ele>311.0</ele><time>2026-03-28T13:55:31Z</time></trkpt><trkpt lat="44.44558016790855" lon="9.188671621416777"><ele>311.0</ele><time>2026-03-28T13:55:32Z</time></trkpt><trkpt lat="44.445540936731994" lon="9.1887950693151"><ele>311.0</ele><time>2026-03-28T13:55:33Z</time></trkpt><trkpt lat="44.44547110105422" lon="9.188846591578926"><ele>311.0</ele><time>2026-03-28T13:55:34Z</time></trkpt><trkpt lat="44.44536671193506" lon="9.18887956392288"><ele>311.0</ele><time>2026-03-28T13:55:35Z</time></trkpt><trkpt lat="44.445243695499364" lon="9.188877687612967"><ele>311.0</ele><time>2026-03-28T13:55:36Z</time></trkpt><trkpt lat="44.44512094490675" lon="9.188907612394422"><ele>311.0</ele><time>2026-03-28T13:55:37Z</time></trkpt><trkpt lat="44.44500313149021" lon="9.18895286534004"><ele>312.0</ele><time>2026-03-28T13:55:38Z</time></trkpt><trkpt lat="44.444875026305844" lon="9.189015248612716"><ele>313.0</ele><time>2026-03-28T13:55:39Z</time></trkpt><trkpt lat="44.44474062375506" lon="9.189062737685632"><ele>314.0</ele><time>2026-03-28T13:55:40Z</time></trkpt><trkpt lat="44.44461981704611" lon="9.189138822436313"><ele>315.0</ele><time>2026-03-28T13:55:41Z</time></trkpt><trkpt lat="44.4445061925671" lon="9.189226592304655"><ele>308.0</ele><time>2026-03-28T13:55:42Z</time></trkpt><trkpt lat="44.444390970413885" lon="9.189258632277951"><ele>301.0</ele><time>2026-03-28T13:55:43Z</time></trkpt><trkpt lat="44.4442795555417" lon="9.189268039449633"><ele>294.0</ele><time>2026-03-28T13:55:44Z</time></trkpt><trkpt lat="44.44417127188583" lon="9.189298766001894"><ele>287.0</ele><time>2026-03-28T13:55:45Z</time></trkpt><trkpt lat="44.444059741942645" lon="9.18933036729607"><ele>287.0</ele><time>2026-03-28T13:55:46Z</time></trkpt><trkpt lat="44.443961235136555" lon="9.189446358601394"><ele>287.0</ele><time>2026-03-28T13:55:47Z</time></trkpt><trkpt lat="44.443896845985435" lon="9.18957041820449"><ele>287.0</ele><time>2026-03-28T13:55:48Z</time></trkpt><trkpt lat="44.44384012301628" lon="9.18966175777719"><ele>287.0</ele><time>2026-03-28T13:55:49Z</time></trkpt><trkpt lat="44.44375478053559" lon="9.189696998003633"><ele>287.0</ele><time>2026-03-28T13:55:50Z</time></trkpt><trkpt lat="44.44364297753" lon="9.18968145988989"><ele>288.25</ele><time>2026-03-28T13:55:51Z</time></trkpt><trkpt lat="44.4435191485387" lon="9.189705627641565"><ele>289.5</ele><time>2026-03-28T13:55:52Z</time></trkpt><trkpt lat="44.44340417257629" lon="9.18976502730543"><ele>290.75</ele><time>2026-03-28T13:55:53Z</time></trkpt><trkpt lat="44.44329329405758" lon="9.189828182480184"><ele>292.0</ele><time>2026-03-28T13:55:54Z</time></trkpt><trkpt lat="44.443190963126995" lon="9.189898790895946"><ele>292.0</ele><time>2026-03-28T13:55:55Z</time></trkpt><trkpt lat="44.44311199728941" lon="9.190007573720745"><ele>292.0</ele><time>2026-03-28T13:55:56Z</time></trkpt><trkpt lat="44.443046276372634" lon="9.190087089536481"><ele>292.0</ele><time>2026-03-28T13:55:57Z</time></trkpt><trkpt lat="44.44296103926929" lon="9.190107417168099"><ele>292.0</ele><time>2026-03-28T13:55:58Z</time></trkpt><trkpt lat="44.44285713180843" lon="9.19011676795554"><ele>292.0</ele><time>2026-03-28T13:55:59Z</time></trkpt><trkpt lat="44.442747598606516" lon="9.190112426291366"><ele>291.2</ele><time>2026-03-28T13:56:00Z</time></trkpt><trkpt lat="44.44265591184808" lon="9.190177330038521"><ele>290.4</ele><time>2026-03-28T13:56:01Z</time></trkpt><trkpt lat="44.44259049037303" lon="9.190233097027148"><ele>289.6</ele><time>2026-03-28T13:56:02Z</time></trkpt><trkpt lat="44.44251430980323" lon="9.190259306252244"><ele>288.8</ele><time>2026-03-28T13:56:03Z</time></trkpt><trkpt lat="44.44243362923791" lon="9.190182846792473"><ele>288.0</ele><time>2026-03-28T13:56:04Z</time></trkpt><trkpt lat="44.442367686931156" lon="9.190062068879833"><ele>288.0</ele><time>2026-03-28T13:56:05Z</time></trkpt><trkpt lat="44.44230308691818" lon="9.189940830589864"><ele>288.0</ele><time>2026-03-28T13:56:06Z</time></trkpt><trkpt lat="44.44221425621771" lon="9.1898383312528"><ele>288.0</ele><time>2026-03-28T13:56:07Z</time></trkpt><trkpt lat="44.44211766486608" lon="9.189752901912197"><ele>288.0</ele><time>2026-03-28T13:56:08Z</time></trkpt><trkpt lat="44.44203671368235" lon="9.189650674493343"><ele>288.0</ele><time>2026-03-28T13:56:09Z</time></trkpt><trkpt lat="44.441984391585486" lon="9.18951503197711"><ele>286.4</ele><time>2026-03-28T13:56:10Z</time></trkpt><trkpt lat="44.44195676257999" lon="9.189363082503016"><ele>284.8</ele><time>2026-03-28T13:56:11Z</time></trkpt><trkpt lat="44.44195207099206" lon="9.189216581880777"><ele>283.2</ele><time>2026-03-28T13:56:12Z</time></trkpt><trkpt lat="44.44192551387807" lon="9.189103195119149"><ele>281.6</ele><time>2026-03-28T13:56:13Z</time></trkpt><trkpt lat="44.44185619340751" lon="9.189020190845431"><ele>280.0</ele><time>2026-03-28T13:56:14Z</time></trkpt><trkpt lat="44.44177412256026" lon="9.188976300613795"><ele>280.0</ele><time>2026-03-28T13:56:15Z</time></trkpt><trkpt lat="44.44168461365533" lon="9.188957548270457"><ele>280.0</ele><time>2026-03-28T13:56:16Z</time></trkpt><trkpt lat="44.44157811760633" lon="9.188999701232076"><ele>280.0</ele><time>2026-03-28T13:56:17Z</time></trkpt><trkpt lat="44.44146350549495" lon="9.189025672380245"><ele>280.0</ele><time>2026-03-28T13:56:18Z</time></trkpt><trkpt lat="44.44134483732872" lon="9.189026211128876"><ele>280.0</ele><time>2026-03-28T13:56:18.999Z</time></trkpt><trkpt lat="44.44121316983174" lon="9.189020271063425"><ele>271.0</ele><time>2026-03-28T13:56:19.999Z</time></trkpt><trkpt lat="44.441084900727894" lon="9.188990310306593"><ele>262.0</ele><time>2026-03-28T13:56:20.999Z</time></trkpt><trkpt lat="44.44096074628174" lon="9.188972044411322"><ele>253.0</ele><time>2026-03-28T13:56:21.999Z</time></trkpt><trkpt lat="44.440846599908994" lon="9.18895153856956"><ele>244.0</ele><time>2026-03-28T13:56:22.999Z</time></trkpt><trkpt lat="44.44073639276099" lon="9.188932569595934"><ele>244.0</ele><time>2026-03-28T13:56:23.999Z</time></trkpt><trkpt lat="44.44063050644815" lon="9.188902528930463"><ele>243.99999999999997</ele><time>2026-03-28T13:56:24.999Z</time></trkpt><trkpt lat="44.440542443973946" lon="9.188831455532437"><ele>243.99999999999997</ele><time>2026-03-28T13:56:25.999Z</time></trkpt><trkpt lat="44.44048020667385" lon="9.188708782418779"><ele>244.0</ele><time>2026-03-28T13:56:26.999Z</time></trkpt><trkpt lat="44.44043605770435" lon="9.188588820007682"><ele>244.0</ele><time>2026-03-28T13:56:27.999Z</time></trkpt><trkpt lat="44.44036845584715" lon="9.188517239969018"><ele>245.2</ele><time>2026-03-28T13:56:28.999Z</time></trkpt><trkpt lat="44.440290530555636" lon="9.188447230601744"><ele>246.39999999999998</ele><time>2026-03-28T13:56:29.999Z</time></trkpt><trkpt lat="44.44018171443451" lon="9.188441416809752"><ele>247.6</ele><time>2026-03-28T13:56:30.999Z</time></trkpt><trkpt lat="44.440079136401565" lon="9.188431695339974"><ele>248.8</ele><time>2026-03-28T13:56:31.999Z</time></trkpt><trkpt lat="44.43997710487212" lon="9.188477929442865"><ele>250.0</ele><time>2026-03-28T13:56:32.999Z</time></trkpt><trkpt lat="44.439891302871835" lon="9.188563871603243"><ele>250.0</ele><time>2026-03-28T13:56:33.999Z</time></trkpt><trkpt lat="44.4398240653571" lon="9.188618802931344"><ele>250.0</ele><time>2026-03-28T13:56:34.999Z</time></trkpt><trkpt lat="44.43973714707627" lon="9.188630533614196"><ele>250.0</ele><time>2026-03-28T13:56:35.999Z</time></trkpt><trkpt lat="44.43964354022225" lon="9.188560885607613"><ele>250.0</ele><time>2026-03-28T13:56:36.999Z</time></trkpt><trkpt lat="44.4395578858556" lon="9.18848365103517"><ele>250.0</ele><time>2026-03-28T13:56:37.999Z</time></trkpt><trkpt lat="44.43945183772702" lon="9.18847312264485"><ele>248.75</ele><time>2026-03-28T13:56:38.999Z</time></trkpt><trkpt lat="44.4393379107609" lon="9.188488344411178"><ele>247.5</ele><time>2026-03-28T13:56:39.999Z</time></trkpt><trkpt lat="44.43922834506783" lon="9.188552953426113"><ele>246.25</ele><time>2026-03-28T13:56:40.999Z</time></trkpt><trkpt lat="44.43912121636865" lon="9.188606650313005"><ele>245.0</ele><time>2026-03-28T13:56:41.999Z</time></trkpt><trkpt lat="44.439008125425005" lon="9.18863603237069"><ele>245.0</ele><time>2026-03-28T13:56:42.999Z</time></trkpt><trkpt lat="44.438891271181866" lon="9.188575661302641"><ele>245.0</ele><time>2026-03-28T13:56:43.999Z</time></trkpt><trkpt lat="44.43877694674604" lon="9.188555849828449"><ele>245.0</ele><time>2026-03-28T13:56:44.999Z</time></trkpt><trkpt lat="44.43866998401832" lon="9.188574381687687"><ele>245.0</ele><time>2026-03-28T13:56:45.999Z</time></trkpt><trkpt lat="44.43856985200825" lon="9.188588912887992"><ele>245.0</ele><time>2026-03-28T13:56:46.999Z</time></trkpt><trkpt lat="44.438473422910334" lon="9.188523389853788"><ele>244.4</ele><time>2026-03-28T13:56:47.999Z</time></trkpt><trkpt lat="44.43839806843382" lon="9.188427238139969"><ele>243.8</ele><time>2026-03-28T13:56:48.999Z</time></trkpt><trkpt lat="44.43832787566501" lon="9.188338965802885"><ele>243.2</ele><time>2026-03-28T13:56:49.999Z</time></trkpt><trkpt lat="44.43822552281651" lon="9.18829498820098"><ele>242.6</ele><time>2026-03-28T13:56:50.999Z</time></trkpt><trkpt lat="44.43811485297997" lon="9.18830263380817"><ele>242.0</ele><time>2026-03-28T13:56:51.999Z</time></trkpt><trkpt lat="44.438002284139884" lon="9.188337660978423"><ele>244.0</ele><time>2026-03-28T13:56:52.999Z</time></trkpt><trkpt lat="44.437906599941684" lon="9.188436861221987"><ele>246.0</ele><time>2026-03-28T13:56:53.999Z</time></trkpt><trkpt lat="44.43783633868108" lon="9.188526912971868"><ele>248.0</ele><time>2026-03-28T13:56:54.999Z</time></trkpt><trkpt lat="44.437770172483475" lon="9.188601947891899"><ele>250.0</ele><time>2026-03-28T13:56:55.999Z</time></trkpt><trkpt lat="44.43770541007278" lon="9.188621338730012"><ele>252.0</ele><time>2026-03-28T13:56:56.999Z</time></trkpt><trkpt lat="44.43763448799827" lon="9.188528621114397"><ele>252.0</ele><time>2026-03-28T13:56:57.999Z</time></trkpt><trkpt lat="44.437599202099285" lon="9.188384701764384"><ele>252.0</ele><time>2026-03-28T13:56:58.999Z</time></trkpt><trkpt lat="44.437570452746115" lon="9.18824239579908"><ele>252.0</ele><time>2026-03-28T13:56:59.999Z</time></trkpt><trkpt lat="44.43753597694933" lon="9.188096868380354"><ele>252.0</ele><time>2026-03-28T13:57:00.999Z</time></trkpt><trkpt lat="44.43747754196861" lon="9.18797853830906"><ele>252.0</ele><time>2026-03-28T13:57:01.999Z</time></trkpt><trkpt lat="44.43739307640242" lon="9.187885906578133"><ele>249.0</ele><time>2026-03-28T13:57:02.999Z</time></trkpt><trkpt lat="44.43728244639131" lon="9.187827114339914"><ele>246.0</ele><time>2026-03-28T13:57:03.999Z</time></trkpt><trkpt lat="44.437174891210965" lon="9.18777419924203"><ele>243.0</ele><time>2026-03-28T13:57:04.999Z</time></trkpt><trkpt lat="44.43707720309439" lon="9.18772817129795"><ele>240.0</ele><time>2026-03-28T13:57:05.999Z</time></trkpt><trkpt lat="44.436984524292335" lon="9.187701929375324"><ele>237.0</ele><time>2026-03-28T13:57:06.999Z</time></trkpt><trkpt lat="44.43689311101936" lon="9.187789400905464"><ele>237.0</ele><time>2026-03-28T13:57:07.999Z</time></trkpt><trkpt lat="44.43682045277664" lon="9.187869503719794"><ele>237.0</ele><time>2026-03-28T13:57:08.999Z</time></trkpt><trkpt lat="44.436729460943674" lon="9.187875294149437"><ele>237.0</ele><time>2026-03-28T13:57:09.999Z</time></trkpt><trkpt lat="44.43663797821651" lon="9.18780802363312"><ele>237.0</ele><time>2026-03-28T13:57:10.999Z</time></trkpt><trkpt lat="44.43655678154845" lon="9.187715486672564"><ele>237.0</ele><time>2026-03-28T13:57:11.999Z</time></trkpt><trkpt lat="44.43648258805659" lon="9.187608909925075"><ele>237.0</ele><time>2026-03-28T13:57:12.999Z</time></trkpt><trkpt lat="44.43641650417638" lon="9.18749359378805"><ele>237.0</ele><time>2026-03-28T13:57:13.999Z</time></trkpt><trkpt lat="44.43634860284523" lon="9.187362932964923"><ele>237.0</ele><time>2026-03-28T13:57:14.999Z</time></trkpt><trkpt lat="44.436268055621255" lon="9.187233092262376"><ele>237.0</ele><time>2026-03-28T13:57:15.999Z</time></trkpt><trkpt lat="44.43618201097046" lon="9.187101834783393"><ele>237.25</ele><time>2026-03-28T13:57:16.999Z</time></trkpt><trkpt lat="44.43609825506176" lon="9.186966779258944"><ele>237.5</ele><time>2026-03-28T13:57:17.999Z</time></trkpt><trkpt lat="44.436010836372176" lon="9.186828794709555"><ele>237.75</ele><time>2026-03-28T13:57:18.999Z</time></trkpt><trkpt lat="44.435933822224264" lon="9.186690001602729"><ele>238.0</ele><time>2026-03-28T13:57:19.999Z</time></trkpt><trkpt lat="44.43587175408568" lon="9.186547744574717"><ele>229.5</ele><time>2026-03-28T13:57:20.999Z</time></trkpt><trkpt lat="44.435811442974554" lon="9.186414729306666"><ele>221.0</ele><time>2026-03-28T13:57:21.999Z</time></trkpt><trkpt lat="44.43572562775644" lon="9.186317391127696"><ele>212.5</ele><time>2026-03-28T13:57:22.999Z</time></trkpt><trkpt lat="44.435615307574245" lon="9.186263382581693"><ele>204.0</ele><time>2026-03-28T13:57:23.999Z</time></trkpt><trkpt lat="44.435491051431406" lon="9.186254145214535"><ele>203.5</ele><time>2026-03-28T13:57:24.999Z</time></trkpt><trkpt lat="44.435367007433065" lon="9.186283003457786"><ele>203.0</ele><time>2026-03-28T13:57:25.999Z</time></trkpt><trkpt lat="44.435234343376855" lon="9.186297132872077"><ele>202.5</ele><time>2026-03-28T13:57:26.999Z</time></trkpt><trkpt lat="44.4351010817491" lon="9.18631120102981"><ele>202.0</ele><time>2026-03-28T13:57:28Z</time></trkpt><trkpt lat="44.43497846823797" lon="9.186315205351887"><ele>202.0</ele><time>2026-03-28T13:57:29Z</time></trkpt><trkpt lat="44.434862644296956" lon="9.186343978599549"><ele>202.0</ele><time>2026-03-28T13:57:30Z</time></trkpt><trkpt lat="44.43474793146327" lon="9.18630595510663"><ele>202.0</ele><time>2026-03-28T13:57:31Z</time></trkpt><trkpt lat="44.43463911112622" lon="9.186238838641803"><ele>202.0</ele><time>2026-03-28T13:57:32Z</time></trkpt><trkpt lat="44.4345403727059" lon="9.186172691131786"><ele>201.8</ele><time>2026-03-28T13:57:33Z</time></trkpt><trkpt lat="44.43443754522334" lon="9.18612939638346"><ele>201.6</ele><time>2026-03-28T13:57:34Z</time></trkpt><trkpt lat="44.43433821089643" lon="9.186108363973718"><ele>201.4</ele><time>2026-03-28T13:57:35Z</time></trkpt><trkpt lat="44.43423225402841" lon="9.186065604634337"><ele>201.20000000000002</ele><time>2026-03-28T13:57:36Z</time></trkpt><trkpt lat="44.434137454542814" lon="9.186056061842418"><ele>201.0</ele><time>2026-03-28T13:57:37Z</time></trkpt><trkpt lat="44.43403908397624" lon="9.186073714359985"><ele>201.0</ele><time>2026-03-28T13:57:38Z</time></trkpt><trkpt lat="44.43394392338849" lon="9.186143136924661"><ele>201.0</ele><time>2026-03-28T13:57:39Z</time></trkpt><trkpt lat="44.43385292189605" lon="9.186244391303164"><ele>201.0</ele><time>2026-03-28T13:57:40Z</time></trkpt><trkpt lat="44.43376904576939" lon="9.186339033563675"><ele>201.0</ele><time>2026-03-28T13:57:41Z</time></trkpt><trkpt lat="44.43368495237939" lon="9.186432371714062"><ele>201.0</ele><time>2026-03-28T13:57:42Z</time></trkpt><trkpt lat="44.43357497802427" lon="9.186467344197952"><ele>198.75</ele><time>2026-03-28T13:57:43Z</time></trkpt><trkpt lat="44.43345705053817" lon="9.18644845696553"><ele>196.5</ele><time>2026-03-28T13:57:44Z</time></trkpt><trkpt lat="44.4333317413648" lon="9.186418351126191"><ele>194.25</ele><time>2026-03-28T13:57:45Z</time></trkpt><trkpt lat="44.43319838939426" lon="9.186397115439464"><ele>192.0</ele><time>2026-03-28T13:57:46Z</time></trkpt><trkpt lat="44.43306000638365" lon="9.186376453179514"><ele>191.5</ele><time>2026-03-28T13:57:47Z</time></trkpt><trkpt lat="44.43291701063618" lon="9.186344509942403"><ele>191.0</ele><time>2026-03-28T13:57:48Z</time></trkpt><trkpt lat="44.43277234623726" lon="9.186302166274258"><ele>190.5</ele><time>2026-03-28T13:57:49Z</time></trkpt><trkpt lat="44.43262733082295" lon="9.186238290913714"><ele>190.0</ele><time>2026-03-28T13:57:50Z</time></trkpt><trkpt lat="44.43248273346217" lon="9.186155496191295"><ele>190.0</ele><time>2026-03-28T13:57:51Z</time></trkpt><trkpt lat="44.43234628655761" lon="9.186073659492028"><ele>190.0</ele><time>2026-03-28T13:57:52Z</time></trkpt><trkpt lat="44.43222779052701" lon="9.185991260952697"><ele>190.0</ele><time>2026-03-28T13:57:53Z</time></trkpt><trkpt lat="44.43212884294605" lon="9.185875107091272"><ele>190.0</ele><time>2026-03-28T13:57:54Z</time></trkpt><trkpt lat="44.432052632194306" lon="9.18573069465264"><ele>188.2</ele><time>2026-03-28T13:57:55Z</time></trkpt><trkpt lat="44.431996295587155" lon="9.185581588257838"><ele>186.4</ele><time>2026-03-28T13:57:56Z</time></trkpt><trkpt lat="44.431932577756854" lon="9.185458486683778"><ele>184.60000000000002</ele><time>2026-03-28T13:57:57Z</time></trkpt><trkpt lat="44.43186839242606" lon="9.185377542235074"><ele>182.8</ele><time>2026-03-28T13:57:58Z</time></trkpt><trkpt lat="44.431806435298974" lon="9.1853448701263"><ele>181.0</ele><time>2026-03-28T13:57:59Z</time></trkpt><trkpt lat="44.43172434426246" lon="9.185336922292533"><ele>181.0</ele><time>2026-03-28T13:58:00Z</time></trkpt><trkpt lat="44.431641685484095" lon="9.185401940612346"><ele>181.0</ele><time>2026-03-28T13:58:01Z</time></trkpt><trkpt lat="44.43156176066154" lon="9.185470733409613"><ele>181.0</ele><time>2026-03-28T13:58:02Z</time></trkpt><trkpt lat="44.43147289469191" lon="9.185538757071182"><ele>181.0</ele><time>2026-03-28T13:58:03Z</time></trkpt><trkpt lat="44.43138245055526" lon="9.18557589048261"><ele>181.0</ele><time>2026-03-28T13:58:04Z</time></trkpt><trkpt lat="44.43128689752008" lon="9.185609870785294"><ele>181.0</ele><time>2026-03-28T13:58:05Z</time></trkpt><trkpt lat="44.431192149699065" lon="9.185621844147262"><ele>181.0</ele><time>2026-03-28T13:58:06Z</time></trkpt><trkpt lat="44.43109619647985" lon="9.185627807639275"><ele>181.0</ele><time>2026-03-28T13:58:07Z</time></trkpt><trkpt lat="44.43100283349162" lon="9.185621381036443"><ele>181.0</ele><time>2026-03-28T13:58:08Z</time></trkpt><trkpt lat="44.43090889628263" lon="9.185611771162243"><ele>181.0</ele><time>2026-03-28T13:58:09Z</time></trkpt><trkpt lat="44.43082724310977" lon="9.185609484143088"><ele>181.0</ele><time>2026-03-28T13:58:10Z</time></trkpt><trkpt lat="44.430724917776104" lon="9.18554169505545"><ele>181.0</ele><time>2026-03-28T13:58:12Z</time></trkpt><trkpt lat="44.43069526717275" lon="9.185396358610838"><ele>181.0</ele><time>2026-03-28T13:58:14Z</time></trkpt><trkpt lat="44.43082849675878" lon="9.185387052003247"><ele>181.0</ele><time>2026-03-28T13:58:15Z</time></trkpt><trkpt lat="44.43090265117985" lon="9.185353078287664"><ele>181.0</ele><time>2026-03-28T13:58:16Z</time></trkpt><trkpt lat="44.43098924613629" lon="9.185325483325435"><ele>181.0</ele><time>2026-03-28T13:58:17Z</time></trkpt><trkpt lat="44.43108012813569" lon="9.185281200526136"><ele>181.0</ele><time>2026-03-28T13:58:18Z</time></trkpt><trkpt lat="44.431163827107206" lon="9.185203650199961"><ele>181.0</ele><time>2026-03-28T13:58:19Z</time></trkpt><trkpt lat="44.431251436880764" lon="9.185135233389287"><ele>181.0</ele><time>2026-03-28T13:58:19.999Z</time></trkpt><trkpt lat="44.43133681877725" lon="9.185066439091633"><ele>181.0</ele><time>2026-03-28T13:58:20.999Z</time></trkpt><trkpt lat="44.43141361363706" lon="9.184988980332959"><ele>181.0</ele><time>2026-03-28T13:58:21.999Z</time></trkpt><trkpt lat="44.43148973723629" lon="9.184912286522813"><ele>181.0</ele><time>2026-03-28T13:58:22.999Z</time></trkpt><trkpt lat="44.43156671592539" lon="9.184845883722137"><ele>181.0</ele><time>2026-03-28T13:58:23.999Z</time></trkpt><trkpt lat="44.43163547013855" lon="9.184801024144152"><ele>181.0</ele><time>2026-03-28T13:58:24.999Z</time></trkpt><trkpt lat="44.431717316612264" lon="9.184728350195234"><ele>181.0</ele><time>2026-03-28T13:58:26.999Z</time></trkpt><trkpt lat="44.4317390189076" lon="9.18462207011963"><ele>181.0</ele><time>2026-03-28T13:58:29.999Z</time></trkpt><trkpt lat="44.43174215047636" lon="9.184506951448121"><ele>178.20000000000002</ele><time>2026-03-28T13:58:42.999Z</time></trkpt><trkpt lat="44.43164579446587" lon="9.18442217655894"><ele>175.4</ele><time>2026-03-28T13:58:44.999Z</time></trkpt><trkpt lat="44.43151688901906" lon="9.184426104884997"><ele>172.6</ele><time>2026-03-28T13:58:46.999Z</time></trkpt><trkpt lat="44.43144219663625" lon="9.18444655433279"><ele>169.8</ele><time>2026-03-28T13:58:47.999Z</time></trkpt><trkpt lat="44.431371020152405" lon="9.184466041146127"><ele>167.0</ele><time>2026-03-28T13:58:48.999Z</time></trkpt><trkpt lat="44.43130354537384" lon="9.184481745105487"><ele>167.0</ele><time>2026-03-28T13:58:49.999Z</time></trkpt><trkpt lat="44.431240603621305" lon="9.184491432176051"><ele>167.0</ele><time>2026-03-28T13:58:50.999Z</time></trkpt><trkpt lat="44.4311767538638" lon="9.18449018514002"><ele>167.0</ele><time>2026-03-28T13:58:51.999Z</time></trkpt><trkpt lat="44.431106743772986" lon="9.18448076027526"><ele>167.0</ele><time>2026-03-28T13:58:52.999Z</time></trkpt><trkpt lat="44.431027923804535" lon="9.184464740467357"><ele>167.0</ele><time>2026-03-28T13:58:53.999Z</time></trkpt><trkpt lat="44.43094987348742" lon="9.184443434603926"><ele>167.0</ele><time>2026-03-28T13:58:54.999Z</time></trkpt><trkpt lat="44.43087219898795" lon="9.184418250094488"><ele>167.0</ele><time>2026-03-28T13:58:55.999Z</time></trkpt><trkpt lat="44.430793682185765" lon="9.184389706728068"><ele>167.0</ele><time>2026-03-28T13:58:56.999Z</time></trkpt><trkpt lat="44.43070953030617" lon="9.184362089055195"><ele>167.0</ele><time>2026-03-28T13:58:57.999Z</time></trkpt><trkpt lat="44.430637051839916" lon="9.18426701896431"><ele>167.0</ele><time>2026-03-28T13:58:58.999Z</time></trkpt><trkpt lat="44.430590969442825" lon="9.184146114432036"><ele>167.0</ele><time>2026-03-28T13:58:59.999Z</time></trkpt><trkpt lat="44.43058156571531" lon="9.184004152063029"><ele>167.0</ele><time>2026-03-28T13:59:00.999Z</time></trkpt><trkpt lat="44.43057558481772" lon="9.183855113413768"><ele>167.5</ele><time>2026-03-28T13:59:01.999Z</time></trkpt><trkpt lat="44.4305579518615" lon="9.18369905885155"><ele>168.0</ele><time>2026-03-28T13:59:02.999Z</time></trkpt><trkpt lat="44.430515396027204" lon="9.183545105701612"><ele>168.5</ele><time>2026-03-28T13:59:03.999Z</time></trkpt><trkpt lat="44.43045400555039" lon="9.183405638439263"><ele>169.0</ele><time>2026-03-28T13:59:04.999Z</time></trkpt><trkpt lat="44.43038364045489" lon="9.183286381481494"><ele>169.0</ele><time>2026-03-28T13:59:05.999Z</time></trkpt><trkpt lat="44.43030451821243" lon="9.183183692325802"><ele>169.0</ele><time>2026-03-28T13:59:06.999Z</time></trkpt><trkpt lat="44.43022630517795" lon="9.183098917516846"><ele>169.0</ele><time>2026-03-28T13:59:07.999Z</time></trkpt><trkpt lat="44.430153533451" lon="9.18301739650662"><ele>169.0</ele><time>2026-03-28T13:59:08.999Z</time></trkpt><trkpt lat="44.4300869048511" lon="9.18294469214777"><ele>169.0</ele><time>2026-03-28T13:59:09.999Z</time></trkpt><trkpt lat="44.43002502542701" lon="9.182872464511924"><ele>166.0</ele><time>2026-03-28T13:59:10.999Z</time></trkpt><trkpt lat="44.42997329147602" lon="9.18280580965179"><ele>163.0</ele><time>2026-03-28T13:59:11.999Z</time></trkpt><trkpt lat="44.42989611071741" lon="9.182704627096568"><ele>160.0</ele><time>2026-03-28T13:59:13.999Z</time></trkpt><trkpt lat="44.42984265153839" lon="9.182635788192798"><ele>157.0</ele><time>2026-03-28T13:59:16.999Z</time></trkpt><trkpt lat="44.42980110013457" lon="9.182533182368015"><ele>154.0</ele><time>2026-03-28T13:59:24.999Z</time></trkpt><trkpt lat="44.42964113385668" lon="9.182639557612271"><ele>153.5</ele><time>2026-03-28T13:59:26.999Z</time></trkpt><trkpt lat="44.429590079415966" lon="9.182691764943458"><ele>153.0</ele><time>2026-03-28T13:59:27.999Z</time></trkpt><trkpt lat="44.429532543692794" lon="9.182753159548538"><ele>152.5</ele><time>2026-03-28T13:59:28.999Z</time></trkpt><trkpt lat="44.42946631588715" lon="9.182827656180812"><ele>152.0</ele><time>2026-03-28T13:59:29.999Z</time></trkpt><trkpt lat="44.42940195838232" lon="9.182910985205437"><ele>151.5</ele><time>2026-03-28T13:59:30.999Z</time></trkpt><trkpt lat="44.42934374281784" lon="9.18300092244697"><ele>151.0</ele><time>2026-03-28T13:59:31.999Z</time></trkpt><trkpt lat="44.42929326978202" lon="9.18309049620865"><ele>152.2</ele><time>2026-03-28T13:59:32.999Z</time></trkpt><trkpt lat="44.42924486868196" lon="9.183192736023365"><ele>153.39999999999998</ele><time>2026-03-28T13:59:34Z</time></trkpt><trkpt lat="44.429201492813256" lon="9.183305711800726"><ele>154.6</ele><time>2026-03-28T13:59:35Z</time></trkpt><trkpt lat="44.42916215541143" lon="9.18343114130167"><ele>155.79999999999998</ele><time>2026-03-28T13:59:36Z</time></trkpt><trkpt lat="44.42913516426543" lon="9.183563604027977"><ele>157.0</ele><time>2026-03-28T13:59:37Z</time></trkpt><trkpt lat="44.42911867832714" lon="9.183697487151957"><ele>157.0</ele><time>2026-03-28T13:59:38Z</time></trkpt><trkpt lat="44.42911267679824" lon="9.183822362524461"><ele>157.0</ele><time>2026-03-28T13:59:39Z</time></trkpt><trkpt lat="44.429105854897955" lon="9.18393739254948"><ele>157.0</ele><time>2026-03-28T13:59:40Z</time></trkpt><trkpt lat="44.42909999523981" lon="9.184045782452007"><ele>157.0</ele><time>2026-03-28T13:59:41Z</time></trkpt><trkpt lat="44.42909638592655" lon="9.184150452724671"><ele>157.0</ele><time>2026-03-28T13:59:42Z</time></trkpt><trkpt lat="44.42909359387498" lon="9.184239460034034"><ele>157.0</ele><time>2026-03-28T13:59:43Z</time></trkpt><trkpt lat="44.429091119408994" lon="9.184365127796847"><ele>157.0</ele><time>2026-03-28T13:59:45Z</time></trkpt><trkpt lat="44.4290891229971" lon="9.18446652283899"><ele>157.0</ele><time>2026-03-28T13:59:48Z</time></trkpt><trkpt lat="44.429037766071765" lon="9.184533091689426"><ele>157.0</ele><time>2026-03-28T13:59:51Z</time></trkpt><trkpt lat="44.42887776031454" lon="9.184329925792655"><ele>157.0</ele><time>2026-03-28T13:59:54Z</time></trkpt><trkpt lat="44.4288011782432" lon="9.1843263907368"><ele>157.0</ele><time>2026-03-28T13:59:56Z</time></trkpt><trkpt lat="44.42875600352137" lon="9.184515055899093"><ele>154.79999999999998</ele><time>2026-03-28T13:59:57Z</time></trkpt><trkpt lat="44.4286701314695" lon="9.184512355652183"><ele>152.6</ele><time>2026-03-28T13:59:59Z</time></trkpt><trkpt lat="44.4285776649097" lon="9.184510820418275"><ele>150.39999999999998</ele><time>2026-03-28T14:00:01Z</time></trkpt><trkpt lat="44.42850474877957" lon="9.184326890281117"><ele>148.2</ele><time>2026-03-28T14:00:04Z</time></trkpt><trkpt lat="44.42843456045829" lon="9.184227423889078"><ele>146.0</ele><time>2026-03-28T14:00:06Z</time></trkpt><trkpt lat="44.42836486100498" lon="9.184233614285764"><ele>146.0</ele><time>2026-03-28T14:00:08Z</time></trkpt><trkpt lat="44.42840528769882" lon="9.184510030453168"><ele>146.0</ele><time>2026-03-28T14:00:11Z</time></trkpt><trkpt lat="44.4284990628605" lon="9.184508915077986"><ele>146.0</ele><time>2026-03-28T14:00:13Z</time></trkpt><trkpt lat="44.42856616008232" lon="9.184545422054693"><ele>146.0</ele><time>2026-03-28T14:00:14Z</time></trkpt><trkpt lat="44.42863367122317" lon="9.184527240134093"><ele>146.0</ele><time>2026-03-28T14:00:15Z</time></trkpt><trkpt lat="44.42871203556928" lon="9.184532520805808"><ele>146.0</ele><time>2026-03-28T14:00:16Z</time></trkpt><trkpt lat="44.42878593229746" lon="9.184525502218566"><ele>146.0</ele><time>2026-03-28T14:00:17Z</time></trkpt><trkpt lat="44.42885968588181" lon="9.184521333199623"><ele>146.0</ele><time>2026-03-28T14:00:18Z</time></trkpt><trkpt lat="44.42892917127411" lon="9.184539830506424"><ele>146.0</ele><time>2026-03-28T14:00:19Z</time></trkpt><trkpt lat="44.42900433779722" lon="9.18450696235732"><ele>146.0</ele><time>2026-03-28T14:00:21Z</time></trkpt><trkpt lat="44.42906580716405" lon="9.184385105872227"><ele>146.0</ele><time>2026-03-28T14:00:25Z</time></trkpt><trkpt lat="44.42910762965138" lon="9.184724364645477"><ele>146.83333333333331</ele><time>2026-03-28T14:00:27.999Z</time></trkpt><trkpt lat="44.429100923379046" lon="9.184830258761203"><ele>147.66666666666666</ele><time>2026-03-28T14:00:28.999Z</time></trkpt><trkpt lat="44.42909914864727" lon="9.184942269332218"><ele>148.5</ele><time>2026-03-28T14:00:29.999Z</time></trkpt><trkpt lat="44.42910270139531" lon="9.185064158009407"><ele>149.33333333333334</ele><time>2026-03-28T14:00:30.999Z</time></trkpt><trkpt lat="44.4291102208121" lon="9.185185556076723"><ele>150.16666666666669</ele><time>2026-03-28T14:00:31.999Z</time></trkpt><trkpt lat="44.42911946203583" lon="9.185302521478272"><ele>151.0</ele><time>2026-03-28T14:00:32.999Z</time></trkpt><trkpt lat="44.429128774874144" lon="9.185415025895459"><ele>151.0</ele><time>2026-03-28T14:00:33.999Z</time></trkpt><trkpt lat="44.429137132412656" lon="9.185510052838739"><ele>151.0</ele><time>2026-03-28T14:00:34.999Z</time></trkpt><trkpt lat="44.42914878784875" lon="9.185604632189376"><ele>151.0</ele><time>2026-03-28T14:00:36.999Z</time></trkpt><trkpt lat="44.42905204896463" lon="9.185613872544856"><ele>151.0</ele><time>2026-03-28T14:00:38.999Z</time></trkpt><trkpt lat="44.42897865433107" lon="9.18563783817015"><ele>151.0</ele><time>2026-03-28T14:00:39.999Z</time></trkpt><trkpt lat="44.428901380954706" lon="9.185663224850307"><ele>151.0</ele><time>2026-03-28T14:00:40.999Z</time></trkpt><trkpt lat="44.428815353674835" lon="9.185699113650642"><ele>150.2</ele><time>2026-03-28T14:00:41.999Z</time></trkpt><trkpt lat="44.42872673212453" lon="9.185738238822031"><ele>149.39999999999998</ele><time>2026-03-28T14:00:42.999Z</time></trkpt><trkpt lat="44.4286311847994" lon="9.185776936700996"><ele>148.6</ele><time>2026-03-28T14:00:43.999Z</time></trkpt><trkpt lat="44.42853537629415" lon="9.18583587790941"><ele>147.79999999999998</ele><time>2026-03-28T14:00:44.999Z</time></trkpt><trkpt lat="44.42843654856165" lon="9.185847379929728"><ele>147.0</ele><time>2026-03-28T14:00:45.999Z</time></trkpt><trkpt lat="44.42835668529806" lon="9.18589489478443"><ele>147.0</ele><time>2026-03-28T14:00:46.999Z</time></trkpt><trkpt lat="44.428281810603416" lon="9.18591269012466"><ele>147.0</ele><time>2026-03-28T14:00:47.999Z</time></trkpt><trkpt lat="44.42821614795425" lon="9.1859272778471"><ele>147.0</ele><time>2026-03-28T14:00:48.999Z</time></trkpt><trkpt lat="44.42809943215021" lon="9.185923636726189"><ele>147.0</ele><time>2026-03-28T14:00:50.999Z</time></trkpt><trkpt lat="44.42801405624825" lon="9.185804711044058"><ele>147.0</ele><time>2026-03-28T14:00:52.999Z</time></trkpt><trkpt lat="44.42799104298917" lon="9.185707115134813"><ele>147.2</ele><time>2026-03-28T14:00:53.999Z</time></trkpt><trkpt lat="44.42797928907852" lon="9.185595543486148"><ele>147.39999999999998</ele><time>2026-03-28T14:00:54.999Z</time></trkpt><trkpt lat="44.4279661644845" lon="9.185465724608344"><ele>147.60000000000002</ele><time>2026-03-28T14:00:55.999Z</time></trkpt><trkpt lat="44.427942710787214" lon="9.185312270487943"><ele>147.8</ele><time>2026-03-28T14:00:56.999Z</time></trkpt><trkpt lat="44.427914278509554" lon="9.185135177449432"><ele>148.0</ele><time>2026-03-28T14:00:57.999Z</time></trkpt><trkpt lat="44.42788818850191" lon="9.184939087404334"><ele>160.75</ele><time>2026-03-28T14:00:58.999Z</time></trkpt><trkpt lat="44.42784975024304" lon="9.184737778946591"><ele>173.5</ele><time>2026-03-28T14:00:59.999Z</time></trkpt><trkpt lat="44.42780127868107" lon="9.184550317150892"><ele>186.25</ele><time>2026-03-28T14:01:00.999Z</time></trkpt><trkpt lat="44.427756887532254" lon="9.184367144698827"><ele>199.0</ele><time>2026-03-28T14:01:01.999Z</time></trkpt><trkpt lat="44.42773036326372" lon="9.184178421488571"><ele>197.5</ele><time>2026-03-28T14:01:02.999Z</time></trkpt><trkpt lat="44.427731332769014" lon="9.183992517793726"><ele>196.0</ele><time>2026-03-28T14:01:03.999Z</time></trkpt><trkpt lat="44.42775754574321" lon="9.1838024295777"><ele>194.5</ele><time>2026-03-28T14:01:04.999Z</time></trkpt><trkpt lat="44.42778720782159" lon="9.18361105069647"><ele>193.0</ele><time>2026-03-28T14:01:05.999Z</time></trkpt><trkpt lat="44.427811418393794" lon="9.183413935845172"><ele>193.0</ele><time>2026-03-28T14:01:06.999Z</time></trkpt><trkpt lat="44.42783002467666" lon="9.183208076090747"><ele>193.0</ele><time>2026-03-28T14:01:07.999Z</time></trkpt><trkpt lat="44.42785914850421" lon="9.182996256014727"><ele>193.0</ele><time>2026-03-28T14:01:08.999Z</time></trkpt><trkpt lat="44.427906229022035" lon="9.18279699690636"><ele>192.25</ele><time>2026-03-28T14:01:09.999Z</time></trkpt><trkpt lat="44.427954138334876" lon="9.182623314371128"><ele>191.5</ele><time>2026-03-28T14:01:10.999Z</time></trkpt><trkpt lat="44.42797981423815" lon="9.182452166261848"><ele>190.75</ele><time>2026-03-28T14:01:11.999Z</time></trkpt><trkpt lat="44.427966499365844" lon="9.182277543705052"><ele>190.0</ele><time>2026-03-28T14:01:12.999Z</time></trkpt><trkpt lat="44.42792627456741" lon="9.182106474772674"><ele>187.75</ele><time>2026-03-28T14:01:13.999Z</time></trkpt><trkpt lat="44.42785600076229" lon="9.1819744674591"><ele>185.5</ele><time>2026-03-28T14:01:14.999Z</time></trkpt><trkpt lat="44.427754799696324" lon="9.181875735519641"><ele>183.25</ele><time>2026-03-28T14:01:15.999Z</time></trkpt><trkpt lat="44.427631813553695" lon="9.181780633674764"><ele>181.0</ele><time>2026-03-28T14:01:16.999Z</time></trkpt><trkpt lat="44.42752140512702" lon="9.181653944928676"><ele>182.0</ele><time>2026-03-28T14:01:17.999Z</time></trkpt><trkpt lat="44.42743851413479" lon="9.181492747929648"><ele>183.0</ele><time>2026-03-28T14:01:18.999Z</time></trkpt><trkpt lat="44.42737341794678" lon="9.181337726605355"><ele>184.0</ele><time>2026-03-28T14:01:19.999Z</time></trkpt><trkpt lat="44.42729451241309" lon="9.181239954533416"><ele>185.0</ele><time>2026-03-28T14:01:20.999Z</time></trkpt><trkpt lat="44.4272020578177" lon="9.181177034106263"><ele>185.5</ele><time>2026-03-28T14:01:21.999Z</time></trkpt><trkpt lat="44.42706903611146" lon="9.18116206798673"><ele>186.0</ele><time>2026-03-28T14:01:22.999Z</time></trkpt><trkpt lat="44.42694583335672" lon="9.181157161466128"><ele>186.5</ele><time>2026-03-28T14:01:23.999Z</time></trkpt><trkpt lat="44.426867947446055" lon="9.181060192891788"><ele>187.0</ele><time>2026-03-28T14:01:24.999Z</time></trkpt><trkpt lat="44.4268143775493" lon="9.180941373855624"><ele>187.0</ele><time>2026-03-28T14:01:25.999Z</time></trkpt><trkpt lat="44.42672970887949" lon="9.180859574804598"><ele>187.0</ele><time>2026-03-28T14:01:26.999Z</time></trkpt><trkpt lat="44.42661454271714" lon="9.180842408838457"><ele>187.0</ele><time>2026-03-28T14:01:27.999Z</time></trkpt><trkpt lat="44.42646822892052" lon="9.18083865501763"><ele>187.0</ele><time>2026-03-28T14:01:28.999Z</time></trkpt><trkpt lat="44.42632315548504" lon="9.180809858210534"><ele>189.66666666666669</ele><time>2026-03-28T14:01:29.999Z</time></trkpt><trkpt lat="44.42614988284244" lon="9.18076500698338"><ele>192.33333333333334</ele><time>2026-03-28T14:01:30.999Z</time></trkpt><trkpt lat="44.42600610627143" lon="9.180772008546988"><ele>195.0</ele><time>2026-03-28T14:01:31.999Z</time></trkpt><trkpt lat="44.425871874863645" lon="9.180737443095799"><ele>196.0</ele><time>2026-03-28T14:01:32.999Z</time></trkpt><trkpt lat="44.42572484881038" lon="9.180618835237892"><ele>197.0</ele><time>2026-03-28T14:01:33.999Z</time></trkpt><trkpt lat="44.425569904017806" lon="9.180487538580401"><ele>198.0</ele><time>2026-03-28T14:01:34.999Z</time></trkpt><trkpt lat="44.42542866582801" lon="9.180344943257557"><ele>198.66666666666669</ele><time>2026-03-28T14:01:35.999Z</time></trkpt><trkpt lat="44.42529867140521" lon="9.180172936996744"><ele>199.33333333333334</ele><time>2026-03-28T14:01:36.999Z</time></trkpt><trkpt lat="44.425190701624665" lon="9.18000667645734"><ele>200.0</ele><time>2026-03-28T14:01:37.999Z</time></trkpt><trkpt lat="44.42509925515251" lon="9.17987761572848"><ele>201.25</ele><time>2026-03-28T14:01:38.999Z</time></trkpt><trkpt lat="44.42502755204521" lon="9.179730694245947"><ele>202.5</ele><time>2026-03-28T14:01:40Z</time></trkpt><trkpt lat="44.42494792465838" lon="9.179609608079385"><ele>203.75</ele><time>2026-03-28T14:01:41Z</time></trkpt><trkpt lat="44.4248220148892" lon="9.179544405846139"><ele>205.0</ele><time>2026-03-28T14:01:42Z</time></trkpt><trkpt lat="44.42470356820566" lon="9.179476587612882"><ele>205.5</ele><time>2026-03-28T14:01:43Z</time></trkpt><trkpt lat="44.42462368700814" lon="9.179370551327336"><ele>206.0</ele><time>2026-03-28T14:01:44Z</time></trkpt><trkpt lat="44.42456793593408" lon="9.179232299703674"><ele>206.5</ele><time>2026-03-28T14:01:45Z</time></trkpt><trkpt lat="44.424531827363396" lon="9.17907333706664"><ele>207.0</ele><time>2026-03-28T14:01:46Z</time></trkpt><trkpt lat="44.42450211612387" lon="9.178920530980836"><ele>207.0</ele><time>2026-03-28T14:01:47Z</time></trkpt><trkpt lat="44.42446019556755" lon="9.178750480334836"><ele>207.0</ele><time>2026-03-28T14:01:48Z</time></trkpt><trkpt lat="44.42441192053259" lon="9.178573485943023"><ele>207.0</ele><time>2026-03-28T14:01:49Z</time></trkpt><trkpt lat="44.42434940810828" lon="9.178393136525031"><ele>207.0</ele><time>2026-03-28T14:01:50Z</time></trkpt><trkpt lat="44.42431940398709" lon="9.178209139415454"><ele>207.2</ele><time>2026-03-28T14:01:51Z</time></trkpt><trkpt lat="44.42432368840236" lon="9.178058961129706"><ele>207.39999999999998</ele><time>2026-03-28T14:01:52Z</time></trkpt><trkpt lat="44.42428881879101" lon="9.177930913032013"><ele>207.60000000000002</ele><time>2026-03-28T14:01:53Z</time></trkpt><trkpt lat="44.42420875994828" lon="9.177856471208553"><ele>207.8</ele><time>2026-03-28T14:01:54Z</time></trkpt><trkpt lat="44.424107878468504" lon="9.177829434223023"><ele>208.0</ele><time>2026-03-28T14:01:55Z</time></trkpt><trkpt lat="44.42400484757054" lon="9.177790567787063"><ele>208.0</ele><time>2026-03-28T14:01:56Z</time></trkpt><trkpt lat="44.42391935469071" lon="9.177704999280966"><ele>208.0</ele><time>2026-03-28T14:01:57Z</time></trkpt><trkpt lat="44.42386721136793" lon="9.177574351072542"><ele>208.0</ele><time>2026-03-28T14:01:58Z</time></trkpt><trkpt lat="44.42385258854397" lon="9.177421772743987"><ele>208.0</ele><time>2026-03-28T14:01:59Z</time></trkpt><trkpt lat="44.423874599539346" lon="9.177260760000037"><ele>208.0</ele><time>2026-03-28T14:02:00Z</time></trkpt><trkpt lat="44.42389524740281" lon="9.177137212808036"><ele>210.33333333333331</ele><time>2026-03-28T14:02:01Z</time></trkpt><trkpt lat="44.42386779198556" lon="9.177023799350108"><ele>212.66666666666666</ele><time>2026-03-28T14:02:02Z</time></trkpt><trkpt lat="44.423798965455454" lon="9.176946305850661"><ele>215.0</ele><time>2026-03-28T14:02:03Z</time></trkpt><trkpt lat="44.42371453256134" lon="9.176908276485468"><ele>217.33333333333331</ele><time>2026-03-28T14:02:04Z</time></trkpt><trkpt lat="44.42362509923199" lon="9.176894819532752"><ele>219.66666666666666</ele><time>2026-03-28T14:02:05Z</time></trkpt><trkpt lat="44.423537727562774" lon="9.176950377516599"><ele>222.0</ele><time>2026-03-28T14:02:06Z</time></trkpt><trkpt lat="44.423482655839955" lon="9.17706832408608"><ele>222.75</ele><time>2026-03-28T14:02:07Z</time></trkpt><trkpt lat="44.42347692601699" lon="9.177205211410024"><ele>223.5</ele><time>2026-03-28T14:02:08Z</time></trkpt><trkpt lat="44.423490348103336" lon="9.17735607582966"><ele>224.25</ele><time>2026-03-28T14:02:09Z</time></trkpt><trkpt lat="44.42352261568706" lon="9.177531744311064"><ele>225.0</ele><time>2026-03-28T14:02:10Z</time></trkpt><trkpt lat="44.423583631051926" lon="9.177729338780164"><ele>227.33333333333331</ele><time>2026-03-28T14:02:11Z</time></trkpt><trkpt lat="44.42367013336463" lon="9.177930490709787"><ele>229.66666666666666</ele><time>2026-03-28T14:02:12Z</time></trkpt><trkpt lat="44.423766219960605" lon="9.17810488274267"><ele>232.0</ele><time>2026-03-28T14:02:13Z</time></trkpt><trkpt lat="44.423885854622846" lon="9.178227676997194"><ele>227.0</ele><time>2026-03-28T14:02:14Z</time></trkpt><trkpt lat="44.42398723091265" lon="9.178336552655157"><ele>222.0</ele><time>2026-03-28T14:02:15Z</time></trkpt><trkpt lat="44.424079367496674" lon="9.178428018301634"><ele>217.0</ele><time>2026-03-28T14:02:16Z</time></trkpt><trkpt lat="44.42412860821419" lon="9.178558134651881"><ele>212.0</ele><time>2026-03-28T14:02:17Z</time></trkpt><trkpt lat="44.42414782344093" lon="9.17869513723922"><ele>207.0</ele><time>2026-03-28T14:02:18Z</time></trkpt><trkpt lat="44.42412213273608" lon="9.178830810148852"><ele>207.0</ele><time>2026-03-28T14:02:19Z</time></trkpt><trkpt lat="44.42407928874553" lon="9.178963513554665"><ele>207.0</ele><time>2026-03-28T14:02:20Z</time></trkpt><trkpt lat="44.42401106193064" lon="9.179094797874175"><ele>207.0</ele><time>2026-03-28T14:02:21Z</time></trkpt><trkpt lat="44.42388784829114" lon="9.179149150634299"><ele>207.0</ele><time>2026-03-28T14:02:22Z</time></trkpt><trkpt lat="44.42377603084247" lon="9.17922360679473"><ele>213.5</ele><time>2026-03-28T14:02:23Z</time></trkpt><trkpt lat="44.42368066485202" lon="9.179302026706182"><ele>220.0</ele><time>2026-03-28T14:02:24Z</time></trkpt><trkpt lat="44.423619405052484" lon="9.179434321386005"><ele>226.5</ele><time>2026-03-28T14:02:25Z</time></trkpt><trkpt lat="44.423619067101804" lon="9.179607815276652"><ele>233.0</ele><time>2026-03-28T14:02:26Z</time></trkpt><trkpt lat="44.4236760458877" lon="9.179757683920823"><ele>233.2</ele><time>2026-03-28T14:02:27Z</time></trkpt><trkpt lat="44.423743433149944" lon="9.179856347017807"><ele>233.4</ele><time>2026-03-28T14:02:28Z</time></trkpt><trkpt lat="44.423843803845834" lon="9.179889680618572"><ele>233.59999999999997</ele><time>2026-03-28T14:02:29Z</time></trkpt><trkpt lat="44.42394896549277" lon="9.179824784966913"><ele>233.79999999999998</ele><time>2026-03-28T14:02:30Z</time></trkpt><trkpt lat="44.42407020383931" lon="9.179787992870002"><ele>234.0</ele><time>2026-03-28T14:02:31Z</time></trkpt><trkpt lat="44.42417489913424" lon="9.179787025656976"><ele>230.75</ele><time>2026-03-28T14:02:31.999Z</time></trkpt><trkpt lat="44.42426864428354" lon="9.179850317291885"><ele>227.5</ele><time>2026-03-28T14:02:32.999Z</time></trkpt><trkpt lat="44.424363885344434" lon="9.17997016870709"><ele>224.25</ele><time>2026-03-28T14:02:33.999Z</time></trkpt><trkpt lat="44.42448574949919" lon="9.180116646227082"><ele>221.0</ele><time>2026-03-28T14:02:34.999Z</time></trkpt><trkpt lat="44.424599332696616" lon="9.180255478783003"><ele>220.5</ele><time>2026-03-28T14:02:35.999Z</time></trkpt><trkpt lat="44.42466176032709" lon="9.180413268509959"><ele>220.0</ele><time>2026-03-28T14:02:36.999Z</time></trkpt><trkpt lat="44.42469894375305" lon="9.18058283771287"><ele>219.5</ele><time>2026-03-28T14:02:37.999Z</time></trkpt><trkpt lat="44.424811208340294" lon="9.180685374229556"><ele>219.0</ele><time>2026-03-28T14:02:38.999Z</time></trkpt><trkpt lat="44.424910872715124" lon="9.180786469222117"><ele>219.0</ele><time>2026-03-28T14:02:39.999Z</time></trkpt><trkpt lat="44.424975439036054" lon="9.180911030658509"><ele>219.0</ele><time>2026-03-28T14:02:40.999Z</time></trkpt><trkpt lat="44.42499788585347" lon="9.181099240259075"><ele>219.0</ele><time>2026-03-28T14:02:41.999Z</time></trkpt><trkpt lat="44.42508473373625" lon="9.181258433594516"><ele>219.0</ele><time>2026-03-28T14:02:42.999Z</time></trkpt><trkpt lat="44.425191046202826" lon="9.18141122621939"><ele>219.0</ele><time>2026-03-28T14:02:43.999Z</time></trkpt><trkpt lat="44.425300284904914" lon="9.181511006342381"><ele>219.0</ele><time>2026-03-28T14:02:44.999Z</time></trkpt><trkpt lat="44.42538196408756" lon="9.181616674466893"><ele>219.0</ele><time>2026-03-28T14:02:45.999Z</time></trkpt><trkpt lat="44.42541749238164" lon="9.181777816971799"><ele>219.0</ele><time>2026-03-28T14:02:46.999Z</time></trkpt><trkpt lat="44.4254309250804" lon="9.181971687181676"><ele>223.0</ele><time>2026-03-28T14:02:47.999Z</time></trkpt><trkpt lat="44.425463369136" lon="9.18218087921011"><ele>227.0</ele><time>2026-03-28T14:02:48.999Z</time></trkpt><trkpt lat="44.42551193615665" lon="9.18237839250694"><ele>231.0</ele><time>2026-03-28T14:02:49.999Z</time></trkpt><trkpt lat="44.42560349421561" lon="9.182540729347643"><ele>231.0</ele><time>2026-03-28T14:02:50.999Z</time></trkpt><trkpt lat="44.425683550054444" lon="9.182705128237293"><ele>231.0</ele><time>2026-03-28T14:02:51.999Z</time></trkpt><trkpt lat="44.42577751708463" lon="9.182845765888873"><ele>231.0</ele><time>2026-03-28T14:02:52.999Z</time></trkpt><trkpt lat="44.425864434555415" lon="9.182924415593703"><ele>231.0</ele><time>2026-03-28T14:02:53.999Z</time></trkpt><trkpt lat="44.42589808046492" lon="9.183047829845393"><ele>231.0</ele><time>2026-03-28T14:02:54.999Z</time></trkpt><trkpt lat="44.42590721082061" lon="9.183176839316337"><ele>231.00000000000003</ele><time>2026-03-28T14:02:55.999Z</time></trkpt><trkpt lat="44.42588404812859" lon="9.183342757288335"><ele>231.00000000000003</ele><time>2026-03-28T14:02:56.999Z</time></trkpt><trkpt lat="44.425865470012006" lon="9.183506036413112"><ele>231.0</ele><time>2026-03-28T14:02:57.999Z</time></trkpt><trkpt lat="44.4258499052175" lon="9.183662211377426"><ele>231.0</ele><time>2026-03-28T14:02:58.999Z</time></trkpt><trkpt lat="44.425863932255744" lon="9.18380085496263"><ele>233.0</ele><time>2026-03-28T14:02:59.999Z</time></trkpt><trkpt lat="44.42591600763226" lon="9.183918415932347"><ele>235.00000000000003</ele><time>2026-03-28T14:03:00.999Z</time></trkpt><trkpt lat="44.42598113247011" lon="9.184038354277781"><ele>237.00000000000003</ele><time>2026-03-28T14:03:01.999Z</time></trkpt><trkpt lat="44.42604394421787" lon="9.18416423780393"><ele>239.0</ele><time>2026-03-28T14:03:02.999Z</time></trkpt><trkpt lat="44.426025615797975" lon="9.184304076725367"><ele>241.0</ele><time>2026-03-28T14:03:03.999Z</time></trkpt><trkpt lat="44.42596416344197" lon="9.184405544481105"><ele>241.0</ele><time>2026-03-28T14:03:04.999Z</time></trkpt><trkpt lat="44.425859445074906" lon="9.184454131258159"><ele>241.00000000000003</ele><time>2026-03-28T14:03:05.999Z</time></trkpt><trkpt lat="44.42576860015734" lon="9.184424238088704"><ele>241.00000000000003</ele><time>2026-03-28T14:03:06.999Z</time></trkpt><trkpt lat="44.42569691507812" lon="9.184321552769148"><ele>241.0</ele><time>2026-03-28T14:03:07.999Z</time></trkpt><trkpt lat="44.42565121244053" lon="9.184171070405446"><ele>241.0</ele><time>2026-03-28T14:03:08.999Z</time></trkpt><trkpt lat="44.42568195692104" lon="9.184009868698563"><ele>241.0</ele><time>2026-03-28T14:03:09.999Z</time></trkpt><trkpt lat="44.42569986116149" lon="9.183809084789868"><ele>241.0</ele><time>2026-03-28T14:03:10.999Z</time></trkpt><trkpt lat="44.42574593866105" lon="9.183595616040318"><ele>241.0</ele><time>2026-03-28T14:03:11.999Z</time></trkpt><trkpt lat="44.42575894984173" lon="9.18338386628673"><ele>241.0</ele><time>2026-03-28T14:03:12.999Z</time></trkpt><trkpt lat="44.42575533828558" lon="9.183194011051214"><ele>241.0</ele><time>2026-03-28T14:03:13.999Z</time></trkpt><trkpt lat="44.4257448710073" lon="9.18305500376613"><ele>241.0</ele><time>2026-03-28T14:03:14.999Z</time></trkpt><trkpt lat="44.42567683696269" lon="9.182932006274543"><ele>241.0</ele><time>2026-03-28T14:03:15.999Z</time></trkpt><trkpt lat="44.42556184389347" lon="9.182866052859607"><ele>246.75</ele><time>2026-03-28T14:03:16.999Z</time></trkpt><trkpt lat="44.425441149473535" lon="9.182774085456742"><ele>252.5</ele><time>2026-03-28T14:03:17.999Z</time></trkpt><trkpt lat="44.4253192406953" lon="9.182726992047535"><ele>258.25</ele><time>2026-03-28T14:03:18.999Z</time></trkpt><trkpt lat="44.42522457918322" lon="9.182676453173544"><ele>264.0</ele><time>2026-03-28T14:03:19.999Z</time></trkpt><trkpt lat="44.42517348035829" lon="9.182542113297927"><ele>264.0</ele><time>2026-03-28T14:03:20.999Z</time></trkpt><trkpt lat="44.4251669890459" lon="9.182390544789582"><ele>264.0</ele><time>2026-03-28T14:03:21.999Z</time></trkpt><trkpt lat="44.42516823103484" lon="9.18225061872632"><ele>264.0</ele><time>2026-03-28T14:03:22.999Z</time></trkpt><trkpt lat="44.42512433958084" lon="9.18214124054771"><ele>264.0</ele><time>2026-03-28T14:03:23.999Z</time></trkpt><trkpt lat="44.425028875287055" lon="9.182068533099438"><ele>264.0</ele><time>2026-03-28T14:03:24.999Z</time></trkpt><trkpt lat="44.42490376337206" lon="9.182028089016164"><ele>268.25</ele><time>2026-03-28T14:03:25.999Z</time></trkpt><trkpt lat="44.424787794210985" lon="9.181934191518529"><ele>272.5</ele><time>2026-03-28T14:03:26.999Z</time></trkpt><trkpt lat="44.42470197485322" lon="9.181766918719978"><ele>276.75</ele><time>2026-03-28T14:03:27.999Z</time></trkpt><trkpt lat="44.42462028894122" lon="9.181644757960703"><ele>281.0</ele><time>2026-03-28T14:03:28.999Z</time></trkpt><trkpt lat="44.42449818487732" lon="9.181569495023313"><ele>273.5</ele><time>2026-03-28T14:03:29.999Z</time></trkpt><trkpt lat="44.42438399669859" lon="9.18149253267048"><ele>266.0</ele><time>2026-03-28T14:03:30.999Z</time></trkpt><trkpt lat="44.42427415934832" lon="9.181441457051278"><ele>258.5</ele><time>2026-03-28T14:03:31.999Z</time></trkpt><trkpt lat="44.42419780108783" lon="9.181311367571471"><ele>251.0</ele><time>2026-03-28T14:03:32.999Z</time></trkpt><trkpt lat="44.42415858705198" lon="9.181183000985431"><ele>251.0</ele><time>2026-03-28T14:03:33.999Z</time></trkpt><trkpt lat="44.42412966353005" lon="9.181038797398463"><ele>251.00000000000003</ele><time>2026-03-28T14:03:34.999Z</time></trkpt><trkpt lat="44.42407706095643" lon="9.180923212358318"><ele>251.00000000000003</ele><time>2026-03-28T14:03:35.999Z</time></trkpt><trkpt lat="44.423993999292655" lon="9.180839901146193"><ele>251.0</ele><time>2026-03-28T14:03:36.999Z</time></trkpt><trkpt lat="44.423872108833386" lon="9.180807556635093"><ele>251.0</ele><time>2026-03-28T14:03:37.999Z</time></trkpt><trkpt lat="44.42373826557785" lon="9.18085193068063"><ele>251.60000000000002</ele><time>2026-03-28T14:03:38.999Z</time></trkpt><trkpt lat="44.42362027747057" lon="9.18080360546055"><ele>252.20000000000002</ele><time>2026-03-28T14:03:39.999Z</time></trkpt><trkpt lat="44.42352303337887" lon="9.180739626282126"><ele>252.79999999999998</ele><time>2026-03-28T14:03:40.999Z</time></trkpt><trkpt lat="44.423423760494025" lon="9.180745898577385"><ele>253.39999999999998</ele><time>2026-03-28T14:03:41.999Z</time></trkpt><trkpt lat="44.423332175515746" lon="9.180832981929889"><ele>254.0</ele><time>2026-03-28T14:03:42.999Z</time></trkpt><trkpt lat="44.42325514326025" lon="9.180988820980913"><ele>254.0</ele><time>2026-03-28T14:03:43.999Z</time></trkpt><trkpt lat="44.42316936189731" lon="9.181092504360915"><ele>254.0</ele><time>2026-03-28T14:03:44.999Z</time></trkpt><trkpt lat="44.42305221236427" lon="9.181115629209636"><ele>254.0</ele><time>2026-03-28T14:03:46Z</time></trkpt><trkpt lat="44.422899642335864" lon="9.181103351773327"><ele>254.0</ele><time>2026-03-28T14:03:47Z</time></trkpt><trkpt lat="44.422741344412366" lon="9.181128121788825"><ele>255.5</ele><time>2026-03-28T14:03:48Z</time></trkpt><trkpt lat="44.42259305615197" lon="9.181072811114104"><ele>257.0</ele><time>2026-03-28T14:03:49Z</time></trkpt><trkpt lat="44.422467380069335" lon="9.181033819113154"><ele>258.5</ele><time>2026-03-28T14:03:50Z</time></trkpt><trkpt lat="44.42235258070437" lon="9.181044536900085"><ele>260.0</ele><time>2026-03-28T14:03:51Z</time></trkpt><trkpt lat="44.42224090793047" lon="9.18111944421818"><ele>262.25</ele><time>2026-03-28T14:03:52Z</time></trkpt><trkpt lat="44.422106541547734" lon="9.181138866978563"><ele>264.5</ele><time>2026-03-28T14:03:53Z</time></trkpt><trkpt lat="44.42193965311209" lon="9.181097426131318"><ele>266.75</ele><time>2026-03-28T14:03:54Z</time></trkpt><trkpt lat="44.4218103903969" lon="9.181154516848014"><ele>269.0</ele><time>2026-03-28T14:03:55Z</time></trkpt><trkpt lat="44.42168617143942" lon="9.181158456456382"><ele>269.0</ele><time>2026-03-28T14:03:56Z</time></trkpt><trkpt lat="44.42154922170617" lon="9.181074958163647"><ele>269.0</ele><time>2026-03-28T14:03:57Z</time></trkpt><trkpt lat="44.421400170750964" lon="9.181013592916658"><ele>269.0</ele><time>2026-03-28T14:03:58Z</time></trkpt><trkpt lat="44.42125862296429" lon="9.180892331512508"><ele>271.0</ele><time>2026-03-28T14:03:59Z</time></trkpt><trkpt lat="44.421114832697846" lon="9.180833027806239"><ele>273.0</ele><time>2026-03-28T14:04:00Z</time></trkpt><trkpt lat="44.42100781782846" lon="9.18073258178033"><ele>275.0</ele><time>2026-03-28T14:04:01Z</time></trkpt><trkpt lat="44.4209057017078" lon="9.180632608289551"><ele>277.0</ele><time>2026-03-28T14:04:02Z</time></trkpt><trkpt lat="44.420792406497306" lon="9.180551130546146"><ele>277.0</ele><time>2026-03-28T14:04:03Z</time></trkpt><trkpt lat="44.420646136767004" lon="9.180490780931818"><ele>277.0</ele><time>2026-03-28T14:04:04Z</time></trkpt><trkpt lat="44.42052858558348" lon="9.18043212028095"><ele>277.0</ele><time>2026-03-28T14:04:05Z</time></trkpt><trkpt lat="44.420417498259575" lon="9.180439342001785"><ele>277.0</ele><time>2026-03-28T14:04:06Z</time></trkpt><trkpt lat="44.42031123786046" lon="9.180383357524136"><ele>280.2</ele><time>2026-03-28T14:04:07Z</time></trkpt><trkpt lat="44.42024192026304" lon="9.180272439450908"><ele>283.4</ele><time>2026-03-28T14:04:08Z</time></trkpt><trkpt lat="44.420225461046044" lon="9.18013455922826"><ele>286.6</ele><time>2026-03-28T14:04:09Z</time></trkpt><trkpt lat="44.42027039762992" lon="9.179996513608868"><ele>289.8</ele><time>2026-03-28T14:04:10Z</time></trkpt><trkpt lat="44.42032279772352" lon="9.179862554434939"><ele>293.0</ele><time>2026-03-28T14:04:11Z</time></trkpt><trkpt lat="44.42041635113641" lon="9.179767123519376"><ele>292.0</ele><time>2026-03-28T14:04:12Z</time></trkpt><trkpt lat="44.420564777133634" lon="9.179705398172302"><ele>291.0</ele><time>2026-03-28T14:04:13Z</time></trkpt><trkpt lat="44.42072879247483" lon="9.179648187696046"><ele>290.0</ele><time>2026-03-28T14:04:14Z</time></trkpt><trkpt lat="44.420873383476284" lon="9.179623668100241"><ele>290.0</ele><time>2026-03-28T14:04:15Z</time></trkpt><trkpt lat="44.42100699461361" lon="9.179579577271339"><ele>290.0</ele><time>2026-03-28T14:04:16Z</time></trkpt><trkpt lat="44.42111510368997" lon="9.179494289468764"><ele>290.0</ele><time>2026-03-28T14:04:17Z</time></trkpt><trkpt lat="44.42119815134104" lon="9.17940123276854"><ele>290.0</ele><time>2026-03-28T14:04:18Z</time></trkpt><trkpt lat="44.42122964426731" lon="9.17926204767236"><ele>290.0</ele><time>2026-03-28T14:04:19Z</time></trkpt><trkpt lat="44.42122482909319" lon="9.17907751595105"><ele>290.0</ele><time>2026-03-28T14:04:20Z</time></trkpt><trkpt lat="44.421209993171665" lon="9.178854925439127"><ele>290.0</ele><time>2026-03-28T14:04:21Z</time></trkpt><trkpt lat="44.4212169315461" lon="9.178609318561183"><ele>292.75</ele><time>2026-03-28T14:04:22Z</time></trkpt><trkpt lat="44.42125945291137" lon="9.178383577612083"><ele>295.5</ele><time>2026-03-28T14:04:23Z</time></trkpt><trkpt lat="44.42131127539848" lon="9.17820129322961"><ele>298.25</ele><time>2026-03-28T14:04:24Z</time></trkpt><trkpt lat="44.42134666131484" lon="9.178032785830684"><ele>301.0</ele><time>2026-03-28T14:04:25Z</time></trkpt><trkpt lat="44.42136233872967" lon="9.17787982125464"><ele>300.6</ele><time>2026-03-28T14:04:26Z</time></trkpt><trkpt lat="44.42135596095583" lon="9.177744987031767"><ele>300.20000000000005</ele><time>2026-03-28T14:04:27Z</time></trkpt><trkpt lat="44.421322499645136" lon="9.177620596030653"><ele>299.79999999999995</ele><time>2026-03-28T14:04:28Z</time></trkpt><trkpt lat="44.42124987885575" lon="9.17752563930049"><ele>299.4</ele><time>2026-03-28T14:04:29Z</time></trkpt><trkpt lat="44.42115773420478" lon="9.177479503960077"><ele>299.0</ele><time>2026-03-28T14:04:30Z</time></trkpt><trkpt lat="44.42104402095251" lon="9.177479671715277"><ele>299.0</ele><time>2026-03-28T14:04:31Z</time></trkpt><trkpt lat="44.42092477996929" lon="9.177448540050332"><ele>299.0</ele><time>2026-03-28T14:04:32Z</time></trkpt><trkpt lat="44.42081097926868" lon="9.1774575291694"><ele>299.0</ele><time>2026-03-28T14:04:33Z</time></trkpt><trkpt lat="44.420736185849236" lon="9.177369478830288"><ele>299.0</ele><time>2026-03-28T14:04:34Z</time></trkpt><trkpt lat="44.42066312945728" lon="9.177324233376043"><ele>299.0</ele><time>2026-03-28T14:04:35Z</time></trkpt><trkpt lat="44.42058002056648" lon="9.177323911542949"><ele>299.0</ele><time>2026-03-28T14:04:36Z</time></trkpt><trkpt lat="44.42048377780133" lon="9.177337623588848"><ele>299.0</ele><time>2026-03-28T14:04:37Z</time></trkpt><trkpt lat="44.42039696057493" lon="9.177376813075915"><ele>299.0</ele><time>2026-03-28T14:04:37.999Z</time></trkpt><trkpt lat="44.4203109262806" lon="9.177378854138523"><ele>299.0</ele><time>2026-03-28T14:04:38.999Z</time></trkpt><trkpt lat="44.42024033977232" lon="9.177285825462661"><ele>299.0</ele><time>2026-03-28T14:04:39.999Z</time></trkpt><trkpt lat="44.420191017099626" lon="9.177179343549895"><ele>299.0</ele><time>2026-03-28T14:04:40.999Z</time></trkpt><trkpt lat="44.4201296684555" lon="9.177091412090746"><ele>299.0</ele><time>2026-03-28T14:04:41.999Z</time></trkpt><trkpt lat="44.420062277616026" lon="9.177019858291972"><ele>299.0</ele><time>2026-03-28T14:04:42.999Z</time></trkpt><trkpt lat="44.419996638924694" lon="9.17695427169976"><ele>299.0</ele><time>2026-03-28T14:04:43.999Z</time></trkpt><trkpt lat="44.41993088325376" lon="9.176887819773585"><ele>299.0</ele><time>2026-03-28T14:04:44.999Z</time></trkpt><trkpt lat="44.41986900012581" lon="9.17682369201101"><ele>299.0</ele><time>2026-03-28T14:04:45.999Z</time></trkpt><trkpt lat="44.41980229219265" lon="9.176761917670348"><ele>299.0</ele><time>2026-03-28T14:04:46.999Z</time></trkpt><trkpt lat="44.419733301183314" lon="9.176696236656179"><ele>299.0</ele><time>2026-03-28T14:04:47.999Z</time></trkpt><trkpt lat="44.419665362559364" lon="9.176627541039334"><ele>299.0</ele><time>2026-03-28T14:04:48.999Z</time></trkpt><trkpt lat="44.41959568050908" lon="9.176566549857219"><ele>299.0</ele><time>2026-03-28T14:04:49.999Z</time></trkpt><trkpt lat="44.41952082337638" lon="9.176497743474004"><ele>299.0</ele><time>2026-03-28T14:04:50.999Z</time></trkpt><trkpt lat="44.41943703593182" lon="9.176451922310074"><ele>299.0</ele><time>2026-03-28T14:04:51.999Z</time></trkpt><trkpt lat="44.41935156308457" lon="9.176394911237033"><ele>303.4</ele><time>2026-03-28T14:04:52.999Z</time></trkpt><trkpt lat="44.41923472585072" lon="9.176350292895993"><ele>307.79999999999995</ele><time>2026-03-28T14:04:53.999Z</time></trkpt><trkpt lat="44.4191262963069" lon="9.176318549900877"><ele>312.20000000000005</ele><time>2026-03-28T14:04:54.999Z</time></trkpt><trkpt lat="44.419045100890614" lon="9.176212580939778"><ele>316.6</ele><time>2026-03-28T14:04:55.999Z</time></trkpt><trkpt lat="44.41901744198222" lon="9.176082470927938"><ele>321.0</ele><time>2026-03-28T14:04:56.999Z</time></trkpt><trkpt lat="44.41904045041007" lon="9.17596084415189"><ele>321.0</ele><time>2026-03-28T14:04:57.999Z</time></trkpt><trkpt lat="44.41910845927911" lon="9.175859712849691"><ele>321.0</ele><time>2026-03-28T14:04:58.999Z</time></trkpt><trkpt lat="44.41921628798732" lon="9.175806283351001"><ele>321.0</ele><time>2026-03-28T14:04:59.999Z</time></trkpt><trkpt lat="44.419345098332606" lon="9.175761415363338"><ele>321.0</ele><time>2026-03-28T14:05:00.999Z</time></trkpt><trkpt lat="44.4194682518746" lon="9.175651215088527"><ele>317.0</ele><time>2026-03-28T14:05:01.999Z</time></trkpt><trkpt lat="44.41960077176238" lon="9.175527428072526"><ele>313.0</ele><time>2026-03-28T14:05:02.999Z</time></trkpt><trkpt lat="44.41972080725014" lon="9.175404607390423"><ele>309.0</ele><time>2026-03-28T14:05:03.999Z</time></trkpt><trkpt lat="44.4197997004645" lon="9.175278887346916"><ele>305.0</ele><time>2026-03-28T14:05:04.999Z</time></trkpt><trkpt lat="44.41986671442983" lon="9.175151743982482"><ele>305.0</ele><time>2026-03-28T14:05:05.999Z</time></trkpt><trkpt lat="44.41990508295563" lon="9.17500187692291"><ele>305.0</ele><time>2026-03-28T14:05:06.999Z</time></trkpt><trkpt lat="44.41992299451645" lon="9.174818443206878"><ele>305.0</ele><time>2026-03-28T14:05:07.999Z</time></trkpt><trkpt lat="44.41993565727655" lon="9.174609188426523"><ele>305.0</ele><time>2026-03-28T14:05:08.999Z</time></trkpt><trkpt lat="44.41995474091061" lon="9.17438631998546"><ele>305.5</ele><time>2026-03-28T14:05:09.999Z</time></trkpt><trkpt lat="44.419967497458" lon="9.174158351391721"><ele>306.0</ele><time>2026-03-28T14:05:10.999Z</time></trkpt><trkpt lat="44.419954844118955" lon="9.173955150157319"><ele>306.5</ele><time>2026-03-28T14:05:11.999Z</time></trkpt><trkpt lat="44.41993747201122" lon="9.173772611506052"><ele>307.0</ele><time>2026-03-28T14:05:12.999Z</time></trkpt><trkpt lat="44.41992061014796" lon="9.173637849668296"><ele>307.0</ele><time>2026-03-28T14:05:13.999Z</time></trkpt><trkpt lat="44.41987979831764" lon="9.173553499520489"><ele>307.0</ele><time>2026-03-28T14:05:14.999Z</time></trkpt><trkpt lat="44.41981020456439" lon="9.173456227656768"><ele>307.0</ele><time>2026-03-28T14:05:15.999Z</time></trkpt><trkpt lat="44.419695988113894" lon="9.17338852313435"><ele>307.0</ele><time>2026-03-28T14:05:16.999Z</time></trkpt><trkpt lat="44.419578951363775" lon="9.173320415920017"><ele>307.0</ele><time>2026-03-28T14:05:17.999Z</time></trkpt><trkpt lat="44.419456734652606" lon="9.173246580674743"><ele>312.75</ele><time>2026-03-28T14:05:18.999Z</time></trkpt><trkpt lat="44.41933051243593" lon="9.173166563438917"><ele>318.5</ele><time>2026-03-28T14:05:19.999Z</time></trkpt><trkpt lat="44.41921138249539" lon="9.17307925966395"><ele>324.25</ele><time>2026-03-28T14:05:20.999Z</time></trkpt><trkpt lat="44.41911249929113" lon="9.172955028325148"><ele>330.0</ele><time>2026-03-28T14:05:21.999Z</time></trkpt><trkpt lat="44.419026845550356" lon="9.172807288613232"><ele>330.0</ele><time>2026-03-28T14:05:22.999Z</time></trkpt><trkpt lat="44.41894288188316" lon="9.172688312760245"><ele>330.0</ele><time>2026-03-28T14:05:23.999Z</time></trkpt><trkpt lat="44.418853612413706" lon="9.1725979768465"><ele>330.0</ele><time>2026-03-28T14:05:24.999Z</time></trkpt><trkpt lat="44.418781354981405" lon="9.17252148702187"><ele>330.0</ele><time>2026-03-28T14:05:25.999Z</time></trkpt><trkpt lat="44.4187389877962" lon="9.172439709682711"><ele>330.0</ele><time>2026-03-28T14:05:26.999Z</time></trkpt><trkpt lat="44.41874729993885" lon="9.172306374969725"><ele>334.0</ele><time>2026-03-28T14:05:27.999Z</time></trkpt><trkpt lat="44.41880566257279" lon="9.172185103806491"><ele>338.0</ele><time>2026-03-28T14:05:28.999Z</time></trkpt><trkpt lat="44.418903849192176" lon="9.17203365498144"><ele>342.0</ele><time>2026-03-28T14:05:29.999Z</time></trkpt><trkpt lat="44.4189902610025" lon="9.171885192109954"><ele>346.0</ele><time>2026-03-28T14:05:30.999Z</time></trkpt><trkpt lat="44.419075202414085" lon="9.171813365725232"><ele>346.0</ele><time>2026-03-28T14:05:31.999Z</time></trkpt><trkpt lat="44.41919403419275" lon="9.171792895937301"><ele>346.0</ele><time>2026-03-28T14:05:32.999Z</time></trkpt><trkpt lat="44.41934214251004" lon="9.171764709596438"><ele>346.0</ele><time>2026-03-28T14:05:33.999Z</time></trkpt><trkpt lat="44.419504315960296" lon="9.1717405762922"><ele>346.0</ele><time>2026-03-28T14:05:34.999Z</time></trkpt><trkpt lat="44.4196661922775" lon="9.171661709236687"><ele>344.5</ele><time>2026-03-28T14:05:35.999Z</time></trkpt><trkpt lat="44.4197970856656" lon="9.17157397983274"><ele>343.0</ele><time>2026-03-28T14:05:36.999Z</time></trkpt><trkpt lat="44.41990248664342" lon="9.171513049536735"><ele>341.5</ele><time>2026-03-28T14:05:37.999Z</time></trkpt><trkpt lat="44.41998116726551" lon="9.17141508413596"><ele>340.0</ele><time>2026-03-28T14:05:38.999Z</time></trkpt><trkpt lat="44.42003312626168" lon="9.17125239283434"><ele>340.0</ele><time>2026-03-28T14:05:39.999Z</time></trkpt><trkpt lat="44.42006303868055" lon="9.171032488050193"><ele>340.0</ele><time>2026-03-28T14:05:40.999Z</time></trkpt><trkpt lat="44.42009928728221" lon="9.17080001089722"><ele>340.0</ele><time>2026-03-28T14:05:41.999Z</time></trkpt><trkpt lat="44.420140032936025" lon="9.17059505256215"><ele>342.66666666666663</ele><time>2026-03-28T14:05:42.999Z</time></trkpt><trkpt lat="44.42016464485185" lon="9.170397186321907"><ele>345.3333333333333</ele><time>2026-03-28T14:05:43.999Z</time></trkpt><trkpt lat="44.42015082031921" lon="9.170194696204755"><ele>348.0</ele><time>2026-03-28T14:05:44.999Z</time></trkpt><trkpt lat="44.420101030734976" lon="9.169976657461442"><ele>347.3333333333333</ele><time>2026-03-28T14:05:45.999Z</time></trkpt><trkpt lat="44.420045300973804" lon="9.169740451411407"><ele>346.66666666666663</ele><time>2026-03-28T14:05:46.999Z</time></trkpt><trkpt lat="44.41999181528581" lon="9.169541529009388"><ele>346.0</ele><time>2026-03-28T14:05:47.999Z</time></trkpt><trkpt lat="44.419970512220885" lon="9.169341547093296"><ele>346.0</ele><time>2026-03-28T14:05:48.999Z</time></trkpt><trkpt lat="44.41995447768162" lon="9.169157444208215"><ele>346.0</ele><time>2026-03-28T14:05:49.999Z</time></trkpt><trkpt lat="44.41988269760914" lon="9.168993904441006"><ele>346.0</ele><time>2026-03-28T14:05:50.999Z</time></trkpt><trkpt lat="44.41980129262088" lon="9.168815454472298"><ele>346.0</ele><time>2026-03-28T14:05:52Z</time></trkpt><trkpt lat="44.41973569491556" lon="9.168628386803414"><ele>347.6</ele><time>2026-03-28T14:05:53Z</time></trkpt><trkpt lat="44.41972090409359" lon="9.16847676472495"><ele>349.20000000000005</ele><time>2026-03-28T14:05:54Z</time></trkpt><trkpt lat="44.41974230711641" lon="9.168363447435652"><ele>350.79999999999995</ele><time>2026-03-28T14:05:55Z</time></trkpt><trkpt lat="44.41979181550886" lon="9.168281125468072"><ele>352.4</ele><time>2026-03-28T14:05:56Z</time></trkpt><trkpt lat="44.419875489726955" lon="9.16822512453628"><ele>354.0</ele><time>2026-03-28T14:05:57Z</time></trkpt><trkpt lat="44.41999408676971" lon="9.16821490226275"><ele>354.0</ele><time>2026-03-28T14:05:58Z</time></trkpt><trkpt lat="44.420137972497365" lon="9.16825728271849"><ele>354.0</ele><time>2026-03-28T14:05:59Z</time></trkpt><trkpt lat="44.42028385515537" lon="9.168304648895367"><ele>354.0</ele><time>2026-03-28T14:06:00Z</time></trkpt><trkpt lat="44.420405086163804" lon="9.168385637596092"><ele>354.0</ele><time>2026-03-28T14:06:01Z</time></trkpt><trkpt lat="44.42049575117373" lon="9.168494430384285"><ele>355.0</ele><time>2026-03-28T14:06:02Z</time></trkpt><trkpt lat="44.420607891550716" lon="9.16853557449911"><ele>356.0</ele><time>2026-03-28T14:06:03Z</time></trkpt><trkpt lat="44.42076009409188" lon="9.168528703492708"><ele>357.0</ele><time>2026-03-28T14:06:04Z</time></trkpt><trkpt lat="44.420926157766495" lon="9.168516841863115"><ele>358.0</ele><time>2026-03-28T14:06:05Z</time></trkpt><trkpt lat="44.42109965664838" lon="9.168540143217987"><ele>358.0</ele><time>2026-03-28T14:06:06Z</time></trkpt><trkpt lat="44.421247226962564" lon="9.168600902456442"><ele>358.0</ele><time>2026-03-28T14:06:07Z</time></trkpt><trkpt lat="44.421360998519056" lon="9.168650051442421"><ele>358.0</ele><time>2026-03-28T14:06:08Z</time></trkpt><trkpt lat="44.42145688376679" lon="9.168608580619228"><ele>358.0</ele><time>2026-03-28T14:06:09Z</time></trkpt><trkpt lat="44.42153795303102" lon="9.168494843077202"><ele>356.66666666666663</ele><time>2026-03-28T14:06:10Z</time></trkpt><trkpt lat="44.4216194722511" lon="9.168335448838114"><ele>355.3333333333333</ele><time>2026-03-28T14:06:11Z</time></trkpt><trkpt lat="44.42171768500212" lon="9.168133801563867"><ele>354.0</ele><time>2026-03-28T14:06:12Z</time></trkpt><trkpt lat="44.421823828239916" lon="9.16796241133262"><ele>355.75</ele><time>2026-03-28T14:06:13Z</time></trkpt><trkpt lat="44.42191734396278" lon="9.167827362931513"><ele>357.5</ele><time>2026-03-28T14:06:14Z</time></trkpt><trkpt lat="44.422025416988866" lon="9.167717743000269"><ele>359.25</ele><time>2026-03-28T14:06:15Z</time></trkpt><trkpt lat="44.4221428185966" lon="9.167681753563834"><ele>361.0</ele><time>2026-03-28T14:06:16Z</time></trkpt><trkpt lat="44.422232837775816" lon="9.167600774774293"><ele>361.0</ele><time>2026-03-28T14:06:17Z</time></trkpt><trkpt lat="44.422306730376484" lon="9.167445984216249"><ele>361.0</ele><time>2026-03-28T14:06:18Z</time></trkpt><trkpt lat="44.42238937639067" lon="9.167277672574286"><ele>361.0</ele><time>2026-03-28T14:06:19Z</time></trkpt><trkpt lat="44.422413100527955" lon="9.16710066357135"><ele>361.0</ele><time>2026-03-28T14:06:20Z</time></trkpt><trkpt lat="44.422438615644936" lon="9.166965926871804"><ele>366.20000000000005</ele><time>2026-03-28T14:06:21Z</time></trkpt><trkpt lat="44.42250353881587" lon="9.166881374223221"><ele>371.40000000000003</ele><time>2026-03-28T14:06:22Z</time></trkpt><trkpt lat="44.42258542599582" lon="9.166827431945695"><ele>376.6</ele><time>2026-03-28T14:06:23Z</time></trkpt><trkpt lat="44.42267810074597" lon="9.166855114918473"><ele>381.8</ele><time>2026-03-28T14:06:24Z</time></trkpt><trkpt lat="44.42276244279045" lon="9.166955241581729"><ele>387.0</ele><time>2026-03-28T14:06:25Z</time></trkpt><trkpt lat="44.422845745360775" lon="9.16709937909315"><ele>387.0</ele><time>2026-03-28T14:06:26Z</time></trkpt><trkpt lat="44.42295389130138" lon="9.167218178684042"><ele>387.0</ele><time>2026-03-28T14:06:27Z</time></trkpt><trkpt lat="44.423082417067604" lon="9.167270264083715"><ele>387.0</ele><time>2026-03-28T14:06:28Z</time></trkpt><trkpt lat="44.423205432535696" lon="9.167273668244457"><ele>387.0</ele><time>2026-03-28T14:06:29Z</time></trkpt><trkpt lat="44.42330200785175" lon="9.167330337649748"><ele>383.5</ele><time>2026-03-28T14:06:30Z</time></trkpt><trkpt lat="44.42335862340941" lon="9.167453341744222"><ele>380.0</ele><time>2026-03-28T14:06:31Z</time></trkpt><trkpt lat="44.4233930362887" lon="9.167628555547603"><ele>376.5</ele><time>2026-03-28T14:06:32Z</time></trkpt><trkpt lat="44.42339432527553" lon="9.167836324505787"><ele>373.0</ele><time>2026-03-28T14:06:33Z</time></trkpt><trkpt lat="44.423369853065886" lon="9.168053110592957"><ele>370.3333333333333</ele><time>2026-03-28T14:06:34Z</time></trkpt><trkpt lat="44.423376445510065" lon="9.168271378872365"><ele>367.6666666666667</ele><time>2026-03-28T14:06:35Z</time></trkpt><trkpt lat="44.42342322588759" lon="9.168502035436727"><ele>365.0</ele><time>2026-03-28T14:06:36Z</time></trkpt><trkpt lat="44.423488348427824" lon="9.168704517020933"><ele>365.0</ele><time>2026-03-28T14:06:37Z</time></trkpt><trkpt lat="44.42351493867516" lon="9.16886233522203"><ele>365.0</ele><time>2026-03-28T14:06:38Z</time></trkpt><trkpt lat="44.423459318693524" lon="9.168965136039333"><ele>365.0</ele><time>2026-03-28T14:06:39Z</time></trkpt><trkpt lat="44.423444612593386" lon="9.169097862799747"><ele>365.0</ele><time>2026-03-28T14:06:40Z</time></trkpt><trkpt lat="44.42348480517615" lon="9.169227290615389"><ele>365.0</ele><time>2026-03-28T14:06:41Z</time></trkpt><trkpt lat="44.423543269311686" lon="9.169364994450495"><ele>364.0</ele><time>2026-03-28T14:06:42Z</time></trkpt><trkpt lat="44.423607172390334" lon="9.169487992057354"><ele>363.0</ele><time>2026-03-28T14:06:43Z</time></trkpt><trkpt lat="44.42367659985135" lon="9.169558411703614"><ele>362.0</ele><time>2026-03-28T14:06:44Z</time></trkpt><trkpt lat="44.4237587419382" lon="9.169577972635214"><ele>361.0</ele><time>2026-03-28T14:06:45Z</time></trkpt><trkpt lat="44.42384582764834" lon="9.169540849960335"><ele>360.0</ele><time>2026-03-28T14:06:45.999Z</time></trkpt><trkpt lat="44.42393657070871" lon="9.16944649398203"><ele>367.5</ele><time>2026-03-28T14:06:46.999Z</time></trkpt><trkpt lat="44.42405357214324" lon="9.169337033554488"><ele>375.0</ele><time>2026-03-28T14:06:47.999Z</time></trkpt><trkpt lat="44.42420219630144" lon="9.169262397126765"><ele>382.5</ele><time>2026-03-28T14:06:48.999Z</time></trkpt><trkpt lat="44.424341729823816" lon="9.169194277829973"><ele>390.0</ele><time>2026-03-28T14:06:49.999Z</time></trkpt><trkpt lat="44.424460418012245" lon="9.16913922316903"><ele>390.0</ele><time>2026-03-28T14:06:50.999Z</time></trkpt><trkpt lat="44.42457347585302" lon="9.16914770646112"><ele>390.0</ele><time>2026-03-28T14:06:51.999Z</time></trkpt><trkpt lat="44.424701257009815" lon="9.16921773508257"><ele>390.0</ele><time>2026-03-28T14:06:52.999Z</time></trkpt><trkpt lat="44.42483437357989" lon="9.169325851200888"><ele>390.0</ele><time>2026-03-28T14:06:53.999Z</time></trkpt><trkpt lat="44.4249689652224" lon="9.169420559905616"><ele>391.0</ele><time>2026-03-28T14:06:54.999Z</time></trkpt><trkpt lat="44.42509510595372" lon="9.16950803900938"><ele>392.0</ele><time>2026-03-28T14:06:55.999Z</time></trkpt><trkpt lat="44.42521270912192" lon="9.169596407321853"><ele>393.0</ele><time>2026-03-28T14:06:56.999Z</time></trkpt><trkpt lat="44.42531092321531" lon="9.169708108037094"><ele>394.0</ele><time>2026-03-28T14:06:57.999Z</time></trkpt><trkpt lat="44.425402627759226" lon="9.169821296790571"><ele>393.79999999999995</ele><time>2026-03-28T14:06:58.999Z</time></trkpt><trkpt lat="44.425495154134666" lon="9.169909053548306"><ele>393.59999999999997</ele><time>2026-03-28T14:06:59.999Z</time></trkpt><trkpt lat="44.425591994864455" lon="9.169934258670837"><ele>393.4</ele><time>2026-03-28T14:07:00.999Z</time></trkpt><trkpt lat="44.42570051265385" lon="9.169898152855234"><ele>393.2</ele><time>2026-03-28T14:07:01.999Z</time></trkpt><trkpt lat="44.42581545357395" lon="9.169844996044342"><ele>393.0</ele><time>2026-03-28T14:07:02.999Z</time></trkpt><trkpt lat="44.42593967295484" lon="9.169827485725575"><ele>392.79999999999995</ele><time>2026-03-28T14:07:03.999Z</time></trkpt><trkpt lat="44.42604477683523" lon="9.169878023762458"><ele>392.6</ele><time>2026-03-28T14:07:04.999Z</time></trkpt><trkpt lat="44.42612457303448" lon="9.16994692607219"><ele>392.4</ele><time>2026-03-28T14:07:05.999Z</time></trkpt><trkpt lat="44.42620799925269" lon="9.169963457552564"><ele>392.20000000000005</ele><time>2026-03-28T14:07:06.999Z</time></trkpt><trkpt lat="44.426290258009914" lon="9.169924664707068"><ele>392.0</ele><time>2026-03-28T14:07:07.999Z</time></trkpt><trkpt lat="44.426351333691706" lon="9.169822303655843"><ele>392.0</ele><time>2026-03-28T14:07:08.999Z</time></trkpt><trkpt lat="44.42637422607471" lon="9.169693739987396"><ele>392.0</ele><time>2026-03-28T14:07:09.999Z</time></trkpt><trkpt lat="44.42638092739342" lon="9.169565251690013"><ele>392.0</ele><time>2026-03-28T14:07:10.999Z</time></trkpt><trkpt lat="44.42632609929028" lon="9.169442429937597"><ele>392.0</ele><time>2026-03-28T14:07:11.999Z</time></trkpt><trkpt lat="44.42620662018557" lon="9.169383276988547"><ele>392.0</ele><time>2026-03-28T14:07:12.999Z</time></trkpt><trkpt lat="44.426092311254024" lon="9.169415326385886"><ele>392.20000000000005</ele><time>2026-03-28T14:07:13.999Z</time></trkpt><trkpt lat="44.42598918110504" lon="9.169464096372044"><ele>392.4</ele><time>2026-03-28T14:07:14.999Z</time></trkpt><trkpt lat="44.42588368357479" lon="9.16951756829657"><ele>392.6</ele><time>2026-03-28T14:07:15.999Z</time></trkpt><trkpt lat="44.42577681607676" lon="9.169568675120654"><ele>392.79999999999995</ele><time>2026-03-28T14:07:16.999Z</time></trkpt><trkpt lat="44.42567558609819" lon="9.169607282668661"><ele>393.0</ele><time>2026-03-28T14:07:17.999Z</time></trkpt><trkpt lat="44.425590070115035" lon="9.169606523757047"><ele>393.0</ele><time>2026-03-28T14:07:18.999Z</time></trkpt><trkpt lat="44.425513150310955" lon="9.169534133298827"><ele>393.0</ele><time>2026-03-28T14:07:19.999Z</time></trkpt><trkpt lat="44.42543539637777" lon="9.169425369766193"><ele>393.0</ele><time>2026-03-28T14:07:20.999Z</time></trkpt><trkpt lat="44.42536193152239" lon="9.169304736951137"><ele>393.0</ele><time>2026-03-28T14:07:21.999Z</time></trkpt><trkpt lat="44.425304993162506" lon="9.169166060584454"><ele>393.0</ele><time>2026-03-28T14:07:22.999Z</time></trkpt><trkpt lat="44.42527272083778" lon="9.169002621103322"><ele>396.0</ele><time>2026-03-28T14:07:23.999Z</time></trkpt><trkpt lat="44.42523523807805" lon="9.168831578579637"><ele>399.0</ele><time>2026-03-28T14:07:24.999Z</time></trkpt><trkpt lat="44.42518588098983" lon="9.168661113890142"><ele>402.0</ele><time>2026-03-28T14:07:25.999Z</time></trkpt><trkpt lat="44.42511640113089" lon="9.168504235433263"><ele>405.0</ele><time>2026-03-28T14:07:26.999Z</time></trkpt><trkpt lat="44.425065630676045" lon="9.168344628937426"><ele>406.66666666666663</ele><time>2026-03-28T14:07:27.999Z</time></trkpt><trkpt lat="44.425114121344734" lon="9.168144338782364"><ele>408.3333333333333</ele><time>2026-03-28T14:07:28.999Z</time></trkpt><trkpt lat="44.425104314539475" lon="9.167920555287163"><ele>410.0</ele><time>2026-03-28T14:07:29.999Z</time></trkpt><trkpt lat="44.42510305757639" lon="9.167699785915964"><ele>410.0</ele><time>2026-03-28T14:07:30.999Z</time></trkpt><trkpt lat="44.42511436059451" lon="9.16750918814756"><ele>410.0</ele><time>2026-03-28T14:07:31.999Z</time></trkpt><trkpt lat="44.425105213858764" lon="9.167353730017501"><ele>410.0</ele><time>2026-03-28T14:07:32.999Z</time></trkpt><trkpt lat="44.4250446044949" lon="9.16719831651623"><ele>410.0</ele><time>2026-03-28T14:07:33.999Z</time></trkpt><trkpt lat="44.42499095521456" lon="9.16703586750828"><ele>407.8</ele><time>2026-03-28T14:07:34.999Z</time></trkpt><trkpt lat="44.42500815956562" lon="9.166860537382249"><ele>405.6</ele><time>2026-03-28T14:07:35.999Z</time></trkpt><trkpt lat="44.42501523319327" lon="9.16672577885082"><ele>403.4</ele><time>2026-03-28T14:07:36.999Z</time></trkpt><trkpt lat="44.42495916388501" lon="9.166621334025175"><ele>401.2</ele><time>2026-03-28T14:07:37.999Z</time></trkpt><trkpt lat="44.42486759034345" lon="9.166532015205851"><ele>399.0</ele><time>2026-03-28T14:07:38.999Z</time></trkpt><trkpt lat="44.42476537711647" lon="9.166468531666284"><ele>401.75</ele><time>2026-03-28T14:07:39.999Z</time></trkpt><trkpt lat="44.42464222503293" lon="9.166515084583654"><ele>404.5</ele><time>2026-03-28T14:07:40.999Z</time></trkpt><trkpt lat="44.42453420565465" lon="9.16659126143472"><ele>407.25</ele><time>2026-03-28T14:07:41.999Z</time></trkpt><trkpt lat="44.424415717811165" lon="9.166596738602205"><ele>410.0</ele><time>2026-03-28T14:07:42.999Z</time></trkpt><trkpt lat="44.424307775618686" lon="9.16650169508325"><ele>410.0</ele><time>2026-03-28T14:07:43.999Z</time></trkpt><trkpt lat="44.424233950272615" lon="9.16634193839965"><ele>410.0</ele><time>2026-03-28T14:07:44.999Z</time></trkpt><trkpt lat="44.424157047809935" lon="9.166174529626463"><ele>410.0</ele><time>2026-03-28T14:07:45.999Z</time></trkpt><trkpt lat="44.424051861201114" lon="9.166050646977343"><ele>410.0</ele><time>2026-03-28T14:07:46.999Z</time></trkpt><trkpt lat="44.42395682962585" lon="9.165907511358956"><ele>410.0</ele><time>2026-03-28T14:07:47.999Z</time></trkpt><trkpt lat="44.42388304086526" lon="9.165734165123105"><ele>410.0</ele><time>2026-03-28T14:07:48.999Z</time></trkpt><trkpt lat="44.423821745942696" lon="9.165575400709098"><ele>410.0</ele><time>2026-03-28T14:07:49.999Z</time></trkpt><trkpt lat="44.4237748163938" lon="9.165431024208457"><ele>410.0</ele><time>2026-03-28T14:07:50.999Z</time></trkpt><trkpt lat="44.42374220964429" lon="9.165297713968402"><ele>409.8</ele><time>2026-03-28T14:07:51.999Z</time></trkpt><trkpt lat="44.42374432793361" lon="9.165171399117416"><ele>409.6</ele><time>2026-03-28T14:07:52.999Z</time></trkpt><trkpt lat="44.42379984414982" lon="9.16506126818143"><ele>409.4</ele><time>2026-03-28T14:07:53.999Z</time></trkpt><trkpt lat="44.423887689355986" lon="9.164957946796019"><ele>409.2</ele><time>2026-03-28T14:07:54.999Z</time></trkpt><trkpt lat="44.42393810977475" lon="9.164829848000332"><ele>409.0</ele><time>2026-03-28T14:07:55.999Z</time></trkpt><trkpt lat="44.42393083984781" lon="9.164672159888328"><ele>407.25</ele><time>2026-03-28T14:07:56.999Z</time></trkpt><trkpt lat="44.423885543914885" lon="9.164532977182523"><ele>405.5</ele><time>2026-03-28T14:07:58Z</time></trkpt><trkpt lat="44.42379874770315" lon="9.16442471166639"><ele>403.75</ele><time>2026-03-28T14:07:59Z</time></trkpt><trkpt lat="44.423694039046474" lon="9.164358980338413"><ele>402.0</ele><time>2026-03-28T14:08:00Z</time></trkpt><trkpt lat="44.42360502851614" lon="9.164261053637777"><ele>406.20000000000005</ele><time>2026-03-28T14:08:01Z</time></trkpt><trkpt lat="44.423532073094236" lon="9.164142145813198"><ele>410.4</ele><time>2026-03-28T14:08:02Z</time></trkpt><trkpt lat="44.42346565148402" lon="9.164045358054487"><ele>414.6</ele><time>2026-03-28T14:08:03Z</time></trkpt><trkpt lat="44.42339415582537" lon="9.163975117897461"><ele>418.79999999999995</ele><time>2026-03-28T14:08:04Z</time></trkpt><trkpt lat="44.423297566550445" lon="9.163945496779688"><ele>423.0</ele><time>2026-03-28T14:08:05Z</time></trkpt><trkpt lat="44.42320084571884" lon="9.16394336480672"><ele>423.0</ele><time>2026-03-28T14:08:06Z</time></trkpt><trkpt lat="44.42310613727565" lon="9.163930279868977"><ele>423.0</ele><time>2026-03-28T14:08:07Z</time></trkpt><trkpt lat="44.423037819960875" lon="9.163822767934208"><ele>423.0</ele><time>2026-03-28T14:08:08Z</time></trkpt><trkpt lat="44.42298811803757" lon="9.163702152589966"><ele>423.0</ele><time>2026-03-28T14:08:09Z</time></trkpt><trkpt lat="44.42293168340366" lon="9.163595152425957"><ele>423.0</ele><time>2026-03-28T14:08:10Z</time></trkpt><trkpt lat="44.42287931637106" lon="9.163484119247581"><ele>426.8333333333333</ele><time>2026-03-28T14:08:11Z</time></trkpt><trkpt lat="44.42284899712809" lon="9.163367114070194"><ele>430.66666666666663</ele><time>2026-03-28T14:08:12Z</time></trkpt><trkpt lat="44.42285708736429" lon="9.163248280473939"><ele>434.5</ele><time>2026-03-28T14:08:13Z</time></trkpt><trkpt lat="44.422885402647715" lon="9.163144889671326"><ele>438.3333333333333</ele><time>2026-03-28T14:08:14Z</time></trkpt><trkpt lat="44.422907537658325" lon="9.163055132877716"><ele>442.16666666666663</ele><time>2026-03-28T14:08:15Z</time></trkpt><trkpt lat="44.42290933951163" lon="9.162955658742046"><ele>446.0</ele><time>2026-03-28T14:08:16Z</time></trkpt><trkpt lat="44.422881732075446" lon="9.162863572220791"><ele>445.99999999999994</ele><time>2026-03-28T14:08:17Z</time></trkpt><trkpt lat="44.422841566438144" lon="9.162782743317923"><ele>446.0</ele><time>2026-03-28T14:08:18Z</time></trkpt><trkpt lat="44.42278869614071" lon="9.162709819879192"><ele>446.0</ele><time>2026-03-28T14:08:19Z</time></trkpt><trkpt lat="44.42273678995451" lon="9.1626328575178"><ele>446.0</ele><time>2026-03-28T14:08:20Z</time></trkpt><trkpt lat="44.4226862014248" lon="9.16255267014487"><ele>445.99999999999994</ele><time>2026-03-28T14:08:21Z</time></trkpt><trkpt lat="44.42263884964186" lon="9.162466169052317"><ele>446.0</ele><time>2026-03-28T14:08:22Z</time></trkpt><trkpt lat="44.42256952454994" lon="9.162411132929286"><ele>442.99999999999994</ele><time>2026-03-28T14:08:23Z</time></trkpt><trkpt lat="44.42248964004377" lon="9.162363727273148"><ele>440.0</ele><time>2026-03-28T14:08:24Z</time></trkpt><trkpt lat="44.42240426704798" lon="9.162334502294128"><ele>437.0</ele><time>2026-03-28T14:08:25Z</time></trkpt><trkpt lat="44.42231796447188" lon="9.162305455785663"><ele>434.0</ele><time>2026-03-28T14:08:26Z</time></trkpt><trkpt lat="44.42222909521295" lon="9.162297657580064"><ele>430.99999999999994</ele><time>2026-03-28T14:08:27Z</time></trkpt><trkpt lat="44.42214722801506" lon="9.16226141497125"><ele>428.0</ele><time>2026-03-28T14:08:28Z</time></trkpt><trkpt lat="44.422067264422495" lon="9.162232374904672"><ele>437.59999999999997</ele><time>2026-03-28T14:08:29Z</time></trkpt><trkpt lat="44.42199215218154" lon="9.162190755891874"><ele>447.19999999999993</ele><time>2026-03-28T14:08:30Z</time></trkpt><trkpt lat="44.42192941802866" lon="9.16212134734331"><ele>456.8</ele><time>2026-03-28T14:08:31Z</time></trkpt><trkpt lat="44.42189089097909" lon="9.162007927510192"><ele>466.4</ele><time>2026-03-28T14:08:32Z</time></trkpt><trkpt lat="44.42189359459511" lon="9.161864957148984"><ele>476.0</ele><time>2026-03-28T14:08:33Z</time></trkpt><trkpt lat="44.42191171661278" lon="9.161716389384944"><ele>475.99999999999994</ele><time>2026-03-28T14:08:34Z</time></trkpt><trkpt lat="44.42192691201174" lon="9.161570531089353"><ele>476.0</ele><time>2026-03-28T14:08:35Z</time></trkpt><trkpt lat="44.421951693641" lon="9.16145297838977"><ele>476.0</ele><time>2026-03-28T14:08:36Z</time></trkpt><trkpt lat="44.42198551520948" lon="9.161351451235692"><ele>476.0</ele><time>2026-03-28T14:08:37Z</time></trkpt><trkpt lat="44.422006774596" lon="9.161240561291361"><ele>475.99999999999994</ele><time>2026-03-28T14:08:38Z</time></trkpt><trkpt lat="44.421994859382494" lon="9.161128570380187"><ele>476.0</ele><time>2026-03-28T14:08:39Z</time></trkpt><trkpt lat="44.42196156897826" lon="9.16102455322538"><ele>475.7142857142857</ele><time>2026-03-28T14:08:40Z</time></trkpt><trkpt lat="44.4219259399711" lon="9.160929760885399"><ele>475.42857142857144</ele><time>2026-03-28T14:08:41Z</time></trkpt><trkpt lat="44.4218925702964" lon="9.160834671657096"><ele>475.1428571428571</ele><time>2026-03-28T14:08:42Z</time></trkpt><trkpt lat="44.4218644116171" lon="9.160743830346485"><ele>474.85714285714283</ele><time>2026-03-28T14:08:43Z</time></trkpt><trkpt lat="44.42184868037256" lon="9.160652848247478"><ele>474.57142857142856</ele><time>2026-03-28T14:08:44Z</time></trkpt><trkpt lat="44.42186867427723" lon="9.160561312783965"><ele>474.2857142857142</ele><time>2026-03-28T14:08:45Z</time></trkpt><trkpt lat="44.42191691369607" lon="9.160479929920742"><ele>473.99999999999994</ele><time>2026-03-28T14:08:46Z</time></trkpt><trkpt lat="44.42197163388947" lon="9.160408754572877"><ele>473.5</ele><time>2026-03-28T14:08:47Z</time></trkpt><trkpt lat="44.422018618320095" lon="9.160346885520763"><ele>473.0</ele><time>2026-03-28T14:08:48Z</time></trkpt><trkpt lat="44.42207511133714" lon="9.160205261973491"><ele>472.5</ele><time>2026-03-28T14:08:50Z</time></trkpt><trkpt lat="44.4220749950139" lon="9.160106223920282"><ele>472.0</ele><time>2026-03-28T14:08:51Z</time></trkpt><trkpt lat="44.422048781170865" lon="9.160005571237907"><ele>471.5</ele><time>2026-03-28T14:08:52Z</time></trkpt><trkpt lat="44.42199071985309" lon="9.159923229806093"><ele>471.0</ele><time>2026-03-28T14:08:52.999Z</time></trkpt><trkpt lat="44.42192536188953" lon="9.15983386158322"><ele>468.0</ele><time>2026-03-28T14:08:53.999Z</time></trkpt><trkpt lat="44.42182791786813" lon="9.159773707440122"><ele>465.0</ele><time>2026-03-28T14:08:54.999Z</time></trkpt><trkpt lat="44.42173819372453" lon="9.159676431503337"><ele>462.0</ele><time>2026-03-28T14:08:55.999Z</time></trkpt><trkpt lat="44.4216525359642" lon="9.159538290018169"><ele>459.0</ele><time>2026-03-28T14:08:56.999Z</time></trkpt><trkpt lat="44.42157043674323" lon="9.159447767396834"><ele>459.0</ele><time>2026-03-28T14:08:57.999Z</time></trkpt><trkpt lat="44.42151071541664" lon="9.159353386873908"><ele>459.0</ele><time>2026-03-28T14:08:58.999Z</time></trkpt><trkpt lat="44.42144618374709" lon="9.15926646594098"><ele>459.0</ele><time>2026-03-28T14:08:59.999Z</time></trkpt><trkpt lat="44.42137432201481" lon="9.159185132332695"><ele>459.0</ele><time>2026-03-28T14:09:00.999Z</time></trkpt><trkpt lat="44.421314276550895" lon="9.159076443933635"><ele>459.0</ele><time>2026-03-28T14:09:01.999Z</time></trkpt><trkpt lat="44.42126538286014" lon="9.1589561394892"><ele>467.0</ele><time>2026-03-28T14:09:02.999Z</time></trkpt><trkpt lat="44.42123632833516" lon="9.158826596544902"><ele>475.0</ele><time>2026-03-28T14:09:03.999Z</time></trkpt><trkpt lat="44.421221737110145" lon="9.15869216764785"><ele>483.0</ele><time>2026-03-28T14:09:04.999Z</time></trkpt><trkpt lat="44.42121724505631" lon="9.158544915809747"><ele>491.0</ele><time>2026-03-28T14:09:05.999Z</time></trkpt><trkpt lat="44.42121677860848" lon="9.158380881064522"><ele>499.0</ele><time>2026-03-28T14:09:06.999Z</time></trkpt><trkpt lat="44.421220924939966" lon="9.15817848457332"><ele>499.0</ele><time>2026-03-28T14:09:07.999Z</time></trkpt><trkpt lat="44.4212261713108" lon="9.157965184682118"><ele>499.0</ele><time>2026-03-28T14:09:08.999Z</time></trkpt><trkpt lat="44.42124539992204" lon="9.157774477264415"><ele>499.0</ele><time>2026-03-28T14:09:09.999Z</time></trkpt><trkpt lat="44.42126807305539" lon="9.157603458568762"><ele>499.0</ele><time>2026-03-28T14:09:10.999Z</time></trkpt><trkpt lat="44.42129986089357" lon="9.157442751458767"><ele>493.79999999999995</ele><time>2026-03-28T14:09:11.999Z</time></trkpt><trkpt lat="44.42133266211669" lon="9.157305347718204"><ele>488.59999999999997</ele><time>2026-03-28T14:09:12.999Z</time></trkpt><trkpt lat="44.42136313759606" lon="9.157192461386664"><ele>483.4</ele><time>2026-03-28T14:09:13.999Z</time></trkpt><trkpt lat="44.421392291942226" lon="9.157064224978402"><ele>478.2</ele><time>2026-03-28T14:09:14.999Z</time></trkpt><trkpt lat="44.42142242346578" lon="9.156941574307488"><ele>473.0</ele><time>2026-03-28T14:09:15.999Z</time></trkpt><trkpt lat="44.42144933867747" lon="9.156837989755257"><ele>472.99999999999994</ele><time>2026-03-28T14:09:16.999Z</time></trkpt><trkpt lat="44.42146271212013" lon="9.156727131046797"><ele>473.0</ele><time>2026-03-28T14:09:17.999Z</time></trkpt><trkpt lat="44.42146172121693" lon="9.15661690942083"><ele>473.0</ele><time>2026-03-28T14:09:18.999Z</time></trkpt><trkpt lat="44.42147784860085" lon="9.156513997336777"><ele>473.0</ele><time>2026-03-28T14:09:19.999Z</time></trkpt><trkpt lat="44.42153035108229" lon="9.156421442416892"><ele>472.99999999999994</ele><time>2026-03-28T14:09:20.999Z</time></trkpt><trkpt lat="44.42160306278557" lon="9.156352908590598"><ele>473.0</ele><time>2026-03-28T14:09:21.999Z</time></trkpt><trkpt lat="44.42167356063433" lon="9.156290991518196"><ele>477.8333333333333</ele><time>2026-03-28T14:09:22.999Z</time></trkpt><trkpt lat="44.42173972746777" lon="9.156214510962117"><ele>482.66666666666663</ele><time>2026-03-28T14:09:23.999Z</time></trkpt><trkpt lat="44.42180251551528" lon="9.156147008228153"><ele>487.5</ele><time>2026-03-28T14:09:24.999Z</time></trkpt><trkpt lat="44.4218736468876" lon="9.156107964950497"><ele>492.33333333333337</ele><time>2026-03-28T14:09:25.999Z</time></trkpt><trkpt lat="44.42195078041402" lon="9.156104321227854"><ele>497.1666666666667</ele><time>2026-03-28T14:09:26.999Z</time></trkpt><trkpt lat="44.42203519168941" lon="9.156138229706052"><ele>502.0</ele><time>2026-03-28T14:09:27.999Z</time></trkpt><trkpt lat="44.422108537714216" lon="9.156203874590265"><ele>500.33333333333337</ele><time>2026-03-28T14:09:28.999Z</time></trkpt><trkpt lat="44.42217231215553" lon="9.156276664728642"><ele>498.6666666666667</ele><time>2026-03-28T14:09:29.999Z</time></trkpt><trkpt lat="44.422228582680354" lon="9.156361697873402"><ele>497.0</ele><time>2026-03-28T14:09:30.999Z</time></trkpt><trkpt lat="44.42228843827543" lon="9.156414656171462"><ele>495.33333333333337</ele><time>2026-03-28T14:09:31.999Z</time></trkpt><trkpt lat="44.42236125630432" lon="9.15642515949373"><ele>493.6666666666667</ele><time>2026-03-28T14:09:32.999Z</time></trkpt><trkpt lat="44.42243274053245" lon="9.156401460390986"><ele>492.0</ele><time>2026-03-28T14:09:33.999Z</time></trkpt><trkpt lat="44.42250174764252" lon="9.156361583328653"><ele>492.0</ele><time>2026-03-28T14:09:34.999Z</time></trkpt><trkpt lat="44.42257678196482" lon="9.156286939029524"><ele>492.00000000000006</ele><time>2026-03-28T14:09:35.999Z</time></trkpt><trkpt lat="44.42263042521535" lon="9.15619364831388"><ele>492.00000000000006</ele><time>2026-03-28T14:09:36.999Z</time></trkpt><trkpt lat="44.4226786302824" lon="9.156084377093675"><ele>492.0</ele><time>2026-03-28T14:09:37.999Z</time></trkpt><trkpt lat="44.422725084324775" lon="9.155973328893278"><ele>492.0</ele><time>2026-03-28T14:09:38.999Z</time></trkpt><trkpt lat="44.42279388685595" lon="9.155870681077694"><ele>492.0</ele><time>2026-03-28T14:09:39.999Z</time></trkpt><trkpt lat="44.42286536893178" lon="9.155799241061578"><ele>492.0</ele><time>2026-03-28T14:09:40.999Z</time></trkpt><trkpt lat="44.42294296123093" lon="9.15574763655866"><ele>492.0</ele><time>2026-03-28T14:09:41.999Z</time></trkpt><trkpt lat="44.423021860641015" lon="9.155708185172049"><ele>492.0</ele><time>2026-03-28T14:09:42.999Z</time></trkpt><trkpt lat="44.423079401772874" lon="9.155651368726065"><ele>492.0</ele><time>2026-03-28T14:09:43.999Z</time></trkpt><trkpt lat="44.423121316421444" lon="9.155561314009951"><ele>492.0</ele><time>2026-03-28T14:09:44.999Z</time></trkpt><trkpt lat="44.42315709296283" lon="9.155458956037705"><ele>490.3333333333333</ele><time>2026-03-28T14:09:45.999Z</time></trkpt><trkpt lat="44.423161119541014" lon="9.155331300611854"><ele>488.66666666666663</ele><time>2026-03-28T14:09:46.999Z</time></trkpt><trkpt lat="44.423144059266946" lon="9.155209215085407"><ele>487.0</ele><time>2026-03-28T14:09:47.999Z</time></trkpt><trkpt lat="44.42314506615281" lon="9.15508340375059"><ele>485.3333333333333</ele><time>2026-03-28T14:09:48.999Z</time></trkpt><trkpt lat="44.42315075363666" lon="9.154962795956505"><ele>483.66666666666663</ele><time>2026-03-28T14:09:49.999Z</time></trkpt><trkpt lat="44.42315712329614" lon="9.154851359256805"><ele>482.0</ele><time>2026-03-28T14:09:50.999Z</time></trkpt><trkpt lat="44.423154375897624" lon="9.154752109998974"><ele>483.20000000000005</ele><time>2026-03-28T14:09:51.999Z</time></trkpt><trkpt lat="44.423133442574766" lon="9.15466441257712"><ele>484.40000000000003</ele><time>2026-03-28T14:09:52.999Z</time></trkpt><trkpt lat="44.42308102926028" lon="9.154592028179879"><ele>485.59999999999997</ele><time>2026-03-28T14:09:53.999Z</time></trkpt><trkpt lat="44.42302219045234" lon="9.154517217342587"><ele>486.79999999999995</ele><time>2026-03-28T14:09:54.999Z</time></trkpt><trkpt lat="44.42290733354586" lon="9.154476229476533"><ele>488.0</ele><time>2026-03-28T14:09:55.999Z</time></trkpt><trkpt lat="44.422739951515496" lon="9.154421762816579"><ele>488.0</ele><time>2026-03-28T14:09:56.999Z</time></trkpt><trkpt lat="44.422583982266026" lon="9.154359438405015"><ele>488.0</ele><time>2026-03-28T14:09:57.999Z</time></trkpt><trkpt lat="44.42242374122402" lon="9.154297545019645"><ele>488.0</ele><time>2026-03-28T14:09:58.999Z</time></trkpt><trkpt lat="44.4222698699837" lon="9.154250987235539"><ele>489.0</ele><time>2026-03-28T14:09:59.999Z</time></trkpt><trkpt lat="44.422117692246985" lon="9.154222089939857"><ele>490.0</ele><time>2026-03-28T14:10:00.999Z</time></trkpt><trkpt lat="44.42197742343278" lon="9.15411490272515"><ele>491.0</ele><time>2026-03-28T14:10:01.999Z</time></trkpt><trkpt lat="44.42185302668687" lon="9.153938604467251"><ele>491.0</ele><time>2026-03-28T14:10:02.999Z</time></trkpt><trkpt lat="44.421763961824006" lon="9.153726803455287"><ele>491.0</ele><time>2026-03-28T14:10:04Z</time></trkpt><trkpt lat="44.421691648828045" lon="9.153532870431533"><ele>491.0</ele><time>2026-03-28T14:10:05Z</time></trkpt><trkpt lat="44.42161604298118" lon="9.153338585935757"><ele>485.3333333333333</ele><time>2026-03-28T14:10:06Z</time></trkpt><trkpt lat="44.42154510385906" lon="9.153132807150566"><ele>479.66666666666663</ele><time>2026-03-28T14:10:07Z</time></trkpt><trkpt lat="44.42149193427842" lon="9.152909043517841"><ele>474.0</ele><time>2026-03-28T14:10:08Z</time></trkpt><trkpt lat="44.421463799750406" lon="9.152691814708238"><ele>474.0</ele><time>2026-03-28T14:10:09Z</time></trkpt><trkpt lat="44.42142809172052" lon="9.15248352106762"><ele>474.0</ele><time>2026-03-28T14:10:10Z</time></trkpt><trkpt lat="44.42138044562854" lon="9.152296998762711"><ele>474.0</ele><time>2026-03-28T14:10:11Z</time></trkpt><trkpt lat="44.42130383384012" lon="9.152130105153661"><ele>474.0</ele><time>2026-03-28T14:10:12Z</time></trkpt><trkpt lat="44.421199625492676" lon="9.151996505350105"><ele>472.25</ele><time>2026-03-28T14:10:13Z</time></trkpt><trkpt lat="44.42111063000606" lon="9.151848672081137"><ele>470.5</ele><time>2026-03-28T14:10:14Z</time></trkpt><trkpt lat="44.42110788001738" lon="9.151666161400843"><ele>468.75</ele><time>2026-03-28T14:10:15Z</time></trkpt><trkpt lat="44.421064907315035" lon="9.151512165594607"><ele>467.0</ele><time>2026-03-28T14:10:16Z</time></trkpt><trkpt lat="44.42104187513051" lon="9.151342545014142"><ele>467.0</ele><time>2026-03-28T14:10:17Z</time></trkpt><trkpt lat="44.42102168436289" lon="9.151185067991609"><ele>467.00000000000006</ele><time>2026-03-28T14:10:18Z</time></trkpt><trkpt lat="44.42099065663181" lon="9.151040886317812"><ele>467.00000000000006</ele><time>2026-03-28T14:10:19Z</time></trkpt><trkpt lat="44.420928549818925" lon="9.150945518927257"><ele>467.0</ele><time>2026-03-28T14:10:20Z</time></trkpt><trkpt lat="44.42083554072585" lon="9.150906152260733"><ele>467.0</ele><time>2026-03-28T14:10:21Z</time></trkpt><trkpt lat="44.42073332535799" lon="9.150906924380969"><ele>467.0</ele><time>2026-03-28T14:10:22Z</time></trkpt><trkpt lat="44.42062935225909" lon="9.150987091963236"><ele>467.00000000000006</ele><time>2026-03-28T14:10:23Z</time></trkpt><trkpt lat="44.42053457491082" lon="9.151048836408014"><ele>467.00000000000006</ele><time>2026-03-28T14:10:24Z</time></trkpt><trkpt lat="44.42043964824023" lon="9.15109715305608"><ele>467.0</ele><time>2026-03-28T14:10:25Z</time></trkpt><trkpt lat="44.42035427063191" lon="9.151094848474123"><ele>467.0</ele><time>2026-03-28T14:10:26Z</time></trkpt><trkpt lat="44.42028853307069" lon="9.151010005566356"><ele>464.8</ele><time>2026-03-28T14:10:27Z</time></trkpt><trkpt lat="44.420249433989795" lon="9.150880450585086"><ele>462.6</ele><time>2026-03-28T14:10:28Z</time></trkpt><trkpt lat="44.42022319936306" lon="9.150746373542887"><ele>460.40000000000003</ele><time>2026-03-28T14:10:29Z</time></trkpt><trkpt lat="44.420188531503264" lon="9.150600015818465"><ele>458.20000000000005</ele><time>2026-03-28T14:10:30Z</time></trkpt><trkpt lat="44.42013957961038" lon="9.150471449833377"><ele>456.0</ele><time>2026-03-28T14:10:31Z</time></trkpt><trkpt lat="44.42006411054166" lon="9.150395322019085"><ele>456.0</ele><time>2026-03-28T14:10:32Z</time></trkpt><trkpt lat="44.41995868771594" lon="9.150355356939201"><ele>456.0</ele><time>2026-03-28T14:10:33Z</time></trkpt><trkpt lat="44.41984848812029" lon="9.150323396576601"><ele>456.0</ele><time>2026-03-28T14:10:34Z</time></trkpt><trkpt lat="44.4197487437748" lon="9.150249534811937"><ele>456.0</ele><time>2026-03-28T14:10:35Z</time></trkpt><trkpt lat="44.41966885988649" lon="9.150120523587088"><ele>456.75</ele><time>2026-03-28T14:10:36Z</time></trkpt><trkpt lat="44.41960238862918" lon="9.149974462328274"><ele>457.5</ele><time>2026-03-28T14:10:37Z</time></trkpt><trkpt lat="44.41952598765107" lon="9.149870167288151"><ele>458.25</ele><time>2026-03-28T14:10:38Z</time></trkpt><trkpt lat="44.4194328194504" lon="9.149796791905477"><ele>459.0</ele><time>2026-03-28T14:10:39Z</time></trkpt><trkpt lat="44.41932489030311" lon="9.149746870052443"><ele>459.0</ele><time>2026-03-28T14:10:40Z</time></trkpt><trkpt lat="44.4192063742279" lon="9.14971514280031"><ele>459.0</ele><time>2026-03-28T14:10:41Z</time></trkpt><trkpt lat="44.419093831946824" lon="9.149664972492621"><ele>459.0</ele><time>2026-03-28T14:10:42Z</time></trkpt><trkpt lat="44.41898991184505" lon="9.149569879773699"><ele>459.0</ele><time>2026-03-28T14:10:43Z</time></trkpt><trkpt lat="44.41888911989834" lon="9.149475102838037"><ele>459.0</ele><time>2026-03-28T14:10:44Z</time></trkpt><trkpt lat="44.41879270168075" lon="9.149397752451655"><ele>459.0</ele><time>2026-03-28T14:10:45Z</time></trkpt><trkpt lat="44.41869388819155" lon="9.149338853360968"><ele>459.0</ele><time>2026-03-28T14:10:46Z</time></trkpt><trkpt lat="44.41857795325146" lon="9.149352124222533"><ele>459.0</ele><time>2026-03-28T14:10:47Z</time></trkpt><trkpt lat="44.41846711787587" lon="9.149369671877826"><ele>459.0</ele><time>2026-03-28T14:10:48Z</time></trkpt><trkpt lat="44.41837447297161" lon="9.14935052613739"><ele>459.0</ele><time>2026-03-28T14:10:49Z</time></trkpt><trkpt lat="44.418300252411015" lon="9.149247325844028"><ele>459.0</ele><time>2026-03-28T14:10:50Z</time></trkpt><trkpt lat="44.4182602030131" lon="9.149113225523731"><ele>459.0</ele><time>2026-03-28T14:10:51Z</time></trkpt><trkpt lat="44.41820493713931" lon="9.149015396958243"><ele>459.0</ele><time>2026-03-28T14:10:52Z</time></trkpt><trkpt lat="44.41810987137149" lon="9.148973452975996"><ele>459.0</ele><time>2026-03-28T14:10:53Z</time></trkpt><trkpt lat="44.41799906579" lon="9.14893301577643"><ele>457.75</ele><time>2026-03-28T14:10:54Z</time></trkpt><trkpt lat="44.41788694158998" lon="9.148848155631773"><ele>456.5</ele><time>2026-03-28T14:10:55Z</time></trkpt><trkpt lat="44.41777631315676" lon="9.148737375860465"><ele>455.25</ele><time>2026-03-28T14:10:56Z</time></trkpt><trkpt lat="44.417670517431816" lon="9.148625392875488"><ele>454.0</ele><time>2026-03-28T14:10:57Z</time></trkpt><trkpt lat="44.417572062470875" lon="9.148502001574325"><ele>454.0</ele><time>2026-03-28T14:10:57.999Z</time></trkpt><trkpt lat="44.41748653350903" lon="9.14837347880058"><ele>454.0</ele><time>2026-03-28T14:10:58.999Z</time></trkpt><trkpt lat="44.41741137319508" lon="9.1482511181512"><ele>454.0</ele><time>2026-03-28T14:10:59.999Z</time></trkpt><trkpt lat="44.41733442821298" lon="9.148170284248407"><ele>454.0</ele><time>2026-03-28T14:11:00.999Z</time></trkpt><trkpt lat="44.41723783509472" lon="9.148118037027714"><ele>454.0</ele><time>2026-03-28T14:11:01.999Z</time></trkpt><trkpt lat="44.41712002538058" lon="9.148126444377938"><ele>455.2</ele><time>2026-03-28T14:11:02.999Z</time></trkpt><trkpt lat="44.41703088057406" lon="9.148152238377955"><ele>456.4</ele><time>2026-03-28T14:11:03.999Z</time></trkpt><trkpt lat="44.41694752727304" lon="9.148188620508868"><ele>457.6</ele><time>2026-03-28T14:11:04.999Z</time></trkpt><trkpt lat="44.4168643958773" lon="9.148255982613186"><ele>458.8</ele><time>2026-03-28T14:11:05.999Z</time></trkpt><trkpt lat="44.416811930828906" lon="9.148403995294633"><ele>460.0</ele><time>2026-03-28T14:11:06.999Z</time></trkpt><trkpt lat="44.416809159011976" lon="9.148571211124715"><ele>456.25</ele><time>2026-03-28T14:11:07.999Z</time></trkpt><trkpt lat="44.41680986058126" lon="9.14874250080741"><ele>452.5</ele><time>2026-03-28T14:11:08.999Z</time></trkpt><trkpt lat="44.416825979207154" lon="9.1489185044002"><ele>448.75</ele><time>2026-03-28T14:11:09.999Z</time></trkpt><trkpt lat="44.41686285119696" lon="9.149081514338802"><ele>445.0</ele><time>2026-03-28T14:11:10.999Z</time></trkpt><trkpt lat="44.416933606809025" lon="9.149210796004171"><ele>443.0</ele><time>2026-03-28T14:11:11.999Z</time></trkpt><trkpt lat="44.41705038466257" lon="9.149236769459415"><ele>441.0</ele><time>2026-03-28T14:11:12.999Z</time></trkpt><trkpt lat="44.41715803809167" lon="9.149279866845637"><ele>439.0</ele><time>2026-03-28T14:11:13.999Z</time></trkpt><trkpt lat="44.41723765248535" lon="9.149390078097092"><ele>437.0</ele><time>2026-03-28T14:11:14.999Z</time></trkpt><trkpt lat="44.41726689232523" lon="9.149525840648302"><ele>435.0</ele><time>2026-03-28T14:11:15.999Z</time></trkpt><trkpt lat="44.41728975888101" lon="9.14967696793695"><ele>433.0</ele><time>2026-03-28T14:11:16.999Z</time></trkpt><trkpt lat="44.41729418821434" lon="9.149807201378556"><ele>431.0</ele><time>2026-03-28T14:11:17.999Z</time></trkpt><trkpt lat="44.41726246748355" lon="9.149924244316557"><ele>429.0</ele><time>2026-03-28T14:11:18.999Z</time></trkpt><trkpt lat="44.41721424320372" lon="9.150042840473484"><ele>427.0</ele><time>2026-03-28T14:11:19.999Z</time></trkpt><trkpt lat="44.41715253383792" lon="9.150151024604565"><ele>425.0</ele><time>2026-03-28T14:11:20.999Z</time></trkpt><trkpt lat="44.41709855281694" lon="9.15027158605595"><ele>425.0</ele><time>2026-03-28T14:11:21.999Z</time></trkpt><trkpt lat="44.41706575556526" lon="9.15041005782762"><ele>425.0</ele><time>2026-03-28T14:11:22.999Z</time></trkpt><trkpt lat="44.417041028344" lon="9.150560418412955"><ele>425.0</ele><time>2026-03-28T14:11:23.999Z</time></trkpt><trkpt lat="44.41701980565407" lon="9.15071053863948"><ele>425.0</ele><time>2026-03-28T14:11:24.999Z</time></trkpt><trkpt lat="44.41700228999107" lon="9.15085439917605"><ele>425.0</ele><time>2026-03-28T14:11:25.999Z</time></trkpt><trkpt lat="44.41698994277821" lon="9.150997163886219"><ele>424.66666666666663</ele><time>2026-03-28T14:11:26.999Z</time></trkpt><trkpt lat="44.41698537597097" lon="9.15113818403678"><ele>424.3333333333333</ele><time>2026-03-28T14:11:27.999Z</time></trkpt><trkpt lat="44.416993218843054" lon="9.151264594166449"><ele>424.0</ele><time>2026-03-28T14:11:28.999Z</time></trkpt><trkpt lat="44.41701629800714" lon="9.151374116791128"><ele>423.66666666666663</ele><time>2026-03-28T14:11:29.999Z</time></trkpt><trkpt lat="44.417075311615385" lon="9.151459295746433"><ele>423.3333333333333</ele><time>2026-03-28T14:11:30.999Z</time></trkpt><trkpt lat="44.41713704547288" lon="9.151529521142379"><ele>423.0</ele><time>2026-03-28T14:11:31.999Z</time></trkpt><trkpt lat="44.41720767305686" lon="9.151581833992429"><ele>427.6666666666667</ele><time>2026-03-28T14:11:32.999Z</time></trkpt><trkpt lat="44.41727290219903" lon="9.151644216612478"><ele>432.33333333333337</ele><time>2026-03-28T14:11:33.999Z</time></trkpt><trkpt lat="44.41729388608827" lon="9.151754512124242"><ele>437.0</ele><time>2026-03-28T14:11:34.999Z</time></trkpt><trkpt lat="44.41727612914891" lon="9.15185928961598"><ele>441.6666666666667</ele><time>2026-03-28T14:11:35.999Z</time></trkpt><trkpt lat="44.41723877973931" lon="9.151970933058623"><ele>446.33333333333337</ele><time>2026-03-28T14:11:36.999Z</time></trkpt><trkpt lat="44.41720144734472" lon="9.152094475300682"><ele>451.0</ele><time>2026-03-28T14:11:37.999Z</time></trkpt><trkpt lat="44.417198724484855" lon="9.152223392488695"><ele>451.0</ele><time>2026-03-28T14:11:38.999Z</time></trkpt><trkpt lat="44.41719998925611" lon="9.15235174336854"><ele>451.0</ele><time>2026-03-28T14:11:39.999Z</time></trkpt><trkpt lat="44.41723867446124" lon="9.152478325938137"><ele>451.0</ele><time>2026-03-28T14:11:40.999Z</time></trkpt><trkpt lat="44.41729959349481" lon="9.152604570144058"><ele>451.0</ele><time>2026-03-28T14:11:41.999Z</time></trkpt><trkpt lat="44.417395384161544" lon="9.152688444525635"><ele>451.0</ele><time>2026-03-28T14:11:42.999Z</time></trkpt><trkpt lat="44.41744720805109" lon="9.152829118883444"><ele>449.0</ele><time>2026-03-28T14:11:43.999Z</time></trkpt><trkpt lat="44.41745129517504" lon="9.152972032370945"><ele>447.0</ele><time>2026-03-28T14:11:44.999Z</time></trkpt><trkpt lat="44.41746466281316" lon="9.153129259548686"><ele>445.0</ele><time>2026-03-28T14:11:45.999Z</time></trkpt><trkpt lat="44.41743376785997" lon="9.153290048219398"><ele>443.0</ele><time>2026-03-28T14:11:46.999Z</time></trkpt><trkpt lat="44.41740433363545" lon="9.153436364614253"><ele>441.0</ele><time>2026-03-28T14:11:47.999Z</time></trkpt><trkpt lat="44.41733870165252" lon="9.153547549591138"><ele>440.25</ele><time>2026-03-28T14:11:48.999Z</time></trkpt><trkpt lat="44.417240673663734" lon="9.153641890042314"><ele>439.5</ele><time>2026-03-28T14:11:49.999Z</time></trkpt><trkpt lat="44.41713616884201" lon="9.153755179973116"><ele>438.75</ele><time>2026-03-28T14:11:50.999Z</time></trkpt><trkpt lat="44.41704546771265" lon="9.153888960336346"><ele>438.0</ele><time>2026-03-28T14:11:51.999Z</time></trkpt><trkpt lat="44.41698491617989" lon="9.154057635823525"><ele>432.25</ele><time>2026-03-28T14:11:52.999Z</time></trkpt><trkpt lat="44.41691255875338" lon="9.154206869288421"><ele>426.5</ele><time>2026-03-28T14:11:53.999Z</time></trkpt><trkpt lat="44.41681209658908" lon="9.154328587418213"><ele>420.75</ele><time>2026-03-28T14:11:54.999Z</time></trkpt><trkpt lat="44.41670269304623" lon="9.154442319896429"><ele>415.0</ele><time>2026-03-28T14:11:55.999Z</time></trkpt><trkpt lat="44.4165947863973" lon="9.154574152346536"><ele>415.0</ele><time>2026-03-28T14:11:56.999Z</time></trkpt><trkpt lat="44.41651501265068" lon="9.154732353399442"><ele>415.0</ele><time>2026-03-28T14:11:57.999Z</time></trkpt><trkpt lat="44.41643711587249" lon="9.154895689801013"><ele>415.0</ele><time>2026-03-28T14:11:58.999Z</time></trkpt><trkpt lat="44.41636345866451" lon="9.15505258886342"><ele>415.0</ele><time>2026-03-28T14:11:59.999Z</time></trkpt><trkpt lat="44.41629228714572" lon="9.155205218188721"><ele>413.25</ele><time>2026-03-28T14:12:00.999Z</time></trkpt><trkpt lat="44.41621582020033" lon="9.155346067828345"><ele>411.5</ele><time>2026-03-28T14:12:01.999Z</time></trkpt><trkpt lat="44.41613245159898" lon="9.155474420471192"><ele>409.75</ele><time>2026-03-28T14:12:02.999Z</time></trkpt><trkpt lat="44.41605880886358" lon="9.155608021625659"><ele>408.0</ele><time>2026-03-28T14:12:03.999Z</time></trkpt><trkpt lat="44.41596853997097" lon="9.155707591641729"><ele>408.0</ele><time>2026-03-28T14:12:04.999Z</time></trkpt><trkpt lat="44.41589833265523" lon="9.155827763687256"><ele>408.0</ele><time>2026-03-28T14:12:05.999Z</time></trkpt><trkpt lat="44.415878440391005" lon="9.155961714045134"><ele>408.0</ele><time>2026-03-28T14:12:06.999Z</time></trkpt><trkpt lat="44.41591472121376" lon="9.15609997554487"><ele>408.0</ele><time>2026-03-28T14:12:07.999Z</time></trkpt><trkpt lat="44.41597503768832" lon="9.15623365675329"><ele>408.0</ele><time>2026-03-28T14:12:08.999Z</time></trkpt><trkpt lat="44.41605643704126" lon="9.156344618556947"><ele>408.0</ele><time>2026-03-28T14:12:10Z</time></trkpt><trkpt lat="44.41614711888561" lon="9.156444830268452"><ele>408.0</ele><time>2026-03-28T14:12:11Z</time></trkpt><trkpt lat="44.416216283540656" lon="9.156578607077435"><ele>408.0</ele><time>2026-03-28T14:12:12Z</time></trkpt><trkpt lat="44.416239930542176" lon="9.156752709376638"><ele>408.0</ele><time>2026-03-28T14:12:13Z</time></trkpt><trkpt lat="44.41625855677523" lon="9.156923250342768"><ele>406.4</ele><time>2026-03-28T14:12:14Z</time></trkpt><trkpt lat="44.41624745090435" lon="9.157071684386926"><ele>404.79999999999995</ele><time>2026-03-28T14:12:15Z</time></trkpt><trkpt lat="44.41620008906897" lon="9.157198392113031"><ele>403.2</ele><time>2026-03-28T14:12:16Z</time></trkpt><trkpt lat="44.41617557128077" lon="9.157323405708237"><ele>401.6</ele><time>2026-03-28T14:12:17Z</time></trkpt><trkpt lat="44.41617907306062" lon="9.157453821909522"><ele>400.0</ele><time>2026-03-28T14:12:18Z</time></trkpt><trkpt lat="44.416244608898815" lon="9.157577087973944"><ele>400.75</ele><time>2026-03-28T14:12:19Z</time></trkpt><trkpt lat="44.41627878567012" lon="9.157726575459522"><ele>401.5</ele><time>2026-03-28T14:12:20Z</time></trkpt><trkpt lat="44.416271152457284" lon="9.15789162351497"><ele>402.25</ele><time>2026-03-28T14:12:21Z</time></trkpt><trkpt lat="44.41625635358855" lon="9.158056551364192"><ele>403.0</ele><time>2026-03-28T14:12:22Z</time></trkpt><trkpt lat="44.41622481597368" lon="9.158210323383136"><ele>403.0</ele><time>2026-03-28T14:12:23Z</time></trkpt><trkpt lat="44.416174836945245" lon="9.158343500428215"><ele>403.0</ele><time>2026-03-28T14:12:24Z</time></trkpt><trkpt lat="44.416106948400575" lon="9.15845184163691"><ele>403.0</ele><time>2026-03-28T14:12:25Z</time></trkpt><trkpt lat="44.41601699854762" lon="9.158504489343851"><ele>403.0</ele><time>2026-03-28T14:12:26Z</time></trkpt><trkpt lat="44.41591889009244" lon="9.158529514500858"><ele>403.0</ele><time>2026-03-28T14:12:27Z</time></trkpt><trkpt lat="44.41580997930758" lon="9.158545734425102"><ele>403.0</ele><time>2026-03-28T14:12:28Z</time></trkpt><trkpt lat="44.41570570936961" lon="9.158568990302946"><ele>403.0</ele><time>2026-03-28T14:12:29Z</time></trkpt><trkpt lat="44.415610432693356" lon="9.15859292491451"><ele>403.0</ele><time>2026-03-28T14:12:30Z</time></trkpt><trkpt lat="44.41553234342046" lon="9.158629928420906"><ele>403.0</ele><time>2026-03-28T14:12:31Z</time></trkpt><trkpt lat="44.41547325381707" lon="9.158716389662011"><ele>403.0</ele><time>2026-03-28T14:12:32Z</time></trkpt><trkpt lat="44.41544269544268" lon="9.15883588588954"><ele>400.6666666666667</ele><time>2026-03-28T14:12:33Z</time></trkpt><trkpt lat="44.41542013421124" lon="9.158969117651983"><ele>398.33333333333337</ele><time>2026-03-28T14:12:34Z</time></trkpt><trkpt lat="44.415400125128855" lon="9.159088889617026"><ele>396.0</ele><time>2026-03-28T14:12:35Z</time></trkpt><trkpt lat="44.41537524911518" lon="9.159192050062853"><ele>393.66666666666663</ele><time>2026-03-28T14:12:36Z</time></trkpt><trkpt lat="44.415337704291225" lon="9.159290775460683"><ele>391.3333333333333</ele><time>2026-03-28T14:12:37Z</time></trkpt><trkpt lat="44.41527052939394" lon="9.159383334827558"><ele>389.0</ele><time>2026-03-28T14:12:38Z</time></trkpt><trkpt lat="44.41515906872506" lon="9.1593801477624"><ele>388.99999999999994</ele><time>2026-03-28T14:12:39Z</time></trkpt><trkpt lat="44.41506965112882" lon="9.15943521372628"><ele>389.0</ele><time>2026-03-28T14:12:40Z</time></trkpt><trkpt lat="44.41500981510775" lon="9.159499709355691"><ele>389.0</ele><time>2026-03-28T14:12:41Z</time></trkpt><trkpt lat="44.414952188676196" lon="9.159566197556472"><ele>389.0</ele><time>2026-03-28T14:12:42Z</time></trkpt><trkpt lat="44.41489717681263" lon="9.159630351451394"><ele>388.99999999999994</ele><time>2026-03-28T14:12:43Z</time></trkpt><trkpt lat="44.41484136021396" lon="9.159694675151988"><ele>389.0</ele><time>2026-03-28T14:12:44Z</time></trkpt><trkpt lat="44.414779580129725" lon="9.15976581589577"><ele>389.0</ele><time>2026-03-28T14:12:45Z</time></trkpt><trkpt lat="44.414708858990906" lon="9.15984993086701"><ele>389.0</ele><time>2026-03-28T14:12:46Z</time></trkpt><trkpt lat="44.4146333399005" lon="9.159950581160425"><ele>389.0</ele><time>2026-03-28T14:12:47Z</time></trkpt><trkpt lat="44.414563303742604" lon="9.16006788342895"><ele>389.0</ele><time>2026-03-28T14:12:48Z</time></trkpt><trkpt lat="44.414499534239006" lon="9.160199048793203"><ele>389.0</ele><time>2026-03-28T14:12:49Z</time></trkpt><trkpt lat="44.414439423589585" lon="9.16033639290321"><ele>388.5</ele><time>2026-03-28T14:12:50Z</time></trkpt><trkpt lat="44.414390303684414" lon="9.160494358240483"><ele>388.0</ele><time>2026-03-28T14:12:51Z</time></trkpt><trkpt lat="44.414374090909625" lon="9.160660359021517"><ele>387.5</ele><time>2026-03-28T14:12:52Z</time></trkpt><trkpt lat="44.414338135449725" lon="9.16080612116819"><ele>387.0</ele><time>2026-03-28T14:12:53Z</time></trkpt><trkpt lat="44.4143231216155" lon="9.160945939097267"><ele>387.0</ele><time>2026-03-28T14:12:54Z</time></trkpt><trkpt lat="44.41431581329758" lon="9.16108159550932"><ele>387.0</ele><time>2026-03-28T14:12:55Z</time></trkpt><trkpt lat="44.41426331127299" lon="9.161191199970093"><ele>387.0</ele><time>2026-03-28T14:12:56Z</time></trkpt><trkpt lat="44.41418932530598" lon="9.161271727738221"><ele>387.0</ele><time>2026-03-28T14:12:57Z</time></trkpt><trkpt lat="44.414102800592794" lon="9.16133476850095"><ele>387.0</ele><time>2026-03-28T14:12:58Z</time></trkpt><trkpt lat="44.41399256095824" lon="9.161357094627888"><ele>387.0</ele><time>2026-03-28T14:12:58.999Z</time></trkpt><trkpt lat="44.41389922475754" lon="9.161408274996822"><ele>387.0</ele><time>2026-03-28T14:12:59.999Z</time></trkpt><trkpt lat="44.41381543272496" lon="9.161470906746102"><ele>387.0</ele><time>2026-03-28T14:13:00.999Z</time></trkpt><trkpt lat="44.41374678454118" lon="9.161567236891774"><ele>387.0</ele><time>2026-03-28T14:13:01.999Z</time></trkpt><trkpt lat="44.413688748272754" lon="9.161664960923252"><ele>387.0</ele><time>2026-03-28T14:13:02.999Z</time></trkpt><trkpt lat="44.41361400851886" lon="9.161724036318335"><ele>385.1666666666667</ele><time>2026-03-28T14:13:03.999Z</time></trkpt><trkpt lat="44.41354011761786" lon="9.161785583512687"><ele>383.3333333333333</ele><time>2026-03-28T14:13:04.999Z</time></trkpt><trkpt lat="44.41346948489509" lon="9.161850347834184"><ele>381.5</ele><time>2026-03-28T14:13:05.999Z</time></trkpt><trkpt lat="44.413409073546305" lon="9.161920849557113"><ele>379.66666666666663</ele><time>2026-03-28T14:13:06.999Z</time></trkpt><trkpt lat="44.41336255509878" lon="9.162015262012817"><ele>377.8333333333333</ele><time>2026-03-28T14:13:07.999Z</time></trkpt><trkpt lat="44.41329383414313" lon="9.1620784215107"><ele>376.0</ele><time>2026-03-28T14:13:08.999Z</time></trkpt><trkpt lat="44.41323682424187" lon="9.162168481178968"><ele>376.0</ele><time>2026-03-28T14:13:09.999Z</time></trkpt><trkpt lat="44.41318190729678" lon="9.16225624731173"><ele>376.0</ele><time>2026-03-28T14:13:10.999Z</time></trkpt><trkpt lat="44.41313313246124" lon="9.162348803477155"><ele>376.0</ele><time>2026-03-28T14:13:11.999Z</time></trkpt><trkpt lat="44.413099447479034" lon="9.162459727698822"><ele>376.0</ele><time>2026-03-28T14:13:12.999Z</time></trkpt><trkpt lat="44.4130978611267" lon="9.162577824380609"><ele>376.0</ele><time>2026-03-28T14:13:13.999Z</time></trkpt><trkpt lat="44.41311323492661" lon="9.162690029790001"><ele>376.0</ele><time>2026-03-28T14:13:14.999Z</time></trkpt><trkpt lat="44.41314035437375" lon="9.162811014549407"><ele>378.20000000000005</ele><time>2026-03-28T14:13:15.999Z</time></trkpt><trkpt lat="44.41317648670992" lon="9.162932123152991"><ele>380.40000000000003</ele><time>2026-03-28T14:13:16.999Z</time></trkpt><trkpt lat="44.4132370284915" lon="9.163044978963462"><ele>382.6</ele><time>2026-03-28T14:13:17.999Z</time></trkpt><trkpt lat="44.41324873715059" lon="9.163180990198313"><ele>384.8</ele><time>2026-03-28T14:13:18.999Z</time></trkpt><trkpt lat="44.41328676395812" lon="9.16330173965919"><ele>387.0</ele><time>2026-03-28T14:13:19.999Z</time></trkpt><trkpt lat="44.41329122297019" lon="9.163424681882585"><ele>387.1666666666667</ele><time>2026-03-28T14:13:20.999Z</time></trkpt><trkpt lat="44.413294628769734" lon="9.163601132245232"><ele>387.33333333333337</ele><time>2026-03-28T14:13:22.999Z</time></trkpt><trkpt lat="44.41328937975269" lon="9.163701834154706"><ele>387.5</ele><time>2026-03-28T14:13:23.999Z</time></trkpt><trkpt lat="44.41326413392943" lon="9.163794850769545"><ele>387.6666666666667</ele><time>2026-03-28T14:13:24.999Z</time></trkpt><trkpt lat="44.41323600709087" lon="9.163897357696248"><ele>387.83333333333337</ele><time>2026-03-28T14:13:25.999Z</time></trkpt><trkpt lat="44.413213948414196" lon="9.164009564033071"><ele>388.0</ele><time>2026-03-28T14:13:26.999Z</time></trkpt><trkpt lat="44.413196720879135" lon="9.164117527923239"><ele>389.00000000000006</ele><time>2026-03-28T14:13:27.999Z</time></trkpt><trkpt lat="44.41314647774394" lon="9.164207918939539"><ele>390.0</ele><time>2026-03-28T14:13:28.999Z</time></trkpt><trkpt lat="44.413124265021125" lon="9.164302520298437"><ele>391.0</ele><time>2026-03-28T14:13:29.999Z</time></trkpt><trkpt lat="44.41305939688769" lon="9.164370944745016"><ele>392.0</ele><time>2026-03-28T14:13:30.999Z</time></trkpt><trkpt lat="44.412991474239114" lon="9.164415166629663"><ele>393.00000000000006</ele><time>2026-03-28T14:13:31.999Z</time></trkpt><trkpt lat="44.41291407406164" lon="9.164436316729"><ele>394.0</ele><time>2026-03-28T14:13:32.999Z</time></trkpt><trkpt lat="44.412837682341916" lon="9.164444052733868"><ele>389.2857142857143</ele><time>2026-03-28T14:13:33.999Z</time></trkpt><trkpt lat="44.41276322286387" lon="9.164452138380351"><ele>384.57142857142856</ele><time>2026-03-28T14:13:34.999Z</time></trkpt><trkpt lat="44.412687623065295" lon="9.164464074619369"><ele>379.8571428571429</ele><time>2026-03-28T14:13:35.999Z</time></trkpt><trkpt lat="44.412622434853674" lon="9.164484500721661"><ele>375.1428571428571</ele><time>2026-03-28T14:13:36.999Z</time></trkpt><trkpt lat="44.41256015855224" lon="9.164513814859959"><ele>370.4285714285714</ele><time>2026-03-28T14:13:37.999Z</time></trkpt><trkpt lat="44.41249783201" lon="9.16454034491566"><ele>365.7142857142857</ele><time>2026-03-28T14:13:38.999Z</time></trkpt><trkpt lat="44.41243823651785" lon="9.164571319291719"><ele>361.0</ele><time>2026-03-28T14:13:39.999Z</time></trkpt><trkpt lat="44.41233334691389" lon="9.164652501959804"><ele>361.0</ele><time>2026-03-28T14:13:41.999Z</time></trkpt><trkpt lat="44.41226991268942" lon="9.164670044659674"><ele>361.0</ele><time>2026-03-28T14:13:42.999Z</time></trkpt><trkpt lat="44.41220530961918" lon="9.164673513560484"><ele>361.0</ele><time>2026-03-28T14:13:43.999Z</time></trkpt><trkpt lat="44.41214060809006" lon="9.164672233776072"><ele>361.0</ele><time>2026-03-28T14:13:44.999Z</time></trkpt><trkpt lat="44.41207735475348" lon="9.164678296611951"><ele>361.0</ele><time>2026-03-28T14:13:45.999Z</time></trkpt><trkpt lat="44.412011092266106" lon="9.164697012447121"><ele>361.0</ele><time>2026-03-28T14:13:46.999Z</time></trkpt><trkpt lat="44.41193736420808" lon="9.164739878903204"><ele>361.0</ele><time>2026-03-28T14:13:47.999Z</time></trkpt><trkpt lat="44.411853644746046" lon="9.164772506885953"><ele>360.8333333333333</ele><time>2026-03-28T14:13:48.999Z</time></trkpt><trkpt lat="44.411778208137235" lon="9.164832900823628"><ele>360.66666666666663</ele><time>2026-03-28T14:13:49.999Z</time></trkpt><trkpt lat="44.41171525542145" lon="9.164906143743508"><ele>360.5</ele><time>2026-03-28T14:13:50.999Z</time></trkpt><trkpt lat="44.411672185314444" lon="9.16501405447394"><ele>360.3333333333333</ele><time>2026-03-28T14:13:51.999Z</time></trkpt><trkpt lat="44.411642871950185" lon="9.165120062217696"><ele>360.1666666666667</ele><time>2026-03-28T14:13:52.999Z</time></trkpt><trkpt lat="44.411625803106126" lon="9.165229185293411"><ele>360.0</ele><time>2026-03-28T14:13:53.999Z</time></trkpt><trkpt lat="44.41162749496011" lon="9.16534259606335"><ele>360.0</ele><time>2026-03-28T14:13:54.999Z</time></trkpt><trkpt lat="44.41166514910221" lon="9.165455193236307"><ele>360.0</ele><time>2026-03-28T14:13:55.999Z</time></trkpt><trkpt lat="44.41169315527271" lon="9.165548031633238"><ele>360.0</ele><time>2026-03-28T14:13:56.999Z</time></trkpt><trkpt lat="44.411698685384074" lon="9.165640047734529"><ele>360.0</ele><time>2026-03-28T14:13:57.999Z</time></trkpt><trkpt lat="44.41168537826808" lon="9.165732922085631"><ele>360.0</ele><time>2026-03-28T14:13:58.999Z</time></trkpt><trkpt lat="44.411651628536276" lon="9.16581955834675"><ele>360.0</ele><time>2026-03-28T14:13:59.999Z</time></trkpt><trkpt lat="44.411566713863145" lon="9.165858822424411"><ele>361.1666666666667</ele><time>2026-03-28T14:14:00.999Z</time></trkpt><trkpt lat="44.41147974889797" lon="9.16585300805496"><ele>362.3333333333333</ele><time>2026-03-28T14:14:01.999Z</time></trkpt><trkpt lat="44.41140394122188" lon="9.165835754830038"><ele>363.5</ele><time>2026-03-28T14:14:02.999Z</time></trkpt><trkpt lat="44.411327649915805" lon="9.165840757050896"><ele>364.66666666666663</ele><time>2026-03-28T14:14:03.999Z</time></trkpt><trkpt lat="44.41125597767824" lon="9.165854205740127"><ele>365.8333333333333</ele><time>2026-03-28T14:14:04.999Z</time></trkpt><trkpt lat="44.41118300479812" lon="9.165907209332467"><ele>367.0</ele><time>2026-03-28T14:14:05.999Z</time></trkpt><trkpt lat="44.411128354095254" lon="9.16600500579285"><ele>365.16666666666663</ele><time>2026-03-28T14:14:06.999Z</time></trkpt><trkpt lat="44.41110149564128" lon="9.1661169302835"><ele>363.3333333333333</ele><time>2026-03-28T14:14:07.999Z</time></trkpt><trkpt lat="44.411080811073674" lon="9.166217346735746"><ele>361.5</ele><time>2026-03-28T14:14:08.999Z</time></trkpt><trkpt lat="44.411071164262246" lon="9.166310358866538"><ele>359.6666666666667</ele><time>2026-03-28T14:14:09.999Z</time></trkpt><trkpt lat="44.41109053469541" lon="9.166412297122006"><ele>357.83333333333337</ele><time>2026-03-28T14:14:10.999Z</time></trkpt><trkpt lat="44.411082124818286" lon="9.166502912261057"><ele>356.0</ele><time>2026-03-28T14:14:11.999Z</time></trkpt><trkpt lat="44.41103928946948" lon="9.166639051054798"><ele>356.0</ele><time>2026-03-28T14:14:13.999Z</time></trkpt><trkpt lat="44.41097399873639" lon="9.16664758556261"><ele>356.0</ele><time>2026-03-28T14:14:14.999Z</time></trkpt><trkpt lat="44.410890291889245" lon="9.16655448419026"><ele>356.0</ele><time>2026-03-28T14:14:17Z</time></trkpt><trkpt lat="44.41088813432483" lon="9.166376326189138"><ele>356.0</ele><time>2026-03-28T14:14:19Z</time></trkpt><trkpt lat="44.41092086936163" lon="9.166271239907799"><ele>356.0</ele><time>2026-03-28T14:14:20Z</time></trkpt><trkpt lat="44.41094831260083" lon="9.166164394109822"><ele>354.33333333333337</ele><time>2026-03-28T14:14:21Z</time></trkpt><trkpt lat="44.41096511352146" lon="9.166058460506296"><ele>352.6666666666667</ele><time>2026-03-28T14:14:22Z</time></trkpt><trkpt lat="44.4109811754084" lon="9.165948665284745"><ele>351.0</ele><time>2026-03-28T14:14:23Z</time></trkpt><trkpt lat="44.41100781972093" lon="9.165845078629918"><ele>349.3333333333333</ele><time>2026-03-28T14:14:24Z</time></trkpt><trkpt lat="44.41104730543664" lon="9.1657496755531"><ele>347.66666666666663</ele><time>2026-03-28T14:14:25Z</time></trkpt><trkpt lat="44.4111002230221" lon="9.165672224547588"><ele>346.0</ele><time>2026-03-28T14:14:26Z</time></trkpt><trkpt lat="44.41115394975507" lon="9.165612258957289"><ele>345.57142857142856</ele><time>2026-03-28T14:14:27Z</time></trkpt><trkpt lat="44.41119988111446" lon="9.165545357440775"><ele>345.14285714285717</ele><time>2026-03-28T14:14:28Z</time></trkpt><trkpt lat="44.411212392370224" lon="9.16544886170279"><ele>344.7142857142857</ele><time>2026-03-28T14:14:29Z</time></trkpt><trkpt lat="44.411190624565606" lon="9.165355850626431"><ele>344.2857142857143</ele><time>2026-03-28T14:14:30Z</time></trkpt><trkpt lat="44.41114773955025" lon="9.165281225857454"><ele>343.8571428571429</ele><time>2026-03-28T14:14:31Z</time></trkpt><trkpt lat="44.41110046196048" lon="9.165210072738088"><ele>343.42857142857144</ele><time>2026-03-28T14:14:32Z</time></trkpt><trkpt lat="44.41105691012484" lon="9.165127464069647"><ele>343.0</ele><time>2026-03-28T14:14:33Z</time></trkpt><trkpt lat="44.411025170964585" lon="9.16504071850368"><ele>343.0</ele><time>2026-03-28T14:14:34Z</time></trkpt><trkpt lat="44.41102292356267" lon="9.164943312576485"><ele>343.0</ele><time>2026-03-28T14:14:35Z</time></trkpt><trkpt lat="44.41105307411588" lon="9.16483706066654"><ele>343.0</ele><time>2026-03-28T14:14:36Z</time></trkpt><trkpt lat="44.411097240882256" lon="9.164737903748746"><ele>343.0</ele><time>2026-03-28T14:14:37Z</time></trkpt><trkpt lat="44.411144649392696" lon="9.164639768834114"><ele>343.0</ele><time>2026-03-28T14:14:38Z</time></trkpt><trkpt lat="44.41120358691048" lon="9.164559943837759"><ele>343.0</ele><time>2026-03-28T14:14:39Z</time></trkpt><trkpt lat="44.41127468565022" lon="9.1645093418491"><ele>342.16666666666663</ele><time>2026-03-28T14:14:40Z</time></trkpt><trkpt lat="44.41135548990767" lon="9.164493084351548"><ele>341.3333333333333</ele><time>2026-03-28T14:14:41Z</time></trkpt><trkpt lat="44.41143735499458" lon="9.16449590200347"><ele>340.5</ele><time>2026-03-28T14:14:42Z</time></trkpt><trkpt lat="44.41152264302745" lon="9.164500006956208"><ele>339.6666666666667</ele><time>2026-03-28T14:14:43Z</time></trkpt><trkpt lat="44.4116105461195" lon="9.164493686586239"><ele>338.83333333333337</ele><time>2026-03-28T14:14:44Z</time></trkpt><trkpt lat="44.41169098150538" lon="9.164490689450721"><ele>338.0</ele><time>2026-03-28T14:14:45Z</time></trkpt><trkpt lat="44.41176216771409" lon="9.164476021141535"><ele>338.0</ele><time>2026-03-28T14:14:46Z</time></trkpt><trkpt lat="44.41183636341646" lon="9.164454236191295"><ele>338.0</ele><time>2026-03-28T14:14:47Z</time></trkpt><trkpt lat="44.41190093921484" lon="9.164414167980063"><ele>338.0</ele><time>2026-03-28T14:14:48Z</time></trkpt><trkpt lat="44.41193852534099" lon="9.164335605250397"><ele>338.0</ele><time>2026-03-28T14:14:49Z</time></trkpt><trkpt lat="44.41193849919697" lon="9.164240694061556"><ele>338.0</ele><time>2026-03-28T14:14:50Z</time></trkpt><trkpt lat="44.41188980135231" lon="9.164169898067545"><ele>338.0</ele><time>2026-03-28T14:14:51Z</time></trkpt><trkpt lat="44.411820726136156" lon="9.16415059206656"><ele>338.0</ele><time>2026-03-28T14:14:52Z</time></trkpt><trkpt lat="44.411742433602534" lon="9.164164443579628"><ele>338.0</ele><time>2026-03-28T14:14:53Z</time></trkpt><trkpt lat="44.41167312624927" lon="9.164237007804896"><ele>338.0</ele><time>2026-03-28T14:14:54Z</time></trkpt><trkpt lat="44.4116056621824" lon="9.164300231284836"><ele>338.0</ele><time>2026-03-28T14:14:55Z</time></trkpt><trkpt lat="44.411531402827805" lon="9.164329031136463"><ele>338.0</ele><time>2026-03-28T14:14:56Z</time></trkpt><trkpt lat="44.41144424228691" lon="9.164324233488864"><ele>338.0</ele><time>2026-03-28T14:14:57Z</time></trkpt><trkpt lat="44.41134611907209" lon="9.164304631970303"><ele>338.0</ele><time>2026-03-28T14:14:58Z</time></trkpt><trkpt lat="44.41125381040187" lon="9.1642730323041"><ele>336.79999999999995</ele><time>2026-03-28T14:14:59Z</time></trkpt><trkpt lat="44.41115891455898" lon="9.164244763072837"><ele>335.6</ele><time>2026-03-28T14:15:00Z</time></trkpt><trkpt lat="44.41107801744151" lon="9.16416755050865"><ele>334.4</ele><time>2026-03-28T14:15:01Z</time></trkpt><trkpt lat="44.41101318376603" lon="9.1640737060314"><ele>333.20000000000005</ele><time>2026-03-28T14:15:02Z</time></trkpt><trkpt lat="44.410945688251914" lon="9.163990357430977"><ele>332.0</ele><time>2026-03-28T14:15:03Z</time></trkpt><trkpt lat="44.41086925565296" lon="9.16393771583377"><ele>326.0</ele><time>2026-03-28T14:15:04Z</time></trkpt><trkpt lat="44.41078629157954" lon="9.163895013519081"><ele>320.0</ele><time>2026-03-28T14:15:05Z</time></trkpt><trkpt lat="44.41068644960871" lon="9.163902983445084"><ele>314.0</ele><time>2026-03-28T14:15:06Z</time></trkpt><trkpt lat="44.410581487814696" lon="9.163924941583282"><ele>308.0</ele><time>2026-03-28T14:15:07Z</time></trkpt><trkpt lat="44.41047919655031" lon="9.163949466814211"><ele>302.0</ele><time>2026-03-28T14:15:08Z</time></trkpt><trkpt lat="44.410383104441145" lon="9.163972413469018"><ele>300.2</ele><time>2026-03-28T14:15:08.999Z</time></trkpt><trkpt lat="44.41029511424128" lon="9.163998228344076"><ele>298.4</ele><time>2026-03-28T14:15:09.999Z</time></trkpt><trkpt lat="44.41021151274531" lon="9.16404581640071"><ele>296.6</ele><time>2026-03-28T14:15:10.999Z</time></trkpt><trkpt lat="44.41013988592592" lon="9.164145786500104"><ele>294.8</ele><time>2026-03-28T14:15:11.999Z</time></trkpt><trkpt lat="44.410093268183104" lon="9.164259879019024"><ele>293.0</ele><time>2026-03-28T14:15:12.999Z</time></trkpt><trkpt lat="44.41010877871517" lon="9.16440841675473"><ele>297.0</ele><time>2026-03-28T14:15:13.999Z</time></trkpt><trkpt lat="44.41011937466452" lon="9.1645367550282"><ele>301.0</ele><time>2026-03-28T14:15:14.999Z</time></trkpt><trkpt lat="44.410128680597914" lon="9.16467436356075"><ele>305.0</ele><time>2026-03-28T14:15:15.999Z</time></trkpt><trkpt lat="44.410135635183444" lon="9.164826034044365"><ele>309.0</ele><time>2026-03-28T14:15:16.999Z</time></trkpt><trkpt lat="44.41013994290131" lon="9.164971665650837"><ele>313.0</ele><time>2026-03-28T14:15:17.999Z</time></trkpt><trkpt lat="44.41014235221485" lon="9.165089507246375"><ele>313.8333333333333</ele><time>2026-03-28T14:15:18.999Z</time></trkpt><trkpt lat="44.41013974964549" lon="9.165198431166287"><ele>314.66666666666663</ele><time>2026-03-28T14:15:19.999Z</time></trkpt><trkpt lat="44.410130205368894" lon="9.16529705248953"><ele>315.5</ele><time>2026-03-28T14:15:20.999Z</time></trkpt><trkpt lat="44.41009933643297" lon="9.165387798276575"><ele>316.3333333333333</ele><time>2026-03-28T14:15:21.999Z</time></trkpt><trkpt lat="44.410043978886165" lon="9.165468996640598"><ele>317.1666666666667</ele><time>2026-03-28T14:15:22.999Z</time></trkpt><trkpt lat="44.40997025388417" lon="9.165530327489584"><ele>318.0</ele><time>2026-03-28T14:15:23.999Z</time></trkpt><trkpt lat="44.40988588574581" lon="9.165599138364193"><ele>318.0</ele><time>2026-03-28T14:15:24.999Z</time></trkpt><trkpt lat="44.40981202001484" lon="9.165694606614922"><ele>318.0</ele><time>2026-03-28T14:15:25.999Z</time></trkpt><trkpt lat="44.409724350672725" lon="9.165744075723987"><ele>318.0</ele><time>2026-03-28T14:15:26.999Z</time></trkpt><trkpt lat="44.409643054913666" lon="9.165807299115775"><ele>318.0</ele><time>2026-03-28T14:15:27.999Z</time></trkpt><trkpt lat="44.40955217510214" lon="9.165829277999558"><ele>318.0</ele><time>2026-03-28T14:15:28.999Z</time></trkpt><trkpt lat="44.40945673485323" lon="9.165834499078306"><ele>314.0</ele><time>2026-03-28T14:15:29.999Z</time></trkpt><trkpt lat="44.409368372691155" lon="9.165890431648608"><ele>310.0</ele><time>2026-03-28T14:15:30.999Z</time></trkpt><trkpt lat="44.40930222454793" lon="9.16598267685625"><ele>306.0</ele><time>2026-03-28T14:15:31.999Z</time></trkpt><trkpt lat="44.409256714631674" lon="9.166106882311109"><ele>302.0</ele><time>2026-03-28T14:15:32.999Z</time></trkpt><trkpt lat="44.40921538698204" lon="9.16623986623605"><ele>298.0</ele><time>2026-03-28T14:15:33.999Z</time></trkpt><trkpt lat="44.40917773011417" lon="9.166375208321059"><ele>298.0</ele><time>2026-03-28T14:15:34.999Z</time></trkpt><trkpt lat="44.40913877461554" lon="9.166515217887875"><ele>298.0</ele><time>2026-03-28T14:15:35.999Z</time></trkpt><trkpt lat="44.40909888164934" lon="9.16665736959573"><ele>298.0</ele><time>2026-03-28T14:15:36.999Z</time></trkpt><trkpt lat="44.409059324000786" lon="9.166800558375346"><ele>298.0</ele><time>2026-03-28T14:15:37.999Z</time></trkpt><trkpt lat="44.409024086381436" lon="9.166931997143049"><ele>298.0</ele><time>2026-03-28T14:15:38.999Z</time></trkpt><trkpt lat="44.4089918713104" lon="9.167053714404018"><ele>299.8</ele><time>2026-03-28T14:15:39.999Z</time></trkpt><trkpt lat="44.4089660741675" lon="9.16717086580682"><ele>301.6</ele><time>2026-03-28T14:15:40.999Z</time></trkpt><trkpt lat="44.408959468140004" lon="9.167291679131477"><ele>303.4</ele><time>2026-03-28T14:15:41.999Z</time></trkpt><trkpt lat="44.40899974767992" lon="9.167418235285734"><ele>305.2</ele><time>2026-03-28T14:15:42.999Z</time></trkpt><trkpt lat="44.409084698136446" lon="9.167499802386953"><ele>307.0</ele><time>2026-03-28T14:15:43.999Z</time></trkpt><trkpt lat="44.40916178779826" lon="9.167555979966423"><ele>307.0</ele><time>2026-03-28T14:15:44.999Z</time></trkpt><trkpt lat="44.40923760748595" lon="9.167599271449753"><ele>307.0</ele><time>2026-03-28T14:15:45.999Z</time></trkpt><trkpt lat="44.409294189575625" lon="9.167678703587784"><ele>307.0</ele><time>2026-03-28T14:15:46.999Z</time></trkpt><trkpt lat="44.40931595168465" lon="9.167777202659883"><ele>307.0</ele><time>2026-03-28T14:15:47.999Z</time></trkpt><trkpt lat="44.40929155064241" lon="9.167883727563199"><ele>307.0</ele><time>2026-03-28T14:15:48.999Z</time></trkpt><trkpt lat="44.4092193527108" lon="9.167933959037853"><ele>307.0</ele><time>2026-03-28T14:15:49.999Z</time></trkpt><trkpt lat="44.40914478860861" lon="9.16794185300763"><ele>307.0</ele><time>2026-03-28T14:15:50.999Z</time></trkpt><trkpt lat="44.40905146228968" lon="9.167969896786133"><ele>307.0</ele><time>2026-03-28T14:15:51.999Z</time></trkpt><trkpt lat="44.40895843065873" lon="9.167974450123754"><ele>307.0</ele><time>2026-03-28T14:15:52.999Z</time></trkpt><trkpt lat="44.40887702491349" lon="9.168057835113606"><ele>307.0</ele><time>2026-03-28T14:15:53.999Z</time></trkpt><trkpt lat="44.4088161827002" lon="9.168171229911168"><ele>307.0</ele><time>2026-03-28T14:15:54.999Z</time></trkpt><trkpt lat="44.40876070227637" lon="9.168290448757745"><ele>301.2</ele><time>2026-03-28T14:15:55.999Z</time></trkpt><trkpt lat="44.40870751501792" lon="9.168409465675808"><ele>295.4</ele><time>2026-03-28T14:15:56.999Z</time></trkpt><trkpt lat="44.40866150916253" lon="9.168526849706657"><ele>289.6</ele><time>2026-03-28T14:15:57.999Z</time></trkpt><trkpt lat="44.408623727652284" lon="9.168652364233521"><ele>283.8</ele><time>2026-03-28T14:15:58.999Z</time></trkpt><trkpt lat="44.40862084261112" lon="9.168798532463105"><ele>278.0</ele><time>2026-03-28T14:15:59.999Z</time></trkpt><trkpt lat="44.40864243768049" lon="9.16892927919518"><ele>278.5</ele><time>2026-03-28T14:16:00.999Z</time></trkpt><trkpt lat="44.40867851308554" lon="9.169048002161563"><ele>279.0</ele><time>2026-03-28T14:16:01.999Z</time></trkpt><trkpt lat="44.408701874445875" lon="9.169156423731089"><ele>279.5</ele><time>2026-03-28T14:16:02.999Z</time></trkpt><trkpt lat="44.408699352119854" lon="9.169268687964092"><ele>280.0</ele><time>2026-03-28T14:16:03.999Z</time></trkpt><trkpt lat="44.40865286617065" lon="9.169347992342857"><ele>280.5</ele><time>2026-03-28T14:16:04.999Z</time></trkpt><trkpt lat="44.40858870083722" lon="9.169417355669248"><ele>281.0</ele><time>2026-03-28T14:16:05.999Z</time></trkpt><trkpt lat="44.40852403121321" lon="9.169510300248751"><ele>281.0</ele><time>2026-03-28T14:16:06.999Z</time></trkpt><trkpt lat="44.40847347246212" lon="9.169624577366616"><ele>281.0</ele><time>2026-03-28T14:16:07.999Z</time></trkpt><trkpt lat="44.40843301629999" lon="9.169738654486434"><ele>281.0</ele><time>2026-03-28T14:16:08.999Z</time></trkpt><trkpt lat="44.40839904337754" lon="9.169850654779474"><ele>281.0</ele><time>2026-03-28T14:16:09.999Z</time></trkpt><trkpt lat="44.408377759861054" lon="9.169969578991637"><ele>281.0</ele><time>2026-03-28T14:16:10.999Z</time></trkpt><trkpt lat="44.40839707593627" lon="9.170112473652168"><ele>280.8</ele><time>2026-03-28T14:16:11.999Z</time></trkpt><trkpt lat="44.40842322979125" lon="9.170243166398425"><ele>280.6</ele><time>2026-03-28T14:16:12.999Z</time></trkpt><trkpt lat="44.408453918599214" lon="9.17037878225886"><ele>280.4</ele><time>2026-03-28T14:16:13.999Z</time></trkpt><trkpt lat="44.408486338988965" lon="9.170503460716352"><ele>280.2</ele><time>2026-03-28T14:16:14.999Z</time></trkpt><trkpt lat="44.408528765530626" lon="9.170625063652452"><ele>280.0</ele><time>2026-03-28T14:16:15.999Z</time></trkpt><trkpt lat="44.40859994968326" lon="9.17072184023799"><ele>281.5</ele><time>2026-03-28T14:16:16.999Z</time></trkpt><trkpt lat="44.40865732347124" lon="9.170795705204208"><ele>283.0</ele><time>2026-03-28T14:16:17.999Z</time></trkpt><trkpt lat="44.40869420503358" lon="9.170880324658714"><ele>284.5</ele><time>2026-03-28T14:16:18.999Z</time></trkpt><trkpt lat="44.40869272627716" lon="9.170980265358452"><ele>286.0</ele><time>2026-03-28T14:16:19.999Z</time></trkpt><trkpt lat="44.40864730386577" lon="9.171059146830077"><ele>287.5</ele><time>2026-03-28T14:16:20.999Z</time></trkpt><trkpt lat="44.40858227971981" lon="9.171106165744122"><ele>289.0</ele><time>2026-03-28T14:16:22Z</time></trkpt><trkpt lat="44.40849660687589" lon="9.17107270194111"><ele>289.0</ele><time>2026-03-28T14:16:23Z</time></trkpt><trkpt lat="44.40841735230147" lon="9.171003905085723"><ele>289.0</ele><time>2026-03-28T14:16:24Z</time></trkpt><trkpt lat="44.40832121148591" lon="9.17097861890157"><ele>289.0</ele><time>2026-03-28T14:16:25Z</time></trkpt><trkpt lat="44.40822858082724" lon="9.170938906742988"><ele>289.0</ele><time>2026-03-28T14:16:26Z</time></trkpt><trkpt lat="44.40814030231418" lon="9.170894241429096"><ele>289.0</ele><time>2026-03-28T14:16:27Z</time></trkpt><trkpt lat="44.4080533543943" lon="9.17085668376548"><ele>287.8</ele><time>2026-03-28T14:16:28Z</time></trkpt><trkpt lat="44.4079663635879" lon="9.17082085813313"><ele>286.59999999999997</ele><time>2026-03-28T14:16:29Z</time></trkpt><trkpt lat="44.40788284497272" lon="9.170780758657736"><ele>285.4</ele><time>2026-03-28T14:16:30Z</time></trkpt><trkpt lat="44.40779985778341" lon="9.17073994462229"><ele>284.2</ele><time>2026-03-28T14:16:31Z</time></trkpt><trkpt lat="44.40771066779399" lon="9.170698777283762"><ele>283.0</ele><time>2026-03-28T14:16:32Z</time></trkpt><trkpt lat="44.40761422186384" lon="9.170646984338143"><ele>277.8</ele><time>2026-03-28T14:16:33Z</time></trkpt><trkpt lat="44.40752232115609" lon="9.17056352092469"><ele>272.6</ele><time>2026-03-28T14:16:34Z</time></trkpt><trkpt lat="44.40744735520664" lon="9.170467378244448"><ele>267.4</ele><time>2026-03-28T14:16:35Z</time></trkpt><trkpt lat="44.407374787302544" lon="9.170380216760618"><ele>262.2</ele><time>2026-03-28T14:16:36Z</time></trkpt><trkpt lat="44.40728534688204" lon="9.17032010398141"><ele>257.0</ele><time>2026-03-28T14:16:37Z</time></trkpt><trkpt lat="44.40718618538648" lon="9.170296727909134"><ele>260.2</ele><time>2026-03-28T14:16:38Z</time></trkpt><trkpt lat="44.4070819000294" lon="9.170275105843658"><ele>263.4</ele><time>2026-03-28T14:16:39Z</time></trkpt><trkpt lat="44.40698017814258" lon="9.170303550717414"><ele>266.6</ele><time>2026-03-28T14:16:40Z</time></trkpt><trkpt lat="44.40689171619782" lon="9.17034168116506"><ele>269.8</ele><time>2026-03-28T14:16:41Z</time></trkpt><trkpt lat="44.40681030149033" lon="9.170297366362837"><ele>273.0</ele><time>2026-03-28T14:16:42Z</time></trkpt><trkpt lat="44.40676606953198" lon="9.170206937603748"><ele>273.0</ele><time>2026-03-28T14:16:43Z</time></trkpt><trkpt lat="44.406749501431285" lon="9.170080325941735"><ele>273.0</ele><time>2026-03-28T14:16:44Z</time></trkpt><trkpt lat="44.40676682869331" lon="9.169943200928403"><ele>273.0</ele><time>2026-03-28T14:16:45Z</time></trkpt><trkpt lat="44.40677925220601" lon="9.169802130611043"><ele>273.0</ele><time>2026-03-28T14:16:46Z</time></trkpt><trkpt lat="44.40676591275812" lon="9.169671653340002"><ele>273.0</ele><time>2026-03-28T14:16:47Z</time></trkpt><trkpt lat="44.4067214981875" lon="9.169549949897636"><ele>269.0</ele><time>2026-03-28T14:16:48Z</time></trkpt><trkpt lat="44.40664617613848" lon="9.16944592022166"><ele>265.0</ele><time>2026-03-28T14:16:49Z</time></trkpt><trkpt lat="44.40655663285935" lon="9.169380832062167"><ele>261.0</ele><time>2026-03-28T14:16:50Z</time></trkpt><trkpt lat="44.40645823729785" lon="9.16935115534381"><ele>257.0</ele><time>2026-03-28T14:16:51Z</time></trkpt><trkpt lat="44.40635145867293" lon="9.169372725765044"><ele>253.0</ele><time>2026-03-28T14:16:52Z</time></trkpt><trkpt lat="44.406240974054846" lon="9.169410734772244"><ele>250.5</ele><time>2026-03-28T14:16:53Z</time></trkpt><trkpt lat="44.4061327423031" lon="9.169479072754303"><ele>248.0</ele><time>2026-03-28T14:16:54Z</time></trkpt><trkpt lat="44.40602319310547" lon="9.169549960853136"><ele>245.5</ele><time>2026-03-28T14:16:55Z</time></trkpt><trkpt lat="44.40591363157668" lon="9.169617117502758"><ele>243.0</ele><time>2026-03-28T14:16:56Z</time></trkpt><trkpt lat="44.40580931819736" lon="9.169675877693559"><ele>243.0</ele><time>2026-03-28T14:16:57Z</time></trkpt><trkpt lat="44.405718569519294" lon="9.169761849475966"><ele>243.0</ele><time>2026-03-28T14:16:58Z</time></trkpt><trkpt lat="44.40562740387822" lon="9.169838771585493"><ele>243.0</ele><time>2026-03-28T14:16:59Z</time></trkpt><trkpt lat="44.40554444090448" lon="9.169932089063135"><ele>243.0</ele><time>2026-03-28T14:17:00Z</time></trkpt><trkpt lat="44.40545794871256" lon="9.170020130535372"><ele>243.0</ele><time>2026-03-28T14:17:01Z</time></trkpt><trkpt lat="44.40537569312595" lon="9.170103928395267"><ele>245.2</ele><time>2026-03-28T14:17:02Z</time></trkpt><trkpt lat="44.405296280311646" lon="9.170184830168116"><ele>247.4</ele><time>2026-03-28T14:17:03Z</time></trkpt><trkpt lat="44.40521621563569" lon="9.170260547831978"><ele>249.59999999999997</ele><time>2026-03-28T14:17:04Z</time></trkpt><trkpt lat="44.40514446988725" lon="9.170357128086374"><ele>251.79999999999998</ele><time>2026-03-28T14:17:05Z</time></trkpt><trkpt lat="44.40505553087232" lon="9.170416648785286"><ele>254.0</ele><time>2026-03-28T14:17:06Z</time></trkpt><trkpt lat="44.404961324123605" lon="9.17043105129452"><ele>254.0</ele><time>2026-03-28T14:17:07Z</time></trkpt><trkpt lat="44.404874424750076" lon="9.170388564574528"><ele>253.99999999999997</ele><time>2026-03-28T14:17:08Z</time></trkpt><trkpt lat="44.40479402537825" lon="9.170300095836343"><ele>253.99999999999997</ele><time>2026-03-28T14:17:09Z</time></trkpt><trkpt lat="44.40472544746091" lon="9.170176370272328"><ele>254.0</ele><time>2026-03-28T14:17:10Z</time></trkpt><trkpt lat="44.40465619005957" lon="9.170046574592497"><ele>254.0</ele><time>2026-03-28T14:17:11Z</time></trkpt><trkpt lat="44.40459364216987" lon="9.169921940336298"><ele>264.5</ele><time>2026-03-28T14:17:12Z</time></trkpt><trkpt lat="44.40454300217407" lon="9.169793003023601"><ele>275.0</ele><time>2026-03-28T14:17:13Z</time></trkpt><trkpt lat="44.40452141769159" lon="9.169639070395109"><ele>285.5</ele><time>2026-03-28T14:17:14Z</time></trkpt><trkpt lat="44.40452438177389" lon="9.169465100258359"><ele>296.0</ele><time>2026-03-28T14:17:14.999Z</time></trkpt><trkpt lat="44.40454631681291" lon="9.169289477283867"><ele>296.0</ele><time>2026-03-28T14:17:15.999Z</time></trkpt><trkpt lat="44.4045479690562" lon="9.169095644675341"><ele>296.0</ele><time>2026-03-28T14:17:16.999Z</time></trkpt><trkpt lat="44.404532698376336" lon="9.16887540266117"><ele>296.0</ele><time>2026-03-28T14:17:17.999Z</time></trkpt><trkpt lat="44.404538092545444" lon="9.168687466946341"><ele>296.0</ele><time>2026-03-28T14:17:18.999Z</time></trkpt><trkpt lat="44.4045617925412" lon="9.168501765409667"><ele>292.75</ele><time>2026-03-28T14:17:19.999Z</time></trkpt><trkpt lat="44.40458723057778" lon="9.168319768229036"><ele>289.5</ele><time>2026-03-28T14:17:20.999Z</time></trkpt><trkpt lat="44.40460727590339" lon="9.168156032636483"><ele>286.25</ele><time>2026-03-28T14:17:21.999Z</time></trkpt><trkpt lat="44.404602424584624" lon="9.168000481827145"><ele>283.0</ele><time>2026-03-28T14:17:22.999Z</time></trkpt><trkpt lat="44.40457357115306" lon="9.167844022687694"><ele>279.25</ele><time>2026-03-28T14:17:23.999Z</time></trkpt><trkpt lat="44.40451843454421" lon="9.167686176151916"><ele>275.5</ele><time>2026-03-28T14:17:24.999Z</time></trkpt><trkpt lat="44.40445543425818" lon="9.1675207335698"><ele>271.75</ele><time>2026-03-28T14:17:25.999Z</time></trkpt><trkpt lat="44.40439240715774" lon="9.167350598621605"><ele>268.0</ele><time>2026-03-28T14:17:26.999Z</time></trkpt><trkpt lat="44.40432923470155" lon="9.167179874372101"><ele>264.5</ele><time>2026-03-28T14:17:27.999Z</time></trkpt><trkpt lat="44.40428747079607" lon="9.167005181425672"><ele>261.0</ele><time>2026-03-28T14:17:28.999Z</time></trkpt><trkpt lat="44.404266896414384" lon="9.166826716727725"><ele>257.5</ele><time>2026-03-28T14:17:29.999Z</time></trkpt><trkpt lat="44.40426055462714" lon="9.166659933474735"><ele>254.0</ele><time>2026-03-28T14:17:30.999Z</time></trkpt><trkpt lat="44.40425122028614" lon="9.166494210713484"><ele>250.79999999999998</ele><time>2026-03-28T14:17:31.999Z</time></trkpt><trkpt lat="44.40422546665123" lon="9.166331549130271"><ele>247.59999999999997</ele><time>2026-03-28T14:17:32.999Z</time></trkpt><trkpt lat="44.40420505025599" lon="9.166172779690017"><ele>244.4</ele><time>2026-03-28T14:17:33.999Z</time></trkpt><trkpt lat="44.40418592239572" lon="9.166022619543115"><ele>241.2</ele><time>2026-03-28T14:17:34.999Z</time></trkpt><trkpt lat="44.40416927001926" lon="9.165880584224016"><ele>238.0</ele><time>2026-03-28T14:17:35.999Z</time></trkpt><trkpt lat="44.404152774501384" lon="9.165751472932541"><ele>232.2</ele><time>2026-03-28T14:17:36.999Z</time></trkpt><trkpt lat="44.40413336839062" lon="9.165625912782037"><ele>226.4</ele><time>2026-03-28T14:17:37.999Z</time></trkpt><trkpt lat="44.40409538487138" lon="9.165504942792206"><ele>220.6</ele><time>2026-03-28T14:17:38.999Z</time></trkpt><trkpt lat="44.40402874543902" lon="9.165400817863738"><ele>214.79999999999998</ele><time>2026-03-28T14:17:39.999Z</time></trkpt><trkpt lat="44.40394660517284" lon="9.16531440219308"><ele>209.0</ele><time>2026-03-28T14:17:40.999Z</time></trkpt><trkpt lat="44.40386220007429" lon="9.165245447268394"><ele>214.6</ele><time>2026-03-28T14:17:41.999Z</time></trkpt><trkpt lat="44.40377828774936" lon="9.16516746897786"><ele>220.2</ele><time>2026-03-28T14:17:42.999Z</time></trkpt><trkpt lat="44.40368454866203" lon="9.16509041285519"><ele>225.79999999999998</ele><time>2026-03-28T14:17:43.999Z</time></trkpt><trkpt lat="44.40359044884412" lon="9.16502752335703"><ele>231.39999999999998</ele><time>2026-03-28T14:17:44.999Z</time></trkpt><trkpt lat="44.40350673335609" lon="9.164971909459844"><ele>237.0</ele><time>2026-03-28T14:17:45.999Z</time></trkpt><trkpt lat="44.40342335389932" lon="9.164936038984644"><ele>237.0</ele><time>2026-03-28T14:17:46.999Z</time></trkpt><trkpt lat="44.4033296129152" lon="9.16490957625758"><ele>237.0</ele><time>2026-03-28T14:17:47.999Z</time></trkpt><trkpt lat="44.40322849869086" lon="9.164942823761445"><ele>237.0</ele><time>2026-03-28T14:17:48.999Z</time></trkpt><trkpt lat="44.40312949273932" lon="9.16496153589093"><ele>237.0</ele><time>2026-03-28T14:17:49.999Z</time></trkpt><trkpt lat="44.40302718096794" lon="9.16497148064704"><ele>237.0</ele><time>2026-03-28T14:17:50.999Z</time></trkpt><trkpt lat="44.40293394754877" lon="9.164989637711555"><ele>234.6</ele><time>2026-03-28T14:17:51.999Z</time></trkpt><trkpt lat="44.402842399798736" lon="9.164974276348755"><ele>232.2</ele><time>2026-03-28T14:17:52.999Z</time></trkpt><trkpt lat="44.402739966223535" lon="9.165007529591351"><ele>229.8</ele><time>2026-03-28T14:17:53.999Z</time></trkpt><trkpt lat="44.40263591992266" lon="9.165059255912801"><ele>227.4</ele><time>2026-03-28T14:17:54.999Z</time></trkpt><trkpt lat="44.402508502111885" lon="9.165123757664624"><ele>225.0</ele><time>2026-03-28T14:17:55.999Z</time></trkpt><trkpt lat="44.40238099233454" lon="9.165194149230878"><ele>225.0</ele><time>2026-03-28T14:17:56.999Z</time></trkpt><trkpt lat="44.40227266810243" lon="9.165275190196288"><ele>225.0</ele><time>2026-03-28T14:17:57.999Z</time></trkpt><trkpt lat="44.40218122739248" lon="9.16535110203415"><ele>225.0</ele><time>2026-03-28T14:17:58.999Z</time></trkpt><trkpt lat="44.40209532832902" lon="9.165424792941813"><ele>225.0</ele><time>2026-03-28T14:17:59.999Z</time></trkpt><trkpt lat="44.40201352346383" lon="9.165488175575312"><ele>225.0</ele><time>2026-03-28T14:18:00.999Z</time></trkpt><trkpt lat="44.401937802295144" lon="9.165538427415507"><ele>221.83333333333334</ele><time>2026-03-28T14:18:01.999Z</time></trkpt><trkpt lat="44.40184696400493" lon="9.16554069688192"><ele>218.66666666666669</ele><time>2026-03-28T14:18:02.999Z</time></trkpt><trkpt lat="44.401769846994505" lon="9.16553564019038"><ele>215.5</ele><time>2026-03-28T14:18:03.999Z</time></trkpt><trkpt lat="44.40170707974858" lon="9.165527658170733"><ele>212.33333333333334</ele><time>2026-03-28T14:18:04.999Z</time></trkpt><trkpt lat="44.401640969878564" lon="9.165517905214223"><ele>209.16666666666669</ele><time>2026-03-28T14:18:05.999Z</time></trkpt><trkpt lat="44.40157447674292" lon="9.165590341452983"><ele>206.0</ele><time>2026-03-28T14:18:06.999Z</time></trkpt><trkpt lat="44.4015205029103" lon="9.16568933502151"><ele>206.66666666666669</ele><time>2026-03-28T14:18:07.999Z</time></trkpt><trkpt lat="44.40148194634009" lon="9.165815640027327"><ele>207.33333333333334</ele><time>2026-03-28T14:18:08.999Z</time></trkpt><trkpt lat="44.40144291023061" lon="9.16593219796605"><ele>208.0</ele><time>2026-03-28T14:18:09.999Z</time></trkpt><trkpt lat="44.40140259335048" lon="9.166026402472147"><ele>208.66666666666669</ele><time>2026-03-28T14:18:10.999Z</time></trkpt><trkpt lat="44.401351511877195" lon="9.166093644732427"><ele>209.33333333333334</ele><time>2026-03-28T14:18:11.999Z</time></trkpt><trkpt lat="44.40128428000606" lon="9.166150900361107"><ele>210.0</ele><time>2026-03-28T14:18:12.999Z</time></trkpt><trkpt lat="44.40120716026075" lon="9.166184342727021"><ele>210.0</ele><time>2026-03-28T14:18:13.999Z</time></trkpt><trkpt lat="44.40111927481381" lon="9.166191938984893"><ele>210.0</ele><time>2026-03-28T14:18:14.999Z</time></trkpt><trkpt lat="44.401023495981796" lon="9.166233823066914"><ele>210.0</ele><time>2026-03-28T14:18:15.999Z</time></trkpt><trkpt lat="44.40094330495499" lon="9.166297212359016"><ele>210.0</ele><time>2026-03-28T14:18:16.999Z</time></trkpt><trkpt lat="44.400873172476736" lon="9.166360528296163"><ele>210.0</ele><time>2026-03-28T14:18:17.999Z</time></trkpt><trkpt lat="44.40080816654243" lon="9.166420137961312"><ele>210.0</ele><time>2026-03-28T14:18:18.999Z</time></trkpt><trkpt lat="44.400733103726125" lon="9.166481828628225"><ele>210.0</ele><time>2026-03-28T14:18:19.999Z</time></trkpt><trkpt lat="44.40063374689997" lon="9.166467315495666"><ele>210.0</ele><time>2026-03-28T14:18:20.999Z</time></trkpt><trkpt lat="44.40052516813844" lon="9.166486328514917"><ele>210.0</ele><time>2026-03-28T14:18:21.999Z</time></trkpt><trkpt lat="44.40042236280492" lon="9.16648222670336"><ele>210.0</ele><time>2026-03-28T14:18:22.999Z</time></trkpt><trkpt lat="44.4003282743909" lon="9.166484419610029"><ele>210.0</ele><time>2026-03-28T14:18:23.999Z</time></trkpt><trkpt lat="44.40023840677125" lon="9.166467532905635"><ele>210.8</ele><time>2026-03-28T14:18:24.999Z</time></trkpt><trkpt lat="44.400149572739664" lon="9.166487941960488"><ele>211.6</ele><time>2026-03-28T14:18:25.999Z</time></trkpt><trkpt lat="44.4000684793204" lon="9.166544458097793"><ele>212.39999999999998</ele><time>2026-03-28T14:18:26.999Z</time></trkpt><trkpt lat="44.400006600989556" lon="9.166653003604655"><ele>213.2</ele><time>2026-03-28T14:18:28Z</time></trkpt><trkpt lat="44.39995408797388" lon="9.166771250217796"><ele>214.0</ele><time>2026-03-28T14:18:29Z</time></trkpt><trkpt lat="44.39990204033607" lon="9.166889904356498"><ele>214.0</ele><time>2026-03-28T14:18:30Z</time></trkpt><trkpt lat="44.39984805437148" lon="9.167008673316625"><ele>213.99999999999997</ele><time>2026-03-28T14:18:31Z</time></trkpt><trkpt lat="44.39979510207221" lon="9.167135243936903"><ele>213.99999999999997</ele><time>2026-03-28T14:18:32Z</time></trkpt><trkpt lat="44.39975437844874" lon="9.16727990728017"><ele>214.0</ele><time>2026-03-28T14:18:33Z</time></trkpt><trkpt lat="44.39972685186561" lon="9.167418660944687"><ele>214.0</ele><time>2026-03-28T14:18:34Z</time></trkpt><trkpt lat="44.39970023630331" lon="9.16756055687987"><ele>211.2</ele><time>2026-03-28T14:18:35Z</time></trkpt><trkpt lat="44.3996765489701" lon="9.167709250990136"><ele>208.39999999999998</ele><time>2026-03-28T14:18:36Z</time></trkpt><trkpt lat="44.39966663613208" lon="9.167861305452142"><ele>205.6</ele><time>2026-03-28T14:18:37Z</time></trkpt><trkpt lat="44.39966167226057" lon="9.167999120572372"><ele>202.8</ele><time>2026-03-28T14:18:38Z</time></trkpt><trkpt lat="44.3996578620695" lon="9.168136534882443"><ele>200.0</ele><time>2026-03-28T14:18:39Z</time></trkpt><trkpt lat="44.39965465826866" lon="9.168279671867532"><ele>200.0</ele><time>2026-03-28T14:18:40Z</time></trkpt><trkpt lat="44.39965259209009" lon="9.168417507622097"><ele>200.0</ele><time>2026-03-28T14:18:41Z</time></trkpt><trkpt lat="44.39964694721001" lon="9.168538384139767"><ele>200.0</ele><time>2026-03-28T14:18:42Z</time></trkpt><trkpt lat="44.39963130650312" lon="9.16863134741114"><ele>200.0</ele><time>2026-03-28T14:18:43Z</time></trkpt><trkpt lat="44.399672145490875" lon="9.168770455932478"><ele>200.0</ele><time>2026-03-28T14:18:44Z</time></trkpt><trkpt lat="44.399572707632935" lon="9.168847613697201"><ele>200.00000000000003</ele><time>2026-03-28T14:18:45Z</time></trkpt><trkpt lat="44.39951258215996" lon="9.168931685572845"><ele>200.0</ele><time>2026-03-28T14:18:46Z</time></trkpt><trkpt lat="44.39945185417409" lon="9.169014197327487"><ele>200.0</ele><time>2026-03-28T14:18:47Z</time></trkpt><trkpt lat="44.39938179016495" lon="9.169095079912447"><ele>200.0</ele><time>2026-03-28T14:18:48Z</time></trkpt><trkpt lat="44.39928589982872" lon="9.169118253987136"><ele>200.00000000000003</ele><time>2026-03-28T14:18:49Z</time></trkpt><trkpt lat="44.39921164032099" lon="9.169164449120084"><ele>200.0</ele><time>2026-03-28T14:18:50Z</time></trkpt><trkpt lat="44.39913458318616" lon="9.169207059865023"><ele>202.50000000000003</ele><time>2026-03-28T14:18:51Z</time></trkpt><trkpt lat="44.39905944810057" lon="9.169245797144928"><ele>205.0</ele><time>2026-03-28T14:18:52Z</time></trkpt><trkpt lat="44.39899107681416" lon="9.169282339496206"><ele>207.5</ele><time>2026-03-28T14:18:53Z</time></trkpt><trkpt lat="44.398928537779504" lon="9.169329279484838"><ele>210.0</ele><time>2026-03-28T14:18:54Z</time></trkpt><trkpt lat="44.398875212411944" lon="9.16940561190614"><ele>212.50000000000003</ele><time>2026-03-28T14:18:55Z</time></trkpt><trkpt lat="44.398857304179536" lon="9.169537234970353"><ele>215.0</ele><time>2026-03-28T14:18:56Z</time></trkpt><trkpt lat="44.398853621745296" lon="9.169674886565703"><ele>215.0</ele><time>2026-03-28T14:18:57Z</time></trkpt><trkpt lat="44.398852551885106" lon="9.169820228043013"><ele>215.0</ele><time>2026-03-28T14:18:58Z</time></trkpt><trkpt lat="44.3988536548825" lon="9.169975101570083"><ele>215.0</ele><time>2026-03-28T14:18:59Z</time></trkpt><trkpt lat="44.398856068172044" lon="9.170110563433807"><ele>215.0</ele><time>2026-03-28T14:19:00Z</time></trkpt><trkpt lat="44.39886290974115" lon="9.170247785062754"><ele>215.0</ele><time>2026-03-28T14:19:01Z</time></trkpt><trkpt lat="44.3988854664231" lon="9.170377016399556"><ele>216.4</ele><time>2026-03-28T14:19:02Z</time></trkpt><trkpt lat="44.398915650979625" lon="9.170493597125155"><ele>217.8</ele><time>2026-03-28T14:19:03Z</time></trkpt><trkpt lat="44.39894354311349" lon="9.1706088892473"><ele>219.2</ele><time>2026-03-28T14:19:04Z</time></trkpt><trkpt lat="44.39896656189526" lon="9.170723038620265"><ele>220.6</ele><time>2026-03-28T14:19:05Z</time></trkpt><trkpt lat="44.39896702775343" lon="9.17083073846916"><ele>222.0</ele><time>2026-03-28T14:19:06Z</time></trkpt><trkpt lat="44.398880805901804" lon="9.170941524359362"><ele>215.0</ele><time>2026-03-28T14:19:08Z</time></trkpt><trkpt lat="44.398816487517315" lon="9.170987856632024"><ele>208.0</ele><time>2026-03-28T14:19:09Z</time></trkpt><trkpt lat="44.39874111240383" lon="9.171046237156556"><ele>201.0</ele><time>2026-03-28T14:19:10Z</time></trkpt><trkpt lat="44.39865856169662" lon="9.171124698271298"><ele>194.0</ele><time>2026-03-28T14:19:11Z</time></trkpt><trkpt lat="44.398582885805126" lon="9.171222282822086"><ele>187.0</ele><time>2026-03-28T14:19:12Z</time></trkpt><trkpt lat="44.398519169117534" lon="9.171343410218018"><ele>187.0</ele><time>2026-03-28T14:19:13Z</time></trkpt><trkpt lat="44.39846847292768" lon="9.171468881235091"><ele>187.0</ele><time>2026-03-28T14:19:14Z</time></trkpt><trkpt lat="44.39841774057391" lon="9.171601778162676"><ele>187.0</ele><time>2026-03-28T14:19:15Z</time></trkpt><trkpt lat="44.398371279719456" lon="9.171736129688446"><ele>187.0</ele><time>2026-03-28T14:19:16Z</time></trkpt><trkpt lat="44.39833206298888" lon="9.171867532516872"><ele>187.0</ele><time>2026-03-28T14:19:17Z</time></trkpt><trkpt lat="44.39830890945793" lon="9.172017694179688"><ele>188.6</ele><time>2026-03-28T14:19:18Z</time></trkpt><trkpt lat="44.39830484409726" lon="9.172160643979803"><ele>190.2</ele><time>2026-03-28T14:19:19Z</time></trkpt><trkpt lat="44.398298823889164" lon="9.172298416444518"><ele>191.8</ele><time>2026-03-28T14:19:20Z</time></trkpt><trkpt lat="44.39829349930942" lon="9.172426093876593"><ele>193.4</ele><time>2026-03-28T14:19:21Z</time></trkpt><trkpt lat="44.398277095742905" lon="9.172550171875747"><ele>195.0</ele><time>2026-03-28T14:19:22Z</time></trkpt><trkpt lat="44.39823174551413" lon="9.172659771031297"><ele>196.0</ele><time>2026-03-28T14:19:23Z</time></trkpt><trkpt lat="44.39817396161995" lon="9.172774767775334"><ele>197.0</ele><time>2026-03-28T14:19:24Z</time></trkpt><trkpt lat="44.398122751681086" lon="9.172887881673782"><ele>198.0</ele><time>2026-03-28T14:19:25Z</time></trkpt><trkpt lat="44.398086264042654" lon="9.173014286498443"><ele>199.0</ele><time>2026-03-28T14:19:26Z</time></trkpt><trkpt lat="44.39808014757841" lon="9.173160780350512"><ele>200.0</ele><time>2026-03-28T14:19:26.999Z</time></trkpt><trkpt lat="44.3981044074429" lon="9.173318505085136"><ele>200.2</ele><time>2026-03-28T14:19:27.999Z</time></trkpt><trkpt lat="44.398136354766656" lon="9.173451833547277"><ele>200.4</ele><time>2026-03-28T14:19:28.999Z</time></trkpt><trkpt lat="44.398155439423896" lon="9.173573662786591"><ele>200.60000000000002</ele><time>2026-03-28T14:19:29.999Z</time></trkpt><trkpt lat="44.39816305901754" lon="9.173699444112131"><ele>200.8</ele><time>2026-03-28T14:19:30.999Z</time></trkpt><trkpt lat="44.39815801148782" lon="9.173825058603121"><ele>201.0</ele><time>2026-03-28T14:19:31.999Z</time></trkpt><trkpt lat="44.3981493432405" lon="9.173951229080526"><ele>202.16666666666666</ele><time>2026-03-28T14:19:32.999Z</time></trkpt><trkpt lat="44.39813853020362" lon="9.174071138691286"><ele>203.33333333333331</ele><time>2026-03-28T14:19:33.999Z</time></trkpt><trkpt lat="44.39812173775687" lon="9.17418929819217"><ele>204.5</ele><time>2026-03-28T14:19:34.999Z</time></trkpt><trkpt lat="44.398094651843415" lon="9.174315151845354"><ele>205.66666666666666</ele><time>2026-03-28T14:19:35.999Z</time></trkpt><trkpt lat="44.39804987759357" lon="9.174419941960927"><ele>206.83333333333331</ele><time>2026-03-28T14:19:36.999Z</time></trkpt><trkpt lat="44.39799787643511" lon="9.174515502778975"><ele>208.0</ele><time>2026-03-28T14:19:37.999Z</time></trkpt><trkpt lat="44.39792505694006" lon="9.174590377134855"><ele>204.2</ele><time>2026-03-28T14:19:38.999Z</time></trkpt><trkpt lat="44.39783075976333" lon="9.174634073367283"><ele>200.4</ele><time>2026-03-28T14:19:39.999Z</time></trkpt><trkpt lat="44.397728131533825" lon="9.17467044226402"><ele>196.6</ele><time>2026-03-28T14:19:40.999Z</time></trkpt><trkpt lat="44.39763223848129" lon="9.174713285660943"><ele>192.79999999999998</ele><time>2026-03-28T14:19:41.999Z</time></trkpt><trkpt lat="44.397542578075914" lon="9.174796466313232"><ele>189.0</ele><time>2026-03-28T14:19:42.999Z</time></trkpt><trkpt lat="44.39746853351532" lon="9.174904273932057"><ele>189.0</ele><time>2026-03-28T14:19:43.999Z</time></trkpt><trkpt lat="44.397407557170425" lon="9.175005568318102"><ele>189.0</ele><time>2026-03-28T14:19:44.999Z</time></trkpt><trkpt lat="44.39734129445622" lon="9.1750939846411"><ele>189.0</ele><time>2026-03-28T14:19:45.999Z</time></trkpt><trkpt lat="44.39726179775104" lon="9.175152469269038"><ele>189.0</ele><time>2026-03-28T14:19:46.999Z</time></trkpt><trkpt lat="44.39717969899271" lon="9.17519038236452"><ele>189.0</ele><time>2026-03-28T14:19:47.999Z</time></trkpt><trkpt lat="44.39708476506082" lon="9.17516154733723"><ele>193.2</ele><time>2026-03-28T14:19:48.999Z</time></trkpt><trkpt lat="44.39700087620049" lon="9.175103146561018"><ele>197.39999999999998</ele><time>2026-03-28T14:19:49.999Z</time></trkpt><trkpt lat="44.396931041009324" lon="9.175012368500717"><ele>201.6</ele><time>2026-03-28T14:19:50.999Z</time></trkpt><trkpt lat="44.39688929005546" lon="9.174888310733648"><ele>205.8</ele><time>2026-03-28T14:19:51.999Z</time></trkpt><trkpt lat="44.39686604431464" lon="9.174740182814244"><ele>210.0</ele><time>2026-03-28T14:19:52.999Z</time></trkpt><trkpt lat="44.39686031471014" lon="9.17456423095283"><ele>210.0</ele><time>2026-03-28T14:19:53.999Z</time></trkpt><trkpt lat="44.3968589618556" lon="9.174363083561165"><ele>210.0</ele><time>2026-03-28T14:19:54.999Z</time></trkpt><trkpt lat="44.39687164066406" lon="9.174133142143784"><ele>210.0</ele><time>2026-03-28T14:19:55.999Z</time></trkpt><trkpt lat="44.39689089206507" lon="9.17389864786193"><ele>207.0</ele><time>2026-03-28T14:19:56.999Z</time></trkpt><trkpt lat="44.396922229466085" lon="9.17368422870069"><ele>204.0</ele><time>2026-03-28T14:19:57.999Z</time></trkpt><trkpt lat="44.396966387355064" lon="9.173482097051238"><ele>201.0</ele><time>2026-03-28T14:19:58.999Z</time></trkpt><trkpt lat="44.397007317974726" lon="9.173287413749035"><ele>200.25</ele><time>2026-03-28T14:19:59.999Z</time></trkpt><trkpt lat="44.3970245921646" lon="9.173101603724966"><ele>199.5</ele><time>2026-03-28T14:20:00.999Z</time></trkpt><trkpt lat="44.397004521650175" lon="9.17291806766523"><ele>198.75</ele><time>2026-03-28T14:20:01.999Z</time></trkpt><trkpt lat="44.39696117821807" lon="9.172725623092177"><ele>198.0</ele><time>2026-03-28T14:20:02.999Z</time></trkpt><trkpt lat="44.3969224026968" lon="9.17252737750962"><ele>195.5</ele><time>2026-03-28T14:20:03.999Z</time></trkpt><trkpt lat="44.39688982870644" lon="9.172321012029634"><ele>193.0</ele><time>2026-03-28T14:20:04.999Z</time></trkpt><trkpt lat="44.396855100352695" lon="9.172120297926174"><ele>190.5</ele><time>2026-03-28T14:20:05.999Z</time></trkpt><trkpt lat="44.396824536916974" lon="9.171916085341469"><ele>188.0</ele><time>2026-03-28T14:20:06.999Z</time></trkpt><trkpt lat="44.39680169479711" lon="9.171711205992013"><ele>181.0</ele><time>2026-03-28T14:20:07.999Z</time></trkpt><trkpt lat="44.39678012506852" lon="9.17150858042373"><ele>174.0</ele><time>2026-03-28T14:20:08.999Z</time></trkpt><trkpt lat="44.39675584052589" lon="9.171300094557266"><ele>167.0</ele><time>2026-03-28T14:20:09.999Z</time></trkpt><trkpt lat="44.39672057484671" lon="9.171085847589225"><ele>167.0</ele><time>2026-03-28T14:20:10.999Z</time></trkpt><trkpt lat="44.39666992051336" lon="9.170866514464093"><ele>167.0</ele><time>2026-03-28T14:20:11.999Z</time></trkpt><trkpt lat="44.39661826203419" lon="9.170643149495794"><ele>167.0</ele><time>2026-03-28T14:20:12.999Z</time></trkpt><trkpt lat="44.39656916617231" lon="9.170431793544186"><ele>162.0</ele><time>2026-03-28T14:20:13.999Z</time></trkpt><trkpt lat="44.39652630175562" lon="9.170230549348641"><ele>157.0</ele><time>2026-03-28T14:20:14.999Z</time></trkpt><trkpt lat="44.396485177372604" lon="9.170031500635655"><ele>152.0</ele><time>2026-03-28T14:20:15.999Z</time></trkpt><trkpt lat="44.39644188421005" lon="9.169839898094688"><ele>147.0</ele><time>2026-03-28T14:20:16.999Z</time></trkpt><trkpt lat="44.39638702157123" lon="9.169662400835179"><ele>147.75</ele><time>2026-03-28T14:20:17.999Z</time></trkpt><trkpt lat="44.39631909488731" lon="9.169492290963744"><ele>148.5</ele><time>2026-03-28T14:20:18.999Z</time></trkpt><trkpt lat="44.39622272571221" lon="9.169344813013833"><ele>149.25</ele><time>2026-03-28T14:20:19.999Z</time></trkpt><trkpt lat="44.39610345124724" lon="9.169238189320183"><ele>150.0</ele><time>2026-03-28T14:20:20.999Z</time></trkpt><trkpt lat="44.395968727225316" lon="9.169155054906074"><ele>150.0</ele><time>2026-03-28T14:20:21.999Z</time></trkpt><trkpt lat="44.39583656236086" lon="9.169079658540483"><ele>150.0</ele><time>2026-03-28T14:20:22.999Z</time></trkpt><trkpt lat="44.39570464741097" lon="9.169040725132925"><ele>150.0</ele><time>2026-03-28T14:20:23.999Z</time></trkpt><trkpt lat="44.395576758950114" lon="9.169041353223001"><ele>150.0</ele><time>2026-03-28T14:20:24.999Z</time></trkpt><trkpt lat="44.39545752264892" lon="9.169111982561533"><ele>149.25</ele><time>2026-03-28T14:20:25.999Z</time></trkpt><trkpt lat="44.39533836787804" lon="9.169181610745538"><ele>148.5</ele><time>2026-03-28T14:20:26.999Z</time></trkpt><trkpt lat="44.39522562948736" lon="9.169249830544391"><ele>147.75</ele><time>2026-03-28T14:20:27.999Z</time></trkpt><trkpt lat="44.395077302621665" lon="9.169241032478308"><ele>147.0</ele><time>2026-03-28T14:20:28.999Z</time></trkpt><trkpt lat="44.39491568436301" lon="9.1692094988974"><ele>147.0</ele><time>2026-03-28T14:20:29.999Z</time></trkpt><trkpt lat="44.3947490015613" lon="9.169192848327068"><ele>147.0</ele><time>2026-03-28T14:20:30.999Z</time></trkpt><trkpt lat="44.394575554740705" lon="9.169179604456241"><ele>147.0</ele><time>2026-03-28T14:20:31.999Z</time></trkpt><trkpt lat="44.394400260759326" lon="9.169152228892361"><ele>146.33333333333334</ele><time>2026-03-28T14:20:32.999Z</time></trkpt><trkpt lat="44.39423272678062" lon="9.169103552953212"><ele>145.66666666666669</ele><time>2026-03-28T14:20:34Z</time></trkpt><trkpt lat="44.39407712132911" lon="9.16905226890268"><ele>145.0</ele><time>2026-03-28T14:20:35Z</time></trkpt><trkpt lat="44.39392998663284" lon="9.169015760151993"><ele>146.25</ele><time>2026-03-28T14:20:36Z</time></trkpt><trkpt lat="44.39379141722027" lon="9.1689910754828"><ele>147.5</ele><time>2026-03-28T14:20:37Z</time></trkpt><trkpt lat="44.39365521041914" lon="9.168989565147466"><ele>148.75</ele><time>2026-03-28T14:20:38Z</time></trkpt><trkpt lat="44.39351920200213" lon="9.168987889135126"><ele>150.0</ele><time>2026-03-28T14:20:39Z</time></trkpt><trkpt lat="44.39338789954375" lon="9.169037386307746"><ele>150.0</ele><time>2026-03-28T14:20:40Z</time></trkpt><trkpt lat="44.393262728068855" lon="9.16902827992486"><ele>150.0</ele><time>2026-03-28T14:20:41Z</time></trkpt><trkpt lat="44.39315871236584" lon="9.168976069938774"><ele>150.0</ele><time>2026-03-28T14:20:42Z</time></trkpt><trkpt lat="44.39309173529612" lon="9.168884643930566"><ele>150.0</ele><time>2026-03-28T14:20:43Z</time></trkpt><trkpt lat="44.3930654547183" lon="9.168768697153597"><ele>150.0</ele><time>2026-03-28T14:20:44Z</time></trkpt><trkpt lat="44.39306575106665" lon="9.168626019493518"><ele>144.5</ele><time>2026-03-28T14:20:45Z</time></trkpt><trkpt lat="44.393093989372026" lon="9.168463170412936"><ele>139.0</ele><time>2026-03-28T14:20:46Z</time></trkpt><trkpt lat="44.39311485537905" lon="9.16828459442461"><ele>133.5</ele><time>2026-03-28T14:20:47Z</time></trkpt><trkpt lat="44.3931329022695" lon="9.16809674131908"><ele>128.0</ele><time>2026-03-28T14:20:48Z</time></trkpt><trkpt lat="44.39314924089167" lon="9.16790697583192"><ele>125.0</ele><time>2026-03-28T14:20:49Z</time></trkpt><trkpt lat="44.3931669807969" lon="9.167742107046095"><ele>122.00000000000001</ele><time>2026-03-28T14:20:50Z</time></trkpt><trkpt lat="44.39317277480933" lon="9.167598974664138"><ele>119.00000000000001</ele><time>2026-03-28T14:20:51Z</time></trkpt><trkpt lat="44.39314786549055" lon="9.167461687803957"><ele>116.0</ele><time>2026-03-28T14:20:52Z</time></trkpt><trkpt lat="44.393078631615225" lon="9.16734066783067"><ele>113.0</ele><time>2026-03-28T14:20:53Z</time></trkpt><trkpt lat="44.392983941098" lon="9.16725234852471"><ele>110.5</ele><time>2026-03-28T14:20:54Z</time></trkpt><trkpt lat="44.39285943805095" lon="9.167211915430254"><ele>108.0</ele><time>2026-03-28T14:20:55Z</time></trkpt><trkpt lat="44.39271560375945" lon="9.167200647107391"><ele>105.5</ele><time>2026-03-28T14:20:56Z</time></trkpt><trkpt lat="44.392567081656104" lon="9.167174578609654"><ele>103.0</ele><time>2026-03-28T14:20:57Z</time></trkpt><trkpt lat="44.392424637768904" lon="9.167148860032704"><ele>103.0</ele><time>2026-03-28T14:20:58Z</time></trkpt><trkpt lat="44.392296539135764" lon="9.167104962991235"><ele>103.0</ele><time>2026-03-28T14:20:59Z</time></trkpt><trkpt lat="44.39217393695648" lon="9.167027873575472"><ele>103.0</ele><time>2026-03-28T14:21:00Z</time></trkpt><trkpt lat="44.39205979427255" lon="9.166910571269431"><ele>103.0</ele><time>2026-03-28T14:21:01Z</time></trkpt><trkpt lat="44.391948146147186" lon="9.166782151258317"><ele>103.0</ele><time>2026-03-28T14:21:02Z</time></trkpt><trkpt lat="44.3918432916277" lon="9.166646635158843"><ele>103.0</ele><time>2026-03-28T14:21:03Z</time></trkpt><trkpt lat="44.39175407110292" lon="9.166492509019152"><ele>103.0</ele><time>2026-03-28T14:21:04Z</time></trkpt><trkpt lat="44.39167951460645" lon="9.16634147940308"><ele>103.0</ele><time>2026-03-28T14:21:05Z</time></trkpt><trkpt lat="44.391608471447235" lon="9.16619831604799"><ele>103.0</ele><time>2026-03-28T14:21:06Z</time></trkpt><trkpt lat="44.39153716250652" lon="9.166064149155105"><ele>103.0</ele><time>2026-03-28T14:21:07Z</time></trkpt><trkpt lat="44.39146948122072" lon="9.16593747978867"><ele>103.0</ele><time>2026-03-28T14:21:08Z</time></trkpt><trkpt lat="44.39140351246611" lon="9.165821562581188"><ele>103.0</ele><time>2026-03-28T14:21:09Z</time></trkpt><trkpt lat="44.391338143546406" lon="9.165713704310475"><ele>103.0</ele><time>2026-03-28T14:21:10Z</time></trkpt><trkpt lat="44.3912648871044" lon="9.165626702566799"><ele>99.2</ele><time>2026-03-28T14:21:11Z</time></trkpt><trkpt lat="44.391192116375635" lon="9.165562499246"><ele>95.4</ele><time>2026-03-28T14:21:12Z</time></trkpt><trkpt lat="44.391079786206674" lon="9.16560755218482"><ele>91.60000000000001</ele><time>2026-03-28T14:21:13Z</time></trkpt><trkpt lat="44.3909721063297" lon="9.165626111085512"><ele>87.80000000000001</ele><time>2026-03-28T14:21:14Z</time></trkpt><trkpt lat="44.39086028068263" lon="9.16564572097214"><ele>84.0</ele><time>2026-03-28T14:21:15Z</time></trkpt><trkpt lat="44.39074421553733" lon="9.165661972474863"><ele>84.0</ele><time>2026-03-28T14:21:16Z</time></trkpt><trkpt lat="44.3906387936493" lon="9.16567504157888"><ele>84.0</ele><time>2026-03-28T14:21:17Z</time></trkpt><trkpt lat="44.39053770962955" lon="9.165656559629719"><ele>84.0</ele><time>2026-03-28T14:21:18Z</time></trkpt><trkpt lat="44.39043827731933" lon="9.165597241712174"><ele>84.0</ele><time>2026-03-28T14:21:19Z</time></trkpt><trkpt lat="44.39033642790866" lon="9.165519754375117"><ele>84.0</ele><time>2026-03-28T14:21:20Z</time></trkpt><trkpt lat="44.39023468903881" lon="9.165438972535759"><ele>87.0</ele><time>2026-03-28T14:21:21Z</time></trkpt><trkpt lat="44.390135839155256" lon="9.165362662070219"><ele>90.0</ele><time>2026-03-28T14:21:22Z</time></trkpt><trkpt lat="44.39004557285739" lon="9.16528845608527"><ele>93.0</ele><time>2026-03-28T14:21:23Z</time></trkpt><trkpt lat="44.38995475281368" lon="9.165227823474536"><ele>96.0</ele><time>2026-03-28T14:21:24Z</time></trkpt><trkpt lat="44.389864631371836" lon="9.165151501051074"><ele>99.0</ele><time>2026-03-28T14:21:25Z</time></trkpt><trkpt lat="44.38977598581985" lon="9.165053275688763"><ele>99.0</ele><time>2026-03-28T14:21:26Z</time></trkpt><trkpt lat="44.3896979677982" lon="9.164931634316162"><ele>99.0</ele><time>2026-03-28T14:21:27Z</time></trkpt><trkpt lat="44.389635452500784" lon="9.164812007441146"><ele>99.0</ele><time>2026-03-28T14:21:27.999Z</time></trkpt><trkpt lat="44.38956972000511" lon="9.164685606078748"><ele>99.0</ele><time>2026-03-28T14:21:28.999Z</time></trkpt><trkpt lat="44.389486810022085" lon="9.164568327422819"><ele>96.5</ele><time>2026-03-28T14:21:29.999Z</time></trkpt><trkpt lat="44.38938774012648" lon="9.164467868663058"><ele>94.0</ele><time>2026-03-28T14:21:30.999Z</time></trkpt><trkpt lat="44.38927896104102" lon="9.1643898685092"><ele>91.5</ele><time>2026-03-28T14:21:31.999Z</time></trkpt><trkpt lat="44.38917581855776" lon="9.164330900787238"><ele>89.0</ele><time>2026-03-28T14:21:32.999Z</time></trkpt><trkpt lat="44.38908551225667" lon="9.16428691303399"><ele>89.0</ele><time>2026-03-28T14:21:33.999Z</time></trkpt><trkpt lat="44.389001316789944" lon="9.16426344934016"><ele>89.0</ele><time>2026-03-28T14:21:34.999Z</time></trkpt><trkpt lat="44.38893118842674" lon="9.16425403067581"><ele>89.0</ele><time>2026-03-28T14:21:35.999Z</time></trkpt><trkpt lat="44.388840286161084" lon="9.164242091029998"><ele>89.0</ele><time>2026-03-28T14:21:37.999Z</time></trkpt><trkpt lat="44.38876153264254" lon="9.16422992948886"><ele>89.0</ele><time>2026-03-28T14:21:40.999Z</time></trkpt><trkpt lat="44.38868092254589" lon="9.164192380442573"><ele>89.0</ele><time>2026-03-28T14:21:59.999Z</time></trkpt><trkpt lat="44.38857523427204" lon="9.164186892767217"><ele>90.0</ele><time>2026-03-28T14:22:01.999Z</time></trkpt><trkpt lat="44.388512301758695" lon="9.164163044090856"><ele>91.0</ele><time>2026-03-28T14:22:02.999Z</time></trkpt><trkpt lat="44.38843644269245" lon="9.164142301170587"><ele>92.0</ele><time>2026-03-28T14:22:03.999Z</time></trkpt><trkpt lat="44.38835181961235" lon="9.16412253445294"><ele>93.0</ele><time>2026-03-28T14:22:04.999Z</time></trkpt><trkpt lat="44.38826393359231" lon="9.164107053377293"><ele>94.0</ele><time>2026-03-28T14:22:05.999Z</time></trkpt><trkpt lat="44.38817546236994" lon="9.164091252928953"><ele>95.0</ele><time>2026-03-28T14:22:06.999Z</time></trkpt><trkpt lat="44.38808581842671" lon="9.164078457346363"><ele>94.16666666666667</ele><time>2026-03-28T14:22:07.999Z</time></trkpt><trkpt lat="44.38800114076092" lon="9.164070692311808"><ele>93.33333333333334</ele><time>2026-03-28T14:22:08.999Z</time></trkpt><trkpt lat="44.38792103332986" lon="9.16406183781185"><ele>92.5</ele><time>2026-03-28T14:22:09.999Z</time></trkpt><trkpt lat="44.387843997375334" lon="9.164036308634648"><ele>91.66666666666667</ele><time>2026-03-28T14:22:10.999Z</time></trkpt><trkpt lat="44.38776222954366" lon="9.164049532748699"><ele>90.83333333333333</ele><time>2026-03-28T14:22:11.999Z</time></trkpt><trkpt lat="44.38767908709834" lon="9.164108466750799"><ele>90.0</ele><time>2026-03-28T14:22:12.999Z</time></trkpt><trkpt lat="44.38759467195181" lon="9.164187658966394"><ele>90.0</ele><time>2026-03-28T14:22:13.999Z</time></trkpt><trkpt lat="44.38752034835055" lon="9.164268129000668"><ele>90.0</ele><time>2026-03-28T14:22:14.999Z</time></trkpt><trkpt lat="44.387447084905865" lon="9.164337775897655"><ele>90.0</ele><time>2026-03-28T14:22:15.999Z</time></trkpt><trkpt lat="44.387377031393065" lon="9.164403435877123"><ele>90.0</ele><time>2026-03-28T14:22:16.999Z</time></trkpt><trkpt lat="44.38731967293045" lon="9.164451073274165"><ele>90.0</ele><time>2026-03-28T14:22:17.999Z</time></trkpt><trkpt lat="44.38725937043874" lon="9.164485978482581"><ele>90.0</ele><time>2026-03-28T14:22:18.999Z</time></trkpt><trkpt lat="44.387194271311756" lon="9.164477762056691"><ele>89.0</ele><time>2026-03-28T14:22:19.999Z</time></trkpt><trkpt lat="44.3871140634412" lon="9.164449110971269"><ele>88.0</ele><time>2026-03-28T14:22:20.999Z</time></trkpt><trkpt lat="44.387003510251255" lon="9.16438529100213"><ele>87.0</ele><time>2026-03-28T14:22:21.999Z</time></trkpt><trkpt lat="44.3868513170376" lon="9.164344111033456"><ele>86.0</ele><time>2026-03-28T14:22:22.999Z</time></trkpt><trkpt lat="44.38669146567349" lon="9.16432805335782"><ele>86.0</ele><time>2026-03-28T14:22:23.999Z</time></trkpt><trkpt lat="44.386545664445265" lon="9.164258772357833"><ele>86.0</ele><time>2026-03-28T14:22:24.999Z</time></trkpt><trkpt lat="44.38642464648604" lon="9.16415267256536"><ele>86.0</ele><time>2026-03-28T14:22:25.999Z</time></trkpt><trkpt lat="44.386320345547766" lon="9.164037934080616"><ele>86.0</ele><time>2026-03-28T14:22:26.999Z</time></trkpt><trkpt lat="44.386215700039195" lon="9.163962356524845"><ele>83.6</ele><time>2026-03-28T14:22:27.999Z</time></trkpt><trkpt lat="44.38612437308375" lon="9.163953668015681"><ele>81.19999999999999</ele><time>2026-03-28T14:22:28.999Z</time></trkpt><trkpt lat="44.386023275565144" lon="9.163962351952824"><ele>78.80000000000001</ele><time>2026-03-28T14:22:29.999Z</time></trkpt><trkpt lat="44.38592145689778" lon="9.16403753328871"><ele>76.4</ele><time>2026-03-28T14:22:30.999Z</time></trkpt><trkpt lat="44.385830340247445" lon="9.164173111004795"><ele>74.0</ele><time>2026-03-28T14:22:31.999Z</time></trkpt><trkpt lat="44.38573517604045" lon="9.164305619560066"><ele>74.0</ele><time>2026-03-28T14:22:32.999Z</time></trkpt><trkpt lat="44.385644278981445" lon="9.164437130827634"><ele>74.0</ele><time>2026-03-28T14:22:33.999Z</time></trkpt><trkpt lat="44.385563370865384" lon="9.164553528065444"><ele>74.0</ele><time>2026-03-28T14:22:34.999Z</time></trkpt><trkpt lat="44.38548388688622" lon="9.164649133261788"><ele>74.0</ele><time>2026-03-28T14:22:35.999Z</time></trkpt><trkpt lat="44.385398437995605" lon="9.164721853747816"><ele>69.75</ele><time>2026-03-28T14:22:36.999Z</time></trkpt><trkpt lat="44.38529065463404" lon="9.164674035366515"><ele>65.5</ele><time>2026-03-28T14:22:37.999Z</time></trkpt><trkpt lat="44.38515913781741" lon="9.164666132282624"><ele>61.25</ele><time>2026-03-28T14:22:38.999Z</time></trkpt><trkpt lat="44.38503088625919" lon="9.164642742978938"><ele>57.0</ele><time>2026-03-28T14:22:40Z</time></trkpt><trkpt lat="44.384919049995986" lon="9.164626162609162"><ele>57.0</ele><time>2026-03-28T14:22:41Z</time></trkpt><trkpt lat="44.38480379828105" lon="9.164603656748323"><ele>57.0</ele><time>2026-03-28T14:22:42Z</time></trkpt><trkpt lat="44.384691097742255" lon="9.164564213857537"><ele>57.0</ele><time>2026-03-28T14:22:43Z</time></trkpt><trkpt lat="44.384588816460024" lon="9.164511892368319"><ele>57.0</ele><time>2026-03-28T14:22:44Z</time></trkpt><trkpt lat="44.38449666655174" lon="9.164457362577279"><ele>57.0</ele><time>2026-03-28T14:22:45Z</time></trkpt><trkpt lat="44.38441537189326" lon="9.164413461044212"><ele>58.0</ele><time>2026-03-28T14:22:46Z</time></trkpt><trkpt lat="44.384332021246394" lon="9.164377931238173"><ele>59.0</ele><time>2026-03-28T14:22:47Z</time></trkpt><trkpt lat="44.38424579537207" lon="9.164329535439597"><ele>60.0</ele><time>2026-03-28T14:22:48Z</time></trkpt><trkpt lat="44.384148455951916" lon="9.164326824369027"><ele>61.0</ele><time>2026-03-28T14:22:49Z</time></trkpt><trkpt lat="44.384050038464125" lon="9.164378979906862"><ele>62.0</ele><time>2026-03-28T14:22:50Z</time></trkpt><trkpt lat="44.3839732500188" lon="9.164491345995973"><ele>62.0</ele><time>2026-03-28T14:22:51Z</time></trkpt><trkpt lat="44.38390413378201" lon="9.164606648673946"><ele>62.0</ele><time>2026-03-28T14:22:52Z</time></trkpt><trkpt lat="44.38383336462251" lon="9.164727686299434"><ele>62.0</ele><time>2026-03-28T14:22:53Z</time></trkpt><trkpt lat="44.38376259582821" lon="9.164854931392767"><ele>62.0</ele><time>2026-03-28T14:22:54Z</time></trkpt><trkpt lat="44.38370420052539" lon="9.165004540176335"><ele>62.6</ele><time>2026-03-28T14:22:55Z</time></trkpt><trkpt lat="44.3836598892373" lon="9.165163384728691"><ele>63.2</ele><time>2026-03-28T14:22:56Z</time></trkpt><trkpt lat="44.38362142321039" lon="9.165312883167177"><ele>63.8</ele><time>2026-03-28T14:22:57Z</time></trkpt><trkpt lat="44.383581919531935" lon="9.165446742368616"><ele>64.4</ele><time>2026-03-28T14:22:58Z</time></trkpt><trkpt lat="44.383532625086104" lon="9.165578327512186"><ele>65.0</ele><time>2026-03-28T14:22:59Z</time></trkpt><trkpt lat="44.38348695072532" lon="9.165724559500449"><ele>66.2</ele><time>2026-03-28T14:23:00Z</time></trkpt><trkpt lat="44.383449582295604" lon="9.165873608721856"><ele>67.4</ele><time>2026-03-28T14:23:01Z</time></trkpt><trkpt lat="44.383418608504854" lon="9.166014734212334"><ele>68.6</ele><time>2026-03-28T14:23:02Z</time></trkpt><trkpt lat="44.383390449666976" lon="9.166146577975317"><ele>69.8</ele><time>2026-03-28T14:23:03Z</time></trkpt><trkpt lat="44.38336458814884" lon="9.166270607774276"><ele>71.0</ele><time>2026-03-28T14:23:04Z</time></trkpt><trkpt lat="44.383340165219515" lon="9.166395978709216"><ele>71.0</ele><time>2026-03-28T14:23:05Z</time></trkpt><trkpt lat="44.38331427124626" lon="9.166521015490206"><ele>71.0</ele><time>2026-03-28T14:23:06Z</time></trkpt><trkpt lat="44.383280508874016" lon="9.1666301987289"><ele>71.0</ele><time>2026-03-28T14:23:07Z</time></trkpt><trkpt lat="44.3831970830777" lon="9.166691143581776"><ele>71.0</ele><time>2026-03-28T14:23:08Z</time></trkpt><trkpt lat="44.38309421884119" lon="9.166696354583527"><ele>71.0</ele><time>2026-03-28T14:23:09Z</time></trkpt><trkpt lat="44.3830071925673" lon="9.166655736543719"><ele>75.4</ele><time>2026-03-28T14:23:10Z</time></trkpt><trkpt lat="44.38295857844393" lon="9.16655712509717"><ele>79.8</ele><time>2026-03-28T14:23:11Z</time></trkpt><trkpt lat="44.38294136249976" lon="9.166427129114584"><ele>84.2</ele><time>2026-03-28T14:23:12Z</time></trkpt><trkpt lat="44.38293622611961" lon="9.166280499384058"><ele>88.60000000000001</ele><time>2026-03-28T14:23:13Z</time></trkpt><trkpt lat="44.38293249515964" lon="9.166120110156164"><ele>93.0</ele><time>2026-03-28T14:23:14Z</time></trkpt><trkpt lat="44.38292651957281" lon="9.165945259380214"><ele>94.5</ele><time>2026-03-28T14:23:15Z</time></trkpt><trkpt lat="44.38292829179712" lon="9.165758232990942"><ele>96.0</ele><time>2026-03-28T14:23:16Z</time></trkpt><trkpt lat="44.38294945863973" lon="9.165559722597433"><ele>97.5</ele><time>2026-03-28T14:23:17Z</time></trkpt><trkpt lat="44.38299265198603" lon="9.165356489200697"><ele>99.0</ele><time>2026-03-28T14:23:18Z</time></trkpt><trkpt lat="44.3830376080867" lon="9.165155424391669"><ele>91.25</ele><time>2026-03-28T14:23:19Z</time></trkpt><trkpt lat="44.383080844728404" lon="9.164952172531851"><ele>83.5</ele><time>2026-03-28T14:23:20Z</time></trkpt><trkpt lat="44.38312964093386" lon="9.164752039986357"><ele>75.75</ele><time>2026-03-28T14:23:21Z</time></trkpt><trkpt lat="44.38316941532046" lon="9.164558678015252"><ele>68.0</ele><time>2026-03-28T14:23:22Z</time></trkpt><trkpt lat="44.383213420052044" lon="9.16436521418715"><ele>68.0</ele><time>2026-03-28T14:23:23Z</time></trkpt><trkpt lat="44.383256951704034" lon="9.164179885987794"><ele>68.0</ele><time>2026-03-28T14:23:24Z</time></trkpt><trkpt lat="44.38330138861886" lon="9.164000788111764"><ele>68.0</ele><time>2026-03-28T14:23:25Z</time></trkpt><trkpt lat="44.38334746108222" lon="9.163826315483323"><ele>68.0</ele><time>2026-03-28T14:23:26Z</time></trkpt><trkpt lat="44.38339255533171" lon="9.16364594707606"><ele>69.25</ele><time>2026-03-28T14:23:27Z</time></trkpt><trkpt lat="44.38343750785983" lon="9.163470029599912"><ele>70.5</ele><time>2026-03-28T14:23:28Z</time></trkpt><trkpt lat="44.38347991883167" lon="9.163294015631486"><ele>71.75</ele><time>2026-03-28T14:23:29Z</time></trkpt><trkpt lat="44.38352103051096" lon="9.163117371523303"><ele>73.0</ele><time>2026-03-28T14:23:30Z</time></trkpt><trkpt lat="44.38354547937055" lon="9.162936589931538"><ele>73.0</ele><time>2026-03-28T14:23:31Z</time></trkpt><trkpt lat="44.38355119385309" lon="9.162757777185366"><ele>73.0</ele><time>2026-03-28T14:23:32Z</time></trkpt><trkpt lat="44.38352734482966" lon="9.162583618562588"><ele>73.0</ele><time>2026-03-28T14:23:33Z</time></trkpt><trkpt lat="44.38348035993675" lon="9.162414130010154"><ele>73.0</ele><time>2026-03-28T14:23:34Z</time></trkpt><trkpt lat="44.383438267022626" lon="9.16223787432928"><ele>69.0</ele><time>2026-03-28T14:23:34.999Z</time></trkpt><trkpt lat="44.38339795582769" lon="9.162060109428946"><ele>65.0</ele><time>2026-03-28T14:23:35.999Z</time></trkpt><trkpt lat="44.383363428897184" lon="9.161895948132347"><ele>61.0</ele><time>2026-03-28T14:23:36.999Z</time></trkpt><trkpt lat="44.383327615151245" lon="9.161741705117466"><ele>57.0</ele><time>2026-03-28T14:23:37.999Z</time></trkpt><trkpt lat="44.383297214294075" lon="9.16157411645779"><ele>53.0</ele><time>2026-03-28T14:23:38.999Z</time></trkpt><trkpt lat="44.3832353117153" lon="9.161411280914985"><ele>49.0</ele><time>2026-03-28T14:23:39.999Z</time></trkpt><trkpt lat="44.38317080957059" lon="9.161251037176324"><ele>45.0</ele><time>2026-03-28T14:23:40.999Z</time></trkpt><trkpt lat="44.383109735425805" lon="9.161100491643008"><ele>41.0</ele><time>2026-03-28T14:23:41.999Z</time></trkpt><trkpt lat="44.38304104815518" lon="9.160951552877105"><ele>39.5</ele><time>2026-03-28T14:23:42.999Z</time></trkpt><trkpt lat="44.38296692576609" lon="9.160798484825753"><ele>38.0</ele><time>2026-03-28T14:23:43.999Z</time></trkpt><trkpt lat="44.38289812964883" lon="9.160649192319646"><ele>36.5</ele><time>2026-03-28T14:23:44.999Z</time></trkpt><trkpt lat="44.38281391086991" lon="9.16053161746887"><ele>35.0</ele><time>2026-03-28T14:23:45.999Z</time></trkpt><trkpt lat="44.382711839853" lon="9.160461712209656"><ele>35.0</ele><time>2026-03-28T14:23:46.999Z</time></trkpt><trkpt lat="44.382616706740954" lon="9.160416378671481"><ele>35.0</ele><time>2026-03-28T14:23:47.999Z</time></trkpt><trkpt lat="44.38251268427275" lon="9.160397746919882"><ele>35.0</ele><time>2026-03-28T14:23:48.999Z</time></trkpt><trkpt lat="44.38239115324278" lon="9.160390883339918"><ele>35.0</ele><time>2026-03-28T14:23:49.999Z</time></trkpt><trkpt lat="44.38226861839142" lon="9.16040799435227"><ele>34.5</ele><time>2026-03-28T14:23:50.999Z</time></trkpt><trkpt lat="44.38214427490864" lon="9.160401984537582"><ele>34.0</ele><time>2026-03-28T14:23:51.999Z</time></trkpt><trkpt lat="44.38202170131683" lon="9.160400811760844"><ele>33.5</ele><time>2026-03-28T14:23:52.999Z</time></trkpt><trkpt lat="44.38191184752325" lon="9.160432270938822"><ele>33.0</ele><time>2026-03-28T14:23:53.999Z</time></trkpt><trkpt lat="44.38181319854207" lon="9.160509797632422"><ele>33.0</ele><time>2026-03-28T14:23:54.999Z</time></trkpt><trkpt lat="44.38171515534107" lon="9.160622724569954"><ele>33.0</ele><time>2026-03-28T14:23:55.999Z</time></trkpt><trkpt lat="44.381622420097244" lon="9.160758157499869"><ele>33.0</ele><time>2026-03-28T14:23:56.999Z</time></trkpt><trkpt lat="44.38150794584337" lon="9.160860362790022"><ele>33.0</ele><time>2026-03-28T14:23:57.999Z</time></trkpt><trkpt lat="44.381400426984904" lon="9.160964769642991"><ele>36.0</ele><time>2026-03-28T14:23:58.999Z</time></trkpt><trkpt lat="44.381314807536654" lon="9.16101207210724"><ele>39.0</ele><time>2026-03-28T14:23:59.999Z</time></trkpt><trkpt lat="44.38124581220928" lon="9.16101682381538"><ele>42.0</ele><time>2026-03-28T14:24:00.999Z</time></trkpt><trkpt lat="44.38118575086072" lon="9.160968634149878"><ele>45.0</ele><time>2026-03-28T14:24:01.999Z</time></trkpt><trkpt lat="44.38114920446825" lon="9.160866435972451"><ele>48.0</ele><time>2026-03-28T14:24:02.999Z</time></trkpt><trkpt lat="44.381163709565136" lon="9.160740518542289"><ele>51.0</ele><time>2026-03-28T14:24:03.999Z</time></trkpt><trkpt lat="44.381226500503246" lon="9.16063830558431"><ele>54.25</ele><time>2026-03-28T14:24:04.999Z</time></trkpt><trkpt lat="44.38129948890311" lon="9.160529891578339"><ele>57.5</ele><time>2026-03-28T14:24:05.999Z</time></trkpt><trkpt lat="44.381357467196125" lon="9.160381860651192"><ele>60.75</ele><time>2026-03-28T14:24:06.999Z</time></trkpt><trkpt lat="44.381401071819155" lon="9.160207680144138"><ele>64.0</ele><time>2026-03-28T14:24:07.999Z</time></trkpt><trkpt lat="44.381436306801795" lon="9.160024946865095"><ele>55.5</ele><time>2026-03-28T14:24:08.999Z</time></trkpt><trkpt lat="44.3814501565508" lon="9.159856224930827"><ele>47.0</ele><time>2026-03-28T14:24:09.999Z</time></trkpt><trkpt lat="44.38143298148349" lon="9.159675973428653"><ele>38.5</ele><time>2026-03-28T14:24:10.999Z</time></trkpt><trkpt lat="44.381394720029526" lon="9.159489802282794"><ele>30.0</ele><time>2026-03-28T14:24:11.999Z</time></trkpt><trkpt lat="44.381354384018124" lon="9.159291930170372"><ele>39.5</ele><time>2026-03-28T14:24:12.999Z</time></trkpt><trkpt lat="44.381323429863166" lon="9.159100669848746"><ele>49.0</ele><time>2026-03-28T14:24:13.999Z</time></trkpt><trkpt lat="44.38129033107411" lon="9.158908305780075"><ele>58.5</ele><time>2026-03-28T14:24:14.999Z</time></trkpt><trkpt lat="44.381261436707305" lon="9.158705468863355"><ele>68.0</ele><time>2026-03-28T14:24:15.999Z</time></trkpt><trkpt lat="44.38123904228372" lon="9.158508650941217"><ele>68.5</ele><time>2026-03-28T14:24:16.999Z</time></trkpt><trkpt lat="44.38122235776188" lon="9.158310187956511"><ele>69.0</ele><time>2026-03-28T14:24:17.999Z</time></trkpt><trkpt lat="44.381221871118264" lon="9.158110004072125"><ele>69.5</ele><time>2026-03-28T14:24:18.999Z</time></trkpt><trkpt lat="44.381223374113766" lon="9.15791196017349"><ele>70.0</ele><time>2026-03-28T14:24:19.999Z</time></trkpt><trkpt lat="44.381221912636626" lon="9.15771538791769"><ele>66.25</ele><time>2026-03-28T14:24:20.999Z</time></trkpt><trkpt lat="44.38121779780065" lon="9.157520644643958"><ele>62.5</ele><time>2026-03-28T14:24:21.999Z</time></trkpt><trkpt lat="44.38121595233005" lon="9.157337686877348"><ele>58.75</ele><time>2026-03-28T14:24:22.999Z</time></trkpt><trkpt lat="44.381202337136564" lon="9.157174513024199"><ele>55.0</ele><time>2026-03-28T14:24:23.999Z</time></trkpt><trkpt lat="44.38116678865173" lon="9.157019637815614"><ele>50.25</ele><time>2026-03-28T14:24:24.999Z</time></trkpt><trkpt lat="44.38109827177254" lon="9.156888854792106"><ele>45.5</ele><time>2026-03-28T14:24:25.999Z</time></trkpt><trkpt lat="44.38101162348219" lon="9.15677369367168"><ele>40.75</ele><time>2026-03-28T14:24:26.999Z</time></trkpt><trkpt lat="44.380914790224246" lon="9.156662723565805"><ele>36.0</ele><time>2026-03-28T14:24:27.999Z</time></trkpt><trkpt lat="44.38081414891384" lon="9.156549617751296"><ele>34.25</ele><time>2026-03-28T14:24:28.999Z</time></trkpt><trkpt lat="44.38070916106679" lon="9.156440725315917"><ele>32.5</ele><time>2026-03-28T14:24:29.999Z</time></trkpt><trkpt lat="44.380597912373936" lon="9.15634818707806"><ele>30.75</ele><time>2026-03-28T14:24:30.999Z</time></trkpt><trkpt lat="44.3804781762553" lon="9.156283750413964"><ele>29.0</ele><time>2026-03-28T14:24:31.999Z</time></trkpt><trkpt lat="44.38035235548783" lon="9.15624466185256"><ele>28.5</ele><time>2026-03-28T14:24:32.999Z</time></trkpt><trkpt lat="44.38021938103299" lon="9.15622800440662"><ele>28.0</ele><time>2026-03-28T14:24:33.999Z</time></trkpt><trkpt lat="44.38008551492251" lon="9.15622152972053"><ele>27.5</ele><time>2026-03-28T14:24:34.999Z</time></trkpt><trkpt lat="44.37995178325141" lon="9.156210714502615"><ele>27.0</ele><time>2026-03-28T14:24:35.999Z</time></trkpt><trkpt lat="44.37982016276758" lon="9.156192382311456"><ele>27.0</ele><time>2026-03-28T14:24:36.999Z</time></trkpt><trkpt lat="44.3797049135093" lon="9.15615215053857"><ele>27.0</ele><time>2026-03-28T14:24:37.999Z</time></trkpt><trkpt lat="44.37959809967579" lon="9.156077662087554"><ele>27.0</ele><time>2026-03-28T14:24:38.999Z</time></trkpt><trkpt lat="44.37949942306816" lon="9.155961979261876"><ele>27.0</ele><time>2026-03-28T14:24:39.999Z</time></trkpt><trkpt lat="44.37940317351074" lon="9.155832213765937"><ele>29.25</ele><time>2026-03-28T14:24:40.999Z</time></trkpt><trkpt lat="44.37930273884468" lon="9.155695051550516"><ele>31.5</ele><time>2026-03-28T14:24:41.999Z</time></trkpt><trkpt lat="44.379200147179844" lon="9.155552224642634"><ele>33.75</ele><time>2026-03-28T14:24:42.999Z</time></trkpt><trkpt lat="44.37909587336907" lon="9.155397669317825"><ele>36.0</ele><time>2026-03-28T14:24:43.999Z</time></trkpt><trkpt lat="44.37901546026715" lon="9.15523228280546"><ele>36.0</ele><time>2026-03-28T14:24:44.999Z</time></trkpt><trkpt lat="44.378957427245034" lon="9.15505474935657"><ele>36.0</ele><time>2026-03-28T14:24:46Z</time></trkpt><trkpt lat="44.37891797970872" lon="9.154857753001426"><ele>36.0</ele><time>2026-03-28T14:24:47Z</time></trkpt><trkpt lat="44.378885914444105" lon="9.154653064245089"><ele>36.0</ele><time>2026-03-28T14:24:48Z</time></trkpt><trkpt lat="44.378850506952624" lon="9.154456078593498"><ele>37.0</ele><time>2026-03-28T14:24:49Z</time></trkpt><trkpt lat="44.37881728644644" lon="9.154271373299357"><ele>38.0</ele><time>2026-03-28T14:24:50Z</time></trkpt><trkpt lat="44.37878283624524" lon="9.154098084912734"><ele>39.0</ele><time>2026-03-28T14:24:51Z</time></trkpt><trkpt lat="44.378748203189055" lon="9.15393509210386"><ele>40.0</ele><time>2026-03-28T14:24:52Z</time></trkpt><trkpt lat="44.37872207707161" lon="9.153780308924448"><ele>40.0</ele><time>2026-03-28T14:24:53Z</time></trkpt><trkpt lat="44.37869447780289" lon="9.153634547566782"><ele>40.0</ele><time>2026-03-28T14:24:54Z</time></trkpt><trkpt lat="44.37866637592703" lon="9.153495904485018"><ele>40.0</ele><time>2026-03-28T14:24:55Z</time></trkpt><trkpt lat="44.3786412470153" lon="9.153366026915908"><ele>40.0</ele><time>2026-03-28T14:24:56Z</time></trkpt><trkpt lat="44.378605027674276" lon="9.15323908140884"><ele>40.0</ele><time>2026-03-28T14:24:57Z</time></trkpt><trkpt lat="44.378541359790304" lon="9.153125797848617"><ele>36.2</ele><time>2026-03-28T14:24:58Z</time></trkpt><trkpt lat="44.378460939804334" lon="9.153038541449106"><ele>32.4</ele><time>2026-03-28T14:24:59Z</time></trkpt><trkpt lat="44.37836889256281" lon="9.152969238669579"><ele>28.6</ele><time>2026-03-28T14:25:00Z</time></trkpt><trkpt lat="44.37827407632071" lon="9.152913377802042"><ele>24.8</ele><time>2026-03-28T14:25:01Z</time></trkpt><trkpt lat="44.37817784713917" lon="9.152868860180622"><ele>21.0</ele><time>2026-03-28T14:25:02Z</time></trkpt><trkpt lat="44.37808166843335" lon="9.152831475206668"><ele>21.4</ele><time>2026-03-28T14:25:03Z</time></trkpt><trkpt lat="44.3779814696836" lon="9.152794594918719"><ele>21.8</ele><time>2026-03-28T14:25:04Z</time></trkpt><trkpt lat="44.37787664697415" lon="9.15277823366399"><ele>22.2</ele><time>2026-03-28T14:25:05Z</time></trkpt><trkpt lat="44.377768941091816" lon="9.152786890852777"><ele>22.599999999999998</ele><time>2026-03-28T14:25:06Z</time></trkpt><trkpt lat="44.37765937933335" lon="9.152806768950187"><ele>23.0</ele><time>2026-03-28T14:25:07Z</time></trkpt><trkpt lat="44.37755499119894" lon="9.152827971237722"><ele>23.0</ele><time>2026-03-28T14:25:08Z</time></trkpt><trkpt lat="44.37746009001876" lon="9.152847772551766"><ele>23.0</ele><time>2026-03-28T14:25:09Z</time></trkpt><trkpt lat="44.37737455778803" lon="9.152866714431763"><ele>23.0</ele><time>2026-03-28T14:25:10Z</time></trkpt><trkpt lat="44.377282594981345" lon="9.152883863453908"><ele>23.0</ele><time>2026-03-28T14:25:11Z</time></trkpt><trkpt lat="44.37718512942363" lon="9.152896699386906"><ele>23.0</ele><time>2026-03-28T14:25:12Z</time></trkpt><trkpt lat="44.37708254674475" lon="9.152909177965116"><ele>22.599999999999998</ele><time>2026-03-28T14:25:13Z</time></trkpt><trkpt lat="44.376976748503104" lon="9.152929197177071"><ele>22.2</ele><time>2026-03-28T14:25:14Z</time></trkpt><trkpt lat="44.376867445114264" lon="9.152952689458356"><ele>21.8</ele><time>2026-03-28T14:25:15Z</time></trkpt><trkpt lat="44.3767543618804" lon="9.152969277418546"><ele>21.4</ele><time>2026-03-28T14:25:16Z</time></trkpt><trkpt lat="44.376641685400706" lon="9.152991709552062"><ele>21.0</ele><time>2026-03-28T14:25:17Z</time></trkpt><trkpt lat="44.376524922116566" lon="9.152988227789404"><ele>21.0</ele><time>2026-03-28T14:25:18Z</time></trkpt><trkpt lat="44.37641281367481" lon="9.153026384199853"><ele>21.0</ele><time>2026-03-28T14:25:19Z</time></trkpt><trkpt lat="44.37630818891969" lon="9.153052324639427"><ele>21.0</ele><time>2026-03-28T14:25:20Z</time></trkpt><trkpt lat="44.37620134412159" lon="9.153089913906847"><ele>21.0</ele><time>2026-03-28T14:25:21Z</time></trkpt><trkpt lat="44.376105553102704" lon="9.153133790955515"><ele>21.0</ele><time>2026-03-28T14:25:22Z</time></trkpt><trkpt lat="44.376017020286085" lon="9.153180004544868"><ele>22.0</ele><time>2026-03-28T14:25:23Z</time></trkpt><trkpt lat="44.375940625460046" lon="9.15322414917827"><ele>23.0</ele><time>2026-03-28T14:25:24Z</time></trkpt><trkpt lat="44.37584350390226" lon="9.153275066823513"><ele>24.0</ele><time>2026-03-28T14:25:26Z</time></trkpt><trkpt lat="44.37578424576861" lon="9.153306537334645"><ele>25.0</ele><time>2026-03-28T14:25:30Z</time></trkpt><trkpt lat="44.375721991121075" lon="9.153333359672715"><ele>26.0</ele><time>2026-03-28T14:25:33Z</time></trkpt><trkpt lat="44.37562547254797" lon="9.153378837797288"><ele>27.0</ele><time>2026-03-28T14:25:35Z</time></trkpt><trkpt lat="44.37556294121882" lon="9.15340345556019"><ele>26.0</ele><time>2026-03-28T14:25:36Z</time></trkpt><trkpt lat="44.375487806105355" lon="9.15342754757164"><ele>25.000000000000004</ele><time>2026-03-28T14:25:37Z</time></trkpt><trkpt lat="44.375398855687614" lon="9.153441062361784"><ele>24.0</ele><time>2026-03-28T14:25:38Z</time></trkpt><trkpt lat="44.37530155798367" lon="9.153459962259909"><ele>23.0</ele><time>2026-03-28T14:25:39Z</time></trkpt><trkpt lat="44.37519495426529" lon="9.15347093992429"><ele>22.0</ele><time>2026-03-28T14:25:40Z</time></trkpt><trkpt lat="44.37508109116251" lon="9.153489437230176"><ele>22.0</ele><time>2026-03-28T14:25:41Z</time></trkpt><trkpt lat="44.37496280235287" lon="9.153507658147872"><ele>22.0</ele><time>2026-03-28T14:25:41.999Z</time></trkpt><trkpt lat="44.37484241089866" lon="9.153517553315465"><ele>22.0</ele><time>2026-03-28T14:25:42.999Z</time></trkpt><trkpt lat="44.374719288734305" lon="9.153505646153222"><ele>22.0</ele><time>2026-03-28T14:25:43.999Z</time></trkpt><trkpt lat="44.37460103956299" lon="9.153466608313641"><ele>24.5</ele><time>2026-03-28T14:25:44.999Z</time></trkpt><trkpt lat="44.37448464235921" lon="9.153403858496606"><ele>27.0</ele><time>2026-03-28T14:25:45.999Z</time></trkpt><trkpt lat="44.374367795047675" lon="9.153342604833972"><ele>29.5</ele><time>2026-03-28T14:25:46.999Z</time></trkpt><trkpt lat="44.374250309954675" lon="9.153279180479075"><ele>32.0</ele><time>2026-03-28T14:25:47.999Z</time></trkpt><trkpt lat="44.37413712293382" lon="9.153213512901019"><ele>29.25</ele><time>2026-03-28T14:25:48.999Z</time></trkpt><trkpt lat="44.37403070398018" lon="9.15313064511412"><ele>26.5</ele><time>2026-03-28T14:25:49.999Z</time></trkpt><trkpt lat="44.37393648676538" lon="9.153030901862902"><ele>23.75</ele><time>2026-03-28T14:25:50.999Z</time></trkpt><trkpt lat="44.37384658882898" lon="9.152919371243145"><ele>21.0</ele><time>2026-03-28T14:25:51.999Z</time></trkpt><trkpt lat="44.373758740542684" lon="9.152790774167029"><ele>22.6</ele><time>2026-03-28T14:25:52.999Z</time></trkpt><trkpt lat="44.373682136663284" lon="9.152652930925196"><ele>24.200000000000003</ele><time>2026-03-28T14:25:53.999Z</time></trkpt><trkpt lat="44.37362264079332" lon="9.152520534952838"><ele>25.799999999999997</ele><time>2026-03-28T14:25:54.999Z</time></trkpt><trkpt lat="44.37357282184183" lon="9.15239380858895"><ele>27.4</ele><time>2026-03-28T14:25:55.999Z</time></trkpt><trkpt lat="44.37353036208878" lon="9.15227377270631"><ele>29.0</ele><time>2026-03-28T14:25:56.999Z</time></trkpt><trkpt lat="44.3734885313918" lon="9.15215085229753"><ele>29.0</ele><time>2026-03-28T14:25:57.999Z</time></trkpt><trkpt lat="44.37344109299069" lon="9.15201721365794"><ele>29.0</ele><time>2026-03-28T14:25:58.999Z</time></trkpt><trkpt lat="44.373397691211146" lon="9.151880913602485"><ele>29.0</ele><time>2026-03-28T14:25:59.999Z</time></trkpt><trkpt lat="44.37335505369234" lon="9.151743624758726"><ele>29.0</ele><time>2026-03-28T14:26:00.999Z</time></trkpt><trkpt lat="44.3733170551538" lon="9.151618490243061"><ele>29.0</ele><time>2026-03-28T14:26:01.999Z</time></trkpt><trkpt lat="44.37327726204327" lon="9.15149140615794"><ele>28.2</ele><time>2026-03-28T14:26:02.999Z</time></trkpt><trkpt lat="44.37324026118057" lon="9.151361979497882"><ele>27.4</ele><time>2026-03-28T14:26:03.999Z</time></trkpt><trkpt lat="44.373193412472695" lon="9.151231996855582"><ele>26.6</ele><time>2026-03-28T14:26:04.999Z</time></trkpt><trkpt lat="44.37315581110014" lon="9.151105578394743"><ele>25.8</ele><time>2026-03-28T14:26:05.999Z</time></trkpt><trkpt lat="44.373118040239376" lon="9.150986767597553"><ele>25.0</ele><time>2026-03-28T14:26:06.999Z</time></trkpt><trkpt lat="44.37307050288488" lon="9.150871878545285"><ele>23.6</ele><time>2026-03-28T14:26:07.999Z</time></trkpt><trkpt lat="44.37300330829311" lon="9.150766143260483"><ele>22.2</ele><time>2026-03-28T14:26:08.999Z</time></trkpt><trkpt lat="44.37291501199746" lon="9.15068527898371"><ele>20.8</ele><time>2026-03-28T14:26:09.999Z</time></trkpt><trkpt lat="44.37281975339214" lon="9.150615011964668"><ele>19.4</ele><time>2026-03-28T14:26:10.999Z</time></trkpt><trkpt lat="44.37272151712145" lon="9.150545608840995"><ele>18.0</ele><time>2026-03-28T14:26:11.999Z</time></trkpt><trkpt lat="44.37262471665422" lon="9.1504688757635"><ele>17.2</ele><time>2026-03-28T14:26:12.999Z</time></trkpt><trkpt lat="44.372528634757415" lon="9.150397555657339"><ele>16.4</ele><time>2026-03-28T14:26:13.999Z</time></trkpt><trkpt lat="44.37242524324884" lon="9.150323900443443"><ele>15.599999999999998</ele><time>2026-03-28T14:26:14.999Z</time></trkpt><trkpt lat="44.37232165176744" lon="9.150254813192554"><ele>14.799999999999999</ele><time>2026-03-28T14:26:15.999Z</time></trkpt><trkpt lat="44.372223481129986" lon="9.150189881280905"><ele>14.0</ele><time>2026-03-28T14:26:16.999Z</time></trkpt><trkpt lat="44.372118600148866" lon="9.150133066763981"><ele>13.75</ele><time>2026-03-28T14:26:17.999Z</time></trkpt><trkpt lat="44.37200343586451" lon="9.15009107353146"><ele>13.5</ele><time>2026-03-28T14:26:18.999Z</time></trkpt><trkpt lat="44.371889071750026" lon="9.150053571673471"><ele>13.25</ele><time>2026-03-28T14:26:19.999Z</time></trkpt><trkpt lat="44.37177246057482" lon="9.150019991678734"><ele>13.0</ele><time>2026-03-28T14:26:20.999Z</time></trkpt><trkpt lat="44.37165386239071" lon="9.149989491114885"><ele>13.0</ele><time>2026-03-28T14:26:21.999Z</time></trkpt><trkpt lat="44.37153739809058" lon="9.149969171542688"><ele>13.0</ele><time>2026-03-28T14:26:22.999Z</time></trkpt><trkpt lat="44.37141898792702" lon="9.14996078850872"><ele>13.0</ele><time>2026-03-28T14:26:23.999Z</time></trkpt><trkpt lat="44.371298582427094" lon="9.149943986057199"><ele>13.0</ele><time>2026-03-28T14:26:24.999Z</time></trkpt><trkpt lat="44.371177843787116" lon="9.14996153804449"><ele>13.0</ele><time>2026-03-28T14:26:25.999Z</time></trkpt><trkpt lat="44.371059980073056" lon="9.15002091807489"><ele>13.0</ele><time>2026-03-28T14:26:26.999Z</time></trkpt><trkpt lat="44.370941067665335" lon="9.150059641928634"><ele>13.0</ele><time>2026-03-28T14:26:27.999Z</time></trkpt><trkpt lat="44.370823222505926" lon="9.150101519861222"><ele>13.0</ele><time>2026-03-28T14:26:28.999Z</time></trkpt><trkpt lat="44.370701451975634" lon="9.150134274406593"><ele>13.0</ele><time>2026-03-28T14:26:29.999Z</time></trkpt><trkpt lat="44.3705796416121" lon="9.15016012410407"><ele>13.0</ele><time>2026-03-28T14:26:30.999Z</time></trkpt><trkpt lat="44.37045837568233" lon="9.150172980334096"><ele>13.0</ele><time>2026-03-28T14:26:31.999Z</time></trkpt><trkpt lat="44.37035870608892" lon="9.150180977005999"><ele>13.0</ele><time>2026-03-28T14:26:32.999Z</time></trkpt><trkpt lat="44.37027311544619" lon="9.15018298804358"><ele>13.0</ele><time>2026-03-28T14:26:33.999Z</time></trkpt><trkpt lat="44.37019861441512" lon="9.150185053097394"><ele>12.4</ele><time>2026-03-28T14:26:34.999Z</time></trkpt><trkpt lat="44.37013479438871" lon="9.15018467041347"><ele>11.8</ele><time>2026-03-28T14:26:35.999Z</time></trkpt><trkpt lat="44.370031050671734" lon="9.150174857219914"><ele>11.2</ele><time>2026-03-28T14:26:37.999Z</time></trkpt><trkpt lat="44.369953603809435" lon="9.15015875755791"><ele>10.6</ele><time>2026-03-28T14:26:40.999Z</time></trkpt><trkpt lat="44.36984529514653" lon="9.150142060833652"><ele>10.0</ele><time>2026-03-28T14:26:58Z</time></trkpt><trkpt lat="44.36973746363795" lon="9.15012546050858"><ele>10.333333333333334</ele><time>2026-03-28T14:27:00Z</time></trkpt><trkpt lat="44.369671403800886" lon="9.150087498280882"><ele>10.666666666666668</ele><time>2026-03-28T14:27:01Z</time></trkpt><trkpt lat="44.3695481887712" lon="9.150065350500787"><ele>11.0</ele><time>2026-03-28T14:27:03Z</time></trkpt><trkpt lat="44.369483968660504" lon="9.150054020311957"><ele>11.333333333333334</ele><time>2026-03-28T14:27:04Z</time></trkpt><trkpt lat="44.36941769711766" lon="9.150041959259267"><ele>11.666666666666666</ele><time>2026-03-28T14:27:05Z</time></trkpt><trkpt lat="44.36934990659355" lon="9.150029293713207"><ele>12.0</ele><time>2026-03-28T14:27:06Z</time></trkpt><trkpt lat="44.3692798406022" lon="9.15003748050129"><ele>12.0</ele><time>2026-03-28T14:27:07Z</time></trkpt><trkpt lat="44.369208511475335" lon="9.150019853232598"><ele>12.0</ele><time>2026-03-28T14:27:08Z</time></trkpt><trkpt lat="44.36913713446942" lon="9.149991943637938"><ele>12.0</ele><time>2026-03-28T14:27:09Z</time></trkpt><trkpt lat="44.3690726644653" lon="9.149938948883275"><ele>12.0</ele><time>2026-03-28T14:27:10Z</time></trkpt><trkpt lat="44.36901128107775" lon="9.149875458035547"><ele>12.0</ele><time>2026-03-28T14:27:11Z</time></trkpt><trkpt lat="44.36895803735512" lon="9.14978862477977"><ele>12.0</ele><time>2026-03-28T14:27:12Z</time></trkpt><trkpt lat="44.36891115069176" lon="9.149686771416745"><ele>11.6</ele><time>2026-03-28T14:27:13Z</time></trkpt><trkpt lat="44.36887848022282" lon="9.149564263053502"><ele>11.2</ele><time>2026-03-28T14:27:14Z</time></trkpt><trkpt lat="44.368857737114865" lon="9.149434732178031"><ele>10.8</ele><time>2026-03-28T14:27:15Z</time></trkpt><trkpt lat="44.368842738319955" lon="9.149304573120432"><ele>10.4</ele><time>2026-03-28T14:27:16Z</time></trkpt><trkpt lat="44.36882264837733" lon="9.149175204330762"><ele>10.0</ele><time>2026-03-28T14:27:17Z</time></trkpt><trkpt lat="44.36879208423013" lon="9.149048642420661"><ele>10.0</ele><time>2026-03-28T14:27:18Z</time></trkpt><trkpt lat="44.368748193637025" lon="9.148921912574579"><ele>10.0</ele><time>2026-03-28T14:27:19Z</time></trkpt><trkpt lat="44.36869750909793" lon="9.148799104999316"><ele>10.0</ele><time>2026-03-28T14:27:20Z</time></trkpt><trkpt lat="44.36864546667299" lon="9.148688669765445"><ele>10.0</ele><time>2026-03-28T14:27:21Z</time></trkpt><trkpt lat="44.36859279168225" lon="9.14858791288169"><ele>10.0</ele><time>2026-03-28T14:27:22Z</time></trkpt><trkpt lat="44.36854050678569" lon="9.148496185639505"><ele>10.0</ele><time>2026-03-28T14:27:23Z</time></trkpt><trkpt lat="44.36849749440125" lon="9.14841891300647"><ele>10.0</ele><time>2026-03-28T14:27:24Z</time></trkpt><trkpt lat="44.368426846271575" lon="9.148288023375192"><ele>10.0</ele><time>2026-03-28T14:27:26Z</time></trkpt><trkpt lat="44.36836873944231" lon="9.148182450016137"><ele>10.0</ele><time>2026-03-28T14:27:28Z</time></trkpt><trkpt lat="44.3683094822935" lon="9.148080623708113"><ele>10.0</ele><time>2026-03-28T14:27:30Z</time></trkpt><trkpt lat="44.368258089211814" lon="9.147978397607794"><ele>9.833333333333334</ele><time>2026-03-28T14:27:32Z</time></trkpt><trkpt lat="44.36819287667736" lon="9.14783728604173"><ele>9.666666666666668</ele><time>2026-03-28T14:27:34Z</time></trkpt><trkpt lat="44.36816317351332" lon="9.14775191080489"><ele>9.5</ele><time>2026-03-28T14:27:35Z</time></trkpt><trkpt lat="44.36812592862624" lon="9.147664816118885"><ele>9.333333333333334</ele><time>2026-03-28T14:27:36Z</time></trkpt><trkpt lat="44.36808941937554" lon="9.147576294462562"><ele>9.166666666666666</ele><time>2026-03-28T14:27:37Z</time></trkpt><trkpt lat="44.36805297655686" lon="9.147495671386723"><ele>9.0</ele><time>2026-03-28T14:27:38Z</time></trkpt><trkpt lat="44.3680114380961" lon="9.147410437789986"><ele>9.0</ele><time>2026-03-28T14:27:39Z</time></trkpt><trkpt lat="44.36796760725346" lon="9.147320521492396"><ele>9.0</ele><time>2026-03-28T14:27:40Z</time></trkpt><trkpt lat="44.36791594787299" lon="9.147226376224905"><ele>9.0</ele><time>2026-03-28T14:27:41Z</time></trkpt><trkpt lat="44.36785838075219" lon="9.147130149064422"><ele>9.0</ele><time>2026-03-28T14:27:42Z</time></trkpt><trkpt lat="44.367796327287316" lon="9.147032406528375"><ele>9.0</ele><time>2026-03-28T14:27:43Z</time></trkpt><trkpt lat="44.36772980635381" lon="9.1469366148799"><ele>9.0</ele><time>2026-03-28T14:27:44Z</time></trkpt><trkpt lat="44.36765936206775" lon="9.146847561160493"><ele>9.0</ele><time>2026-03-28T14:27:45Z</time></trkpt><trkpt lat="44.36757912931184" lon="9.146769626399466"><ele>9.0</ele><time>2026-03-28T14:27:46Z</time></trkpt><trkpt lat="44.367491781254465" lon="9.146706476797602"><ele>9.0</ele><time>2026-03-28T14:27:47Z</time></trkpt><trkpt lat="44.36740188724853" lon="9.146652601999344"><ele>9.0</ele><time>2026-03-28T14:27:48Z</time></trkpt><trkpt lat="44.367317435926644" lon="9.146606640702698"><ele>9.0</ele><time>2026-03-28T14:27:49Z</time></trkpt><trkpt lat="44.36723483085497" lon="9.146572426907246"><ele>9.8</ele><time>2026-03-28T14:27:49.999Z</time></trkpt><trkpt lat="44.36715512164838" lon="9.146525282771565"><ele>10.600000000000001</ele><time>2026-03-28T14:27:50.999Z</time></trkpt><trkpt lat="44.367064322630966" lon="9.146508809033946"><ele>11.4</ele><time>2026-03-28T14:27:51.999Z</time></trkpt><trkpt lat="44.36697236120876" lon="9.146509006057519"><ele>12.200000000000001</ele><time>2026-03-28T14:27:52.999Z</time></trkpt><trkpt lat="44.366878473376325" lon="9.146519142516455"><ele>13.0</ele><time>2026-03-28T14:27:53.999Z</time></trkpt><trkpt lat="44.366786064689634" lon="9.1465343197517"><ele>11.999999999999998</ele><time>2026-03-28T14:27:54.999Z</time></trkpt><trkpt lat="44.36669136971403" lon="9.146551408260754"><ele>11.0</ele><time>2026-03-28T14:27:55.999Z</time></trkpt><trkpt lat="44.366597577038874" lon="9.146568860326441"><ele>10.0</ele><time>2026-03-28T14:27:56.999Z</time></trkpt><trkpt lat="44.36650801258405" lon="9.146585525643058"><ele>9.0</ele><time>2026-03-28T14:27:57.999Z</time></trkpt><trkpt lat="44.36642494777966" lon="9.146622997576708"><ele>8.0</ele><time>2026-03-28T14:27:58.999Z</time></trkpt><trkpt lat="44.36634613717039" lon="9.146635859545555"><ele>7.0</ele><time>2026-03-28T14:27:59.999Z</time></trkpt><trkpt lat="44.3662717079521" lon="9.146639182688315"><ele>7.0</ele><time>2026-03-28T14:28:00.999Z</time></trkpt><trkpt lat="44.366206634694926" lon="9.146650816352812"><ele>7.0</ele><time>2026-03-28T14:28:01.999Z</time></trkpt><trkpt lat="44.366135705362645" lon="9.146645431455765"><ele>7.0</ele><time>2026-03-28T14:28:03.999Z</time></trkpt><trkpt lat="44.36607247129615" lon="9.146654801976073"><ele>7.0</ele><time>2026-03-28T14:28:07.999Z</time></trkpt><trkpt lat="44.365991100425546" lon="9.146669063954647"><ele>7.0</ele><time>2026-03-28T14:28:20.999Z</time></trkpt><trkpt lat="44.36592347066779" lon="9.146680617503597"><ele>7.0</ele><time>2026-03-28T14:28:22.999Z</time></trkpt><trkpt lat="44.36583302485766" lon="9.146696068643449"><ele>7.0</ele><time>2026-03-28T14:28:24.999Z</time></trkpt><trkpt lat="44.365760444326746" lon="9.146707012331845"><ele>7.0</ele><time>2026-03-28T14:28:25.999Z</time></trkpt><trkpt lat="44.365674384637664" lon="9.146720634326414"><ele>6.999999999999999</ele><time>2026-03-28T14:28:26.999Z</time></trkpt><trkpt lat="44.365581916189356" lon="9.146735270745069"><ele>6.999999999999999</ele><time>2026-03-28T14:28:27.999Z</time></trkpt><trkpt lat="44.36548965230647" lon="9.146750274185006"><ele>7.0</ele><time>2026-03-28T14:28:28.999Z</time></trkpt><trkpt lat="44.36540125224375" lon="9.146787215778998"><ele>7.0</ele><time>2026-03-28T14:28:29.999Z</time></trkpt><trkpt lat="44.3653128654859" lon="9.14677821805368"><ele>7.166666666666667</ele><time>2026-03-28T14:28:30.999Z</time></trkpt><trkpt lat="44.365234718300236" lon="9.14678950768784"><ele>7.333333333333334</ele><time>2026-03-28T14:28:31.999Z</time></trkpt><trkpt lat="44.36516273633456" lon="9.146799906637527"><ele>7.5</ele><time>2026-03-28T14:28:32.999Z</time></trkpt><trkpt lat="44.36509734534213" lon="9.146806092313744"><ele>7.666666666666666</ele><time>2026-03-28T14:28:33.999Z</time></trkpt><trkpt lat="44.36498218349881" lon="9.146789684250647"><ele>7.833333333333333</ele><time>2026-03-28T14:28:35.999Z</time></trkpt><trkpt lat="44.36488717470616" lon="9.146782166700891"><ele>8.0</ele><time>2026-03-28T14:28:37.999Z</time></trkpt><trkpt lat="44.36481516802082" lon="9.14677154199563"><ele>7.999999999999999</ele><time>2026-03-28T14:28:40.999Z</time></trkpt><trkpt lat="44.36471035407111" lon="9.14674656246366"><ele>8.0</ele><time>2026-03-28T14:29:00Z</time></trkpt><trkpt lat="44.36459763651911" lon="9.146674054795081"><ele>8.0</ele><time>2026-03-28T14:29:02Z</time></trkpt><trkpt lat="44.36454273949306" lon="9.146626970013056"><ele>8.0</ele><time>2026-03-28T14:29:03Z</time></trkpt><trkpt lat="44.364485361183995" lon="9.146576224686939"><ele>7.999999999999999</ele><time>2026-03-28T14:29:04Z</time></trkpt><trkpt lat="44.364428865868355" lon="9.14651181426269"><ele>8.0</ele><time>2026-03-28T14:29:05Z</time></trkpt><trkpt lat="44.36437355139797" lon="9.146440571519587"><ele>7.833333333333333</ele><time>2026-03-28T14:29:06Z</time></trkpt><trkpt lat="44.36432878108186" lon="9.146370750974864"><ele>7.666666666666666</ele><time>2026-03-28T14:29:07Z</time></trkpt><trkpt lat="44.364283077562284" lon="9.146298488567334"><ele>7.5</ele><time>2026-03-28T14:29:08Z</time></trkpt><trkpt lat="44.3642347391782" lon="9.146217380175042"><ele>7.333333333333334</ele><time>2026-03-28T14:29:09Z</time></trkpt><trkpt lat="44.364176820836654" lon="9.146131693158045"><ele>7.166666666666667</ele><time>2026-03-28T14:29:10Z</time></trkpt><trkpt lat="44.364127406837234" lon="9.146034995577542"><ele>7.0</ele><time>2026-03-28T14:29:11Z</time></trkpt><trkpt lat="44.36406489776687" lon="9.14595323483178"><ele>7.000000000000001</ele><time>2026-03-28T14:29:12Z</time></trkpt><trkpt lat="44.36400947597037" lon="9.14586571926889"><ele>7.0</ele><time>2026-03-28T14:29:13Z</time></trkpt><trkpt lat="44.36394826866931" lon="9.145774955335076"><ele>7.0</ele><time>2026-03-28T14:29:14Z</time></trkpt><trkpt lat="44.363891558449495" lon="9.145688485867275"><ele>7.0</ele><time>2026-03-28T14:29:15Z</time></trkpt><trkpt lat="44.363835055378665" lon="9.145599126490483"><ele>7.000000000000001</ele><time>2026-03-28T14:29:16Z</time></trkpt><trkpt lat="44.363774961848264" lon="9.145508835819053"><ele>7.0</ele><time>2026-03-28T14:29:17Z</time></trkpt><trkpt lat="44.36371624381878" lon="9.145418550403502"><ele>7.166666666666667</ele><time>2026-03-28T14:29:18Z</time></trkpt><trkpt lat="44.36365421669588" lon="9.145330561043577"><ele>7.333333333333334</ele><time>2026-03-28T14:29:19Z</time></trkpt><trkpt lat="44.36359456944055" lon="9.145242941503291"><ele>7.5</ele><time>2026-03-28T14:29:20Z</time></trkpt><trkpt lat="44.36353862084845" lon="9.145164110860753"><ele>7.666666666666666</ele><time>2026-03-28T14:29:21Z</time></trkpt><trkpt lat="44.363486530202415" lon="9.145091906151897"><ele>7.833333333333333</ele><time>2026-03-28T14:29:22Z</time></trkpt><trkpt lat="44.3634335641361" lon="9.14502955238065"><ele>8.0</ele><time>2026-03-28T14:29:23Z</time></trkpt><trkpt lat="44.36338081963392" lon="9.14497141137202"><ele>7.999999999999999</ele><time>2026-03-28T14:29:24Z</time></trkpt><trkpt lat="44.3633194606816" lon="9.144917248345852"><ele>8.0</ele><time>2026-03-28T14:29:25Z</time></trkpt><trkpt lat="44.36324911186498" lon="9.14486851143879"><ele>8.0</ele><time>2026-03-28T14:29:26Z</time></trkpt><trkpt lat="44.363173189131786" lon="9.144822698840908"><ele>8.0</ele><time>2026-03-28T14:29:27Z</time></trkpt><trkpt lat="44.36309363780292" lon="9.144771856202395"><ele>7.999999999999999</ele><time>2026-03-28T14:29:28Z</time></trkpt><trkpt lat="44.36301790626463" lon="9.14472911108827"><ele>8.0</ele><time>2026-03-28T14:29:29Z</time></trkpt><trkpt lat="44.36295169399449" lon="9.144676540333208"><ele>8.166666666666666</ele><time>2026-03-28T14:29:30Z</time></trkpt><trkpt lat="44.362888906860604" lon="9.144636921088711"><ele>8.333333333333332</ele><time>2026-03-28T14:29:31Z</time></trkpt><trkpt lat="44.362828872369676" lon="9.144606487946259"><ele>8.5</ele><time>2026-03-28T14:29:32Z</time></trkpt><trkpt lat="44.36272300395519" lon="9.144524688391332"><ele>8.666666666666666</ele><time>2026-03-28T14:29:34Z</time></trkpt><trkpt lat="44.36268466324404" lon="9.144454792024142"><ele>8.833333333333334</ele><time>2026-03-28T14:29:35Z</time></trkpt><trkpt lat="44.36256865019303" lon="9.144364774229576"><ele>9.0</ele><time>2026-03-28T14:29:37Z</time></trkpt><trkpt lat="44.36245858038082" lon="9.14434197511469"><ele>9.0</ele><time>2026-03-28T14:29:38Z</time></trkpt><trkpt lat="44.36238679977932" lon="9.144347284008825"><ele>9.0</ele><time>2026-03-28T14:29:39Z</time></trkpt><trkpt lat="44.36230816501" lon="9.14429150299653"><ele>9.0</ele><time>2026-03-28T14:29:40Z</time></trkpt><trkpt lat="44.36223254882083" lon="9.144240905095472"><ele>9.0</ele><time>2026-03-28T14:29:41Z</time></trkpt><trkpt lat="44.36216011109628" lon="9.14419346285532"><ele>9.0</ele><time>2026-03-28T14:29:42Z</time></trkpt><trkpt lat="44.36209648421425" lon="9.144148178861384"><ele>9.0</ele><time>2026-03-28T14:29:43Z</time></trkpt><trkpt lat="44.36203034282324" lon="9.144109541702445"><ele>9.0</ele><time>2026-03-28T14:29:44Z</time></trkpt><trkpt lat="44.36196245005202" lon="9.144062892164365"><ele>9.0</ele><time>2026-03-28T14:29:45Z</time></trkpt><trkpt lat="44.36189959618285" lon="9.144026537840292"><ele>9.0</ele><time>2026-03-28T14:29:46Z</time></trkpt><trkpt lat="44.361794630339666" lon="9.143952524494509"><ele>9.0</ele><time>2026-03-28T14:29:48Z</time></trkpt><trkpt lat="44.361734147748" lon="9.143918522604642"><ele>9.0</ele><time>2026-03-28T14:29:49Z</time></trkpt><trkpt lat="44.36165811961368" lon="9.143870841340126"><ele>9.0</ele><time>2026-03-28T14:29:51Z</time></trkpt><trkpt lat="44.36159811735995" lon="9.143838071254992"><ele>9.0</ele><time>2026-03-28T14:29:53.999Z</time></trkpt><trkpt lat="44.361545212443346" lon="9.143786584157095"><ele>9.0</ele><time>2026-03-28T14:29:56.999Z</time></trkpt><trkpt lat="44.36146376728398" lon="9.14375694657279"><ele>9.0</ele><time>2026-03-28T14:29:59.999Z</time></trkpt><trkpt lat="44.361421936362476" lon="9.143666284414282"><ele>9.0</ele><time>2026-03-28T14:30:01.999Z</time></trkpt><trkpt lat="44.36137475132155" lon="9.143581161666336"><ele>9.0</ele><time>2026-03-28T14:30:03.999Z</time></trkpt><trkpt lat="44.36130607695139" lon="9.143521464258336"><ele>9.0</ele><time>2026-03-28T14:30:06.999Z</time></trkpt><trkpt lat="44.36127092005752" lon="9.143392550846723"><ele>9.6</ele><time>2026-03-28T14:30:09.999Z</time></trkpt><trkpt lat="44.361223170632115" lon="9.143334902961303"><ele>10.2</ele><time>2026-03-28T14:30:16.999Z</time></trkpt><trkpt lat="44.36116055564549" lon="9.14326470493027"><ele>10.799999999999999</ele><time>2026-03-28T14:30:20.999Z</time></trkpt><trkpt lat="44.36109013952569" lon="9.143186731241746"><ele>11.4</ele><time>2026-03-28T14:30:23.999Z</time></trkpt><trkpt lat="44.361038385339356" lon="9.143131874154902"><ele>12.0</ele><time>2026-03-28T14:30:26.999Z</time></trkpt><trkpt lat="44.36084990351513" lon="9.143027052452835"><ele>9.25</ele><time>2026-03-28T14:30:46.999Z</time></trkpt><trkpt lat="44.36076941710842" lon="9.14311811540524"><ele>6.5</ele><time>2026-03-28T14:30:52.999Z</time></trkpt><trkpt lat="44.360948755638304" lon="9.143046385761373"><ele>3.75</ele><time>2026-03-28T14:31:15Z</time></trkpt><trkpt lat="44.3610297694661" lon="9.14312291283425"><ele>1.0</ele><time>2026-03-28T14:31:20Z</time></trkpt><trkpt lat="44.36110487387048" lon="9.143203046967159"><ele>2.333333333333333</ele><time>2026-03-28T14:31:23Z</time></trkpt><trkpt lat="44.36116110464863" lon="9.143288830957854"><ele>3.6666666666666665</ele><time>2026-03-28T14:31:26Z</time></trkpt><trkpt lat="44.36121471496535" lon="9.143335583584603"><ele>5.0</ele><time>2026-03-28T14:31:29Z</time></trkpt><trkpt lat="44.36128369773526" lon="9.143396788711044"><ele>6.333333333333333</ele><time>2026-03-28T14:31:33Z</time></trkpt><trkpt lat="44.36134254611498" lon="9.143478024025182"><ele>7.666666666666667</ele><time>2026-03-28T14:31:36Z</time></trkpt><trkpt lat="44.361370837261695" lon="9.14355799683686"><ele>9.0</ele><time>2026-03-28T14:31:42Z</time></trkpt><trkpt lat="44.36135766925216" lon="9.143682914265916"><ele>9.0</ele><time>2026-03-28T14:31:44Z</time></trkpt><trkpt lat="44.36139486958282" lon="9.143792688483279"><ele>9.0</ele><time>2026-03-28T14:31:47Z</time></trkpt><trkpt lat="44.36149584490577" lon="9.143806363923753"><ele>9.0</ele><time>2026-03-28T14:31:49Z</time></trkpt><trkpt lat="44.36157497411403" lon="9.143849661979736"><ele>9.0</ele><time>2026-03-28T14:31:51Z</time></trkpt><trkpt lat="44.36163159852761" lon="9.143893730462331"><ele>9.0</ele><time>2026-03-28T14:31:53Z</time></trkpt><trkpt lat="44.36167049666092" lon="9.143973530205121"><ele>9.0</ele><time>2026-03-28T14:31:58Z</time></trkpt><trkpt lat="44.36161702765139" lon="9.144114613640857"><ele>9.0</ele><time>2026-03-28T14:32:01.999Z</time></trkpt><trkpt lat="44.36157167382968" lon="9.144212333234144"><ele>9.0</ele><time>2026-03-28T14:32:04.999Z</time></trkpt><trkpt lat="44.36156502889744" lon="9.144310176489356"><ele>9.0</ele><time>2026-03-28T14:32:07.999Z</time></trkpt><trkpt lat="44.361589938446485" lon="9.144411991520794"><ele>9.0</ele><time>2026-03-28T14:32:11.999Z</time></trkpt><trkpt lat="44.361660420683435" lon="9.144514423436572"><ele>9.0</ele><time>2026-03-28T14:32:14.999Z</time></trkpt><trkpt lat="44.3617064034888" lon="9.144583741522922"><ele>9.0</ele><time>2026-03-28T14:32:18.999Z</time></trkpt><trkpt lat="44.36179225672047" lon="9.144611102436244"><ele>9.000000000000002</ele><time>2026-03-28T14:32:21.999Z</time></trkpt><trkpt lat="44.36184281830069" lon="9.144663742116874"><ele>9.0</ele><time>2026-03-28T14:32:23.999Z</time></trkpt><trkpt lat="44.3619129882374" lon="9.144659654788693"><ele>9.0</ele><time>2026-03-28T14:32:27.999Z</time></trkpt><trkpt lat="44.36183182941352" lon="9.144620533292402"><ele>9.0</ele><time>2026-03-28T14:32:38.999Z</time></trkpt><trkpt lat="44.361766607534115" lon="9.144574820751624"><ele>9.0</ele><time>2026-03-28T14:32:40.999Z</time></trkpt><trkpt lat="44.361708984375" lon="9.144539318944238"><ele>9.000000000000002</ele><time>2026-03-28T14:32:42.999Z</time></trkpt><trkpt lat="44.36164725295154" lon="9.144478055458196"><ele>9.0</ele><time>2026-03-28T14:32:44.999Z</time></trkpt><trkpt lat="44.36159648284218" lon="9.14440773837489"><ele>9.0</ele><time>2026-03-28T14:32:47.999Z</time></trkpt><trkpt lat="44.361546077282775" lon="9.144337245820047"><ele>9.0</ele><time>2026-03-28T14:32:49.999Z</time></trkpt><trkpt lat="44.36167268138379" lon="9.14409892134801"><ele>9.0</ele><time>2026-03-28T14:32:53.999Z</time></trkpt><trkpt lat="44.3616926298517" lon="9.144005132828521"><ele>9.0</ele><time>2026-03-28T14:32:58.999Z</time></trkpt><trkpt lat="44.36170778857646" lon="9.143909230745992"><ele>9.0</ele><time>2026-03-28T14:33:06.999Z</time></trkpt><trkpt lat="44.361629060583425" lon="9.143849172465826"><ele>9.0</ele><time>2026-03-28T14:33:11Z</time></trkpt><trkpt lat="44.36154236259993" lon="9.14380901142403"><ele>9.0</ele><time>2026-03-28T14:33:13Z</time></trkpt><trkpt lat="44.36148659924334" lon="9.143761954049534"><ele>9.0</ele><time>2026-03-28T14:33:15Z</time></trkpt><trkpt lat="44.36146216164179" lon="9.143677173560434"><ele>9.0</ele><time>2026-03-28T14:33:17Z</time></trkpt><trkpt lat="44.36151187051513" lon="9.143576684666547"><ele>9.0</ele><time>2026-03-28T14:33:19Z</time></trkpt><trkpt lat="44.36155266657931" lon="9.143492629492128"><ele>9.0</ele><time>2026-03-28T14:33:22Z</time></trkpt><trkpt lat="44.36157279644521" lon="9.14340024393453"><ele>9.0</ele><time>2026-03-28T14:33:26Z</time></trkpt><trkpt lat="44.36159905724704" lon="9.143299989978479"><ele>9.0</ele><time>2026-03-28T14:33:29Z</time></trkpt><trkpt lat="44.361637354089396" lon="9.143192859863895"><ele>9.0</ele><time>2026-03-28T14:33:32Z</time></trkpt><trkpt lat="44.3616677513822" lon="9.143076664231893"><ele>9.0</ele><time>2026-03-28T14:33:34Z</time></trkpt><trkpt lat="44.36170745807421" lon="9.142953033648007"><ele>9.0</ele><time>2026-03-28T14:33:36Z</time></trkpt><trkpt lat="44.361746356105975" lon="9.142832221327186"><ele>9.0</ele><time>2026-03-28T14:33:38Z</time></trkpt><trkpt lat="44.361781552343636" lon="9.142745265217178"><ele>9.166666666666666</ele><time>2026-03-28T14:33:40Z</time></trkpt><trkpt lat="44.36192168466559" lon="9.142759695617496"><ele>9.333333333333334</ele><time>2026-03-28T14:33:45Z</time></trkpt><trkpt lat="44.361982566736366" lon="9.142794875851427"><ele>9.5</ele><time>2026-03-28T14:33:47Z</time></trkpt><trkpt lat="44.36204876268867" lon="9.142803609075386"><ele>9.666666666666668</ele><time>2026-03-28T14:33:50Z</time></trkpt><trkpt lat="44.36197286812135" lon="9.142783017561756"><ele>9.833333333333334</ele><time>2026-03-28T14:36:22.999Z</time></trkpt><trkpt lat="44.36191026043289" lon="9.142740989221329"><ele>10.0</ele><time>2026-03-28T14:36:29.999Z</time></trkpt><trkpt lat="44.36182804111291" lon="9.14273867240931"><ele>10.0</ele><time>2026-03-28T14:36:32.999Z</time></trkpt><trkpt lat="44.36175258685482" lon="9.14273517040458"><ele>10.0</ele><time>2026-03-28T14:36:36.999Z</time></trkpt><trkpt lat="44.36168956637849" lon="9.142738887619709"><ele>10.0</ele><time>2026-03-28T14:36:40.999Z</time></trkpt><trkpt lat="44.36161260201232" lon="9.142757099629627"><ele>10.0</ele><time>2026-03-28T14:36:45.999Z</time></trkpt><trkpt lat="44.361644904199935" lon="9.142885271039829"><ele>10.0</ele><time>2026-03-28T14:36:47.999Z</time></trkpt><trkpt lat="44.36160701465777" lon="9.142958968858839"><ele>10.0</ele><time>2026-03-28T14:36:51.999Z</time></trkpt><trkpt lat="44.361553846358746" lon="9.14301130322199"><ele>10.0</ele><time>2026-03-28T14:36:54.999Z</time></trkpt><trkpt lat="44.36165630745696" lon="9.143112841052602"><ele>10.0</ele><time>2026-03-28T14:36:56.999Z</time></trkpt><trkpt lat="44.36175345772887" lon="9.143176917249756"><ele>10.0</ele><time>2026-03-28T14:36:58.999Z</time></trkpt><trkpt lat="44.36168105167194" lon="9.143166832189133"><ele>10.0</ele><time>2026-03-28T14:37:03.999Z</time></trkpt><trkpt lat="44.361614568649486" lon="9.143194209602106"><ele>10.0</ele><time>2026-03-28T14:37:46Z</time></trkpt><trkpt lat="44.361551214346356" lon="9.143159575542285"><ele>10.0</ele><time>2026-03-28T14:38:01.999Z</time></trkpt><trkpt lat="44.36149470109127" lon="9.143111221877769"><ele>10.0</ele><time>2026-03-28T14:38:11.999Z</time></trkpt><trkpt lat="44.361421946498304" lon="9.143102536672524"><ele>8.5</ele><time>2026-03-28T14:38:16.999Z</time></trkpt><trkpt lat="44.36135714333321" lon="9.143087810187836"><ele>7.0</ele><time>2026-03-28T14:38:30.999Z</time></trkpt><trkpt lat="44.36128963322783" lon="9.143052989561712"><ele>5.5</ele><time>2026-03-28T14:38:35.999Z</time></trkpt><trkpt lat="44.36122455084798" lon="9.143023239724268"><ele>4.0</ele><time>2026-03-28T14:38:40.999Z</time></trkpt><trkpt lat="44.361163085602286" lon="9.142857092455127"><ele>2.5</ele><time>2026-03-28T14:38:43.999Z</time></trkpt><trkpt lat="44.36108171701254" lon="9.142875215954117"><ele>1.0</ele><time>2026-03-28T14:38:53.999Z</time></trkpt><trkpt lat="44.361026099190916" lon="9.142797322512507"><ele>1.0</ele><time>2026-03-28T14:38:57.999Z</time></trkpt><trkpt lat="44.360961064094205" lon="9.142789052667439"><ele>0.9999999999999999</ele><time>2026-03-28T14:39:04.999Z</time></trkpt><trkpt lat="44.360892005373216" lon="9.142767643378935"><ele>1.0</ele><time>2026-03-28T14:39:11.999Z</time></trkpt><trkpt lat="44.360828422537494" lon="9.142765234234771"><ele>1.0</ele><time>2026-03-28T14:39:16.999Z</time></trkpt><trkpt lat="44.360800435754385" lon="9.142849022021567"><ele>0.9999999999999999</ele><time>2026-03-28T14:39:26.999Z</time></trkpt><trkpt lat="44.36076754275213" lon="9.142925847695652"><ele>1.0</ele><time>2026-03-28T14:39:35.999Z</time></trkpt><trkpt lat="44.360742827961374" lon="9.143046028938839"><ele>1.0</ele><time>2026-03-28T14:39:52.999Z</time></trkpt><trkpt lat="44.360746201263126" lon="9.14313760744425"><ele>2.833333333333333</ele><time>2026-03-28T14:40:44.999Z</time></trkpt><trkpt lat="44.360782178074714" lon="9.143215478799451"><ele>4.666666666666667</ele><time>2026-03-28T14:41:30.999Z</time></trkpt><trkpt lat="44.36086991666637" lon="9.143258465345871"><ele>6.5</ele><time>2026-03-28T14:41:37Z</time></trkpt><trkpt lat="44.36093889748615" lon="9.14332964533639"><ele>8.333333333333334</ele><time>2026-03-28T14:41:43Z</time></trkpt><trkpt lat="44.36103598082332" lon="9.143370637560349"><ele>10.166666666666666</ele><time>2026-03-28T14:41:56Z</time></trkpt><trkpt lat="44.361104015932916" lon="9.143328432830206"><ele>12.0</ele><time>2026-03-28T14:42:13Z</time></trkpt><trkpt lat="44.36114637317275" lon="9.143261118381712"><ele>12.0</ele><time>2026-03-28T14:42:18Z</time></trkpt><trkpt lat="44.36127238241466" lon="9.143342124560746"><ele>12.0</ele><time>2026-03-28T14:42:26Z</time></trkpt><trkpt lat="44.36135288570922" lon="9.14336363757511"><ele>12.0</ele><time>2026-03-28T14:42:32Z</time></trkpt><trkpt lat="44.36141984625158" lon="9.14339434030108"><ele>12.0</ele><time>2026-03-28T14:42:37.999Z</time></trkpt><trkpt lat="44.361469540882226" lon="9.14331902079022"><ele>12.0</ele><time>2026-03-28T14:42:44.999Z</time></trkpt><trkpt lat="44.361530025278114" lon="9.143270996693554"><ele>12.0</ele><time>2026-03-28T14:42:49.999Z</time></trkpt><trkpt lat="44.36154312967232" lon="9.143184541721173"><ele>11.714285714285714</ele><time>2026-03-28T14:42:55.999Z</time></trkpt><trkpt lat="44.361615601822436" lon="9.14316914069087"><ele>11.428571428571429</ele><time>2026-03-28T14:43:41Z</time></trkpt><trkpt lat="44.36168768190262" lon="9.143204884593407"><ele>11.142857142857142</ele><time>2026-03-28T14:43:52Z</time></trkpt><trkpt lat="44.36172783492919" lon="9.143117916155353"><ele>10.857142857142858</ele><time>2026-03-28T14:43:59Z</time></trkpt><trkpt lat="44.3617410470976" lon="9.143014558882895"><ele>10.571428571428571</ele><time>2026-03-28T14:44:03Z</time></trkpt><trkpt lat="44.36171554233596" lon="9.142920861485772"><ele>10.285714285714285</ele><time>2026-03-28T14:44:06Z</time></trkpt><trkpt lat="44.36166902581481" lon="9.14283467619941"><ele>10.0</ele><time>2026-03-28T14:44:09Z</time></trkpt><trkpt lat="44.361615878498434" lon="9.142784215333668"><ele>10.0</ele><time>2026-03-28T14:44:11Z</time></trkpt><trkpt lat="44.361630946962045" lon="9.142667429987524"><ele>10.0</ele><time>2026-03-28T14:44:17Z</time></trkpt><trkpt lat="44.36170740212078" lon="9.142620450537361"><ele>10.0</ele><time>2026-03-28T14:44:21Z</time></trkpt><trkpt lat="44.361796392275146" lon="9.142638420046296"><ele>10.0</ele><time>2026-03-28T14:44:24Z</time></trkpt><trkpt lat="44.36187493626447" lon="9.142639938233085"><ele>10.0</ele><time>2026-03-28T14:44:26Z</time></trkpt><trkpt lat="44.361884977963925" lon="9.142541927226807"><ele>10.0</ele><time>2026-03-28T14:44:37Z</time></trkpt><trkpt lat="44.36184738480137" lon="9.142458878735976"><ele>10.0</ele><time>2026-03-28T14:44:41Z</time></trkpt><trkpt lat="44.36177843429426" lon="9.142357805240016"><ele>10.0</ele><time>2026-03-28T14:44:48Z</time></trkpt><trkpt lat="44.361848705489756" lon="9.142468348153999"><ele>10.0</ele><time>2026-03-28T14:44:55.999Z</time></trkpt><trkpt lat="44.36177913614699" lon="9.142529629049523"><ele>10.0</ele><time>2026-03-28T14:45:13.999Z</time></trkpt><trkpt lat="44.361899583642014" lon="9.142528446399739"><ele>10.0</ele><time>2026-03-28T14:47:13.999Z</time></trkpt><trkpt lat="44.3617620533347" lon="9.142560575312187"><ele>10.0</ele><time>2026-03-28T14:47:27.999Z</time></trkpt><trkpt lat="44.362090104301096" lon="9.142526099466851"><ele>10.0</ele><time>2026-03-28T14:48:18.014Z</time></trkpt><trkpt lat="44.361791378910084" lon="9.142562668037318"><ele>10.0</ele><time>2026-03-28T14:48:24.017Z</time></trkpt><trkpt lat="44.36200515371247" lon="9.14263841696935"><ele>10.0</ele><time>2026-03-28T14:48:53.014Z</time></trkpt><trkpt lat="44.36190243348885" lon="9.142530374237468"><ele>10.0</ele><time>2026-03-28T14:49:04.999Z</time></trkpt><trkpt lat="44.36181184858893" lon="9.142706190309022"><ele>10.0</ele><time>2026-03-28T14:49:05.999Z</time></trkpt><trkpt lat="44.361893871280145" lon="9.142618202383465"><ele>10.0</ele><time>2026-03-28T14:50:01Z</time></trkpt><trkpt lat="44.36202862023908" lon="9.14247962587694"><ele>10.0</ele><time>2026-03-28T14:50:02Z</time></trkpt><trkpt lat="44.36211355891036" lon="9.142537744395263"><ele>10.0</ele><time>2026-03-28T14:52:45Z</time></trkpt><trkpt lat="44.36217098170012" lon="9.142639012654914"><ele>10.0</ele><time>2026-03-28T14:55:04Z</time></trkpt><trkpt lat="44.36224920481311" lon="9.142537593567786"><ele>10.0</ele><time>2026-03-28T14:56:33.01Z</time></trkpt><trkpt lat="44.36215996951174" lon="9.14248811800414"><ele>10.0</ele><time>2026-03-28T14:56:36.999Z</time></trkpt><trkpt lat="44.36208325006717" lon="9.142465079559207"><ele>10.0</ele><time>2026-03-28T14:56:39.999Z</time></trkpt><trkpt lat="44.36201764922285" lon="9.142456384818255"><ele>10.0</ele><time>2026-03-28T14:56:41.999Z</time></trkpt><trkpt lat="44.361950829309436" lon="9.142474617795743"><ele>10.0</ele><time>2026-03-28T14:56:45Z</time></trkpt><trkpt lat="44.36189655089472" lon="9.142552595417282"><ele>10.0</ele><time>2026-03-28T14:56:49Z</time></trkpt><trkpt lat="44.36185072484508" lon="9.142631674987184"><ele>10.0</ele><time>2026-03-28T14:56:53Z</time></trkpt><trkpt lat="44.36197871301711" lon="9.142596021781134"><ele>10.0</ele><time>2026-03-28T14:56:57Z</time></trkpt><trkpt lat="44.36194362871223" lon="9.142671265122676"><ele>10.0</ele><time>2026-03-28T15:14:50.011Z</time></trkpt><trkpt lat="44.36189744564158" lon="9.142734469995647"><ele>10.0</ele><time>2026-03-28T15:14:56.011Z</time></trkpt><trkpt lat="44.361803048217034" lon="9.142574362000875"><ele>10.0</ele><time>2026-03-28T15:16:11.988Z</time></trkpt><trkpt lat="44.36187484391926" lon="9.142671616776257"><ele>10.0</ele><time>2026-03-28T15:16:14.988Z</time></trkpt><trkpt lat="44.36179915019379" lon="9.142699898538428"><ele>10.0</ele><time>2026-03-28T15:16:30.001Z</time></trkpt><trkpt lat="44.36176257350368" lon="9.142807704965612"><ele>10.0</ele><time>2026-03-28T15:16:34Z</time></trkpt><trkpt lat="44.36171978904812" lon="9.14287719097911"><ele>10.0</ele><time>2026-03-28T15:16:37Z</time></trkpt><trkpt lat="44.36164211176851" lon="9.142887357482719"><ele>10.0</ele><time>2026-03-28T15:16:39Z</time></trkpt><trkpt lat="44.36157070486362" lon="9.142922879717782"><ele>10.0</ele><time>2026-03-28T15:16:42Z</time></trkpt><trkpt lat="44.36152339018021" lon="9.142981970153947"><ele>10.0</ele><time>2026-03-28T15:16:45Z</time></trkpt><trkpt lat="44.36149581610423" lon="9.14313676208474"><ele>10.0</ele><time>2026-03-28T15:16:50Z</time></trkpt><trkpt lat="44.36156532635078" lon="9.143100002875189"><ele>10.0</ele><time>2026-03-28T15:16:56Z</time></trkpt><trkpt lat="44.361642657851" lon="9.143178606604293"><ele>10.0</ele><time>2026-03-28T15:16:58Z</time></trkpt><trkpt lat="44.36159770127637" lon="9.143110886695494"><ele>10.0</ele><time>2026-03-28T15:17:40.999Z</time></trkpt><trkpt lat="44.361531754724794" lon="9.143115261201153"><ele>10.0</ele><time>2026-03-28T15:17:53.999Z</time></trkpt><trkpt lat="44.36146248898181" lon="9.143116775190286"><ele>10.0</ele><time>2026-03-28T15:18:00.999Z</time></trkpt><trkpt lat="44.3614193949601" lon="9.14303578082262"><ele>10.0</ele><time>2026-03-28T15:18:06.999Z</time></trkpt><trkpt lat="44.3613730564601" lon="9.142961153630239"><ele>10.0</ele><time>2026-03-28T15:18:13.999Z</time></trkpt><trkpt lat="44.361326236386354" lon="9.142900879463422"><ele>10.0</ele><time>2026-03-28T15:18:15.999Z</time></trkpt><trkpt lat="44.36125641183274" lon="9.142901824360177"><ele>10.0</ele><time>2026-03-28T15:18:18.999Z</time></trkpt><trkpt lat="44.36118243892929" lon="9.14289374662611"><ele>10.0</ele><time>2026-03-28T15:18:21.999Z</time></trkpt><trkpt lat="44.36124605577208" lon="9.142849260225027"><ele>10.0</ele><time>2026-03-28T15:18:50Z</time></trkpt><trkpt lat="44.36129201781521" lon="9.14278048624798"><ele>10.0</ele><time>2026-03-28T15:18:57Z</time></trkpt><trkpt lat="44.36133576903018" lon="9.142703975235781"><ele>10.0</ele><time>2026-03-28T15:19:04Z</time></trkpt><trkpt lat="44.361380777472895" lon="9.142632807428871"><ele>10.0</ele><time>2026-03-28T15:19:11Z</time></trkpt><trkpt lat="44.361381976706035" lon="9.142539614883855"><ele>10.0</ele><time>2026-03-28T15:19:17Z</time></trkpt><trkpt lat="44.361378674311624" lon="9.142378937586605"><ele>10.0</ele><time>2026-03-28T15:25:13Z</time></trkpt><trkpt lat="44.361323128865415" lon="9.142315935495898"><ele>10.0</ele><time>2026-03-28T15:25:17Z</time></trkpt><trkpt lat="44.3613166229192" lon="9.142459561680335"><ele>10.0</ele><time>2026-03-28T15:25:33Z</time></trkpt><trkpt lat="44.36138543272289" lon="9.142419404795408"><ele>10.0</ele><time>2026-03-28T15:25:50Z</time></trkpt><trkpt lat="44.36132249428552" lon="9.142415327930927"><ele>10.0</ele><time>2026-03-28T15:26:41.999Z</time></trkpt><trkpt lat="44.361257553145784" lon="9.142475920509654"><ele>10.0</ele><time>2026-03-28T15:30:09Z</time></trkpt><trkpt lat="44.36105828677879" lon="9.14277417266403"><ele>8.5</ele><time>2026-03-28T15:34:11.013Z</time></trkpt><trkpt lat="44.36112705990121" lon="9.142660606698566"><ele>7.0</ele><time>2026-03-28T15:34:12.012Z</time></trkpt><trkpt lat="44.361208128209064" lon="9.142543017404428"><ele>5.5</ele><time>2026-03-28T15:34:13.014Z</time></trkpt><trkpt lat="44.36116674077425" lon="9.142610112159332"><ele>4.0</ele><time>2026-03-28T15:34:37Z</time></trkpt><trkpt lat="44.361103865472" lon="9.142587004211538"><ele>2.5</ele><time>2026-03-28T15:34:39Z</time></trkpt><trkpt lat="44.361026524124476" lon="9.142562877852267"><ele>1.0</ele><time>2026-03-28T15:34:40Z</time></trkpt><trkpt lat="44.36096579047303" lon="9.14244928300898"><ele>1.0</ele><time>2026-03-28T15:34:49Z</time></trkpt><trkpt lat="44.36087166532806" lon="9.142430163050683"><ele>1.0</ele><time>2026-03-28T15:34:53Z</time></trkpt><trkpt lat="44.36081116504222" lon="9.142370893145815"><ele>1.0</ele><time>2026-03-28T15:35:13Z</time></trkpt><trkpt lat="44.360857232032934" lon="9.14230727547067"><ele>1.0</ele><time>2026-03-28T15:35:32.999Z</time></trkpt><trkpt lat="44.36118262574936" lon="9.142353465464916"><ele>1.0</ele><time>2026-03-28T15:35:34.999Z</time></trkpt><trkpt lat="44.36126965095177" lon="9.142355957313972"><ele>1.0</ele><time>2026-03-28T15:35:35.999Z</time></trkpt><trkpt lat="44.36129515416184" lon="9.142443135322322"><ele>1.0</ele><time>2026-03-28T15:36:16.999Z</time></trkpt><trkpt lat="44.36152782552857" lon="9.142409115138864"><ele>1.0</ele><time>2026-03-28T15:37:48.999Z</time></trkpt><trkpt lat="44.36159128432149" lon="9.142414233662462"><ele>2.2857142857142856</ele><time>2026-03-28T15:37:51.999Z</time></trkpt><trkpt lat="44.36156790076133" lon="9.142511136604137"><ele>3.571428571428571</ele><time>2026-03-28T15:37:54.999Z</time></trkpt><trkpt lat="44.36151815733706" lon="9.14256568342849"><ele>4.857142857142857</ele><time>2026-03-28T15:38:01.999Z</time></trkpt><trkpt lat="44.361531933388314" lon="9.142470133053282"><ele>6.142857142857143</ele><time>2026-03-28T15:38:06.999Z</time></trkpt><trkpt lat="44.3615868853209" lon="9.1425207571793"><ele>7.428571428571429</ele><time>2026-03-28T15:38:09.999Z</time></trkpt><trkpt lat="44.36166980140756" lon="9.142552917231987"><ele>8.714285714285714</ele><time>2026-03-28T15:38:11.999Z</time></trkpt><trkpt lat="44.36174545435503" lon="9.14256341776082"><ele>10.0</ele><time>2026-03-28T15:38:15.999Z</time></trkpt><trkpt lat="44.361821431852086" lon="9.142544383527332"><ele>10.0</ele><time>2026-03-28T15:38:20.999Z</time></trkpt><trkpt lat="44.36181251133166" lon="9.142635909979331"><ele>10.0</ele><time>2026-03-28T15:38:33.999Z</time></trkpt><trkpt lat="44.3618565352823" lon="9.142704653478319"><ele>10.0</ele><time>2026-03-28T15:38:42Z</time></trkpt><trkpt lat="44.361912947829076" lon="9.142775874632369"><ele>10.0</ele><time>2026-03-28T15:38:47Z</time></trkpt><trkpt lat="44.36196551853764" lon="9.142827043733647"><ele>10.0</ele><time>2026-03-28T15:38:51Z</time></trkpt><trkpt lat="44.36203485102689" lon="9.142796010522964"><ele>10.0</ele><time>2026-03-28T15:38:57Z</time></trkpt><trkpt lat="44.36212283352875" lon="9.142756483068267"><ele>10.0</ele><time>2026-03-28T15:39:18Z</time></trkpt><trkpt lat="44.36208519075332" lon="9.142829158142733"><ele>10.0</ele><time>2026-03-28T15:44:11.999Z</time></trkpt><trkpt lat="44.362043114049115" lon="9.14290727446653"><ele>10.0</ele><time>2026-03-28T15:44:13.999Z</time></trkpt><trkpt lat="44.36199670744029" lon="9.143045459535555"><ele>10.0</ele><time>2026-03-28T15:44:15.999Z</time></trkpt><trkpt lat="44.36196734990047" lon="9.14318431634755"><ele>10.0</ele><time>2026-03-28T15:44:17.999Z</time></trkpt><trkpt lat="44.361928451077794" lon="9.143285628411219"><ele>10.0</ele><time>2026-03-28T15:44:19.999Z</time></trkpt><trkpt lat="44.361870374794215" lon="9.14340516944227"><ele>9.8</ele><time>2026-03-28T15:44:21.999Z</time></trkpt><trkpt lat="44.361805307754366" lon="9.143526645481574"><ele>9.6</ele><time>2026-03-28T15:44:23.999Z</time></trkpt><trkpt lat="44.36177142476674" lon="9.143607323755454"><ele>9.4</ele><time>2026-03-28T15:44:24.999Z</time></trkpt><trkpt lat="44.361724259314556" lon="9.143719627316413"><ele>9.2</ele><time>2026-03-28T15:44:26.999Z</time></trkpt><trkpt lat="44.36171505580528" lon="9.143812034455719"><ele>9.0</ele><time>2026-03-28T15:44:29.999Z</time></trkpt><trkpt lat="44.36155756766205" lon="9.14377010713975"><ele>9.0</ele><time>2026-03-28T15:44:33.999Z</time></trkpt><trkpt lat="44.361462439293305" lon="9.143709244016156"><ele>9.0</ele><time>2026-03-28T15:44:35.999Z</time></trkpt><trkpt lat="44.361382343618196" lon="9.143611258075959"><ele>9.0</ele><time>2026-03-28T15:44:37.999Z</time></trkpt><trkpt lat="44.36131612022893" lon="9.143715165299707"><ele>9.0</ele><time>2026-03-28T15:44:39.999Z</time></trkpt><trkpt lat="44.36136071230205" lon="9.143819780822803"><ele>9.0</ele><time>2026-03-28T15:44:41.999Z</time></trkpt><trkpt lat="44.3615028005083" lon="9.143797622813013"><ele>9.0</ele><time>2026-03-28T15:44:43.999Z</time></trkpt><trkpt lat="44.36160974505284" lon="9.143853297589141"><ele>9.0</ele><time>2026-03-28T15:44:45.999Z</time></trkpt><trkpt lat="44.361685284056115" lon="9.143911579483298"><ele>9.0</ele><time>2026-03-28T15:44:47.999Z</time></trkpt><trkpt lat="44.36176248552573" lon="9.143975553919407"><ele>9.0</ele><time>2026-03-28T15:44:49.999Z</time></trkpt><trkpt lat="44.36186335484335" lon="9.144048642029265"><ele>9.0</ele><time>2026-03-28T15:44:52Z</time></trkpt><trkpt lat="44.36194135006479" lon="9.144080689165047"><ele>9.0</ele><time>2026-03-28T15:44:54Z</time></trkpt><trkpt lat="44.36204816978979" lon="9.144141966756965"><ele>9.0</ele><time>2026-03-28T15:44:56Z</time></trkpt><trkpt lat="44.36212791348019" lon="9.144215917923496"><ele>9.0</ele><time>2026-03-28T15:44:58Z</time></trkpt><trkpt lat="44.3622265820533" lon="9.14429408523599"><ele>9.0</ele><time>2026-03-28T15:45:00Z</time></trkpt><trkpt lat="44.36228362716111" lon="9.144332983191308"><ele>9.0</ele><time>2026-03-28T15:45:01Z</time></trkpt><trkpt lat="44.362366326469285" lon="9.144375388576305"><ele>9.0</ele><time>2026-03-28T15:45:02Z</time></trkpt><trkpt lat="44.36243273859237" lon="9.144446231482076"><ele>9.0</ele><time>2026-03-28T15:45:04Z</time></trkpt><trkpt lat="44.36244824606744" lon="9.144542741256291"><ele>9.0</ele><time>2026-03-28T15:45:06Z</time></trkpt><trkpt lat="44.362533090989594" lon="9.144560506144922"><ele>9.0</ele><time>2026-03-28T15:45:08Z</time></trkpt><trkpt lat="44.362623764959295" lon="9.144552517641948"><ele>9.0</ele><time>2026-03-28T15:45:10Z</time></trkpt><trkpt lat="44.36270011275845" lon="9.144565059976474"><ele>9.0</ele><time>2026-03-28T15:45:12Z</time></trkpt><trkpt lat="44.36277729514984" lon="9.144609215066135"><ele>9.0</ele><time>2026-03-28T15:45:17Z</time></trkpt><trkpt lat="44.3628798428699" lon="9.14469333359917"><ele>9.0</ele><time>2026-03-28T15:45:19Z</time></trkpt><trkpt lat="44.36296614584057" lon="9.144741861506782"><ele>9.0</ele><time>2026-03-28T15:45:20Z</time></trkpt><trkpt lat="44.36303196772375" lon="9.144785498326314"><ele>9.0</ele><time>2026-03-28T15:45:21Z</time></trkpt><trkpt lat="44.36313064609342" lon="9.144858023245506"><ele>9.0</ele><time>2026-03-28T15:45:23Z</time></trkpt><trkpt lat="44.363204741352746" lon="9.14490320687764"><ele>8.8</ele><time>2026-03-28T15:45:24Z</time></trkpt><trkpt lat="44.363280263318316" lon="9.144965699499142"><ele>8.600000000000001</ele><time>2026-03-28T15:45:25Z</time></trkpt><trkpt lat="44.36335760936095" lon="9.145037702453312"><ele>8.4</ele><time>2026-03-28T15:45:26Z</time></trkpt><trkpt lat="44.36343659540383" lon="9.145117861473476"><ele>8.200000000000001</ele><time>2026-03-28T15:45:27Z</time></trkpt><trkpt lat="44.363511443565486" lon="9.145215326147465"><ele>8.0</ele><time>2026-03-28T15:45:28Z</time></trkpt><trkpt lat="44.363563871409106" lon="9.145298475627225"><ele>8.0</ele><time>2026-03-28T15:45:29Z</time></trkpt><trkpt lat="44.363615608626304" lon="9.145376916228045"><ele>8.0</ele><time>2026-03-28T15:45:35Z</time></trkpt><trkpt lat="44.36366937702844" lon="9.145473543800962"><ele>8.0</ele><time>2026-03-28T15:45:37Z</time></trkpt><trkpt lat="44.363760789177725" lon="9.145612114817709"><ele>8.0</ele><time>2026-03-28T15:45:39Z</time></trkpt><trkpt lat="44.363816184304135" lon="9.14569466745657"><ele>8.0</ele><time>2026-03-28T15:45:40Z</time></trkpt><trkpt lat="44.36386940750295" lon="9.145774722443498"><ele>7.800000000000001</ele><time>2026-03-28T15:45:41Z</time></trkpt><trkpt lat="44.36392403210294" lon="9.14585719169494"><ele>7.6000000000000005</ele><time>2026-03-28T15:45:42Z</time></trkpt><trkpt lat="44.36398710983804" lon="9.145919335557249"><ele>7.3999999999999995</ele><time>2026-03-28T15:45:43Z</time></trkpt><trkpt lat="44.36403919239447" lon="9.14601113564521"><ele>7.199999999999999</ele><time>2026-03-28T15:45:44Z</time></trkpt><trkpt lat="44.36410276974785" lon="9.146120144777349"><ele>7.0</ele><time>2026-03-28T15:45:45Z</time></trkpt><trkpt lat="44.36417726432799" lon="9.146235705023043"><ele>7.0</ele><time>2026-03-28T15:45:46Z</time></trkpt><trkpt lat="44.364249292705956" lon="9.146348696061436"><ele>6.999999999999999</ele><time>2026-03-28T15:45:47Z</time></trkpt><trkpt lat="44.364329719153176" lon="9.14646000690201"><ele>6.999999999999999</ele><time>2026-03-28T15:45:48Z</time></trkpt><trkpt lat="44.364407015619534" lon="9.146570171431915"><ele>7.0</ele><time>2026-03-28T15:45:49Z</time></trkpt><trkpt lat="44.36448561117059" lon="9.146663477548282"><ele>7.0</ele><time>2026-03-28T15:45:50Z</time></trkpt><trkpt lat="44.36455553669292" lon="9.14674241049535"><ele>7.199999999999999</ele><time>2026-03-28T15:45:51Z</time></trkpt><trkpt lat="44.364647287496446" lon="9.146794686344776"><ele>7.3999999999999995</ele><time>2026-03-28T15:45:52Z</time></trkpt><trkpt lat="44.364747389803625" lon="9.146830587734778"><ele>7.6000000000000005</ele><time>2026-03-28T15:45:53Z</time></trkpt><trkpt lat="44.36484837659806" lon="9.146840645240719"><ele>7.800000000000001</ele><time>2026-03-28T15:45:54Z</time></trkpt><trkpt lat="44.364943204096875" lon="9.146850344080537"><ele>8.0</ele><time>2026-03-28T15:45:55Z</time></trkpt><trkpt lat="44.365046961236885" lon="9.146851072492678"><ele>7.999999999999999</ele><time>2026-03-28T15:45:56Z</time></trkpt><trkpt lat="44.36512954440695" lon="9.146848420387874"><ele>8.0</ele><time>2026-03-28T15:45:56.999Z</time></trkpt><trkpt lat="44.365209410944765" lon="9.146836921196028"><ele>8.0</ele><time>2026-03-28T15:45:57.999Z</time></trkpt><trkpt lat="44.36529144328256" lon="9.146814788495076"><ele>8.0</ele><time>2026-03-28T15:45:58.999Z</time></trkpt><trkpt lat="44.36535739497189" lon="9.146797250244354"><ele>7.999999999999999</ele><time>2026-03-28T15:45:59.999Z</time></trkpt><trkpt lat="44.36546362757503" lon="9.146806157388363"><ele>8.0</ele><time>2026-03-28T15:46:01.999Z</time></trkpt><trkpt lat="44.3655294587893" lon="9.146853584645909"><ele>7.800000000000001</ele><time>2026-03-28T15:46:04.999Z</time></trkpt><trkpt lat="44.36559177489337" lon="9.146838816033767"><ele>7.6000000000000005</ele><time>2026-03-28T15:46:21.999Z</time></trkpt><trkpt lat="44.365663137619684" lon="9.146960553700385"><ele>7.3999999999999995</ele><time>2026-03-28T15:48:30.999Z</time></trkpt><trkpt lat="44.36571035061774" lon="9.146868076855643"><ele>7.199999999999999</ele><time>2026-03-28T15:49:27Z</time></trkpt><trkpt lat="44.365655194236375" lon="9.146805118346748"><ele>7.0</ele><time>2026-03-28T15:50:12.999Z</time></trkpt><trkpt lat="44.36583733715128" lon="9.146732339602528"><ele>7.000000000000001</ele><time>2026-03-28T15:50:19.999Z</time></trkpt><trkpt lat="44.36591591069566" lon="9.146718334038635"><ele>7.0</ele><time>2026-03-28T15:50:20.999Z</time></trkpt><trkpt lat="44.365988584758625" lon="9.14670455936137"><ele>7.0</ele><time>2026-03-28T15:50:21.999Z</time></trkpt><trkpt lat="44.366068296898604" lon="9.14669231420318"><ele>7.0</ele><time>2026-03-28T15:50:22.999Z</time></trkpt><trkpt lat="44.366152397910874" lon="9.146677507596998"><ele>7.000000000000001</ele><time>2026-03-28T15:50:23.999Z</time></trkpt><trkpt lat="44.36623014415739" lon="9.146657813364797"><ele>7.0</ele><time>2026-03-28T15:50:24.999Z</time></trkpt><trkpt lat="44.36629776506909" lon="9.14664887119218"><ele>7.000000000000001</ele><time>2026-03-28T15:50:25.999Z</time></trkpt><trkpt lat="44.366417378391304" lon="9.146626042779387"><ele>7.0</ele><time>2026-03-28T15:50:27.999Z</time></trkpt><trkpt lat="44.36648812865862" lon="9.146636053626098"><ele>7.0</ele><time>2026-03-28T15:50:28.999Z</time></trkpt><trkpt lat="44.36655967654471" lon="9.146622740657634"><ele>7.0</ele><time>2026-03-28T15:50:29.999Z</time></trkpt><trkpt lat="44.36666804953378" lon="9.146602577421099"><ele>7.000000000000001</ele><time>2026-03-28T15:50:31.999Z</time></trkpt><trkpt lat="44.366737609527924" lon="9.146589634349388"><ele>7.0</ele><time>2026-03-28T15:50:32.999Z</time></trkpt><trkpt lat="44.36680445110134" lon="9.14657792029012"><ele>7.000000000000001</ele><time>2026-03-28T15:50:33.999Z</time></trkpt><trkpt lat="44.36693014869551" lon="9.146558599652629"><ele>7.0</ele><time>2026-03-28T15:50:35.999Z</time></trkpt><trkpt lat="44.366995803103855" lon="9.146553990705014"><ele>7.0</ele><time>2026-03-28T15:50:36.999Z</time></trkpt><trkpt lat="44.36705949060197" lon="9.146532575002228"><ele>7.0</ele><time>2026-03-28T15:50:37.999Z</time></trkpt><trkpt lat="44.3671241769067" lon="9.146564133269509"><ele>7.000000000000001</ele><time>2026-03-28T15:50:38.999Z</time></trkpt><trkpt lat="44.367197381756554" lon="9.146584600216618"><ele>7.0</ele><time>2026-03-28T15:50:39.999Z</time></trkpt><trkpt lat="44.36727230653496" lon="9.146617757210297"><ele>7.3999999999999995</ele><time>2026-03-28T15:50:40.999Z</time></trkpt><trkpt lat="44.367339608037355" lon="9.146650426142697"><ele>7.799999999999999</ele><time>2026-03-28T15:50:41.999Z</time></trkpt><trkpt lat="44.3674418672797" lon="9.14671551587859"><ele>8.2</ele><time>2026-03-28T15:50:43.999Z</time></trkpt><trkpt lat="44.367526956848515" lon="9.146777773310648"><ele>8.6</ele><time>2026-03-28T15:50:46.999Z</time></trkpt><trkpt lat="44.36761009955641" lon="9.146849189039738"><ele>9.0</ele><time>2026-03-28T15:50:48.999Z</time></trkpt><trkpt lat="44.36769903881908" lon="9.146952374697062"><ele>9.0</ele><time>2026-03-28T15:50:50.999Z</time></trkpt><trkpt lat="44.36774493385822" lon="9.147027106744043"><ele>9.0</ele><time>2026-03-28T15:50:51.999Z</time></trkpt><trkpt lat="44.36779261775351" lon="9.147110829289511"><ele>9.0</ele><time>2026-03-28T15:50:52.999Z</time></trkpt><trkpt lat="44.367853748309614" lon="9.147229909780965"><ele>9.0</ele><time>2026-03-28T15:50:54.999Z</time></trkpt><trkpt lat="44.36791647545662" lon="9.147354713811305"><ele>9.0</ele><time>2026-03-28T15:50:56.999Z</time></trkpt><trkpt lat="44.36796201816845" lon="9.147448579271071"><ele>9.0</ele><time>2026-03-28T15:50:58.999Z</time></trkpt><trkpt lat="44.36800946871585" lon="9.147546376603787"><ele>8.6</ele><time>2026-03-28T15:51:00.999Z</time></trkpt><trkpt lat="44.36805526761542" lon="9.147640772740603"><ele>8.2</ele><time>2026-03-28T15:51:02.999Z</time></trkpt><trkpt lat="44.36817292717482" lon="9.147540029476398"><ele>7.799999999999999</ele><time>2026-03-28T15:51:03.999Z</time></trkpt><trkpt lat="44.3682267838536" lon="9.14747317419753"><ele>7.3999999999999995</ele><time>2026-03-28T15:51:04.999Z</time></trkpt><trkpt lat="44.36832810894397" lon="9.147386265340042"><ele>7.0</ele><time>2026-03-28T15:51:06.999Z</time></trkpt><trkpt lat="44.36838926108553" lon="9.14733018144535"><ele>8.0</ele><time>2026-03-28T15:51:07.999Z</time></trkpt><trkpt lat="44.368460234758025" lon="9.147264989884196"><ele>9.0</ele><time>2026-03-28T15:51:08.999Z</time></trkpt><trkpt lat="44.368534845593864" lon="9.147196457485666"><ele>10.0</ele><time>2026-03-28T15:51:10Z</time></trkpt><trkpt lat="44.36861224395386" lon="9.147123731262763"><ele>11.0</ele><time>2026-03-28T15:51:11Z</time></trkpt><trkpt lat="44.36869827906596" lon="9.147042816708936"><ele>12.0</ele><time>2026-03-28T15:51:12Z</time></trkpt><trkpt lat="44.368787030374634" lon="9.146965508062353"><ele>12.8</ele><time>2026-03-28T15:51:13Z</time></trkpt><trkpt lat="44.36887588033936" lon="9.146899166054625"><ele>13.6</ele><time>2026-03-28T15:51:14Z</time></trkpt><trkpt lat="44.368965854105014" lon="9.146841637050384"><ele>14.400000000000002</ele><time>2026-03-28T15:51:15Z</time></trkpt><trkpt lat="44.369056964528085" lon="9.146786531459234"><ele>15.200000000000001</ele><time>2026-03-28T15:51:16Z</time></trkpt><trkpt lat="44.369138812963676" lon="9.146734816964727"><ele>16.0</ele><time>2026-03-28T15:51:17Z</time></trkpt><trkpt lat="44.369221228761425" lon="9.146680361154012"><ele>15.999999999999998</ele><time>2026-03-28T15:51:18Z</time></trkpt><trkpt lat="44.36930246592522" lon="9.146626523701034"><ele>16.0</ele><time>2026-03-28T15:51:19Z</time></trkpt><trkpt lat="44.36938086891214" lon="9.146574276685758"><ele>16.0</ele><time>2026-03-28T15:51:20Z</time></trkpt><trkpt lat="44.36945564341111" lon="9.146526750949018"><ele>16.0</ele><time>2026-03-28T15:51:21Z</time></trkpt><trkpt lat="44.36952857435484" lon="9.146480907406271"><ele>15.999999999999998</ele><time>2026-03-28T15:51:22Z</time></trkpt><trkpt lat="44.36960246653655" lon="9.146436997668626"><ele>16.0</ele><time>2026-03-28T15:51:23Z</time></trkpt><trkpt lat="44.369672335957716" lon="9.14641568722361"><ele>18.4</ele><time>2026-03-28T15:51:24Z</time></trkpt><trkpt lat="44.36975685670508" lon="9.146395457014435"><ele>20.8</ele><time>2026-03-28T15:51:25Z</time></trkpt><trkpt lat="44.36985596370001" lon="9.146437383675066"><ele>23.199999999999996</ele><time>2026-03-28T15:51:26Z</time></trkpt><trkpt lat="44.36993340891744" lon="9.146485730111372"><ele>25.599999999999998</ele><time>2026-03-28T15:51:27Z</time></trkpt><trkpt lat="44.37001388752921" lon="9.14654816915041"><ele>28.0</ele><time>2026-03-28T15:51:28Z</time></trkpt><trkpt lat="44.370081407205745" lon="9.146642175185283"><ele>28.0</ele><time>2026-03-28T15:51:29Z</time></trkpt><trkpt lat="44.370131048022685" lon="9.146750946126161"><ele>27.999999999999996</ele><time>2026-03-28T15:51:30Z</time></trkpt><trkpt lat="44.370165776657" lon="9.14686770577156"><ele>27.999999999999996</ele><time>2026-03-28T15:51:31Z</time></trkpt><trkpt lat="44.37019782408008" lon="9.146991481893009"><ele>28.0</ele><time>2026-03-28T15:51:32Z</time></trkpt><trkpt lat="44.370234195643285" lon="9.147115813816447"><ele>28.0</ele><time>2026-03-28T15:51:33Z</time></trkpt><trkpt lat="44.370272001606196" lon="9.147252723437255"><ele>26.799999999999997</ele><time>2026-03-28T15:51:34Z</time></trkpt><trkpt lat="44.37031517147667" lon="9.147382735418418"><ele>25.599999999999998</ele><time>2026-03-28T15:51:35Z</time></trkpt><trkpt lat="44.37036612975446" lon="9.147516949785794"><ele>24.4</ele><time>2026-03-28T15:51:36Z</time></trkpt><trkpt lat="44.37042626210101" lon="9.147651291514222"><ele>23.200000000000003</ele><time>2026-03-28T15:51:37Z</time></trkpt><trkpt lat="44.370481301642634" lon="9.147798382906153"><ele>22.0</ele><time>2026-03-28T15:51:38Z</time></trkpt><trkpt lat="44.37056309263022" lon="9.147934033447475"><ele>24.0</ele><time>2026-03-28T15:51:39Z</time></trkpt><trkpt lat="44.370663941873445" lon="9.148052152072443"><ele>26.0</ele><time>2026-03-28T15:51:40Z</time></trkpt><trkpt lat="44.37075696579891" lon="9.148185247779086"><ele>28.0</ele><time>2026-03-28T15:51:41Z</time></trkpt><trkpt lat="44.37084949229152" lon="9.148314402092877"><ele>30.0</ele><time>2026-03-28T15:51:42Z</time></trkpt><trkpt lat="44.37093506754085" lon="9.148440372608006"><ele>30.0</ele><time>2026-03-28T15:51:43Z</time></trkpt><trkpt lat="44.37102091885231" lon="9.14855738558303"><ele>30.0</ele><time>2026-03-28T15:51:44Z</time></trkpt><trkpt lat="44.37111350436944" lon="9.148657877389285"><ele>30.0</ele><time>2026-03-28T15:51:45Z</time></trkpt><trkpt lat="44.371212425012004" lon="9.148741102730675"><ele>30.0</ele><time>2026-03-28T15:51:46Z</time></trkpt><trkpt lat="44.37131898514492" lon="9.148797335162833"><ele>39.25</ele><time>2026-03-28T15:51:47Z</time></trkpt><trkpt lat="44.37143106547497" lon="9.148864523576277"><ele>48.5</ele><time>2026-03-28T15:51:48Z</time></trkpt><trkpt lat="44.37154985904755" lon="9.148873913098551"><ele>57.75</ele><time>2026-03-28T15:51:49Z</time></trkpt><trkpt lat="44.37167634582993" lon="9.148903373272239"><ele>67.0</ele><time>2026-03-28T15:51:50Z</time></trkpt><trkpt lat="44.37180299405819" lon="9.148932180540243"><ele>67.0</ele><time>2026-03-28T15:51:51Z</time></trkpt><trkpt lat="44.37193021167635" lon="9.148961126642902"><ele>67.0</ele><time>2026-03-28T15:51:52Z</time></trkpt><trkpt lat="44.3720588938227" lon="9.148984441515747"><ele>67.0</ele><time>2026-03-28T15:51:53Z</time></trkpt><trkpt lat="44.372190376732014" lon="9.149009754508752"><ele>67.0</ele><time>2026-03-28T15:51:54Z</time></trkpt><trkpt lat="44.37232897281713" lon="9.149040646153976"><ele>59.75</ele><time>2026-03-28T15:51:55Z</time></trkpt><trkpt lat="44.372467898869715" lon="9.149081758926657"><ele>52.5</ele><time>2026-03-28T15:51:56Z</time></trkpt><trkpt lat="44.37261169626911" lon="9.149070010817148"><ele>45.25</ele><time>2026-03-28T15:51:57Z</time></trkpt><trkpt lat="44.37275615254117" lon="9.149061709690548"><ele>38.0</ele><time>2026-03-28T15:51:58Z</time></trkpt><trkpt lat="44.37290675039237" lon="9.149062105799214"><ele>38.666666666666664</ele><time>2026-03-28T15:51:59Z</time></trkpt><trkpt lat="44.37306345186257" lon="9.149048276283446"><ele>39.333333333333336</ele><time>2026-03-28T15:52:00Z</time></trkpt><trkpt lat="44.37321437176582" lon="9.149034957010851"><ele>40.0</ele><time>2026-03-28T15:52:01Z</time></trkpt><trkpt lat="44.373365218428475" lon="9.149021644205405"><ele>49.5</ele><time>2026-03-28T15:52:02Z</time></trkpt><trkpt lat="44.373507023293044" lon="9.149009129370814"><ele>59.0</ele><time>2026-03-28T15:52:03Z</time></trkpt><trkpt lat="44.3736464722055" lon="9.148996822459528"><ele>68.5</ele><time>2026-03-28T15:52:04Z</time></trkpt><trkpt lat="44.37378080011994" lon="9.14898764693732"><ele>78.0</ele><time>2026-03-28T15:52:05Z</time></trkpt><trkpt lat="44.3739116413133" lon="9.14898151138665"><ele>78.0</ele><time>2026-03-28T15:52:06Z</time></trkpt><trkpt lat="44.37403289675022" lon="9.149002105022879"><ele>78.0</ele><time>2026-03-28T15:52:07Z</time></trkpt><trkpt lat="44.374148668703754" lon="9.149064532712295"><ele>78.0</ele><time>2026-03-28T15:52:08Z</time></trkpt><trkpt lat="44.37425532413304" lon="9.149168997584201"><ele>78.0</ele><time>2026-03-28T15:52:09Z</time></trkpt><trkpt lat="44.37433701416412" lon="9.149304135657205"><ele>71.5</ele><time>2026-03-28T15:52:10Z</time></trkpt><trkpt lat="44.37441209601927" lon="9.149433875479119"><ele>65.0</ele><time>2026-03-28T15:52:11Z</time></trkpt><trkpt lat="44.37448866908992" lon="9.149567481895225"><ele>58.5</ele><time>2026-03-28T15:52:12Z</time></trkpt><trkpt lat="44.37458301267154" lon="9.14967649764243"><ele>52.0</ele><time>2026-03-28T15:52:12.999Z</time></trkpt><trkpt lat="44.37468634116587" lon="9.149772087739471"><ele>55.5</ele><time>2026-03-28T15:52:13.999Z</time></trkpt><trkpt lat="44.37481429714918" lon="9.149803883752032"><ele>59.0</ele><time>2026-03-28T15:52:14.999Z</time></trkpt><trkpt lat="44.37493350683108" lon="9.149755017956128"><ele>62.5</ele><time>2026-03-28T15:52:15.999Z</time></trkpt><trkpt lat="44.3750528925665" lon="9.14972523762433"><ele>66.0</ele><time>2026-03-28T15:52:16.999Z</time></trkpt><trkpt lat="44.375150651316225" lon="9.149605667144852"><ele>66.0</ele><time>2026-03-28T15:52:17.999Z</time></trkpt><trkpt lat="44.37522463880243" lon="9.149478535788083"><ele>66.0</ele><time>2026-03-28T15:52:18.999Z</time></trkpt><trkpt lat="44.37527244289795" lon="9.149327608812253"><ele>66.0</ele><time>2026-03-28T15:52:19.999Z</time></trkpt><trkpt lat="44.37532405355229" lon="9.149179089181803"><ele>66.0</ele><time>2026-03-28T15:52:20.999Z</time></trkpt><trkpt lat="44.37536158674502" lon="9.149020695621136"><ele>72.25</ele><time>2026-03-28T15:52:21.999Z</time></trkpt><trkpt lat="44.37539798321077" lon="9.148858786190974"><ele>78.5</ele><time>2026-03-28T15:52:22.999Z</time></trkpt><trkpt lat="44.37543633623285" lon="9.148696722173469"><ele>84.75</ele><time>2026-03-28T15:52:23.999Z</time></trkpt><trkpt lat="44.37547695817775" lon="9.14853955301836"><ele>91.0</ele><time>2026-03-28T15:52:24.999Z</time></trkpt><trkpt lat="44.37551332361315" lon="9.148380596205387"><ele>87.75</ele><time>2026-03-28T15:52:25.999Z</time></trkpt><trkpt lat="44.3755741311484" lon="9.14824173912727"><ele>84.5</ele><time>2026-03-28T15:52:26.999Z</time></trkpt><trkpt lat="44.37564030546968" lon="9.148112073640473"><ele>81.25</ele><time>2026-03-28T15:52:27.999Z</time></trkpt><trkpt lat="44.37570816534714" lon="9.147989378942682"><ele>78.0</ele><time>2026-03-28T15:52:28.999Z</time></trkpt><trkpt lat="44.37577392371668" lon="9.147867463010385"><ele>78.0</ele><time>2026-03-28T15:52:29.999Z</time></trkpt><trkpt lat="44.3758397457145" lon="9.147748513223581"><ele>78.0</ele><time>2026-03-28T15:52:30.999Z</time></trkpt><trkpt lat="44.3759046136695" lon="9.14763854738735"><ele>78.0</ele><time>2026-03-28T15:52:31.999Z</time></trkpt><trkpt lat="44.37596644818574" lon="9.147541507755394"><ele>78.0</ele><time>2026-03-28T15:52:32.999Z</time></trkpt><trkpt lat="44.376033510913075" lon="9.14747131547258"><ele>78.0</ele><time>2026-03-28T15:52:33.999Z</time></trkpt><trkpt lat="44.37610197073456" lon="9.147419933273778"><ele>78.0</ele><time>2026-03-28T15:52:34.999Z</time></trkpt><trkpt lat="44.37616456823314" lon="9.147387408362942"><ele>78.0</ele><time>2026-03-28T15:52:35.999Z</time></trkpt><trkpt lat="44.37626544200308" lon="9.147295354314268"><ele>78.0</ele><time>2026-03-28T15:52:37.999Z</time></trkpt><trkpt lat="44.37632966325329" lon="9.147237710728499"><ele>78.0</ele><time>2026-03-28T15:52:38.999Z</time></trkpt><trkpt lat="44.37639667271758" lon="9.147174321197088"><ele>78.0</ele><time>2026-03-28T15:52:39.999Z</time></trkpt><trkpt lat="44.37645558426724" lon="9.14711228965352"><ele>78.0</ele><time>2026-03-28T15:52:40.999Z</time></trkpt><trkpt lat="44.37654084022715" lon="9.147008612721297"><ele>76.4</ele><time>2026-03-28T15:52:42.999Z</time></trkpt><trkpt lat="44.3766226559054" lon="9.146895933824107"><ele>74.8</ele><time>2026-03-28T15:52:44.999Z</time></trkpt><trkpt lat="44.3767000547492" lon="9.146780880988738"><ele>73.2</ele><time>2026-03-28T15:52:46.999Z</time></trkpt><trkpt lat="44.3767941795753" lon="9.146626715177474"><ele>71.6</ele><time>2026-03-28T15:52:48.999Z</time></trkpt><trkpt lat="44.37683798074431" lon="9.146546133260609"><ele>70.0</ele><time>2026-03-28T15:52:49.999Z</time></trkpt><trkpt lat="44.37690855768501" lon="9.146399994307616"><ele>72.42857142857143</ele><time>2026-03-28T15:52:51.999Z</time></trkpt><trkpt lat="44.37692681920772" lon="9.146305116234277"><ele>74.85714285714286</ele><time>2026-03-28T15:52:52.999Z</time></trkpt><trkpt lat="44.376947987743954" lon="9.14621263835111"><ele>77.28571428571428</ele><time>2026-03-28T15:52:53.999Z</time></trkpt><trkpt lat="44.37696823817734" lon="9.146118122593611"><ele>79.71428571428572</ele><time>2026-03-28T15:52:54.999Z</time></trkpt><trkpt lat="44.3770039021861" lon="9.146021886931482"><ele>82.14285714285714</ele><time>2026-03-28T15:52:55.999Z</time></trkpt><trkpt lat="44.37708484411428" lon="9.145985880282925"><ele>84.57142857142857</ele><time>2026-03-28T15:52:56.999Z</time></trkpt><trkpt lat="44.37715402143303" lon="9.145949186014763"><ele>87.0</ele><time>2026-03-28T15:52:57.999Z</time></trkpt><trkpt lat="44.37723003196631" lon="9.145942004506056"><ele>88.0</ele><time>2026-03-28T15:52:58.999Z</time></trkpt><trkpt lat="44.37730644916386" lon="9.14600674167895"><ele>89.0</ele><time>2026-03-28T15:52:59.999Z</time></trkpt><trkpt lat="44.37736728877464" lon="9.146102148146413"><ele>90.0</ele><time>2026-03-28T15:53:00.999Z</time></trkpt><trkpt lat="44.37742566396491" lon="9.146201761856934"><ele>91.0</ele><time>2026-03-28T15:53:01.999Z</time></trkpt><trkpt lat="44.37743994550958" lon="9.146343741453396"><ele>92.0</ele><time>2026-03-28T15:53:02.999Z</time></trkpt><trkpt lat="44.37743276219019" lon="9.146485010208774"><ele>91.19999999999999</ele><time>2026-03-28T15:53:03.999Z</time></trkpt><trkpt lat="44.377415675163036" lon="9.146627118923263"><ele>90.4</ele><time>2026-03-28T15:53:04.999Z</time></trkpt><trkpt lat="44.37739497027187" lon="9.146767506988372"><ele>89.6</ele><time>2026-03-28T15:53:05.999Z</time></trkpt><trkpt lat="44.37737231245049" lon="9.146917847183824"><ele>88.80000000000001</ele><time>2026-03-28T15:53:06.999Z</time></trkpt><trkpt lat="44.377348121213146" lon="9.147076054898003"><ele>88.0</ele><time>2026-03-28T15:53:07.999Z</time></trkpt><trkpt lat="44.37730516527475" lon="9.147236468924346"><ele>90.75</ele><time>2026-03-28T15:53:08.999Z</time></trkpt><trkpt lat="44.377269049544736" lon="9.14740224358023"><ele>93.5</ele><time>2026-03-28T15:53:09.999Z</time></trkpt><trkpt lat="44.37722377337014" lon="9.147567841691933"><ele>96.25</ele><time>2026-03-28T15:53:10.999Z</time></trkpt><trkpt lat="44.37718676858295" lon="9.147735204176197"><ele>99.0</ele><time>2026-03-28T15:53:11.999Z</time></trkpt><trkpt lat="44.37714860895022" lon="9.147906084536942"><ele>91.0</ele><time>2026-03-28T15:53:12.999Z</time></trkpt><trkpt lat="44.37710868931973" lon="9.14807849300119"><ele>83.0</ele><time>2026-03-28T15:53:13.999Z</time></trkpt><trkpt lat="44.37706885442447" lon="9.148253408227498"><ele>75.0</ele><time>2026-03-28T15:53:14.999Z</time></trkpt><trkpt lat="44.377029213124395" lon="9.148427762861703"><ele>67.0</ele><time>2026-03-28T15:53:16Z</time></trkpt><trkpt lat="44.37699339094938" lon="9.148607457126754"><ele>66.75</ele><time>2026-03-28T15:53:17Z</time></trkpt><trkpt lat="44.37695189928483" lon="9.148781742602067"><ele>66.5</ele><time>2026-03-28T15:53:18Z</time></trkpt><trkpt lat="44.37691384461953" lon="9.1489515599482"><ele>66.25</ele><time>2026-03-28T15:53:19Z</time></trkpt><trkpt lat="44.376879220097564" lon="9.14911154425699"><ele>66.0</ele><time>2026-03-28T15:53:20Z</time></trkpt><trkpt lat="44.37684741108033" lon="9.14925148488863"><ele>66.0</ele><time>2026-03-28T15:53:21Z</time></trkpt><trkpt lat="44.376818903098574" lon="9.14938144680607"><ele>66.0</ele><time>2026-03-28T15:53:22Z</time></trkpt><trkpt lat="44.376779429665326" lon="9.149508469380246"><ele>66.0</ele><time>2026-03-28T15:53:23Z</time></trkpt><trkpt lat="44.37680277235276" lon="9.149656493248841"><ele>66.0</ele><time>2026-03-28T15:53:24Z</time></trkpt><trkpt lat="44.37685244631174" lon="9.149777206943073"><ele>66.0</ele><time>2026-03-28T15:53:25Z</time></trkpt><trkpt lat="44.376939239580395" lon="9.149858134055371"><ele>66.0</ele><time>2026-03-28T15:53:26Z</time></trkpt><trkpt lat="44.377044426550434" lon="9.149885698032707"><ele>66.0</ele><time>2026-03-28T15:53:27Z</time></trkpt><trkpt lat="44.3771443852376" lon="9.149815685882569"><ele>66.0</ele><time>2026-03-28T15:53:28Z</time></trkpt><trkpt lat="44.377215988935134" lon="9.149724931163476"><ele>66.0</ele><time>2026-03-28T15:53:29Z</time></trkpt><trkpt lat="44.377263272619366" lon="9.149598631974987"><ele>66.0</ele><time>2026-03-28T15:53:30Z</time></trkpt><trkpt lat="44.377261540815475" lon="9.149457594994148"><ele>74.8</ele><time>2026-03-28T15:53:31Z</time></trkpt><trkpt lat="44.37724775856296" lon="9.149305413057387"><ele>83.6</ele><time>2026-03-28T15:53:32Z</time></trkpt><trkpt lat="44.37723128340629" lon="9.149155951518118"><ele>92.4</ele><time>2026-03-28T15:53:33Z</time></trkpt><trkpt lat="44.377218155947666" lon="9.14900411295295"><ele>101.2</ele><time>2026-03-28T15:53:34Z</time></trkpt><trkpt lat="44.37722695503976" lon="9.148845896460502"><ele>110.0</ele><time>2026-03-28T15:53:35Z</time></trkpt><trkpt lat="44.37725417849878" lon="9.148687295278087"><ele>110.0</ele><time>2026-03-28T15:53:36Z</time></trkpt><trkpt lat="44.37729354504332" lon="9.148530961556864"><ele>110.0</ele><time>2026-03-28T15:53:37Z</time></trkpt><trkpt lat="44.37733583367274" lon="9.148383640356444"><ele>110.0</ele><time>2026-03-28T15:53:38Z</time></trkpt><trkpt lat="44.377383808175765" lon="9.148231205037904"><ele>110.0</ele><time>2026-03-28T15:53:39Z</time></trkpt><trkpt lat="44.37743361975671" lon="9.148077434412203"><ele>107.25</ele><time>2026-03-28T15:53:40Z</time></trkpt><trkpt lat="44.377482098995216" lon="9.147925030384709"><ele>104.5</ele><time>2026-03-28T15:53:41Z</time></trkpt><trkpt lat="44.37752859554315" lon="9.147768348574585"><ele>101.75</ele><time>2026-03-28T15:53:42Z</time></trkpt><trkpt lat="44.37757827911216" lon="9.147612039134522"><ele>99.0</ele><time>2026-03-28T15:53:43Z</time></trkpt><trkpt lat="44.377626135915975" lon="9.147454787649501"><ele>96.25</ele><time>2026-03-28T15:53:44Z</time></trkpt><trkpt lat="44.37767380723312" lon="9.147296104797174"><ele>93.5</ele><time>2026-03-28T15:53:45Z</time></trkpt><trkpt lat="44.377722151383196" lon="9.14714211145666"><ele>90.75</ele><time>2026-03-28T15:53:46Z</time></trkpt><trkpt lat="44.377767046638944" lon="9.146987674671259"><ele>88.0</ele><time>2026-03-28T15:53:47Z</time></trkpt><trkpt lat="44.37780193056933" lon="9.14683198689447"><ele>88.0</ele><time>2026-03-28T15:53:48Z</time></trkpt><trkpt lat="44.37782504486472" lon="9.14667231452656"><ele>88.0</ele><time>2026-03-28T15:53:49Z</time></trkpt><trkpt lat="44.37783882912662" lon="9.146516311094205"><ele>88.0</ele><time>2026-03-28T15:53:50Z</time></trkpt><trkpt lat="44.37785122815581" lon="9.146353720074726"><ele>88.0</ele><time>2026-03-28T15:53:51Z</time></trkpt><trkpt lat="44.37786134369272" lon="9.146195619233746"><ele>88.80000000000001</ele><time>2026-03-28T15:53:52Z</time></trkpt><trkpt lat="44.377871701721624" lon="9.146038095080785"><ele>89.6</ele><time>2026-03-28T15:53:53Z</time></trkpt><trkpt lat="44.377884288271574" lon="9.145884582382942"><ele>90.4</ele><time>2026-03-28T15:53:54Z</time></trkpt><trkpt lat="44.37789374386095" lon="9.145728530147142"><ele>91.19999999999999</ele><time>2026-03-28T15:53:55Z</time></trkpt><trkpt lat="44.3779003111494" lon="9.145569414900582"><ele>92.0</ele><time>2026-03-28T15:53:56Z</time></trkpt><trkpt lat="44.3778976906447" lon="9.145411510333615"><ele>94.0</ele><time>2026-03-28T15:53:57Z</time></trkpt><trkpt lat="44.37790217543421" lon="9.145254987162177"><ele>96.0</ele><time>2026-03-28T15:53:58Z</time></trkpt><trkpt lat="44.37789282065313" lon="9.14508937058663"><ele>98.0</ele><time>2026-03-28T15:53:59Z</time></trkpt><trkpt lat="44.37778264955241" lon="9.144949308375788"><ele>100.0</ele><time>2026-03-28T15:54:00Z</time></trkpt><trkpt lat="44.377710070945106" lon="9.144815087977177"><ele>101.5</ele><time>2026-03-28T15:54:01Z</time></trkpt><trkpt lat="44.377639397671196" lon="9.144680799109613"><ele>103.0</ele><time>2026-03-28T15:54:02Z</time></trkpt><trkpt lat="44.37756787185876" lon="9.144538256660358"><ele>104.5</ele><time>2026-03-28T15:54:03Z</time></trkpt><trkpt lat="44.37749007690295" lon="9.14438732800892"><ele>106.0</ele><time>2026-03-28T15:54:04Z</time></trkpt><trkpt lat="44.37741466900694" lon="9.144236636722738"><ele>106.0</ele><time>2026-03-28T15:54:05Z</time></trkpt><trkpt lat="44.37734556497605" lon="9.144077907017065"><ele>106.0</ele><time>2026-03-28T15:54:06Z</time></trkpt><trkpt lat="44.37729723881005" lon="9.143903487478914"><ele>106.0</ele><time>2026-03-28T15:54:07Z</time></trkpt><trkpt lat="44.37727874459827" lon="9.143721879666955"><ele>106.0</ele><time>2026-03-28T15:54:08Z</time></trkpt><trkpt lat="44.37728705753283" lon="9.14353912397687"><ele>107.5</ele><time>2026-03-28T15:54:09Z</time></trkpt><trkpt lat="44.37730769181964" lon="9.143359719801522"><ele>109.0</ele><time>2026-03-28T15:54:10Z</time></trkpt><trkpt lat="44.377326914210855" lon="9.143174091995538"><ele>110.5</ele><time>2026-03-28T15:54:11Z</time></trkpt><trkpt lat="44.37733987734464" lon="9.142993438214575"><ele>112.0</ele><time>2026-03-28T15:54:12Z</time></trkpt><trkpt lat="44.37734909423738" lon="9.142790319682746"><ele>115.25</ele><time>2026-03-28T15:54:13Z</time></trkpt><trkpt lat="44.37735457045239" lon="9.142592088439596"><ele>118.5</ele><time>2026-03-28T15:54:13.999Z</time></trkpt><trkpt lat="44.37736481300689" lon="9.142384857460716"><ele>121.75</ele><time>2026-03-28T15:54:14.999Z</time></trkpt><trkpt lat="44.37737804884494" lon="9.142167307135235"><ele>125.0</ele><time>2026-03-28T15:54:15.999Z</time></trkpt><trkpt lat="44.37739956266196" lon="9.141945948203883"><ele>132.33333333333331</ele><time>2026-03-28T15:54:16.999Z</time></trkpt><trkpt lat="44.377425697915385" lon="9.141726518699496"><ele>139.66666666666666</ele><time>2026-03-28T15:54:17.999Z</time></trkpt><trkpt lat="44.37744749919343" lon="9.141515153077199"><ele>147.0</ele><time>2026-03-28T15:54:18.999Z</time></trkpt><trkpt lat="44.37747553522876" lon="9.141292319008338"><ele>152.0</ele><time>2026-03-28T15:54:20.02Z</time></trkpt><trkpt lat="44.37750033721232" lon="9.141074444218637"><ele>157.0</ele><time>2026-03-28T15:54:21.022Z</time></trkpt><trkpt lat="44.3775237644468" lon="9.140855720060397"><ele>162.0</ele><time>2026-03-28T15:54:22.014Z</time></trkpt><trkpt lat="44.3775521691297" lon="9.140634967962646"><ele>170.5</ele><time>2026-03-28T15:54:23.015Z</time></trkpt><trkpt lat="44.377580266020225" lon="9.140413393332086"><ele>179.0</ele><time>2026-03-28T15:54:24.022Z</time></trkpt><trkpt lat="44.37776334924145" lon="9.137599784729261"><ele>161.0</ele><time>2026-03-28T15:54:27.223Z</time></trkpt><trkpt lat="44.3795286315648" lon="9.117094284590662"><ele>161.0</ele><time>2026-03-28T15:55:34.999Z</time></trkpt><trkpt lat="44.37956085988801" lon="9.116701425593321"><ele>161.0</ele><time>2026-03-28T15:55:35.999Z</time></trkpt><trkpt lat="44.37959775476316" lon="9.116301800027317"><ele>161.0</ele><time>2026-03-28T15:55:36.999Z</time></trkpt><trkpt lat="44.37962565512471" lon="9.115927628670946"><ele>161.0</ele><time>2026-03-28T15:55:37.998Z</time></trkpt><trkpt lat="44.37964745713148" lon="9.11553725065517"><ele>163.5</ele><time>2026-03-28T15:55:38.998Z</time></trkpt><trkpt lat="44.379672216770324" lon="9.11515453490637"><ele>166.0</ele><time>2026-03-28T15:55:40Z</time></trkpt><trkpt lat="44.379702081218056" lon="9.114777736170922"><ele>144.5</ele><time>2026-03-28T15:55:41Z</time></trkpt><trkpt lat="44.379729277030826" lon="9.114400575800596"><ele>123.0</ele><time>2026-03-28T15:55:42Z</time></trkpt><trkpt lat="44.37976436552663" lon="9.114029837134082"><ele>121.0</ele><time>2026-03-28T15:55:43Z</time></trkpt><trkpt lat="44.37979538881631" lon="9.113652088768767"><ele>119.0</ele><time>2026-03-28T15:55:44Z</time></trkpt><trkpt lat="44.37982715558441" lon="9.113281196640749"><ele>121.5</ele><time>2026-03-28T15:55:45Z</time></trkpt><trkpt lat="44.37985516867329" lon="9.112909196339993"><ele>124.0</ele><time>2026-03-28T15:55:46Z</time></trkpt><trkpt lat="44.37989218226591" lon="9.112537657376782"><ele>124.0</ele><time>2026-03-28T15:55:47Z</time></trkpt><trkpt lat="44.379920750413916" lon="9.112167620589274"><ele>124.0</ele><time>2026-03-28T15:55:48Z</time></trkpt><trkpt lat="44.379949626706676" lon="9.111799395821675"><ele>110.0</ele><time>2026-03-28T15:55:49Z</time></trkpt><trkpt lat="44.37997665356663" lon="9.111428680454473"><ele>96.0</ele><time>2026-03-28T15:55:50Z</time></trkpt><trkpt lat="44.38000493202511" lon="9.111059589021613"><ele>78.5</ele><time>2026-03-28T15:55:51Z</time></trkpt><trkpt lat="44.38003377081356" lon="9.11068833905377"><ele>61.0</ele><time>2026-03-28T15:55:52Z</time></trkpt><trkpt lat="44.38006210609366" lon="9.110319192036982"><ele>61.0</ele><time>2026-03-28T15:55:53Z</time></trkpt><trkpt lat="44.38009132735221" lon="9.109952097132425"><ele>61.0</ele><time>2026-03-28T15:55:54Z</time></trkpt><trkpt lat="44.380120611084074" lon="9.109585597086719"><ele>52.0</ele><time>2026-03-28T15:55:55Z</time></trkpt><trkpt lat="44.38013268449555" lon="9.109198081239809"><ele>43.0</ele><time>2026-03-28T15:55:56Z</time></trkpt><trkpt lat="44.380166449222706" lon="9.108835076856545"><ele>43.0</ele><time>2026-03-28T15:55:57Z</time></trkpt><trkpt lat="44.38020275413083" lon="9.108469944688633"><ele>43.0</ele><time>2026-03-28T15:55:58Z</time></trkpt><trkpt lat="44.38023872447646" lon="9.108092676234861"><ele>57.0</ele><time>2026-03-28T15:55:59Z</time></trkpt><trkpt lat="44.380265586418346" lon="9.107729054511656"><ele>71.0</ele><time>2026-03-28T15:56:00Z</time></trkpt><trkpt lat="44.38030426715817" lon="9.107385866460797"><ele>86.5</ele><time>2026-03-28T15:56:01Z</time></trkpt><trkpt lat="44.38035028592887" lon="9.107037121469283"><ele>102.0</ele><time>2026-03-28T15:56:02Z</time></trkpt><trkpt lat="44.38040582659609" lon="9.106721354768197"><ele>113.5</ele><time>2026-03-28T15:56:03Z</time></trkpt><trkpt lat="44.38048892104338" lon="9.106406934344315"><ele>125.0</ele><time>2026-03-28T15:56:04Z</time></trkpt><trkpt lat="44.38058557589999" lon="9.106097799745136"><ele>125.0</ele><time>2026-03-28T15:56:05Z</time></trkpt><trkpt lat="44.380701600640215" lon="9.105803196414326"><ele>125.0</ele><time>2026-03-28T15:56:06Z</time></trkpt><trkpt lat="44.38082812814166" lon="9.10552020799701"><ele>133.5</ele><time>2026-03-28T15:56:07Z</time></trkpt><trkpt lat="44.38096243007239" lon="9.105248074665997"><ele>142.0</ele><time>2026-03-28T15:56:08Z</time></trkpt><trkpt lat="44.381108549789516" lon="9.104986460131357"><ele>138.5</ele><time>2026-03-28T15:56:09Z</time></trkpt><trkpt lat="44.381268303419716" lon="9.104726620272986"><ele>135.0</ele><time>2026-03-28T15:56:10Z</time></trkpt><trkpt lat="44.38144675402047" lon="9.104479910651305"><ele>135.0</ele><time>2026-03-28T15:56:11Z</time></trkpt><trkpt lat="44.38164342879095" lon="9.104249039405238"><ele>135.0</ele><time>2026-03-28T15:56:12Z</time></trkpt><trkpt lat="44.381855416793165" lon="9.104042919549801"><ele>141.5</ele><time>2026-03-28T15:56:13Z</time></trkpt><trkpt lat="44.38207757075452" lon="9.103853478553825"><ele>148.0</ele><time>2026-03-28T15:56:14Z</time></trkpt><trkpt lat="44.382305176543206" lon="9.103683288839706"><ele>148.0</ele><time>2026-03-28T15:56:15Z</time></trkpt><trkpt lat="44.38253646169222" lon="9.103511859545108"><ele>148.0</ele><time>2026-03-28T15:56:16Z</time></trkpt><trkpt lat="44.38275746513526" lon="9.103348880935203"><ele>152.0</ele><time>2026-03-28T15:56:17Z</time></trkpt><trkpt lat="44.38297822006154" lon="9.103163329259026"><ele>156.0</ele><time>2026-03-28T15:56:18Z</time></trkpt><trkpt lat="44.383196610134846" lon="9.102974271574187"><ele>156.0</ele><time>2026-03-28T15:56:19Z</time></trkpt><trkpt lat="44.383405920944824" lon="9.102764342969502"><ele>156.0</ele><time>2026-03-28T15:56:20Z</time></trkpt><trkpt lat="44.38360401069611" lon="9.102547234184167"><ele>147.5</ele><time>2026-03-28T15:56:21Z</time></trkpt><trkpt lat="44.38379348821973" lon="9.10231447487357"><ele>139.0</ele><time>2026-03-28T15:56:22Z</time></trkpt><trkpt lat="44.38397721277587" lon="9.102073879142461"><ele>139.0</ele><time>2026-03-28T15:56:23Z</time></trkpt><trkpt lat="44.38414956909109" lon="9.101825233946157"><ele>139.0</ele><time>2026-03-28T15:56:24Z</time></trkpt><trkpt lat="44.384315779344654" lon="9.10156226334855"><ele>155.5</ele><time>2026-03-28T15:56:25Z</time></trkpt><trkpt lat="44.384478563551276" lon="9.101290467271435"><ele>172.0</ele><time>2026-03-28T15:56:26Z</time></trkpt><trkpt lat="44.384642799733065" lon="9.101023306988552"><ele>169.0</ele><time>2026-03-28T15:56:27Z</time></trkpt><trkpt lat="44.384808505193696" lon="9.100768601717562"><ele>166.0</ele><time>2026-03-28T15:56:28Z</time></trkpt><trkpt lat="44.38497056899513" lon="9.100510372404102"><ele>166.0</ele><time>2026-03-28T15:56:29Z</time></trkpt><trkpt lat="44.38513358533809" lon="9.100253920880794"><ele>166.0</ele><time>2026-03-28T15:56:30Z</time></trkpt><trkpt lat="44.385295795218006" lon="9.09999835649785"><ele>177.5</ele><time>2026-03-28T15:56:31Z</time></trkpt><trkpt lat="44.38545405262415" lon="9.099748652819722"><ele>189.0</ele><time>2026-03-28T15:56:32Z</time></trkpt><trkpt lat="44.38560450629829" lon="9.099506181026253"><ele>181.33333333333334</ele><time>2026-03-28T15:56:33Z</time></trkpt><trkpt lat="44.38574476343395" lon="9.099261961646492"><ele>173.66666666666669</ele><time>2026-03-28T15:56:34Z</time></trkpt><trkpt lat="44.385876298590766" lon="9.099017198429268"><ele>166.0</ele><time>2026-03-28T15:56:35Z</time></trkpt><trkpt lat="44.38599364635009" lon="9.098766214286227"><ele>166.0</ele><time>2026-03-28T15:56:36Z</time></trkpt><trkpt lat="44.38610590819152" lon="9.098509973125658"><ele>166.0</ele><time>2026-03-28T15:56:37Z</time></trkpt><trkpt lat="44.386213249869364" lon="9.098259365415855"><ele>166.0</ele><time>2026-03-28T15:56:38Z</time></trkpt><trkpt lat="44.38630824290944" lon="9.097998346184475"><ele>181.66666666666669</ele><time>2026-03-28T15:56:39Z</time></trkpt><trkpt lat="44.386397880169916" lon="9.097729757329752"><ele>197.33333333333334</ele><time>2026-03-28T15:56:39.999Z</time></trkpt><trkpt lat="44.38648717387753" lon="9.097456145477897"><ele>213.0</ele><time>2026-03-28T15:56:41.02Z</time></trkpt><trkpt lat="44.3865820632479" lon="9.097194772409939"><ele>222.33333333333331</ele><time>2026-03-28T15:56:42.015Z</time></trkpt><trkpt lat="44.386660555728355" lon="9.096922336370733"><ele>231.66666666666666</ele><time>2026-03-28T15:56:43.015Z</time></trkpt><trkpt lat="44.38674368763495" lon="9.0966511603234"><ele>241.0</ele><time>2026-03-28T15:56:44.014Z</time></trkpt><trkpt lat="44.38682239321046" lon="9.096376904236742"><ele>140.0</ele><time>2026-03-28T15:56:45.014Z</time></trkpt><trkpt lat="44.38949783802441" lon="9.081770628699177"><ele>136.0</ele><time>2026-03-28T15:57:32.999Z</time></trkpt><trkpt lat="44.38948655128433" lon="9.081450240404912"><ele>132.0</ele><time>2026-03-28T15:57:33.999Z</time></trkpt><trkpt lat="44.38942165964708" lon="9.081133473812926"><ele>132.0</ele><time>2026-03-28T15:57:34.999Z</time></trkpt><trkpt lat="44.38941458111859" lon="9.080812502387207"><ele>132.0</ele><time>2026-03-28T15:57:35.999Z</time></trkpt><trkpt lat="44.38940749799639" lon="9.080488378886672"><ele>139.0</ele><time>2026-03-28T15:57:36.999Z</time></trkpt><trkpt lat="44.389395911712" lon="9.08015556834252"><ele>146.0</ele><time>2026-03-28T15:57:37.999Z</time></trkpt><trkpt lat="44.38938333348221" lon="9.079828816028035"><ele>150.0</ele><time>2026-03-28T15:57:38.999Z</time></trkpt><trkpt lat="44.38936933438147" lon="9.079500828967388"><ele>154.0</ele><time>2026-03-28T15:57:39.999Z</time></trkpt><trkpt lat="44.389350618259584" lon="9.079167558239797"><ele>157.5</ele><time>2026-03-28T15:57:40.999Z</time></trkpt><trkpt lat="44.38933254187829" lon="9.078832874851651"><ele>161.0</ele><time>2026-03-28T15:57:41.999Z</time></trkpt><trkpt lat="44.38932121339519" lon="9.07849528154512"><ele>172.5</ele><time>2026-03-28T15:57:42.999Z</time></trkpt><trkpt lat="44.38930871257115" lon="9.078157957935995"><ele>184.0</ele><time>2026-03-28T15:57:43.999Z</time></trkpt><trkpt lat="44.3892940409595" lon="9.07781966970071"><ele>184.0</ele><time>2026-03-28T15:57:44.999Z</time></trkpt><trkpt lat="44.3892822310392" lon="9.077472719994189"><ele>184.0</ele><time>2026-03-28T15:57:46Z</time></trkpt><trkpt lat="44.38927157915474" lon="9.077123691348257"><ele>201.0</ele><time>2026-03-28T15:57:47Z</time></trkpt><trkpt lat="44.38925800267288" lon="9.076771794517688"><ele>218.0</ele><time>2026-03-28T15:57:48.024Z</time></trkpt><trkpt lat="44.38924419215987" lon="9.0764303262049"><ele>236.0</ele><time>2026-03-28T15:57:49.022Z</time></trkpt><trkpt lat="44.38923239307473" lon="9.076083982722471"><ele>254.0</ele><time>2026-03-28T15:57:50.021Z</time></trkpt><trkpt lat="44.38922456376047" lon="9.075735294507663"><ele>250.5</ele><time>2026-03-28T15:57:51.022Z</time></trkpt><trkpt lat="44.3892118660138" lon="9.075388603064317"><ele>247.0</ele><time>2026-03-28T15:57:52.023Z</time></trkpt><trkpt lat="44.3890667325804" lon="9.072571368089326"><ele>180.0</ele><time>2026-03-28T15:57:55.221Z</time></trkpt><trkpt lat="44.38900282552316" lon="9.071193814532954"><ele>164.0</ele><time>2026-03-28T15:57:56.221Z</time></trkpt><trkpt lat="44.38895686999372" lon="9.070109389730794"><ele>171.0</ele><time>2026-03-28T15:58:08Z</time></trkpt><trkpt lat="44.38895260590331" lon="9.06978641390191"><ele>178.0</ele><time>2026-03-28T15:58:09Z</time></trkpt><trkpt lat="44.38891779001589" lon="9.06940553488108"><ele>187.0</ele><time>2026-03-28T15:58:10Z</time></trkpt><trkpt lat="44.388898874938135" lon="9.069083612422064"><ele>196.0</ele><time>2026-03-28T15:58:11Z</time></trkpt><trkpt lat="44.38889545527252" lon="9.068747587302376"><ele>196.0</ele><time>2026-03-28T15:58:12Z</time></trkpt><trkpt lat="44.38888711591845" lon="9.068417734045331"><ele>196.0</ele><time>2026-03-28T15:58:13Z</time></trkpt><trkpt lat="44.38888663380134" lon="9.068082451141834"><ele>196.5</ele><time>2026-03-28T15:58:14Z</time></trkpt><trkpt lat="44.38889765601218" lon="9.067748235355507"><ele>197.0</ele><time>2026-03-28T15:58:15Z</time></trkpt><trkpt lat="44.38891864650469" lon="9.067416246198404"><ele>210.5</ele><time>2026-03-28T15:58:16Z</time></trkpt><trkpt lat="44.38895215868456" lon="9.067086743422019"><ele>224.0</ele><time>2026-03-28T15:58:17Z</time></trkpt><trkpt lat="44.38898804706065" lon="9.066759428105982"><ele>243.5</ele><time>2026-03-28T15:58:18Z</time></trkpt><trkpt lat="44.38904443554205" lon="9.066428443580829"><ele>263.0</ele><time>2026-03-28T15:58:19Z</time></trkpt><trkpt lat="44.38910777210788" lon="9.0660910339479"><ele>271.5</ele><time>2026-03-28T15:58:20.02Z</time></trkpt><trkpt lat="44.389177575689914" lon="9.06575871498132"><ele>280.0</ele><time>2026-03-28T15:58:21.021Z</time></trkpt><trkpt lat="44.389261697455545" lon="9.06540912675195"><ele>280.0</ele><time>2026-03-28T15:58:22.015Z</time></trkpt><trkpt lat="44.38932476567539" lon="9.065066300831736"><ele>280.0</ele><time>2026-03-28T15:58:23.024Z</time></trkpt><trkpt lat="44.389414695107426" lon="9.064683317325585"><ele>390.0</ele><time>2026-03-28T15:58:24.02Z</time></trkpt><trkpt lat="44.390210180858745" lon="9.061016158219878"><ele>423.0</ele><time>2026-03-28T15:58:28.216Z</time></trkpt><trkpt lat="44.390419706848895" lon="9.060053547947982"><ele>464.0</ele><time>2026-03-28T15:58:29.218Z</time></trkpt><trkpt lat="44.390629474618564" lon="9.059090669026087"><ele>445.0</ele><time>2026-03-28T15:58:30.22Z</time></trkpt><trkpt lat="44.39083941143508" lon="9.058130224250535"><ele>430.0</ele><time>2026-03-28T15:58:31.22Z</time></trkpt><trkpt lat="44.39104933751564" lon="9.05716982859121"><ele>409.0</ele><time>2026-03-28T15:58:32.22Z</time></trkpt><trkpt lat="44.39125918014716" lon="9.056209424292048"><ele>362.0</ele><time>2026-03-28T15:58:33.22Z</time></trkpt><trkpt lat="44.391467823253805" lon="9.055248477975477"><ele>351.0</ele><time>2026-03-28T15:58:34.22Z</time></trkpt><trkpt lat="44.39167536524408" lon="9.054286901048007"><ele>336.0</ele><time>2026-03-28T15:58:35.22Z</time></trkpt><trkpt lat="44.3918165" lon="9.053633"><ele>154.0</ele><time>2026-03-28T15:58:36.22Z</time></trkpt><trkpt lat="44.39284733035079" lon="9.046128932395062"><ele>152.33333333333334</ele><time>2026-03-28T15:59:20.999Z</time></trkpt><trkpt lat="44.392830912455935" lon="9.04579021250161"><ele>150.66666666666666</ele><time>2026-03-28T15:59:21.999Z</time></trkpt><trkpt lat="44.39278878274731" lon="9.045545960711696"><ele>149.0</ele><time>2026-03-28T15:59:22.999Z</time></trkpt><trkpt lat="44.3927715676701" lon="9.04518418084787"><ele>134.5</ele><time>2026-03-28T15:59:23.999Z</time></trkpt><trkpt lat="44.39275805549757" lon="9.044835756273262"><ele>120.0</ele><time>2026-03-28T15:59:24.999Z</time></trkpt><trkpt lat="44.392739864438994" lon="9.044492139469051"><ele>120.0</ele><time>2026-03-28T15:59:25.999Z</time></trkpt><trkpt lat="44.392720590370025" lon="9.044148857164078"><ele>120.0</ele><time>2026-03-28T15:59:26.999Z</time></trkpt><trkpt lat="44.39270475735828" lon="9.043813299877325"><ele>103.5</ele><time>2026-03-28T15:59:27.999Z</time></trkpt><trkpt lat="44.392689725061956" lon="9.043474518056403"><ele>87.0</ele><time>2026-03-28T15:59:28.999Z</time></trkpt><trkpt lat="44.39267538898414" lon="9.043133853372083"><ele>76.5</ele><time>2026-03-28T15:59:29.999Z</time></trkpt><trkpt lat="44.392654459189146" lon="9.042790849919824"><ele>66.0</ele><time>2026-03-28T15:59:30.999Z</time></trkpt><trkpt lat="44.39263491982266" lon="9.042449763399402"><ele>62.5</ele><time>2026-03-28T15:59:31.999Z</time></trkpt><trkpt lat="44.39261511071485" lon="9.042109371877515"><ele>59.0</ele><time>2026-03-28T15:59:32.999Z</time></trkpt><trkpt lat="44.39259736080514" lon="9.041772070719514"><ele>65.0</ele><time>2026-03-28T15:59:33.999Z</time></trkpt><trkpt lat="44.392581816207894" lon="9.041432596618705"><ele>71.0</ele><time>2026-03-28T15:59:34.999Z</time></trkpt><trkpt lat="44.392564023863194" lon="9.041093787202861"><ele>95.5</ele><time>2026-03-28T15:59:35.999Z</time></trkpt><trkpt lat="44.39254526519375" lon="9.040752001471796"><ele>120.0</ele><time>2026-03-28T15:59:36.999Z</time></trkpt><trkpt lat="44.39252659954428" lon="9.040410631946953"><ele>120.0</ele><time>2026-03-28T15:59:37.999Z</time></trkpt><trkpt lat="44.39250751143968" lon="9.040069189637673"><ele>120.0</ele><time>2026-03-28T15:59:38.999Z</time></trkpt><trkpt lat="44.39248962293324" lon="9.039726617371599"><ele>131.0</ele><time>2026-03-28T15:59:39.999Z</time></trkpt><trkpt lat="44.39247310660338" lon="9.039386636096303"><ele>142.0</ele><time>2026-03-28T15:59:40.999Z</time></trkpt><trkpt lat="44.392458369690345" lon="9.03904824636348"><ele>149.5</ele><time>2026-03-28T15:59:41.999Z</time></trkpt><trkpt lat="44.392447551412836" lon="9.038708725147549"><ele>157.0</ele><time>2026-03-28T15:59:42.999Z</time></trkpt><trkpt lat="44.39244991097514" lon="9.038364086040586"><ele>173.5</ele><time>2026-03-28T15:59:43.999Z</time></trkpt><trkpt lat="44.392459448512795" lon="9.038024196225118"><ele>190.0</ele><time>2026-03-28T15:59:44.999Z</time></trkpt><trkpt lat="44.39246523701662" lon="9.037682192306525"><ele>192.5</ele><time>2026-03-28T15:59:45.999Z</time></trkpt><trkpt lat="44.39246657300268" lon="9.037333727896819"><ele>195.0</ele><time>2026-03-28T15:59:46.999Z</time></trkpt><trkpt lat="44.392463489641536" lon="9.036978419549012"><ele>186.0</ele><time>2026-03-28T15:59:48.011Z</time></trkpt><trkpt lat="44.39245731229381" lon="9.03662197579551"><ele>177.0</ele><time>2026-03-28T15:59:49.021Z</time></trkpt><trkpt lat="44.39244239596977" lon="9.036266335436201"><ele>177.0</ele><time>2026-03-28T15:59:50.02Z</time></trkpt><trkpt lat="44.392423088086964" lon="9.035908281401419"><ele>177.0</ele><time>2026-03-28T15:59:51.014Z</time></trkpt><trkpt lat="44.39240433962433" lon="9.03554584646361"><ele>165.5</ele><time>2026-03-28T15:59:52.024Z</time></trkpt><trkpt lat="44.39238760796939" lon="9.035185612305199"><ele>154.0</ele><time>2026-03-28T15:59:53.022Z</time></trkpt><trkpt lat="44.39239106145165" lon="9.034579424195956"><ele>154.0</ele><time>2026-03-28T15:59:54.999Z</time></trkpt><trkpt lat="44.39238149430036" lon="9.034231568344788"><ele>154.0</ele><time>2026-03-28T15:59:55.999Z</time></trkpt><trkpt lat="44.39239307408669" lon="9.033889756746191"><ele>162.0</ele><time>2026-03-28T15:59:56.999Z</time></trkpt><trkpt lat="44.39240994106839" lon="9.033549211365349"><ele>170.0</ele><time>2026-03-28T15:59:57.999Z</time></trkpt><trkpt lat="44.39243042228555" lon="9.033212280422369"><ele>185.0</ele><time>2026-03-28T15:59:59Z</time></trkpt><trkpt lat="44.392453019659335" lon="9.032868301781527"><ele>200.0</ele><time>2026-03-28T16:00:00Z</time></trkpt><trkpt lat="44.39248264851949" lon="9.032526450005024"><ele>213.5</ele><time>2026-03-28T16:00:01Z</time></trkpt><trkpt lat="44.39252393479003" lon="9.03217921276293"><ele>227.0</ele><time>2026-03-28T16:00:02.014Z</time></trkpt><trkpt lat="44.392570355511715" lon="9.031839820489187"><ele>234.0</ele><time>2026-03-28T16:00:03.02Z</time></trkpt><trkpt lat="44.39262124205739" lon="9.031504831770771"><ele>241.0</ele><time>2026-03-28T16:00:04.022Z</time></trkpt><trkpt lat="44.39267812143294" lon="9.031171751739755"><ele>241.0</ele><time>2026-03-28T16:00:05.017Z</time></trkpt><trkpt lat="44.3927320954856" lon="9.030835526299162"><ele>241.0</ele><time>2026-03-28T16:00:06.023Z</time></trkpt><trkpt lat="44.39331676151313" lon="9.02717028367025"><ele>144.0</ele><time>2026-03-28T16:00:18.184Z</time></trkpt><trkpt lat="44.39450866546891" lon="9.021180951976238"><ele>144.0</ele><time>2026-03-28T16:00:35Z</time></trkpt><trkpt lat="44.39456844611731" lon="9.020848092212681"><ele>144.0</ele><time>2026-03-28T16:00:36Z</time></trkpt><trkpt lat="44.39463447577833" lon="9.020516248752282"><ele>153.5</ele><time>2026-03-28T16:00:37Z</time></trkpt><trkpt lat="44.39469739322607" lon="9.020184188214925"><ele>163.0</ele><time>2026-03-28T16:00:38Z</time></trkpt><trkpt lat="44.39476097602294" lon="9.01985420540996"><ele>172.5</ele><time>2026-03-28T16:00:39Z</time></trkpt><trkpt lat="44.394819179360944" lon="9.01952349092977"><ele>182.0</ele><time>2026-03-28T16:00:40Z</time></trkpt><trkpt lat="44.39487777272779" lon="9.019196396549878"><ele>195.5</ele><time>2026-03-28T16:00:41Z</time></trkpt><trkpt lat="44.39493662858393" lon="9.01885366159156"><ele>209.0</ele><time>2026-03-28T16:00:42Z</time></trkpt><trkpt lat="44.394992392688195" lon="9.018509143505726"><ele>218.0</ele><time>2026-03-28T16:00:43Z</time></trkpt><trkpt lat="44.395040313318205" lon="9.018149977039682"><ele>227.0</ele><time>2026-03-28T16:00:44.018Z</time></trkpt><trkpt lat="44.395081739042965" lon="9.017789413428915"><ele>223.5</ele><time>2026-03-28T16:00:45.022Z</time></trkpt><trkpt lat="44.39511489475735" lon="9.017426961855755"><ele>220.0</ele><time>2026-03-28T16:00:46.012Z</time></trkpt><trkpt lat="44.39513725547388" lon="9.017048658488745"><ele>220.0</ele><time>2026-03-28T16:00:47.022Z</time></trkpt><trkpt lat="44.39515592125483" lon="9.016672283988479"><ele>220.0</ele><time>2026-03-28T16:00:48.02Z</time></trkpt><trkpt lat="44.39531068787388" lon="9.014760917061022"><ele>172.0</ele><time>2026-03-28T16:00:53.999Z</time></trkpt><trkpt lat="44.3953273961069" lon="9.014416171087634"><ele>124.0</ele><time>2026-03-28T16:00:54.999Z</time></trkpt><trkpt lat="44.395339641289105" lon="9.014088839548691"><ele>107.5</ele><time>2026-03-28T16:00:55.999Z</time></trkpt><trkpt lat="44.39535525150603" lon="9.013771671292092"><ele>91.0</ele><time>2026-03-28T16:00:56.999Z</time></trkpt><trkpt lat="44.39536824895542" lon="9.01342834537322"><ele>91.5</ele><time>2026-03-28T16:00:57.999Z</time></trkpt><trkpt lat="44.39538947162503" lon="9.013084498188304"><ele>92.0</ele><time>2026-03-28T16:00:58.999Z</time></trkpt><trkpt lat="44.39540101224346" lon="9.012735577188215"><ele>100.0</ele><time>2026-03-28T16:00:59.999Z</time></trkpt><trkpt lat="44.3954171689641" lon="9.01239692128037"><ele>108.0</ele><time>2026-03-28T16:01:00.999Z</time></trkpt><trkpt lat="44.395437519323735" lon="9.012056182736153"><ele>108.0</ele><time>2026-03-28T16:01:01.999Z</time></trkpt><trkpt lat="44.39545841705479" lon="9.01171806105182"><ele>108.0</ele><time>2026-03-28T16:01:02.999Z</time></trkpt><trkpt lat="44.39547507317119" lon="9.011377948656506"><ele>113.0</ele><time>2026-03-28T16:01:03.999Z</time></trkpt><trkpt lat="44.39549974785215" lon="9.011042763960498"><ele>118.0</ele><time>2026-03-28T16:01:04.999Z</time></trkpt><trkpt lat="44.39554065626311" lon="9.01070637738053"><ele>132.0</ele><time>2026-03-28T16:01:05.999Z</time></trkpt><trkpt lat="44.39560093975385" lon="9.010379672908124"><ele>146.0</ele><time>2026-03-28T16:01:06.999Z</time></trkpt><trkpt lat="44.39567724552735" lon="9.01005674687283"><ele>141.0</ele><time>2026-03-28T16:01:07.999Z</time></trkpt><trkpt lat="44.395768557219824" lon="9.009741341217875"><ele>136.0</ele><time>2026-03-28T16:01:08.999Z</time></trkpt><trkpt lat="44.39587544479019" lon="9.009430414165706"><ele>133.0</ele><time>2026-03-28T16:01:09.999Z</time></trkpt><trkpt lat="44.39600012096456" lon="9.00913858281431"><ele>130.0</ele><time>2026-03-28T16:01:10.999Z</time></trkpt><trkpt lat="44.39613811311692" lon="9.008858631746339"><ele>130.0</ele><time>2026-03-28T16:01:11.999Z</time></trkpt><trkpt lat="44.39628892744577" lon="9.008586889615147"><ele>130.0</ele><time>2026-03-28T16:01:12.999Z</time></trkpt><trkpt lat="44.39644907876466" lon="9.008330269006818"><ele>128.5</ele><time>2026-03-28T16:01:13.999Z</time></trkpt><trkpt lat="44.39661909708493" lon="9.008084235065908"><ele>127.0</ele><time>2026-03-28T16:01:14.999Z</time></trkpt><trkpt lat="44.39680510808778" lon="9.007861135673396"><ele>127.0</ele><time>2026-03-28T16:01:15.999Z</time></trkpt><trkpt lat="44.39700575013155" lon="9.007655780910055"><ele>127.0</ele><time>2026-03-28T16:01:16.999Z</time></trkpt><trkpt lat="44.39720863283354" lon="9.007470901200257"><ele>110.0</ele><time>2026-03-28T16:01:17.999Z</time></trkpt><trkpt lat="44.397407301330325" lon="9.007277252815527"><ele>93.0</ele><time>2026-03-28T16:01:18.999Z</time></trkpt><trkpt lat="44.397601581130736" lon="9.007079021656995"><ele>93.0</ele><time>2026-03-28T16:01:19.999Z</time></trkpt><trkpt lat="44.39780204225607" lon="9.006881006960558"><ele>93.0</ele><time>2026-03-28T16:01:20.999Z</time></trkpt><trkpt lat="44.39800221881488" lon="9.006682446514562"><ele>95.5</ele><time>2026-03-28T16:01:21.999Z</time></trkpt><trkpt lat="44.398200834633535" lon="9.00648033615717"><ele>98.0</ele><time>2026-03-28T16:01:22.999Z</time></trkpt><trkpt lat="44.39840323010672" lon="9.006282134641205"><ele>98.0</ele><time>2026-03-28T16:01:23.999Z</time></trkpt><trkpt lat="44.39860628226262" lon="9.00608550164591"><ele>98.0</ele><time>2026-03-28T16:01:24.999Z</time></trkpt><trkpt lat="44.39880794534509" lon="9.005888002335627"><ele>121.5</ele><time>2026-03-28T16:01:25.999Z</time></trkpt><trkpt lat="44.399008602309834" lon="9.00569062452662"><ele>145.0</ele><time>2026-03-28T16:01:26.999Z</time></trkpt><trkpt lat="44.39920967920553" lon="9.005498330429027"><ele>145.0</ele><time>2026-03-28T16:01:27.999Z</time></trkpt><trkpt lat="44.3994095303381" lon="9.00530154693584"><ele>145.0</ele><time>2026-03-28T16:01:28.999Z</time></trkpt><trkpt lat="44.39961600039821" lon="9.005102149712638"><ele>167.5</ele><time>2026-03-28T16:01:29.999Z</time></trkpt><trkpt lat="44.39982090847093" lon="9.004902056600583"><ele>190.0</ele><time>2026-03-28T16:01:30.999Z</time></trkpt><trkpt lat="44.40003035655459" lon="9.00469784331031"><ele>190.0</ele><time>2026-03-28T16:01:32.017Z</time></trkpt><trkpt lat="44.400234144429845" lon="9.004497083358592"><ele>190.0</ele><time>2026-03-28T16:01:33.014Z</time></trkpt><trkpt lat="44.400440484470316" lon="9.004292617676366"><ele>177.0</ele><time>2026-03-28T16:01:34.021Z</time></trkpt><trkpt lat="44.400644425736296" lon="9.004090837713576"><ele>164.0</ele><time>2026-03-28T16:01:35.012Z</time></trkpt><trkpt lat="44.400851989334825" lon="9.00388446912494"><ele>123.0</ele><time>2026-03-28T16:01:36.022Z</time></trkpt><trkpt lat="44.4017970655527" lon="9.002951988958756"><ele>123.0</ele><time>2026-03-28T16:01:40.999Z</time></trkpt><trkpt lat="44.40199755882239" lon="9.002749847372366"><ele>123.0</ele><time>2026-03-28T16:01:41.999Z</time></trkpt><trkpt lat="44.402213356240026" lon="9.002516286402553"><ele>117.5</ele><time>2026-03-28T16:01:42.999Z</time></trkpt><trkpt lat="44.402416879437794" lon="9.002310079946465"><ele>112.0</ele><time>2026-03-28T16:01:43.999Z</time></trkpt><trkpt lat="44.402612138358975" lon="9.002117073743007"><ele>112.0</ele><time>2026-03-28T16:01:44.999Z</time></trkpt><trkpt lat="44.40281786062823" lon="9.00192080165496"><ele>112.0</ele><time>2026-03-28T16:01:45.999Z</time></trkpt><trkpt lat="44.40302883503204" lon="9.001716894031931"><ele>131.0</ele><time>2026-03-28T16:01:46.999Z</time></trkpt><trkpt lat="44.40323836806202" lon="9.001515389077726"><ele>150.0</ele><time>2026-03-28T16:01:47.999Z</time></trkpt><trkpt lat="44.4034446745257" lon="9.00131050407607"><ele>150.0</ele><time>2026-03-28T16:01:48.999Z</time></trkpt><trkpt lat="44.40366185501368" lon="9.001101644869811"><ele>150.0</ele><time>2026-03-28T16:01:49.999Z</time></trkpt><trkpt lat="44.40387101879554" lon="9.000897070480308"><ele>157.5</ele><time>2026-03-28T16:01:50.999Z</time></trkpt><trkpt lat="44.40406227680068" lon="9.000648430516783"><ele>165.0</ele><time>2026-03-28T16:01:52.021Z</time></trkpt><trkpt lat="44.40426068757156" lon="9.000419353463744"><ele>165.0</ele><time>2026-03-28T16:01:53.021Z</time></trkpt><trkpt lat="44.40445359516471" lon="9.000185922395307"><ele>165.0</ele><time>2026-03-28T16:01:54.016Z</time></trkpt><trkpt lat="44.40464983976738" lon="8.999948796823947"><ele>105.0</ele><time>2026-03-28T16:01:55.022Z</time></trkpt><trkpt lat="44.41105236303472" lon="8.992212759339242"><ele>105.0</ele><time>2026-03-28T16:02:28.998Z</time></trkpt><trkpt lat="44.411236362584376" lon="8.99197721587905"><ele>105.0</ele><time>2026-03-28T16:02:29.998Z</time></trkpt><trkpt lat="44.41145050635799" lon="8.991776914356562"><ele>78.0</ele><time>2026-03-28T16:02:30.998Z</time></trkpt><trkpt lat="44.4116377271454" lon="8.991548948653897"><ele>51.0</ele><time>2026-03-28T16:02:31.998Z</time></trkpt><trkpt lat="44.41182993857522" lon="8.991322148290203"><ele>51.0</ele><time>2026-03-28T16:02:32.998Z</time></trkpt><trkpt lat="44.41201701729373" lon="8.991101829471354"><ele>51.0</ele><time>2026-03-28T16:02:33.998Z</time></trkpt><trkpt lat="44.412206588155556" lon="8.990874939835054"><ele>68.5</ele><time>2026-03-28T16:02:35Z</time></trkpt><trkpt lat="44.41239118302089" lon="8.990649079841976"><ele>86.0</ele><time>2026-03-28T16:02:36Z</time></trkpt><trkpt lat="44.41258056812732" lon="8.990429142774824"><ele>86.0</ele><time>2026-03-28T16:02:37Z</time></trkpt><trkpt lat="44.41277034109198" lon="8.99020487318373"><ele>86.0</ele><time>2026-03-28T16:02:38Z</time></trkpt><trkpt lat="44.41296539729179" lon="8.989985406325916"><ele>107.0</ele><time>2026-03-28T16:02:39Z</time></trkpt><trkpt lat="44.413168041816135" lon="8.98977902385327"><ele>128.0</ele><time>2026-03-28T16:02:40Z</time></trkpt><trkpt lat="44.41337006489383" lon="8.989566752042903"><ele>128.0</ele><time>2026-03-28T16:02:41Z</time></trkpt><trkpt lat="44.41357179146688" lon="8.989352943838876"><ele>128.0</ele><time>2026-03-28T16:02:42Z</time></trkpt><trkpt lat="44.41377199966815" lon="8.989125228557642"><ele>153.0</ele><time>2026-03-28T16:02:43Z</time></trkpt><trkpt lat="44.41396864272542" lon="8.9888939074656"><ele>178.0</ele><time>2026-03-28T16:02:44Z</time></trkpt><trkpt lat="44.41417093039282" lon="8.988654796287905"><ele>178.0</ele><time>2026-03-28T16:02:45.019Z</time></trkpt><trkpt lat="44.41437009975612" lon="8.988421249119405"><ele>178.0</ele><time>2026-03-28T16:02:46.023Z</time></trkpt><trkpt lat="44.41456906956286" lon="8.988189699783014"><ele>197.5</ele><time>2026-03-28T16:02:47.016Z</time></trkpt><trkpt lat="44.41476604425838" lon="8.987954037384505"><ele>217.0</ele><time>2026-03-28T16:02:48.021Z</time></trkpt><trkpt lat="44.41496659012793" lon="8.987717523911268"><ele>291.0</ele><time>2026-03-28T16:02:49.018Z</time></trkpt><trkpt lat="44.41715691398989" lon="8.984826405479826"><ele>279.0</ele><time>2026-03-28T16:02:53.217Z</time></trkpt><trkpt lat="44.41786216058199" lon="8.983857116116837"><ele>264.0</ele><time>2026-03-28T16:02:54.217Z</time></trkpt><trkpt lat="44.418565473569124" lon="8.982885261795337"><ele>227.0</ele><time>2026-03-28T16:02:55.217Z</time></trkpt><trkpt lat="44.419269393857384" lon="8.981914155669319"><ele>227.0</ele><time>2026-03-28T16:02:56.217Z</time></trkpt><trkpt lat="44.419975625897784" lon="8.980946267704626"><ele>207.0</ele><time>2026-03-28T16:02:57.217Z</time></trkpt><trkpt lat="44.420677364061625" lon="8.979980142400237"><ele>180.0</ele><time>2026-03-28T16:02:58.213Z</time></trkpt><trkpt lat="44.421385345973114" lon="8.979006730000615"><ele>146.0</ele><time>2026-03-28T16:02:59.217Z</time></trkpt><trkpt lat="44.4219783" lon="8.9781035"><ele>140.5</ele><time>2026-03-28T16:03:00.215Z</time></trkpt><trkpt lat="44.4222698640492" lon="8.97767560557367"><ele>135.0</ele><time>2026-03-28T16:03:30Z</time></trkpt><trkpt lat="44.42244062127971" lon="8.977419111712313"><ele>125.0</ele><time>2026-03-28T16:03:30.999Z</time></trkpt><trkpt lat="44.42260232175113" lon="8.97717855911659"><ele>115.0</ele><time>2026-03-28T16:03:31.999Z</time></trkpt><trkpt lat="44.422778677012055" lon="8.976926706732392"><ele>109.5</ele><time>2026-03-28T16:03:32.999Z</time></trkpt><trkpt lat="44.42295215943099" lon="8.976673376575507"><ele>104.0</ele><time>2026-03-28T16:03:33.999Z</time></trkpt><trkpt lat="44.42313524486658" lon="8.976423882929677"><ele>101.0</ele><time>2026-03-28T16:03:34.999Z</time></trkpt><trkpt lat="44.4233132136916" lon="8.976180103770906"><ele>98.0</ele><time>2026-03-28T16:03:35.999Z</time></trkpt><trkpt lat="44.42348871726769" lon="8.975941306024273"><ele>107.5</ele><time>2026-03-28T16:03:36.999Z</time></trkpt><trkpt lat="44.423668730178434" lon="8.97570386248657"><ele>117.0</ele><time>2026-03-28T16:03:37.999Z</time></trkpt><trkpt lat="44.423857978244804" lon="8.9754668060356"><ele>127.5</ele><time>2026-03-28T16:03:38.999Z</time></trkpt><trkpt lat="44.42404753931305" lon="8.975237018596555"><ele>138.0</ele><time>2026-03-28T16:03:39.999Z</time></trkpt><trkpt lat="44.42423150617494" lon="8.974997817060517"><ele>142.0</ele><time>2026-03-28T16:03:40.999Z</time></trkpt><trkpt lat="44.42441280156493" lon="8.974743480852297"><ele>146.0</ele><time>2026-03-28T16:03:42.022Z</time></trkpt><trkpt lat="44.42458303688974" lon="8.97448806871943"><ele>158.5</ele><time>2026-03-28T16:03:43.023Z</time></trkpt><trkpt lat="44.424751981172506" lon="8.974230703685734"><ele>171.0</ele><time>2026-03-28T16:03:44.02Z</time></trkpt><trkpt lat="44.424922645042145" lon="8.973972551471114"><ele>217.0</ele><time>2026-03-28T16:03:45.022Z</time></trkpt><trkpt lat="44.42669782204283" lon="8.971303540972938"><ele>105.0</ele><time>2026-03-28T16:03:56.629Z</time></trkpt><trkpt lat="44.431722471531884" lon="8.962673591458204"><ele>96.0</ele><time>2026-03-28T16:04:26.999Z</time></trkpt><trkpt lat="44.431858149556014" lon="8.962386405809818"><ele>87.0</ele><time>2026-03-28T16:04:27.999Z</time></trkpt><trkpt lat="44.43201456561677" lon="8.962172178839882"><ele>70.5</ele><time>2026-03-28T16:04:28.999Z</time></trkpt><trkpt lat="44.432163805880336" lon="8.961903871350136"><ele>54.0</ele><time>2026-03-28T16:04:29.999Z</time></trkpt><trkpt lat="44.43231395751568" lon="8.961622607396322"><ele>49.0</ele><time>2026-03-28T16:04:30.999Z</time></trkpt><trkpt lat="44.43246323605015" lon="8.96134651433899"><ele>44.0</ele><time>2026-03-28T16:04:31.999Z</time></trkpt><trkpt lat="44.432613030047285" lon="8.96107454471426"><ele>38.5</ele><time>2026-03-28T16:04:32.999Z</time></trkpt><trkpt lat="44.432766080403965" lon="8.960800180290192"><ele>33.0</ele><time>2026-03-28T16:04:33.999Z</time></trkpt><trkpt lat="44.43291692241745" lon="8.960524166878223"><ele>34.0</ele><time>2026-03-28T16:04:34.999Z</time></trkpt><trkpt lat="44.4330686972082" lon="8.960249111972379"><ele>35.0</ele><time>2026-03-28T16:04:35.999Z</time></trkpt><trkpt lat="44.43322282690247" lon="8.959972344591787"><ele>35.0</ele><time>2026-03-28T16:04:36.999Z</time></trkpt><trkpt lat="44.43337476745797" lon="8.959699691255752"><ele>35.0</ele><time>2026-03-28T16:04:37.999Z</time></trkpt><trkpt lat="44.4335296682941" lon="8.959427167278298"><ele>35.0</ele><time>2026-03-28T16:04:38.999Z</time></trkpt><trkpt lat="44.43368313779176" lon="8.959150897991224"><ele>35.0</ele><time>2026-03-28T16:04:39.999Z</time></trkpt><trkpt lat="44.43383439527046" lon="8.958876151332072"><ele>35.0</ele><time>2026-03-28T16:04:41Z</time></trkpt><trkpt lat="44.43398746202702" lon="8.95859897972814"><ele>35.0</ele><time>2026-03-28T16:04:42Z</time></trkpt><trkpt lat="44.43413827999836" lon="8.958319262321806"><ele>44.0</ele><time>2026-03-28T16:04:43Z</time></trkpt><trkpt lat="44.434292244236886" lon="8.958042486841109"><ele>53.0</ele><time>2026-03-28T16:04:44Z</time></trkpt><trkpt lat="44.43444414900433" lon="8.957767586202115"><ele>61.5</ele><time>2026-03-28T16:04:45Z</time></trkpt><trkpt lat="44.43459542061357" lon="8.957490998476503"><ele>70.0</ele><time>2026-03-28T16:04:46Z</time></trkpt><trkpt lat="44.43474395033194" lon="8.957212042799947"><ele>70.0</ele><time>2026-03-28T16:04:47Z</time></trkpt><trkpt lat="44.434884416803" lon="8.956927142827661"><ele>70.0</ele><time>2026-03-28T16:04:48Z</time></trkpt><trkpt lat="44.435016939389776" lon="8.956635028951693"><ele>83.0</ele><time>2026-03-28T16:04:49Z</time></trkpt><trkpt lat="44.43514071797274" lon="8.956333901307335"><ele>96.0</ele><time>2026-03-28T16:04:50Z</time></trkpt><trkpt lat="44.43525442602622" lon="8.95602468618182"><ele>107.5</ele><time>2026-03-28T16:04:51Z</time></trkpt><trkpt lat="44.43535931122961" lon="8.955707900655725"><ele>119.0</ele><time>2026-03-28T16:04:52Z</time></trkpt><trkpt lat="44.43545983959101" lon="8.95538752372004"><ele>125.0</ele><time>2026-03-28T16:04:53Z</time></trkpt><trkpt lat="44.43556310122675" lon="8.955064085081883"><ele>131.0</ele><time>2026-03-28T16:04:54.022Z</time></trkpt><trkpt lat="44.43566475653551" lon="8.954749613182644"><ele>144.0</ele><time>2026-03-28T16:04:55.021Z</time></trkpt><trkpt lat="44.43576580545569" lon="8.954431835135846"><ele>157.0</ele><time>2026-03-28T16:04:56.022Z</time></trkpt><trkpt lat="44.43586543791823" lon="8.954115570080136"><ele>209.0</ele><time>2026-03-28T16:04:57.016Z</time></trkpt><trkpt lat="44.43700678528723" lon="8.950639235412693"><ele>154.0</ele><time>2026-03-28T16:05:01.212Z</time></trkpt><trkpt lat="44.43718264918477" lon="8.949662643574904"><ele>126.0</ele><time>2026-03-28T16:05:02.215Z</time></trkpt><trkpt lat="44.43728788759972" lon="8.94864463248192"><ele>114.0</ele><time>2026-03-28T16:05:14Z</time></trkpt><trkpt lat="44.43729249192192" lon="8.948295518265471"><ele>102.0</ele><time>2026-03-28T16:05:15Z</time></trkpt><trkpt lat="44.43721074368669" lon="8.947925822244013"><ele>102.0</ele><time>2026-03-28T16:05:16Z</time></trkpt><trkpt lat="44.437194058197356" lon="8.947584194574059"><ele>102.0</ele><time>2026-03-28T16:05:17Z</time></trkpt><trkpt lat="44.43718274489426" lon="8.947239300717568"><ele>96.0</ele><time>2026-03-28T16:05:18Z</time></trkpt><trkpt lat="44.43717011892032" lon="8.946888873801704"><ele>90.0</ele><time>2026-03-28T16:05:19Z</time></trkpt><trkpt lat="44.43715793683448" lon="8.94654573780364"><ele>100.0</ele><time>2026-03-28T16:05:20Z</time></trkpt><trkpt lat="44.43714288448807" lon="8.946200657994943"><ele>110.0</ele><time>2026-03-28T16:05:21Z</time></trkpt><trkpt lat="44.437117961298604" lon="8.945847308259244"><ele>110.0</ele><time>2026-03-28T16:05:22Z</time></trkpt><trkpt lat="44.43710320637414" lon="8.94550345192159"><ele>110.0</ele><time>2026-03-28T16:05:23Z</time></trkpt><trkpt lat="44.437090260665435" lon="8.945155974624287"><ele>114.5</ele><time>2026-03-28T16:05:24Z</time></trkpt><trkpt lat="44.437080222048706" lon="8.944808516891788"><ele>119.0</ele><time>2026-03-28T16:05:25Z</time></trkpt><trkpt lat="44.43706994966183" lon="8.944458626567322"><ele>121.5</ele><time>2026-03-28T16:05:26Z</time></trkpt><trkpt lat="44.43706048657243" lon="8.9441127900054"><ele>124.0</ele><time>2026-03-28T16:05:27Z</time></trkpt><trkpt lat="44.43704884512734" lon="8.943761517098325"><ele>124.0</ele><time>2026-03-28T16:05:28Z</time></trkpt><trkpt lat="44.437039386802326" lon="8.94342206850687"><ele>124.0</ele><time>2026-03-28T16:05:29Z</time></trkpt><trkpt lat="44.4370315904579" lon="8.943118265803113"><ele>125.33333333333334</ele><time>2026-03-28T16:05:30Z</time></trkpt><trkpt lat="44.43702473305938" lon="8.942821333707604"><ele>126.66666666666666</ele><time>2026-03-28T16:05:31Z</time></trkpt><trkpt lat="44.43702921470886" lon="8.942526987934768"><ele>128.0</ele><time>2026-03-28T16:05:32Z</time></trkpt><trkpt lat="44.437047567102525" lon="8.942234294985152"><ele>129.66666666666666</ele><time>2026-03-28T16:05:33Z</time></trkpt><trkpt lat="44.4370818883979" lon="8.94193731996226"><ele>131.33333333333334</ele><time>2026-03-28T16:05:34Z</time></trkpt><trkpt lat="44.43712983339831" lon="8.941640381289208"><ele>133.0</ele><time>2026-03-28T16:05:35Z</time></trkpt><trkpt lat="44.43719306827997" lon="8.941348473488501"><ele>137.0</ele><time>2026-03-28T16:05:35.999Z</time></trkpt><trkpt lat="44.437286305637386" lon="8.941062961935938"><ele>141.0</ele><time>2026-03-28T16:05:36.999Z</time></trkpt><trkpt lat="44.437392846712775" lon="8.940790234875509"><ele>145.0</ele><time>2026-03-28T16:05:37.999Z</time></trkpt><trkpt lat="44.43750900831042" lon="8.940529254557179"><ele>145.0</ele><time>2026-03-28T16:05:38.999Z</time></trkpt><trkpt lat="44.43763923564265" lon="8.940271649052065"><ele>145.0</ele><time>2026-03-28T16:05:39.999Z</time></trkpt><trkpt lat="44.437775090363985" lon="8.940015868928413"><ele>146.0</ele><time>2026-03-28T16:05:40.999Z</time></trkpt><trkpt lat="44.43791819146002" lon="8.939755057435342"><ele>147.0</ele><time>2026-03-28T16:05:41.999Z</time></trkpt><trkpt lat="44.43804373833958" lon="8.939499802460473"><ele>150.66666666666666</ele><time>2026-03-28T16:05:42.999Z</time></trkpt><trkpt lat="44.438166369244314" lon="8.939249334776578"><ele>154.33333333333331</ele><time>2026-03-28T16:05:43.999Z</time></trkpt><trkpt lat="44.43828526169499" lon="8.938997496225934"><ele>158.0</ele><time>2026-03-28T16:05:44.999Z</time></trkpt><trkpt lat="44.438404524102644" lon="8.938747951113536"><ele>158.0</ele><time>2026-03-28T16:05:45.999Z</time></trkpt><trkpt lat="44.43852711285334" lon="8.938490622023775"><ele>158.0</ele><time>2026-03-28T16:05:46.999Z</time></trkpt><trkpt lat="44.43865465812775" lon="8.938229397083079"><ele>158.0</ele><time>2026-03-28T16:05:47.999Z</time></trkpt><trkpt lat="44.43878304762101" lon="8.937961301557925"><ele>173.5</ele><time>2026-03-28T16:05:49.021Z</time></trkpt><trkpt lat="44.438906152233024" lon="8.937695304587223"><ele>189.0</ele><time>2026-03-28T16:05:50.02Z</time></trkpt><trkpt lat="44.43902454638117" lon="8.937429060141573"><ele>195.5</ele><time>2026-03-28T16:05:51.014Z</time></trkpt><trkpt lat="44.439161562005815" lon="8.937181451675894"><ele>202.0</ele><time>2026-03-28T16:05:52.015Z</time></trkpt><trkpt lat="44.440400862306795" lon="8.934520211646218"><ele>347.0</ele><time>2026-03-28T16:05:56.215Z</time></trkpt><trkpt lat="44.44067843447956" lon="8.933873931152"><ele>347.0</ele><time>2026-03-28T16:05:57.215Z</time></trkpt><trkpt lat="44.4408667" lon="8.9334339"><ele>347.0</ele><time>2026-03-28T16:05:58.215Z</time></trkpt><trkpt lat="44.44621888924804" lon="8.920410024010502"><ele>274.0</ele><time>2026-03-28T16:06:59.998Z</time></trkpt><trkpt lat="44.44626351159272" lon="8.920167664394446"><ele>201.0</ele><time>2026-03-28T16:07:00.998Z</time></trkpt><trkpt lat="44.44626569786228" lon="8.919981166240277"><ele>128.0</ele><time>2026-03-28T16:07:01.998Z</time></trkpt><trkpt lat="44.44628463402874" lon="8.919726761967171"><ele>128.66666666666666</ele><time>2026-03-28T16:07:02.998Z</time></trkpt><trkpt lat="44.44629892885762" lon="8.919468263577528"><ele>129.33333333333334</ele><time>2026-03-28T16:07:03.998Z</time></trkpt><trkpt lat="44.44630305816679" lon="8.919206987142278"><ele>130.0</ele><time>2026-03-28T16:07:04.998Z</time></trkpt><trkpt lat="44.446290507368445" lon="8.918935450225932"><ele>124.33333333333334</ele><time>2026-03-28T16:07:06Z</time></trkpt><trkpt lat="44.44626716708798" lon="8.918664765951767"><ele>118.66666666666666</ele><time>2026-03-28T16:07:07Z</time></trkpt><trkpt lat="44.44623242405334" lon="8.91839136852663"><ele>113.0</ele><time>2026-03-28T16:07:08Z</time></trkpt><trkpt lat="44.446189757252284" lon="8.91811282143976"><ele>112.66666666666666</ele><time>2026-03-28T16:07:09Z</time></trkpt><trkpt lat="44.44613436901119" lon="8.917833334143836"><ele>112.33333333333334</ele><time>2026-03-28T16:07:10Z</time></trkpt><trkpt lat="44.44608073488364" lon="8.917561339692641"><ele>112.0</ele><time>2026-03-28T16:07:11Z</time></trkpt><trkpt lat="44.446019978387476" lon="8.917275395915523"><ele>111.0</ele><time>2026-03-28T16:07:12Z</time></trkpt><trkpt lat="44.44596342291102" lon="8.917001199065533"><ele>110.0</ele><time>2026-03-28T16:07:13Z</time></trkpt><trkpt lat="44.4459067471247" lon="8.916729436534789"><ele>109.0</ele><time>2026-03-28T16:07:14Z</time></trkpt><trkpt lat="44.44585490470097" lon="8.916458908187769"><ele>109.0</ele><time>2026-03-28T16:07:15Z</time></trkpt><trkpt lat="44.44580451323895" lon="8.91619804443877"><ele>109.0</ele><time>2026-03-28T16:07:16Z</time></trkpt><trkpt lat="44.44576168643397" lon="8.915943587270323"><ele>109.0</ele><time>2026-03-28T16:07:17Z</time></trkpt><trkpt lat="44.445717841822315" lon="8.91568039953161"><ele>107.66666666666667</ele><time>2026-03-28T16:07:18Z</time></trkpt><trkpt lat="44.4456794863706" lon="8.915409328380633"><ele>106.33333333333334</ele><time>2026-03-28T16:07:19Z</time></trkpt><trkpt lat="44.44564569258873" lon="8.91513709386899"><ele>105.0</ele><time>2026-03-28T16:07:20Z</time></trkpt><trkpt lat="44.445618852496544" lon="8.914862670620332"><ele>104.0</ele><time>2026-03-28T16:07:21Z</time></trkpt><trkpt lat="44.4455935412783" lon="8.914586691763633"><ele>103.0</ele><time>2026-03-28T16:07:22Z</time></trkpt><trkpt lat="44.44557379756749" lon="8.914313224483145"><ele>102.0</ele><time>2026-03-28T16:07:23Z</time></trkpt><trkpt lat="44.44555666094486" lon="8.914040467117731"><ele>103.0</ele><time>2026-03-28T16:07:24Z</time></trkpt><trkpt lat="44.445547832271444" lon="8.91377029072576"><ele>104.0</ele><time>2026-03-28T16:07:25Z</time></trkpt><trkpt lat="44.44554475455745" lon="8.913500300930037"><ele>105.0</ele><time>2026-03-28T16:07:26Z</time></trkpt><trkpt lat="44.44554742323189" lon="8.913228638067341"><ele>105.0</ele><time>2026-03-28T16:07:27Z</time></trkpt><trkpt lat="44.44555537415823" lon="8.912955643305738"><ele>105.0</ele><time>2026-03-28T16:07:28Z</time></trkpt><trkpt lat="44.445568820854554" lon="8.912679346647707"><ele>105.0</ele><time>2026-03-28T16:07:29Z</time></trkpt><trkpt lat="44.445583462454955" lon="8.9123981845575"><ele>102.33333333333334</ele><time>2026-03-28T16:07:30Z</time></trkpt><trkpt lat="44.445600090528075" lon="8.912116655954907"><ele>99.66666666666667</ele><time>2026-03-28T16:07:31Z</time></trkpt><trkpt lat="44.44561770497167" lon="8.91183413554276"><ele>97.0</ele><time>2026-03-28T16:07:32Z</time></trkpt><trkpt lat="44.44563555559467" lon="8.911552254105386"><ele>96.33333333333334</ele><time>2026-03-28T16:07:33Z</time></trkpt><trkpt lat="44.445653868417544" lon="8.911266535561866"><ele>95.66666666666667</ele><time>2026-03-28T16:07:34Z</time></trkpt><trkpt lat="44.445669526089404" lon="8.910980057082998"><ele>95.0</ele><time>2026-03-28T16:07:35Z</time></trkpt><trkpt lat="44.445684794782714" lon="8.910691415208284"><ele>93.66666666666667</ele><time>2026-03-28T16:07:36Z</time></trkpt><trkpt lat="44.445705121595886" lon="8.910402573573098"><ele>92.33333333333333</ele><time>2026-03-28T16:07:37Z</time></trkpt><trkpt lat="44.44572630316173" lon="8.910130725581862"><ele>91.0</ele><time>2026-03-28T16:07:38Z</time></trkpt><trkpt lat="44.44574383016792" lon="8.909869776012071"><ele>90.0</ele><time>2026-03-28T16:07:39Z</time></trkpt><trkpt lat="44.44576111318645" lon="8.909612548901597"><ele>89.0</ele><time>2026-03-28T16:07:40Z</time></trkpt><trkpt lat="44.44577817346071" lon="8.909366668464633"><ele>88.0</ele><time>2026-03-28T16:07:41Z</time></trkpt><trkpt lat="44.445792500774026" lon="8.90912835357436"><ele>86.33333333333333</ele><time>2026-03-28T16:07:42Z</time></trkpt><trkpt lat="44.445803224783816" lon="8.908892574968007"><ele>84.66666666666667</ele><time>2026-03-28T16:07:43Z</time></trkpt><trkpt lat="44.44580302397264" lon="8.90864655222387"><ele>83.0</ele><time>2026-03-28T16:07:44Z</time></trkpt><trkpt lat="44.44579335052793" lon="8.908395911642025"><ele>83.0</ele><time>2026-03-28T16:07:45Z</time></trkpt><trkpt lat="44.44577320524928" lon="8.908147941115718"><ele>83.0</ele><time>2026-03-28T16:07:46Z</time></trkpt><trkpt lat="44.445763574232494" lon="8.90788418766796"><ele>83.0</ele><time>2026-03-28T16:07:47Z</time></trkpt><trkpt lat="44.445746190864185" lon="8.90762241779867"><ele>84.33333333333334</ele><time>2026-03-28T16:07:48Z</time></trkpt><trkpt lat="44.4457351087236" lon="8.907351589147474"><ele>85.66666666666667</ele><time>2026-03-28T16:07:49Z</time></trkpt><trkpt lat="44.44573030974542" lon="8.907076578520853"><ele>87.0</ele><time>2026-03-28T16:07:50Z</time></trkpt><trkpt lat="44.445688119960266" lon="8.906827813995394"><ele>86.0</ele><time>2026-03-28T16:07:51Z</time></trkpt><trkpt lat="44.44567792794466" lon="8.906578150089295"><ele>85.0</ele><time>2026-03-28T16:07:52Z</time></trkpt><trkpt lat="44.44562767145652" lon="8.90628054105339"><ele>84.0</ele><time>2026-03-28T16:07:53Z</time></trkpt><trkpt lat="44.4455729908711" lon="8.906021664980749"><ele>85.0</ele><time>2026-03-28T16:07:54Z</time></trkpt><trkpt lat="44.44552419839752" lon="8.90575753722009"><ele>86.0</ele><time>2026-03-28T16:07:55Z</time></trkpt><trkpt lat="44.445486620188014" lon="8.905500961313104"><ele>87.0</ele><time>2026-03-28T16:07:56Z</time></trkpt><trkpt lat="44.445454777171044" lon="8.90526205263941"><ele>81.0</ele><time>2026-03-28T16:07:57Z</time></trkpt><trkpt lat="44.4454217888579" lon="8.905030097706266"><ele>75.0</ele><time>2026-03-28T16:07:58Z</time></trkpt><trkpt lat="44.445408639741515" lon="8.904811811075952"><ele>69.0</ele><time>2026-03-28T16:07:58.999Z</time></trkpt><trkpt lat="44.445424518927126" lon="8.904610677629664"><ele>73.75</ele><time>2026-03-28T16:07:59.999Z</time></trkpt><trkpt lat="44.44547286292873" lon="8.904427710326331"><ele>78.5</ele><time>2026-03-28T16:08:00.999Z</time></trkpt><trkpt lat="44.44554332050661" lon="8.904262041311423"><ele>83.25</ele><time>2026-03-28T16:08:01.999Z</time></trkpt><trkpt lat="44.445645035504235" lon="8.904116042485931"><ele>88.0</ele><time>2026-03-28T16:08:02.999Z</time></trkpt><trkpt lat="44.44576235141689" lon="8.904022963429187"><ele>88.0</ele><time>2026-03-28T16:08:03.999Z</time></trkpt><trkpt lat="44.4458973170173" lon="8.903956199299328"><ele>88.0</ele><time>2026-03-28T16:08:04.999Z</time></trkpt><trkpt lat="44.446048013441796" lon="8.903928468067793"><ele>88.0</ele><time>2026-03-28T16:08:05.999Z</time></trkpt><trkpt lat="44.44619615537202" lon="8.903916765804492"><ele>88.0</ele><time>2026-03-28T16:08:06.999Z</time></trkpt><trkpt lat="44.44634076554665" lon="8.90390474369293"><ele>89.66666666666666</ele><time>2026-03-28T16:08:07.999Z</time></trkpt><trkpt lat="44.446495949684326" lon="8.903889172169391"><ele>91.33333333333333</ele><time>2026-03-28T16:08:08.999Z</time></trkpt><trkpt lat="44.44666216830511" lon="8.903873017612877"><ele>93.0</ele><time>2026-03-28T16:08:09.999Z</time></trkpt><trkpt lat="44.44683362089836" lon="8.903871708072193"><ele>93.0</ele><time>2026-03-28T16:08:10.999Z</time></trkpt><trkpt lat="44.44701521739866" lon="8.90387015205227"><ele>93.0</ele><time>2026-03-28T16:08:11.999Z</time></trkpt><trkpt lat="44.447203737224136" lon="8.903868630773124"><ele>93.0</ele><time>2026-03-28T16:08:13.012Z</time></trkpt><trkpt lat="44.447400722881056" lon="8.903870007512218"><ele>97.66666666666666</ele><time>2026-03-28T16:08:14.023Z</time></trkpt><trkpt lat="44.44760074703741" lon="8.903868803263835"><ele>102.33333333333333</ele><time>2026-03-28T16:08:15.019Z</time></trkpt><trkpt lat="44.447803656843504" lon="8.90386466478172"><ele>107.0</ele><time>2026-03-28T16:08:16.018Z</time></trkpt><trkpt lat="44.44800666439673" lon="8.903860374143674"><ele>112.0</ele><time>2026-03-28T16:08:17.014Z</time></trkpt><trkpt lat="44.45101559612954" lon="8.903797644003678"><ele>90.0</ele><time>2026-03-28T16:08:21.213Z</time></trkpt><trkpt lat="44.45200543658277" lon="8.903781525600204"><ele>121.0</ele><time>2026-03-28T16:08:22.213Z</time></trkpt><trkpt lat="44.452995276785444" lon="8.903766059851977"><ele>121.0</ele><time>2026-03-28T16:08:23.213Z</time></trkpt><trkpt lat="44.45353523067548" lon="8.903757691924245"><ele>123.0</ele><time>2026-03-28T16:08:24.213Z</time></trkpt><trkpt lat="44.45407509064167" lon="8.903749351568555"><ele>123.0</ele><time>2026-03-28T16:08:25.213Z</time></trkpt><trkpt lat="44.45461500201402" lon="8.903741116797155"><ele>85.0</ele><time>2026-03-28T16:08:26.213Z</time></trkpt><trkpt lat="44.4551534644278" lon="8.903786770528152"><ele>92.0</ele><time>2026-03-28T16:08:27.213Z</time></trkpt><trkpt lat="44.4527098769736" lon="8.903761468836016"><ele>92.0</ele><time>2026-03-28T16:08:36.999Z</time></trkpt><trkpt lat="44.452949791017815" lon="8.903761468836016"><ele>92.0</ele><time>2026-03-28T16:08:37.999Z</time></trkpt><trkpt lat="44.45318976500824" lon="8.903762390845365"><ele>106.5</ele><time>2026-03-28T16:08:38.999Z</time></trkpt><trkpt lat="44.45343545803531" lon="8.903763312854712"><ele>121.0</ele><time>2026-03-28T16:08:40.023Z</time></trkpt><trkpt lat="44.45555955641387" lon="8.903895411648698"><ele>88.5</ele><time>2026-03-28T16:08:48.999Z</time></trkpt><trkpt lat="44.455796204496586" lon="8.903952741912882"><ele>56.0</ele><time>2026-03-28T16:08:49.999Z</time></trkpt><trkpt lat="44.45605303270264" lon="8.903980571124547"><ele>55.0</ele><time>2026-03-28T16:08:50.999Z</time></trkpt><trkpt lat="44.456290305166235" lon="8.904032858620601"><ele>54.0</ele><time>2026-03-28T16:08:51.999Z</time></trkpt><trkpt lat="44.456517073094446" lon="8.904086807159473"><ele>54.0</ele><time>2026-03-28T16:08:52.999Z</time></trkpt><trkpt lat="44.45674899779851" lon="8.904145752600726"><ele>54.0</ele><time>2026-03-28T16:08:53.999Z</time></trkpt><trkpt lat="44.45698672454027" lon="8.904203284728684"><ele>68.0</ele><time>2026-03-28T16:08:54.999Z</time></trkpt><trkpt lat="44.45721981355511" lon="8.904259515189404"><ele>82.0</ele><time>2026-03-28T16:08:55.999Z</time></trkpt><trkpt lat="44.457450900986196" lon="8.90431560531692"><ele>82.0</ele><time>2026-03-28T16:08:56.999Z</time></trkpt><trkpt lat="44.45768556903978" lon="8.904375754862468"><ele>82.0</ele><time>2026-03-28T16:08:57.999Z</time></trkpt><trkpt lat="44.45792231321995" lon="8.904436895958742"><ele>87.5</ele><time>2026-03-28T16:08:58.999Z</time></trkpt><trkpt lat="44.458164658005465" lon="8.904491693326069"><ele>93.0</ele><time>2026-03-28T16:08:59.999Z</time></trkpt><trkpt lat="44.458406005943836" lon="8.904542790138622"><ele>93.0</ele><time>2026-03-28T16:09:00.999Z</time></trkpt><trkpt lat="44.45864964379472" lon="8.90459635569192"><ele>93.0</ele><time>2026-03-28T16:09:01.999Z</time></trkpt><trkpt lat="44.45889859291331" lon="8.904654765333595"><ele>104.0</ele><time>2026-03-28T16:09:03.018Z</time></trkpt><trkpt lat="44.45914202128755" lon="8.904717712496433"><ele>115.0</ele><time>2026-03-28T16:09:04.014Z</time></trkpt><trkpt lat="44.45963729243172" lon="8.904867211520651"><ele>124.0</ele><time>2026-03-28T16:09:06.017Z</time></trkpt><trkpt lat="44.4598853503941" lon="8.904935151756128"><ele>133.0</ele><time>2026-03-28T16:09:07.019Z</time></trkpt><trkpt lat="44.46285388308369" lon="8.905667787231032"><ele>91.0</ele><time>2026-03-28T16:09:11.212Z</time></trkpt><trkpt lat="44.46382789596128" lon="8.905909396235831"><ele>110.0</ele><time>2026-03-28T16:09:12.212Z</time></trkpt><trkpt lat="44.4645767" lon="8.9060922"><ele>92.0</ele><time>2026-03-28T16:09:13.212Z</time></trkpt><trkpt lat="44.46513554551123" lon="8.906249720611521"><ele>92.0</ele><time>2026-03-28T16:09:28.998Z</time></trkpt><trkpt lat="44.46536832961022" lon="8.906339677198114"><ele>92.0</ele><time>2026-03-28T16:09:29.998Z</time></trkpt><trkpt lat="44.465589066473385" lon="8.906496196241212"><ele>85.5</ele><time>2026-03-28T16:09:30.998Z</time></trkpt><trkpt lat="44.46582111366965" lon="8.906598461105737"><ele>79.0</ele><time>2026-03-28T16:09:31.998Z</time></trkpt><trkpt lat="44.466051138644964" lon="8.90670036937744"><ele>87.5</ele><time>2026-03-28T16:09:32.998Z</time></trkpt><trkpt lat="44.46627970048923" lon="8.906805098078028"><ele>96.0</ele><time>2026-03-28T16:09:33.998Z</time></trkpt><trkpt lat="44.46651559512395" lon="8.906905444982609"><ele>96.0</ele><time>2026-03-28T16:09:35Z</time></trkpt><trkpt lat="44.46674845397846" lon="8.907009538561482"><ele>96.0</ele><time>2026-03-28T16:09:36Z</time></trkpt><trkpt lat="44.46698003809663" lon="8.907115238447911"><ele>85.0</ele><time>2026-03-28T16:09:37Z</time></trkpt><trkpt lat="44.46720995724084" lon="8.907220689566689"><ele>74.0</ele><time>2026-03-28T16:09:38Z</time></trkpt><trkpt lat="44.467442764583325" lon="8.907318051049792"><ele>74.0</ele><time>2026-03-28T16:09:39Z</time></trkpt><trkpt lat="44.46767923225311" lon="8.907423188392897"><ele>74.0</ele><time>2026-03-28T16:09:40Z</time></trkpt><trkpt lat="44.467913568339746" lon="8.90752975085373"><ele>89.0</ele><time>2026-03-28T16:09:41Z</time></trkpt><trkpt lat="44.468151659468695" lon="8.907637117113495"><ele>104.0</ele><time>2026-03-28T16:09:42Z</time></trkpt><trkpt lat="44.46838693725565" lon="8.90774826851387"><ele>104.0</ele><time>2026-03-28T16:09:43Z</time></trkpt><trkpt lat="44.46862057554522" lon="8.907861364988465"><ele>104.0</ele><time>2026-03-28T16:09:44Z</time></trkpt><trkpt lat="44.468844833985536" lon="8.90800364968713"><ele>90.0</ele><time>2026-03-28T16:09:45Z</time></trkpt><trkpt lat="44.46905287563165" lon="8.908189564447937"><ele>76.0</ele><time>2026-03-28T16:09:46Z</time></trkpt><trkpt lat="44.46924159764976" lon="8.908401130499668"><ele>87.0</ele><time>2026-03-28T16:09:47Z</time></trkpt><trkpt lat="44.46941486896022" lon="8.90863838077237"><ele>98.0</ele><time>2026-03-28T16:09:48Z</time></trkpt><trkpt lat="44.46957982368652" lon="8.908891441268265"><ele>87.0</ele><time>2026-03-28T16:09:49Z</time></trkpt><trkpt lat="44.46975098145333" lon="8.909139289932227"><ele>76.0</ele><time>2026-03-28T16:09:50Z</time></trkpt><trkpt lat="44.46992329400808" lon="8.9093949253366"><ele>76.0</ele><time>2026-03-28T16:09:51Z</time></trkpt><trkpt lat="44.470097837413014" lon="8.909643374622664"><ele>76.0</ele><time>2026-03-28T16:09:52Z</time></trkpt><trkpt lat="44.4702775111089" lon="8.909886521327499"><ele>75.5</ele><time>2026-03-28T16:09:53Z</time></trkpt><trkpt lat="44.47045669700034" lon="8.91012093310292"><ele>75.0</ele><time>2026-03-28T16:09:54Z</time></trkpt><trkpt lat="44.47064741098145" lon="8.910339856729506"><ele>75.0</ele><time>2026-03-28T16:09:55Z</time></trkpt><trkpt lat="44.47085329653834" lon="8.910531405153897"><ele>75.0</ele><time>2026-03-28T16:09:56Z</time></trkpt><trkpt lat="44.47107131985447" lon="8.910692098093188"><ele>68.5</ele><time>2026-03-28T16:09:57Z</time></trkpt><trkpt lat="44.471297340436635" lon="8.91082431168924"><ele>62.0</ele><time>2026-03-28T16:09:58Z</time></trkpt><trkpt lat="44.47153104533701" lon="8.910921324916602"><ele>62.0</ele><time>2026-03-28T16:09:59Z</time></trkpt><trkpt lat="44.471769544027175" lon="8.910991314556409"><ele>62.0</ele><time>2026-03-28T16:10:00Z</time></trkpt><trkpt lat="44.47201327085225" lon="8.911036327623458"><ele>61.0</ele><time>2026-03-28T16:10:01Z</time></trkpt><trkpt lat="44.47225842351504" lon="8.911049136706046"><ele>60.0</ele><time>2026-03-28T16:10:02Z</time></trkpt><trkpt lat="44.47250583521417" lon="8.911033668435914"><ele>60.0</ele><time>2026-03-28T16:10:03Z</time></trkpt><trkpt lat="44.472750657667945" lon="8.910993538253237"><ele>60.0</ele><time>2026-03-28T16:10:04Z</time></trkpt><trkpt lat="44.4729970788439" lon="8.910938722035578"><ele>59.5</ele><time>2026-03-28T16:10:05Z</time></trkpt><trkpt lat="44.47324328945233" lon="8.91088663051245"><ele>59.0</ele><time>2026-03-28T16:10:06Z</time></trkpt><trkpt lat="44.473490920467164" lon="8.910840722895184"><ele>59.0</ele><time>2026-03-28T16:10:07Z</time></trkpt><trkpt lat="44.473737773591395" lon="8.910797400774724"><ele>59.0</ele><time>2026-03-28T16:10:08Z</time></trkpt><trkpt lat="44.47398452922252" lon="8.910750596886068"><ele>62.5</ele><time>2026-03-28T16:10:09Z</time></trkpt><trkpt lat="44.47423168368976" lon="8.910701630809841"><ele>66.0</ele><time>2026-03-28T16:10:10Z</time></trkpt><trkpt lat="44.47448021991015" lon="8.91065266132804"><ele>72.5</ele><time>2026-03-28T16:10:11Z</time></trkpt><trkpt lat="44.474728090873654" lon="8.910602029263968"><ele>79.0</ele><time>2026-03-28T16:10:12Z</time></trkpt><trkpt lat="44.474972855492624" lon="8.910554036674226"><ele>79.0</ele><time>2026-03-28T16:10:13Z</time></trkpt><trkpt lat="44.47522063235466" lon="8.910508991459208"><ele>79.0</ele><time>2026-03-28T16:10:14Z</time></trkpt><trkpt lat="44.47546737670336" lon="8.910459787077041"><ele>82.5</ele><time>2026-03-28T16:10:15Z</time></trkpt><trkpt lat="44.47571521746845" lon="8.91040759485645"><ele>86.0</ele><time>2026-03-28T16:10:16Z</time></trkpt><trkpt lat="44.47596154929707" lon="8.910356329357954"><ele>86.0</ele><time>2026-03-28T16:10:17Z</time></trkpt><trkpt lat="44.47620820944764" lon="8.910311668977604"><ele>86.0</ele><time>2026-03-28T16:10:18Z</time></trkpt><trkpt lat="44.476455095304864" lon="8.910290520610902"><ele>89.5</ele><time>2026-03-28T16:10:19Z</time></trkpt><trkpt lat="44.47670093677583" lon="8.910310557722914"><ele>93.0</ele><time>2026-03-28T16:10:20Z</time></trkpt><trkpt lat="44.47694790106346" lon="8.910366921562543"><ele>97.0</ele><time>2026-03-28T16:10:21Z</time></trkpt><trkpt lat="44.47718473721625" lon="8.910460248474305"><ele>101.0</ele><time>2026-03-28T16:10:22Z</time></trkpt><trkpt lat="44.477410039111895" lon="8.910591250243163"><ele>101.0</ele><time>2026-03-28T16:10:23Z</time></trkpt><trkpt lat="44.47762449379488" lon="8.910751895299741"><ele>101.0</ele><time>2026-03-28T16:10:24Z</time></trkpt><trkpt lat="44.47783029205192" lon="8.910938316706732"><ele>102.0</ele><time>2026-03-28T16:10:25Z</time></trkpt><trkpt lat="44.47801950570663" lon="8.911155488434133"><ele>103.0</ele><time>2026-03-28T16:10:25.999Z</time></trkpt><trkpt lat="44.47818759431021" lon="8.911405181182138"><ele>103.0</ele><time>2026-03-28T16:10:26.999Z</time></trkpt><trkpt lat="44.47833207027656" lon="8.91168245123284"><ele>103.0</ele><time>2026-03-28T16:10:27.999Z</time></trkpt><trkpt lat="44.47845686319979" lon="8.91197590247045"><ele>102.5</ele><time>2026-03-28T16:10:28.999Z</time></trkpt><trkpt lat="44.47855889417143" lon="8.912289713999261"><ele>102.0</ele><time>2026-03-28T16:10:29.999Z</time></trkpt><trkpt lat="44.47864718578939" lon="8.91261534048964"><ele>102.5</ele><time>2026-03-28T16:10:30.999Z</time></trkpt><trkpt lat="44.47871454323985" lon="8.912946109334854"><ele>103.0</ele><time>2026-03-28T16:10:31.999Z</time></trkpt><trkpt lat="44.47879052454841" lon="8.913278976234775"><ele>106.5</ele><time>2026-03-28T16:10:32.999Z</time></trkpt><trkpt lat="44.478873036281605" lon="8.91360531327248"><ele>110.0</ele><time>2026-03-28T16:10:33.999Z</time></trkpt><trkpt lat="44.47895448701605" lon="8.913933358672752"><ele>111.0</ele><time>2026-03-28T16:10:34.999Z</time></trkpt><trkpt lat="44.47903379258218" lon="8.914262565013276"><ele>112.0</ele><time>2026-03-28T16:10:35.999Z</time></trkpt><trkpt lat="44.479122643825704" lon="8.914586103154578"><ele>112.0</ele><time>2026-03-28T16:10:36.999Z</time></trkpt><trkpt lat="44.47922975868972" lon="8.914895474767654"><ele>112.0</ele><time>2026-03-28T16:10:37.999Z</time></trkpt><trkpt lat="44.479356029717636" lon="8.915190459821064"><ele>114.5</ele><time>2026-03-28T16:10:38.999Z</time></trkpt><trkpt lat="44.47950691233586" lon="8.915461933227881"><ele>117.0</ele><time>2026-03-28T16:10:39.999Z</time></trkpt><trkpt lat="44.479673395481136" lon="8.915716733432266"><ele>113.5</ele><time>2026-03-28T16:10:40.999Z</time></trkpt><trkpt lat="44.47985160367303" lon="8.91596150552503"><ele>110.0</ele><time>2026-03-28T16:10:41.999Z</time></trkpt><trkpt lat="44.480030539242826" lon="8.916208466182097"><ele>110.0</ele><time>2026-03-28T16:10:42.999Z</time></trkpt><trkpt lat="44.480205285255764" lon="8.916457743471643"><ele>110.0</ele><time>2026-03-28T16:10:43.999Z</time></trkpt><trkpt lat="44.48037994488497" lon="8.916709553767712"><ele>115.0</ele><time>2026-03-28T16:10:44.999Z</time></trkpt><trkpt lat="44.48055627535647" lon="8.916953297665929"><ele>120.0</ele><time>2026-03-28T16:10:45.999Z</time></trkpt><trkpt lat="44.48074132732273" lon="8.917184641516556"><ele>120.0</ele><time>2026-03-28T16:10:46.999Z</time></trkpt><trkpt lat="44.4809380551515" lon="8.91739459472339"><ele>120.0</ele><time>2026-03-28T16:10:47.999Z</time></trkpt><trkpt lat="44.48114796484938" lon="8.917573229278728"><ele>115.5</ele><time>2026-03-28T16:10:48.999Z</time></trkpt><trkpt lat="44.48136700112355" lon="8.917727679359487"><ele>111.0</ele><time>2026-03-28T16:10:49.999Z</time></trkpt><trkpt lat="44.48159776349993" lon="8.917849071821328"><ele>111.0</ele><time>2026-03-28T16:10:50.999Z</time></trkpt><trkpt lat="44.48183248946713" lon="8.917946113605485"><ele>111.0</ele><time>2026-03-28T16:10:51.999Z</time></trkpt><trkpt lat="44.48207338854635" lon="8.918030750557326"><ele>117.5</ele><time>2026-03-28T16:10:52.999Z</time></trkpt><trkpt lat="44.482314704966996" lon="8.918117517211389"><ele>124.0</ele><time>2026-03-28T16:10:53.999Z</time></trkpt><trkpt lat="44.48255512518849" lon="8.91820919692691"><ele>124.0</ele><time>2026-03-28T16:10:54.999Z</time></trkpt><trkpt lat="44.4827943228727" lon="8.91829926962732"><ele>124.0</ele><time>2026-03-28T16:10:55.999Z</time></trkpt><trkpt lat="44.48303398135131" lon="8.91838130774803"><ele>119.5</ele><time>2026-03-28T16:10:56.999Z</time></trkpt><trkpt lat="44.48327400408433" lon="8.918472078341896"><ele>115.0</ele><time>2026-03-28T16:10:57.999Z</time></trkpt><trkpt lat="44.483516661234944" lon="8.91855149840763"><ele>115.0</ele><time>2026-03-28T16:10:58.999Z</time></trkpt><trkpt lat="44.48375591212546" lon="8.918605411577131"><ele>115.0</ele><time>2026-03-28T16:10:59.999Z</time></trkpt><trkpt lat="44.48400482896578" lon="8.918621012841891"><ele>117.0</ele><time>2026-03-28T16:11:00.999Z</time></trkpt><trkpt lat="44.48424956046586" lon="8.91859424745024"><ele>119.0</ele><time>2026-03-28T16:11:01.999Z</time></trkpt><trkpt lat="44.48448973568908" lon="8.918534710338708"><ele>125.0</ele><time>2026-03-28T16:11:02.999Z</time></trkpt><trkpt lat="44.484721376643705" lon="8.918437166590248"><ele>131.0</ele><time>2026-03-28T16:11:03.999Z</time></trkpt><trkpt lat="44.484945598230986" lon="8.918302083454893"><ele>131.0</ele><time>2026-03-28T16:11:04.999Z</time></trkpt><trkpt lat="44.48516391033714" lon="8.918145534827625"><ele>131.0</ele><time>2026-03-28T16:11:05.999Z</time></trkpt><trkpt lat="44.48536538566506" lon="8.917946210134673"><ele>135.0</ele><time>2026-03-28T16:11:06.999Z</time></trkpt><trkpt lat="44.48555217218261" lon="8.917725103289218"><ele>139.0</ele><time>2026-03-28T16:11:07.999Z</time></trkpt><trkpt lat="44.485732718289285" lon="8.917490457088885"><ele>139.0</ele><time>2026-03-28T16:11:08.999Z</time></trkpt><trkpt lat="44.48591754382032" lon="8.917258940682688"><ele>139.0</ele><time>2026-03-28T16:11:09.999Z</time></trkpt><trkpt lat="44.48610441748767" lon="8.917030682948326"><ele>140.0</ele><time>2026-03-28T16:11:10.999Z</time></trkpt><trkpt lat="44.48630440271332" lon="8.916818521552266"><ele>141.0</ele><time>2026-03-28T16:11:11.999Z</time></trkpt><trkpt lat="44.486511598285354" lon="8.916633763438199"><ele>141.0</ele><time>2026-03-28T16:11:12.999Z</time></trkpt><trkpt lat="44.48673152622683" lon="8.916479414625526"><ele>141.0</ele><time>2026-03-28T16:11:13.999Z</time></trkpt><trkpt lat="44.48695862136228" lon="8.916352296055194"><ele>145.0</ele><time>2026-03-28T16:11:14.999Z</time></trkpt><trkpt lat="44.48719380982021" lon="8.916253568249228"><ele>149.0</ele><time>2026-03-28T16:11:15.999Z</time></trkpt><trkpt lat="44.487434554328836" lon="8.91618153117806"><ele>149.0</ele><time>2026-03-28T16:11:16.999Z</time></trkpt><trkpt lat="44.48767688928702" lon="8.916147204760914"><ele>149.0</ele><time>2026-03-28T16:11:17.999Z</time></trkpt><trkpt lat="44.48792155686812" lon="8.916142997937312"><ele>149.0</ele><time>2026-03-28T16:11:18.999Z</time></trkpt><trkpt lat="44.48816824641061" lon="8.916162973354846"><ele>149.0</ele><time>2026-03-28T16:11:19.999Z</time></trkpt><trkpt lat="44.48841837076196" lon="8.916216797911021"><ele>149.0</ele><time>2026-03-28T16:11:20.999Z</time></trkpt><trkpt lat="44.48865830188267" lon="8.916295740643521"><ele>149.0</ele><time>2026-03-28T16:11:21.999Z</time></trkpt><trkpt lat="44.48889416039563" lon="8.91639637442464"><ele>148.5</ele><time>2026-03-28T16:11:22.999Z</time></trkpt><trkpt lat="44.489131488939904" lon="8.916496628109629"><ele>148.0</ele><time>2026-03-28T16:11:23.999Z</time></trkpt><trkpt lat="44.48937166196241" lon="8.916592492062534"><ele>150.5</ele><time>2026-03-28T16:11:24.999Z</time></trkpt><trkpt lat="44.48960991409425" lon="8.916691689072545"><ele>153.0</ele><time>2026-03-28T16:11:25.999Z</time></trkpt><trkpt lat="44.48984235418099" lon="8.916793338694028"><ele>153.0</ele><time>2026-03-28T16:11:26.999Z</time></trkpt><trkpt lat="44.490080873837265" lon="8.916900632019862"><ele>153.0</ele><time>2026-03-28T16:11:27.999Z</time></trkpt><trkpt lat="44.49031799394411" lon="8.917005001755223"><ele>152.0</ele><time>2026-03-28T16:11:28.999Z</time></trkpt><trkpt lat="44.49056077139746" lon="8.917115766561338"><ele>151.0</ele><time>2026-03-28T16:11:29.999Z</time></trkpt><trkpt lat="44.49079978052439" lon="8.917219560534045"><ele>151.0</ele><time>2026-03-28T16:11:30.999Z</time></trkpt><trkpt lat="44.49104154901832" lon="8.917330892262742"><ele>151.0</ele><time>2026-03-28T16:11:31.999Z</time></trkpt><trkpt lat="44.491280327415474" lon="8.917438119688825"><ele>155.5</ele><time>2026-03-28T16:11:32.999Z</time></trkpt><trkpt lat="44.4915185440706" lon="8.91754146548326"><ele>160.0</ele><time>2026-03-28T16:11:33.999Z</time></trkpt><trkpt lat="44.491758235327055" lon="8.917645456432686"><ele>160.0</ele><time>2026-03-28T16:11:34.999Z</time></trkpt><trkpt lat="44.49199464953931" lon="8.91775524476733"><ele>160.0</ele><time>2026-03-28T16:11:35.999Z</time></trkpt><trkpt lat="44.492233158051356" lon="8.917853159947791"><ele>160.0</ele><time>2026-03-28T16:11:36.999Z</time></trkpt><trkpt lat="44.492475756236686" lon="8.917912752800072"><ele>160.0</ele><time>2026-03-28T16:11:37.999Z</time></trkpt><trkpt lat="44.49271960132587" lon="8.917925835344377"><ele>163.5</ele><time>2026-03-28T16:11:38.999Z</time></trkpt><trkpt lat="44.4929606646687" lon="8.917909720286517"><ele>167.0</ele><time>2026-03-28T16:11:39.999Z</time></trkpt><trkpt lat="44.49320138179947" lon="8.917863921897162"><ele>167.0</ele><time>2026-03-28T16:11:41Z</time></trkpt><trkpt lat="44.493441369181674" lon="8.917793033757617"><ele>167.0</ele><time>2026-03-28T16:11:42Z</time></trkpt><trkpt lat="44.493676362037675" lon="8.91769010332414"><ele>168.0</ele><time>2026-03-28T16:11:43Z</time></trkpt><trkpt lat="44.493903457578014" lon="8.917562247008469"><ele>169.0</ele><time>2026-03-28T16:11:44Z</time></trkpt><trkpt lat="44.49412426296846" lon="8.917409067260579"><ele>169.0</ele><time>2026-03-28T16:11:45Z</time></trkpt><trkpt lat="44.49434232346764" lon="8.917242695313096"><ele>169.0</ele><time>2026-03-28T16:11:46Z</time></trkpt><trkpt lat="44.49456216305436" lon="8.917078372885324"><ele>161.5</ele><time>2026-03-28T16:11:47Z</time></trkpt><trkpt lat="44.49478159652812" lon="8.916915015298727"><ele>154.0</ele><time>2026-03-28T16:11:48Z</time></trkpt><trkpt lat="44.49500170086366" lon="8.916752035771466"><ele>156.0</ele><time>2026-03-28T16:11:49Z</time></trkpt><trkpt lat="44.49522258320756" lon="8.916594242961724"><ele>158.0</ele><time>2026-03-28T16:11:50Z</time></trkpt><trkpt lat="44.49544668983704" lon="8.916447091078924"><ele>158.0</ele><time>2026-03-28T16:11:51Z</time></trkpt><trkpt lat="44.495678518360286" lon="8.916323968219974"><ele>158.0</ele><time>2026-03-28T16:11:52Z</time></trkpt><trkpt lat="44.49592047270552" lon="8.916233646829628"><ele>158.0</ele><time>2026-03-28T16:11:53Z</time></trkpt><trkpt lat="44.496164938446505" lon="8.916179829958175"><ele>158.0</ele><time>2026-03-28T16:11:54Z</time></trkpt><trkpt lat="44.49641055830669" lon="8.916146228364271"><ele>161.0</ele><time>2026-03-28T16:11:55Z</time></trkpt><trkpt lat="44.49665424361927" lon="8.916151865472717"><ele>164.0</ele><time>2026-03-28T16:11:56Z</time></trkpt><trkpt lat="44.49689839180531" lon="8.916187945833077"><ele>169.5</ele><time>2026-03-28T16:11:57Z</time></trkpt><trkpt lat="44.49713784623361" lon="8.916248358136873"><ele>175.0</ele><time>2026-03-28T16:11:58Z</time></trkpt><trkpt lat="44.497373888771605" lon="8.916342543670977"><ele>175.0</ele><time>2026-03-28T16:11:59Z</time></trkpt><trkpt lat="44.49760662573335" lon="8.916462516894342"><ele>175.0</ele><time>2026-03-28T16:12:00Z</time></trkpt><trkpt lat="44.497838901288155" lon="8.916588193801406"><ele>175.5</ele><time>2026-03-28T16:12:01Z</time></trkpt><trkpt lat="44.49807452552" lon="8.91670525576412"><ele>176.0</ele><time>2026-03-28T16:12:02Z</time></trkpt><trkpt lat="44.498313753044854" lon="8.916803370161807"><ele>176.0</ele><time>2026-03-28T16:12:03Z</time></trkpt><trkpt lat="44.49855734490201" lon="8.916882800271418"><ele>176.0</ele><time>2026-03-28T16:12:04Z</time></trkpt><trkpt lat="44.49880295350444" lon="8.916935771602336"><ele>176.5</ele><time>2026-03-28T16:12:05Z</time></trkpt><trkpt lat="44.49904847770832" lon="8.91696020213435"><ele>177.0</ele><time>2026-03-28T16:12:06Z</time></trkpt><trkpt lat="44.49929477548186" lon="8.91695994730204"><ele>177.0</ele><time>2026-03-28T16:12:07Z</time></trkpt><trkpt lat="44.49954023987851" lon="8.916957680183328"><ele>177.0</ele><time>2026-03-28T16:12:08Z</time></trkpt><trkpt lat="44.499790763239645" lon="8.916969292560537"><ele>178.0</ele><time>2026-03-28T16:12:09Z</time></trkpt><trkpt lat="44.50003998266207" lon="8.916999638264997"><ele>179.0</ele><time>2026-03-28T16:12:10Z</time></trkpt><trkpt lat="44.500287239035245" lon="8.917046188932863"><ele>185.0</ele><time>2026-03-28T16:12:11Z</time></trkpt><trkpt lat="44.500530731426515" lon="8.917121337838848"><ele>191.0</ele><time>2026-03-28T16:12:12Z</time></trkpt><trkpt lat="44.500769298953244" lon="8.917217012359519"><ele>191.0</ele><time>2026-03-28T16:12:13Z</time></trkpt><trkpt lat="44.5009998054628" lon="8.917344591615329"><ele>191.0</ele><time>2026-03-28T16:12:14Z</time></trkpt><trkpt lat="44.501222297505755" lon="8.917500869376184"><ele>193.5</ele><time>2026-03-28T16:12:15Z</time></trkpt><trkpt lat="44.501433183258754" lon="8.917676592991105"><ele>196.0</ele><time>2026-03-28T16:12:16Z</time></trkpt><trkpt lat="44.50164378787358" lon="8.917860261219637"><ele>196.0</ele><time>2026-03-28T16:12:17Z</time></trkpt><trkpt lat="44.5018551018473" lon="8.918045516373503"><ele>196.0</ele><time>2026-03-28T16:12:18Z</time></trkpt><trkpt lat="44.50206834033217" lon="8.91823111407143"><ele>201.5</ele><time>2026-03-28T16:12:19Z</time></trkpt><trkpt lat="44.50228165594323" lon="8.918412431030395"><ele>207.0</ele><time>2026-03-28T16:12:20Z</time></trkpt><trkpt lat="44.50249468928686" lon="8.918595199989745"><ele>207.0</ele><time>2026-03-28T16:12:21Z</time></trkpt><trkpt lat="44.50270934838611" lon="8.9187676958126"><ele>207.0</ele><time>2026-03-28T16:12:22Z</time></trkpt><trkpt lat="44.50293277847927" lon="8.918917511036502"><ele>210.5</ele><time>2026-03-28T16:12:23Z</time></trkpt><trkpt lat="44.503163866767736" lon="8.919040534338363"><ele>214.0</ele><time>2026-03-28T16:12:24Z</time></trkpt><trkpt lat="44.5034011534155" lon="8.919137643412572"><ele>214.0</ele><time>2026-03-28T16:12:25Z</time></trkpt><trkpt lat="44.503646660995855" lon="8.919203145042522"><ele>214.0</ele><time>2026-03-28T16:12:26Z</time></trkpt><trkpt lat="44.50388757837975" lon="8.919287268127844"><ele>207.5</ele><time>2026-03-28T16:12:27Z</time></trkpt><trkpt lat="44.50412069163014" lon="8.91940584817417"><ele>201.0</ele><time>2026-03-28T16:12:28Z</time></trkpt><trkpt lat="44.50434345321622" lon="8.919555050989983"><ele>201.0</ele><time>2026-03-28T16:12:29Z</time></trkpt><trkpt lat="44.504554283455676" lon="8.91973467421973"><ele>201.0</ele><time>2026-03-28T16:12:30Z</time></trkpt><trkpt lat="44.50475410532279" lon="8.919940154215759"><ele>200.0</ele><time>2026-03-28T16:12:31Z</time></trkpt><trkpt lat="44.50493642244479" lon="8.920171405148482"><ele>199.0</ele><time>2026-03-28T16:12:32Z</time></trkpt><trkpt lat="44.50509509105598" lon="8.92043390286098"><ele>199.0</ele><time>2026-03-28T16:12:33Z</time></trkpt><trkpt lat="44.50523858915436" lon="8.920711482434895"><ele>199.0</ele><time>2026-03-28T16:12:34Z</time></trkpt><trkpt lat="44.50535598837957" lon="8.92101488056758"><ele>214.5</ele><time>2026-03-28T16:12:34.999Z</time></trkpt><trkpt lat="44.505455411996365" lon="8.92132890189073"><ele>230.0</ele><time>2026-03-28T16:12:35.999Z</time></trkpt><trkpt lat="44.505538490665195" lon="8.921653885714758"><ele>230.5</ele><time>2026-03-28T16:12:36.999Z</time></trkpt><trkpt lat="44.50562063578354" lon="8.92198143128218"><ele>231.0</ele><time>2026-03-28T16:12:37.999Z</time></trkpt><trkpt lat="44.50571503031841" lon="8.922307556267889"><ele>223.0</ele><time>2026-03-28T16:12:38.999Z</time></trkpt><trkpt lat="44.505805546327146" lon="8.922632380565771"><ele>215.0</ele><time>2026-03-28T16:12:39.999Z</time></trkpt><trkpt lat="44.5058956785202" lon="8.922959740010034"><ele>215.0</ele><time>2026-03-28T16:12:40.999Z</time></trkpt><trkpt lat="44.50599050211985" lon="8.923282726247429"><ele>215.0</ele><time>2026-03-28T16:12:41.999Z</time></trkpt><trkpt lat="44.50609310815727" lon="8.923599321389661"><ele>208.0</ele><time>2026-03-28T16:12:42.999Z</time></trkpt><trkpt lat="44.50621218652683" lon="8.923904441581373"><ele>201.0</ele><time>2026-03-28T16:12:43.999Z</time></trkpt><trkpt lat="44.50635596449924" lon="8.92418128230863"><ele>207.5</ele><time>2026-03-28T16:12:44.999Z</time></trkpt><trkpt lat="44.506524126325765" lon="8.924430698162128"><ele>214.0</ele><time>2026-03-28T16:12:45.999Z</time></trkpt><trkpt lat="44.50671312281275" lon="8.924647044855435"><ele>214.0</ele><time>2026-03-28T16:12:46.999Z</time></trkpt><trkpt lat="44.50691816215594" lon="8.924830089331438"><ele>214.0</ele><time>2026-03-28T16:12:47.999Z</time></trkpt><trkpt lat="44.50713701665587" lon="8.924982794316787"><ele>208.0</ele><time>2026-03-28T16:12:48.999Z</time></trkpt><trkpt lat="44.50736691852012" lon="8.925104826490877"><ele>202.0</ele><time>2026-03-28T16:12:49.999Z</time></trkpt><trkpt lat="44.507603695381654" lon="8.925194616521214"><ele>202.0</ele><time>2026-03-28T16:12:50.999Z</time></trkpt><trkpt lat="44.50784534768902" lon="8.925265750951484"><ele>202.0</ele><time>2026-03-28T16:12:51.999Z</time></trkpt><trkpt lat="44.508092624996486" lon="8.925323414062975"><ele>213.5</ele><time>2026-03-28T16:12:52.999Z</time></trkpt><trkpt lat="44.50833691813202" lon="8.925393114904475"><ele>225.0</ele><time>2026-03-28T16:12:53.999Z</time></trkpt><trkpt lat="44.508580069242385" lon="8.925466415777741"><ele>226.0</ele><time>2026-03-28T16:12:54.999Z</time></trkpt><trkpt lat="44.50882293353864" lon="8.925546401361585"><ele>227.0</ele><time>2026-03-28T16:12:55.999Z</time></trkpt><trkpt lat="44.50906577920675" lon="8.925622509965425"><ele>227.0</ele><time>2026-03-28T16:12:56.999Z</time></trkpt><trkpt lat="44.50930936971987" lon="8.925693634471102"><ele>227.0</ele><time>2026-03-28T16:12:57.999Z</time></trkpt><trkpt lat="44.50955025905313" lon="8.92576016955167"><ele>224.5</ele><time>2026-03-28T16:12:58.999Z</time></trkpt><trkpt lat="44.509796236929034" lon="8.925832703515185"><ele>222.0</ele><time>2026-03-28T16:12:59.999Z</time></trkpt><trkpt lat="44.51003895532911" lon="8.925903898277966"><ele>222.0</ele><time>2026-03-28T16:13:00.999Z</time></trkpt><trkpt lat="44.51028224057101" lon="8.925974014669071"><ele>222.0</ele><time>2026-03-28T16:13:01.999Z</time></trkpt><trkpt lat="44.51052600893929" lon="8.92604093972206"><ele>230.5</ele><time>2026-03-28T16:13:02.999Z</time></trkpt><trkpt lat="44.51077155663767" lon="8.926108279080395"><ele>239.0</ele><time>2026-03-28T16:13:03.999Z</time></trkpt><trkpt lat="44.51101458612798" lon="8.926176740860864"><ele>243.0</ele><time>2026-03-28T16:13:04.999Z</time></trkpt><trkpt lat="44.511258371010584" lon="8.926244030216258"><ele>247.0</ele><time>2026-03-28T16:13:05.999Z</time></trkpt><trkpt lat="44.51150038850549" lon="8.926315674418026"><ele>247.0</ele><time>2026-03-28T16:13:06.999Z</time></trkpt><trkpt lat="44.51174133191432" lon="8.926404804768632"><ele>247.0</ele><time>2026-03-28T16:13:07.999Z</time></trkpt><trkpt lat="44.51197320942765" lon="8.926528792694642"><ele>250.0</ele><time>2026-03-28T16:13:08.999Z</time></trkpt><trkpt lat="44.512196349665324" lon="8.926680072871987"><ele>253.0</ele><time>2026-03-28T16:13:09.999Z</time></trkpt><trkpt lat="44.51240126704678" lon="8.92686869379861"><ele>246.0</ele><time>2026-03-28T16:13:10.999Z</time></trkpt><trkpt lat="44.51259216398142" lon="8.927085794536097"><ele>239.0</ele><time>2026-03-28T16:13:11.999Z</time></trkpt><trkpt lat="44.51280296719494" lon="8.927221005190288"><ele>249.0</ele><time>2026-03-28T16:13:12.999Z</time></trkpt><trkpt lat="44.51291659102124" lon="8.927599935552255"><ele>259.0</ele><time>2026-03-28T16:13:13.999Z</time></trkpt><trkpt lat="44.51304436124109" lon="8.92789432873155"><ele>259.0</ele><time>2026-03-28T16:13:14.999Z</time></trkpt><trkpt lat="44.51315488189389" lon="8.928202248552855"><ele>259.0</ele><time>2026-03-28T16:13:15.999Z</time></trkpt><trkpt lat="44.513240034895226" lon="8.928525928463122"><ele>260.0</ele><time>2026-03-28T16:13:16.999Z</time></trkpt><trkpt lat="44.51329472293865" lon="8.928859727206518"><ele>261.0</ele><time>2026-03-28T16:13:17.999Z</time></trkpt><trkpt lat="44.51333058873646" lon="8.929196827982427"><ele>265.3333333333333</ele><time>2026-03-28T16:13:18.999Z</time></trkpt><trkpt lat="44.51333346457363" lon="8.929509378089817"><ele>269.66666666666663</ele><time>2026-03-28T16:13:19.999Z</time></trkpt><trkpt lat="44.51330980814831" lon="8.929821898543663"><ele>274.0</ele><time>2026-03-28T16:13:20.999Z</time></trkpt><trkpt lat="44.51327514092314" lon="8.930125976637761"><ele>274.0</ele><time>2026-03-28T16:13:21.999Z</time></trkpt><trkpt lat="44.51323927413395" lon="8.930435195167384"><ele>274.0</ele><time>2026-03-28T16:13:23.025Z</time></trkpt><trkpt lat="44.51320960769518" lon="8.930736104805971"><ele>274.0</ele><time>2026-03-28T16:13:24.018Z</time></trkpt><trkpt lat="44.51318146626811" lon="8.93103436460946"><ele>268.0</ele><time>2026-03-28T16:13:24.999Z</time></trkpt><trkpt lat="44.513163642447864" lon="8.93134836652308"><ele>262.0</ele><time>2026-03-28T16:13:25.999Z</time></trkpt><trkpt lat="44.51316381581592" lon="8.93166432541202"><ele>257.0</ele><time>2026-03-28T16:13:26.999Z</time></trkpt><trkpt lat="44.51315385631356" lon="8.93197753271488"><ele>252.0</ele><time>2026-03-28T16:13:27.999Z</time></trkpt><trkpt lat="44.51317008075986" lon="8.932298973530333"><ele>254.5</ele><time>2026-03-28T16:13:28.999Z</time></trkpt><trkpt lat="44.513206368458846" lon="8.932616302698145"><ele>257.0</ele><time>2026-03-28T16:13:29.999Z</time></trkpt><trkpt lat="44.51326232777248" lon="8.932929149093649"><ele>257.0</ele><time>2026-03-28T16:13:30.999Z</time></trkpt><trkpt lat="44.51334275448543" lon="8.93323217842361"><ele>257.0</ele><time>2026-03-28T16:13:31.999Z</time></trkpt><trkpt lat="44.513441446144114" lon="8.933523373526917"><ele>262.0</ele><time>2026-03-28T16:13:32.999Z</time></trkpt><trkpt lat="44.51356156628104" lon="8.93379977790281"><ele>267.0</ele><time>2026-03-28T16:13:33.999Z</time></trkpt><trkpt lat="44.51370315144777" lon="8.934055470751213"><ele>269.0</ele><time>2026-03-28T16:13:34.999Z</time></trkpt><trkpt lat="44.513865434546055" lon="8.934289870136253"><ele>271.0</ele><time>2026-03-28T16:13:35.999Z</time></trkpt><trkpt lat="44.514044251504735" lon="8.934498082346897"><ele>271.0</ele><time>2026-03-28T16:13:36.999Z</time></trkpt><trkpt lat="44.5142364510633" lon="8.934679823995289"><ele>271.0</ele><time>2026-03-28T16:13:37.999Z</time></trkpt><trkpt lat="44.51444008016595" lon="8.934831215926753"><ele>275.5</ele><time>2026-03-28T16:13:38.999Z</time></trkpt><trkpt lat="44.5146593390826" lon="8.9349511427921"><ele>280.0</ele><time>2026-03-28T16:13:39.999Z</time></trkpt><trkpt lat="44.514887111510546" lon="8.935035849581036"><ele>268.0</ele><time>2026-03-28T16:13:40.999Z</time></trkpt><trkpt lat="44.51512003543711" lon="8.935087256679305"><ele>256.0</ele><time>2026-03-28T16:13:41.999Z</time></trkpt><trkpt lat="44.515354329730386" lon="8.935110058708618"><ele>253.0</ele><time>2026-03-28T16:13:42.999Z</time></trkpt><trkpt lat="44.515588766160185" lon="8.935103436771186"><ele>250.0</ele><time>2026-03-28T16:13:43.999Z</time></trkpt><trkpt lat="44.515823709726774" lon="8.935063456183197"><ele>253.0</ele><time>2026-03-28T16:13:44.999Z</time></trkpt><trkpt lat="44.516057783746135" lon="8.935018817194763"><ele>256.0</ele><time>2026-03-28T16:13:45.999Z</time></trkpt><trkpt lat="44.51629272701589" lon="8.934974960895298"><ele>256.0</ele><time>2026-03-28T16:13:47Z</time></trkpt><trkpt lat="44.516527606445955" lon="8.93493175369983"><ele>256.0</ele><time>2026-03-28T16:13:48Z</time></trkpt><trkpt lat="44.516763563307286" lon="8.934892780651573"><ele>256.0</ele><time>2026-03-28T16:13:49Z</time></trkpt><trkpt lat="44.516999910537336" lon="8.934867834075684"><ele>256.0</ele><time>2026-03-28T16:13:50Z</time></trkpt><trkpt lat="44.51723809541243" lon="8.934875931152009"><ele>261.0</ele><time>2026-03-28T16:13:51Z</time></trkpt><trkpt lat="44.517472146531496" lon="8.934921288731754"><ele>266.0</ele><time>2026-03-28T16:13:52Z</time></trkpt><trkpt lat="44.51770111954149" lon="8.934999542161561"><ele>258.5</ele><time>2026-03-28T16:13:53Z</time></trkpt><trkpt lat="44.51792634861447" lon="8.935105302346505"><ele>251.0</ele><time>2026-03-28T16:13:54Z</time></trkpt><trkpt lat="44.51813985022269" lon="8.935244262743208"><ele>251.0</ele><time>2026-03-28T16:13:55Z</time></trkpt><trkpt lat="44.518349288712585" lon="8.935397316861563"><ele>251.0</ele><time>2026-03-28T16:13:56Z</time></trkpt><trkpt lat="44.518560241609755" lon="8.935546624373087"><ele>267.0</ele><time>2026-03-28T16:13:57Z</time></trkpt><trkpt lat="44.518773101000804" lon="8.935689809770663"><ele>283.0</ele><time>2026-03-28T16:13:58Z</time></trkpt><trkpt lat="44.51898747002321" lon="8.935836511251175"><ele>275.5</ele><time>2026-03-28T16:13:59Z</time></trkpt><trkpt lat="44.51920209544079" lon="8.935982148374325"><ele>268.0</ele><time>2026-03-28T16:14:00Z</time></trkpt><trkpt lat="44.519415229868095" lon="8.936127610475909"><ele>279.0</ele><time>2026-03-28T16:14:01Z</time></trkpt><trkpt lat="44.51963055442249" lon="8.936267562888277"><ele>290.0</ele><time>2026-03-28T16:14:02Z</time></trkpt><trkpt lat="44.51985100314433" lon="8.93639164828145"><ele>290.0</ele><time>2026-03-28T16:14:03Z</time></trkpt><trkpt lat="44.520073810654374" lon="8.936501857291752"><ele>290.0</ele><time>2026-03-28T16:14:04Z</time></trkpt><trkpt lat="44.52030479308163" lon="8.936586322726528"><ele>294.5</ele><time>2026-03-28T16:14:05Z</time></trkpt><trkpt lat="44.52053851059291" lon="8.936635942459974"><ele>299.0</ele><time>2026-03-28T16:14:06Z</time></trkpt><trkpt lat="44.52077053066211" lon="8.936634867290392"><ele>299.0</ele><time>2026-03-28T16:14:07Z</time></trkpt><trkpt lat="44.5209985886519" lon="8.93659038711711"><ele>299.0</ele><time>2026-03-28T16:14:08Z</time></trkpt><trkpt lat="44.5212290216503" lon="8.936526936719726"><ele>296.5</ele><time>2026-03-28T16:14:09Z</time></trkpt><trkpt lat="44.521454156667204" lon="8.936445626955878"><ele>294.0</ele><time>2026-03-28T16:14:10Z</time></trkpt><trkpt lat="44.52168054282453" lon="8.936362062531392"><ele>294.0</ele><time>2026-03-28T16:14:11Z</time></trkpt><trkpt lat="44.52191133242001" lon="8.936289652352967"><ele>294.0</ele><time>2026-03-28T16:14:12Z</time></trkpt><trkpt lat="44.52214576164005" lon="8.936224218853573"><ele>294.0</ele><time>2026-03-28T16:14:13Z</time></trkpt><trkpt lat="44.52238108063383" lon="8.936173169292744"><ele>294.0</ele><time>2026-03-28T16:14:14Z</time></trkpt><trkpt lat="44.52261976213236" lon="8.936142987607091"><ele>294.0</ele><time>2026-03-28T16:14:15Z</time></trkpt><trkpt lat="44.522859715980886" lon="8.936146911056106"><ele>294.0</ele><time>2026-03-28T16:14:16Z</time></trkpt><trkpt lat="44.523089645925" lon="8.936197432040226"><ele>308.5</ele><time>2026-03-28T16:14:17Z</time></trkpt><trkpt lat="44.52331355024751" lon="8.93629096454345"><ele>323.0</ele><time>2026-03-28T16:14:18Z</time></trkpt><trkpt lat="44.523531775504" lon="8.93641429451535"><ele>324.0</ele><time>2026-03-28T16:14:19.012Z</time></trkpt><trkpt lat="44.52374028730029" lon="8.936564889767048"><ele>325.0</ele><time>2026-03-28T16:14:20.017Z</time></trkpt><trkpt lat="44.52393974430725" lon="8.936716080402608"><ele>315.66666666666663</ele><time>2026-03-28T16:14:21.014Z</time></trkpt><trkpt lat="44.52412186280083" lon="8.936857191607158"><ele>306.3333333333333</ele><time>2026-03-28T16:14:22.023Z</time></trkpt><trkpt lat="44.52428605582348" lon="8.936994156728158"><ele>297.0</ele><time>2026-03-28T16:14:23Z</time></trkpt><trkpt lat="44.524494186866406" lon="8.937091453416835"><ele>300.6666666666667</ele><time>2026-03-28T16:14:24Z</time></trkpt><trkpt lat="44.52468724771668" lon="8.937197393184087"><ele>304.33333333333337</ele><time>2026-03-28T16:14:25Z</time></trkpt><trkpt lat="44.52484624476773" lon="8.937302005663591"><ele>308.0</ele><time>2026-03-28T16:14:26Z</time></trkpt><trkpt lat="44.524994179930644" lon="8.937403736796295"><ele>308.0</ele><time>2026-03-28T16:14:27Z</time></trkpt><trkpt lat="44.525138470253" lon="8.937500760210224"><ele>308.0</ele><time>2026-03-28T16:14:28Z</time></trkpt><trkpt lat="44.52528180003766" lon="8.937598046057232"><ele>308.0</ele><time>2026-03-28T16:14:29Z</time></trkpt><trkpt lat="44.52541621037798" lon="8.937691832267186"><ele>307.0</ele><time>2026-03-28T16:14:30Z</time></trkpt><trkpt lat="44.52555504350618" lon="8.937789186218106"><ele>306.0</ele><time>2026-03-28T16:14:31Z</time></trkpt><trkpt lat="44.52569819728609" lon="8.937878348904102"><ele>305.0</ele><time>2026-03-28T16:14:32Z</time></trkpt><trkpt lat="44.52583281324153" lon="8.937960698082177"><ele>305.0</ele><time>2026-03-28T16:14:33Z</time></trkpt><trkpt lat="44.52596625901529" lon="8.938033585844533"><ele>305.0</ele><time>2026-03-28T16:14:34Z</time></trkpt><trkpt lat="44.52610038480311" lon="8.938104922696827"><ele>305.0</ele><time>2026-03-28T16:14:35Z</time></trkpt><trkpt lat="44.52622288138155" lon="8.93817269419151"><ele>305.0</ele><time>2026-03-28T16:14:36Z</time></trkpt><trkpt lat="44.5263422570818" lon="8.938235506830738"><ele>306.5</ele><time>2026-03-28T16:14:37Z</time></trkpt><trkpt lat="44.52646470540042" lon="8.938299983402807"><ele>308.0</ele><time>2026-03-28T16:14:38Z</time></trkpt><trkpt lat="44.52659136334588" lon="8.938366971028133"><ele>309.5</ele><time>2026-03-28T16:14:39Z</time></trkpt><trkpt lat="44.52672068665373" lon="8.938434073117518"><ele>311.0</ele><time>2026-03-28T16:14:40Z</time></trkpt><trkpt lat="44.52685175006069" lon="8.938503608906608"><ele>306.75</ele><time>2026-03-28T16:14:40.999Z</time></trkpt><trkpt lat="44.526984698734914" lon="8.938573274493303"><ele>302.5</ele><time>2026-03-28T16:14:41.999Z</time></trkpt><trkpt lat="44.52712105484528" lon="8.938644738441841"><ele>298.25</ele><time>2026-03-28T16:14:42.999Z</time></trkpt><trkpt lat="44.52725999986467" lon="8.938717651125714"><ele>294.0</ele><time>2026-03-28T16:14:43.999Z</time></trkpt><trkpt lat="44.52740110957561" lon="8.938794358685701"><ele>293.6666666666667</ele><time>2026-03-28T16:14:44.999Z</time></trkpt><trkpt lat="44.52754697408314" lon="8.938868855272153"><ele>293.33333333333337</ele><time>2026-03-28T16:14:45.999Z</time></trkpt><trkpt lat="44.52769570539001" lon="8.938945377973424"><ele>293.0</ele><time>2026-03-28T16:14:46.999Z</time></trkpt><trkpt lat="44.52784912710259" lon="8.939023266566165"><ele>294.6666666666667</ele><time>2026-03-28T16:14:47.999Z</time></trkpt><trkpt lat="44.52800454472965" lon="8.939100327531005"><ele>296.3333333333333</ele><time>2026-03-28T16:14:48.999Z</time></trkpt><trkpt lat="44.528159799516715" lon="8.939180942234499"><ele>298.0</ele><time>2026-03-28T16:14:49.999Z</time></trkpt><trkpt lat="44.528317921909526" lon="8.939268219865784"><ele>298.0</ele><time>2026-03-28T16:14:50.999Z</time></trkpt><trkpt lat="44.528478413870246" lon="8.939349791596909"><ele>298.0</ele><time>2026-03-28T16:14:51.999Z</time></trkpt><trkpt lat="44.52863921913197" lon="8.939435317266518"><ele>298.0</ele><time>2026-03-28T16:14:52.999Z</time></trkpt><trkpt lat="44.528801872644095" lon="8.939518563663231"><ele>306.3333333333333</ele><time>2026-03-28T16:14:53.999Z</time></trkpt><trkpt lat="44.52896454201196" lon="8.939605006558622"><ele>314.6666666666667</ele><time>2026-03-28T16:14:54.999Z</time></trkpt><trkpt lat="44.52912874256415" lon="8.939693369324713"><ele>323.0</ele><time>2026-03-28T16:14:55.999Z</time></trkpt><trkpt lat="44.52929141428514" lon="8.939774419022472"><ele>323.0</ele><time>2026-03-28T16:14:56.999Z</time></trkpt><trkpt lat="44.529445851885065" lon="8.939857826655576"><ele>323.0</ele><time>2026-03-28T16:14:57.999Z</time></trkpt><trkpt lat="44.529591740443685" lon="8.939938094566426"><ele>323.0</ele><time>2026-03-28T16:14:58.999Z</time></trkpt><trkpt lat="44.52974184829377" lon="8.94001362216751"><ele>328.0</ele><time>2026-03-28T16:14:59.999Z</time></trkpt><trkpt lat="44.529897359921094" lon="8.9400900039265"><ele>333.0</ele><time>2026-03-28T16:15:00.999Z</time></trkpt><trkpt lat="44.53005624289336" lon="8.940165191372454"><ele>338.0</ele><time>2026-03-28T16:15:01.999Z</time></trkpt><trkpt lat="44.530218887716046" lon="8.940235127794695"><ele>338.0</ele><time>2026-03-28T16:15:02.999Z</time></trkpt><trkpt lat="44.53037625453429" lon="8.94028671136701"><ele>338.0</ele><time>2026-03-28T16:15:03.999Z</time></trkpt><trkpt lat="44.530534503939045" lon="8.940341284069026"><ele>338.0</ele><time>2026-03-28T16:15:04.999Z</time></trkpt><trkpt lat="44.53069641580051" lon="8.94039813453335"><ele>341.0</ele><time>2026-03-28T16:15:05.999Z</time></trkpt><trkpt lat="44.53085722784757" lon="8.94044926429782"><ele>344.0</ele><time>2026-03-28T16:15:06.999Z</time></trkpt><trkpt lat="44.531022565537945" lon="8.940502046139125"><ele>347.0</ele><time>2026-03-28T16:15:07.999Z</time></trkpt><trkpt lat="44.531164509121204" lon="8.940554972393473"><ele>353.0</ele><time>2026-03-28T16:15:08.999Z</time></trkpt><trkpt lat="44.53129880345217" lon="8.94060399709011"><ele>359.0</ele><time>2026-03-28T16:15:10.022Z</time></trkpt><trkpt lat="44.53142666871699" lon="8.94064712650397"><ele>365.0</ele><time>2026-03-28T16:15:11.02Z</time></trkpt><trkpt lat="44.531555626171816" lon="8.940691889932113"><ele>371.0</ele><time>2026-03-28T16:15:12.02Z</time></trkpt><trkpt lat="44.5344613" lon="8.9416868"><ele>372.6666666666667</ele><time>2026-03-28T16:15:16.208Z</time></trkpt><trkpt lat="44.534631329630066" lon="8.941693436362726"><ele>374.3333333333333</ele><time>2026-03-28T16:15:40.999Z</time></trkpt><trkpt lat="44.53473965476237" lon="8.941731371934837"><ele>376.0</ele><time>2026-03-28T16:15:41.999Z</time></trkpt><trkpt lat="44.53573511128464" lon="8.942035969957166"><ele>376.0</ele><time>2026-03-28T16:15:42.999Z</time></trkpt><trkpt lat="44.53530255589018" lon="8.9419447958743"><ele>376.0</ele><time>2026-03-28T16:15:43.999Z</time></trkpt><trkpt lat="44.535200580176074" lon="8.941897853937668"><ele>376.0</ele><time>2026-03-28T16:15:44.999Z</time></trkpt><trkpt lat="44.53530471426115" lon="8.941928174983477"><ele>376.0</ele><time>2026-03-28T16:15:45.999Z</time></trkpt><trkpt lat="44.53542829544555" lon="8.941963813005733"><ele>376.0</ele><time>2026-03-28T16:15:46.999Z</time></trkpt><trkpt lat="44.535555133506385" lon="8.942012164333681"><ele>376.0</ele><time>2026-03-28T16:15:47.999Z</time></trkpt><trkpt lat="44.535681526395415" lon="8.942067497404445"><ele>373.5</ele><time>2026-03-28T16:15:48.999Z</time></trkpt><trkpt lat="44.53581171925702" lon="8.942136431285595"><ele>371.0</ele><time>2026-03-28T16:15:49.999Z</time></trkpt><trkpt lat="44.53595015644399" lon="8.94221539613703"><ele>368.5</ele><time>2026-03-28T16:15:50.999Z</time></trkpt><trkpt lat="44.536077459900945" lon="8.942313334185018"><ele>366.0</ele><time>2026-03-28T16:15:51.999Z</time></trkpt><trkpt lat="44.536205174739905" lon="8.942403367582353"><ele>369.0</ele><time>2026-03-28T16:15:53Z</time></trkpt><trkpt lat="44.53632862873095" lon="8.94249849866039"><ele>372.0</ele><time>2026-03-28T16:15:54Z</time></trkpt><trkpt lat="44.53645415989718" lon="8.942583077333834"><ele>375.0</ele><time>2026-03-28T16:15:55Z</time></trkpt><trkpt lat="44.536574261435945" lon="8.942669318286926"><ele>378.0</ele><time>2026-03-28T16:15:56Z</time></trkpt><trkpt lat="44.53669396810923" lon="8.942753847835002"><ele>378.0</ele><time>2026-03-28T16:15:57Z</time></trkpt><trkpt lat="44.53682202353111" lon="8.942834110977394"><ele>378.0</ele><time>2026-03-28T16:15:58Z</time></trkpt><trkpt lat="44.5369569216434" lon="8.942901434174637"><ele>378.0</ele><time>2026-03-28T16:15:59Z</time></trkpt><trkpt lat="44.537092338423584" lon="8.942956128813195"><ele>378.0</ele><time>2026-03-28T16:16:00Z</time></trkpt><trkpt lat="44.53723481855746" lon="8.943001228949095"><ele>372.5</ele><time>2026-03-28T16:16:01Z</time></trkpt><trkpt lat="44.53738247590007" lon="8.943027478008974"><ele>367.0</ele><time>2026-03-28T16:16:02Z</time></trkpt><trkpt lat="44.53753285610493" lon="8.943047228243968"><ele>361.5</ele><time>2026-03-28T16:16:03Z</time></trkpt><trkpt lat="44.53767850708518" lon="8.943048815021854"><ele>356.0</ele><time>2026-03-28T16:16:04Z</time></trkpt><trkpt lat="44.53782876763606" lon="8.943034780969809"><ele>346.6666666666667</ele><time>2026-03-28T16:16:05Z</time></trkpt><trkpt lat="44.53798068970985" lon="8.943005774742302"><ele>337.3333333333333</ele><time>2026-03-28T16:16:06Z</time></trkpt><trkpt lat="44.53813319473468" lon="8.942963765148484"><ele>328.0</ele><time>2026-03-28T16:16:07Z</time></trkpt><trkpt lat="44.53828530220194" lon="8.942906976092535"><ele>328.0</ele><time>2026-03-28T16:16:08Z</time></trkpt><trkpt lat="44.538436627256736" lon="8.942835846243566"><ele>328.0</ele><time>2026-03-28T16:16:09Z</time></trkpt><trkpt lat="44.53858619197098" lon="8.942748416932247"><ele>328.0</ele><time>2026-03-28T16:16:10Z</time></trkpt><trkpt lat="44.5387304146188" lon="8.94264189227623"><ele>316.66666666666663</ele><time>2026-03-28T16:16:11Z</time></trkpt><trkpt lat="44.53887055882767" lon="8.942528372221078"><ele>305.3333333333333</ele><time>2026-03-28T16:16:12Z</time></trkpt><trkpt lat="44.5390027848236" lon="8.942396165267505"><ele>294.0</ele><time>2026-03-28T16:16:13Z</time></trkpt><trkpt lat="44.53913961691177" lon="8.942255397983164"><ele>294.0</ele><time>2026-03-28T16:16:14Z</time></trkpt><trkpt lat="44.53927900913985" lon="8.942118456762953"><ele>294.0</ele><time>2026-03-28T16:16:15Z</time></trkpt><trkpt lat="44.53941795290743" lon="8.941984539597604"><ele>294.0</ele><time>2026-03-28T16:16:16Z</time></trkpt><trkpt lat="44.5395585156206" lon="8.941850416530052"><ele>301.0</ele><time>2026-03-28T16:16:17Z</time></trkpt><trkpt lat="44.53969702589977" lon="8.941721161157432"><ele>308.0</ele><time>2026-03-28T16:16:18Z</time></trkpt><trkpt lat="44.53983298042181" lon="8.941586283390242"><ele>315.0</ele><time>2026-03-28T16:16:19Z</time></trkpt><trkpt lat="44.53996692608413" lon="8.941457022200659"><ele>317.0</ele><time>2026-03-28T16:16:20Z</time></trkpt><trkpt lat="44.54010237404529" lon="8.94132838589839"><ele>319.0</ele><time>2026-03-28T16:16:21Z</time></trkpt><trkpt lat="44.54023693577133" lon="8.941201862252289"><ele>321.0</ele><time>2026-03-28T16:16:22Z</time></trkpt><trkpt lat="44.540378061503084" lon="8.941078223835714"><ele>330.6666666666667</ele><time>2026-03-28T16:16:23Z</time></trkpt><trkpt lat="44.54053009345821" lon="8.940964590569479"><ele>340.33333333333337</ele><time>2026-03-28T16:16:24Z</time></trkpt><trkpt lat="44.5406879173179" lon="8.94087375387936"><ele>350.0</ele><time>2026-03-28T16:16:25Z</time></trkpt><trkpt lat="44.54084230165402" lon="8.940802030005399"><ele>350.0</ele><time>2026-03-28T16:16:26Z</time></trkpt><trkpt lat="44.54100521450176" lon="8.940741488315219"><ele>350.0</ele><time>2026-03-28T16:16:27Z</time></trkpt><trkpt lat="44.5411624429026" lon="8.940695736448001"><ele>350.0</ele><time>2026-03-28T16:16:28Z</time></trkpt><trkpt lat="44.541334936294504" lon="8.940665138484185"><ele>356.6666666666667</ele><time>2026-03-28T16:16:29Z</time></trkpt><trkpt lat="44.54150153783208" lon="8.940650648363858"><ele>363.3333333333333</ele><time>2026-03-28T16:16:30Z</time></trkpt><trkpt lat="44.5416630682927" lon="8.940650803351694"><ele>370.0</ele><time>2026-03-28T16:16:31Z</time></trkpt><trkpt lat="44.54181825928315" lon="8.940664448999279"><ele>370.0</ele><time>2026-03-28T16:16:32Z</time></trkpt><trkpt lat="44.54195623071917" lon="8.940698251520107"><ele>370.0</ele><time>2026-03-28T16:16:33Z</time></trkpt><trkpt lat="44.542091860225526" lon="8.940744663647024"><ele>370.0</ele><time>2026-03-28T16:16:34Z</time></trkpt><trkpt lat="44.54222992503423" lon="8.940802081531984"><ele>370.0</ele><time>2026-03-28T16:16:35Z</time></trkpt><trkpt lat="44.542353265660495" lon="8.940864818956967"><ele>375.0</ele><time>2026-03-28T16:16:36Z</time></trkpt><trkpt lat="44.542471115395976" lon="8.940935583749056"><ele>380.0</ele><time>2026-03-28T16:16:37Z</time></trkpt><trkpt lat="44.54259194631793" lon="8.941016622854152"><ele>385.0</ele><time>2026-03-28T16:16:38Z</time></trkpt><trkpt lat="44.54271430678681" lon="8.94110559478977"><ele>390.0</ele><time>2026-03-28T16:16:39Z</time></trkpt><trkpt lat="44.54283573838606" lon="8.941196407166832"><ele>385.0</ele><time>2026-03-28T16:16:40Z</time></trkpt><trkpt lat="44.54295714706245" lon="8.94128845630085"><ele>380.0</ele><time>2026-03-28T16:16:41Z</time></trkpt><trkpt lat="44.543073198055424" lon="8.941375006069546"><ele>375.0</ele><time>2026-03-28T16:16:42Z</time></trkpt><trkpt lat="44.54318596424763" lon="8.941455601362225"><ele>370.0</ele><time>2026-03-28T16:16:43Z</time></trkpt><trkpt lat="44.543303172782444" lon="8.941540180902138"><ele>370.0</ele><time>2026-03-28T16:16:44Z</time></trkpt><trkpt lat="44.54341726271895" lon="8.941627717941088"><ele>370.0</ele><time>2026-03-28T16:16:45Z</time></trkpt><trkpt lat="44.54352821708162" lon="8.941712320983534"><ele>370.0</ele><time>2026-03-28T16:16:46Z</time></trkpt><trkpt lat="44.543639879484225" lon="8.94179510865253"><ele>370.0</ele><time>2026-03-28T16:16:46.999Z</time></trkpt><trkpt lat="44.54375391982846" lon="8.94187514169382"><ele>373.5</ele><time>2026-03-28T16:16:47.999Z</time></trkpt><trkpt lat="44.54386567119304" lon="8.941960116693865"><ele>377.0</ele><time>2026-03-28T16:16:48.999Z</time></trkpt><trkpt lat="44.54397770615283" lon="8.942045425818247"><ele>380.5</ele><time>2026-03-28T16:16:49.999Z</time></trkpt><trkpt lat="44.54409010879677" lon="8.942134259653281"><ele>384.0</ele><time>2026-03-28T16:16:50.999Z</time></trkpt><trkpt lat="44.54420016363768" lon="8.942220819485186"><ele>384.0</ele><time>2026-03-28T16:16:51.999Z</time></trkpt><trkpt lat="44.54430872037058" lon="8.942302021654841"><ele>384.0</ele><time>2026-03-28T16:16:52.999Z</time></trkpt><trkpt lat="44.54440975596751" lon="8.94237704971922"><ele>384.0</ele><time>2026-03-28T16:16:53.999Z</time></trkpt><trkpt lat="44.5445079302812" lon="8.942452862147022"><ele>384.0</ele><time>2026-03-28T16:16:54.999Z</time></trkpt><trkpt lat="44.54460967504843" lon="8.942529541353561"><ele>387.75</ele><time>2026-03-28T16:16:55.999Z</time></trkpt><trkpt lat="44.54471618008819" lon="8.942614183274468"><ele>391.5</ele><time>2026-03-28T16:16:56.999Z</time></trkpt><trkpt lat="44.54482922643478" lon="8.942702853741407"><ele>395.25</ele><time>2026-03-28T16:16:57.999Z</time></trkpt><trkpt lat="44.54494303338878" lon="8.94278930442539"><ele>399.0</ele><time>2026-03-28T16:16:58.999Z</time></trkpt><trkpt lat="44.54505790539476" lon="8.942876496706791"><ele>399.0</ele><time>2026-03-28T16:16:59.999Z</time></trkpt><trkpt lat="44.54516972854869" lon="8.94296059279463"><ele>399.0</ele><time>2026-03-28T16:17:00.999Z</time></trkpt><trkpt lat="44.54528170000005" lon="8.94304639235347"><ele>399.0</ele><time>2026-03-28T16:17:01.999Z</time></trkpt><trkpt lat="44.54539837952059" lon="8.943135862063864"><ele>399.0</ele><time>2026-03-28T16:17:02.999Z</time></trkpt><trkpt lat="44.545515267430225" lon="8.943225751707562"><ele>399.75</ele><time>2026-03-28T16:17:03.999Z</time></trkpt><trkpt lat="44.545629142318404" lon="8.943321777736235"><ele>400.5</ele><time>2026-03-28T16:17:04.999Z</time></trkpt><trkpt lat="44.545745568384355" lon="8.94341876661251"><ele>401.25</ele><time>2026-03-28T16:17:05.999Z</time></trkpt><trkpt lat="44.545863677387295" lon="8.943511344710949"><ele>402.0</ele><time>2026-03-28T16:17:06.999Z</time></trkpt><trkpt lat="44.54598205721752" lon="8.943599669815855"><ele>402.0</ele><time>2026-03-28T16:17:07.999Z</time></trkpt><trkpt lat="44.54610298345116" lon="8.943691365996495"><ele>402.0</ele><time>2026-03-28T16:17:08.999Z</time></trkpt><trkpt lat="44.54622495802692" lon="8.943782063085166"><ele>402.0</ele><time>2026-03-28T16:17:09.999Z</time></trkpt><trkpt lat="44.54634533048121" lon="8.943872758425954"><ele>402.0</ele><time>2026-03-28T16:17:10.999Z</time></trkpt><trkpt lat="44.546464729317144" lon="8.943964755556777"><ele>405.75</ele><time>2026-03-28T16:17:11.999Z</time></trkpt><trkpt lat="44.54658382666379" lon="8.944053014011681"><ele>409.5</ele><time>2026-03-28T16:17:12.999Z</time></trkpt><trkpt lat="44.54669519504187" lon="8.944134569122399"><ele>413.25</ele><time>2026-03-28T16:17:13.999Z</time></trkpt><trkpt lat="44.54680410138937" lon="8.944215486849794"><ele>417.0</ele><time>2026-03-28T16:17:14.999Z</time></trkpt><trkpt lat="44.54690980237491" lon="8.944296611471605"><ele>417.0</ele><time>2026-03-28T16:17:15.999Z</time></trkpt><trkpt lat="44.54701687473928" lon="8.944378227931358"><ele>417.0</ele><time>2026-03-28T16:17:16.999Z</time></trkpt><trkpt lat="44.54712758473142" lon="8.944460233098964"><ele>417.0</ele><time>2026-03-28T16:17:17.999Z</time></trkpt><trkpt lat="44.54723469845301" lon="8.944542743335854"><ele>417.0</ele><time>2026-03-28T16:17:18.999Z</time></trkpt><trkpt lat="44.547341451012116" lon="8.944623460878578"><ele>411.75</ele><time>2026-03-28T16:17:19.999Z</time></trkpt><trkpt lat="44.5474509595007" lon="8.94469931087195"><ele>406.5</ele><time>2026-03-28T16:17:20.999Z</time></trkpt><trkpt lat="44.547563479117564" lon="8.944769974499707"><ele>401.25</ele><time>2026-03-28T16:17:21.999Z</time></trkpt><trkpt lat="44.54768168593932" lon="8.944826312894236"><ele>396.0</ele><time>2026-03-28T16:17:22.999Z</time></trkpt><trkpt lat="44.54780614590811" lon="8.944879776584742"><ele>392.25</ele><time>2026-03-28T16:17:23.999Z</time></trkpt><trkpt lat="44.547934450497635" lon="8.944925175877886"><ele>388.5</ele><time>2026-03-28T16:17:24.999Z</time></trkpt><trkpt lat="44.548066356397975" lon="8.944959837062214"><ele>384.75</ele><time>2026-03-28T16:17:25.999Z</time></trkpt><trkpt lat="44.54820017399922" lon="8.944980945946213"><ele>381.0</ele><time>2026-03-28T16:17:26.999Z</time></trkpt><trkpt lat="44.5483318084876" lon="8.944990027638632"><ele>381.0</ele><time>2026-03-28T16:17:27.999Z</time></trkpt><trkpt lat="44.54845950197506" lon="8.944989731446919"><ele>381.0</ele><time>2026-03-28T16:17:28.999Z</time></trkpt><trkpt lat="44.5485826087839" lon="8.944975594348538"><ele>381.0</ele><time>2026-03-28T16:17:29.999Z</time></trkpt><trkpt lat="44.54870596117817" lon="8.944953714996188"><ele>381.0</ele><time>2026-03-28T16:17:30.999Z</time></trkpt><trkpt lat="44.54882815267195" lon="8.944928756507123"><ele>383.5</ele><time>2026-03-28T16:17:31.999Z</time></trkpt><trkpt lat="44.54894822009829" lon="8.94490141772615"><ele>386.0</ele><time>2026-03-28T16:17:32.999Z</time></trkpt><trkpt lat="44.54906397060165" lon="8.944876881116649"><ele>388.5</ele><time>2026-03-28T16:17:33.999Z</time></trkpt><trkpt lat="44.54917949905174" lon="8.94485074387877"><ele>391.0</ele><time>2026-03-28T16:17:34.999Z</time></trkpt><trkpt lat="44.54929330844049" lon="8.944823757607795"><ele>391.0</ele><time>2026-03-28T16:17:35.999Z</time></trkpt><trkpt lat="44.54940781273829" lon="8.944796303526656"><ele>391.0</ele><time>2026-03-28T16:17:36.999Z</time></trkpt><trkpt lat="44.549522034994816" lon="8.944767398660051"><ele>391.0</ele><time>2026-03-28T16:17:37.999Z</time></trkpt><trkpt lat="44.5496349595655" lon="8.944745995285666"><ele>391.0</ele><time>2026-03-28T16:17:38.999Z</time></trkpt><trkpt lat="44.54973541825923" lon="8.944732577769223"><ele>391.0</ele><time>2026-03-28T16:17:39.999Z</time></trkpt><trkpt lat="44.54982896533246" lon="8.944725047837528"><ele>392.6666666666667</ele><time>2026-03-28T16:17:40.999Z</time></trkpt><trkpt lat="44.54991869137804" lon="8.944721698426175"><ele>394.33333333333337</ele><time>2026-03-28T16:17:41.999Z</time></trkpt><trkpt lat="44.55000903830926" lon="8.944719677701888"><ele>396.0</ele><time>2026-03-28T16:17:42.999Z</time></trkpt><trkpt lat="44.550088978574244" lon="8.944712589341806"><ele>397.66666666666663</ele><time>2026-03-28T16:17:43.999Z</time></trkpt><trkpt lat="44.55016812850211" lon="8.944697788450986"><ele>399.3333333333333</ele><time>2026-03-28T16:17:44.999Z</time></trkpt><trkpt lat="44.550254834135025" lon="8.94467344600452"><ele>401.0</ele><time>2026-03-28T16:17:45.999Z</time></trkpt><trkpt lat="44.5503351924994" lon="8.94470689512571"><ele>401.8333333333333</ele><time>2026-03-28T16:17:46.999Z</time></trkpt><trkpt lat="44.550415548718505" lon="8.944728937801774"><ele>402.66666666666663</ele><time>2026-03-28T16:17:47.999Z</time></trkpt><trkpt lat="44.550519619455656" lon="8.944756812169622"><ele>403.5</ele><time>2026-03-28T16:17:48.999Z</time></trkpt><trkpt lat="44.55058779706506" lon="8.944776096069514"><ele>404.33333333333337</ele><time>2026-03-28T16:17:49.999Z</time></trkpt><trkpt lat="44.55067669014522" lon="8.944801607282058"><ele>405.1666666666667</ele><time>2026-03-28T16:17:50.999Z</time></trkpt><trkpt lat="44.55076949689163" lon="8.944830169571382"><ele>406.0</ele><time>2026-03-28T16:17:51.999Z</time></trkpt><trkpt lat="44.550872014900264" lon="8.944862596705766"><ele>406.0</ele><time>2026-03-28T16:17:52.999Z</time></trkpt><trkpt lat="44.55097746474051" lon="8.944896279315076"><ele>406.0</ele><time>2026-03-28T16:17:53.999Z</time></trkpt><trkpt lat="44.55109254387025" lon="8.94493087837588"><ele>406.0</ele><time>2026-03-28T16:17:54.999Z</time></trkpt><trkpt lat="44.551198494765394" lon="8.944962762369823"><ele>406.0</ele><time>2026-03-28T16:17:55.999Z</time></trkpt><trkpt lat="44.55131469433726" lon="8.944997629208524"><ele>411.20000000000005</ele><time>2026-03-28T16:17:56.999Z</time></trkpt><trkpt lat="44.55140722647427" lon="8.945024852228668"><ele>416.40000000000003</ele><time>2026-03-28T16:17:57.999Z</time></trkpt><trkpt lat="44.551505301651915" lon="8.945053374010081"><ele>421.6</ele><time>2026-03-28T16:17:59Z</time></trkpt><trkpt lat="44.55160381054993" lon="8.945081708327384"><ele>426.8</ele><time>2026-03-28T16:18:00Z</time></trkpt><trkpt lat="44.55170199167904" lon="8.945110982816047"><ele>432.0</ele><time>2026-03-28T16:18:01.023Z</time></trkpt><trkpt lat="44.55180937365762" lon="8.945143445793942"><ele>436.5</ele><time>2026-03-28T16:18:02.022Z</time></trkpt><trkpt lat="44.55196152362742" lon="8.945189288847773"><ele>441.0</ele><time>2026-03-28T16:18:03.017Z</time></trkpt><trkpt lat="44.55207379815816" lon="8.945222380752107"><ele>445.5</ele><time>2026-03-28T16:18:04.024Z</time></trkpt><trkpt lat="44.55218000076293" lon="8.94525440903439"><ele>450.0</ele><time>2026-03-28T16:18:05.023Z</time></trkpt><trkpt lat="44.55414555030453" lon="8.945935343160176"><ele>516.0</ele><time>2026-03-28T16:18:08.206Z</time></trkpt><trkpt lat="44.55326842136989" lon="8.945879455077048"><ele>430.0</ele><time>2026-03-28T16:18:15.355Z</time></trkpt><trkpt lat="44.5598792592009" lon="8.946708221544682"><ele>429.0</ele><time>2026-03-28T16:19:05.022Z</time></trkpt><trkpt lat="44.55971981634291" lon="8.94674792944552"><ele>428.0</ele><time>2026-03-28T16:19:05.999Z</time></trkpt><trkpt lat="44.55982824530669" lon="8.946787397233843"><ele>427.0</ele><time>2026-03-28T16:19:06.999Z</time></trkpt><trkpt lat="44.55993916920497" lon="8.946808206293694"><ele>426.0</ele><time>2026-03-28T16:19:07.999Z</time></trkpt><trkpt lat="44.56007482337488" lon="8.946835531212034"><ele>426.0</ele><time>2026-03-28T16:19:08.999Z</time></trkpt><trkpt lat="44.5602279950422" lon="8.946895070293614"><ele>426.0</ele><time>2026-03-28T16:19:09.999Z</time></trkpt><trkpt lat="44.56038535846037" lon="8.946953633786599"><ele>426.0</ele><time>2026-03-28T16:19:10.999Z</time></trkpt><trkpt lat="44.56053608651414" lon="8.947005960013458"><ele>422.33333333333337</ele><time>2026-03-28T16:19:11.999Z</time></trkpt><trkpt lat="44.560703526294034" lon="8.94709135755961"><ele>418.6666666666667</ele><time>2026-03-28T16:19:12.999Z</time></trkpt><trkpt lat="44.56085764664697" lon="8.94718757218083"><ele>415.0</ele><time>2026-03-28T16:19:13.999Z</time></trkpt><trkpt lat="44.561010523125205" lon="8.947277021417454"><ele>415.0</ele><time>2026-03-28T16:19:14.999Z</time></trkpt><trkpt lat="44.56116919684776" lon="8.947344180233562"><ele>415.0</ele><time>2026-03-28T16:19:15.999Z</time></trkpt><trkpt lat="44.56133419216904" lon="8.947389895796556"><ele>415.0</ele><time>2026-03-28T16:19:16.999Z</time></trkpt><trkpt lat="44.56149713437665" lon="8.947355239760709"><ele>415.0</ele><time>2026-03-28T16:19:17.999Z</time></trkpt><trkpt lat="44.56165742666407" lon="8.947309210742723"><ele>415.0</ele><time>2026-03-28T16:19:18.999Z</time></trkpt><trkpt lat="44.56181006723524" lon="8.947209488680414"><ele>415.0</ele><time>2026-03-28T16:19:19.999Z</time></trkpt><trkpt lat="44.56196492644661" lon="8.947108856429516"><ele>419.0</ele><time>2026-03-28T16:19:20.999Z</time></trkpt><trkpt lat="44.56211646597497" lon="8.94700617975909"><ele>423.0</ele><time>2026-03-28T16:19:21.999Z</time></trkpt><trkpt lat="44.56226153349327" lon="8.946908098552612"><ele>427.0</ele><time>2026-03-28T16:19:22.999Z</time></trkpt><trkpt lat="44.56239855029426" lon="8.946821042606265"><ele>427.0</ele><time>2026-03-28T16:19:23.999Z</time></trkpt><trkpt lat="44.56253789115541" lon="8.946757948079314"><ele>427.0</ele><time>2026-03-28T16:19:24.999Z</time></trkpt><trkpt lat="44.562674922738736" lon="8.946706784556206"><ele>427.0</ele><time>2026-03-28T16:19:25.999Z</time></trkpt><trkpt lat="44.56281472041574" lon="8.946653824207427"><ele>427.0</ele><time>2026-03-28T16:19:26.999Z</time></trkpt><trkpt lat="44.562957771973494" lon="8.946594981870065"><ele>424.0</ele><time>2026-03-28T16:19:27.999Z</time></trkpt><trkpt lat="44.56309958592118" lon="8.946523893815547"><ele>421.0</ele><time>2026-03-28T16:19:28.999Z</time></trkpt><trkpt lat="44.56323851599885" lon="8.946426917831142"><ele>418.0</ele><time>2026-03-28T16:19:29.999Z</time></trkpt><trkpt lat="44.563370119899496" lon="8.946310079980485"><ele>418.0</ele><time>2026-03-28T16:19:30.999Z</time></trkpt><trkpt lat="44.56349177037413" lon="8.946179822451692"><ele>418.0</ele><time>2026-03-28T16:19:31.999Z</time></trkpt><trkpt lat="44.56360878345437" lon="8.946042450096096"><ele>418.0</ele><time>2026-03-28T16:19:32.999Z</time></trkpt><trkpt lat="44.56371792449715" lon="8.94589572529696"><ele>417.5</ele><time>2026-03-28T16:19:33.999Z</time></trkpt><trkpt lat="44.563820033693034" lon="8.945752029132287"><ele>417.0</ele><time>2026-03-28T16:19:34.999Z</time></trkpt><trkpt lat="44.56391753547193" lon="8.945615734724457"><ele>416.5</ele><time>2026-03-28T16:19:35.999Z</time></trkpt><trkpt lat="44.56400730926781" lon="8.945489856405556"><ele>416.0</ele><time>2026-03-28T16:19:36.999Z</time></trkpt><trkpt lat="44.564095768790025" lon="8.945360199858133"><ele>416.0</ele><time>2026-03-28T16:19:37.999Z</time></trkpt><trkpt lat="44.56417581544688" lon="8.945237750019846"><ele>416.0</ele><time>2026-03-28T16:19:38.999Z</time></trkpt><trkpt lat="44.56425667182444" lon="8.945136515959405"><ele>416.0</ele><time>2026-03-28T16:19:39.999Z</time></trkpt><trkpt lat="44.564343541538115" lon="8.945045614988214"><ele>416.0</ele><time>2026-03-28T16:19:40.999Z</time></trkpt><trkpt lat="44.56444307906341" lon="8.944978926083133"><ele>416.0</ele><time>2026-03-28T16:19:41.999Z</time></trkpt><trkpt lat="44.564549598071224" lon="8.944934003477455"><ele>410.75</ele><time>2026-03-28T16:19:42.999Z</time></trkpt><trkpt lat="44.56466378540075" lon="8.944914384833499"><ele>405.5</ele><time>2026-03-28T16:19:43.999Z</time></trkpt><trkpt lat="44.56477486467164" lon="8.944916033548402"><ele>400.25</ele><time>2026-03-28T16:19:44.999Z</time></trkpt><trkpt lat="44.564883906543365" lon="8.944941000273706"><ele>395.0</ele><time>2026-03-28T16:19:45.999Z</time></trkpt><trkpt lat="44.56499306561011" lon="8.94499581908803"><ele>394.25</ele><time>2026-03-28T16:19:46.999Z</time></trkpt><trkpt lat="44.56510077392662" lon="8.945070055098707"><ele>393.5</ele><time>2026-03-28T16:19:47.999Z</time></trkpt><trkpt lat="44.56520760849248" lon="8.945158648539312"><ele>392.75</ele><time>2026-03-28T16:19:48.999Z</time></trkpt><trkpt lat="44.565320111718094" lon="8.945256794713242"><ele>392.0</ele><time>2026-03-28T16:19:49.999Z</time></trkpt><trkpt lat="44.565437215723676" lon="8.945354445202106"><ele>392.0</ele><time>2026-03-28T16:19:50.999Z</time></trkpt><trkpt lat="44.5655536065857" lon="8.94546864849628"><ele>392.0</ele><time>2026-03-28T16:19:51.999Z</time></trkpt><trkpt lat="44.565669931592225" lon="8.945587146674558"><ele>392.0</ele><time>2026-03-28T16:19:52.999Z</time></trkpt><trkpt lat="44.56578378252678" lon="8.945717379056912"><ele>392.0</ele><time>2026-03-28T16:19:53.999Z</time></trkpt><trkpt lat="44.56589853391938" lon="8.945856798475026"><ele>391.0</ele><time>2026-03-28T16:19:54.999Z</time></trkpt><trkpt lat="44.566012697225744" lon="8.945995734927653"><ele>390.0</ele><time>2026-03-28T16:19:55.999Z</time></trkpt><trkpt lat="44.5661338106257" lon="8.946135190674939"><ele>389.0</ele><time>2026-03-28T16:19:56.999Z</time></trkpt><trkpt lat="44.56625337531618" lon="8.946259730384668"><ele>389.0</ele><time>2026-03-28T16:19:57.999Z</time></trkpt><trkpt lat="44.56637189650729" lon="8.946366497187329"><ele>389.0</ele><time>2026-03-28T16:19:58.999Z</time></trkpt><trkpt lat="44.56649165185464" lon="8.946454313855668"><ele>389.0</ele><time>2026-03-28T16:19:59.999Z</time></trkpt><trkpt lat="44.56660922667801" lon="8.946528280449385"><ele>389.0</ele><time>2026-03-28T16:20:00.999Z</time></trkpt><trkpt lat="44.56671873418873" lon="8.946599625814892"><ele>389.0</ele><time>2026-03-28T16:20:01.999Z</time></trkpt><trkpt lat="44.56682694276747" lon="8.946668776557903"><ele>389.0</ele><time>2026-03-28T16:20:02.999Z</time></trkpt><trkpt lat="44.56693114533918" lon="8.946741376545516"><ele>389.0</ele><time>2026-03-28T16:20:03.999Z</time></trkpt><trkpt lat="44.567031380058545" lon="8.946838581836642"><ele>389.0</ele><time>2026-03-28T16:20:05Z</time></trkpt><trkpt lat="44.567117802392254" lon="8.946964857100328"><ele>386.75</ele><time>2026-03-28T16:20:06Z</time></trkpt><trkpt lat="44.56719164853269" lon="8.947109575893364"><ele>384.5</ele><time>2026-03-28T16:20:07Z</time></trkpt><trkpt lat="44.567240586162974" lon="8.947264921087067"><ele>382.25</ele><time>2026-03-28T16:20:08Z</time></trkpt><trkpt lat="44.5672590341176" lon="8.947420568628631"><ele>380.0</ele><time>2026-03-28T16:20:09Z</time></trkpt><trkpt lat="44.567272038144125" lon="8.9475956372171"><ele>379.0</ele><time>2026-03-28T16:20:10Z</time></trkpt><trkpt lat="44.56725859951069" lon="8.947775863096593"><ele>378.0</ele><time>2026-03-28T16:20:11Z</time></trkpt><trkpt lat="44.567216611860786" lon="8.947950001769378"><ele>377.0</ele><time>2026-03-28T16:20:12Z</time></trkpt><trkpt lat="44.56716403205624" lon="8.94812034337132"><ele>376.0</ele><time>2026-03-28T16:20:13Z</time></trkpt><trkpt lat="44.56701291935619" lon="8.948246229682777"><ele>379.5</ele><time>2026-03-28T16:20:14Z</time></trkpt><trkpt lat="44.56697347970144" lon="8.948431320746426"><ele>383.0</ele><time>2026-03-28T16:20:15Z</time></trkpt><trkpt lat="44.56693749358844" lon="8.948609994529376"><ele>386.5</ele><time>2026-03-28T16:20:16Z</time></trkpt><trkpt lat="44.566904862929356" lon="8.948772008998766"><ele>390.0</ele><time>2026-03-28T16:20:17Z</time></trkpt><trkpt lat="44.56687552930217" lon="8.948917653373691"><ele>383.6666666666667</ele><time>2026-03-28T16:20:18Z</time></trkpt><trkpt lat="44.56703915109735" lon="8.949132555227173"><ele>377.33333333333337</ele><time>2026-03-28T16:20:19Z</time></trkpt><trkpt lat="44.56707214011861" lon="8.949294095105687"><ele>371.0</ele><time>2026-03-28T16:20:20Z</time></trkpt><trkpt lat="44.56712148420102" lon="8.949442155743842"><ele>370.6</ele><time>2026-03-28T16:20:21Z</time></trkpt><trkpt lat="44.56717723444183" lon="8.949574246178596"><ele>370.20000000000005</ele><time>2026-03-28T16:20:22Z</time></trkpt><trkpt lat="44.56723692891198" lon="8.94969734616848"><ele>369.79999999999995</ele><time>2026-03-28T16:20:23Z</time></trkpt><trkpt lat="44.56729218113502" lon="8.949816688724175"><ele>369.4</ele><time>2026-03-28T16:20:24Z</time></trkpt><trkpt lat="44.56734359177398" lon="8.949929188364614"><ele>369.0</ele><time>2026-03-28T16:20:25Z</time></trkpt><trkpt lat="44.5674012983602" lon="8.950034130868376"><ele>369.75</ele><time>2026-03-28T16:20:26Z</time></trkpt><trkpt lat="44.567477205337624" lon="8.950119804511257"><ele>370.5</ele><time>2026-03-28T16:20:27Z</time></trkpt><trkpt lat="44.56757338281869" lon="8.950200790124317"><ele>371.25</ele><time>2026-03-28T16:20:28Z</time></trkpt><trkpt lat="44.56768665236174" lon="8.950282278701827"><ele>372.0</ele><time>2026-03-28T16:20:29Z</time></trkpt><trkpt lat="44.567813739337325" lon="8.950377563611747"><ele>369.0</ele><time>2026-03-28T16:20:30Z</time></trkpt><trkpt lat="44.56794494969764" lon="8.950484254269899"><ele>366.0</ele><time>2026-03-28T16:20:31Z</time></trkpt><trkpt lat="44.568090923606235" lon="8.950598723797082"><ele>363.0</ele><time>2026-03-28T16:20:32Z</time></trkpt><trkpt lat="44.568241305263165" lon="8.950722573635511"><ele>363.0</ele><time>2026-03-28T16:20:33Z</time></trkpt><trkpt lat="44.56839737941491" lon="8.950848165961416"><ele>363.0</ele><time>2026-03-28T16:20:34Z</time></trkpt><trkpt lat="44.568557823188954" lon="8.950977234128947"><ele>363.0</ele><time>2026-03-28T16:20:35Z</time></trkpt><trkpt lat="44.568722408968604" lon="8.951110450317502"><ele>360.3333333333333</ele><time>2026-03-28T16:20:36Z</time></trkpt><trkpt lat="44.56889131894375" lon="8.951245156549938"><ele>357.66666666666663</ele><time>2026-03-28T16:20:37Z</time></trkpt><trkpt lat="44.56906356207908" lon="8.951383044968672"><ele>355.0</ele><time>2026-03-28T16:20:38Z</time></trkpt><trkpt lat="44.569241833519946" lon="8.951525116602596"><ele>355.0</ele><time>2026-03-28T16:20:39Z</time></trkpt><trkpt lat="44.56942141869777" lon="8.95166569983414"><ele>355.0</ele><time>2026-03-28T16:20:40Z</time></trkpt><trkpt lat="44.569606256296304" lon="8.951806457354815"><ele>355.0</ele><time>2026-03-28T16:20:41Z</time></trkpt><trkpt lat="44.569794823693336" lon="8.951928852062895"><ele>357.0</ele><time>2026-03-28T16:20:42Z</time></trkpt><trkpt lat="44.56999015562633" lon="8.952009635596621"><ele>359.0</ele><time>2026-03-28T16:20:43Z</time></trkpt><trkpt lat="44.570188522173446" lon="8.952042568073882"><ele>361.0</ele><time>2026-03-28T16:20:44Z</time></trkpt><trkpt lat="44.570381135718755" lon="8.952061311670574"><ele>361.3333333333333</ele><time>2026-03-28T16:20:45Z</time></trkpt><trkpt lat="44.57057188096649" lon="8.952061722712386"><ele>361.6666666666667</ele><time>2026-03-28T16:20:46Z</time></trkpt><trkpt lat="44.570760609400836" lon="8.952025281031213"><ele>362.0</ele><time>2026-03-28T16:20:47Z</time></trkpt><trkpt lat="44.57095368892751" lon="8.95196718574923"><ele>362.0</ele><time>2026-03-28T16:20:48Z</time></trkpt><trkpt lat="44.5711437481464" lon="8.951874284053392"><ele>362.0</ele><time>2026-03-28T16:20:49Z</time></trkpt><trkpt lat="44.57133011857682" lon="8.951751025880828"><ele>362.0</ele><time>2026-03-28T16:20:50Z</time></trkpt><trkpt lat="44.57151935721346" lon="8.951600638619269"><ele>361.6666666666667</ele><time>2026-03-28T16:20:51Z</time></trkpt><trkpt lat="44.57170745342319" lon="8.951443448971649"><ele>361.3333333333333</ele><time>2026-03-28T16:20:52Z</time></trkpt><trkpt lat="44.57189960708331" lon="8.951284519944911"><ele>361.0</ele><time>2026-03-28T16:20:53Z</time></trkpt><trkpt lat="44.57209425243546" lon="8.951127415904697"><ele>360.5</ele><time>2026-03-28T16:20:54Z</time></trkpt><trkpt lat="44.57229175542024" lon="8.95096757964689"><ele>360.0</ele><time>2026-03-28T16:20:54.999Z</time></trkpt><trkpt lat="44.57248919634794" lon="8.950807841561819"><ele>359.5</ele><time>2026-03-28T16:20:55.999Z</time></trkpt><trkpt lat="44.57268580794746" lon="8.950645660721046"><ele>359.0</ele><time>2026-03-28T16:20:56.999Z</time></trkpt><trkpt lat="44.57287736245805" lon="8.950482552941816"><ele>358.6666666666667</ele><time>2026-03-28T16:20:57.999Z</time></trkpt><trkpt lat="44.57306942980131" lon="8.950330227520215"><ele>358.3333333333333</ele><time>2026-03-28T16:20:58.999Z</time></trkpt><trkpt lat="44.57326271787925" lon="8.95017568686099"><ele>358.0</ele><time>2026-03-28T16:20:59.999Z</time></trkpt><trkpt lat="44.57345304152779" lon="8.950017788360265"><ele>358.66666666666663</ele><time>2026-03-28T16:21:00.999Z</time></trkpt><trkpt lat="44.57364257662094" lon="8.949858267739806"><ele>359.3333333333333</ele><time>2026-03-28T16:21:01.999Z</time></trkpt><trkpt lat="44.573834107857834" lon="8.949701095216641"><ele>360.0</ele><time>2026-03-28T16:21:02.999Z</time></trkpt><trkpt lat="44.57402629341605" lon="8.949543450324015"><ele>360.3333333333333</ele><time>2026-03-28T16:21:03.999Z</time></trkpt><trkpt lat="44.574217755669835" lon="8.949385429365796"><ele>360.66666666666663</ele><time>2026-03-28T16:21:04.999Z</time></trkpt><trkpt lat="44.57440999199296" lon="8.949230041744674"><ele>361.0</ele><time>2026-03-28T16:21:05.999Z</time></trkpt><trkpt lat="44.574601327042785" lon="8.949075702139002"><ele>362.3333333333333</ele><time>2026-03-28T16:21:06.999Z</time></trkpt><trkpt lat="44.57479512471692" lon="8.948921608285808"><ele>363.6666666666667</ele><time>2026-03-28T16:21:07.999Z</time></trkpt><trkpt lat="44.57498799032823" lon="8.948764469835103"><ele>365.0</ele><time>2026-03-28T16:21:08.999Z</time></trkpt><trkpt lat="44.57518642666432" lon="8.948601266108085"><ele>368.0</ele><time>2026-03-28T16:21:09.999Z</time></trkpt><trkpt lat="44.575389803261714" lon="8.948436454144819"><ele>371.0</ele><time>2026-03-28T16:21:10.999Z</time></trkpt><trkpt lat="44.57559347953752" lon="8.948265906173841"><ele>371.0</ele><time>2026-03-28T16:21:11.999Z</time></trkpt><trkpt lat="44.575789266640136" lon="8.948080196651658"><ele>371.0</ele><time>2026-03-28T16:21:12.999Z</time></trkpt><trkpt lat="44.57597849805148" lon="8.947874322650396"><ele>371.0</ele><time>2026-03-28T16:21:13.999Z</time></trkpt><trkpt lat="44.57615147569689" lon="8.947645029293248"><ele>371.0</ele><time>2026-03-28T16:21:14.999Z</time></trkpt><trkpt lat="44.57630338710605" lon="8.947393446244803"><ele>368.0</ele><time>2026-03-28T16:21:15.999Z</time></trkpt><trkpt lat="44.576441251223144" lon="8.947124963943228"><ele>365.0</ele><time>2026-03-28T16:21:16.999Z</time></trkpt><trkpt lat="44.57656017518854" lon="8.946841532715949"><ele>363.5</ele><time>2026-03-28T16:21:17.999Z</time></trkpt><trkpt lat="44.57666258896867" lon="8.946546034526364"><ele>362.0</ele><time>2026-03-28T16:21:18.999Z</time></trkpt><trkpt lat="44.57674321194239" lon="8.946235292173483"><ele>362.0</ele><time>2026-03-28T16:21:19.999Z</time></trkpt><trkpt lat="44.57681521437383" lon="8.945922108222927"><ele>362.0</ele><time>2026-03-28T16:21:20.999Z</time></trkpt><trkpt lat="44.57688433386909" lon="8.94560671595744"><ele>359.5</ele><time>2026-03-28T16:21:21.999Z</time></trkpt><trkpt lat="44.57696593062816" lon="8.945296322484586"><ele>357.0</ele><time>2026-03-28T16:21:22.999Z</time></trkpt><trkpt lat="44.577071011099285" lon="8.94500247640082"><ele>367.5</ele><time>2026-03-28T16:21:23.999Z</time></trkpt><trkpt lat="44.577202831138656" lon="8.944732914212622"><ele>378.0</ele><time>2026-03-28T16:21:24.999Z</time></trkpt><trkpt lat="44.57733749089677" lon="8.944494632060659"><ele>378.0</ele><time>2026-03-28T16:21:25.999Z</time></trkpt><trkpt lat="44.577466090066444" lon="8.944264425839314"><ele>378.0</ele><time>2026-03-28T16:21:26.999Z</time></trkpt><trkpt lat="44.57760293822236" lon="8.944061513654388"><ele>378.0</ele><time>2026-03-28T16:21:27.999Z</time></trkpt><trkpt lat="44.57774553708357" lon="8.943867530710465"><ele>377.3333333333333</ele><time>2026-03-28T16:21:28.999Z</time></trkpt><trkpt lat="44.57789518869484" lon="8.943680786605361"><ele>376.66666666666663</ele><time>2026-03-28T16:21:29.999Z</time></trkpt><trkpt lat="44.57805488456275" lon="8.94350660259148"><ele>376.0</ele><time>2026-03-28T16:21:30.999Z</time></trkpt><trkpt lat="44.57822571793849" lon="8.943347610080494"><ele>372.66666666666663</ele><time>2026-03-28T16:21:31.999Z</time></trkpt><trkpt lat="44.5784043430027" lon="8.943196656610581"><ele>369.3333333333333</ele><time>2026-03-28T16:21:32.999Z</time></trkpt><trkpt lat="44.578587770140295" lon="8.943060804333424"><ele>366.0</ele><time>2026-03-28T16:21:33.999Z</time></trkpt><trkpt lat="44.578777578045774" lon="8.942941514310117"><ele>366.0</ele><time>2026-03-28T16:21:34.999Z</time></trkpt><trkpt lat="44.57897913176772" lon="8.942836576270977"><ele>366.0</ele><time>2026-03-28T16:21:35.999Z</time></trkpt><trkpt lat="44.57919205027609" lon="8.942743398888965"><ele>366.0</ele><time>2026-03-28T16:21:36.999Z</time></trkpt><trkpt lat="44.579418920411285" lon="8.942670914800091"><ele>368.5</ele><time>2026-03-28T16:21:37.999Z</time></trkpt><trkpt lat="44.57964433956937" lon="8.9425916882892"><ele>371.0</ele><time>2026-03-28T16:21:38.999Z</time></trkpt><trkpt lat="44.57988286315195" lon="8.94257072749938"><ele>366.5</ele><time>2026-03-28T16:21:39.999Z</time></trkpt><trkpt lat="44.580121214960066" lon="8.942541847665087"><ele>362.0</ele><time>2026-03-28T16:21:40.999Z</time></trkpt><trkpt lat="44.580361548711615" lon="8.94250631040396"><ele>362.0</ele><time>2026-03-28T16:21:41.999Z</time></trkpt><trkpt lat="44.58060507881989" lon="8.942467757718283"><ele>362.0</ele><time>2026-03-28T16:21:42.999Z</time></trkpt><trkpt lat="44.580848938232826" lon="8.94243004501843"><ele>362.0</ele><time>2026-03-28T16:21:43.999Z</time></trkpt><trkpt lat="44.581094873614184" lon="8.942396721179882"><ele>362.0</ele><time>2026-03-28T16:21:44.999Z</time></trkpt><trkpt lat="44.581341899516" lon="8.942363367765196"><ele>361.0</ele><time>2026-03-28T16:21:45.999Z</time></trkpt><trkpt lat="44.58159077958998" lon="8.94233368498317"><ele>360.0</ele><time>2026-03-28T16:21:46.999Z</time></trkpt><trkpt lat="44.581841436125885" lon="8.942302692796167"><ele>362.5</ele><time>2026-03-28T16:21:47.999Z</time></trkpt><trkpt lat="44.58208967272819" lon="8.942270934934031"><ele>365.0</ele><time>2026-03-28T16:21:48.999Z</time></trkpt><trkpt lat="44.58233736268671" lon="8.942236755800216"><ele>365.0</ele><time>2026-03-28T16:21:49.999Z</time></trkpt><trkpt lat="44.582585105948986" lon="8.942201364209225"><ele>365.0</ele><time>2026-03-28T16:21:50.999Z</time></trkpt><trkpt lat="44.58283217631398" lon="8.942166375053773"><ele>367.5</ele><time>2026-03-28T16:21:51.999Z</time></trkpt><trkpt lat="44.58307819710423" lon="8.942135606700061"><ele>370.0</ele><time>2026-03-28T16:21:52.999Z</time></trkpt><trkpt lat="44.583324891024176" lon="8.942106063458924"><ele>370.0</ele><time>2026-03-28T16:21:53.999Z</time></trkpt><trkpt lat="44.58357460691234" lon="8.942076459564571"><ele>370.0</ele><time>2026-03-28T16:21:54.999Z</time></trkpt><trkpt lat="44.58382196273466" lon="8.942041633027639"><ele>374.5</ele><time>2026-03-28T16:21:55.999Z</time></trkpt><trkpt lat="44.584069727700566" lon="8.942008230951362"><ele>379.0</ele><time>2026-03-28T16:21:56.999Z</time></trkpt><trkpt lat="44.584317176345614" lon="8.94197721475023"><ele>385.5</ele><time>2026-03-28T16:21:57.999Z</time></trkpt><trkpt lat="44.58456620693344" lon="8.941950707922512"><ele>392.0</ele><time>2026-03-28T16:21:58.999Z</time></trkpt><trkpt lat="44.58480221486592" lon="8.941932571288781"><ele>392.0</ele><time>2026-03-28T16:21:59.999Z</time></trkpt><trkpt lat="44.585024995549404" lon="8.941930465812547"><ele>392.0</ele><time>2026-03-28T16:22:00.999Z</time></trkpt><trkpt lat="44.585242995526485" lon="8.941950989845493"><ele>392.0</ele><time>2026-03-28T16:22:01.999Z</time></trkpt><trkpt lat="44.58545976797112" lon="8.941995583298961"><ele>396.3333333333333</ele><time>2026-03-28T16:22:02.999Z</time></trkpt><trkpt lat="44.585673697849586" lon="8.942074314251549"><ele>400.66666666666663</ele><time>2026-03-28T16:22:03.999Z</time></trkpt><trkpt lat="44.58588740322938" lon="8.942179822237394"><ele>405.0</ele><time>2026-03-28T16:22:05.023Z</time></trkpt><trkpt lat="44.58608702975215" lon="8.942312314617759"><ele>412.66666666666663</ele><time>2026-03-28T16:22:06.02Z</time></trkpt><trkpt lat="44.5862759474972" lon="8.942463785092706"><ele>420.3333333333333</ele><time>2026-03-28T16:22:07.012Z</time></trkpt><trkpt lat="44.586460576280714" lon="8.942637485667332"><ele>428.0</ele><time>2026-03-28T16:22:08.021Z</time></trkpt><trkpt lat="44.586643043914535" lon="8.94280785692253"><ele>364.0</ele><time>2026-03-28T16:22:09.022Z</time></trkpt><trkpt lat="44.593646995699594" lon="8.9500734034935"><ele>351.5</ele><time>2026-03-28T16:22:46.998Z</time></trkpt><trkpt lat="44.593675073647056" lon="8.950396650047548"><ele>339.0</ele><time>2026-03-28T16:22:47.998Z</time></trkpt><trkpt lat="44.59370894072773" lon="8.950720845627325"><ele>339.0</ele><time>2026-03-28T16:22:48.998Z</time></trkpt><trkpt lat="44.593748042511265" lon="8.951042193418468"><ele>339.0</ele><time>2026-03-28T16:22:49.998Z</time></trkpt><trkpt lat="44.59379594420747" lon="8.95136707972624"><ele>339.0</ele><time>2026-03-28T16:22:50.998Z</time></trkpt><trkpt lat="44.5938375061093" lon="8.951694249553327"><ele>339.0</ele><time>2026-03-28T16:22:52Z</time></trkpt><trkpt lat="44.5938865257854" lon="8.952026563439135"><ele>340.0</ele><time>2026-03-28T16:22:53Z</time></trkpt><trkpt lat="44.59395525979648" lon="8.952355548810425"><ele>341.0</ele><time>2026-03-28T16:22:54Z</time></trkpt><trkpt lat="44.594054085463995" lon="8.952666461776092"><ele>341.0</ele><time>2026-03-28T16:22:55Z</time></trkpt><trkpt lat="44.59417850211886" lon="8.9529657564918"><ele>341.0</ele><time>2026-03-28T16:22:56Z</time></trkpt><trkpt lat="44.594318806857785" lon="8.953235359211828"><ele>340.5</ele><time>2026-03-28T16:22:57Z</time></trkpt><trkpt lat="44.59448061614337" lon="8.953484860398186"><ele>340.0</ele><time>2026-03-28T16:22:58Z</time></trkpt><trkpt lat="44.59465930011134" lon="8.953705780647349"><ele>338.5</ele><time>2026-03-28T16:22:59Z</time></trkpt><trkpt lat="44.59486007059033" lon="8.95390619235557"><ele>337.0</ele><time>2026-03-28T16:23:00Z</time></trkpt><trkpt lat="44.59507464416751" lon="8.954072402017024"><ele>336.5</ele><time>2026-03-28T16:23:01Z</time></trkpt><trkpt lat="44.59529959731986" lon="8.954212135843157"><ele>336.0</ele><time>2026-03-28T16:23:02Z</time></trkpt><trkpt lat="44.595534164789484" lon="8.954311244384705"><ele>336.0</ele><time>2026-03-28T16:23:03Z</time></trkpt><trkpt lat="44.595772243812085" lon="8.954390001016435"><ele>336.0</ele><time>2026-03-28T16:23:04Z</time></trkpt><trkpt lat="44.59601139181005" lon="8.954463665037133"><ele>336.0</ele><time>2026-03-28T16:23:05Z</time></trkpt><trkpt lat="44.596251620853174" lon="8.954538628527205"><ele>336.0</ele><time>2026-03-28T16:23:06Z</time></trkpt><trkpt lat="44.59649436751914" lon="8.954599198441018"><ele>336.0</ele><time>2026-03-28T16:23:07Z</time></trkpt><trkpt lat="44.59673812078703" lon="8.954626200438916"><ele>336.0</ele><time>2026-03-28T16:23:08Z</time></trkpt><trkpt lat="44.59698291279949" lon="8.95462115436774"><ele>337.0</ele><time>2026-03-28T16:23:09Z</time></trkpt><trkpt lat="44.59722191718547" lon="8.954571257982465"><ele>338.0</ele><time>2026-03-28T16:23:10Z</time></trkpt><trkpt lat="44.597456156669494" lon="8.95447962953118"><ele>338.0</ele><time>2026-03-28T16:23:11Z</time></trkpt><trkpt lat="44.59768208074113" lon="8.95435448738173"><ele>338.0</ele><time>2026-03-28T16:23:12Z</time></trkpt><trkpt lat="44.59789887379771" lon="8.954203878851922"><ele>339.0</ele><time>2026-03-28T16:23:13Z</time></trkpt><trkpt lat="44.598109025336136" lon="8.95403703681439"><ele>340.0</ele><time>2026-03-28T16:23:14Z</time></trkpt><trkpt lat="44.59832380727638" lon="8.953863858898918"><ele>340.0</ele><time>2026-03-28T16:23:15Z</time></trkpt><trkpt lat="44.59853774466868" lon="8.953687203052905"><ele>340.0</ele><time>2026-03-28T16:23:16Z</time></trkpt><trkpt lat="44.59874874240293" lon="8.953513270891435"><ele>340.0</ele><time>2026-03-28T16:23:17Z</time></trkpt><trkpt lat="44.59896056640163" lon="8.953334414373073"><ele>340.0</ele><time>2026-03-28T16:23:18Z</time></trkpt><trkpt lat="44.59916827766002" lon="8.953162987563227"><ele>340.0</ele><time>2026-03-28T16:23:19Z</time></trkpt><trkpt lat="44.59937477839752" lon="8.952989392793372"><ele>340.0</ele><time>2026-03-28T16:23:20Z</time></trkpt><trkpt lat="44.59957766597552" lon="8.952820539405494"><ele>340.0</ele><time>2026-03-28T16:23:21Z</time></trkpt><trkpt lat="44.599778239819976" lon="8.952647388658871"><ele>340.0</ele><time>2026-03-28T16:23:22Z</time></trkpt><trkpt lat="44.59997164769003" lon="8.952468059283568"><ele>340.0</ele><time>2026-03-28T16:23:23Z</time></trkpt><trkpt lat="44.600152228379585" lon="8.952273028094359"><ele>340.0</ele><time>2026-03-28T16:23:24Z</time></trkpt><trkpt lat="44.6003204817334" lon="8.952068040197888"><ele>339.5</ele><time>2026-03-28T16:23:25Z</time></trkpt><trkpt lat="44.60049396730099" lon="8.951867030740582"><ele>339.0</ele><time>2026-03-28T16:23:26Z</time></trkpt><trkpt lat="44.60067905784427" lon="8.951685198787361"><ele>339.0</ele><time>2026-03-28T16:23:27Z</time></trkpt><trkpt lat="44.60087443381679" lon="8.951529553589388"><ele>339.0</ele><time>2026-03-28T16:23:28Z</time></trkpt><trkpt lat="44.60107983835979" lon="8.951403617050948"><ele>339.0</ele><time>2026-03-28T16:23:29Z</time></trkpt><trkpt lat="44.601294375156726" lon="8.951314141121333"><ele>336.0</ele><time>2026-03-28T16:23:30Z</time></trkpt><trkpt lat="44.60151692293513" lon="8.95124995841156"><ele>333.0</ele><time>2026-03-28T16:23:31Z</time></trkpt><trkpt lat="44.601739236326345" lon="8.95122224921124"><ele>333.0</ele><time>2026-03-28T16:23:32Z</time></trkpt><trkpt lat="44.601965393018" lon="8.951226517447562"><ele>333.0</ele><time>2026-03-28T16:23:33Z</time></trkpt><trkpt lat="44.602187845190834" lon="8.951262133994504"><ele>333.3333333333333</ele><time>2026-03-28T16:23:34Z</time></trkpt><trkpt lat="44.60240852080661" lon="8.951325851477904"><ele>333.66666666666663</ele><time>2026-03-28T16:23:35Z</time></trkpt><trkpt lat="44.60262242593138" lon="8.951417409522968"><ele>334.0</ele><time>2026-03-28T16:23:36Z</time></trkpt><trkpt lat="44.602827223471664" lon="8.951542185741207"><ele>334.3333333333333</ele><time>2026-03-28T16:23:37Z</time></trkpt><trkpt lat="44.6030239866632" lon="8.951691074363357"><ele>334.6666666666667</ele><time>2026-03-28T16:23:38Z</time></trkpt><trkpt lat="44.6032070333414" lon="8.951872970531184"><ele>335.0</ele><time>2026-03-28T16:23:39Z</time></trkpt><trkpt lat="44.60337586751108" lon="8.95207980911163"><ele>336.5</ele><time>2026-03-28T16:23:40Z</time></trkpt><trkpt lat="44.60352891398111" lon="8.952315380900208"><ele>338.0</ele><time>2026-03-28T16:23:41Z</time></trkpt><trkpt lat="44.6036660281132" lon="8.952567853561199"><ele>338.0</ele><time>2026-03-28T16:23:42Z</time></trkpt><trkpt lat="44.60378951484613" lon="8.952832855915458"><ele>338.0</ele><time>2026-03-28T16:23:43Z</time></trkpt><trkpt lat="44.60391046763746" lon="8.953109140558988"><ele>337.0</ele><time>2026-03-28T16:23:44Z</time></trkpt><trkpt lat="44.60403943907668" lon="8.953392979772667"><ele>336.0</ele><time>2026-03-28T16:23:45Z</time></trkpt><trkpt lat="44.60417132013429" lon="8.953677886616843"><ele>336.0</ele><time>2026-03-28T16:23:46Z</time></trkpt><trkpt lat="44.604300229477445" lon="8.953967106539679"><ele>336.0</ele><time>2026-03-28T16:23:47Z</time></trkpt><trkpt lat="44.60442434024827" lon="8.954259986730573"><ele>335.0</ele><time>2026-03-28T16:23:48Z</time></trkpt><trkpt lat="44.60454945199866" lon="8.954555009571356"><ele>334.0</ele><time>2026-03-28T16:23:49Z</time></trkpt><trkpt lat="44.604673631758125" lon="8.954848422609421"><ele>336.5</ele><time>2026-03-28T16:23:50Z</time></trkpt><trkpt lat="44.60479832940084" lon="8.955143765329604"><ele>339.0</ele><time>2026-03-28T16:23:50.999Z</time></trkpt><trkpt lat="44.6049258430616" lon="8.955434673076061"><ele>339.0</ele><time>2026-03-28T16:23:51.999Z</time></trkpt><trkpt lat="44.60519681241537" lon="8.955477525942785"><ele>339.0</ele><time>2026-03-28T16:23:52.999Z</time></trkpt><trkpt lat="44.60520550032106" lon="8.9559921670967"><ele>337.0</ele><time>2026-03-28T16:23:53.999Z</time></trkpt><trkpt lat="44.60537005756595" lon="8.956235236243904"><ele>335.0</ele><time>2026-03-28T16:23:54.999Z</time></trkpt><trkpt lat="44.60555764520431" lon="8.956451163340166"><ele>335.0</ele><time>2026-03-28T16:23:55.999Z</time></trkpt><trkpt lat="44.605751352152154" lon="8.956625284052881"><ele>335.0</ele><time>2026-03-28T16:23:56.999Z</time></trkpt><trkpt lat="44.60594134837799" lon="8.95676491153751"><ele>335.0</ele><time>2026-03-28T16:23:57.999Z</time></trkpt><trkpt lat="44.606137294050335" lon="8.956872706092307"><ele>334.33333333333337</ele><time>2026-03-28T16:23:58.999Z</time></trkpt><trkpt lat="44.606337768502925" lon="8.956960522836134"><ele>333.6666666666667</ele><time>2026-03-28T16:23:59.999Z</time></trkpt><trkpt lat="44.60654743206494" lon="8.95702065330658"><ele>333.0</ele><time>2026-03-28T16:24:00.999Z</time></trkpt><trkpt lat="44.60675421655178" lon="8.957059383848325"><ele>333.0</ele><time>2026-03-28T16:24:01.999Z</time></trkpt><trkpt lat="44.60695878462239" lon="8.957063593172135"><ele>333.0</ele><time>2026-03-28T16:24:02.999Z</time></trkpt><trkpt lat="44.6071572922954" lon="8.957046413826797"><ele>333.0</ele><time>2026-03-28T16:24:03.999Z</time></trkpt><trkpt lat="44.60735078550654" lon="8.957027109009237"><ele>332.0</ele><time>2026-03-28T16:24:04.999Z</time></trkpt><trkpt lat="44.60753910923736" lon="8.957012487472623"><ele>331.0</ele><time>2026-03-28T16:24:05.999Z</time></trkpt><trkpt lat="44.60772346801031" lon="8.956991783367528"><ele>330.0</ele><time>2026-03-28T16:24:06.999Z</time></trkpt><trkpt lat="44.60790604127758" lon="8.956957123487639"><ele>330.0</ele><time>2026-03-28T16:24:07.999Z</time></trkpt><trkpt lat="44.6080868836522" lon="8.956905856705134"><ele>330.0</ele><time>2026-03-28T16:24:08.999Z</time></trkpt><trkpt lat="44.608269839534906" lon="8.956869396812934"><ele>330.0</ele><time>2026-03-28T16:24:09.999Z</time></trkpt><trkpt lat="44.60845637822547" lon="8.95685038174229"><ele>330.0</ele><time>2026-03-28T16:24:10.999Z</time></trkpt><trkpt lat="44.60864263744627" lon="8.95683716883551"><ele>330.0</ele><time>2026-03-28T16:24:11.999Z</time></trkpt><trkpt lat="44.60883047821322" lon="8.95682188897303"><ele>330.0</ele><time>2026-03-28T16:24:12.999Z</time></trkpt><trkpt lat="44.6090177408683" lon="8.956805729706119"><ele>330.0</ele><time>2026-03-28T16:24:13.999Z</time></trkpt><trkpt lat="44.60920450985857" lon="8.95679251660811"><ele>330.0</ele><time>2026-03-28T16:24:14.999Z</time></trkpt><trkpt lat="44.60938727098344" lon="8.956777156472151"><ele>330.0</ele><time>2026-03-28T16:24:15.999Z</time></trkpt><trkpt lat="44.60956996654992" lon="8.956763938078195"><ele>329.3333333333333</ele><time>2026-03-28T16:24:16.999Z</time></trkpt><trkpt lat="44.60975347660387" lon="8.956745960736193"><ele>328.66666666666663</ele><time>2026-03-28T16:24:17.999Z</time></trkpt><trkpt lat="44.60993872853021" lon="8.956728888817862"><ele>328.0</ele><time>2026-03-28T16:24:18.999Z</time></trkpt><trkpt lat="44.61012648874788" lon="8.95671440092529"><ele>327.66666666666663</ele><time>2026-03-28T16:24:19.999Z</time></trkpt><trkpt lat="44.610316105873956" lon="8.956696725240713"><ele>327.3333333333333</ele><time>2026-03-28T16:24:20.999Z</time></trkpt><trkpt lat="44.610505079186765" lon="8.956679374767203"><ele>327.0</ele><time>2026-03-28T16:24:21.999Z</time></trkpt><trkpt lat="44.61069551079795" lon="8.95665679977511"><ele>327.0</ele><time>2026-03-28T16:24:22.999Z</time></trkpt><trkpt lat="44.61088463520639" lon="8.95663256068533"><ele>327.0</ele><time>2026-03-28T16:24:23.999Z</time></trkpt><trkpt lat="44.61107438600578" lon="8.956609650981838"><ele>327.0</ele><time>2026-03-28T16:24:24.999Z</time></trkpt><trkpt lat="44.61126085411518" lon="8.956574949603135"><ele>327.3333333333333</ele><time>2026-03-28T16:24:25.999Z</time></trkpt><trkpt lat="44.6114385657777" lon="8.956500456050565"><ele>327.66666666666663</ele><time>2026-03-28T16:24:26.999Z</time></trkpt><trkpt lat="44.611609095690746" lon="8.95640293512994"><ele>328.0</ele><time>2026-03-28T16:24:27.999Z</time></trkpt><trkpt lat="44.61177865917625" lon="8.956304911751168"><ele>328.0</ele><time>2026-03-28T16:24:28.999Z</time></trkpt><trkpt lat="44.6119468437133" lon="8.95619826410076"><ele>328.0</ele><time>2026-03-28T16:24:29.999Z</time></trkpt><trkpt lat="44.6121082793657" lon="8.956087074908496"><ele>328.0</ele><time>2026-03-28T16:24:30.999Z</time></trkpt><trkpt lat="44.612266218876215" lon="8.955968715310973"><ele>328.0</ele><time>2026-03-28T16:24:31.999Z</time></trkpt><trkpt lat="44.61242452224383" lon="8.955845207322447"><ele>328.0</ele><time>2026-03-28T16:24:32.999Z</time></trkpt><trkpt lat="44.61257983865408" lon="8.955713396862434"><ele>328.0</ele><time>2026-03-28T16:24:33.999Z</time></trkpt><trkpt lat="44.61273546182021" lon="8.955579545765533"><ele>327.0</ele><time>2026-03-28T16:24:34.999Z</time></trkpt><trkpt lat="44.61288808879899" lon="8.95544414865012"><ele>326.0</ele><time>2026-03-28T16:24:35.999Z</time></trkpt><trkpt lat="44.613034316310234" lon="8.955301806125183"><ele>325.0</ele><time>2026-03-28T16:24:36.999Z</time></trkpt><trkpt lat="44.61317763715677" lon="8.955153275749634"><ele>325.3333333333333</ele><time>2026-03-28T16:24:37.999Z</time></trkpt><trkpt lat="44.61332108348606" lon="8.954996261868468"><ele>325.6666666666667</ele><time>2026-03-28T16:24:38.999Z</time></trkpt><trkpt lat="44.61346386351537" lon="8.95484175963679"><ele>326.0</ele><time>2026-03-28T16:24:39.999Z</time></trkpt><trkpt lat="44.613610468809675" lon="8.954692071670928"><ele>326.6666666666667</ele><time>2026-03-28T16:24:40.999Z</time></trkpt><trkpt lat="44.613755170311755" lon="8.954536157725823"><ele>327.3333333333333</ele><time>2026-03-28T16:24:41.999Z</time></trkpt><trkpt lat="44.6138951214485" lon="8.954376637198017"><ele>328.0</ele><time>2026-03-28T16:24:42.999Z</time></trkpt><trkpt lat="44.61402750954519" lon="8.954204517617491"><ele>328.0</ele><time>2026-03-28T16:24:43.999Z</time></trkpt><trkpt lat="44.61415606552246" lon="8.954019635275639"><ele>328.0</ele><time>2026-03-28T16:24:44.999Z</time></trkpt><trkpt lat="44.614273746929065" lon="8.95382344757398"><ele>328.0</ele><time>2026-03-28T16:24:45.999Z</time></trkpt><trkpt lat="44.6143818203925" lon="8.95362004344942"><ele>331.66666666666663</ele><time>2026-03-28T16:24:46.999Z</time></trkpt><trkpt lat="44.61449199853708" lon="8.953422585459753"><ele>335.3333333333333</ele><time>2026-03-28T16:24:47.999Z</time></trkpt><trkpt lat="44.61460088194677" lon="8.95321838705781"><ele>339.0</ele><time>2026-03-28T16:24:48.999Z</time></trkpt><trkpt lat="44.61470338637207" lon="8.953009636042415"><ele>339.0</ele><time>2026-03-28T16:24:49.999Z</time></trkpt><trkpt lat="44.61479942060243" lon="8.95279485981025"><ele>339.0</ele><time>2026-03-28T16:24:50.999Z</time></trkpt><trkpt lat="44.61488390883053" lon="8.952572106269274"><ele>339.0</ele><time>2026-03-28T16:24:51.999Z</time></trkpt><trkpt lat="44.61496380888724" lon="8.952344025081203"><ele>337.6666666666667</ele><time>2026-03-28T16:24:52.999Z</time></trkpt><trkpt lat="44.61503663177166" lon="8.952110029577568"><ele>336.33333333333337</ele><time>2026-03-28T16:24:53.999Z</time></trkpt><trkpt lat="44.61510071637204" lon="8.951871633267832"><ele>335.0</ele><time>2026-03-28T16:24:54.999Z</time></trkpt><trkpt lat="44.61516299222379" lon="8.951633619114425"><ele>332.33333333333337</ele><time>2026-03-28T16:24:55.999Z</time></trkpt><trkpt lat="44.61522226332437" lon="8.951394107429802"><ele>329.6666666666667</ele><time>2026-03-28T16:24:56.999Z</time></trkpt><trkpt lat="44.615284693802984" lon="8.951152649526927"><ele>327.0</ele><time>2026-03-28T16:24:58Z</time></trkpt><trkpt lat="44.61534813402905" lon="8.950914973640193"><ele>330.3333333333333</ele><time>2026-03-28T16:24:59Z</time></trkpt><trkpt lat="44.61546808615477" lon="8.950709660643465"><ele>333.66666666666663</ele><time>2026-03-28T16:25:00Z</time></trkpt><trkpt lat="44.615549369602824" lon="8.950502196728477"><ele>337.0</ele><time>2026-03-28T16:25:01Z</time></trkpt><trkpt lat="44.615539481247765" lon="8.950204401339034"><ele>334.66666666666663</ele><time>2026-03-28T16:25:02Z</time></trkpt><trkpt lat="44.61561037021805" lon="8.949970309752645"><ele>332.3333333333333</ele><time>2026-03-28T16:25:03Z</time></trkpt><trkpt lat="44.615689467347146" lon="8.949740901671879"><ele>330.0</ele><time>2026-03-28T16:25:04Z</time></trkpt><trkpt lat="44.615773360141404" lon="8.949516752905465"><ele>343.0</ele><time>2026-03-28T16:25:05Z</time></trkpt><trkpt lat="44.61616625546014" lon="8.949474855229282"><ele>356.0</ele><time>2026-03-28T16:25:06Z</time></trkpt><trkpt lat="44.61622643962374" lon="8.949275614672036"><ele>351.25</ele><time>2026-03-28T16:25:07Z</time></trkpt><trkpt lat="44.616286220144836" lon="8.949128840697037"><ele>346.5</ele><time>2026-03-28T16:25:08Z</time></trkpt><trkpt lat="44.61637102089638" lon="8.949018213771641"><ele>341.75</ele><time>2026-03-28T16:25:09Z</time></trkpt><trkpt lat="44.61652757921933" lon="8.948851756070137"><ele>337.0</ele><time>2026-03-28T16:25:10Z</time></trkpt><trkpt lat="44.616683182294565" lon="8.948648664281766"><ele>337.0</ele><time>2026-03-28T16:25:11Z</time></trkpt><trkpt lat="44.61679054615768" lon="8.948392290981669"><ele>337.0</ele><time>2026-03-28T16:25:12Z</time></trkpt><trkpt lat="44.616857932537414" lon="8.948265207945889"><ele>337.0</ele><time>2026-03-28T16:25:13Z</time></trkpt><trkpt lat="44.61701124116217" lon="8.948143707117689"><ele>337.3333333333333</ele><time>2026-03-28T16:25:14Z</time></trkpt><trkpt lat="44.61717375584457" lon="8.948025870247063"><ele>337.6666666666667</ele><time>2026-03-28T16:25:15Z</time></trkpt><trkpt lat="44.617335986328825" lon="8.947908239444523"><ele>338.0</ele><time>2026-03-28T16:25:16Z</time></trkpt><trkpt lat="44.61749695665487" lon="8.947790956596453"><ele>338.0</ele><time>2026-03-28T16:25:17Z</time></trkpt><trkpt lat="44.617657277122845" lon="8.94767197290764"><ele>338.0</ele><time>2026-03-28T16:25:18Z</time></trkpt><trkpt lat="44.617818023176305" lon="8.947555308494424"><ele>338.0</ele><time>2026-03-28T16:25:19Z</time></trkpt><trkpt lat="44.61797938232983" lon="8.947440667153463"><ele>337.0</ele><time>2026-03-28T16:25:20Z</time></trkpt><trkpt lat="44.61814096340659" lon="8.947322600798408"><ele>336.0</ele><time>2026-03-28T16:25:21Z</time></trkpt><trkpt lat="44.61830148662095" lon="8.947205251484124"><ele>335.0</ele><time>2026-03-28T16:25:22Z</time></trkpt><trkpt lat="44.61846066167267" lon="8.947090449489604"><ele>335.0</ele><time>2026-03-28T16:25:23Z</time></trkpt><trkpt lat="44.618608926656194" lon="8.94702116041489"><ele>335.0</ele><time>2026-03-28T16:25:24Z</time></trkpt><trkpt lat="44.61876206434501" lon="8.947038898842"><ele>335.0</ele><time>2026-03-28T16:25:25Z</time></trkpt><trkpt lat="44.618928327825756" lon="8.94706492382339"><ele>336.6666666666667</ele><time>2026-03-28T16:25:26Z</time></trkpt><trkpt lat="44.61912500371523" lon="8.9470805066415"><ele>338.3333333333333</ele><time>2026-03-28T16:25:27Z</time></trkpt><trkpt lat="44.61922876128177" lon="8.94714721348284"><ele>340.0</ele><time>2026-03-28T16:25:28Z</time></trkpt><trkpt lat="44.61936582346697" lon="8.947282233139315"><ele>337.66666666666663</ele><time>2026-03-28T16:25:29Z</time></trkpt><trkpt lat="44.61948401098648" lon="8.947437722633076"><ele>335.3333333333333</ele><time>2026-03-28T16:25:30Z</time></trkpt><trkpt lat="44.619567881090404" lon="8.947630540642809"><ele>333.0</ele><time>2026-03-28T16:25:31Z</time></trkpt><trkpt lat="44.61964767606297" lon="8.947841857950142"><ele>333.0</ele><time>2026-03-28T16:25:32Z</time></trkpt><trkpt lat="44.61972057677123" lon="8.948037281308276"><ele>333.0</ele><time>2026-03-28T16:25:33Z</time></trkpt><trkpt lat="44.619789006467265" lon="8.948230586642666"><ele>333.0</ele><time>2026-03-28T16:25:34Z</time></trkpt><trkpt lat="44.61985971687711" lon="8.948429720024656"><ele>339.25</ele><time>2026-03-28T16:25:35Z</time></trkpt><trkpt lat="44.619932541543" lon="8.948628236995626"><ele>345.5</ele><time>2026-03-28T16:25:36Z</time></trkpt><trkpt lat="44.619999140771334" lon="8.948806167061994"><ele>351.75</ele><time>2026-03-28T16:25:37Z</time></trkpt><trkpt lat="44.620068481477254" lon="8.94897906062957"><ele>358.0</ele><time>2026-03-28T16:25:38Z</time></trkpt><trkpt lat="44.62015347907829" lon="8.949148462593396"><ele>364.25</ele><time>2026-03-28T16:25:39Z</time></trkpt><trkpt lat="44.62025023412804" lon="8.949311267455991"><ele>370.5</ele><time>2026-03-28T16:25:40Z</time></trkpt><trkpt lat="44.620343978548775" lon="8.949460269485236"><ele>376.75</ele><time>2026-03-28T16:25:41Z</time></trkpt><trkpt lat="44.620444562032795" lon="8.949608760762699"><ele>383.0</ele><time>2026-03-28T16:25:42Z</time></trkpt><trkpt lat="44.620538122711906" lon="8.949742179452597"><ele>377.25</ele><time>2026-03-28T16:25:43Z</time></trkpt><trkpt lat="44.62062936771648" lon="8.949872295994822"><ele>371.5</ele><time>2026-03-28T16:25:44Z</time></trkpt><trkpt lat="44.62072261909612" lon="8.950007424475343"><ele>365.75</ele><time>2026-03-28T16:25:45Z</time></trkpt><trkpt lat="44.62080105703474" lon="8.950140398318807"><ele>360.0</ele><time>2026-03-28T16:25:46Z</time></trkpt><trkpt lat="44.620875289909726" lon="8.950287568814975"><ele>360.0</ele><time>2026-03-28T16:25:47Z</time></trkpt><trkpt lat="44.620952372589166" lon="8.950441175423482"><ele>360.0</ele><time>2026-03-28T16:25:48Z</time></trkpt><trkpt lat="44.621030515125575" lon="8.950594102536547"><ele>360.0</ele><time>2026-03-28T16:25:48.999Z</time></trkpt><trkpt lat="44.62110866504581" lon="8.950749072312606"><ele>360.0</ele><time>2026-03-28T16:25:49.999Z</time></trkpt><trkpt lat="44.6211878131369" lon="8.950906040350473"><ele>357.6666666666667</ele><time>2026-03-28T16:25:50.999Z</time></trkpt><trkpt lat="44.621267165156276" lon="8.951063412718339"><ele>355.33333333333337</ele><time>2026-03-28T16:25:51.999Z</time></trkpt><trkpt lat="44.621363140009834" lon="8.951280673112242"><ele>353.0</ele><time>2026-03-28T16:25:52.999Z</time></trkpt><trkpt lat="44.62148227942049" lon="8.951442202880715"><ele>353.0</ele><time>2026-03-28T16:25:53.999Z</time></trkpt><trkpt lat="44.62153666751792" lon="8.951541041869616"><ele>353.0</ele><time>2026-03-28T16:25:54.999Z</time></trkpt><trkpt lat="44.621638764095216" lon="8.95172824951763"><ele>353.0</ele><time>2026-03-28T16:25:55.999Z</time></trkpt><trkpt lat="44.621775621045074" lon="8.951911564253816"><ele>353.0</ele><time>2026-03-28T16:25:56.999Z</time></trkpt><trkpt lat="44.621974792138296" lon="8.95205979955"><ele>356.25</ele><time>2026-03-28T16:25:57.999Z</time></trkpt><trkpt lat="44.622078613616075" lon="8.952131268390113"><ele>359.5</ele><time>2026-03-28T16:25:58.999Z</time></trkpt><trkpt lat="44.622192910313856" lon="8.952225133570819"><ele>362.75</ele><time>2026-03-28T16:25:59.999Z</time></trkpt><trkpt lat="44.62230318824982" lon="8.952317468134487"><ele>366.0</ele><time>2026-03-28T16:26:00.999Z</time></trkpt><trkpt lat="44.62237324503022" lon="8.95236998404334"><ele>366.0</ele><time>2026-03-28T16:26:01.999Z</time></trkpt><trkpt lat="44.622432250079896" lon="8.952410055083577"><ele>366.0</ele><time>2026-03-28T16:26:02.999Z</time></trkpt><trkpt lat="44.622514132954734" lon="8.952463841771399"><ele>366.0</ele><time>2026-03-28T16:26:03.999Z</time></trkpt><trkpt lat="44.62308300144237" lon="8.951683938856991"><ele>358.0</ele><time>2026-03-28T16:26:04.999Z</time></trkpt><trkpt lat="44.62321650810882" lon="8.951613387029695"><ele>350.0</ele><time>2026-03-28T16:26:05.999Z</time></trkpt><trkpt lat="44.623334517071264" lon="8.951545158068017"><ele>342.0</ele><time>2026-03-28T16:26:06.999Z</time></trkpt><trkpt lat="44.62344912597649" lon="8.951470455120505"><ele>334.0</ele><time>2026-03-28T16:26:07.999Z</time></trkpt><trkpt lat="44.62356468453272" lon="8.951386929406185"><ele>340.5</ele><time>2026-03-28T16:26:08.999Z</time></trkpt><trkpt lat="44.62368441879164" lon="8.951289939296474"><ele>347.0</ele><time>2026-03-28T16:26:09.999Z</time></trkpt><trkpt lat="44.62380288020099" lon="8.951180817776432"><ele>353.5</ele><time>2026-03-28T16:26:10.999Z</time></trkpt><trkpt lat="44.6239248588157" lon="8.951060800516132"><ele>360.0</ele><time>2026-03-28T16:26:11.999Z</time></trkpt><trkpt lat="44.62405280551219" lon="8.950923492096434"><ele>362.0</ele><time>2026-03-28T16:26:12.999Z</time></trkpt><trkpt lat="44.624193384070665" lon="8.950775714960423"><ele>364.0</ele><time>2026-03-28T16:26:13.999Z</time></trkpt><trkpt lat="44.624343091020805" lon="8.950626530729053"><ele>366.0</ele><time>2026-03-28T16:26:14.999Z</time></trkpt><trkpt lat="44.624498640498516" lon="8.950467243317087"><ele>366.0</ele><time>2026-03-28T16:26:15.999Z</time></trkpt><trkpt lat="44.62466117819954" lon="8.950304884593747"><ele>366.0</ele><time>2026-03-28T16:26:16.999Z</time></trkpt><trkpt lat="44.62482411629945" lon="8.950132600066594"><ele>366.0</ele><time>2026-03-28T16:26:17.999Z</time></trkpt><trkpt lat="44.62497888282199" lon="8.949938396911373"><ele>351.5</ele><time>2026-03-28T16:26:18.999Z</time></trkpt><trkpt lat="44.6251327311527" lon="8.949711295408601"><ele>337.0</ele><time>2026-03-28T16:26:19.999Z</time></trkpt><trkpt lat="44.62529050379029" lon="8.94945907179701"><ele>345.5</ele><time>2026-03-28T16:26:20.999Z</time></trkpt><trkpt lat="44.62545507213202" lon="8.949196272217423"><ele>354.0</ele><time>2026-03-28T16:26:21.999Z</time></trkpt><trkpt lat="44.62562467101572" lon="8.94892328868019"><ele>354.0</ele><time>2026-03-28T16:26:22.999Z</time></trkpt><trkpt lat="44.625795697691224" lon="8.94864344746133"><ele>354.0</ele><time>2026-03-28T16:26:23.999Z</time></trkpt><trkpt lat="44.625971523600626" lon="8.948368847688332"><ele>363.5</ele><time>2026-03-28T16:26:24.999Z</time></trkpt><trkpt lat="44.62614822180378" lon="8.948093682925355"><ele>373.0</ele><time>2026-03-28T16:26:25.999Z</time></trkpt><trkpt lat="44.62632339676908" lon="8.947817179034175"><ele>355.0</ele><time>2026-03-28T16:26:26.999Z</time></trkpt><trkpt lat="44.62649136154987" lon="8.94752926448175"><ele>337.0</ele><time>2026-03-28T16:26:27.999Z</time></trkpt><trkpt lat="44.6266562248295" lon="8.947238515234153"><ele>337.0</ele><time>2026-03-28T16:26:28.999Z</time></trkpt><trkpt lat="44.626820250796044" lon="8.946943041958155"><ele>337.0</ele><time>2026-03-28T16:26:29.999Z</time></trkpt><trkpt lat="44.62698584709373" lon="8.946648713578355"><ele>354.0</ele><time>2026-03-28T16:26:30.999Z</time></trkpt><trkpt lat="44.62714910915915" lon="8.94635316077601"><ele>371.0</ele><time>2026-03-28T16:26:31.999Z</time></trkpt><trkpt lat="44.62730516828307" lon="8.94605162801469"><ele>353.5</ele><time>2026-03-28T16:26:32.999Z</time></trkpt><trkpt lat="44.62743746543006" lon="8.94573924824284"><ele>336.0</ele><time>2026-03-28T16:26:33.999Z</time></trkpt><trkpt lat="44.627549019821004" lon="8.94541606785366"><ele>336.0</ele><time>2026-03-28T16:26:34.999Z</time></trkpt><trkpt lat="44.62765257031856" lon="8.945090548362515"><ele>336.0</ele><time>2026-03-28T16:26:35.999Z</time></trkpt><trkpt lat="44.62776265315435" lon="8.944774284465577"><ele>338.0</ele><time>2026-03-28T16:26:36.999Z</time></trkpt><trkpt lat="44.62788370897403" lon="8.94446331605362"><ele>340.0</ele><time>2026-03-28T16:26:37.999Z</time></trkpt><trkpt lat="44.62801762970937" lon="8.944162092852007"><ele>340.0</ele><time>2026-03-28T16:26:38.999Z</time></trkpt><trkpt lat="44.628169928846965" lon="8.94388375568342"><ele>340.0</ele><time>2026-03-28T16:26:39.999Z</time></trkpt><trkpt lat="44.62835705148157" lon="8.943644267744784"><ele>340.0</ele><time>2026-03-28T16:26:40.999Z</time></trkpt><trkpt lat="44.62855213410264" lon="8.94343743244798"><ele>340.0</ele><time>2026-03-28T16:26:41.999Z</time></trkpt><trkpt lat="44.62876256603694" lon="8.943272677054372"><ele>336.5</ele><time>2026-03-28T16:26:42.999Z</time></trkpt><trkpt lat="44.62898492642175" lon="8.943140148613626"><ele>333.0</ele><time>2026-03-28T16:26:43.999Z</time></trkpt><trkpt lat="44.62921776882318" lon="8.943028983419644"><ele>333.0</ele><time>2026-03-28T16:26:44.999Z</time></trkpt><trkpt lat="44.62945554289411" lon="8.942942322141436"><ele>333.0</ele><time>2026-03-28T16:26:45.999Z</time></trkpt><trkpt lat="44.62970021577482" lon="8.942894393249345"><ele>336.5</ele><time>2026-03-28T16:26:46.999Z</time></trkpt><trkpt lat="44.629950144922674" lon="8.94287689315486"><ele>340.0</ele><time>2026-03-28T16:26:47.999Z</time></trkpt><trkpt lat="44.63019906100815" lon="8.942884122395007"><ele>334.5</ele><time>2026-03-28T16:26:48.999Z</time></trkpt><trkpt lat="44.630450605599975" lon="8.94291564238849"><ele>329.0</ele><time>2026-03-28T16:26:49.999Z</time></trkpt><trkpt lat="44.630698081944054" lon="8.942964989135307"><ele>329.0</ele><time>2026-03-28T16:26:50.999Z</time></trkpt><trkpt lat="44.63093941300984" lon="8.943018558509317"><ele>329.0</ele><time>2026-03-28T16:26:51.999Z</time></trkpt><trkpt lat="44.63117469887972" lon="8.943090151200035"><ele>320.0</ele><time>2026-03-28T16:26:52.999Z</time></trkpt><trkpt lat="44.63140253149282" lon="8.943201908212902"><ele>311.0</ele><time>2026-03-28T16:26:53.999Z</time></trkpt><trkpt lat="44.63161477302645" lon="8.943357996411764"><ele>309.5</ele><time>2026-03-28T16:26:54.999Z</time></trkpt><trkpt lat="44.63181203597541" lon="8.943545082451083"><ele>308.0</ele><time>2026-03-28T16:26:55.999Z</time></trkpt><trkpt lat="44.63199884968337" lon="8.943762615918773"><ele>308.0</ele><time>2026-03-28T16:26:56.999Z</time></trkpt><trkpt lat="44.63217625443597" lon="8.943994369129793"><ele>308.0</ele><time>2026-03-28T16:26:57.999Z</time></trkpt><trkpt lat="44.63234030638639" lon="8.944250548852041"><ele>317.5</ele><time>2026-03-28T16:26:58.999Z</time></trkpt><trkpt lat="44.632501608650685" lon="8.944509778602066"><ele>327.0</ele><time>2026-03-28T16:26:59.999Z</time></trkpt><trkpt lat="44.632662009446484" lon="8.944769275809055"><ele>322.5</ele><time>2026-03-28T16:27:00.999Z</time></trkpt><trkpt lat="44.63282515334862" lon="8.945022025591417"><ele>318.0</ele><time>2026-03-28T16:27:01.999Z</time></trkpt><trkpt lat="44.63299145712685" lon="8.945273823282376"><ele>318.0</ele><time>2026-03-28T16:27:02.999Z</time></trkpt><trkpt lat="44.63315595045151" lon="8.945527802441097"><ele>318.0</ele><time>2026-03-28T16:27:04Z</time></trkpt><trkpt lat="44.63331663265025" lon="8.945784321414248"><ele>328.0</ele><time>2026-03-28T16:27:05Z</time></trkpt><trkpt lat="44.633473290425094" lon="8.946046505951648"><ele>338.0</ele><time>2026-03-28T16:27:06Z</time></trkpt><trkpt lat="44.63362432811011" lon="8.9463119646669"><ele>321.0</ele><time>2026-03-28T16:27:07Z</time></trkpt><trkpt lat="44.633764500757096" lon="8.946593704867158"><ele>304.0</ele><time>2026-03-28T16:27:08Z</time></trkpt><trkpt lat="44.63388136194154" lon="8.946890422892295"><ele>304.0</ele><time>2026-03-28T16:27:09Z</time></trkpt><trkpt lat="44.633977828069554" lon="8.94720135911614"><ele>304.0</ele><time>2026-03-28T16:27:10Z</time></trkpt><trkpt lat="44.63405026922725" lon="8.947523606405236"><ele>306.0</ele><time>2026-03-28T16:27:11Z</time></trkpt><trkpt lat="44.6340946600427" lon="8.947854930900995"><ele>308.0</ele><time>2026-03-28T16:27:12Z</time></trkpt><trkpt lat="44.63412423744118" lon="8.948189193196104"><ele>310.0</ele><time>2026-03-28T16:27:13Z</time></trkpt><trkpt lat="44.634149728514345" lon="8.948527381723297"><ele>312.0</ele><time>2026-03-28T16:27:14Z</time></trkpt><trkpt lat="44.634182404207046" lon="8.948869951130712"><ele>312.0</ele><time>2026-03-28T16:27:15Z</time></trkpt><trkpt lat="44.63421768781943" lon="8.949205722979059"><ele>312.0</ele><time>2026-03-28T16:27:16Z</time></trkpt><trkpt lat="44.63426531159963" lon="8.949541604203223"><ele>318.0</ele><time>2026-03-28T16:27:17Z</time></trkpt><trkpt lat="44.634343572308524" lon="8.94985802402739"><ele>324.0</ele><time>2026-03-28T16:27:18Z</time></trkpt><trkpt lat="44.63438048697074" lon="8.950169151963168"><ele>312.0</ele><time>2026-03-28T16:27:19Z</time></trkpt><trkpt lat="44.634603744344794" lon="8.95041505419482"><ele>300.0</ele><time>2026-03-28T16:27:20Z</time></trkpt><trkpt lat="44.63478709688348" lon="8.950621498564189"><ele>300.0</ele><time>2026-03-28T16:27:21Z</time></trkpt><trkpt lat="44.63498225706576" lon="8.950814810423394"><ele>300.0</ele><time>2026-03-28T16:27:22Z</time></trkpt><trkpt lat="44.63516987358502" lon="8.951028031522476"><ele>301.0</ele><time>2026-03-28T16:27:23Z</time></trkpt><trkpt lat="44.63536044787993" lon="8.951238767481623"><ele>302.0</ele><time>2026-03-28T16:27:24Z</time></trkpt><trkpt lat="44.63555134246755" lon="8.951449349799077"><ele>302.0</ele><time>2026-03-28T16:27:25Z</time></trkpt><trkpt lat="44.63574282895285" lon="8.951661527858862"><ele>302.0</ele><time>2026-03-28T16:27:26Z</time></trkpt><trkpt lat="44.635937265819635" lon="8.951875618294672"><ele>306.5</ele><time>2026-03-28T16:27:27Z</time></trkpt><trkpt lat="44.63613294640039" lon="8.952082262885002"><ele>311.0</ele><time>2026-03-28T16:27:28Z</time></trkpt><trkpt lat="44.6363363721792" lon="8.952274489611368"><ele>311.0</ele><time>2026-03-28T16:27:29Z</time></trkpt><trkpt lat="44.63654906812609" lon="8.952441639403625"><ele>311.0</ele><time>2026-03-28T16:27:30Z</time></trkpt><trkpt lat="44.63676596608823" lon="8.952588775723942"><ele>314.5</ele><time>2026-03-28T16:27:31Z</time></trkpt><trkpt lat="44.63699152290544" lon="8.952723100359693"><ele>318.0</ele><time>2026-03-28T16:27:32Z</time></trkpt><trkpt lat="44.63721804053814" lon="8.952861610123165"><ele>318.0</ele><time>2026-03-28T16:27:33Z</time></trkpt><trkpt lat="44.637442887256306" lon="8.952993964448739"><ele>318.0</ele><time>2026-03-28T16:27:34Z</time></trkpt><trkpt lat="44.637666206060786" lon="8.953126333561954"><ele>320.0</ele><time>2026-03-28T16:27:35Z</time></trkpt><trkpt lat="44.63789352612932" lon="8.953259995851868"><ele>322.0</ele><time>2026-03-28T16:27:36Z</time></trkpt><trkpt lat="44.63811979190019" lon="8.953391542737103"><ele>322.0</ele><time>2026-03-28T16:27:37Z</time></trkpt><trkpt lat="44.63834332912035" lon="8.953525824171079"><ele>322.0</ele><time>2026-03-28T16:27:38Z</time></trkpt><trkpt lat="44.63856909126192" lon="8.953660153579593"><ele>313.0</ele><time>2026-03-28T16:27:39Z</time></trkpt><trkpt lat="44.638794216444325" lon="8.953788946701101"><ele>304.0</ele><time>2026-03-28T16:27:40Z</time></trkpt><trkpt lat="44.639019651138206" lon="8.953919995242083"><ele>304.0</ele><time>2026-03-28T16:27:41Z</time></trkpt><trkpt lat="44.6392392041451" lon="8.95405780176985"><ele>304.0</ele><time>2026-03-28T16:27:42Z</time></trkpt><trkpt lat="44.63945343673627" lon="8.954221694864417"><ele>305.5</ele><time>2026-03-28T16:27:43Z</time></trkpt><trkpt lat="44.639650660401436" lon="8.954413615942942"><ele>307.0</ele><time>2026-03-28T16:27:44Z</time></trkpt><trkpt lat="44.639828870066545" lon="8.95463470790226"><ele>307.0</ele><time>2026-03-28T16:27:45Z</time></trkpt><trkpt lat="44.63999197015727" lon="8.954882480694534"><ele>307.0</ele><time>2026-03-28T16:27:46Z</time></trkpt><trkpt lat="44.64014547449717" lon="8.955141052453504"><ele>305.0</ele><time>2026-03-28T16:27:47Z</time></trkpt><trkpt lat="44.640294520809974" lon="8.95540704730176"><ele>303.0</ele><time>2026-03-28T16:27:48Z</time></trkpt><trkpt lat="44.640445433545594" lon="8.955672452580457"><ele>306.5</ele><time>2026-03-28T16:27:49Z</time></trkpt><trkpt lat="44.64060032412033" lon="8.95593275097865"><ele>310.0</ele><time>2026-03-28T16:27:50Z</time></trkpt><trkpt lat="44.64075716802607" lon="8.956199854937308"><ele>310.0</ele><time>2026-03-28T16:27:51Z</time></trkpt><trkpt lat="44.6409149353756" lon="8.956463151288258"><ele>310.0</ele><time>2026-03-28T16:27:52Z</time></trkpt><trkpt lat="44.641073619044285" lon="8.956726362678797"><ele>314.5</ele><time>2026-03-28T16:27:53Z</time></trkpt><trkpt lat="44.64123490219246" lon="8.956984498462376"><ele>319.0</ele><time>2026-03-28T16:27:54Z</time></trkpt><trkpt lat="44.64141253816777" lon="8.957219861614135"><ele>319.0</ele><time>2026-03-28T16:27:55Z</time></trkpt><trkpt lat="44.64160689463579" lon="8.957425635016001"><ele>319.0</ele><time>2026-03-28T16:27:55.999Z</time></trkpt><trkpt lat="44.64181635178346" lon="8.957599902030127"><ele>324.0</ele><time>2026-03-28T16:27:56.999Z</time></trkpt><trkpt lat="44.642037498802296" lon="8.957741476409247"><ele>329.0</ele><time>2026-03-28T16:27:57.999Z</time></trkpt><trkpt lat="44.642262877857036" lon="8.957867906715158"><ele>329.0</ele><time>2026-03-28T16:27:58.999Z</time></trkpt><trkpt lat="44.642492545300634" lon="8.957987648505721"><ele>329.0</ele><time>2026-03-28T16:27:59.999Z</time></trkpt><trkpt lat="44.642719384170626" lon="8.958122695433653"><ele>327.0</ele><time>2026-03-28T16:28:00.999Z</time></trkpt><trkpt lat="44.64294134223072" lon="8.958265448251687"><ele>325.0</ele><time>2026-03-28T16:28:01.999Z</time></trkpt><trkpt lat="44.643162643999055" lon="8.958409097720903"><ele>325.0</ele><time>2026-03-28T16:28:02.999Z</time></trkpt><trkpt lat="44.64338811154989" lon="8.958547430358573"><ele>325.0</ele><time>2026-03-28T16:28:03.999Z</time></trkpt><trkpt lat="44.64361543905631" lon="8.958671986823084"><ele>310.0</ele><time>2026-03-28T16:28:04.999Z</time></trkpt><trkpt lat="44.64384454792528" lon="8.958788667904301"><ele>295.0</ele><time>2026-03-28T16:28:05.999Z</time></trkpt><trkpt lat="44.64407642754043" lon="8.958896706790753"><ele>295.0</ele><time>2026-03-28T16:28:06.999Z</time></trkpt><trkpt lat="44.644311257022956" lon="8.958992914701321"><ele>295.0</ele><time>2026-03-28T16:28:07.999Z</time></trkpt><trkpt lat="44.64454854089757" lon="8.959080113435169"><ele>293.0</ele><time>2026-03-28T16:28:08.999Z</time></trkpt><trkpt lat="44.644785296874836" lon="8.959161093717237"><ele>291.0</ele><time>2026-03-28T16:28:09.999Z</time></trkpt><trkpt lat="44.645022423625946" lon="8.959236406802825"><ele>295.0</ele><time>2026-03-28T16:28:10.999Z</time></trkpt><trkpt lat="44.64526066425482" lon="8.959312150590684"><ele>299.0</ele><time>2026-03-28T16:28:11.999Z</time></trkpt><trkpt lat="44.645497541996036" lon="8.959391575000293"><ele>301.0</ele><time>2026-03-28T16:28:12.999Z</time></trkpt><trkpt lat="44.645735509108334" lon="8.959455569751544"><ele>303.0</ele><time>2026-03-28T16:28:13.999Z</time></trkpt><trkpt lat="44.64597831027581" lon="8.95949561719041"><ele>306.0</ele><time>2026-03-28T16:28:14.999Z</time></trkpt><trkpt lat="44.6462185289488" lon="8.959493071055224"><ele>309.0</ele><time>2026-03-28T16:28:15.999Z</time></trkpt><trkpt lat="44.646458218265124" lon="8.959464535143775"><ele>309.0</ele><time>2026-03-28T16:28:16.999Z</time></trkpt><trkpt lat="44.646699438171304" lon="8.959428339604669"><ele>309.0</ele><time>2026-03-28T16:28:17.999Z</time></trkpt><trkpt lat="44.64694176239503" lon="8.959393440902561"><ele>311.0</ele><time>2026-03-28T16:28:18.999Z</time></trkpt><trkpt lat="44.6471849539456" lon="8.959360674769469"><ele>313.0</ele><time>2026-03-28T16:28:19.999Z</time></trkpt><trkpt lat="44.64742767506239" lon="8.959330605963371"><ele>313.0</ele><time>2026-03-28T16:28:20.999Z</time></trkpt><trkpt lat="44.647669447837885" lon="8.959298005173332"><ele>313.0</ele><time>2026-03-28T16:28:21.999Z</time></trkpt><trkpt lat="44.64791287734429" lon="8.959266436168543"><ele>308.0</ele><time>2026-03-28T16:28:22.999Z</time></trkpt><trkpt lat="44.648155832607834" lon="8.959233507291504"><ele>303.0</ele><time>2026-03-28T16:28:23.999Z</time></trkpt><trkpt lat="44.64839825950386" lon="8.959199943691319"><ele>307.0</ele><time>2026-03-28T16:28:24.999Z</time></trkpt><trkpt lat="44.648641372173074" lon="8.95916921431682"><ele>311.0</ele><time>2026-03-28T16:28:25.999Z</time></trkpt><trkpt lat="44.6488832945221" lon="8.959137053633338"><ele>311.0</ele><time>2026-03-28T16:28:26.999Z</time></trkpt><trkpt lat="44.64912216737456" lon="8.959103351654386"><ele>311.0</ele><time>2026-03-28T16:28:27.999Z</time></trkpt><trkpt lat="44.64936274089743" lon="8.959070218446712"><ele>312.5</ele><time>2026-03-28T16:28:28.999Z</time></trkpt><trkpt lat="44.64960265216437" lon="8.959024190125525"><ele>314.0</ele><time>2026-03-28T16:28:29.999Z</time></trkpt><trkpt lat="44.649839020279856" lon="8.958942537210262"><ele>314.0</ele><time>2026-03-28T16:28:30.999Z</time></trkpt><trkpt lat="44.65006389711579" lon="8.958823355278087"><ele>314.0</ele><time>2026-03-28T16:28:31.999Z</time></trkpt><trkpt lat="44.65027700403555" lon="8.95866864338205"><ele>312.0</ele><time>2026-03-28T16:28:32.999Z</time></trkpt><trkpt lat="44.650478278847075" lon="8.958486557476853"><ele>310.0</ele><time>2026-03-28T16:28:33.999Z</time></trkpt><trkpt lat="44.65066638048897" lon="8.958277003641886"><ele>307.5</ele><time>2026-03-28T16:28:34.999Z</time></trkpt><trkpt lat="44.65082981331193" lon="8.958037457872232"><ele>305.0</ele><time>2026-03-28T16:28:35.999Z</time></trkpt><trkpt lat="44.650972273105445" lon="8.957770668605514"><ele>301.0</ele><time>2026-03-28T16:28:36.999Z</time></trkpt><trkpt lat="44.651100732601044" lon="8.957487649713798"><ele>297.0</ele><time>2026-03-28T16:28:37.999Z</time></trkpt><trkpt lat="44.651226410479914" lon="8.957198960293953"><ele>305.0</ele><time>2026-03-28T16:28:38.999Z</time></trkpt><trkpt lat="44.65135915901255" lon="8.956912764955366"><ele>313.0</ele><time>2026-03-28T16:28:39.999Z</time></trkpt><trkpt lat="44.651496822283875" lon="8.95663252424943"><ele>313.0</ele><time>2026-03-28T16:28:40.999Z</time></trkpt><trkpt lat="44.65164722108166" lon="8.956360124155403"><ele>313.0</ele><time>2026-03-28T16:28:41.999Z</time></trkpt><trkpt lat="44.65182081504859" lon="8.95611808392553"><ele>329.5</ele><time>2026-03-28T16:28:42.999Z</time></trkpt><trkpt lat="44.65201174514269" lon="8.9559037211986"><ele>346.0</ele><time>2026-03-28T16:28:43.999Z</time></trkpt><trkpt lat="44.65221641698838" lon="8.955712015026217"><ele>346.0</ele><time>2026-03-28T16:28:44.999Z</time></trkpt><trkpt lat="44.65242928016612" lon="8.955533488758865"><ele>346.0</ele><time>2026-03-28T16:28:45.999Z</time></trkpt><trkpt lat="44.652651874154685" lon="8.955351363671031"><ele>367.0</ele><time>2026-03-28T16:28:47.019Z</time></trkpt><trkpt lat="44.65286622079139" lon="8.955166536148957"><ele>388.0</ele><time>2026-03-28T16:28:48.024Z</time></trkpt><trkpt lat="44.65307301861987" lon="8.954980759936594"><ele>388.0</ele><time>2026-03-28T16:28:49.016Z</time></trkpt><trkpt lat="44.65328913730421" lon="8.954797561171082"><ele>388.0</ele><time>2026-03-28T16:28:50.015Z</time></trkpt><trkpt lat="44.65350278562272" lon="8.954613624790944"><ele>385.5</ele><time>2026-03-28T16:28:51.015Z</time></trkpt><trkpt lat="44.6537179150267" lon="8.954431952368402"><ele>383.0</ele><time>2026-03-28T16:28:52.018Z</time></trkpt><trkpt lat="44.65604419605078" lon="8.952162215051578"><ele>357.0</ele><time>2026-03-28T16:28:56.198Z</time></trkpt><trkpt lat="44.65671523440242" lon="8.95153527832028"><ele>321.0</ele><time>2026-03-28T16:28:57.193Z</time></trkpt><trkpt lat="44.65738866833863" lon="8.950906145423184"><ele>300.0</ele><time>2026-03-28T16:28:58.193Z</time></trkpt><trkpt lat="44.65853496924476" lon="8.950196541854133"><ele>297.0</ele><time>2026-03-28T16:29:14.999Z</time></trkpt><trkpt lat="44.65874077792339" lon="8.950173624120074"><ele>294.0</ele><time>2026-03-28T16:29:15.998Z</time></trkpt><trkpt lat="44.65897837094932" lon="8.950145252284814"><ele>291.0</ele><time>2026-03-28T16:29:16.998Z</time></trkpt><trkpt lat="44.65921899451379" lon="8.950160164142497"><ele>292.5</ele><time>2026-03-28T16:29:17.998Z</time></trkpt><trkpt lat="44.65945802401024" lon="8.950216263807675"><ele>294.0</ele><time>2026-03-28T16:29:18.998Z</time></trkpt><trkpt lat="44.659690268765864" lon="8.950307352209471"><ele>294.0</ele><time>2026-03-28T16:29:19.998Z</time></trkpt><trkpt lat="44.65991187463331" lon="8.9504401365335"><ele>294.0</ele><time>2026-03-28T16:29:21Z</time></trkpt><trkpt lat="44.66013206742054" lon="8.950601976297676"><ele>296.0</ele><time>2026-03-28T16:29:22Z</time></trkpt><trkpt lat="44.660355135324636" lon="8.950757882508567"><ele>298.0</ele><time>2026-03-28T16:29:23Z</time></trkpt><trkpt lat="44.66058199841419" lon="8.950901684998156"><ele>298.0</ele><time>2026-03-28T16:29:24Z</time></trkpt><trkpt lat="44.66081190078259" lon="8.951015672422825"><ele>298.0</ele><time>2026-03-28T16:29:25Z</time></trkpt><trkpt lat="44.66104361283624" lon="8.951097654604977"><ele>296.0</ele><time>2026-03-28T16:29:26Z</time></trkpt><trkpt lat="44.66127630259717" lon="8.951136597250617"><ele>294.0</ele><time>2026-03-28T16:29:27Z</time></trkpt><trkpt lat="44.66150927834087" lon="8.95113721491318"><ele>294.0</ele><time>2026-03-28T16:29:28Z</time></trkpt><trkpt lat="44.66173593699406" lon="8.951112403825682"><ele>294.0</ele><time>2026-03-28T16:29:29Z</time></trkpt><trkpt lat="44.6619638522069" lon="8.95106853172974"><ele>299.0</ele><time>2026-03-28T16:29:30Z</time></trkpt><trkpt lat="44.66218884915919" lon="8.950994932326227"><ele>304.0</ele><time>2026-03-28T16:29:31Z</time></trkpt><trkpt lat="44.662404724844436" lon="8.950883628353036"><ele>298.0</ele><time>2026-03-28T16:29:32Z</time></trkpt><trkpt lat="44.66261566176821" lon="8.950746019800283"><ele>292.0</ele><time>2026-03-28T16:29:33Z</time></trkpt><trkpt lat="44.66281613801332" lon="8.950584728467133"><ele>292.0</ele><time>2026-03-28T16:29:34Z</time></trkpt><trkpt lat="44.663005289047454" lon="8.95039541696347"><ele>292.0</ele><time>2026-03-28T16:29:35Z</time></trkpt><trkpt lat="44.66317823276702" lon="8.95017866074932"><ele>288.5</ele><time>2026-03-28T16:29:36Z</time></trkpt><trkpt lat="44.66333564176335" lon="8.949936273678658"><ele>285.0</ele><time>2026-03-28T16:29:37Z</time></trkpt><trkpt lat="44.66348516392689" lon="8.949675712339944"><ele>292.5</ele><time>2026-03-28T16:29:38Z</time></trkpt><trkpt lat="44.66363621226049" lon="8.94941508101909"><ele>300.0</ele><time>2026-03-28T16:29:39Z</time></trkpt><trkpt lat="44.66378880636451" lon="8.949160069455997"><ele>300.0</ele><time>2026-03-28T16:29:40Z</time></trkpt><trkpt lat="44.66394126705773" lon="8.948904128194469"><ele>300.0</ele><time>2026-03-28T16:29:41Z</time></trkpt><trkpt lat="44.66409159960574" lon="8.94864507049028"><ele>293.5</ele><time>2026-03-28T16:29:42Z</time></trkpt><trkpt lat="44.66422586820758" lon="8.948369642556882"><ele>287.0</ele><time>2026-03-28T16:29:43Z</time></trkpt><trkpt lat="44.66433886933467" lon="8.948078815003013"><ele>287.0</ele><time>2026-03-28T16:29:44Z</time></trkpt><trkpt lat="44.66442777249993" lon="8.947772245780635"><ele>287.0</ele><time>2026-03-28T16:29:45Z</time></trkpt><trkpt lat="44.664497870680144" lon="8.94745582968685"><ele>301.5</ele><time>2026-03-28T16:29:46Z</time></trkpt><trkpt lat="44.6645503082883" lon="8.947129884747048"><ele>316.0</ele><time>2026-03-28T16:29:47Z</time></trkpt><trkpt lat="44.66457799633173" lon="8.946800218848013"><ele>319.0</ele><time>2026-03-28T16:29:48Z</time></trkpt><trkpt lat="44.664579604581" lon="8.946468979247529"><ele>322.0</ele><time>2026-03-28T16:29:49Z</time></trkpt><trkpt lat="44.66455716737176" lon="8.94613766185464"><ele>321.5</ele><time>2026-03-28T16:29:50Z</time></trkpt><trkpt lat="44.66451370897045" lon="8.945810969086356"><ele>321.0</ele><time>2026-03-28T16:29:51Z</time></trkpt><trkpt lat="44.66446368241964" lon="8.945484425884295"><ele>300.5</ele><time>2026-03-28T16:29:52Z</time></trkpt><trkpt lat="44.66440866189004" lon="8.9451571824834"><ele>280.0</ele><time>2026-03-28T16:29:53Z</time></trkpt><trkpt lat="44.66435610601795" lon="8.944830950494719"><ele>280.0</ele><time>2026-03-28T16:29:54Z</time></trkpt><trkpt lat="44.664312597637256" lon="8.94449967499631"><ele>280.0</ele><time>2026-03-28T16:29:55Z</time></trkpt><trkpt lat="44.664281507473184" lon="8.944167789095854"><ele>283.0</ele><time>2026-03-28T16:29:56Z</time></trkpt><trkpt lat="44.6642742678621" lon="8.94383395177867"><ele>286.0</ele><time>2026-03-28T16:29:57Z</time></trkpt><trkpt lat="44.66428497191141" lon="8.943501663442047"><ele>287.0</ele><time>2026-03-28T16:29:58Z</time></trkpt><trkpt lat="44.66432161838196" lon="8.943173516171369"><ele>288.0</ele><time>2026-03-28T16:29:59Z</time></trkpt><trkpt lat="44.664373588192184" lon="8.942851445646172"><ele>295.5</ele><time>2026-03-28T16:30:00Z</time></trkpt><trkpt lat="44.664448148243586" lon="8.942534494679041"><ele>303.0</ele><time>2026-03-28T16:30:01Z</time></trkpt><trkpt lat="44.66453567644918" lon="8.94222479156745"><ele>303.0</ele><time>2026-03-28T16:30:02Z</time></trkpt><trkpt lat="44.66462175379874" lon="8.941914298171318"><ele>303.0</ele><time>2026-03-28T16:30:03Z</time></trkpt><trkpt lat="44.6647066203588" lon="8.94160233091938"><ele>297.0</ele><time>2026-03-28T16:30:04Z</time></trkpt><trkpt lat="44.66478809861732" lon="8.941286952890827"><ele>291.0</ele><time>2026-03-28T16:30:05Z</time></trkpt><trkpt lat="44.66486815056525" lon="8.940970500597507"><ele>289.0</ele><time>2026-03-28T16:30:06Z</time></trkpt><trkpt lat="44.66495000614135" lon="8.940655028528669"><ele>287.0</ele><time>2026-03-28T16:30:07Z</time></trkpt><trkpt lat="44.66503415386177" lon="8.940342406718393"><ele>286.0</ele><time>2026-03-28T16:30:08Z</time></trkpt><trkpt lat="44.665117821771226" lon="8.940028673685989"><ele>285.0</ele><time>2026-03-28T16:30:09Z</time></trkpt><trkpt lat="44.665202334936325" lon="8.939716516932796"><ele>287.5</ele><time>2026-03-28T16:30:10Z</time></trkpt><trkpt lat="44.665282381598004" lon="8.939400752640255"><ele>290.0</ele><time>2026-03-28T16:30:11Z</time></trkpt><trkpt lat="44.66536069810857" lon="8.939087890878374"><ele>290.0</ele><time>2026-03-28T16:30:12Z</time></trkpt><trkpt lat="44.66543417602352" lon="8.93876993935918"><ele>290.0</ele><time>2026-03-28T16:30:13Z</time></trkpt><trkpt lat="44.66549698897944" lon="8.93844901949664"><ele>288.5</ele><time>2026-03-28T16:30:14Z</time></trkpt><trkpt lat="44.66555294225457" lon="8.938125007278726"><ele>287.0</ele><time>2026-03-28T16:30:14.999Z</time></trkpt><trkpt lat="44.665600938119184" lon="8.937798989452013"><ele>285.0</ele><time>2026-03-28T16:30:15.999Z</time></trkpt><trkpt lat="44.66564301283001" lon="8.937468999189708"><ele>283.0</ele><time>2026-03-28T16:30:16.999Z</time></trkpt><trkpt lat="44.66567684398068" lon="8.937135679753887"><ele>283.0</ele><time>2026-03-28T16:30:17.999Z</time></trkpt><trkpt lat="44.66570568243342" lon="8.936803415151184"><ele>283.0</ele><time>2026-03-28T16:30:18.999Z</time></trkpt><trkpt lat="44.66573211996776" lon="8.936472751522604"><ele>283.0</ele><time>2026-03-28T16:30:19.999Z</time></trkpt><trkpt lat="44.66575666078998" lon="8.936138313594588"><ele>283.0</ele><time>2026-03-28T16:30:20.999Z</time></trkpt><trkpt lat="44.665782544051766" lon="8.935805003673778"><ele>285.0</ele><time>2026-03-28T16:30:21.999Z</time></trkpt><trkpt lat="44.66580705364465" lon="8.935471941415456"><ele>287.0</ele><time>2026-03-28T16:30:22.999Z</time></trkpt><trkpt lat="44.66583199482442" lon="8.935138964870966"><ele>287.5</ele><time>2026-03-28T16:30:23.999Z</time></trkpt><trkpt lat="44.665854990138484" lon="8.934806047051087"><ele>288.0</ele><time>2026-03-28T16:30:24.999Z</time></trkpt><trkpt lat="44.66587895482991" lon="8.934474270281664"><ele>288.5</ele><time>2026-03-28T16:30:25.999Z</time></trkpt><trkpt lat="44.66590068838708" lon="8.93414272428253"><ele>289.0</ele><time>2026-03-28T16:30:26.999Z</time></trkpt><trkpt lat="44.665923504125814" lon="8.933809467343382"><ele>289.0</ele><time>2026-03-28T16:30:27.999Z</time></trkpt><trkpt lat="44.66594487388505" lon="8.933477434739169"><ele>289.0</ele><time>2026-03-28T16:30:28.999Z</time></trkpt><trkpt lat="44.665963318151846" lon="8.93314756377982"><ele>289.0</ele><time>2026-03-28T16:30:29.999Z</time></trkpt><trkpt lat="44.66597419675209" lon="8.932813946480211"><ele>289.0</ele><time>2026-03-28T16:30:30.999Z</time></trkpt><trkpt lat="44.66597028506154" lon="8.932482535317613"><ele>289.0</ele><time>2026-03-28T16:30:31.999Z</time></trkpt><trkpt lat="44.66595217395897" lon="8.932149751291686"><ele>289.0</ele><time>2026-03-28T16:30:32.999Z</time></trkpt><trkpt lat="44.665922598561444" lon="8.93181936322453"><ele>288.5</ele><time>2026-03-28T16:30:33.999Z</time></trkpt><trkpt lat="44.6658784678278" lon="8.931490110153879"><ele>288.0</ele><time>2026-03-28T16:30:34.999Z</time></trkpt><trkpt lat="44.66582021925667" lon="8.931165692013648"><ele>287.5</ele><time>2026-03-28T16:30:35.999Z</time></trkpt><trkpt lat="44.66574748097081" lon="8.930847797293369"><ele>287.0</ele><time>2026-03-28T16:30:36.999Z</time></trkpt><trkpt lat="44.665667388124064" lon="8.93053397806399"><ele>287.0</ele><time>2026-03-28T16:30:37.999Z</time></trkpt><trkpt lat="44.66558168796577" lon="8.930223573301967"><ele>287.0</ele><time>2026-03-28T16:30:38.999Z</time></trkpt><trkpt lat="44.66549873154744" lon="8.929910103985392"><ele>286.0</ele><time>2026-03-28T16:30:39.999Z</time></trkpt><trkpt lat="44.66541845272301" lon="8.92959504241034"><ele>285.0</ele><time>2026-03-28T16:30:40.999Z</time></trkpt><trkpt lat="44.665336778609195" lon="8.929281232443142"><ele>281.0</ele><time>2026-03-28T16:30:41.999Z</time></trkpt><trkpt lat="44.6652658320289" lon="8.928962429077462"><ele>277.0</ele><time>2026-03-28T16:30:42.999Z</time></trkpt><trkpt lat="44.66521183781229" lon="8.92863717569893"><ele>291.0</ele><time>2026-03-28T16:30:43.999Z</time></trkpt><trkpt lat="44.665180021317006" lon="8.92830699486934"><ele>305.0</ele><time>2026-03-28T16:30:44.999Z</time></trkpt><trkpt lat="44.665160325950445" lon="8.927974210063754"><ele>305.0</ele><time>2026-03-28T16:30:45.999Z</time></trkpt><trkpt lat="44.6651398494381" lon="8.927637443230108"><ele>305.0</ele><time>2026-03-28T16:30:46.999Z</time></trkpt><trkpt lat="44.66511828589742" lon="8.927291953413997"><ele>322.0</ele><time>2026-03-28T16:30:48.023Z</time></trkpt><trkpt lat="44.66509970920259" lon="8.926955975184157"><ele>339.0</ele><time>2026-03-28T16:30:49.014Z</time></trkpt><trkpt lat="44.66507927431923" lon="8.926617347703374"><ele>363.5</ele><time>2026-03-28T16:30:50.012Z</time></trkpt><trkpt lat="44.6650566471434" lon="8.926276700588684"><ele>388.0</ele><time>2026-03-28T16:30:51.023Z</time></trkpt><trkpt lat="44.66503503972075" lon="8.925939782500402"><ele>282.0</ele><time>2026-03-28T16:30:52.02Z</time></trkpt><trkpt lat="44.6643701987757" lon="8.913096645855264"><ele>282.0</ele><time>2026-03-28T16:31:29.999Z</time></trkpt><trkpt lat="44.664393132158665" lon="8.912757463035023"><ele>282.0</ele><time>2026-03-28T16:31:30.999Z</time></trkpt><trkpt lat="44.664425697921054" lon="8.912413815064268"><ele>282.0</ele><time>2026-03-28T16:31:31.999Z</time></trkpt><trkpt lat="44.664490518767764" lon="8.912083521682737"><ele>282.0</ele><time>2026-03-28T16:31:32.999Z</time></trkpt><trkpt lat="44.66458178339083" lon="8.911765102644717"><ele>275.5</ele><time>2026-03-28T16:31:33.999Z</time></trkpt><trkpt lat="44.664696688755406" lon="8.911464325597523"><ele>269.0</ele><time>2026-03-28T16:31:34.998Z</time></trkpt><trkpt lat="44.66483516519005" lon="8.911184480578925"><ele>269.0</ele><time>2026-03-28T16:31:36Z</time></trkpt><trkpt lat="44.66499751672522" lon="8.910930182637461"><ele>269.0</ele><time>2026-03-28T16:31:37Z</time></trkpt><trkpt lat="44.66517329585277" lon="8.910706336887142"><ele>267.0</ele><time>2026-03-28T16:31:38Z</time></trkpt><trkpt lat="44.665364306047245" lon="8.910498663726235"><ele>265.0</ele><time>2026-03-28T16:31:39Z</time></trkpt><trkpt lat="44.665562857795535" lon="8.910308308936877"><ele>265.0</ele><time>2026-03-28T16:31:40Z</time></trkpt><trkpt lat="44.665764296759356" lon="8.910114152898055"><ele>265.0</ele><time>2026-03-28T16:31:41Z</time></trkpt><trkpt lat="44.66596322651596" lon="8.909916505583567"><ele>265.0</ele><time>2026-03-28T16:31:42Z</time></trkpt><trkpt lat="44.666163955468" lon="8.909719712409261"><ele>265.0</ele><time>2026-03-28T16:31:43Z</time></trkpt><trkpt lat="44.66636338287548" lon="8.909522614793842"><ele>265.0</ele><time>2026-03-28T16:31:44Z</time></trkpt><trkpt lat="44.666564932695486" lon="8.909323619362889"><ele>265.0</ele><time>2026-03-28T16:31:45Z</time></trkpt><trkpt lat="44.666767256779146" lon="8.909123567679087"><ele>267.0</ele><time>2026-03-28T16:31:46Z</time></trkpt><trkpt lat="44.66697123096952" lon="8.908924240312025"><ele>269.0</ele><time>2026-03-28T16:31:47Z</time></trkpt><trkpt lat="44.66717964251196" lon="8.90871975759467"><ele>269.0</ele><time>2026-03-28T16:31:48Z</time></trkpt><trkpt lat="44.667388112455896" lon="8.908517326147615"><ele>269.0</ele><time>2026-03-28T16:31:49Z</time></trkpt><trkpt lat="44.66759610890593" lon="8.908313880664458"><ele>267.5</ele><time>2026-03-28T16:31:50Z</time></trkpt><trkpt lat="44.66780354222892" lon="8.90810846822863"><ele>266.0</ele><time>2026-03-28T16:31:51Z</time></trkpt><trkpt lat="44.6680116112529" lon="8.907906264218445"><ele>266.0</ele><time>2026-03-28T16:31:52Z</time></trkpt><trkpt lat="44.66822484369138" lon="8.907712216569655"><ele>266.0</ele><time>2026-03-28T16:31:53Z</time></trkpt><trkpt lat="44.66844741933085" lon="8.907537263090676"><ele>266.0</ele><time>2026-03-28T16:31:54Z</time></trkpt><trkpt lat="44.66867581503678" lon="8.907385155369715"><ele>266.0</ele><time>2026-03-28T16:31:55Z</time></trkpt><trkpt lat="44.66890812812682" lon="8.9072469829555"><ele>266.0</ele><time>2026-03-28T16:31:56Z</time></trkpt><trkpt lat="44.66914391929001" lon="8.907115817462387"><ele>266.0</ele><time>2026-03-28T16:31:57Z</time></trkpt><trkpt lat="44.669380688538325" lon="8.906985783404627"><ele>265.0</ele><time>2026-03-28T16:31:58Z</time></trkpt><trkpt lat="44.669618177517506" lon="8.90684869475644"><ele>264.0</ele><time>2026-03-28T16:31:59Z</time></trkpt><trkpt lat="44.669858143745415" lon="8.906714172533253"><ele>264.0</ele><time>2026-03-28T16:32:00Z</time></trkpt><trkpt lat="44.67009824324288" lon="8.906580358976859"><ele>264.0</ele><time>2026-03-28T16:32:01Z</time></trkpt><trkpt lat="44.67033961078175" lon="8.906446183159463"><ele>265.0</ele><time>2026-03-28T16:32:02Z</time></trkpt><trkpt lat="44.67058367404723" lon="8.906317971453234"><ele>266.0</ele><time>2026-03-28T16:32:03Z</time></trkpt><trkpt lat="44.6708248988371" lon="8.906195129171435"><ele>266.0</ele><time>2026-03-28T16:32:04Z</time></trkpt><trkpt lat="44.67106785176417" lon="8.906077873254954"><ele>266.0</ele><time>2026-03-28T16:32:05Z</time></trkpt><trkpt lat="44.67131623406997" lon="8.905972331495052"><ele>264.5</ele><time>2026-03-28T16:32:06Z</time></trkpt><trkpt lat="44.671567035816004" lon="8.90587835423496"><ele>263.0</ele><time>2026-03-28T16:32:07Z</time></trkpt><trkpt lat="44.67181801615385" lon="8.905792448807993"><ele>263.0</ele><time>2026-03-28T16:32:08Z</time></trkpt><trkpt lat="44.672072590732085" lon="8.905718561274844"><ele>263.0</ele><time>2026-03-28T16:32:09Z</time></trkpt><trkpt lat="44.67232668640681" lon="8.905647295701394"><ele>263.0</ele><time>2026-03-28T16:32:10Z</time></trkpt><trkpt lat="44.672582922246725" lon="8.905576969227427"><ele>263.0</ele><time>2026-03-28T16:32:11Z</time></trkpt><trkpt lat="44.67283727232067" lon="8.905501737085583"><ele>263.0</ele><time>2026-03-28T16:32:12Z</time></trkpt><trkpt lat="44.673092612223755" lon="8.905426697877102"><ele>263.0</ele><time>2026-03-28T16:32:13Z</time></trkpt><trkpt lat="44.67334772982012" lon="8.905351482062578"><ele>263.0</ele><time>2026-03-28T16:32:14Z</time></trkpt><trkpt lat="44.6736038640381" lon="8.905279711817883"><ele>263.0</ele><time>2026-03-28T16:32:15Z</time></trkpt><trkpt lat="44.67386027377325" lon="8.905208510229368"><ele>263.5</ele><time>2026-03-28T16:32:16Z</time></trkpt><trkpt lat="44.67411579376801" lon="8.90514831135999"><ele>264.0</ele><time>2026-03-28T16:32:17Z</time></trkpt><trkpt lat="44.6743745929095" lon="8.90511354206671"><ele>264.0</ele><time>2026-03-28T16:32:18Z</time></trkpt><trkpt lat="44.67463327989804" lon="8.905105425272046"><ele>264.0</ele><time>2026-03-28T16:32:19Z</time></trkpt><trkpt lat="44.674891536103395" lon="8.905132702140152"><ele>264.0</ele><time>2026-03-28T16:32:20Z</time></trkpt><trkpt lat="44.67514547947513" lon="8.90517728042669"><ele>264.0</ele><time>2026-03-28T16:32:21Z</time></trkpt><trkpt lat="44.67540331281082" lon="8.905219445094454"><ele>267.0</ele><time>2026-03-28T16:32:22Z</time></trkpt><trkpt lat="44.6756597556341" lon="8.905247235535496"><ele>270.0</ele><time>2026-03-28T16:32:23Z</time></trkpt><trkpt lat="44.67591801185141" lon="8.905261640252983"><ele>268.5</ele><time>2026-03-28T16:32:24Z</time></trkpt><trkpt lat="44.67617528349163" lon="8.905248974014988"><ele>267.0</ele><time>2026-03-28T16:32:25Z</time></trkpt><trkpt lat="44.67643122143522" lon="8.905207263278385"><ele>267.0</ele><time>2026-03-28T16:32:26Z</time></trkpt><trkpt lat="44.67668616988689" lon="8.905146662077778"><ele>267.0</ele><time>2026-03-28T16:32:27Z</time></trkpt><trkpt lat="44.67693880216127" lon="8.905069847222475"><ele>261.5</ele><time>2026-03-28T16:32:28Z</time></trkpt><trkpt lat="44.67719142345648" lon="8.90498446482346"><ele>256.0</ele><time>2026-03-28T16:32:29Z</time></trkpt><trkpt lat="44.67744482420627" lon="8.904900320766908"><ele>256.0</ele><time>2026-03-28T16:32:29.999Z</time></trkpt><trkpt lat="44.67769645910779" lon="8.904813812245726"><ele>256.0</ele><time>2026-03-28T16:32:30.999Z</time></trkpt><trkpt lat="44.67794832536783" lon="8.904728733127428"><ele>259.0</ele><time>2026-03-28T16:32:31.999Z</time></trkpt><trkpt lat="44.67819991279285" lon="8.904641030369472"><ele>262.0</ele><time>2026-03-28T16:32:32.999Z</time></trkpt><trkpt lat="44.678453341232775" lon="8.904554473492045"><ele>266.5</ele><time>2026-03-28T16:32:33.999Z</time></trkpt><trkpt lat="44.678705600617356" lon="8.904470154722588"><ele>271.0</ele><time>2026-03-28T16:32:34.999Z</time></trkpt><trkpt lat="44.67895875376149" lon="8.904382995876578"><ele>271.0</ele><time>2026-03-28T16:32:35.999Z</time></trkpt><trkpt lat="44.679209406635294" lon="8.90429546451461"><ele>271.0</ele><time>2026-03-28T16:32:36.999Z</time></trkpt><trkpt lat="44.67946114316109" lon="8.904209280745874"><ele>265.5</ele><time>2026-03-28T16:32:37.999Z</time></trkpt><trkpt lat="44.679713604824784" lon="8.904123094559806"><ele>260.0</ele><time>2026-03-28T16:32:38.999Z</time></trkpt><trkpt lat="44.67996572977413" lon="8.90404009937789"><ele>260.0</ele><time>2026-03-28T16:32:39.999Z</time></trkpt><trkpt lat="44.68022031991994" lon="8.903979294720248"><ele>260.0</ele><time>2026-03-28T16:32:40.999Z</time></trkpt><trkpt lat="44.68047675427477" lon="8.903947230317856"><ele>259.0</ele><time>2026-03-28T16:32:41.999Z</time></trkpt><trkpt lat="44.68073334531165" lon="8.90394777189323"><ele>258.0</ele><time>2026-03-28T16:32:42.999Z</time></trkpt><trkpt lat="44.680986976940524" lon="8.903994754659367"><ele>252.0</ele><time>2026-03-28T16:32:43.999Z</time></trkpt><trkpt lat="44.68123940526573" lon="8.904068722681773"><ele>246.0</ele><time>2026-03-28T16:32:44.999Z</time></trkpt><trkpt lat="44.68148695200202" lon="8.904162217976557"><ele>251.5</ele><time>2026-03-28T16:32:45.999Z</time></trkpt><trkpt lat="44.681736356292305" lon="8.904267263175742"><ele>257.0</ele><time>2026-03-28T16:32:46.999Z</time></trkpt><trkpt lat="44.681992414702634" lon="8.90434831707723"><ele>261.5</ele><time>2026-03-28T16:32:47.999Z</time></trkpt><trkpt lat="44.68225179229719" lon="8.904399759487452"><ele>266.0</ele><time>2026-03-28T16:32:48.999Z</time></trkpt><trkpt lat="44.682517946901896" lon="8.904401314131208"><ele>270.5</ele><time>2026-03-28T16:32:49.999Z</time></trkpt><trkpt lat="44.68277764032497" lon="8.90437438760544"><ele>275.0</ele><time>2026-03-28T16:32:50.999Z</time></trkpt><trkpt lat="44.68303456404107" lon="8.904315152610934"><ele>262.5</ele><time>2026-03-28T16:32:51.999Z</time></trkpt><trkpt lat="44.6832863497695" lon="8.90421604274046"><ele>250.0</ele><time>2026-03-28T16:32:52.999Z</time></trkpt><trkpt lat="44.683530471015494" lon="8.904086559231487"><ele>256.5</ele><time>2026-03-28T16:32:53.999Z</time></trkpt><trkpt lat="44.683770258902165" lon="8.903928755479503"><ele>263.0</ele><time>2026-03-28T16:32:54.999Z</time></trkpt><trkpt lat="44.68400728729744" lon="8.903749352710127"><ele>263.0</ele><time>2026-03-28T16:32:55.999Z</time></trkpt><trkpt lat="44.684241891968036" lon="8.903567184006071"><ele>263.0</ele><time>2026-03-28T16:32:56.999Z</time></trkpt><trkpt lat="44.68447778278573" lon="8.903385739005458"><ele>259.5</ele><time>2026-03-28T16:32:57.999Z</time></trkpt><trkpt lat="44.68471492558428" lon="8.903206086718983"><ele>256.0</ele><time>2026-03-28T16:32:58.999Z</time></trkpt><trkpt lat="44.68495358868292" lon="8.90302880787135"><ele>256.0</ele><time>2026-03-28T16:32:59.999Z</time></trkpt><trkpt lat="44.685190097062275" lon="8.902849226461656"><ele>256.0</ele><time>2026-03-28T16:33:00.999Z</time></trkpt><trkpt lat="44.68542732696366" lon="8.902668761596805"><ele>251.5</ele><time>2026-03-28T16:33:01.999Z</time></trkpt><trkpt lat="44.68566330279542" lon="8.902485062659187"><ele>247.0</ele><time>2026-03-28T16:33:02.999Z</time></trkpt><trkpt lat="44.68590017504605" lon="8.90230160307659"><ele>254.0</ele><time>2026-03-28T16:33:03.999Z</time></trkpt><trkpt lat="44.68613861489161" lon="8.902121837379282"><ele>261.0</ele><time>2026-03-28T16:33:04.999Z</time></trkpt><trkpt lat="44.68637684344898" lon="8.901943878934583"><ele>261.0</ele><time>2026-03-28T16:33:05.999Z</time></trkpt><trkpt lat="44.68661784130517" lon="8.901773431819613"><ele>261.0</ele><time>2026-03-28T16:33:06.999Z</time></trkpt><trkpt lat="44.68686639971777" lon="8.901637607852674"><ele>255.0</ele><time>2026-03-28T16:33:07.999Z</time></trkpt><trkpt lat="44.68712191350888" lon="8.901541150152493"><ele>249.0</ele><time>2026-03-28T16:33:08.999Z</time></trkpt><trkpt lat="44.687379400784025" lon="8.901460918959623"><ele>249.0</ele><time>2026-03-28T16:33:09.999Z</time></trkpt><trkpt lat="44.6876426750484" lon="8.901381632016893"><ele>249.0</ele><time>2026-03-28T16:33:10.999Z</time></trkpt><trkpt lat="44.68790634713361" lon="8.90129529363453"><ele>247.0</ele><time>2026-03-28T16:33:11.999Z</time></trkpt><trkpt lat="44.688167982462865" lon="8.90120695550484"><ele>245.0</ele><time>2026-03-28T16:33:12.999Z</time></trkpt><trkpt lat="44.68843029392656" lon="8.901120978792816"><ele>243.5</ele><time>2026-03-28T16:33:13.999Z</time></trkpt><trkpt lat="44.68869373166291" lon="8.901031660080896"><ele>242.0</ele><time>2026-03-28T16:33:14.999Z</time></trkpt><trkpt lat="44.688956528123946" lon="8.900948436405796"><ele>238.5</ele><time>2026-03-28T16:33:15.999Z</time></trkpt><trkpt lat="44.68921814808503" lon="8.900862686876144"><ele>235.0</ele><time>2026-03-28T16:33:16.999Z</time></trkpt><trkpt lat="44.689481527655225" lon="8.900774779634276"><ele>235.0</ele><time>2026-03-28T16:33:17.999Z</time></trkpt><trkpt lat="44.68974267697179" lon="8.90067633429546"><ele>235.0</ele><time>2026-03-28T16:33:18.999Z</time></trkpt><trkpt lat="44.690001891775985" lon="8.900564674464244"><ele>235.0</ele><time>2026-03-28T16:33:19.999Z</time></trkpt><trkpt lat="44.69025743491749" lon="8.900436643514565"><ele>235.0</ele><time>2026-03-28T16:33:20.999Z</time></trkpt><trkpt lat="44.690503620034264" lon="8.900283298251596"><ele>236.0</ele><time>2026-03-28T16:33:21.999Z</time></trkpt><trkpt lat="44.690740523313046" lon="8.9001069654285"><ele>237.0</ele><time>2026-03-28T16:33:22.999Z</time></trkpt><trkpt lat="44.69097274650124" lon="8.899917487627647"><ele>231.0</ele><time>2026-03-28T16:33:23.999Z</time></trkpt><trkpt lat="44.6912016367052" lon="8.899717257669026"><ele>225.0</ele><time>2026-03-28T16:33:24.999Z</time></trkpt><trkpt lat="44.69143049004348" lon="8.899516667303384"><ele>225.0</ele><time>2026-03-28T16:33:25.999Z</time></trkpt><trkpt lat="44.69165980154777" lon="8.89932038002352"><ele>225.0</ele><time>2026-03-28T16:33:26.999Z</time></trkpt><trkpt lat="44.69188850932845" lon="8.899125422060218"><ele>223.0</ele><time>2026-03-28T16:33:27.999Z</time></trkpt><trkpt lat="44.692116748594636" lon="8.898929357194758"><ele>221.0</ele><time>2026-03-28T16:33:28.999Z</time></trkpt><trkpt lat="44.692341856450334" lon="8.898731318367936"><ele>221.0</ele><time>2026-03-28T16:33:29.999Z</time></trkpt><trkpt lat="44.69256920714206" lon="8.898532351705704"><ele>221.0</ele><time>2026-03-28T16:33:30.999Z</time></trkpt><trkpt lat="44.69279664494836" lon="8.898335324139685"><ele>222.5</ele><time>2026-03-28T16:33:31.999Z</time></trkpt><trkpt lat="44.69302258134899" lon="8.898138149200717"><ele>224.0</ele><time>2026-03-28T16:33:32.999Z</time></trkpt><trkpt lat="44.69325021756541" lon="8.897941772961213"><ele>224.0</ele><time>2026-03-28T16:33:33.999Z</time></trkpt><trkpt lat="44.69347727353296" lon="8.89774603438"><ele>224.0</ele><time>2026-03-28T16:33:34.999Z</time></trkpt><trkpt lat="44.69370491350578" lon="8.897548122282434"><ele>231.5</ele><time>2026-03-28T16:33:35.999Z</time></trkpt><trkpt lat="44.69393335502523" lon="8.897349526282664"><ele>239.0</ele><time>2026-03-28T16:33:36.999Z</time></trkpt><trkpt lat="44.694160232978454" lon="8.897149914080462"><ele>239.0</ele><time>2026-03-28T16:33:37.999Z</time></trkpt><trkpt lat="44.69438810836539" lon="8.896950574513802"><ele>239.0</ele><time>2026-03-28T16:33:38.999Z</time></trkpt><trkpt lat="44.69461782244542" lon="8.896752228011449"><ele>236.0</ele><time>2026-03-28T16:33:39.999Z</time></trkpt><trkpt lat="44.69484656913582" lon="8.896552067867395"><ele>233.0</ele><time>2026-03-28T16:33:40.999Z</time></trkpt><trkpt lat="44.695074814941314" lon="8.896353247995835"><ele>235.5</ele><time>2026-03-28T16:33:42Z</time></trkpt><trkpt lat="44.69530353642499" lon="8.896154790299184"><ele>238.0</ele><time>2026-03-28T16:33:43Z</time></trkpt><trkpt lat="44.69553224700241" lon="8.895957108780344"><ele>235.5</ele><time>2026-03-28T16:33:44Z</time></trkpt><trkpt lat="44.695760376579976" lon="8.895760823812005"><ele>233.0</ele><time>2026-03-28T16:33:45Z</time></trkpt><trkpt lat="44.69598930252615" lon="8.89556312911697"><ele>236.0</ele><time>2026-03-28T16:33:46Z</time></trkpt><trkpt lat="44.69621686350403" lon="8.89536222457691"><ele>239.0</ele><time>2026-03-28T16:33:47Z</time></trkpt><trkpt lat="44.696444891399125" lon="8.895161262319371"><ele>235.0</ele><time>2026-03-28T16:33:48Z</time></trkpt><trkpt lat="44.69667487382341" lon="8.89496758453832"><ele>231.0</ele><time>2026-03-28T16:33:49Z</time></trkpt><trkpt lat="44.69691091937478" lon="8.894793170001119"><ele>232.0</ele><time>2026-03-28T16:33:50Z</time></trkpt><trkpt lat="44.69715797575277" lon="8.894657261256114"><ele>233.0</ele><time>2026-03-28T16:33:51Z</time></trkpt><trkpt lat="44.69741425278176" lon="8.894552849830474"><ele>233.0</ele><time>2026-03-28T16:33:52Z</time></trkpt><trkpt lat="44.697674246608905" lon="8.894474745720913"><ele>233.0</ele><time>2026-03-28T16:33:53Z</time></trkpt><trkpt lat="44.69793678944044" lon="8.89439434950641"><ele>231.0</ele><time>2026-03-28T16:33:54Z</time></trkpt><trkpt lat="44.69819286415714" lon="8.894284147361946"><ele>229.0</ele><time>2026-03-28T16:33:55Z</time></trkpt><trkpt lat="44.698437453513755" lon="8.89413565131077"><ele>232.0</ele><time>2026-03-28T16:33:56Z</time></trkpt><trkpt lat="44.698667921069166" lon="8.893955889559367"><ele>235.0</ele><time>2026-03-28T16:33:57Z</time></trkpt><trkpt lat="44.698888091230806" lon="8.893750783716975"><ele>235.0</ele><time>2026-03-28T16:33:58Z</time></trkpt><trkpt lat="44.69909648525079" lon="8.893519997793657"><ele>235.0</ele><time>2026-03-28T16:33:59Z</time></trkpt><trkpt lat="44.69930627812191" lon="8.893281957637853"><ele>235.5</ele><time>2026-03-28T16:34:00Z</time></trkpt><trkpt lat="44.699519010833434" lon="8.893048431487356"><ele>236.0</ele><time>2026-03-28T16:34:01Z</time></trkpt><trkpt lat="44.69973331833257" lon="8.892817506011186"><ele>231.5</ele><time>2026-03-28T16:34:02Z</time></trkpt><trkpt lat="44.699948430725556" lon="8.892588426438932"><ele>227.0</ele><time>2026-03-28T16:34:03Z</time></trkpt><trkpt lat="44.70016163549558" lon="8.892356311581521"><ele>239.0</ele><time>2026-03-28T16:34:04Z</time></trkpt><trkpt lat="44.70037283124851" lon="8.892123337840962"><ele>251.0</ele><time>2026-03-28T16:34:05Z</time></trkpt><trkpt lat="44.70058487993319" lon="8.891887003155734"><ele>242.0</ele><time>2026-03-28T16:34:06Z</time></trkpt><trkpt lat="44.70079619844436" lon="8.891652769596682"><ele>233.0</ele><time>2026-03-28T16:34:07Z</time></trkpt><trkpt lat="44.70100550519045" lon="8.891418399862971"><ele>233.0</ele><time>2026-03-28T16:34:08Z</time></trkpt><trkpt lat="44.70120835777501" lon="8.891174169113246"><ele>233.0</ele><time>2026-03-28T16:34:09Z</time></trkpt><trkpt lat="44.701386676675654" lon="8.890899040000402"><ele>233.0</ele><time>2026-03-28T16:34:10Z</time></trkpt><trkpt lat="44.70153298208688" lon="8.89059369377208"><ele>233.0</ele><time>2026-03-28T16:34:11Z</time></trkpt><trkpt lat="44.7016698105656" lon="8.890271731346667"><ele>235.5</ele><time>2026-03-28T16:34:12Z</time></trkpt><trkpt lat="44.7018106704769" lon="8.889948694569927"><ele>238.0</ele><time>2026-03-28T16:34:13Z</time></trkpt><trkpt lat="44.701948193459906" lon="8.889622570418487"><ele>238.0</ele><time>2026-03-28T16:34:14Z</time></trkpt><trkpt lat="44.70208639484609" lon="8.889292990932463"><ele>238.0</ele><time>2026-03-28T16:34:15Z</time></trkpt><trkpt lat="44.70222420190388" lon="8.88896531063313"><ele>238.0</ele><time>2026-03-28T16:34:16Z</time></trkpt><trkpt lat="44.70236322742859" lon="8.888641942155845"><ele>238.0</ele><time>2026-03-28T16:34:17Z</time></trkpt><trkpt lat="44.702500306411785" lon="8.88831706290746"><ele>236.5</ele><time>2026-03-28T16:34:18Z</time></trkpt><trkpt lat="44.70263491197722" lon="8.887990433369964"><ele>235.0</ele><time>2026-03-28T16:34:19Z</time></trkpt><trkpt lat="44.70274972321382" lon="8.887651501077945"><ele>235.0</ele><time>2026-03-28T16:34:20Z</time></trkpt><trkpt lat="44.702835240444195" lon="8.887295519550667"><ele>235.0</ele><time>2026-03-28T16:34:21Z</time></trkpt><trkpt lat="44.7029107097624" lon="8.88693455049277"><ele>236.5</ele><time>2026-03-28T16:34:22Z</time></trkpt><trkpt lat="44.70297800625659" lon="8.8865745708737"><ele>238.0</ele><time>2026-03-28T16:34:23Z</time></trkpt><trkpt lat="44.703054106087755" lon="8.886212496812403"><ele>234.5</ele><time>2026-03-28T16:34:24Z</time></trkpt><trkpt lat="44.70312787891208" lon="8.885850940952412"><ele>231.0</ele><time>2026-03-28T16:34:25Z</time></trkpt><trkpt lat="44.7032052323611" lon="8.885491292545296"><ele>231.0</ele><time>2026-03-28T16:34:26Z</time></trkpt><trkpt lat="44.70328833713312" lon="8.88513776344756"><ele>231.0</ele><time>2026-03-28T16:34:27Z</time></trkpt><trkpt lat="44.703379264146776" lon="8.884792114185357"><ele>229.5</ele><time>2026-03-28T16:34:28Z</time></trkpt><trkpt lat="44.70348098192081" lon="8.884456973107872"><ele>228.0</ele><time>2026-03-28T16:34:29Z</time></trkpt><trkpt lat="44.70359737384773" lon="8.884131768212903"><ele>231.5</ele><time>2026-03-28T16:34:30Z</time></trkpt><trkpt lat="44.70373092021159" lon="8.883819360237899"><ele>235.0</ele><time>2026-03-28T16:34:30.999Z</time></trkpt><trkpt lat="44.70387345836573" lon="8.883514389508838"><ele>232.5</ele><time>2026-03-28T16:34:31.999Z</time></trkpt><trkpt lat="44.7040221022661" lon="8.883215070589104"><ele>230.0</ele><time>2026-03-28T16:34:32.999Z</time></trkpt><trkpt lat="44.70417345397274" lon="8.882916924208716"><ele>230.0</ele><time>2026-03-28T16:34:33.999Z</time></trkpt><trkpt lat="44.704324911980024" lon="8.88261892495754"><ele>230.0</ele><time>2026-03-28T16:34:34.999Z</time></trkpt><trkpt lat="44.704473933856" lon="8.882327535109859"><ele>231.0</ele><time>2026-03-28T16:34:35.999Z</time></trkpt><trkpt lat="44.7046355107297" lon="8.882055704209233"><ele>232.0</ele><time>2026-03-28T16:34:36.999Z</time></trkpt><trkpt lat="44.704815641051916" lon="8.881811672516474"><ele>227.5</ele><time>2026-03-28T16:34:37.999Z</time></trkpt><trkpt lat="44.70501304450657" lon="8.881599045469518"><ele>223.0</ele><time>2026-03-28T16:34:38.999Z</time></trkpt><trkpt lat="44.70521962762522" lon="8.881398235287794"><ele>225.5</ele><time>2026-03-28T16:34:39.999Z</time></trkpt><trkpt lat="44.70543341283369" lon="8.881204146780396"><ele>228.0</ele><time>2026-03-28T16:34:40.999Z</time></trkpt><trkpt lat="44.70564528267215" lon="8.881005159839788"><ele>222.5</ele><time>2026-03-28T16:34:41.999Z</time></trkpt><trkpt lat="44.70585447329618" lon="8.880798725047143"><ele>217.0</ele><time>2026-03-28T16:34:42.999Z</time></trkpt><trkpt lat="44.70605253024266" lon="8.880577137003966"><ele>214.5</ele><time>2026-03-28T16:34:43.999Z</time></trkpt><trkpt lat="44.70624124667312" lon="8.88034234264084"><ele>212.0</ele><time>2026-03-28T16:34:44.999Z</time></trkpt><trkpt lat="44.70642191355022" lon="8.880095628786316"><ele>212.0</ele><time>2026-03-28T16:34:45.999Z</time></trkpt><trkpt lat="44.706600707692374" lon="8.879844004723559"><ele>212.0</ele><time>2026-03-28T16:34:46.999Z</time></trkpt><trkpt lat="44.70678185932825" lon="8.879595752445027"><ele>211.5</ele><time>2026-03-28T16:34:47.999Z</time></trkpt><trkpt lat="44.70696527575786" lon="8.879351805165596"><ele>211.0</ele><time>2026-03-28T16:34:48.999Z</time></trkpt><trkpt lat="44.707145480871475" lon="8.879108803287025"><ele>211.0</ele><time>2026-03-28T16:34:49.999Z</time></trkpt><trkpt lat="44.70732450126143" lon="8.87886068822907"><ele>211.0</ele><time>2026-03-28T16:34:50.999Z</time></trkpt><trkpt lat="44.7075064585846" lon="8.878614797624"><ele>211.5</ele><time>2026-03-28T16:34:51.999Z</time></trkpt><trkpt lat="44.70768909965511" lon="8.878372562921594"><ele>212.0</ele><time>2026-03-28T16:34:52.999Z</time></trkpt><trkpt lat="44.70787104800353" lon="8.878127133687975"><ele>212.0</ele><time>2026-03-28T16:34:53.999Z</time></trkpt><trkpt lat="44.708053764783976" lon="8.877881009763188"><ele>212.0</ele><time>2026-03-28T16:34:54.999Z</time></trkpt><trkpt lat="44.708236845329374" lon="8.877634467033495"><ele>212.0</ele><time>2026-03-28T16:34:55.999Z</time></trkpt><trkpt lat="44.7084203379592" lon="8.87738950157067"><ele>212.0</ele><time>2026-03-28T16:34:56.999Z</time></trkpt><trkpt lat="44.70860480226275" lon="8.877144202160562"><ele>212.0</ele><time>2026-03-28T16:34:57.999Z</time></trkpt><trkpt lat="44.70878309625651" lon="8.876892302701025"><ele>212.0</ele><time>2026-03-28T16:34:58.999Z</time></trkpt><trkpt lat="44.70895667483596" lon="8.87663411551416"><ele>212.5</ele><time>2026-03-28T16:34:59.999Z</time></trkpt><trkpt lat="44.709125312754566" lon="8.876369247817282"><ele>213.0</ele><time>2026-03-28T16:35:00.999Z</time></trkpt><trkpt lat="44.709294567046676" lon="8.876106349187356"><ele>212.0</ele><time>2026-03-28T16:35:01.999Z</time></trkpt><trkpt lat="44.70946394610356" lon="8.87584018592293"><ele>211.0</ele><time>2026-03-28T16:35:02.999Z</time></trkpt><trkpt lat="44.7096318676377" lon="8.875578130552684"><ele>211.0</ele><time>2026-03-28T16:35:03.999Z</time></trkpt><trkpt lat="44.70979705765112" lon="8.875321398105589"><ele>211.0</ele><time>2026-03-28T16:35:04.999Z</time></trkpt><trkpt lat="44.709957477279936" lon="8.875069821558824"><ele>210.0</ele><time>2026-03-28T16:35:05.999Z</time></trkpt><trkpt lat="44.710114804740556" lon="8.874820796487324"><ele>209.0</ele><time>2026-03-28T16:35:06.999Z</time></trkpt><trkpt lat="44.71027086699935" lon="8.87457602963891"><ele>210.66666666666669</ele><time>2026-03-28T16:35:07.999Z</time></trkpt><trkpt lat="44.71042293694887" lon="8.8743378688139"><ele>212.33333333333331</ele><time>2026-03-28T16:35:08.999Z</time></trkpt><trkpt lat="44.7105679088054" lon="8.874109898305015"><ele>214.0</ele><time>2026-03-28T16:35:09.999Z</time></trkpt><trkpt lat="44.710698400210234" lon="8.873884093463639"><ele>214.33333333333331</ele><time>2026-03-28T16:35:10.999Z</time></trkpt><trkpt lat="44.71079759372299" lon="8.873654578843416"><ele>214.66666666666669</ele><time>2026-03-28T16:35:11.999Z</time></trkpt><trkpt lat="44.710862520477264" lon="8.873405518833401"><ele>215.0</ele><time>2026-03-28T16:35:12.999Z</time></trkpt><trkpt lat="44.7108903553232" lon="8.873134429617833"><ele>215.66666666666669</ele><time>2026-03-28T16:35:13.999Z</time></trkpt><trkpt lat="44.710877775431165" lon="8.87284410102506"><ele>216.33333333333331</ele><time>2026-03-28T16:35:14.999Z</time></trkpt><trkpt lat="44.7108505650317" lon="8.872540950352754"><ele>217.0</ele><time>2026-03-28T16:35:15.999Z</time></trkpt><trkpt lat="44.71082638619999" lon="8.872226009872689"><ele>219.0</ele><time>2026-03-28T16:35:16.999Z</time></trkpt><trkpt lat="44.71082290649308" lon="8.871898002660503"><ele>221.0</ele><time>2026-03-28T16:35:17.999Z</time></trkpt><trkpt lat="44.71083648814505" lon="8.871563507250498"><ele>221.0</ele><time>2026-03-28T16:35:18.999Z</time></trkpt><trkpt lat="44.71087407952383" lon="8.871225410539557"><ele>221.0</ele><time>2026-03-28T16:35:19.999Z</time></trkpt><trkpt lat="44.710932514660456" lon="8.870891349926909"><ele>219.0</ele><time>2026-03-28T16:35:20.999Z</time></trkpt><trkpt lat="44.71100940317874" lon="8.87056783369498"><ele>217.0</ele><time>2026-03-28T16:35:21.999Z</time></trkpt><trkpt lat="44.71111010077622" lon="8.870268345177632"><ele>217.5</ele><time>2026-03-28T16:35:22.999Z</time></trkpt><trkpt lat="44.71123434727" lon="8.869981025229785"><ele>218.0</ele><time>2026-03-28T16:35:23.999Z</time></trkpt><trkpt lat="44.711372967969915" lon="8.869713761309008"><ele>218.0</ele><time>2026-03-28T16:35:24.999Z</time></trkpt><trkpt lat="44.71152282487206" lon="8.869451978333403"><ele>218.0</ele><time>2026-03-28T16:35:25.999Z</time></trkpt><trkpt lat="44.711679095792064" lon="8.869190927945253"><ele>220.0</ele><time>2026-03-28T16:35:26.999Z</time></trkpt><trkpt lat="44.711826905022626" lon="8.868920811239466"><ele>222.0</ele><time>2026-03-28T16:35:27.999Z</time></trkpt><trkpt lat="44.7119628258155" lon="8.868636994378583"><ele>219.5</ele><time>2026-03-28T16:35:28.999Z</time></trkpt><trkpt lat="44.712082651631995" lon="8.868337030961287"><ele>217.0</ele><time>2026-03-28T16:35:29.999Z</time></trkpt><trkpt lat="44.712180723814484" lon="8.868022409846704"><ele>217.0</ele><time>2026-03-28T16:35:30.999Z</time></trkpt><trkpt lat="44.71225383285577" lon="8.867697046063524"><ele>217.0</ele><time>2026-03-28T16:35:31.999Z</time></trkpt><trkpt lat="44.712315342037954" lon="8.867365221794401"><ele>215.0</ele><time>2026-03-28T16:35:32.999Z</time></trkpt><trkpt lat="44.712376885107936" lon="8.867029212747244"><ele>213.0</ele><time>2026-03-28T16:35:33.999Z</time></trkpt><trkpt lat="44.71244308845301" lon="8.866696708322015"><ele>212.5</ele><time>2026-03-28T16:35:34.999Z</time></trkpt><trkpt lat="44.71252140684453" lon="8.866366550856085"><ele>212.0</ele><time>2026-03-28T16:35:35.999Z</time></trkpt><trkpt lat="44.71261543878236" lon="8.86604700886405"><ele>212.5</ele><time>2026-03-28T16:35:36.999Z</time></trkpt><trkpt lat="44.71273026509235" lon="8.865745260936427"><ele>213.0</ele><time>2026-03-28T16:35:37.999Z</time></trkpt><trkpt lat="44.7128608167184" lon="8.865458507284599"><ele>214.5</ele><time>2026-03-28T16:35:38.999Z</time></trkpt><trkpt lat="44.712999066078424" lon="8.865179063369672"><ele>216.0</ele><time>2026-03-28T16:35:39.999Z</time></trkpt><trkpt lat="44.71314320884365" lon="8.864902054302705"><ele>216.0</ele><time>2026-03-28T16:35:40.999Z</time></trkpt><trkpt lat="44.713290507697224" lon="8.864628579104513"><ele>216.0</ele><time>2026-03-28T16:35:41.999Z</time></trkpt><trkpt lat="44.713447137966746" lon="8.864401837995318"><ele>215.5</ele><time>2026-03-28T16:35:42.999Z</time></trkpt><trkpt lat="44.713634670306924" lon="8.864217178349383"><ele>215.0</ele><time>2026-03-28T16:35:43.999Z</time></trkpt><trkpt lat="44.713847022910485" lon="8.864053280655142"><ele>215.0</ele><time>2026-03-28T16:35:44.999Z</time></trkpt><trkpt lat="44.714072581198685" lon="8.863927080330475"><ele>215.0</ele><time>2026-03-28T16:35:45.999Z</time></trkpt><trkpt lat="44.71430230538464" lon="8.863848549530378"><ele>215.0</ele><time>2026-03-28T16:35:46.999Z</time></trkpt><trkpt lat="44.71453257345677" lon="8.86381808622142"><ele>215.0</ele><time>2026-03-28T16:35:48Z</time></trkpt><trkpt lat="44.7147611372926" lon="8.86383096393983"><ele>215.0</ele><time>2026-03-28T16:35:49Z</time></trkpt><trkpt lat="44.71499127707276" lon="8.863882701293518"><ele>215.0</ele><time>2026-03-28T16:35:50Z</time></trkpt><trkpt lat="44.71522128191347" lon="8.863944628804317"><ele>213.0</ele><time>2026-03-28T16:35:51Z</time></trkpt><trkpt lat="44.7154557891599" lon="8.863998799052816"><ele>211.0</ele><time>2026-03-28T16:35:52Z</time></trkpt><trkpt lat="44.71568826783569" lon="8.864055332664304"><ele>211.0</ele><time>2026-03-28T16:35:53Z</time></trkpt><trkpt lat="44.71592211182275" lon="8.864111874516185"><ele>211.0</ele><time>2026-03-28T16:35:54Z</time></trkpt><trkpt lat="44.716157505475685" lon="8.864158703052109"><ele>211.0</ele><time>2026-03-28T16:35:55Z</time></trkpt><trkpt lat="44.71639264527146" lon="8.864190794479182"><ele>211.0</ele><time>2026-03-28T16:35:56Z</time></trkpt><trkpt lat="44.71663070085039" lon="8.864197566281309"><ele>211.0</ele><time>2026-03-28T16:35:57Z</time></trkpt><trkpt lat="44.716866333814004" lon="8.864176976943114"><ele>211.0</ele><time>2026-03-28T16:35:58Z</time></trkpt><trkpt lat="44.71710315119707" lon="8.864130317586463"><ele>213.5</ele><time>2026-03-28T16:35:59Z</time></trkpt><trkpt lat="44.71733739610283" lon="8.864070572393242"><ele>216.0</ele><time>2026-03-28T16:36:00Z</time></trkpt><trkpt lat="44.717571843095584" lon="8.864010269264265"><ele>216.0</ele><time>2026-03-28T16:36:01Z</time></trkpt><trkpt lat="44.717806524272355" lon="8.863955744913307"><ele>216.0</ele><time>2026-03-28T16:36:02Z</time></trkpt><trkpt lat="44.718039039910664" lon="8.863901181353523"><ele>216.0</ele><time>2026-03-28T16:36:03Z</time></trkpt><trkpt lat="44.71827315974917" lon="8.863847602677986"><ele>216.0</ele><time>2026-03-28T16:36:04Z</time></trkpt><trkpt lat="44.718507279353176" lon="8.863794495002205"><ele>216.5</ele><time>2026-03-28T16:36:05Z</time></trkpt><trkpt lat="44.71874000668467" lon="8.863740832383924"><ele>217.0</ele><time>2026-03-28T16:36:06Z</time></trkpt><trkpt lat="44.71897302936548" lon="8.863689153561467"><ele>217.0</ele><time>2026-03-28T16:36:07Z</time></trkpt><trkpt lat="44.71920475179899" lon="8.863634639184689"><ele>217.0</ele><time>2026-03-28T16:36:08Z</time></trkpt><trkpt lat="44.719438558176144" lon="8.863579614876414"><ele>218.0</ele><time>2026-03-28T16:36:09Z</time></trkpt><trkpt lat="44.71967221624898" lon="8.863526252828295"><ele>219.0</ele><time>2026-03-28T16:36:10Z</time></trkpt><trkpt lat="44.719904255027686" lon="8.863471007176937"><ele>218.0</ele><time>2026-03-28T16:36:11Z</time></trkpt><trkpt lat="44.72012456270114" lon="8.863414477774004"><ele>217.0</ele><time>2026-03-28T16:36:12Z</time></trkpt><trkpt lat="44.72033957619977" lon="8.863363417633733"><ele>216.0</ele><time>2026-03-28T16:36:13Z</time></trkpt><trkpt lat="44.720551837453726" lon="8.86330997016825"><ele>216.0</ele><time>2026-03-28T16:36:14Z</time></trkpt><trkpt lat="44.72076337209116" lon="8.863262229905413"><ele>216.0</ele><time>2026-03-28T16:36:15Z</time></trkpt><trkpt lat="44.7209723389066" lon="8.863210686326935"><ele>216.0</ele><time>2026-03-28T16:36:16Z</time></trkpt><trkpt lat="44.72117833415774" lon="8.863160391244149"><ele>216.33333333333331</ele><time>2026-03-28T16:36:17Z</time></trkpt><trkpt lat="44.72138177716256" lon="8.863110691550702"><ele>216.66666666666666</ele><time>2026-03-28T16:36:18Z</time></trkpt><trkpt lat="44.72158684199571" lon="8.863061654770405"><ele>217.0</ele><time>2026-03-28T16:36:19Z</time></trkpt><trkpt lat="44.72179000751194" lon="8.863010028639746"><ele>217.0</ele><time>2026-03-28T16:36:20Z</time></trkpt><trkpt lat="44.72198961722903" lon="8.862945190244286"><ele>217.0</ele><time>2026-03-28T16:36:21Z</time></trkpt><trkpt lat="44.722187927330516" lon="8.862864047177023"><ele>217.0</ele><time>2026-03-28T16:36:22Z</time></trkpt><trkpt lat="44.72238595586826" lon="8.862779603028104"><ele>217.0</ele><time>2026-03-28T16:36:23Z</time></trkpt><trkpt lat="44.722588455603535" lon="8.862696566630161"><ele>217.0</ele><time>2026-03-28T16:36:24Z</time></trkpt><trkpt lat="44.72278816637618" lon="8.86261606564025"><ele>217.0</ele><time>2026-03-28T16:36:25Z</time></trkpt><trkpt lat="44.72298602427551" lon="8.862530778936085"><ele>217.0</ele><time>2026-03-28T16:36:26Z</time></trkpt><trkpt lat="44.72318442831051" lon="8.862443755174542"><ele>217.0</ele><time>2026-03-28T16:36:27Z</time></trkpt><trkpt lat="44.72338120369889" lon="8.862355206349246"><ele>217.0</ele><time>2026-03-28T16:36:28Z</time></trkpt><trkpt lat="44.723576044777765" lon="8.862267350567983"><ele>217.0</ele><time>2026-03-28T16:36:29Z</time></trkpt><trkpt lat="44.723767958439225" lon="8.862183722509869"><ele>217.0</ele><time>2026-03-28T16:36:30Z</time></trkpt><trkpt lat="44.72395256947642" lon="8.86207601603437"><ele>217.0</ele><time>2026-03-28T16:36:31Z</time></trkpt><trkpt lat="44.72411586816525" lon="8.861922932632663"><ele>213.66666666666666</ele><time>2026-03-28T16:36:32Z</time></trkpt><trkpt lat="44.72425198999541" lon="8.861724368271604"><ele>210.33333333333331</ele><time>2026-03-28T16:36:33Z</time></trkpt><trkpt lat="44.724344384211136" lon="8.861499977209515"><ele>207.0</ele><time>2026-03-28T16:36:34Z</time></trkpt><trkpt lat="44.72441276887378" lon="8.861242600871885"><ele>207.0</ele><time>2026-03-28T16:36:35Z</time></trkpt><trkpt lat="44.72451049918913" lon="8.860994355232487"><ele>207.0</ele><time>2026-03-28T16:36:35.999Z</time></trkpt><trkpt lat="44.72459383197889" lon="8.86073517648246"><ele>207.0</ele><time>2026-03-28T16:36:36.999Z</time></trkpt><trkpt lat="44.72469038618565" lon="8.860479154932483"><ele>206.0</ele><time>2026-03-28T16:36:37.999Z</time></trkpt><trkpt lat="44.724806825584984" lon="8.860229844296514"><ele>205.0</ele><time>2026-03-28T16:36:38.999Z</time></trkpt><trkpt lat="44.724950828364726" lon="8.859999318903773"><ele>204.0</ele><time>2026-03-28T16:36:39.999Z</time></trkpt><trkpt lat="44.72510460700474" lon="8.859771445842933"><ele>198.0</ele><time>2026-03-28T16:36:40.999Z</time></trkpt><trkpt lat="44.72525614392613" lon="8.859532778351133"><ele>192.0</ele><time>2026-03-28T16:36:41.999Z</time></trkpt><trkpt lat="44.72540969913611" lon="8.859287140496972"><ele>197.5</ele><time>2026-03-28T16:36:42.999Z</time></trkpt><trkpt lat="44.72556690836474" lon="8.85903751190908"><ele>203.0</ele><time>2026-03-28T16:36:43.999Z</time></trkpt><trkpt lat="44.72572706295651" lon="8.858785939031407"><ele>203.0</ele><time>2026-03-28T16:36:44.999Z</time></trkpt><trkpt lat="44.72588596080087" lon="8.85853048106233"><ele>203.0</ele><time>2026-03-28T16:36:45.999Z</time></trkpt><trkpt lat="44.7260486129328" lon="8.858275577594329"><ele>203.0</ele><time>2026-03-28T16:36:46.999Z</time></trkpt><trkpt lat="44.7262116447592" lon="8.858017137315489"><ele>203.0</ele><time>2026-03-28T16:36:47.999Z</time></trkpt><trkpt lat="44.72637883536096" lon="8.857762098482212"><ele>206.0</ele><time>2026-03-28T16:36:48.999Z</time></trkpt><trkpt lat="44.72655596135365" lon="8.857521588229908"><ele>209.0</ele><time>2026-03-28T16:36:49.999Z</time></trkpt><trkpt lat="44.726749844617" lon="8.857313762526093"><ele>207.5</ele><time>2026-03-28T16:36:50.999Z</time></trkpt><trkpt lat="44.72696033458325" lon="8.857139918544004"><ele>206.0</ele><time>2026-03-28T16:36:51.999Z</time></trkpt><trkpt lat="44.727181284453515" lon="8.856985947573197"><ele>206.0</ele><time>2026-03-28T16:36:52.999Z</time></trkpt><trkpt lat="44.72740617413957" lon="8.856833055100305"><ele>206.0</ele><time>2026-03-28T16:36:53.999Z</time></trkpt><trkpt lat="44.727628618534865" lon="8.856687554684099"><ele>206.5</ele><time>2026-03-28T16:36:54.999Z</time></trkpt><trkpt lat="44.72785452745676" lon="8.85656181463868"><ele>207.0</ele><time>2026-03-28T16:36:55.999Z</time></trkpt><trkpt lat="44.72808887098809" lon="8.85646968729295"><ele>207.0</ele><time>2026-03-28T16:36:56.999Z</time></trkpt><trkpt lat="44.72832906091069" lon="8.85640572288179"><ele>207.0</ele><time>2026-03-28T16:36:57.999Z</time></trkpt><trkpt lat="44.728572589011456" lon="8.856376195019708"><ele>204.5</ele><time>2026-03-28T16:36:58.999Z</time></trkpt><trkpt lat="44.72881688948364" lon="8.856377757597365"><ele>202.0</ele><time>2026-03-28T16:36:59.999Z</time></trkpt><trkpt lat="44.72906924825218" lon="8.856398868148318"><ele>202.0</ele><time>2026-03-28T16:37:00.999Z</time></trkpt><trkpt lat="44.72930995167039" lon="8.856409578532928"><ele>202.0</ele><time>2026-03-28T16:37:01.999Z</time></trkpt><trkpt lat="44.72955350034094" lon="8.856414434917713"><ele>199.5</ele><time>2026-03-28T16:37:02.999Z</time></trkpt><trkpt lat="44.72979736994663" lon="8.856410596023164"><ele>197.0</ele><time>2026-03-28T16:37:03.999Z</time></trkpt><trkpt lat="44.73004046133365" lon="8.856389939934825"><ele>195.0</ele><time>2026-03-28T16:37:04.999Z</time></trkpt><trkpt lat="44.73028205361896" lon="8.856348006496008"><ele>193.0</ele><time>2026-03-28T16:37:05.999Z</time></trkpt><trkpt lat="44.73051984692891" lon="8.85628409697779"><ele>193.0</ele><time>2026-03-28T16:37:06.999Z</time></trkpt><trkpt lat="44.73075501170539" lon="8.856198111390635"><ele>193.0</ele><time>2026-03-28T16:37:07.999Z</time></trkpt><trkpt lat="44.73098713725339" lon="8.856090056927552"><ele>192.0</ele><time>2026-03-28T16:37:08.999Z</time></trkpt><trkpt lat="44.7312165168979" lon="8.855957836719385"><ele>191.0</ele><time>2026-03-28T16:37:09.999Z</time></trkpt><trkpt lat="44.7314414694639" lon="8.855801206438517"><ele>193.0</ele><time>2026-03-28T16:37:10.999Z</time></trkpt><trkpt lat="44.73166548558155" lon="8.855629442734717"><ele>195.0</ele><time>2026-03-28T16:37:11.999Z</time></trkpt><trkpt lat="44.731891872226115" lon="8.855453593797304"><ele>195.0</ele><time>2026-03-28T16:37:12.999Z</time></trkpt><trkpt lat="44.73211859349072" lon="8.855278262544397"><ele>195.0</ele><time>2026-03-28T16:37:13.999Z</time></trkpt><trkpt lat="44.73234664634371" lon="8.855100542489058"><ele>195.5</ele><time>2026-03-28T16:37:14.999Z</time></trkpt><trkpt lat="44.73257693253778" lon="8.854923260843158"><ele>196.0</ele><time>2026-03-28T16:37:15.999Z</time></trkpt><trkpt lat="44.73280763809442" lon="8.854743625611293"><ele>194.5</ele><time>2026-03-28T16:37:16.999Z</time></trkpt><trkpt lat="44.73303909030319" lon="8.854567070305674"><ele>193.0</ele><time>2026-03-28T16:37:17.999Z</time></trkpt><trkpt lat="44.73327085181688" lon="8.85438784264916"><ele>193.0</ele><time>2026-03-28T16:37:18.999Z</time></trkpt><trkpt lat="44.733501894519975" lon="8.854207593803524"><ele>193.0</ele><time>2026-03-28T16:37:19.999Z</time></trkpt><trkpt lat="44.7337335014989" lon="8.854030911171591"><ele>193.0</ele><time>2026-03-28T16:37:20.999Z</time></trkpt><trkpt lat="44.733964002762825" lon="8.853850856326444"><ele>193.0</ele><time>2026-03-28T16:37:21.999Z</time></trkpt><trkpt lat="44.73419531571399" lon="8.853672822538227"><ele>192.5</ele><time>2026-03-28T16:37:22.999Z</time></trkpt><trkpt lat="44.73442612430593" lon="8.853496218442416"><ele>192.0</ele><time>2026-03-28T16:37:23.999Z</time></trkpt><trkpt lat="44.7346577880394" lon="8.853318583728868"><ele>192.0</ele><time>2026-03-28T16:37:24.999Z</time></trkpt><trkpt lat="44.734888682799635" lon="8.853143267168003"><ele>192.0</ele><time>2026-03-28T16:37:25.999Z</time></trkpt><trkpt lat="44.73511980134533" lon="8.852965339527287"><ele>192.0</ele><time>2026-03-28T16:37:26.999Z</time></trkpt><trkpt lat="44.735352003982456" lon="8.852785287797829"><ele>192.0</ele><time>2026-03-28T16:37:27.999Z</time></trkpt><trkpt lat="44.735582651575605" lon="8.852604441438197"><ele>193.0</ele><time>2026-03-28T16:37:28.999Z</time></trkpt><trkpt lat="44.735813362767594" lon="8.852424183846702"><ele>194.0</ele><time>2026-03-28T16:37:29.999Z</time></trkpt><trkpt lat="44.73604811091782" lon="8.852245242848552"><ele>193.0</ele><time>2026-03-28T16:37:30.999Z</time></trkpt><trkpt lat="44.7362777583783" lon="8.852069342558227"><ele>192.0</ele><time>2026-03-28T16:37:31.999Z</time></trkpt><trkpt lat="44.73650657582827" lon="8.85189228563729"><ele>192.0</ele><time>2026-03-28T16:37:32.999Z</time></trkpt><trkpt lat="44.736736430907904" lon="8.851712338569854"><ele>192.0</ele><time>2026-03-28T16:37:33.999Z</time></trkpt><trkpt lat="44.73696505120817" lon="8.851533055342156"><ele>192.0</ele><time>2026-03-28T16:37:34.999Z</time></trkpt><trkpt lat="44.737190288699246" lon="8.851349544963481"><ele>192.0</ele><time>2026-03-28T16:37:35.999Z</time></trkpt><trkpt lat="44.73741328247653" lon="8.851154358940677"><ele>192.5</ele><time>2026-03-28T16:37:36.999Z</time></trkpt><trkpt lat="44.73763124021072" lon="8.85094895117919"><ele>193.0</ele><time>2026-03-28T16:37:37.999Z</time></trkpt><trkpt lat="44.737844871451955" lon="8.850733745857823"><ele>193.0</ele><time>2026-03-28T16:37:38.999Z</time></trkpt><trkpt lat="44.73805267602509" lon="8.850510130388262"><ele>193.0</ele><time>2026-03-28T16:37:39.999Z</time></trkpt><trkpt lat="44.7382569163876" lon="8.850276753531007"><ele>193.5</ele><time>2026-03-28T16:37:40.999Z</time></trkpt><trkpt lat="44.73845511938328" lon="8.850034351191859"><ele>194.0</ele><time>2026-03-28T16:37:41.999Z</time></trkpt><trkpt lat="44.738653459049644" lon="8.849788748078838"><ele>197.5</ele><time>2026-03-28T16:37:42.999Z</time></trkpt><trkpt lat="44.738846159468466" lon="8.849535412573"><ele>201.0</ele><time>2026-03-28T16:37:43.999Z</time></trkpt><trkpt lat="44.739035520248606" lon="8.849276650788102"><ele>202.0</ele><time>2026-03-28T16:37:44.999Z</time></trkpt><trkpt lat="44.73922066400791" lon="8.849010590425843"><ele>203.0</ele><time>2026-03-28T16:37:45.999Z</time></trkpt><trkpt lat="44.73940221526608" lon="8.848740897602433"><ele>204.0</ele><time>2026-03-28T16:37:46.999Z</time></trkpt><trkpt lat="44.73958652715807" lon="8.848474610076986"><ele>205.0</ele><time>2026-03-28T16:37:47.999Z</time></trkpt><trkpt lat="44.73977134134587" lon="8.848210409199137"><ele>205.0</ele><time>2026-03-28T16:37:48.999Z</time></trkpt><trkpt lat="44.739954875275885" lon="8.847944054952366"><ele>205.0</ele><time>2026-03-28T16:37:49.999Z</time></trkpt><trkpt lat="44.740139625305" lon="8.847675129754714"><ele>204.5</ele><time>2026-03-28T16:37:50.999Z</time></trkpt><trkpt lat="44.74032267518228" lon="8.847406018129877"><ele>204.0</ele><time>2026-03-28T16:37:51.999Z</time></trkpt><trkpt lat="44.74050558396759" lon="8.847136756265582"><ele>204.0</ele><time>2026-03-28T16:37:52.999Z</time></trkpt><trkpt lat="44.740693011720666" lon="8.846873982823654"><ele>204.0</ele><time>2026-03-28T16:37:54Z</time></trkpt><trkpt lat="44.74088370923775" lon="8.846616183224507"><ele>205.5</ele><time>2026-03-28T16:37:55Z</time></trkpt><trkpt lat="44.74108081855001" lon="8.846368212799367"><ele>207.0</ele><time>2026-03-28T16:37:56Z</time></trkpt><trkpt lat="44.74128205805119" lon="8.846127772559187"><ele>206.5</ele><time>2026-03-28T16:37:57Z</time></trkpt><trkpt lat="44.74148988133479" lon="8.845899885263123"><ele>206.0</ele><time>2026-03-28T16:37:58Z</time></trkpt><trkpt lat="44.74170411401712" lon="8.845686819217892"><ele>206.5</ele><time>2026-03-28T16:37:59Z</time></trkpt><trkpt lat="44.741918011820864" lon="8.845470817902282"><ele>207.0</ele><time>2026-03-28T16:38:00Z</time></trkpt><trkpt lat="44.742138904564825" lon="8.845267320827935"><ele>206.0</ele><time>2026-03-28T16:38:01Z</time></trkpt><trkpt lat="44.742366735244964" lon="8.845079002686797"><ele>205.0</ele><time>2026-03-28T16:38:02Z</time></trkpt><trkpt lat="44.742596194404264" lon="8.844900637791929"><ele>205.0</ele><time>2026-03-28T16:38:03Z</time></trkpt><trkpt lat="44.74283088096369" lon="8.844731827972037"><ele>205.0</ele><time>2026-03-28T16:38:04Z</time></trkpt><trkpt lat="44.743066182923066" lon="8.844568807159625"><ele>205.0</ele><time>2026-03-28T16:38:05Z</time></trkpt><trkpt lat="44.743305175463234" lon="8.84441361895316"><ele>205.0</ele><time>2026-03-28T16:38:06Z</time></trkpt><trkpt lat="44.743546326998626" lon="8.844265205988384"><ele>204.5</ele><time>2026-03-28T16:38:07Z</time></trkpt><trkpt lat="44.74378972485178" lon="8.844126932147654"><ele>204.0</ele><time>2026-03-28T16:38:08Z</time></trkpt><trkpt lat="44.74403458540237" lon="8.843997004314275"><ele>204.0</ele><time>2026-03-28T16:38:09Z</time></trkpt><trkpt lat="44.74428317946437" lon="8.843873955957099"><ele>204.0</ele><time>2026-03-28T16:38:10Z</time></trkpt><trkpt lat="44.74453325156026" lon="8.843755403838097"><ele>204.0</ele><time>2026-03-28T16:38:11Z</time></trkpt><trkpt lat="44.74478116148145" lon="8.843629532561582"><ele>204.0</ele><time>2026-03-28T16:38:12Z</time></trkpt><trkpt lat="44.7450291379465" lon="8.843504061968998"><ele>203.5</ele><time>2026-03-28T16:38:13Z</time></trkpt><trkpt lat="44.745277857458994" lon="8.843379319982503"><ele>203.0</ele><time>2026-03-28T16:38:14Z</time></trkpt><trkpt lat="44.745525136927206" lon="8.843255847974536"><ele>203.0</ele><time>2026-03-28T16:38:15Z</time></trkpt><trkpt lat="44.74577334717498" lon="8.843129673490363"><ele>203.0</ele><time>2026-03-28T16:38:16Z</time></trkpt><trkpt lat="44.74602184988812" lon="8.843008797851914"><ele>202.5</ele><time>2026-03-28T16:38:17Z</time></trkpt><trkpt lat="44.746270475029235" lon="8.842888883831261"><ele>202.0</ele><time>2026-03-28T16:38:18Z</time></trkpt><trkpt lat="44.74651832963517" lon="8.842768267264526"><ele>202.0</ele><time>2026-03-28T16:38:19Z</time></trkpt><trkpt lat="44.7467679464854" lon="8.842644762822689"><ele>202.0</ele><time>2026-03-28T16:38:20Z</time></trkpt><trkpt lat="44.74701608861952" lon="8.842520820850645"><ele>202.5</ele><time>2026-03-28T16:38:21Z</time></trkpt><trkpt lat="44.74726574203986" lon="8.842397493471552"><ele>203.0</ele><time>2026-03-28T16:38:22Z</time></trkpt><trkpt lat="44.74751545926621" lon="8.84227579691688"><ele>202.5</ele><time>2026-03-28T16:38:23Z</time></trkpt><trkpt lat="44.74776607837739" lon="8.84215554569294"><ele>202.0</ele><time>2026-03-28T16:38:24Z</time></trkpt><trkpt lat="44.74801531670152" lon="8.842031629077464"><ele>202.0</ele><time>2026-03-28T16:38:25Z</time></trkpt><trkpt lat="44.74826424242573" lon="8.841909321756216"><ele>202.0</ele><time>2026-03-28T16:38:26Z</time></trkpt><trkpt lat="44.748516191298485" lon="8.841786595032257"><ele>202.5</ele><time>2026-03-28T16:38:27Z</time></trkpt><trkpt lat="44.74876513746722" lon="8.841662385031686"><ele>203.0</ele><time>2026-03-28T16:38:28Z</time></trkpt><trkpt lat="44.74901421370722" lon="8.841539158216396"><ele>203.0</ele><time>2026-03-28T16:38:29Z</time></trkpt><trkpt lat="44.74926394417239" lon="8.841418353911742"><ele>203.0</ele><time>2026-03-28T16:38:30Z</time></trkpt><trkpt lat="44.74951493955376" lon="8.841298216380789"><ele>201.5</ele><time>2026-03-28T16:38:31Z</time></trkpt><trkpt lat="44.749765364131996" lon="8.841177670652362"><ele>200.0</ele><time>2026-03-28T16:38:32Z</time></trkpt><trkpt lat="44.75001635580903" lon="8.841061438514117"><ele>200.0</ele><time>2026-03-28T16:38:33Z</time></trkpt><trkpt lat="44.75026851476539" lon="8.840950110497852"><ele>200.0</ele><time>2026-03-28T16:38:34Z</time></trkpt><trkpt lat="44.75052134755926" lon="8.840843850517691"><ele>200.0</ele><time>2026-03-28T16:38:35Z</time></trkpt><trkpt lat="44.75077563020042" lon="8.840740188920725"><ele>200.0</ele><time>2026-03-28T16:38:36Z</time></trkpt><trkpt lat="44.751030201941006" lon="8.840639037857722"><ele>200.0</ele><time>2026-03-28T16:38:37Z</time></trkpt><trkpt lat="44.751285698718874" lon="8.84054049287803"><ele>200.0</ele><time>2026-03-28T16:38:38Z</time></trkpt><trkpt lat="44.75154307557382" lon="8.840445227460089"><ele>200.0</ele><time>2026-03-28T16:38:39Z</time></trkpt><trkpt lat="44.75179953403204" lon="8.840351918812164"><ele>200.0</ele><time>2026-03-28T16:38:40Z</time></trkpt><trkpt lat="44.75205711501864" lon="8.84026332797329"><ele>199.5</ele><time>2026-03-28T16:38:41Z</time></trkpt><trkpt lat="44.752315636660136" lon="8.84017797524755"><ele>199.0</ele><time>2026-03-28T16:38:42Z</time></trkpt><trkpt lat="44.7525758959302" lon="8.840094073177616"><ele>198.5</ele><time>2026-03-28T16:38:43Z</time></trkpt><trkpt lat="44.75283507342723" lon="8.840014000755248"><ele>198.0</ele><time>2026-03-28T16:38:43.999Z</time></trkpt><trkpt lat="44.75309286851388" lon="8.839930938373143"><ele>198.0</ele><time>2026-03-28T16:38:44.999Z</time></trkpt><trkpt lat="44.75335280256224" lon="8.83985077139757"><ele>198.0</ele><time>2026-03-28T16:38:45.999Z</time></trkpt><trkpt lat="44.753610682884876" lon="8.839770719775183"><ele>198.0</ele><time>2026-03-28T16:38:46.999Z</time></trkpt><trkpt lat="44.753869634943676" lon="8.83969103756069"><ele>198.0</ele><time>2026-03-28T16:38:47.999Z</time></trkpt><trkpt lat="44.754129587352665" lon="8.839611065459263"><ele>197.5</ele><time>2026-03-28T16:38:48.999Z</time></trkpt><trkpt lat="44.7543893353016" lon="8.839530881338302"><ele>197.0</ele><time>2026-03-28T16:38:49.999Z</time></trkpt><trkpt lat="44.75464916570836" lon="8.839453081970648"><ele>197.0</ele><time>2026-03-28T16:38:50.999Z</time></trkpt><trkpt lat="44.75490891753691" lon="8.839371872715931"><ele>197.0</ele><time>2026-03-28T16:38:51.999Z</time></trkpt><trkpt lat="44.7551682404147" lon="8.839289997201549"><ele>196.5</ele><time>2026-03-28T16:38:52.999Z</time></trkpt><trkpt lat="44.75542675727643" lon="8.839205937425048"><ele>196.0</ele><time>2026-03-28T16:38:53.999Z</time></trkpt><trkpt lat="44.75568542985671" lon="8.839126815702055"><ele>196.0</ele><time>2026-03-28T16:38:54.999Z</time></trkpt><trkpt lat="44.75594409666372" lon="8.839044515183476"><ele>196.0</ele><time>2026-03-28T16:38:55.999Z</time></trkpt><trkpt lat="44.75620368363043" lon="8.838968814719253"><ele>195.5</ele><time>2026-03-28T16:38:56.999Z</time></trkpt><trkpt lat="44.756460345183704" lon="8.838897287818778"><ele>195.0</ele><time>2026-03-28T16:38:57.999Z</time></trkpt><trkpt lat="44.756718393912585" lon="8.838823614799717"><ele>194.5</ele><time>2026-03-28T16:38:58.999Z</time></trkpt><trkpt lat="44.75697327755423" lon="8.8387437286911"><ele>194.0</ele><time>2026-03-28T16:38:59.999Z</time></trkpt><trkpt lat="44.75723279996523" lon="8.838666258008336"><ele>194.0</ele><time>2026-03-28T16:39:00.999Z</time></trkpt><trkpt lat="44.757492575280295" lon="8.838587702976154"><ele>194.0</ele><time>2026-03-28T16:39:01.999Z</time></trkpt><trkpt lat="44.757751575157" lon="8.838512755835305"><ele>192.5</ele><time>2026-03-28T16:39:02.999Z</time></trkpt><trkpt lat="44.7580105061973" lon="8.838436966263883"><ele>191.0</ele><time>2026-03-28T16:39:03.999Z</time></trkpt><trkpt lat="44.75826996973987" lon="8.838365338678509"><ele>191.0</ele><time>2026-03-28T16:39:04.999Z</time></trkpt><trkpt lat="44.7585288246593" lon="8.838294671579476"><ele>191.0</ele><time>2026-03-28T16:39:05.999Z</time></trkpt><trkpt lat="44.758786868001216" lon="8.83823022149158"><ele>192.5</ele><time>2026-03-28T16:39:06.999Z</time></trkpt><trkpt lat="44.759048385644896" lon="8.838170340961522"><ele>194.0</ele><time>2026-03-28T16:39:07.999Z</time></trkpt><trkpt lat="44.75931031720997" lon="8.838114895056181"><ele>194.5</ele><time>2026-03-28T16:39:08.999Z</time></trkpt><trkpt lat="44.759571591986116" lon="8.838059335847287"><ele>195.0</ele><time>2026-03-28T16:39:09.999Z</time></trkpt><trkpt lat="44.7598303353244" lon="8.838004697869572"><ele>195.0</ele><time>2026-03-28T16:39:10.999Z</time></trkpt><trkpt lat="44.76009147911244" lon="8.837957836716466"><ele>195.0</ele><time>2026-03-28T16:39:11.999Z</time></trkpt><trkpt lat="44.760352930583345" lon="8.837913403142359"><ele>194.5</ele><time>2026-03-28T16:39:12.999Z</time></trkpt><trkpt lat="44.76061619821037" lon="8.837872057791307"><ele>194.0</ele><time>2026-03-28T16:39:13.999Z</time></trkpt><trkpt lat="44.76087996256398" lon="8.837832056886421"><ele>193.5</ele><time>2026-03-28T16:39:14.999Z</time></trkpt><trkpt lat="44.76114267090632" lon="8.837798694449674"><ele>193.0</ele><time>2026-03-28T16:39:15.999Z</time></trkpt><trkpt lat="44.76140588460298" lon="8.837769810773946"><ele>193.0</ele><time>2026-03-28T16:39:16.999Z</time></trkpt><trkpt lat="44.76166705644322" lon="8.83774228314653"><ele>193.0</ele><time>2026-03-28T16:39:17.999Z</time></trkpt><trkpt lat="44.761929931564275" lon="8.837717844515264"><ele>193.0</ele><time>2026-03-28T16:39:18.999Z</time></trkpt><trkpt lat="44.76219283471766" lon="8.837695309666406"><ele>193.0</ele><time>2026-03-28T16:39:19.999Z</time></trkpt><trkpt lat="44.76245444396648" lon="8.837674564459943"><ele>192.5</ele><time>2026-03-28T16:39:20.999Z</time></trkpt><trkpt lat="44.76271804891722" lon="8.837651747066253"><ele>192.0</ele><time>2026-03-28T16:39:21.999Z</time></trkpt><trkpt lat="44.76298229271022" lon="8.837627419758338"><ele>192.0</ele><time>2026-03-28T16:39:22.999Z</time></trkpt><trkpt lat="44.76324467810011" lon="8.83760578726448"><ele>192.0</ele><time>2026-03-28T16:39:23.999Z</time></trkpt><trkpt lat="44.76350812072106" lon="8.837582966001781"><ele>191.5</ele><time>2026-03-28T16:39:24.999Z</time></trkpt><trkpt lat="44.76377132156305" lon="8.837560594276512"><ele>191.0</ele><time>2026-03-28T16:39:25.999Z</time></trkpt><trkpt lat="44.764035140165575" lon="8.837536666560018"><ele>191.0</ele><time>2026-03-28T16:39:26.999Z</time></trkpt><trkpt lat="44.764296868939105" lon="8.837512494655556"><ele>191.0</ele><time>2026-03-28T16:39:27.999Z</time></trkpt><trkpt lat="44.76455950343698" lon="8.837488401735945"><ele>190.5</ele><time>2026-03-28T16:39:28.999Z</time></trkpt><trkpt lat="44.76482255677305" lon="8.837461606559634"><ele>190.0</ele><time>2026-03-28T16:39:29.999Z</time></trkpt><trkpt lat="44.765085390409205" lon="8.837437856865181"><ele>190.0</ele><time>2026-03-28T16:39:30.999Z</time></trkpt><trkpt lat="44.76534783755997" lon="8.837411972295012"><ele>190.0</ele><time>2026-03-28T16:39:31.999Z</time></trkpt><trkpt lat="44.76561052568174" lon="8.837385245194572"><ele>190.0</ele><time>2026-03-28T16:39:32.999Z</time></trkpt><trkpt lat="44.76587415486345" lon="8.837358705739698"><ele>190.0</ele><time>2026-03-28T16:39:33.999Z</time></trkpt><trkpt lat="44.766137546485695" lon="8.837333401134641"><ele>190.5</ele><time>2026-03-28T16:39:34.999Z</time></trkpt><trkpt lat="44.766400672969695" lon="8.83731265900646"><ele>191.0</ele><time>2026-03-28T16:39:35.999Z</time></trkpt><trkpt lat="44.76666428954161" lon="8.83729154699221"><ele>190.5</ele><time>2026-03-28T16:39:36.999Z</time></trkpt><trkpt lat="44.766927309356234" lon="8.837269257560088"><ele>190.0</ele><time>2026-03-28T16:39:37.999Z</time></trkpt><trkpt lat="44.76719055677272" lon="8.837248248944029"><ele>190.0</ele><time>2026-03-28T16:39:38.999Z</time></trkpt><trkpt lat="44.767453347532324" lon="8.837224285263552"><ele>190.0</ele><time>2026-03-28T16:39:39.999Z</time></trkpt><trkpt lat="44.76771580121864" lon="8.837200729265074"><ele>188.0</ele><time>2026-03-28T16:39:40.999Z</time></trkpt><trkpt lat="44.767976391912356" lon="8.837175968391087"><ele>186.0</ele><time>2026-03-28T16:39:41.999Z</time></trkpt><trkpt lat="44.76823998124368" lon="8.837149425417364"><ele>186.0</ele><time>2026-03-28T16:39:42.999Z</time></trkpt><trkpt lat="44.76850189198013" lon="8.837122513712162"><ele>186.0</ele><time>2026-03-28T16:39:43.999Z</time></trkpt><trkpt lat="44.76876429021162" lon="8.837099166308558"><ele>187.0</ele><time>2026-03-28T16:39:44.999Z</time></trkpt><trkpt lat="44.76902960632083" lon="8.837073370526111"><ele>188.0</ele><time>2026-03-28T16:39:45.999Z</time></trkpt><trkpt lat="44.76929154326949" lon="8.837047431574346"><ele>188.0</ele><time>2026-03-28T16:39:46.999Z</time></trkpt><trkpt lat="44.76955501183909" lon="8.8370237386707"><ele>188.0</ele><time>2026-03-28T16:39:47.999Z</time></trkpt><trkpt lat="44.7698188844589" lon="8.837000880224052"><ele>188.0</ele><time>2026-03-28T16:39:48.999Z</time></trkpt><trkpt lat="44.7700816129887" lon="8.836977297443543"><ele>188.0</ele><time>2026-03-28T16:39:49.999Z</time></trkpt><trkpt lat="44.77034401653581" lon="8.836952036187565"><ele>189.0</ele><time>2026-03-28T16:39:50.999Z</time></trkpt><trkpt lat="44.77060622400798" lon="8.836923480848254"><ele>190.0</ele><time>2026-03-28T16:39:51.999Z</time></trkpt><trkpt lat="44.77086850315348" lon="8.836901066430164"><ele>190.0</ele><time>2026-03-28T16:39:52.999Z</time></trkpt><trkpt lat="44.771131326016466" lon="8.836877384356798"><ele>190.0</ele><time>2026-03-28T16:39:53.999Z</time></trkpt><trkpt lat="44.77139501152435" lon="8.836851804580462"><ele>190.0</ele><time>2026-03-28T16:39:54.999Z</time></trkpt><trkpt lat="44.771657818959966" lon="8.836828143704587"><ele>190.0</ele><time>2026-03-28T16:39:55.999Z</time></trkpt><trkpt lat="44.77192106098587" lon="8.836807487399328"><ele>189.0</ele><time>2026-03-28T16:39:56.999Z</time></trkpt><trkpt lat="44.77218519477779" lon="8.836783835849229"><ele>188.0</ele><time>2026-03-28T16:39:57.999Z</time></trkpt><trkpt lat="44.772448910551425" lon="8.836756919208824"><ele>187.0</ele><time>2026-03-28T16:39:58.999Z</time></trkpt><trkpt lat="44.77271422583355" lon="8.836737258372109"><ele>186.0</ele><time>2026-03-28T16:40:00Z</time></trkpt><trkpt lat="44.772977485494934" lon="8.836714096571724"><ele>186.0</ele><time>2026-03-28T16:40:01Z</time></trkpt><trkpt lat="44.77324175725586" lon="8.83668980958746"><ele>186.0</ele><time>2026-03-28T16:40:02Z</time></trkpt><trkpt lat="44.77350553128343" lon="8.836666764376291"><ele>185.0</ele><time>2026-03-28T16:40:03Z</time></trkpt><trkpt lat="44.77376787192518" lon="8.836641168261352"><ele>184.0</ele><time>2026-03-28T16:40:04Z</time></trkpt><trkpt lat="44.7740304260154" lon="8.836611794064822"><ele>184.0</ele><time>2026-03-28T16:40:05Z</time></trkpt><trkpt lat="44.77429267158332" lon="8.836587472073939"><ele>184.0</ele><time>2026-03-28T16:40:06Z</time></trkpt><trkpt lat="44.774556190277835" lon="8.836563043888365"><ele>183.5</ele><time>2026-03-28T16:40:07Z</time></trkpt><trkpt lat="44.7748197975035" lon="8.836538376094271"><ele>183.0</ele><time>2026-03-28T16:40:08Z</time></trkpt><trkpt lat="44.77508560817789" lon="8.836515825730904"><ele>183.0</ele><time>2026-03-28T16:40:09Z</time></trkpt><trkpt lat="44.775349096668535" lon="8.83649416658585"><ele>183.0</ele><time>2026-03-28T16:40:10Z</time></trkpt><trkpt lat="44.7756118248876" lon="8.836469722992337"><ele>183.0</ele><time>2026-03-28T16:40:11Z</time></trkpt><trkpt lat="44.77587593978513" lon="8.836445782260148"><ele>183.0</ele><time>2026-03-28T16:40:12Z</time></trkpt><trkpt lat="44.77613935392048" lon="8.836417057390443"><ele>182.5</ele><time>2026-03-28T16:40:13Z</time></trkpt><trkpt lat="44.77640262931404" lon="8.836395676917245"><ele>182.0</ele><time>2026-03-28T16:40:14Z</time></trkpt><trkpt lat="44.77666550267396" lon="8.836369365113336"><ele>183.0</ele><time>2026-03-28T16:40:15Z</time></trkpt><trkpt lat="44.776928339385655" lon="8.836346860978749"><ele>184.0</ele><time>2026-03-28T16:40:16Z</time></trkpt><trkpt lat="44.77719019593953" lon="8.836327704392916"><ele>184.0</ele><time>2026-03-28T16:40:17Z</time></trkpt><trkpt lat="44.777453444815265" lon="8.83630150373654"><ele>184.0</ele><time>2026-03-28T16:40:18Z</time></trkpt><trkpt lat="44.7777157985479" lon="8.83627925598783"><ele>183.5</ele><time>2026-03-28T16:40:19Z</time></trkpt><trkpt lat="44.77797863205691" lon="8.836248767438477"><ele>183.0</ele><time>2026-03-28T16:40:20Z</time></trkpt><trkpt lat="44.77824140187651" lon="8.836219783210183"><ele>183.0</ele><time>2026-03-28T16:40:21Z</time></trkpt><trkpt lat="44.778503795097095" lon="8.836198368366222"><ele>183.0</ele><time>2026-03-28T16:40:22Z</time></trkpt><trkpt lat="44.77876598543362" lon="8.836170433612804"><ele>182.0</ele><time>2026-03-28T16:40:23Z</time></trkpt><trkpt lat="44.779029389097275" lon="8.836147933240172"><ele>181.0</ele><time>2026-03-28T16:40:24Z</time></trkpt><trkpt lat="44.77929223718131" lon="8.836121485325883"><ele>182.0</ele><time>2026-03-28T16:40:25Z</time></trkpt><trkpt lat="44.77955435752699" lon="8.836090397759953"><ele>183.0</ele><time>2026-03-28T16:40:26Z</time></trkpt><trkpt lat="44.77981633538209" lon="8.836057525536694"><ele>183.0</ele><time>2026-03-28T16:40:27Z</time></trkpt><trkpt lat="44.78007912780587" lon="8.836023233283852"><ele>183.0</ele><time>2026-03-28T16:40:28Z</time></trkpt><trkpt lat="44.78034113712894" lon="8.835980880552691"><ele>183.5</ele><time>2026-03-28T16:40:29Z</time></trkpt><trkpt lat="44.78060258651079" lon="8.835941475079155"><ele>184.0</ele><time>2026-03-28T16:40:30Z</time></trkpt><trkpt lat="44.78086429175256" lon="8.835900865699651"><ele>182.5</ele><time>2026-03-28T16:40:31Z</time></trkpt><trkpt lat="44.78112556943517" lon="8.83585288592626"><ele>181.0</ele><time>2026-03-28T16:40:32Z</time></trkpt><trkpt lat="44.78138636237999" lon="8.835807814623312"><ele>181.0</ele><time>2026-03-28T16:40:33Z</time></trkpt><trkpt lat="44.78164682284801" lon="8.835759013630895"><ele>181.0</ele><time>2026-03-28T16:40:34Z</time></trkpt><trkpt lat="44.78190777838356" lon="8.835716899461525"><ele>180.5</ele><time>2026-03-28T16:40:35Z</time></trkpt><trkpt lat="44.78216902885711" lon="8.835672034406844"><ele>180.0</ele><time>2026-03-28T16:40:36Z</time></trkpt><trkpt lat="44.78242977344182" lon="8.835625677593324"><ele>180.5</ele><time>2026-03-28T16:40:37Z</time></trkpt><trkpt lat="44.782690729242276" lon="8.835578038896951"><ele>181.0</ele><time>2026-03-28T16:40:38Z</time></trkpt><trkpt lat="44.782953540839976" lon="8.835531770064268"><ele>181.0</ele><time>2026-03-28T16:40:39Z</time></trkpt><trkpt lat="44.78321439131198" lon="8.835484233693142"><ele>181.0</ele><time>2026-03-28T16:40:40Z</time></trkpt><trkpt lat="44.783477422416446" lon="8.83543786955342"><ele>180.0</ele><time>2026-03-28T16:40:41Z</time></trkpt><trkpt lat="44.783738576169824" lon="8.835391256575708"><ele>179.0</ele><time>2026-03-28T16:40:42Z</time></trkpt><trkpt lat="44.784000351871704" lon="8.835343736597368"><ele>179.0</ele><time>2026-03-28T16:40:43Z</time></trkpt><trkpt lat="44.78426099460099" lon="8.835296448281325"><ele>179.0</ele><time>2026-03-28T16:40:44Z</time></trkpt><trkpt lat="44.78452227946937" lon="8.83524946013397"><ele>179.0</ele><time>2026-03-28T16:40:45Z</time></trkpt><trkpt lat="44.78478319010466" lon="8.83520174118257"><ele>179.0</ele><time>2026-03-28T16:40:46Z</time></trkpt><trkpt lat="44.78504470266336" lon="8.835156407816205"><ele>178.5</ele><time>2026-03-28T16:40:47Z</time></trkpt><trkpt lat="44.785306882505886" lon="8.835110342707178"><ele>178.0</ele><time>2026-03-28T16:40:48Z</time></trkpt><trkpt lat="44.78556844800318" lon="8.835066223560348"><ele>178.0</ele><time>2026-03-28T16:40:49Z</time></trkpt><trkpt lat="44.78583069159949" lon="8.835019953728542"><ele>178.0</ele><time>2026-03-28T16:40:50Z</time></trkpt><trkpt lat="44.786091267478945" lon="8.83497155020739"><ele>178.5</ele><time>2026-03-28T16:40:51Z</time></trkpt><trkpt lat="44.78635368615591" lon="8.834927847595715"><ele>179.0</ele><time>2026-03-28T16:40:52Z</time></trkpt><trkpt lat="44.78661555194941" lon="8.834882289707618"><ele>179.0</ele><time>2026-03-28T16:40:53Z</time></trkpt><trkpt lat="44.78687651990683" lon="8.834836832505415"><ele>179.0</ele><time>2026-03-28T16:40:54Z</time></trkpt><trkpt lat="44.78713695982099" lon="8.834791045260987"><ele>179.0</ele><time>2026-03-28T16:40:55Z</time></trkpt><trkpt lat="44.7873987385142" lon="8.834745386216575"><ele>179.0</ele><time>2026-03-28T16:40:56Z</time></trkpt><trkpt lat="44.78766022363582" lon="8.834694695901923"><ele>178.5</ele><time>2026-03-28T16:40:57Z</time></trkpt><trkpt lat="44.78792108994711" lon="8.834649097381927"><ele>178.0</ele><time>2026-03-28T16:40:57.999Z</time></trkpt><trkpt lat="44.788181668021785" lon="8.834600596241765"><ele>178.0</ele><time>2026-03-28T16:40:58.999Z</time></trkpt><trkpt lat="44.788444599355415" lon="8.83455752650824"><ele>178.0</ele><time>2026-03-28T16:40:59.999Z</time></trkpt><trkpt lat="44.78870868635331" lon="8.834517566747873"><ele>177.5</ele><time>2026-03-28T16:41:00.999Z</time></trkpt><trkpt lat="44.78897095548168" lon="8.83447427932158"><ele>177.0</ele><time>2026-03-28T16:41:01.999Z</time></trkpt><trkpt lat="44.78923341045099" lon="8.834426913350244"><ele>176.5</ele><time>2026-03-28T16:41:02.999Z</time></trkpt><trkpt lat="44.78949514521355" lon="8.834380343930503"><ele>176.0</ele><time>2026-03-28T16:41:03.999Z</time></trkpt><trkpt lat="44.78975674650612" lon="8.834333169297695"><ele>175.5</ele><time>2026-03-28T16:41:04.999Z</time></trkpt><trkpt lat="44.790018523880995" lon="8.83428423235898"><ele>175.0</ele><time>2026-03-28T16:41:05.999Z</time></trkpt><trkpt lat="44.79028082840766" lon="8.834237935796649"><ele>175.0</ele><time>2026-03-28T16:41:06.999Z</time></trkpt><trkpt lat="44.79054302100528" lon="8.83418886410415"><ele>175.0</ele><time>2026-03-28T16:41:07.999Z</time></trkpt><trkpt lat="44.7908050612877" lon="8.834139446240552"><ele>174.5</ele><time>2026-03-28T16:41:08.999Z</time></trkpt><trkpt lat="44.7910683380809" lon="8.834091687991505"><ele>174.0</ele><time>2026-03-28T16:41:09.999Z</time></trkpt><trkpt lat="44.791329433529306" lon="8.834044740939568"><ele>174.0</ele><time>2026-03-28T16:41:10.999Z</time></trkpt><trkpt lat="44.79159204005674" lon="8.833997107452408"><ele>174.0</ele><time>2026-03-28T16:41:11.999Z</time></trkpt><trkpt lat="44.791854613923405" lon="8.833950695611787"><ele>175.0</ele><time>2026-03-28T16:41:12.999Z</time></trkpt><trkpt lat="44.7921183895896" lon="8.833906511139144"><ele>176.0</ele><time>2026-03-28T16:41:13.999Z</time></trkpt><trkpt lat="44.7923827623952" lon="8.833862330247666"><ele>176.0</ele><time>2026-03-28T16:41:14.999Z</time></trkpt><trkpt lat="44.79264588477791" lon="8.833816876927909"><ele>176.0</ele><time>2026-03-28T16:41:15.999Z</time></trkpt><trkpt lat="44.79290962514067" lon="8.833769313529027"><ele>175.0</ele><time>2026-03-28T16:41:16.999Z</time></trkpt><trkpt lat="44.79317008842503" lon="8.833718533085937"><ele>174.0</ele><time>2026-03-28T16:41:17.999Z</time></trkpt><trkpt lat="44.793434354467294" lon="8.833675199964398"><ele>174.0</ele><time>2026-03-28T16:41:18.999Z</time></trkpt><trkpt lat="44.79369702906504" lon="8.833632481794812"><ele>174.0</ele><time>2026-03-28T16:41:19.999Z</time></trkpt><trkpt lat="44.79396025328774" lon="8.833586100067722"><ele>174.0</ele><time>2026-03-28T16:41:20.999Z</time></trkpt><trkpt lat="44.794223351224005" lon="8.833537347043283"><ele>174.0</ele><time>2026-03-28T16:41:21.999Z</time></trkpt><trkpt lat="44.79448568512705" lon="8.833489035171912"><ele>173.5</ele><time>2026-03-28T16:41:22.999Z</time></trkpt><trkpt lat="44.79474883480507" lon="8.833443802774942"><ele>173.0</ele><time>2026-03-28T16:41:23.999Z</time></trkpt><trkpt lat="44.79501154857304" lon="8.833396115028139"><ele>172.5</ele><time>2026-03-28T16:41:24.999Z</time></trkpt><trkpt lat="44.795273944659414" lon="8.833345347377506"><ele>172.0</ele><time>2026-03-28T16:41:25.999Z</time></trkpt><trkpt lat="44.79553615194237" lon="8.833295939035974"><ele>172.0</ele><time>2026-03-28T16:41:26.999Z</time></trkpt><trkpt lat="44.795797664654124" lon="8.833249597217023"><ele>172.0</ele><time>2026-03-28T16:41:27.999Z</time></trkpt><trkpt lat="44.79606047898063" lon="8.833206011606707"><ele>171.0</ele><time>2026-03-28T16:41:28.999Z</time></trkpt><trkpt lat="44.79632303046617" lon="8.833162993179903"><ele>170.0</ele><time>2026-03-28T16:41:29.999Z</time></trkpt><trkpt lat="44.79658685323115" lon="8.833115899835464"><ele>171.0</ele><time>2026-03-28T16:41:30.999Z</time></trkpt><trkpt lat="44.7968489699617" lon="8.833070263972974"><ele>172.0</ele><time>2026-03-28T16:41:31.999Z</time></trkpt><trkpt lat="44.797111908152544" lon="8.833027244579164"><ele>172.0</ele><time>2026-03-28T16:41:32.999Z</time></trkpt><trkpt lat="44.79737618696143" lon="8.832982873474007"><ele>172.0</ele><time>2026-03-28T16:41:33.999Z</time></trkpt><trkpt lat="44.79763840847554" lon="8.832933048790856"><ele>171.5</ele><time>2026-03-28T16:41:34.999Z</time></trkpt><trkpt lat="44.79790059444841" lon="8.832884068924093"><ele>171.0</ele><time>2026-03-28T16:41:35.999Z</time></trkpt><trkpt lat="44.79816286882511" lon="8.832838224238944"><ele>171.0</ele><time>2026-03-28T16:41:36.999Z</time></trkpt><trkpt lat="44.79842471103934" lon="8.832792992018756"><ele>171.0</ele><time>2026-03-28T16:41:37.999Z</time></trkpt><trkpt lat="44.798687161006356" lon="8.832746823266298"><ele>170.5</ele><time>2026-03-28T16:41:38.999Z</time></trkpt><trkpt lat="44.79894943303809" lon="8.832697427703799"><ele>170.0</ele><time>2026-03-28T16:41:39.999Z</time></trkpt><trkpt lat="44.79920965459427" lon="8.832646766055904"><ele>169.0</ele><time>2026-03-28T16:41:40.999Z</time></trkpt><trkpt lat="44.79946884806298" lon="8.832591862539044"><ele>168.0</ele><time>2026-03-28T16:41:41.999Z</time></trkpt><trkpt lat="44.79972836851377" lon="8.832536872340228"><ele>168.0</ele><time>2026-03-28T16:41:42.999Z</time></trkpt><trkpt lat="44.79998956535801" lon="8.832483372822447"><ele>168.0</ele><time>2026-03-28T16:41:43.999Z</time></trkpt><trkpt lat="44.80025089321282" lon="8.832421246810844"><ele>169.0</ele><time>2026-03-28T16:41:44.999Z</time></trkpt><trkpt lat="44.80051116523219" lon="8.832355619031267"><ele>170.0</ele><time>2026-03-28T16:41:45.999Z</time></trkpt><trkpt lat="44.80077069965585" lon="8.832285709456919"><ele>169.0</ele><time>2026-03-28T16:41:46.999Z</time></trkpt><trkpt lat="44.80102888597129" lon="8.832212436777223"><ele>168.0</ele><time>2026-03-28T16:41:47.999Z</time></trkpt><trkpt lat="44.80128737534696" lon="8.832134882631845"><ele>168.0</ele><time>2026-03-28T16:41:48.999Z</time></trkpt><trkpt lat="44.801544153616206" lon="8.832055426285468"><ele>168.0</ele><time>2026-03-28T16:41:49.999Z</time></trkpt><trkpt lat="44.801801876348726" lon="8.831971037047099"><ele>167.5</ele><time>2026-03-28T16:41:50.999Z</time></trkpt><trkpt lat="44.802059739168506" lon="8.831884569002789"><ele>167.0</ele><time>2026-03-28T16:41:51.999Z</time></trkpt><trkpt lat="44.80231734197335" lon="8.831797475362368"><ele>168.0</ele><time>2026-03-28T16:41:52.999Z</time></trkpt><trkpt lat="44.8025729986037" lon="8.8317124719217"><ele>169.0</ele><time>2026-03-28T16:41:53.999Z</time></trkpt><trkpt lat="44.80283038119264" lon="8.831623836609245"><ele>169.0</ele><time>2026-03-28T16:41:54.999Z</time></trkpt><trkpt lat="44.80308724714221" lon="8.831537563340069"><ele>169.0</ele><time>2026-03-28T16:41:55.999Z</time></trkpt><trkpt lat="44.80334267395071" lon="8.831452332615283"><ele>168.0</ele><time>2026-03-28T16:41:56.999Z</time></trkpt><trkpt lat="44.80360082713399" lon="8.831372779477826"><ele>167.0</ele><time>2026-03-28T16:41:57.999Z</time></trkpt><trkpt lat="44.803858119968254" lon="8.831285038051186"><ele>167.0</ele><time>2026-03-28T16:41:58.999Z</time></trkpt><trkpt lat="44.80411699541364" lon="8.831204913388179"><ele>167.0</ele><time>2026-03-28T16:41:59.999Z</time></trkpt><trkpt lat="44.80437585256153" lon="8.831121038214592"><ele>167.0</ele><time>2026-03-28T16:42:00.999Z</time></trkpt><trkpt lat="44.804632488793295" lon="8.831037556717865"><ele>167.0</ele><time>2026-03-28T16:42:01.999Z</time></trkpt><trkpt lat="44.80489033013679" lon="8.830955179373694"><ele>167.0</ele><time>2026-03-28T16:42:02.999Z</time></trkpt><trkpt lat="44.805149532281774" lon="8.830873246973505"><ele>167.0</ele><time>2026-03-28T16:42:03.999Z</time></trkpt><trkpt lat="44.80540894365617" lon="8.83078892611495"><ele>166.0</ele><time>2026-03-28T16:42:04.999Z</time></trkpt><trkpt lat="44.805665136321245" lon="8.830701989205803"><ele>165.0</ele><time>2026-03-28T16:42:06Z</time></trkpt><trkpt lat="44.80592437336605" lon="8.83062021118644"><ele>165.0</ele><time>2026-03-28T16:42:07Z</time></trkpt><trkpt lat="44.80617977105022" lon="8.830534178099015"><ele>165.0</ele><time>2026-03-28T16:42:08Z</time></trkpt><trkpt lat="44.80643837056877" lon="8.830465005085124"><ele>165.0</ele><time>2026-03-28T16:42:09Z</time></trkpt><trkpt lat="44.80669728345373" lon="8.830392105932388"><ele>165.0</ele><time>2026-03-28T16:42:10Z</time></trkpt><trkpt lat="44.80695483166661" lon="8.830323436241615"><ele>165.0</ele><time>2026-03-28T16:42:11Z</time></trkpt><trkpt lat="44.80721498056162" lon="8.830255590983151"><ele>165.0</ele><time>2026-03-28T16:42:12Z</time></trkpt><trkpt lat="44.807476324811475" lon="8.83019237322136"><ele>164.0</ele><time>2026-03-28T16:42:13Z</time></trkpt><trkpt lat="44.8077373668196" lon="8.830133430266976"><ele>163.0</ele><time>2026-03-28T16:42:14Z</time></trkpt><trkpt lat="44.807995325675584" lon="8.830074413499698"><ele>163.0</ele><time>2026-03-28T16:42:15Z</time></trkpt><trkpt lat="44.808258579740226" lon="8.830023245626268"><ele>163.0</ele><time>2026-03-28T16:42:16Z</time></trkpt><trkpt lat="44.80852194020246" lon="8.829979508718678"><ele>162.0</ele><time>2026-03-28T16:42:17Z</time></trkpt><trkpt lat="44.808787604392414" lon="8.829941714758379"><ele>161.0</ele><time>2026-03-28T16:42:18Z</time></trkpt><trkpt lat="44.80905227985174" lon="8.82990333674131"><ele>161.0</ele><time>2026-03-28T16:42:19Z</time></trkpt><trkpt lat="44.809316331815204" lon="8.829867841654155"><ele>161.0</ele><time>2026-03-28T16:42:20Z</time></trkpt><trkpt lat="44.80958022096904" lon="8.829836059213187"><ele>161.5</ele><time>2026-03-28T16:42:21Z</time></trkpt><trkpt lat="44.80984489490075" lon="8.829810571974027"><ele>162.0</ele><time>2026-03-28T16:42:22Z</time></trkpt><trkpt lat="44.81010855112044" lon="8.829783653291448"><ele>162.0</ele><time>2026-03-28T16:42:23Z</time></trkpt><trkpt lat="44.81037259377758" lon="8.829760530950473"><ele>162.0</ele><time>2026-03-28T16:42:24Z</time></trkpt><trkpt lat="44.81063817476503" lon="8.82973943559152"><ele>162.0</ele><time>2026-03-28T16:42:25Z</time></trkpt><trkpt lat="44.810902121607654" lon="8.829715189509727"><ele>162.0</ele><time>2026-03-28T16:42:26Z</time></trkpt><trkpt lat="44.81116632773089" lon="8.829690748099072"><ele>162.0</ele><time>2026-03-28T16:42:27Z</time></trkpt><trkpt lat="44.811431252923654" lon="8.82966743525761"><ele>162.0</ele><time>2026-03-28T16:42:28Z</time></trkpt><trkpt lat="44.81169551891392" lon="8.829642518456271"><ele>161.5</ele><time>2026-03-28T16:42:29Z</time></trkpt><trkpt lat="44.811960296376135" lon="8.829619100413161"><ele>161.0</ele><time>2026-03-28T16:42:30Z</time></trkpt><trkpt lat="44.81222561093233" lon="8.829592362814575"><ele>161.0</ele><time>2026-03-28T16:42:31Z</time></trkpt><trkpt lat="44.812488799394366" lon="8.829568828544915"><ele>161.0</ele><time>2026-03-28T16:42:32Z</time></trkpt><trkpt lat="44.81275256362483" lon="8.829545304216227"><ele>161.0</ele><time>2026-03-28T16:42:33Z</time></trkpt><trkpt lat="44.81301713724679" lon="8.829522864580094"><ele>161.0</ele><time>2026-03-28T16:42:34Z</time></trkpt><trkpt lat="44.81328169204366" lon="8.829498681239698"><ele>161.0</ele><time>2026-03-28T16:42:35Z</time></trkpt><trkpt lat="44.813545746666826" lon="8.829476748340921"><ele>161.0</ele><time>2026-03-28T16:42:36Z</time></trkpt><trkpt lat="44.813809164559075" lon="8.82945253735679"><ele>161.0</ele><time>2026-03-28T16:42:37Z</time></trkpt><trkpt lat="44.81407377336682" lon="8.829427357990468"><ele>161.0</ele><time>2026-03-28T16:42:38Z</time></trkpt><trkpt lat="44.814338482683866" lon="8.829401636742553"><ele>160.0</ele><time>2026-03-28T16:42:39Z</time></trkpt><trkpt lat="44.81460188747991" lon="8.82937413614319"><ele>159.0</ele><time>2026-03-28T16:42:40Z</time></trkpt><trkpt lat="44.814865399190595" lon="8.829349717016077"><ele>159.0</ele><time>2026-03-28T16:42:41Z</time></trkpt><trkpt lat="44.81512956705277" lon="8.829323834083699"><ele>159.0</ele><time>2026-03-28T16:42:42Z</time></trkpt><trkpt lat="44.81539346321128" lon="8.829298372521317"><ele>159.5</ele><time>2026-03-28T16:42:43Z</time></trkpt><trkpt lat="44.8156576195098" lon="8.829275616044129"><ele>160.0</ele><time>2026-03-28T16:42:44Z</time></trkpt><trkpt lat="44.81592195849106" lon="8.829251825453566"><ele>159.5</ele><time>2026-03-28T16:42:45Z</time></trkpt><trkpt lat="44.816186357652334" lon="8.829229584842555"><ele>159.0</ele><time>2026-03-28T16:42:46Z</time></trkpt><trkpt lat="44.816448834311636" lon="8.829201588367809"><ele>159.0</ele><time>2026-03-28T16:42:47Z</time></trkpt><trkpt lat="44.81670979785751" lon="8.829173438975499"><ele>159.0</ele><time>2026-03-28T16:42:48Z</time></trkpt><trkpt lat="44.81697469747559" lon="8.82915114828485"><ele>158.5</ele><time>2026-03-28T16:42:49Z</time></trkpt><trkpt lat="44.817238472919044" lon="8.829127599213322"><ele>158.0</ele><time>2026-03-28T16:42:50Z</time></trkpt><trkpt lat="44.81750453409238" lon="8.829104563293267"><ele>157.0</ele><time>2026-03-28T16:42:51Z</time></trkpt><trkpt lat="44.81776769396269" lon="8.82908121799832"><ele>156.0</ele><time>2026-03-28T16:42:52Z</time></trkpt><trkpt lat="44.81803272372225" lon="8.829056234737756"><ele>156.0</ele><time>2026-03-28T16:42:53Z</time></trkpt><trkpt lat="44.81829655217322" lon="8.829028341707144"><ele>156.0</ele><time>2026-03-28T16:42:54Z</time></trkpt><trkpt lat="44.818560433465" lon="8.82900065827877"><ele>156.5</ele><time>2026-03-28T16:42:54.999Z</time></trkpt><trkpt lat="44.81882328848691" lon="8.828977489212674"><ele>157.0</ele><time>2026-03-28T16:42:55.999Z</time></trkpt><trkpt lat="44.819087625683956" lon="8.82895451785599"><ele>155.5</ele><time>2026-03-28T16:42:56.999Z</time></trkpt><trkpt lat="44.81934995842484" lon="8.828930340041618"><ele>154.0</ele><time>2026-03-28T16:42:57.999Z</time></trkpt><trkpt lat="44.81961416462379" lon="8.828905913254362"><ele>154.0</ele><time>2026-03-28T16:42:58.999Z</time></trkpt><trkpt lat="44.81987813364407" lon="8.828884065208566"><ele>154.0</ele><time>2026-03-28T16:42:59.999Z</time></trkpt><trkpt lat="44.820141464696405" lon="8.82885981871839"><ele>154.0</ele><time>2026-03-28T16:43:00.999Z</time></trkpt><trkpt lat="44.8204051861005" lon="8.828837975409263"><ele>154.0</ele><time>2026-03-28T16:43:01.999Z</time></trkpt><trkpt lat="44.8206682733161" lon="8.828814185170339"><ele>154.0</ele><time>2026-03-28T16:43:02.999Z</time></trkpt><trkpt lat="44.820932020584905" lon="8.828787926223992"><ele>154.0</ele><time>2026-03-28T16:43:03.999Z</time></trkpt><trkpt lat="44.821195468118134" lon="8.82876259886823"><ele>153.5</ele><time>2026-03-28T16:43:04.999Z</time></trkpt><trkpt lat="44.82145823420742" lon="8.828738520452722"><ele>153.0</ele><time>2026-03-28T16:43:05.999Z</time></trkpt><trkpt lat="44.82172280419312" lon="8.828714857366444"><ele>154.0</ele><time>2026-03-28T16:43:06.999Z</time></trkpt><trkpt lat="44.821986902813826" lon="8.82868902949975"><ele>155.0</ele><time>2026-03-28T16:43:07.999Z</time></trkpt><trkpt lat="44.82225205230908" lon="8.828664416153384"><ele>155.0</ele><time>2026-03-28T16:43:08.999Z</time></trkpt><trkpt lat="44.82251677312486" lon="8.828641182939405"><ele>155.0</ele><time>2026-03-28T16:43:09.999Z</time></trkpt><trkpt lat="44.82278097169365" lon="8.828615583723911"><ele>154.0</ele><time>2026-03-28T16:43:10.999Z</time></trkpt><trkpt lat="44.823043160536145" lon="8.82859031927149"><ele>153.0</ele><time>2026-03-28T16:43:11.999Z</time></trkpt><trkpt lat="44.823305965591395" lon="8.828564651582534"><ele>152.5</ele><time>2026-03-28T16:43:12.999Z</time></trkpt><trkpt lat="44.823569337131225" lon="8.828538800625878"><ele>152.0</ele><time>2026-03-28T16:43:13.999Z</time></trkpt><trkpt lat="44.82383346251615" lon="8.82851471496835"><ele>152.0</ele><time>2026-03-28T16:43:14.999Z</time></trkpt><trkpt lat="44.824097501381274" lon="8.828490946628412"><ele>152.0</ele><time>2026-03-28T16:43:15.999Z</time></trkpt><trkpt lat="44.82436026357809" lon="8.828467657299974"><ele>151.5</ele><time>2026-03-28T16:43:16.999Z</time></trkpt><trkpt lat="44.82462374699398" lon="8.828444418672182"><ele>151.0</ele><time>2026-03-28T16:43:17.999Z</time></trkpt><trkpt lat="44.82488738748574" lon="8.82842055846527"><ele>150.5</ele><time>2026-03-28T16:43:18.999Z</time></trkpt><trkpt lat="44.82514940324282" lon="8.828395497672659"><ele>150.0</ele><time>2026-03-28T16:43:19.999Z</time></trkpt><trkpt lat="44.82541263301672" lon="8.828371846947709"><ele>150.0</ele><time>2026-03-28T16:43:20.999Z</time></trkpt><trkpt lat="44.825676785257464" lon="8.828350182523321"><ele>150.0</ele><time>2026-03-28T16:43:21.999Z</time></trkpt><trkpt lat="44.82593957804563" lon="8.82832617163356"><ele>150.5</ele><time>2026-03-28T16:43:22.999Z</time></trkpt><trkpt lat="44.82620472264522" lon="8.828302763368736"><ele>151.0</ele><time>2026-03-28T16:43:23.999Z</time></trkpt><trkpt lat="44.82646971307049" lon="8.828281137432336"><ele>151.0</ele><time>2026-03-28T16:43:24.999Z</time></trkpt><trkpt lat="44.82673514682252" lon="8.828264107659793"><ele>151.0</ele><time>2026-03-28T16:43:25.999Z</time></trkpt><trkpt lat="44.82699959755258" lon="8.828253252320778"><ele>149.5</ele><time>2026-03-28T16:43:26.999Z</time></trkpt><trkpt lat="44.827264431251464" lon="8.828242268170756"><ele>148.0</ele><time>2026-03-28T16:43:27.999Z</time></trkpt><trkpt lat="44.82752877299877" lon="8.828237455041345"><ele>147.0</ele><time>2026-03-28T16:43:28.999Z</time></trkpt><trkpt lat="44.82779447990782" lon="8.828240145722386"><ele>146.0</ele><time>2026-03-28T16:43:29.999Z</time></trkpt><trkpt lat="44.82805922114999" lon="8.828240949948457"><ele>146.0</ele><time>2026-03-28T16:43:30.999Z</time></trkpt><trkpt lat="44.828322308065275" lon="8.828247177436703"><ele>146.0</ele><time>2026-03-28T16:43:31.999Z</time></trkpt><trkpt lat="44.82858433779504" lon="8.828254957769532"><ele>145.0</ele><time>2026-03-28T16:43:32.999Z</time></trkpt><trkpt lat="44.82884939972332" lon="8.82826709697962"><ele>144.0</ele><time>2026-03-28T16:43:33.999Z</time></trkpt><trkpt lat="44.829113352478814" lon="8.828280108446384"><ele>144.5</ele><time>2026-03-28T16:43:34.999Z</time></trkpt><trkpt lat="44.829376792704856" lon="8.828294636844449"><ele>145.0</ele><time>2026-03-28T16:43:35.999Z</time></trkpt><trkpt lat="44.829640497206405" lon="8.828311246911504"><ele>145.0</ele><time>2026-03-28T16:43:36.999Z</time></trkpt><trkpt lat="44.82990515119673" lon="8.828326485364375"><ele>145.0</ele><time>2026-03-28T16:43:37.999Z</time></trkpt><trkpt lat="44.83016729016886" lon="8.828340206599663"><ele>144.5</ele><time>2026-03-28T16:43:38.999Z</time></trkpt><trkpt lat="44.830430654685486" lon="8.828353877054006"><ele>144.0</ele><time>2026-03-28T16:43:39.999Z</time></trkpt><trkpt lat="44.83069390648999" lon="8.828364950527986"><ele>144.0</ele><time>2026-03-28T16:43:40.999Z</time></trkpt><trkpt lat="44.830958140789846" lon="8.828377820022608"><ele>144.0</ele><time>2026-03-28T16:43:41.999Z</time></trkpt><trkpt lat="44.831221553928906" lon="8.828391389119142"><ele>145.0</ele><time>2026-03-28T16:43:42.999Z</time></trkpt><trkpt lat="44.831486423945925" lon="8.828406143518848"><ele>146.0</ele><time>2026-03-28T16:43:43.999Z</time></trkpt><trkpt lat="44.83174984285418" lon="8.828418928097323"><ele>146.0</ele><time>2026-03-28T16:43:44.999Z</time></trkpt><trkpt lat="44.83201292216541" lon="8.828431530687377"><ele>146.0</ele><time>2026-03-28T16:43:45.999Z</time></trkpt><trkpt lat="44.83227463611303" lon="8.828444771588728"><ele>146.0</ele><time>2026-03-28T16:43:46.999Z</time></trkpt><trkpt lat="44.83253672727221" lon="8.828460299860188"><ele>146.0</ele><time>2026-03-28T16:43:47.999Z</time></trkpt><trkpt lat="44.83280040926126" lon="8.828476708916407"><ele>146.0</ele><time>2026-03-28T16:43:48.999Z</time></trkpt><trkpt lat="44.83306396000887" lon="8.828489931469216"><ele>146.0</ele><time>2026-03-28T16:43:49.999Z</time></trkpt><trkpt lat="44.83332822576402" lon="8.828505307178304"><ele>145.5</ele><time>2026-03-28T16:43:50.999Z</time></trkpt><trkpt lat="44.833592253675505" lon="8.82852218302213"><ele>145.0</ele><time>2026-03-28T16:43:51.999Z</time></trkpt><trkpt lat="44.83385582058367" lon="8.828540878467713"><ele>145.0</ele><time>2026-03-28T16:43:52.999Z</time></trkpt><trkpt lat="44.834122799610725" lon="8.828554963426189"><ele>145.0</ele><time>2026-03-28T16:43:53.999Z</time></trkpt><trkpt lat="44.834383011225704" lon="8.82856589262294"><ele>143.0</ele><time>2026-03-28T16:43:54.999Z</time></trkpt><trkpt lat="44.834645356577596" lon="8.828580115403303"><ele>141.0</ele><time>2026-03-28T16:43:55.999Z</time></trkpt><trkpt lat="44.83490689845366" lon="8.828594573868621"><ele>141.5</ele><time>2026-03-28T16:43:56.999Z</time></trkpt><trkpt lat="44.83517074868581" lon="8.828607097272199"><ele>142.0</ele><time>2026-03-28T16:43:57.999Z</time></trkpt><trkpt lat="44.83543393610792" lon="8.82861946406688"><ele>142.0</ele><time>2026-03-28T16:43:58.999Z</time></trkpt><trkpt lat="44.83569515444435" lon="8.828633197509754"><ele>142.0</ele><time>2026-03-28T16:43:59.999Z</time></trkpt><trkpt lat="44.83595776082064" lon="8.828646545987286"><ele>142.0</ele><time>2026-03-28T16:44:00.999Z</time></trkpt><trkpt lat="44.836221587458084" lon="8.82865843911536"><ele>142.0</ele><time>2026-03-28T16:44:01.999Z</time></trkpt><trkpt lat="44.836483321964856" lon="8.82867118121856"><ele>142.0</ele><time>2026-03-28T16:44:02.999Z</time></trkpt><trkpt lat="44.83674721021747" lon="8.828683557994758"><ele>142.0</ele><time>2026-03-28T16:44:03.999Z</time></trkpt><trkpt lat="44.83701082441086" lon="8.828696276104429"><ele>141.5</ele><time>2026-03-28T16:44:04.999Z</time></trkpt><trkpt lat="44.83727512259128" lon="8.828710730528687"><ele>141.0</ele><time>2026-03-28T16:44:05.999Z</time></trkpt><trkpt lat="44.83753843748004" lon="8.828724375636737"><ele>142.0</ele><time>2026-03-28T16:44:06.999Z</time></trkpt><trkpt lat="44.837801738457166" lon="8.828738981466248"><ele>143.0</ele><time>2026-03-28T16:44:07.999Z</time></trkpt><trkpt lat="44.83806583120656" lon="8.828753700143482"><ele>143.0</ele><time>2026-03-28T16:44:08.999Z</time></trkpt><trkpt lat="44.838329239559776" lon="8.828768330680404"><ele>143.0</ele><time>2026-03-28T16:44:09.999Z</time></trkpt><trkpt lat="44.83859330287483" lon="8.828780642731386"><ele>141.5</ele><time>2026-03-28T16:44:10.999Z</time></trkpt><trkpt lat="44.83885522324774" lon="8.82879460300563"><ele>140.0</ele><time>2026-03-28T16:44:12Z</time></trkpt><trkpt lat="44.8391184935762" lon="8.828808089600084"><ele>139.5</ele><time>2026-03-28T16:44:13Z</time></trkpt><trkpt lat="44.83938366961532" lon="8.828821222527031"><ele>139.0</ele><time>2026-03-28T16:44:14Z</time></trkpt><trkpt lat="44.839646134731" lon="8.828835479941564"><ele>139.0</ele><time>2026-03-28T16:44:15Z</time></trkpt><trkpt lat="44.839910246462836" lon="8.82885122212862"><ele>139.0</ele><time>2026-03-28T16:44:16Z</time></trkpt><trkpt lat="44.84017276491606" lon="8.828865827454205"><ele>139.5</ele><time>2026-03-28T16:44:17Z</time></trkpt><trkpt lat="44.840436725953374" lon="8.828881517436885"><ele>140.0</ele><time>2026-03-28T16:44:18Z</time></trkpt><trkpt lat="44.84070055418788" lon="8.828898402676032"><ele>140.0</ele><time>2026-03-28T16:44:19Z</time></trkpt><trkpt lat="44.840964650230376" lon="8.828914312853543"><ele>140.0</ele><time>2026-03-28T16:44:20Z</time></trkpt><trkpt lat="44.841229024093764" lon="8.828933027727425"><ele>140.0</ele><time>2026-03-28T16:44:21Z</time></trkpt><trkpt lat="44.84149375687487" lon="8.828947951236817"><ele>140.0</ele><time>2026-03-28T16:44:22Z</time></trkpt><trkpt lat="44.84175799598014" lon="8.828962291122643"><ele>139.5</ele><time>2026-03-28T16:44:23Z</time></trkpt><trkpt lat="44.84202409586098" lon="8.828972748097907"><ele>139.0</ele><time>2026-03-28T16:44:24Z</time></trkpt><trkpt lat="44.84228852180768" lon="8.82898942485429"><ele>139.0</ele><time>2026-03-28T16:44:25Z</time></trkpt><trkpt lat="44.84255416343429" lon="8.829004677495986"><ele>139.0</ele><time>2026-03-28T16:44:26Z</time></trkpt><trkpt lat="44.84281897666999" lon="8.829021853970907"><ele>138.5</ele><time>2026-03-28T16:44:27Z</time></trkpt><trkpt lat="44.84308205482545" lon="8.829038338365825"><ele>138.0</ele><time>2026-03-28T16:44:28Z</time></trkpt><trkpt lat="44.84334694384903" lon="8.829053334811627"><ele>138.0</ele><time>2026-03-28T16:44:29Z</time></trkpt><trkpt lat="44.84361200990921" lon="8.829069562115308"><ele>138.0</ele><time>2026-03-28T16:44:30Z</time></trkpt><trkpt lat="44.843876813860255" lon="8.82908697697678"><ele>138.0</ele><time>2026-03-28T16:44:31Z</time></trkpt><trkpt lat="44.84414102658729" lon="8.829105999832532"><ele>138.0</ele><time>2026-03-28T16:44:32Z</time></trkpt><trkpt lat="44.84440637073413" lon="8.829125226656299"><ele>138.0</ele><time>2026-03-28T16:44:33Z</time></trkpt><trkpt lat="44.844671142664" lon="8.829142223544917"><ele>138.0</ele><time>2026-03-28T16:44:34Z</time></trkpt><trkpt lat="44.844937346453115" lon="8.829150279059334"><ele>138.0</ele><time>2026-03-28T16:44:35Z</time></trkpt><trkpt lat="44.84520734783167" lon="8.829175465192378"><ele>138.0</ele><time>2026-03-28T16:44:36Z</time></trkpt><trkpt lat="44.84547566537673" lon="8.829193705862778"><ele>138.0</ele><time>2026-03-28T16:44:37Z</time></trkpt><trkpt lat="44.8457449197776" lon="8.829210569311547"><ele>138.0</ele><time>2026-03-28T16:44:38Z</time></trkpt><trkpt lat="44.84601384219948" lon="8.829225064054738"><ele>137.0</ele><time>2026-03-28T16:44:39Z</time></trkpt><trkpt lat="44.84628278334835" lon="8.829238366720885"><ele>136.0</ele><time>2026-03-28T16:44:40Z</time></trkpt><trkpt lat="44.84655230395626" lon="8.82925377266378"><ele>137.5</ele><time>2026-03-28T16:44:41Z</time></trkpt><trkpt lat="44.84682119427366" lon="8.829267228232451"><ele>139.0</ele><time>2026-03-28T16:44:42Z</time></trkpt><trkpt lat="44.84708950224926" lon="8.829280670401497"><ele>139.0</ele><time>2026-03-28T16:44:43Z</time></trkpt><trkpt lat="44.84735900970322" lon="8.829295834199035"><ele>139.0</ele><time>2026-03-28T16:44:44Z</time></trkpt><trkpt lat="44.84762719820204" lon="8.829308535706158"><ele>137.5</ele><time>2026-03-28T16:44:45Z</time></trkpt><trkpt lat="44.847896333498845" lon="8.829322229044548"><ele>136.0</ele><time>2026-03-28T16:44:46Z</time></trkpt><trkpt lat="44.84816478649965" lon="8.829338430314792"><ele>136.0</ele><time>2026-03-28T16:44:47Z</time></trkpt><trkpt lat="44.84843360468289" lon="8.829352290331494"><ele>136.0</ele><time>2026-03-28T16:44:48Z</time></trkpt><trkpt lat="44.84870396743939" lon="8.829364538502675"><ele>135.5</ele><time>2026-03-28T16:44:49Z</time></trkpt><trkpt lat="44.848972367752964" lon="8.829376687777762"><ele>135.0</ele><time>2026-03-28T16:44:50Z</time></trkpt><trkpt lat="44.84924038201124" lon="8.829393093578746"><ele>135.0</ele><time>2026-03-28T16:44:51Z</time></trkpt><trkpt lat="44.849509516022444" lon="8.829406736864739"><ele>135.0</ele><time>2026-03-28T16:44:52Z</time></trkpt><trkpt lat="44.849778662550136" lon="8.829419397596782"><ele>135.0</ele><time>2026-03-28T16:44:53Z</time></trkpt><trkpt lat="44.85004811881311" lon="8.829438951953723"><ele>135.0</ele><time>2026-03-28T16:44:54Z</time></trkpt><trkpt lat="44.85031628414395" lon="8.829452263455094"><ele>135.5</ele><time>2026-03-28T16:44:55Z</time></trkpt><trkpt lat="44.8505868225671" lon="8.829467806196424"><ele>136.0</ele><time>2026-03-28T16:44:56Z</time></trkpt><trkpt lat="44.850856786046144" lon="8.829483408144444"><ele>135.0</ele><time>2026-03-28T16:44:57Z</time></trkpt><trkpt lat="44.85112588686439" lon="8.829498463280224"><ele>134.0</ele><time>2026-03-28T16:44:58Z</time></trkpt><trkpt lat="44.85139587052837" lon="8.829511200228069"><ele>134.0</ele><time>2026-03-28T16:44:59Z</time></trkpt><trkpt lat="44.851666254732415" lon="8.829527768068946"><ele>134.0</ele><time>2026-03-28T16:45:00Z</time></trkpt><trkpt lat="44.85193467858146" lon="8.829544548552985"><ele>134.0</ele><time>2026-03-28T16:45:01Z</time></trkpt><trkpt lat="44.8522042414216" lon="8.829559643197767"><ele>134.0</ele><time>2026-03-28T16:45:02Z</time></trkpt><trkpt lat="44.852473636713015" lon="8.82957085627896"><ele>135.0</ele><time>2026-03-28T16:45:03Z</time></trkpt><trkpt lat="44.852743396244826" lon="8.829585516829408"><ele>136.0</ele><time>2026-03-28T16:45:04Z</time></trkpt><trkpt lat="44.85301339824472" lon="8.82959891638962"><ele>136.0</ele><time>2026-03-28T16:45:05Z</time></trkpt><trkpt lat="44.853280940902756" lon="8.82961197750572"><ele>136.0</ele><time>2026-03-28T16:45:06Z</time></trkpt><trkpt lat="44.853548919670615" lon="8.829622914024515"><ele>135.0</ele><time>2026-03-28T16:45:06.999Z</time></trkpt><trkpt lat="44.8538193312326" lon="8.829636908268824"><ele>134.0</ele><time>2026-03-28T16:45:07.999Z</time></trkpt><trkpt lat="44.85409027161079" lon="8.829650963957704"><ele>133.0</ele><time>2026-03-28T16:45:08.999Z</time></trkpt><trkpt lat="44.85436087668367" lon="8.829665067996352"><ele>132.0</ele><time>2026-03-28T16:45:09.999Z</time></trkpt><trkpt lat="44.85463167638552" lon="8.82968058737548"><ele>132.0</ele><time>2026-03-28T16:45:10.999Z</time></trkpt><trkpt lat="44.854902202096675" lon="8.829696790783354"><ele>132.0</ele><time>2026-03-28T16:45:11.999Z</time></trkpt><trkpt lat="44.8551720650711" lon="8.82971083925018"><ele>131.5</ele><time>2026-03-28T16:45:12.999Z</time></trkpt><trkpt lat="44.85544232245666" lon="8.829727016956257"><ele>131.0</ele><time>2026-03-28T16:45:13.999Z</time></trkpt><trkpt lat="44.855711520743256" lon="8.82974519660306"><ele>130.0</ele><time>2026-03-28T16:45:14.999Z</time></trkpt><trkpt lat="44.855980292369566" lon="8.829758958296694"><ele>129.0</ele><time>2026-03-28T16:45:15.999Z</time></trkpt><trkpt lat="44.85625012555259" lon="8.829775473130388"><ele>129.0</ele><time>2026-03-28T16:45:16.999Z</time></trkpt><trkpt lat="44.856518542888644" lon="8.82978888702926"><ele>129.0</ele><time>2026-03-28T16:45:17.999Z</time></trkpt><trkpt lat="44.856788706659835" lon="8.829804312793158"><ele>129.5</ele><time>2026-03-28T16:45:18.999Z</time></trkpt><trkpt lat="44.85705798934561" lon="8.829820429312603"><ele>130.0</ele><time>2026-03-28T16:45:19.999Z</time></trkpt><trkpt lat="44.857327477616025" lon="8.82983189790336"><ele>130.0</ele><time>2026-03-28T16:45:20.999Z</time></trkpt><trkpt lat="44.85759717838312" lon="8.82984470299039"><ele>130.0</ele><time>2026-03-28T16:45:21.999Z</time></trkpt><trkpt lat="44.85786709090997" lon="8.829861022763126"><ele>129.5</ele><time>2026-03-28T16:45:22.999Z</time></trkpt><trkpt lat="44.858136702339856" lon="8.829875365910286"><ele>129.0</ele><time>2026-03-28T16:45:23.999Z</time></trkpt><trkpt lat="44.85840480651213" lon="8.82988772475028"><ele>128.5</ele><time>2026-03-28T16:45:24.999Z</time></trkpt><trkpt lat="44.85867453532259" lon="8.829902340953527"><ele>128.0</ele><time>2026-03-28T16:45:25.999Z</time></trkpt><trkpt lat="44.858942737946116" lon="8.829917516737845"><ele>128.0</ele><time>2026-03-28T16:45:26.999Z</time></trkpt><trkpt lat="44.859213046963546" lon="8.829932246486031"><ele>128.0</ele><time>2026-03-28T16:45:27.999Z</time></trkpt><trkpt lat="44.85948370852399" lon="8.829947531604603"><ele>128.5</ele><time>2026-03-28T16:45:28.999Z</time></trkpt><trkpt lat="44.85975434575836" lon="8.82996287236803"><ele>129.0</ele><time>2026-03-28T16:45:29.999Z</time></trkpt><trkpt lat="44.86002619996205" lon="8.829980076894723"><ele>129.0</ele><time>2026-03-28T16:45:30.999Z</time></trkpt><trkpt lat="44.86029691022039" lon="8.829995406034374"><ele>129.0</ele><time>2026-03-28T16:45:31.999Z</time></trkpt><trkpt lat="44.86056705652577" lon="8.830007284258382"><ele>129.0</ele><time>2026-03-28T16:45:32.999Z</time></trkpt><trkpt lat="44.86083709071635" lon="8.830023168980542"><ele>129.0</ele><time>2026-03-28T16:45:33.999Z</time></trkpt><trkpt lat="44.86110555102666" lon="8.830031711083524"><ele>128.0</ele><time>2026-03-28T16:45:34.999Z</time></trkpt><trkpt lat="44.86137301166782" lon="8.830046692909285"><ele>127.0</ele><time>2026-03-28T16:45:35.999Z</time></trkpt><trkpt lat="44.86164270021255" lon="8.830062373736144"><ele>128.0</ele><time>2026-03-28T16:45:36.999Z</time></trkpt><trkpt lat="44.8619119159075" lon="8.83007723392749"><ele>129.0</ele><time>2026-03-28T16:45:37.999Z</time></trkpt><trkpt lat="44.86218290242418" lon="8.830090787420856"><ele>129.0</ele><time>2026-03-28T16:45:38.999Z</time></trkpt><trkpt lat="44.862453463993106" lon="8.83010664420708"><ele>129.0</ele><time>2026-03-28T16:45:39.999Z</time></trkpt><trkpt lat="44.86272133522105" lon="8.830120299055732"><ele>128.0</ele><time>2026-03-28T16:45:40.999Z</time></trkpt><trkpt lat="44.86299007635785" lon="8.830135215993769"><ele>127.0</ele><time>2026-03-28T16:45:41.999Z</time></trkpt><trkpt lat="44.863254844788216" lon="8.830157040288281"><ele>127.5</ele><time>2026-03-28T16:45:42.999Z</time></trkpt><trkpt lat="44.86352482334782" lon="8.830166019924649"><ele>128.0</ele><time>2026-03-28T16:45:43.999Z</time></trkpt><trkpt lat="44.8637911371529" lon="8.830176467394166"><ele>128.0</ele><time>2026-03-28T16:45:44.999Z</time></trkpt><trkpt lat="44.86405809020305" lon="8.830193856516692"><ele>128.0</ele><time>2026-03-28T16:45:45.999Z</time></trkpt><trkpt lat="44.86432642571152" lon="8.83021206441569"><ele>127.5</ele><time>2026-03-28T16:45:46.999Z</time></trkpt><trkpt lat="44.86458082223557" lon="8.830236584636191"><ele>127.0</ele><time>2026-03-28T16:45:47.999Z</time></trkpt><trkpt lat="44.86484334633762" lon="8.830271465299306"><ele>127.0</ele><time>2026-03-28T16:45:48.999Z</time></trkpt><trkpt lat="44.86511174732596" lon="8.83029759081518"><ele>127.0</ele><time>2026-03-28T16:45:49.999Z</time></trkpt><trkpt lat="44.86537925039898" lon="8.830342527085698"><ele>127.0</ele><time>2026-03-28T16:45:50.999Z</time></trkpt><trkpt lat="44.86564543294962" lon="8.830392592291107"><ele>127.0</ele><time>2026-03-28T16:45:51.999Z</time></trkpt><trkpt lat="44.865911980285006" lon="8.830448682049326"><ele>126.0</ele><time>2026-03-28T16:45:52.999Z</time></trkpt><trkpt lat="44.866175120775644" lon="8.83051432501043"><ele>125.0</ele><time>2026-03-28T16:45:53.999Z</time></trkpt><trkpt lat="44.866438723451495" lon="8.83058283556212"><ele>125.0</ele><time>2026-03-28T16:45:54.999Z</time></trkpt><trkpt lat="44.86670030849924" lon="8.8306552617643"><ele>125.0</ele><time>2026-03-28T16:45:55.999Z</time></trkpt><trkpt lat="44.86696237286527" lon="8.830731199482644"><ele>124.5</ele><time>2026-03-28T16:45:56.999Z</time></trkpt><trkpt lat="44.86722437491606" lon="8.830805382607604"><ele>124.0</ele><time>2026-03-28T16:45:57.999Z</time></trkpt><trkpt lat="44.86748329472028" lon="8.830892074051262"><ele>125.0</ele><time>2026-03-28T16:45:58.999Z</time></trkpt><trkpt lat="44.867742704922364" lon="8.830984026001456"><ele>126.0</ele><time>2026-03-28T16:45:59.999Z</time></trkpt><trkpt lat="44.868000960855866" lon="8.831082196961127"><ele>126.0</ele><time>2026-03-28T16:46:00.999Z</time></trkpt><trkpt lat="44.86825942063677" lon="8.831184326684049"><ele>126.0</ele><time>2026-03-28T16:46:01.999Z</time></trkpt><trkpt lat="44.868517066697926" lon="8.831291778859306"><ele>126.0</ele><time>2026-03-28T16:46:02.999Z</time></trkpt><trkpt lat="44.86877267373807" lon="8.831402272479659"><ele>126.0</ele><time>2026-03-28T16:46:03.999Z</time></trkpt><trkpt lat="44.8690270967169" lon="8.831514529405101"><ele>125.0</ele><time>2026-03-28T16:46:04.999Z</time></trkpt><trkpt lat="44.869282595595806" lon="8.831627624703136"><ele>124.0</ele><time>2026-03-28T16:46:05.999Z</time></trkpt><trkpt lat="44.869538252328056" lon="8.831737848713013"><ele>124.0</ele><time>2026-03-28T16:46:06.999Z</time></trkpt><trkpt lat="44.869793534231796" lon="8.831849786106343"><ele>124.0</ele><time>2026-03-28T16:46:07.999Z</time></trkpt><trkpt lat="44.87004932602816" lon="8.831961746453954"><ele>123.5</ele><time>2026-03-28T16:46:08.999Z</time></trkpt><trkpt lat="44.8703055222341" lon="8.832072240595554"><ele>123.0</ele><time>2026-03-28T16:46:09.999Z</time></trkpt><trkpt lat="44.87056137173926" lon="8.832183827267064"><ele>123.0</ele><time>2026-03-28T16:46:10.999Z</time></trkpt><trkpt lat="44.870817591231486" lon="8.832293155154753"><ele>123.0</ele><time>2026-03-28T16:46:11.999Z</time></trkpt><trkpt lat="44.871072695002724" lon="8.832405821348443"><ele>123.0</ele><time>2026-03-28T16:46:12.999Z</time></trkpt><trkpt lat="44.87132748443561" lon="8.832516872725057"><ele>123.0</ele><time>2026-03-28T16:46:13.999Z</time></trkpt><trkpt lat="44.87158245392304" lon="8.832629298423578"><ele>123.5</ele><time>2026-03-28T16:46:14.999Z</time></trkpt><trkpt lat="44.87183798513581" lon="8.832737444907737"><ele>124.0</ele><time>2026-03-28T16:46:15.999Z</time></trkpt><trkpt lat="44.87209416205606" lon="8.832846559318229"><ele>124.0</ele><time>2026-03-28T16:46:16.999Z</time></trkpt><trkpt lat="44.87234919007288" lon="8.832955992619217"><ele>124.0</ele><time>2026-03-28T16:46:18Z</time></trkpt><trkpt lat="44.87260471524527" lon="8.833065865138574"><ele>124.0</ele><time>2026-03-28T16:46:19Z</time></trkpt><trkpt lat="44.87285780419879" lon="8.83317930593269"><ele>124.0</ele><time>2026-03-28T16:46:20Z</time></trkpt><trkpt lat="44.87311140654529" lon="8.8332929358902"><ele>124.0</ele><time>2026-03-28T16:46:21Z</time></trkpt><trkpt lat="44.87336604799899" lon="8.833408961323196"><ele>124.0</ele><time>2026-03-28T16:46:22Z</time></trkpt><trkpt lat="44.873620284406464" lon="8.83352108519641"><ele>124.5</ele><time>2026-03-28T16:46:23Z</time></trkpt><trkpt lat="44.87387658884623" lon="8.833628150233205"><ele>125.0</ele><time>2026-03-28T16:46:24Z</time></trkpt><trkpt lat="44.87413072276071" lon="8.833741206827456"><ele>124.5</ele><time>2026-03-28T16:46:25Z</time></trkpt><trkpt lat="44.87438716379513" lon="8.833846830363543"><ele>124.0</ele><time>2026-03-28T16:46:26Z</time></trkpt><trkpt lat="44.87464139417046" lon="8.833955241125821"><ele>124.0</ele><time>2026-03-28T16:46:27Z</time></trkpt><trkpt lat="44.874896109444585" lon="8.83407068362561"><ele>124.0</ele><time>2026-03-28T16:46:28Z</time></trkpt><trkpt lat="44.87515059973246" lon="8.834178716497062"><ele>124.5</ele><time>2026-03-28T16:46:29Z</time></trkpt><trkpt lat="44.87540458937442" lon="8.834291923267852"><ele>125.0</ele><time>2026-03-28T16:46:30Z</time></trkpt><trkpt lat="44.875656663178134" lon="8.83440182336009"><ele>125.0</ele><time>2026-03-28T16:46:31Z</time></trkpt><trkpt lat="44.87590914849934" lon="8.834508314482811"><ele>125.0</ele><time>2026-03-28T16:46:32Z</time></trkpt><trkpt lat="44.876163465355255" lon="8.834617032999937"><ele>123.5</ele><time>2026-03-28T16:46:33Z</time></trkpt><trkpt lat="44.876417537532895" lon="8.834727556542234"><ele>122.0</ele><time>2026-03-28T16:46:34Z</time></trkpt><trkpt lat="44.87667073040597" lon="8.834833849291398"><ele>122.5</ele><time>2026-03-28T16:46:35Z</time></trkpt><trkpt lat="44.876924446549545" lon="8.834947188975521"><ele>123.0</ele><time>2026-03-28T16:46:36Z</time></trkpt><trkpt lat="44.87717811645153" lon="8.835059889743949"><ele>123.0</ele><time>2026-03-28T16:46:37Z</time></trkpt><trkpt lat="44.87743435381075" lon="8.835174786179646"><ele>123.0</ele><time>2026-03-28T16:46:38Z</time></trkpt><trkpt lat="44.87768821822464" lon="8.835291512908805"><ele>123.0</ele><time>2026-03-28T16:46:39Z</time></trkpt><trkpt lat="44.87794157147522" lon="8.835404296150474"><ele>123.0</ele><time>2026-03-28T16:46:40Z</time></trkpt><trkpt lat="44.87819337975523" lon="8.83552246311394"><ele>123.5</ele><time>2026-03-28T16:46:41Z</time></trkpt><trkpt lat="44.878445502379485" lon="8.83564579323229"><ele>124.0</ele><time>2026-03-28T16:46:42Z</time></trkpt><trkpt lat="44.878695572408105" lon="8.835767745789397"><ele>124.0</ele><time>2026-03-28T16:46:43Z</time></trkpt><trkpt lat="44.87894729837707" lon="8.835891843034561"><ele>124.0</ele><time>2026-03-28T16:46:44Z</time></trkpt><trkpt lat="44.879199984153395" lon="8.836012072141374"><ele>123.5</ele><time>2026-03-28T16:46:45Z</time></trkpt><trkpt lat="44.8794529508975" lon="8.836129315860116"><ele>123.0</ele><time>2026-03-28T16:46:46Z</time></trkpt><trkpt lat="44.87970571743259" lon="8.836249607689581"><ele>123.0</ele><time>2026-03-28T16:46:47Z</time></trkpt><trkpt lat="44.87995724347444" lon="8.836369412419238"><ele>123.0</ele><time>2026-03-28T16:46:48Z</time></trkpt><trkpt lat="44.880209558538695" lon="8.836486483560487"><ele>122.0</ele><time>2026-03-28T16:46:49Z</time></trkpt><trkpt lat="44.88046106179951" lon="8.836609693385094"><ele>121.0</ele><time>2026-03-28T16:46:50Z</time></trkpt><trkpt lat="44.88071293189741" lon="8.83672852337797"><ele>119.5</ele><time>2026-03-28T16:46:51Z</time></trkpt><trkpt lat="44.880964203247935" lon="8.836849034252834"><ele>118.0</ele><time>2026-03-28T16:46:52Z</time></trkpt><trkpt lat="44.88121684871094" lon="8.836965994419078"><ele>118.0</ele><time>2026-03-28T16:46:53Z</time></trkpt><trkpt lat="44.8814703836175" lon="8.837086006380684"><ele>118.0</ele><time>2026-03-28T16:46:54Z</time></trkpt><trkpt lat="44.88172116690626" lon="8.837207191608409"><ele>119.0</ele><time>2026-03-28T16:46:55Z</time></trkpt><trkpt lat="44.88197084947087" lon="8.837325204458251"><ele>120.0</ele><time>2026-03-28T16:46:56Z</time></trkpt><trkpt lat="44.882222517664125" lon="8.837446693481374"><ele>120.0</ele><time>2026-03-28T16:46:57Z</time></trkpt><trkpt lat="44.88247405494253" lon="8.837567732041594"><ele>120.0</ele><time>2026-03-28T16:46:58Z</time></trkpt><trkpt lat="44.88272779789995" lon="8.837684415693241"><ele>120.0</ele><time>2026-03-28T16:46:59Z</time></trkpt><trkpt lat="44.88297894340765" lon="8.837803381013659"><ele>120.0</ele><time>2026-03-28T16:47:00Z</time></trkpt><trkpt lat="44.88323266109207" lon="8.837922495438688"><ele>118.5</ele><time>2026-03-28T16:47:01Z</time></trkpt><trkpt lat="44.88348649246058" lon="8.838037567088527"><ele>117.0</ele><time>2026-03-28T16:47:02Z</time></trkpt><trkpt lat="44.88373787063061" lon="8.838154723459839"><ele>117.0</ele><time>2026-03-28T16:47:03Z</time></trkpt><trkpt lat="44.883989698113005" lon="8.83827225184195"><ele>117.0</ele><time>2026-03-28T16:47:04Z</time></trkpt><trkpt lat="44.884243021092516" lon="8.838387344914668"><ele>118.5</ele><time>2026-03-28T16:47:05Z</time></trkpt><trkpt lat="44.884494609244015" lon="8.838511859891593"><ele>120.0</ele><time>2026-03-28T16:47:06Z</time></trkpt><trkpt lat="44.884750289476436" lon="8.838627436255383"><ele>120.0</ele><time>2026-03-28T16:47:06.999Z</time></trkpt><trkpt lat="44.88500338013686" lon="8.838748846355816"><ele>120.0</ele><time>2026-03-28T16:47:07.999Z</time></trkpt><trkpt lat="44.88525696245787" lon="8.838870185454683"><ele>119.5</ele><time>2026-03-28T16:47:08.999Z</time></trkpt><trkpt lat="44.88551184837322" lon="8.838986732152668"><ele>119.0</ele><time>2026-03-28T16:47:09.999Z</time></trkpt><trkpt lat="44.88576580986852" lon="8.83910436125262"><ele>118.0</ele><time>2026-03-28T16:47:10.999Z</time></trkpt><trkpt lat="44.88602019745444" lon="8.839224074461606"><ele>117.0</ele><time>2026-03-28T16:47:11.999Z</time></trkpt><trkpt lat="44.886271593815536" lon="8.83933306338765"><ele>117.0</ele><time>2026-03-28T16:47:12.999Z</time></trkpt><trkpt lat="44.88652530206265" lon="8.839451263565204"><ele>117.0</ele><time>2026-03-28T16:47:13.999Z</time></trkpt><trkpt lat="44.88677478287968" lon="8.83957437132691"><ele>117.0</ele><time>2026-03-28T16:47:14.999Z</time></trkpt><trkpt lat="44.88703216566031" lon="8.839692636987163"><ele>117.0</ele><time>2026-03-28T16:47:15.999Z</time></trkpt><trkpt lat="44.88728934374754" lon="8.839812497949712"><ele>117.0</ele><time>2026-03-28T16:47:16.999Z</time></trkpt><trkpt lat="44.887546133746895" lon="8.839940403881783"><ele>117.0</ele><time>2026-03-28T16:47:17.999Z</time></trkpt><trkpt lat="44.88780470954644" lon="8.840064395315183"><ele>117.0</ele><time>2026-03-28T16:47:18.999Z</time></trkpt><trkpt lat="44.888062687569" lon="8.840179535610863"><ele>117.0</ele><time>2026-03-28T16:47:19.999Z</time></trkpt><trkpt lat="44.88832206847037" lon="8.840304654887177"><ele>117.0</ele><time>2026-03-28T16:47:20.999Z</time></trkpt><trkpt lat="44.88858281554514" lon="8.84042647524931"><ele>117.0</ele><time>2026-03-28T16:47:21.999Z</time></trkpt><trkpt lat="44.8888437446586" lon="8.84053390616725"><ele>117.0</ele><time>2026-03-28T16:47:22.999Z</time></trkpt><trkpt lat="44.889103450538165" lon="8.84063601506057"><ele>117.0</ele><time>2026-03-28T16:47:23.999Z</time></trkpt><trkpt lat="44.88936694470756" lon="8.840737600900836"><ele>117.5</ele><time>2026-03-28T16:47:24.999Z</time></trkpt><trkpt lat="44.88962737017017" lon="8.84083225551115"><ele>118.0</ele><time>2026-03-28T16:47:25.999Z</time></trkpt><trkpt lat="44.88989026891038" lon="8.840928476500673"><ele>117.5</ele><time>2026-03-28T16:47:26.999Z</time></trkpt><trkpt lat="44.89015398992283" lon="8.841023032049266"><ele>117.0</ele><time>2026-03-28T16:47:27.999Z</time></trkpt><trkpt lat="44.89041788082511" lon="8.841112168208983"><ele>117.0</ele><time>2026-03-28T16:47:28.999Z</time></trkpt><trkpt lat="44.8906847029779" lon="8.841194058102117"><ele>117.0</ele><time>2026-03-28T16:47:29.999Z</time></trkpt><trkpt lat="44.890950823210005" lon="8.841273895178542"><ele>116.0</ele><time>2026-03-28T16:47:30.999Z</time></trkpt><trkpt lat="44.891213295578055" lon="8.841349228343867"><ele>115.0</ele><time>2026-03-28T16:47:31.999Z</time></trkpt><trkpt lat="44.89147697701853" lon="8.841420421415158"><ele>115.0</ele><time>2026-03-28T16:47:32.999Z</time></trkpt><trkpt lat="44.89174107583534" lon="8.841487638442732"><ele>115.0</ele><time>2026-03-28T16:47:33.999Z</time></trkpt><trkpt lat="44.89200770701779" lon="8.841552719641836"><ele>115.5</ele><time>2026-03-28T16:47:34.999Z</time></trkpt><trkpt lat="44.8922723561626" lon="8.841615002478395"><ele>116.0</ele><time>2026-03-28T16:47:35.999Z</time></trkpt><trkpt lat="44.89253671380255" lon="8.841672561647952"><ele>116.5</ele><time>2026-03-28T16:47:36.999Z</time></trkpt><trkpt lat="44.892804122369355" lon="8.841727016579123"><ele>117.0</ele><time>2026-03-28T16:47:37.999Z</time></trkpt><trkpt lat="44.8930708445566" lon="8.841777354197342"><ele>117.5</ele><time>2026-03-28T16:47:38.999Z</time></trkpt><trkpt lat="44.89333964612241" lon="8.841826029253543"><ele>118.0</ele><time>2026-03-28T16:47:39.999Z</time></trkpt><trkpt lat="44.89360854653206" lon="8.841871738715044"><ele>118.0</ele><time>2026-03-28T16:47:40.999Z</time></trkpt><trkpt lat="44.89387714497179" lon="8.84191027566158"><ele>118.0</ele><time>2026-03-28T16:47:41.999Z</time></trkpt><trkpt lat="44.894148413853934" lon="8.841951514202167"><ele>117.0</ele><time>2026-03-28T16:47:42.999Z</time></trkpt><trkpt lat="44.89441946869674" lon="8.841995050607744"><ele>116.0</ele><time>2026-03-28T16:47:43.999Z</time></trkpt><trkpt lat="44.89468406242273" lon="8.842038667005717"><ele>116.0</ele><time>2026-03-28T16:47:44.999Z</time></trkpt><trkpt lat="44.89495693018744" lon="8.842081411264566"><ele>116.0</ele><time>2026-03-28T16:47:45.999Z</time></trkpt><trkpt lat="44.89522591557083" lon="8.842125428160456"><ele>116.5</ele><time>2026-03-28T16:47:46.999Z</time></trkpt><trkpt lat="44.895492280588044" lon="8.842168921886424"><ele>117.0</ele><time>2026-03-28T16:47:47.999Z</time></trkpt><trkpt lat="44.89576175950007" lon="8.842216129489783"><ele>115.5</ele><time>2026-03-28T16:47:48.999Z</time></trkpt><trkpt lat="44.89603018960058" lon="8.842264005165736"><ele>114.0</ele><time>2026-03-28T16:47:49.999Z</time></trkpt><trkpt lat="44.8962998391223" lon="8.842311382752133"><ele>114.0</ele><time>2026-03-28T16:47:50.999Z</time></trkpt><trkpt lat="44.896569921554125" lon="8.842356275038474"><ele>114.0</ele><time>2026-03-28T16:47:51.999Z</time></trkpt><trkpt lat="44.8968307090676" lon="8.842412303475612"><ele>115.0</ele><time>2026-03-28T16:47:52.999Z</time></trkpt><trkpt lat="44.89708853814537" lon="8.842469171976468"><ele>116.0</ele><time>2026-03-28T16:47:53.999Z</time></trkpt><trkpt lat="44.897387093812085" lon="8.842490173770512"><ele>115.5</ele><time>2026-03-28T16:47:54.999Z</time></trkpt><trkpt lat="44.897659908097886" lon="8.842532767284927"><ele>115.0</ele><time>2026-03-28T16:47:55.999Z</time></trkpt><trkpt lat="44.897929985869716" lon="8.842573694919306"><ele>115.0</ele><time>2026-03-28T16:47:56.999Z</time></trkpt><trkpt lat="44.89820291584395" lon="8.842618644848894"><ele>115.0</ele><time>2026-03-28T16:47:57.999Z</time></trkpt><trkpt lat="44.89847624207354" lon="8.842670047895714"><ele>113.0</ele><time>2026-03-28T16:47:58.999Z</time></trkpt><trkpt lat="44.89874758375039" lon="8.842718386404425"><ele>111.0</ele><time>2026-03-28T16:47:59.999Z</time></trkpt><trkpt lat="44.899022625016265" lon="8.842757288989823"><ele>112.0</ele><time>2026-03-28T16:48:00.999Z</time></trkpt><trkpt lat="44.899295049492096" lon="8.84280318331809"><ele>113.0</ele><time>2026-03-28T16:48:01.999Z</time></trkpt><trkpt lat="44.8995659403302" lon="8.842854060739539"><ele>113.0</ele><time>2026-03-28T16:48:02.999Z</time></trkpt><trkpt lat="44.899835380116976" lon="8.84289295749719"><ele>113.0</ele><time>2026-03-28T16:48:03.999Z</time></trkpt><trkpt lat="44.90010315168297" lon="8.84293870123522"><ele>111.5</ele><time>2026-03-28T16:48:04.999Z</time></trkpt><trkpt lat="44.900376787445815" lon="8.84297742423829"><ele>110.0</ele><time>2026-03-28T16:48:05.999Z</time></trkpt><trkpt lat="44.90065508373966" lon="8.843022886437927"><ele>110.0</ele><time>2026-03-28T16:48:06.999Z</time></trkpt><trkpt lat="44.900930800986984" lon="8.843060206283509"><ele>110.0</ele><time>2026-03-28T16:48:07.999Z</time></trkpt><trkpt lat="44.90120274902835" lon="8.843090441546767"><ele>110.0</ele><time>2026-03-28T16:48:08.999Z</time></trkpt><trkpt lat="44.90148073587772" lon="8.843123310140685"><ele>110.0</ele><time>2026-03-28T16:48:09.999Z</time></trkpt><trkpt lat="44.901757434145196" lon="8.8431545736254"><ele>111.0</ele><time>2026-03-28T16:48:10.999Z</time></trkpt><trkpt lat="44.90203182906995" lon="8.843179415733925"><ele>112.0</ele><time>2026-03-28T16:48:11.999Z</time></trkpt><trkpt lat="44.90230514924923" lon="8.843209398671268"><ele>110.5</ele><time>2026-03-28T16:48:12.999Z</time></trkpt><trkpt lat="44.90258263345543" lon="8.843240485495105"><ele>109.0</ele><time>2026-03-28T16:48:13.999Z</time></trkpt><trkpt lat="44.90285619849146" lon="8.843269947853937"><ele>109.0</ele><time>2026-03-28T16:48:14.999Z</time></trkpt><trkpt lat="44.90313366817357" lon="8.843295616593474"><ele>109.0</ele><time>2026-03-28T16:48:15.999Z</time></trkpt><trkpt lat="44.903417579895816" lon="8.843317249040574"><ele>110.0</ele><time>2026-03-28T16:48:16.999Z</time></trkpt><trkpt lat="44.903702781055365" lon="8.843345190859349"><ele>111.0</ele><time>2026-03-28T16:48:17.999Z</time></trkpt><trkpt lat="44.903989788642384" lon="8.843369640235917"><ele>110.0</ele><time>2026-03-28T16:48:18.999Z</time></trkpt><trkpt lat="44.90427753992062" lon="8.843398803759536"><ele>109.0</ele><time>2026-03-28T16:48:19.999Z</time></trkpt><trkpt lat="44.90456883790663" lon="8.843425837455273"><ele>109.0</ele><time>2026-03-28T16:48:20.999Z</time></trkpt><trkpt lat="44.90485774757369" lon="8.843457393345187"><ele>109.0</ele><time>2026-03-28T16:48:21.999Z</time></trkpt><trkpt lat="44.905147809885925" lon="8.843483262567398"><ele>109.0</ele><time>2026-03-28T16:48:22.999Z</time></trkpt><trkpt lat="44.90543725044899" lon="8.843508822734725"><ele>109.0</ele><time>2026-03-28T16:48:24Z</time></trkpt><trkpt lat="44.90572573498583" lon="8.843536722288313"><ele>109.0</ele><time>2026-03-28T16:48:25Z</time></trkpt><trkpt lat="44.90601597668181" lon="8.84356368010063"><ele>109.0</ele><time>2026-03-28T16:48:26Z</time></trkpt><trkpt lat="44.90630311991698" lon="8.84358964256846"><ele>109.0</ele><time>2026-03-28T16:48:27Z</time></trkpt><trkpt lat="44.90659330592506" lon="8.843616240341568"><ele>109.0</ele><time>2026-03-28T16:48:28Z</time></trkpt><trkpt lat="44.90688223858436" lon="8.843644482848381"><ele>109.0</ele><time>2026-03-28T16:48:29Z</time></trkpt><trkpt lat="44.90717039472569" lon="8.843672403806046"><ele>109.0</ele><time>2026-03-28T16:48:30Z</time></trkpt><trkpt lat="44.907459486028344" lon="8.84369814947803"><ele>109.0</ele><time>2026-03-28T16:48:31Z</time></trkpt><trkpt lat="44.90774624298017" lon="8.843725976747544"><ele>109.0</ele><time>2026-03-28T16:48:32Z</time></trkpt><trkpt lat="44.90803518730578" lon="8.843754723472673"><ele>109.0</ele><time>2026-03-28T16:48:33Z</time></trkpt><trkpt lat="44.90832449249809" lon="8.843779454173596"><ele>109.0</ele><time>2026-03-28T16:48:34Z</time></trkpt><trkpt lat="44.90861314704123" lon="8.843809774739318"><ele>108.5</ele><time>2026-03-28T16:48:35Z</time></trkpt><trkpt lat="44.90890115691347" lon="8.84383391854577"><ele>108.0</ele><time>2026-03-28T16:48:36Z</time></trkpt><trkpt lat="44.90920615589262" lon="8.843863908621314"><ele>108.0</ele><time>2026-03-28T16:48:37Z</time></trkpt><trkpt lat="44.90947981926351" lon="8.843887380807685"><ele>108.0</ele><time>2026-03-28T16:48:38Z</time></trkpt><trkpt lat="44.909770657138694" lon="8.84391273614949"><ele>108.0</ele><time>2026-03-28T16:48:39Z</time></trkpt><trkpt lat="44.91005599344167" lon="8.843940951565092"><ele>108.0</ele><time>2026-03-28T16:48:40Z</time></trkpt><trkpt lat="44.910343457532484" lon="8.84396357238857"><ele>107.5</ele><time>2026-03-28T16:48:41Z</time></trkpt><trkpt lat="44.91064087098868" lon="8.843993216281081"><ele>107.0</ele><time>2026-03-28T16:48:42Z</time></trkpt><trkpt lat="44.910923194015204" lon="8.844022311606725"><ele>106.0</ele><time>2026-03-28T16:48:43Z</time></trkpt><trkpt lat="44.91121435197882" lon="8.844047122251048"><ele>105.0</ele><time>2026-03-28T16:48:44Z</time></trkpt><trkpt lat="44.911497428349655" lon="8.844077899726042"><ele>105.0</ele><time>2026-03-28T16:48:45Z</time></trkpt><trkpt lat="44.911789688892995" lon="8.84410130898591"><ele>105.0</ele><time>2026-03-28T16:48:46Z</time></trkpt><trkpt lat="44.91207729189218" lon="8.844130530789746"><ele>105.0</ele><time>2026-03-28T16:48:47Z</time></trkpt><trkpt lat="44.91236551108492" lon="8.844158313361683"><ele>105.0</ele><time>2026-03-28T16:48:48Z</time></trkpt><trkpt lat="44.91265583595192" lon="8.844186969117425"><ele>105.5</ele><time>2026-03-28T16:48:49Z</time></trkpt><trkpt lat="44.912942599210965" lon="8.84421184084215"><ele>106.0</ele><time>2026-03-28T16:48:50Z</time></trkpt><trkpt lat="44.91323173483945" lon="8.844241312984284"><ele>105.5</ele><time>2026-03-28T16:48:51Z</time></trkpt><trkpt lat="44.91352021804216" lon="8.844267696555534"><ele>105.0</ele><time>2026-03-28T16:48:52Z</time></trkpt><trkpt lat="44.91380766830906" lon="8.844294645424764"><ele>104.0</ele><time>2026-03-28T16:48:53Z</time></trkpt><trkpt lat="44.91409611745834" lon="8.844323990280143"><ele>103.0</ele><time>2026-03-28T16:48:54Z</time></trkpt><trkpt lat="44.91438542472185" lon="8.844352009611761"><ele>103.0</ele><time>2026-03-28T16:48:55Z</time></trkpt><trkpt lat="44.91467399213367" lon="8.844380731368668"><ele>103.0</ele><time>2026-03-28T16:48:56Z</time></trkpt><trkpt lat="44.914962415542" lon="8.844416663222987"><ele>104.5</ele><time>2026-03-28T16:48:57Z</time></trkpt><trkpt lat="44.915251870225326" lon="8.844445611247474"><ele>106.0</ele><time>2026-03-28T16:48:58Z</time></trkpt><trkpt lat="44.915538988646546" lon="8.844467327683804"><ele>106.0</ele><time>2026-03-28T16:48:59Z</time></trkpt><trkpt lat="44.91582609609486" lon="8.844492311457929"><ele>106.0</ele><time>2026-03-28T16:49:00Z</time></trkpt><trkpt lat="44.9161150718126" lon="8.844520362820365"><ele>108.0</ele><time>2026-03-28T16:49:01Z</time></trkpt><trkpt lat="44.91640498855651" lon="8.844545597150738"><ele>110.0</ele><time>2026-03-28T16:49:02Z</time></trkpt><trkpt lat="44.91669070956643" lon="8.844574185408415"><ele>108.0</ele><time>2026-03-28T16:49:03Z</time></trkpt><trkpt lat="44.9169701489754" lon="8.8445981961416"><ele>106.0</ele><time>2026-03-28T16:49:04Z</time></trkpt><trkpt lat="44.917264828255526" lon="8.844630362805695"><ele>106.0</ele><time>2026-03-28T16:49:05Z</time></trkpt><trkpt lat="44.91755611554716" lon="8.844654890095361"><ele>106.0</ele><time>2026-03-28T16:49:06Z</time></trkpt><trkpt lat="44.917843673110404" lon="8.84468187013747"><ele>106.0</ele><time>2026-03-28T16:49:07Z</time></trkpt><trkpt lat="44.918131508225486" lon="8.84470965878806"><ele>106.0</ele><time>2026-03-28T16:49:08Z</time></trkpt><trkpt lat="44.91841857104613" lon="8.844739282851423"><ele>106.0</ele><time>2026-03-28T16:49:09Z</time></trkpt><trkpt lat="44.91870806541867" lon="8.844771172341293"><ele>106.0</ele><time>2026-03-28T16:49:10Z</time></trkpt><trkpt lat="44.91899877531995" lon="8.844810289964647"><ele>105.5</ele><time>2026-03-28T16:49:11Z</time></trkpt><trkpt lat="44.919283479935686" lon="8.844855492353378"><ele>105.0</ele><time>2026-03-28T16:49:12Z</time></trkpt><trkpt lat="44.91956912409666" lon="8.844911712687162"><ele>105.0</ele><time>2026-03-28T16:49:13Z</time></trkpt><trkpt lat="44.919855737130504" lon="8.844970653953272"><ele>105.0</ele><time>2026-03-28T16:49:14Z</time></trkpt><trkpt lat="44.920139493381186" lon="8.84503709943326"><ele>106.0</ele><time>2026-03-28T16:49:15Z</time></trkpt><trkpt lat="44.92042571842731" lon="8.845114825670377"><ele>107.0</ele><time>2026-03-28T16:49:15.999Z</time></trkpt><trkpt lat="44.92070875511676" lon="8.845192938576725"><ele>107.5</ele><time>2026-03-28T16:49:16.999Z</time></trkpt><trkpt lat="44.92099408948222" lon="8.845271343852517"><ele>108.0</ele><time>2026-03-28T16:49:17.999Z</time></trkpt><trkpt lat="44.921270525320736" lon="8.845364580069313"><ele>108.0</ele><time>2026-03-28T16:49:18.999Z</time></trkpt><trkpt lat="44.921551603601735" lon="8.845457557729741"><ele>108.0</ele><time>2026-03-28T16:49:19.999Z</time></trkpt><trkpt lat="44.921834635124114" lon="8.845563833938513"><ele>106.5</ele><time>2026-03-28T16:49:20.999Z</time></trkpt><trkpt lat="44.92211053718216" lon="8.845673177903674"><ele>105.0</ele><time>2026-03-28T16:49:21.999Z</time></trkpt><trkpt lat="44.922386817693926" lon="8.845790313758014"><ele>104.0</ele><time>2026-03-28T16:49:22.999Z</time></trkpt><trkpt lat="44.92266384491652" lon="8.845908994129339"><ele>103.0</ele><time>2026-03-28T16:49:23.999Z</time></trkpt><trkpt lat="44.92293972339655" lon="8.846039581028581"><ele>103.0</ele><time>2026-03-28T16:49:24.999Z</time></trkpt><trkpt lat="44.923209335685435" lon="8.846171547286447"><ele>103.0</ele><time>2026-03-28T16:49:25.999Z</time></trkpt><trkpt lat="44.92348113084903" lon="8.846312433664675"><ele>103.0</ele><time>2026-03-28T16:49:26.999Z</time></trkpt><trkpt lat="44.923753819944665" lon="8.8464586377116"><ele>103.0</ele><time>2026-03-28T16:49:27.999Z</time></trkpt><trkpt lat="44.924022250943416" lon="8.846609678785025"><ele>103.0</ele><time>2026-03-28T16:49:28.999Z</time></trkpt><trkpt lat="44.92428806973451" lon="8.846765638787703"><ele>103.0</ele><time>2026-03-28T16:49:29.999Z</time></trkpt><trkpt lat="44.92455385284515" lon="8.84692367213691"><ele>102.5</ele><time>2026-03-28T16:49:30.999Z</time></trkpt><trkpt lat="44.924820043259906" lon="8.847086105279061"><ele>102.0</ele><time>2026-03-28T16:49:31.999Z</time></trkpt><trkpt lat="44.925084421411604" lon="8.847251021363913"><ele>101.0</ele><time>2026-03-28T16:49:32.999Z</time></trkpt><trkpt lat="44.92535061643627" lon="8.847413945362664"><ele>100.0</ele><time>2026-03-28T16:49:33.999Z</time></trkpt><trkpt lat="44.92561542673982" lon="8.847571711070826"><ele>100.0</ele><time>2026-03-28T16:49:34.999Z</time></trkpt><trkpt lat="44.92588173278136" lon="8.847729878196725"><ele>100.0</ele><time>2026-03-28T16:49:35.999Z</time></trkpt><trkpt lat="44.92614737579112" lon="8.847890227622667"><ele>100.0</ele><time>2026-03-28T16:49:36.999Z</time></trkpt><trkpt lat="44.92641537314393" lon="8.848048114869066"><ele>100.0</ele><time>2026-03-28T16:49:37.999Z</time></trkpt><trkpt lat="44.92668030620361" lon="8.848213586033053"><ele>100.0</ele><time>2026-03-28T16:49:38.999Z</time></trkpt><trkpt lat="44.92694808396393" lon="8.848375922147579"><ele>100.0</ele><time>2026-03-28T16:49:39.999Z</time></trkpt><trkpt lat="44.92721246199108" lon="8.848540999775354"><ele>100.5</ele><time>2026-03-28T16:49:40.999Z</time></trkpt><trkpt lat="44.9274770006337" lon="8.84871089346085"><ele>101.0</ele><time>2026-03-28T16:49:41.999Z</time></trkpt><trkpt lat="44.92774109468307" lon="8.848877005386429"><ele>100.0</ele><time>2026-03-28T16:49:42.999Z</time></trkpt><trkpt lat="44.92800487031885" lon="8.849044820984224"><ele>99.0</ele><time>2026-03-28T16:49:43.999Z</time></trkpt><trkpt lat="44.928267336490535" lon="8.849214636354292"><ele>100.0</ele><time>2026-03-28T16:49:44.999Z</time></trkpt><trkpt lat="44.92853404554051" lon="8.849382183117994"><ele>101.0</ele><time>2026-03-28T16:49:45.999Z</time></trkpt><trkpt lat="44.9287987097872" lon="8.84954950878102"><ele>101.0</ele><time>2026-03-28T16:49:46.999Z</time></trkpt><trkpt lat="44.92906172079752" lon="8.849716057450403"><ele>101.0</ele><time>2026-03-28T16:49:47.999Z</time></trkpt><trkpt lat="44.92932758015215" lon="8.849881219986973"><ele>101.0</ele><time>2026-03-28T16:49:48.999Z</time></trkpt><trkpt lat="44.92959283405851" lon="8.850048880431943"><ele>101.0</ele><time>2026-03-28T16:49:49.999Z</time></trkpt><trkpt lat="44.92985906198127" lon="8.850215623013876"><ele>100.0</ele><time>2026-03-28T16:49:50.999Z</time></trkpt><trkpt lat="44.93012393104728" lon="8.850384119320927"><ele>99.0</ele><time>2026-03-28T16:49:51.999Z</time></trkpt><trkpt lat="44.93038378500147" lon="8.850552838744402"><ele>99.0</ele><time>2026-03-28T16:49:52.999Z</time></trkpt><trkpt lat="44.930636322375186" lon="8.850710064264286"><ele>99.0</ele><time>2026-03-28T16:49:53.999Z</time></trkpt><trkpt lat="44.93091279674899" lon="8.850885404991224"><ele>100.0</ele><time>2026-03-28T16:49:54.999Z</time></trkpt><trkpt lat="44.931174957890846" lon="8.851049857144812"><ele>101.0</ele><time>2026-03-28T16:49:55.999Z</time></trkpt><trkpt lat="44.931439507573295" lon="8.851216977174667"><ele>101.0</ele><time>2026-03-28T16:49:56.999Z</time></trkpt><trkpt lat="44.93170056347772" lon="8.85138576362059"><ele>101.0</ele><time>2026-03-28T16:49:57.999Z</time></trkpt><trkpt lat="44.9319640540769" lon="8.851548455195482"><ele>101.0</ele><time>2026-03-28T16:49:58.999Z</time></trkpt><trkpt lat="44.93222696344745" lon="8.851715811552722"><ele>101.0</ele><time>2026-03-28T16:49:59.999Z</time></trkpt><trkpt lat="44.93248831308144" lon="8.851893038634586"><ele>101.5</ele><time>2026-03-28T16:50:00.999Z</time></trkpt><trkpt lat="44.93275424492702" lon="8.85206522511287"><ele>102.0</ele><time>2026-03-28T16:50:01.999Z</time></trkpt><trkpt lat="44.93301449559354" lon="8.85223689329335"><ele>102.0</ele><time>2026-03-28T16:50:02.999Z</time></trkpt><trkpt lat="44.933276359735686" lon="8.852405315338926"><ele>102.0</ele><time>2026-03-28T16:50:03.999Z</time></trkpt><trkpt lat="44.93353873777078" lon="8.852573631654051"><ele>101.0</ele><time>2026-03-28T16:50:04.999Z</time></trkpt><trkpt lat="44.9338013518536" lon="8.852736779244871"><ele>100.0</ele><time>2026-03-28T16:50:05.999Z</time></trkpt><trkpt lat="44.93406941269715" lon="8.852904010086196"><ele>100.0</ele><time>2026-03-28T16:50:06.999Z</time></trkpt><trkpt lat="44.93433371575485" lon="8.853064031943694"><ele>100.0</ele><time>2026-03-28T16:50:07.999Z</time></trkpt><trkpt lat="44.934597293599" lon="8.853229119771028"><ele>100.0</ele><time>2026-03-28T16:50:08.999Z</time></trkpt><trkpt lat="44.934859030335524" lon="8.853396726914921"><ele>100.0</ele><time>2026-03-28T16:50:09.999Z</time></trkpt><trkpt lat="44.935123612632104" lon="8.853567974142655"><ele>98.0</ele><time>2026-03-28T16:50:10.999Z</time></trkpt><trkpt lat="44.935387339884464" lon="8.85373802231525"><ele>96.0</ele><time>2026-03-28T16:50:11.999Z</time></trkpt><trkpt lat="44.93564867745851" lon="8.853901122537728"><ele>97.0</ele><time>2026-03-28T16:50:12.999Z</time></trkpt><trkpt lat="44.93591204270973" lon="8.854070338930178"><ele>98.0</ele><time>2026-03-28T16:50:13.999Z</time></trkpt><trkpt lat="44.93617376942984" lon="8.854234736411646"><ele>97.5</ele><time>2026-03-28T16:50:14.999Z</time></trkpt><trkpt lat="44.93643884474792" lon="8.85440322832859"><ele>97.0</ele><time>2026-03-28T16:50:15.999Z</time></trkpt><trkpt lat="44.9367032299476" lon="8.854571290726877"><ele>97.0</ele><time>2026-03-28T16:50:16.999Z</time></trkpt><trkpt lat="44.93696676593801" lon="8.854737501148719"><ele>97.0</ele><time>2026-03-28T16:50:17.999Z</time></trkpt><trkpt lat="44.937230440670824" lon="8.854901757639443"><ele>97.0</ele><time>2026-03-28T16:50:18.999Z</time></trkpt><trkpt lat="44.937495687619936" lon="8.855068669378104"><ele>97.0</ele><time>2026-03-28T16:50:19.999Z</time></trkpt><trkpt lat="44.93775973683654" lon="8.855235206361465"><ele>95.5</ele><time>2026-03-28T16:50:20.999Z</time></trkpt><trkpt lat="44.93802246437837" lon="8.855400415655943"><ele>94.0</ele><time>2026-03-28T16:50:21.999Z</time></trkpt><trkpt lat="44.938288036524035" lon="8.855566714239817"><ele>95.0</ele><time>2026-03-28T16:50:22.999Z</time></trkpt><trkpt lat="44.93855100555207" lon="8.85573246681909"><ele>96.0</ele><time>2026-03-28T16:50:23.999Z</time></trkpt><trkpt lat="44.93881735639009" lon="8.85589845087701"><ele>95.5</ele><time>2026-03-28T16:50:24.999Z</time></trkpt><trkpt lat="44.939079405525135" lon="8.856064476221437"><ele>95.0</ele><time>2026-03-28T16:50:25.999Z</time></trkpt><trkpt lat="44.93934396384017" lon="8.856232507962732"><ele>95.0</ele><time>2026-03-28T16:50:26.999Z</time></trkpt><trkpt lat="44.939606870216025" lon="8.856399454520563"><ele>95.0</ele><time>2026-03-28T16:50:27.999Z</time></trkpt><trkpt lat="44.93987246028435" lon="8.856566637791332"><ele>95.0</ele><time>2026-03-28T16:50:28.999Z</time></trkpt><trkpt lat="44.94013702515993" lon="8.85673292527035"><ele>95.0</ele><time>2026-03-28T16:50:30Z</time></trkpt><trkpt lat="44.940401964221536" lon="8.856899071522776"><ele>94.5</ele><time>2026-03-28T16:50:31Z</time></trkpt><trkpt lat="44.94066688275514" lon="8.857068630059505"><ele>94.0</ele><time>2026-03-28T16:50:32Z</time></trkpt><trkpt lat="44.94093071721142" lon="8.857235883916456"><ele>94.0</ele><time>2026-03-28T16:50:33Z</time></trkpt><trkpt lat="44.941192610059865" lon="8.857404381789054"><ele>94.0</ele><time>2026-03-28T16:50:34Z</time></trkpt><trkpt lat="44.94145782729464" lon="8.857568704927836"><ele>94.5</ele><time>2026-03-28T16:50:35Z</time></trkpt><trkpt lat="44.94172165931891" lon="8.857735262739547"><ele>95.0</ele><time>2026-03-28T16:50:36Z</time></trkpt><trkpt lat="44.94198538365169" lon="8.857900121889262"><ele>95.0</ele><time>2026-03-28T16:50:37Z</time></trkpt><trkpt lat="44.942249767487176" lon="8.858065773271617"><ele>95.0</ele><time>2026-03-28T16:50:38Z</time></trkpt><trkpt lat="44.94251524849558" lon="8.858231001425185"><ele>95.5</ele><time>2026-03-28T16:50:39Z</time></trkpt><trkpt lat="44.94278087224778" lon="8.85839685378392"><ele>96.0</ele><time>2026-03-28T16:50:40Z</time></trkpt><trkpt lat="44.943045590873915" lon="8.858565961641993"><ele>96.0</ele><time>2026-03-28T16:50:41Z</time></trkpt><trkpt lat="44.943310044374236" lon="8.85873324482091"><ele>96.0</ele><time>2026-03-28T16:50:42Z</time></trkpt><trkpt lat="44.94357315757231" lon="8.858902764692969"><ele>96.0</ele><time>2026-03-28T16:50:43Z</time></trkpt><trkpt lat="44.94383634602347" lon="8.859073156809924"><ele>96.0</ele><time>2026-03-28T16:50:44Z</time></trkpt><trkpt lat="44.94410249115926" lon="8.859241889366487"><ele>94.5</ele><time>2026-03-28T16:50:45Z</time></trkpt><trkpt lat="44.94436753985106" lon="8.859408953649755"><ele>93.0</ele><time>2026-03-28T16:50:46Z</time></trkpt><trkpt lat="44.944630083051585" lon="8.859574088587197"><ele>93.0</ele><time>2026-03-28T16:50:47Z</time></trkpt><trkpt lat="44.944895027381406" lon="8.859741633602289"><ele>93.0</ele><time>2026-03-28T16:50:48Z</time></trkpt><trkpt lat="44.94515893778016" lon="8.85990376184158"><ele>93.0</ele><time>2026-03-28T16:50:49Z</time></trkpt><trkpt lat="44.94542351758477" lon="8.860068340541813"><ele>93.0</ele><time>2026-03-28T16:50:50Z</time></trkpt><trkpt lat="44.945688689615864" lon="8.860235850514918"><ele>93.0</ele><time>2026-03-28T16:50:51Z</time></trkpt><trkpt lat="44.945951727686435" lon="8.860400762786915"><ele>93.0</ele><time>2026-03-28T16:50:52Z</time></trkpt><trkpt lat="44.946215412555425" lon="8.860567747587698"><ele>93.0</ele><time>2026-03-28T16:50:53Z</time></trkpt><trkpt lat="44.94648199079858" lon="8.86073404976063"><ele>93.0</ele><time>2026-03-28T16:50:54Z</time></trkpt><trkpt lat="44.94674723399148" lon="8.86090055207928"><ele>92.5</ele><time>2026-03-28T16:50:55Z</time></trkpt><trkpt lat="44.947011982921225" lon="8.861065314026925"><ele>92.0</ele><time>2026-03-28T16:50:56Z</time></trkpt><trkpt lat="44.947276328037084" lon="8.861231088399117"><ele>92.0</ele><time>2026-03-28T16:50:57Z</time></trkpt><trkpt lat="44.94754063821361" lon="8.861397400645119"><ele>92.0</ele><time>2026-03-28T16:50:58Z</time></trkpt><trkpt lat="44.94780323471445" lon="8.861569646376418"><ele>92.0</ele><time>2026-03-28T16:50:59Z</time></trkpt><trkpt lat="44.94806181499481" lon="8.861748836972998"><ele>92.0</ele><time>2026-03-28T16:51:00Z</time></trkpt><trkpt lat="44.948317116877156" lon="8.861941320756374"><ele>91.5</ele><time>2026-03-28T16:51:01Z</time></trkpt><trkpt lat="44.94856870947824" lon="8.86214237097308"><ele>91.0</ele><time>2026-03-28T16:51:02Z</time></trkpt><trkpt lat="44.948815010090364" lon="8.862355813229408"><ele>91.0</ele><time>2026-03-28T16:51:03Z</time></trkpt><trkpt lat="44.94905665651785" lon="8.862578022951356"><ele>91.0</ele><time>2026-03-28T16:51:04Z</time></trkpt><trkpt lat="44.94929320987434" lon="8.862812534812504"><ele>90.5</ele><time>2026-03-28T16:51:05Z</time></trkpt><trkpt lat="44.94952298349128" lon="8.863057604670237"><ele>90.0</ele><time>2026-03-28T16:51:06Z</time></trkpt><trkpt lat="44.94974849659723" lon="8.863311967274118"><ele>90.0</ele><time>2026-03-28T16:51:07Z</time></trkpt><trkpt lat="44.94996817408297" lon="8.863575950079891"><ele>90.0</ele><time>2026-03-28T16:51:08Z</time></trkpt><trkpt lat="44.95018031176025" lon="8.863848188390598"><ele>90.5</ele><time>2026-03-28T16:51:09Z</time></trkpt><trkpt lat="44.95038841189744" lon="8.864132001727963"><ele>91.0</ele><time>2026-03-28T16:51:10Z</time></trkpt><trkpt lat="44.95059031976167" lon="8.864424849136292"><ele>91.5</ele><time>2026-03-28T16:51:11Z</time></trkpt><trkpt lat="44.950784764992896" lon="8.864727784348792"><ele>92.0</ele><time>2026-03-28T16:51:12Z</time></trkpt><trkpt lat="44.9509767584186" lon="8.865039525701391"><ele>93.5</ele><time>2026-03-28T16:51:13Z</time></trkpt><trkpt lat="44.95115650734297" lon="8.865359605727594"><ele>95.0</ele><time>2026-03-28T16:51:14Z</time></trkpt><trkpt lat="44.951327730175485" lon="8.865687561536841"><ele>95.0</ele><time>2026-03-28T16:51:15Z</time></trkpt><trkpt lat="44.951489416750334" lon="8.866026062253532"><ele>95.0</ele><time>2026-03-28T16:51:16Z</time></trkpt><trkpt lat="44.951640252678075" lon="8.866374271657921"><ele>94.0</ele><time>2026-03-28T16:51:17Z</time></trkpt><trkpt lat="44.95178613062698" lon="8.866724585865061"><ele>93.0</ele><time>2026-03-28T16:51:18Z</time></trkpt><trkpt lat="44.95192729863307" lon="8.867077906303585"><ele>93.0</ele><time>2026-03-28T16:51:19Z</time></trkpt><trkpt lat="44.95206676515167" lon="8.867433482383875"><ele>93.0</ele><time>2026-03-28T16:51:20Z</time></trkpt><trkpt lat="44.95220405005278" lon="8.86779082587434"><ele>92.0</ele><time>2026-03-28T16:51:21Z</time></trkpt><trkpt lat="44.952342261338686" lon="8.868148563107349"><ele>91.0</ele><time>2026-03-28T16:51:22Z</time></trkpt><trkpt lat="44.952482039257305" lon="8.868506796927933"><ele>89.5</ele><time>2026-03-28T16:51:23Z</time></trkpt><trkpt lat="44.95262043057356" lon="8.868864051741516"><ele>88.0</ele><time>2026-03-28T16:51:24Z</time></trkpt><trkpt lat="44.95275833424846" lon="8.869223059944856"><ele>89.0</ele><time>2026-03-28T16:51:25Z</time></trkpt><trkpt lat="44.95289997326959" lon="8.869582676368381"><ele>90.0</ele><time>2026-03-28T16:51:25.999Z</time></trkpt><trkpt lat="44.95303824898831" lon="8.869941777346058"><ele>90.0</ele><time>2026-03-28T16:51:26.999Z</time></trkpt><trkpt lat="44.953175660047926" lon="8.870300608218873"><ele>90.0</ele><time>2026-03-28T16:51:27.999Z</time></trkpt><trkpt lat="44.953313099358056" lon="8.870659970371117"><ele>90.5</ele><time>2026-03-28T16:51:28.999Z</time></trkpt><trkpt lat="44.953453901266926" lon="8.871017023270452"><ele>91.0</ele><time>2026-03-28T16:51:29.999Z</time></trkpt><trkpt lat="44.95359660149944" lon="8.871369742766062"><ele>91.0</ele><time>2026-03-28T16:51:30.999Z</time></trkpt><trkpt lat="44.9537441507596" lon="8.871719076343695"><ele>91.0</ele><time>2026-03-28T16:51:31.999Z</time></trkpt><trkpt lat="44.95389845104602" lon="8.87206543406733"><ele>90.5</ele><time>2026-03-28T16:51:32.999Z</time></trkpt><trkpt lat="44.95406149565888" lon="8.872404640539337"><ele>90.0</ele><time>2026-03-28T16:51:33.999Z</time></trkpt><trkpt lat="44.95423360013825" lon="8.872733314943254"><ele>89.5</ele><time>2026-03-28T16:51:34.999Z</time></trkpt><trkpt lat="44.95441354002595" lon="8.873055066431432"><ele>89.0</ele><time>2026-03-28T16:51:35.999Z</time></trkpt><trkpt lat="44.95459883831179" lon="8.873370468355715"><ele>89.5</ele><time>2026-03-28T16:51:36.999Z</time></trkpt><trkpt lat="44.954790064211174" lon="8.873680909811103"><ele>90.0</ele><time>2026-03-28T16:51:37.999Z</time></trkpt><trkpt lat="44.95498575123748" lon="8.873978671903261"><ele>90.0</ele><time>2026-03-28T16:51:38.999Z</time></trkpt><trkpt lat="44.955189883202486" lon="8.874268674328102"><ele>90.0</ele><time>2026-03-28T16:51:39.999Z</time></trkpt><trkpt lat="44.95539772227964" lon="8.874551338255252"><ele>90.0</ele><time>2026-03-28T16:51:40.999Z</time></trkpt><trkpt lat="44.9556127275469" lon="8.87482337660207"><ele>90.0</ele><time>2026-03-28T16:51:41.999Z</time></trkpt><trkpt lat="44.95583317681289" lon="8.875086319414162"><ele>90.0</ele><time>2026-03-28T16:51:42.999Z</time></trkpt><trkpt lat="44.956058566859625" lon="8.875341830859085"><ele>90.0</ele><time>2026-03-28T16:51:43.999Z</time></trkpt><trkpt lat="44.956287687002806" lon="8.875591386430196"><ele>90.0</ele><time>2026-03-28T16:51:44.999Z</time></trkpt><trkpt lat="44.95651903140011" lon="8.875836173772631"><ele>90.0</ele><time>2026-03-28T16:51:45.999Z</time></trkpt><trkpt lat="44.956750253329105" lon="8.876081060673513"><ele>89.5</ele><time>2026-03-28T16:51:46.999Z</time></trkpt><trkpt lat="44.95698137341699" lon="8.8763259976645"><ele>89.0</ele><time>2026-03-28T16:51:47.999Z</time></trkpt><trkpt lat="44.957213582307915" lon="8.876572554412384"><ele>89.5</ele><time>2026-03-28T16:51:48.999Z</time></trkpt><trkpt lat="44.957444252058586" lon="8.876815371119463"><ele>90.0</ele><time>2026-03-28T16:51:49.999Z</time></trkpt><trkpt lat="44.957672569353214" lon="8.87705557891127"><ele>90.0</ele><time>2026-03-28T16:51:50.999Z</time></trkpt><trkpt lat="44.95790332953081" lon="8.877299998645075"><ele>90.0</ele><time>2026-03-28T16:51:51.999Z</time></trkpt><trkpt lat="44.958132712831734" lon="8.877544588645025"><ele>90.0</ele><time>2026-03-28T16:51:52.999Z</time></trkpt><trkpt lat="44.95834965035876" lon="8.87777766909419"><ele>90.0</ele><time>2026-03-28T16:51:53.999Z</time></trkpt><trkpt lat="44.95855634786504" lon="8.8779994444478"><ele>90.0</ele><time>2026-03-28T16:51:54.999Z</time></trkpt><trkpt lat="44.958750396276926" lon="8.878207363638046"><ele>90.0</ele><time>2026-03-28T16:51:55.999Z</time></trkpt><trkpt lat="44.9589461908576" lon="8.878415982939403"><ele>89.5</ele><time>2026-03-28T16:51:56.999Z</time></trkpt><trkpt lat="44.959145572032085" lon="8.87862860621788"><ele>89.0</ele><time>2026-03-28T16:51:57.999Z</time></trkpt><trkpt lat="44.95935364146052" lon="8.878849194188183"><ele>89.0</ele><time>2026-03-28T16:51:58.999Z</time></trkpt><trkpt lat="44.95956636908894" lon="8.879074823764265"><ele>89.0</ele><time>2026-03-28T16:51:59.999Z</time></trkpt><trkpt lat="44.959784167498604" lon="8.879304633020784"><ele>89.0</ele><time>2026-03-28T16:52:00.999Z</time></trkpt><trkpt lat="44.96000338199319" lon="8.879535680968104"><ele>89.0</ele><time>2026-03-28T16:52:01.999Z</time></trkpt><trkpt lat="44.960223816605904" lon="8.879767374840274"><ele>89.0</ele><time>2026-03-28T16:52:02.999Z</time></trkpt><trkpt lat="44.96044456859356" lon="8.880000881975095"><ele>89.0</ele><time>2026-03-28T16:52:03.999Z</time></trkpt><trkpt lat="44.96066452535336" lon="8.880235693494026"><ele>88.5</ele><time>2026-03-28T16:52:04.999Z</time></trkpt><trkpt lat="44.96088555571084" lon="8.880468749157606"><ele>88.0</ele><time>2026-03-28T16:52:05.999Z</time></trkpt><trkpt lat="44.96110776791326" lon="8.880704212088842"><ele>90.0</ele><time>2026-03-28T16:52:06.999Z</time></trkpt><trkpt lat="44.96133020792427" lon="8.880937788577448"><ele>92.0</ele><time>2026-03-28T16:52:07.999Z</time></trkpt><trkpt lat="44.96155567270062" lon="8.881173465878163"><ele>91.5</ele><time>2026-03-28T16:52:08.999Z</time></trkpt><trkpt lat="44.96177962918453" lon="8.881409971858922"><ele>91.0</ele><time>2026-03-28T16:52:09.999Z</time></trkpt><trkpt lat="44.961998688051715" lon="8.881642154130923"><ele>90.5</ele><time>2026-03-28T16:52:10.999Z</time></trkpt><trkpt lat="44.96220486342326" lon="8.881876377064817"><ele>90.0</ele><time>2026-03-28T16:52:11.999Z</time></trkpt><trkpt lat="44.96241481341317" lon="8.882095447743604"><ele>90.0</ele><time>2026-03-28T16:52:12.999Z</time></trkpt><trkpt lat="44.96262145300298" lon="8.882308727977312"><ele>90.0</ele><time>2026-03-28T16:52:13.999Z</time></trkpt><trkpt lat="44.962829236392565" lon="8.882523225499074"><ele>90.0</ele><time>2026-03-28T16:52:14.999Z</time></trkpt><trkpt lat="44.963036005654146" lon="8.882738389078963"><ele>90.0</ele><time>2026-03-28T16:52:15.999Z</time></trkpt><trkpt lat="44.96324154583625" lon="8.882953880480175"><ele>87.5</ele><time>2026-03-28T16:52:16.999Z</time></trkpt><trkpt lat="44.963443989223435" lon="8.883170923351388"><ele>85.0</ele><time>2026-03-28T16:52:17.999Z</time></trkpt><trkpt lat="44.96364660976328" lon="8.883389160809703"><ele>85.5</ele><time>2026-03-28T16:52:18.999Z</time></trkpt><trkpt lat="44.963852691090295" lon="8.883604810514157"><ele>86.0</ele><time>2026-03-28T16:52:19.999Z</time></trkpt><trkpt lat="44.964055721463104" lon="8.883821121388927"><ele>86.5</ele><time>2026-03-28T16:52:20.999Z</time></trkpt><trkpt lat="44.96425905528692" lon="8.884037340654443"><ele>87.0</ele><time>2026-03-28T16:52:21.999Z</time></trkpt><trkpt lat="44.96446265154118" lon="8.884258215539628"><ele>87.0</ele><time>2026-03-28T16:52:22.999Z</time></trkpt><trkpt lat="44.96467087277042" lon="8.884490675845953"><ele>87.0</ele><time>2026-03-28T16:52:23.999Z</time></trkpt><trkpt lat="44.96488624848653" lon="8.884724916615419"><ele>87.0</ele><time>2026-03-28T16:52:24.999Z</time></trkpt><trkpt lat="44.96510810746399" lon="8.884966030869421"><ele>87.0</ele><time>2026-03-28T16:52:25.999Z</time></trkpt><trkpt lat="44.965340957919715" lon="8.885214184754949"><ele>87.0</ele><time>2026-03-28T16:52:26.999Z</time></trkpt><trkpt lat="44.9655757432742" lon="8.885463787881681"><ele>87.0</ele><time>2026-03-28T16:52:27.999Z</time></trkpt><trkpt lat="44.965814654446035" lon="8.885716915054548"><ele>88.0</ele><time>2026-03-28T16:52:28.999Z</time></trkpt><trkpt lat="44.96605397844886" lon="8.885971293636386"><ele>89.0</ele><time>2026-03-28T16:52:29.999Z</time></trkpt><trkpt lat="44.966294988130045" lon="8.886224514821034"><ele>89.0</ele><time>2026-03-28T16:52:30.999Z</time></trkpt><trkpt lat="44.96653248711679" lon="8.886477166794633"><ele>89.0</ele><time>2026-03-28T16:52:31.999Z</time></trkpt><trkpt lat="44.96676907745021" lon="8.886727349209393"><ele>89.5</ele><time>2026-03-28T16:52:32.999Z</time></trkpt><trkpt lat="44.96700287880722" lon="8.886975306451065"><ele>90.0</ele><time>2026-03-28T16:52:33.999Z</time></trkpt><trkpt lat="44.96723505832736" lon="8.887219039343384"><ele>90.0</ele><time>2026-03-28T16:52:34.999Z</time></trkpt><trkpt lat="44.96746424887049" lon="8.887461941575348"><ele>90.0</ele><time>2026-03-28T16:52:36Z</time></trkpt><trkpt lat="44.96769232077728" lon="8.887702820759658"><ele>89.0</ele><time>2026-03-28T16:52:37Z</time></trkpt><trkpt lat="44.967919343998474" lon="8.88794211657987"><ele>88.0</ele><time>2026-03-28T16:52:38Z</time></trkpt><trkpt lat="44.96814306025288" lon="8.888179284692702"><ele>87.5</ele><time>2026-03-28T16:52:39Z</time></trkpt><trkpt lat="44.96836451914113" lon="8.888416205358881"><ele>87.0</ele><time>2026-03-28T16:52:40Z</time></trkpt><trkpt lat="44.968585675088974" lon="8.88865235063143"><ele>88.0</ele><time>2026-03-28T16:52:41Z</time></trkpt><trkpt lat="44.968804143669644" lon="8.888882966868543"><ele>89.0</ele><time>2026-03-28T16:52:42Z</time></trkpt><trkpt lat="44.969022988582886" lon="8.889115692946005"><ele>88.0</ele><time>2026-03-28T16:52:43Z</time></trkpt><trkpt lat="44.969238957032225" lon="8.889347312073324"><ele>87.0</ele><time>2026-03-28T16:52:44Z</time></trkpt><trkpt lat="44.96945865233471" lon="8.889579696795252"><ele>87.0</ele><time>2026-03-28T16:52:45Z</time></trkpt><trkpt lat="44.969678302755284" lon="8.889812714325712"><ele>87.0</ele><time>2026-03-28T16:52:46Z</time></trkpt><trkpt lat="44.969896881421846" lon="8.890043960181956"><ele>86.5</ele><time>2026-03-28T16:52:47Z</time></trkpt><trkpt lat="44.970117015777795" lon="8.890275756427032"><ele>86.0</ele><time>2026-03-28T16:52:48Z</time></trkpt><trkpt lat="44.9703374802323" lon="8.890508452052796"><ele>86.0</ele><time>2026-03-28T16:52:49Z</time></trkpt><trkpt lat="44.970557630347976" lon="8.890742089737126"><ele>86.0</ele><time>2026-03-28T16:52:50Z</time></trkpt><trkpt lat="44.970777003888195" lon="8.890977397246948"><ele>84.0</ele><time>2026-03-28T16:52:51Z</time></trkpt><trkpt lat="44.970996526019576" lon="8.89121504107115"><ele>82.0</ele><time>2026-03-28T16:52:52Z</time></trkpt><trkpt lat="44.9712170415338" lon="8.891452172403774"><ele>82.0</ele><time>2026-03-28T16:52:53Z</time></trkpt><trkpt lat="44.971438223667" lon="8.891690670787503"><ele>82.0</ele><time>2026-03-28T16:52:54Z</time></trkpt><trkpt lat="44.971661949211516" lon="8.891930290997342"><ele>83.0</ele><time>2026-03-28T16:52:55Z</time></trkpt><trkpt lat="44.9718865710262" lon="8.89216714770445"><ele>84.0</ele><time>2026-03-28T16:52:56Z</time></trkpt><trkpt lat="44.97211337426877" lon="8.892404039694323"><ele>84.5</ele><time>2026-03-28T16:52:57Z</time></trkpt><trkpt lat="44.97234295283198" lon="8.892646350557731"><ele>85.0</ele><time>2026-03-28T16:52:58Z</time></trkpt><trkpt lat="44.9725734703432" lon="8.892890292367591"><ele>85.0</ele><time>2026-03-28T16:52:59Z</time></trkpt><trkpt lat="44.972803540920275" lon="8.89313363678459"><ele>85.0</ele><time>2026-03-28T16:53:00Z</time></trkpt><trkpt lat="44.9730365488904" lon="8.893378793652838"><ele>84.5</ele><time>2026-03-28T16:53:01Z</time></trkpt><trkpt lat="44.9732675381926" lon="8.89362414912132"><ele>84.0</ele><time>2026-03-28T16:53:02Z</time></trkpt><trkpt lat="44.97349875741633" lon="8.893868150185293"><ele>84.0</ele><time>2026-03-28T16:53:03Z</time></trkpt><trkpt lat="44.97373030684303" lon="8.894112527694803"><ele>84.0</ele><time>2026-03-28T16:53:04Z</time></trkpt><trkpt lat="44.97395962998406" lon="8.894359303173557"><ele>83.0</ele><time>2026-03-28T16:53:05Z</time></trkpt><trkpt lat="44.97419103210264" lon="8.894608407577927"><ele>82.0</ele><time>2026-03-28T16:53:06Z</time></trkpt><trkpt lat="44.97442111818764" lon="8.89485762693353"><ele>82.5</ele><time>2026-03-28T16:53:07Z</time></trkpt><trkpt lat="44.97464998693863" lon="8.895106209747825"><ele>83.0</ele><time>2026-03-28T16:53:08Z</time></trkpt><trkpt lat="44.97488049529373" lon="8.895351625461197"><ele>82.5</ele><time>2026-03-28T16:53:09Z</time></trkpt><trkpt lat="44.975111567600536" lon="8.895593007302203"><ele>82.0</ele><time>2026-03-28T16:53:10Z</time></trkpt><trkpt lat="44.975343310050235" lon="8.89583336055176"><ele>82.0</ele><time>2026-03-28T16:53:11Z</time></trkpt><trkpt lat="44.97557442508949" lon="8.89607138896334"><ele>82.0</ele><time>2026-03-28T16:53:12Z</time></trkpt><trkpt lat="44.97580674636237" lon="8.896302301582372"><ele>82.5</ele><time>2026-03-28T16:53:13Z</time></trkpt><trkpt lat="44.976043783212404" lon="8.896521037358266"><ele>83.0</ele><time>2026-03-28T16:53:14Z</time></trkpt><trkpt lat="44.97628515904545" lon="8.89672754880459"><ele>83.5</ele><time>2026-03-28T16:53:15Z</time></trkpt><trkpt lat="44.97653191699885" lon="8.896926522290288"><ele>84.0</ele><time>2026-03-28T16:53:16Z</time></trkpt><trkpt lat="44.97678351759862" lon="8.8971130234304"><ele>84.5</ele><time>2026-03-28T16:53:17Z</time></trkpt><trkpt lat="44.977037712585705" lon="8.897291942185005"><ele>85.0</ele><time>2026-03-28T16:53:18Z</time></trkpt><trkpt lat="44.97729017725053" lon="8.89746831738132"><ele>85.0</ele><time>2026-03-28T16:53:19Z</time></trkpt><trkpt lat="44.97754450550966" lon="8.897640560170272"><ele>85.0</ele><time>2026-03-28T16:53:20Z</time></trkpt><trkpt lat="44.977789073657895" lon="8.89782069318453"><ele>85.0</ele><time>2026-03-28T16:53:21Z</time></trkpt><trkpt lat="44.978037140266544" lon="8.897986687337093"><ele>85.0</ele><time>2026-03-28T16:53:22Z</time></trkpt><trkpt lat="44.978283500700115" lon="8.898161257447954"><ele>84.5</ele><time>2026-03-28T16:53:23Z</time></trkpt><trkpt lat="44.97853238472528" lon="8.898337220626964"><ele>84.0</ele><time>2026-03-28T16:53:24Z</time></trkpt><trkpt lat="44.978781187836816" lon="8.898515578392246"><ele>84.0</ele><time>2026-03-28T16:53:25Z</time></trkpt><trkpt lat="44.97903148901569" lon="8.898693645911921"><ele>84.0</ele><time>2026-03-28T16:53:26Z</time></trkpt><trkpt lat="44.9792813336363" lon="8.898874080267383"><ele>83.5</ele><time>2026-03-28T16:53:27Z</time></trkpt><trkpt lat="44.979530924505475" lon="8.899053340052857"><ele>83.0</ele><time>2026-03-28T16:53:27.999Z</time></trkpt><trkpt lat="44.97978140681234" lon="8.899234413872891"><ele>83.0</ele><time>2026-03-28T16:53:28.999Z</time></trkpt><trkpt lat="44.98003167808484" lon="8.899413576052902"><ele>83.0</ele><time>2026-03-28T16:53:29.999Z</time></trkpt><trkpt lat="44.98027978600007" lon="8.899593994259694"><ele>83.0</ele><time>2026-03-28T16:53:30.999Z</time></trkpt><trkpt lat="44.98052886427068" lon="8.899772158361047"><ele>83.0</ele><time>2026-03-28T16:53:31.999Z</time></trkpt><trkpt lat="44.98077802303373" lon="8.899950078471564"><ele>82.5</ele><time>2026-03-28T16:53:32.999Z</time></trkpt><trkpt lat="44.98102779703607" lon="8.900127527512874"><ele>82.0</ele><time>2026-03-28T16:53:33.999Z</time></trkpt><trkpt lat="44.981277768590125" lon="8.900306130874057"><ele>82.0</ele><time>2026-03-28T16:53:34.999Z</time></trkpt><trkpt lat="44.981528571784615" lon="8.900485892341678"><ele>82.0</ele><time>2026-03-28T16:53:35.999Z</time></trkpt><trkpt lat="44.98177767559698" lon="8.900666370268935"><ele>82.0</ele><time>2026-03-28T16:53:36.999Z</time></trkpt><trkpt lat="44.98202705622426" lon="8.900845368342823"><ele>82.0</ele><time>2026-03-28T16:53:37.999Z</time></trkpt><trkpt lat="44.98227522913495" lon="8.901025294215966"><ele>82.5</ele><time>2026-03-28T16:53:38.999Z</time></trkpt><trkpt lat="44.982523724308415" lon="8.901206455652675"><ele>83.0</ele><time>2026-03-28T16:53:39.999Z</time></trkpt><trkpt lat="44.982770389128405" lon="8.90138984818676"><ele>83.0</ele><time>2026-03-28T16:53:40.999Z</time></trkpt><trkpt lat="44.98301898301002" lon="8.901572416342455"><ele>83.0</ele><time>2026-03-28T16:53:41.999Z</time></trkpt><trkpt lat="44.98326870790221" lon="8.901753805934833"><ele>82.5</ele><time>2026-03-28T16:53:42.999Z</time></trkpt><trkpt lat="44.983518673928955" lon="8.901933445776239"><ele>82.0</ele><time>2026-03-28T16:53:43.999Z</time></trkpt><trkpt lat="44.98377004564477" lon="8.902114389622449"><ele>82.0</ele><time>2026-03-28T16:53:44.999Z</time></trkpt><trkpt lat="44.98402177383006" lon="8.902293598518186"><ele>82.0</ele><time>2026-03-28T16:53:45.999Z</time></trkpt><trkpt lat="44.984271349030365" lon="8.902472220102974"><ele>81.5</ele><time>2026-03-28T16:53:46.999Z</time></trkpt><trkpt lat="44.98452136713922" lon="8.902651972680237"><ele>81.0</ele><time>2026-03-28T16:53:47.999Z</time></trkpt><trkpt lat="44.98477234410787" lon="8.902831543156381"><ele>81.0</ele><time>2026-03-28T16:53:48.999Z</time></trkpt><trkpt lat="44.98502256474818" lon="8.903013471873052"><ele>81.0</ele><time>2026-03-28T16:53:49.999Z</time></trkpt><trkpt lat="44.985273963913095" lon="8.9031960219259"><ele>81.0</ele><time>2026-03-28T16:53:50.999Z</time></trkpt><trkpt lat="44.985524431584786" lon="8.903376524684703"><ele>81.0</ele><time>2026-03-28T16:53:51.999Z</time></trkpt><trkpt lat="44.98577508246572" lon="8.903556484894835"><ele>80.0</ele><time>2026-03-28T16:53:52.999Z</time></trkpt><trkpt lat="44.98602594919599" lon="8.903735471046673"><ele>79.0</ele><time>2026-03-28T16:53:53.999Z</time></trkpt><trkpt lat="44.986272213653926" lon="8.90391191617202"><ele>79.0</ele><time>2026-03-28T16:53:54.999Z</time></trkpt><trkpt lat="44.986521362025066" lon="8.904091880114917"><ele>79.0</ele><time>2026-03-28T16:53:55.999Z</time></trkpt><trkpt lat="44.986769232067815" lon="8.90427104772611"><ele>79.5</ele><time>2026-03-28T16:53:56.999Z</time></trkpt><trkpt lat="44.98701940206004" lon="8.904450502453729"><ele>80.0</ele><time>2026-03-28T16:53:57.999Z</time></trkpt><trkpt lat="44.98727006538111" lon="8.904627488765936"><ele>80.5</ele><time>2026-03-28T16:53:58.999Z</time></trkpt><trkpt lat="44.98751869401766" lon="8.904806146265683"><ele>81.0</ele><time>2026-03-28T16:53:59.999Z</time></trkpt><trkpt lat="44.9877677932121" lon="8.904984935582444"><ele>81.0</ele><time>2026-03-28T16:54:00.999Z</time></trkpt><trkpt lat="44.98801738403751" lon="8.90516572133551"><ele>81.0</ele><time>2026-03-28T16:54:01.999Z</time></trkpt><trkpt lat="44.98826675673795" lon="8.905345614966771"><ele>81.5</ele><time>2026-03-28T16:54:02.999Z</time></trkpt><trkpt lat="44.98851500131035" lon="8.905526546386287"><ele>82.0</ele><time>2026-03-28T16:54:03.999Z</time></trkpt><trkpt lat="44.98876478785096" lon="8.905706911406723"><ele>82.0</ele><time>2026-03-28T16:54:04.999Z</time></trkpt><trkpt lat="44.98901439355801" lon="8.905888586487901"><ele>82.0</ele><time>2026-03-28T16:54:05.999Z</time></trkpt><trkpt lat="44.98926714988802" lon="8.906067140470318"><ele>82.0</ele><time>2026-03-28T16:54:06.999Z</time></trkpt><trkpt lat="44.989517250094764" lon="8.906244785936039"><ele>82.0</ele><time>2026-03-28T16:54:07.999Z</time></trkpt><trkpt lat="44.989767420202796" lon="8.90642290991658"><ele>82.0</ele><time>2026-03-28T16:54:08.999Z</time></trkpt><trkpt lat="44.99001564247911" lon="8.906601817476059"><ele>82.0</ele><time>2026-03-28T16:54:09.999Z</time></trkpt><trkpt lat="44.99026487382065" lon="8.906780012944557"><ele>82.0</ele><time>2026-03-28T16:54:10.999Z</time></trkpt><trkpt lat="44.99051400150435" lon="8.906959362879286"><ele>82.0</ele><time>2026-03-28T16:54:11.999Z</time></trkpt><trkpt lat="44.990763533676315" lon="8.907138198908234"><ele>82.5</ele><time>2026-03-28T16:54:12.999Z</time></trkpt><trkpt lat="44.991014871473425" lon="8.90731675343772"><ele>83.0</ele><time>2026-03-28T16:54:13.999Z</time></trkpt><trkpt lat="44.991264246411355" lon="8.907495740435552"><ele>82.5</ele><time>2026-03-28T16:54:14.999Z</time></trkpt><trkpt lat="44.991512756450724" lon="8.907677023016786"><ele>82.0</ele><time>2026-03-28T16:54:15.999Z</time></trkpt><trkpt lat="44.99176298591902" lon="8.907856359049653"><ele>81.0</ele><time>2026-03-28T16:54:16.999Z</time></trkpt><trkpt lat="44.99201223846547" lon="8.908036009207871"><ele>80.0</ele><time>2026-03-28T16:54:17.999Z</time></trkpt><trkpt lat="44.992262852199474" lon="8.908214884903753"><ele>79.5</ele><time>2026-03-28T16:54:18.999Z</time></trkpt><trkpt lat="44.9925125167432" lon="8.90839543929105"><ele>79.0</ele><time>2026-03-28T16:54:19.999Z</time></trkpt><trkpt lat="44.99276113687659" lon="8.908576388070674"><ele>79.0</ele><time>2026-03-28T16:54:20.999Z</time></trkpt><trkpt lat="44.99301077813043" lon="8.908757061823316"><ele>79.0</ele><time>2026-03-28T16:54:21.999Z</time></trkpt><trkpt lat="44.99325841545671" lon="8.908937286370048"><ele>79.0</ele><time>2026-03-28T16:54:22.999Z</time></trkpt><trkpt lat="44.99350783220518" lon="8.909115612117867"><ele>79.0</ele><time>2026-03-28T16:54:23.999Z</time></trkpt><trkpt lat="44.993759156188545" lon="8.90929519649897"><ele>79.5</ele><time>2026-03-28T16:54:24.999Z</time></trkpt><trkpt lat="44.99400789651491" lon="8.909475291684824"><ele>80.0</ele><time>2026-03-28T16:54:25.999Z</time></trkpt><trkpt lat="44.99425723848053" lon="8.909651918618696"><ele>79.0</ele><time>2026-03-28T16:54:26.999Z</time></trkpt><trkpt lat="44.99450608777663" lon="8.909832145827945"><ele>78.0</ele><time>2026-03-28T16:54:27.999Z</time></trkpt><trkpt lat="44.99475702229972" lon="8.910010481386673"><ele>78.0</ele><time>2026-03-28T16:54:28.999Z</time></trkpt><trkpt lat="44.99500773835908" lon="8.91018946017895"><ele>78.0</ele><time>2026-03-28T16:54:29.999Z</time></trkpt><trkpt lat="44.9952588220676" lon="8.910367732955065"><ele>78.0</ele><time>2026-03-28T16:54:30.999Z</time></trkpt><trkpt lat="44.99550997298042" lon="8.910547681490193"><ele>78.0</ele><time>2026-03-28T16:54:31.999Z</time></trkpt><trkpt lat="44.99575879800986" lon="8.910727220609358"><ele>78.0</ele><time>2026-03-28T16:54:32.999Z</time></trkpt><trkpt lat="44.996008580572926" lon="8.910906742593417"><ele>78.0</ele><time>2026-03-28T16:54:33.999Z</time></trkpt><trkpt lat="44.99625886959346" lon="8.911083152412905"><ele>78.5</ele><time>2026-03-28T16:54:34.999Z</time></trkpt><trkpt lat="44.996508620523485" lon="8.91125989420834"><ele>79.0</ele><time>2026-03-28T16:54:35.999Z</time></trkpt><trkpt lat="44.99675833083834" lon="8.911437982601061"><ele>79.0</ele><time>2026-03-28T16:54:36.999Z</time></trkpt><trkpt lat="44.99700875182151" lon="8.911617315553027"><ele>79.0</ele><time>2026-03-28T16:54:37.999Z</time></trkpt><trkpt lat="44.99725774081526" lon="8.911797961821652"><ele>79.0</ele><time>2026-03-28T16:54:38.999Z</time></trkpt><trkpt lat="44.99750523306186" lon="8.911978290811737"><ele>79.0</ele><time>2026-03-28T16:54:39.999Z</time></trkpt><trkpt lat="44.99775286269617" lon="8.912157349350736"><ele>79.0</ele><time>2026-03-28T16:54:40.999Z</time></trkpt><trkpt lat="44.99800234805489" lon="8.9123339160204"><ele>79.0</ele><time>2026-03-28T16:54:42Z</time></trkpt><trkpt lat="44.998252582338665" lon="8.912511616863487"><ele>79.5</ele><time>2026-03-28T16:54:43Z</time></trkpt><trkpt lat="44.99850225402465" lon="8.912688333870971"><ele>80.0</ele><time>2026-03-28T16:54:44Z</time></trkpt><trkpt lat="44.99875212945408" lon="8.912865304995915"><ele>80.0</ele><time>2026-03-28T16:54:45Z</time></trkpt><trkpt lat="44.99900238162577" lon="8.913041140423307"><ele>80.0</ele><time>2026-03-28T16:54:46Z</time></trkpt><trkpt lat="44.999251942463665" lon="8.913217075263939"><ele>80.0</ele><time>2026-03-28T16:54:47Z</time></trkpt><trkpt lat="44.99950298261232" lon="8.91339497716817"><ele>80.0</ele><time>2026-03-28T16:54:48Z</time></trkpt><trkpt lat="44.9997547075931" lon="8.913573975335787"><ele>79.5</ele><time>2026-03-28T16:54:49Z</time></trkpt><trkpt lat="45.000004239227195" lon="8.913754320324962"><ele>79.0</ele><time>2026-03-28T16:54:50Z</time></trkpt><trkpt lat="45.000254766221445" lon="8.91393373185156"><ele>79.0</ele><time>2026-03-28T16:54:51Z</time></trkpt><trkpt lat="45.000502672755886" lon="8.914112833458194"><ele>79.0</ele><time>2026-03-28T16:54:52Z</time></trkpt><trkpt lat="45.00075227229681" lon="8.914292971997531"><ele>77.5</ele><time>2026-03-28T16:54:53Z</time></trkpt><trkpt lat="45.00100271007689" lon="8.914474011215969"><ele>76.0</ele><time>2026-03-28T16:54:54Z</time></trkpt><trkpt lat="45.00125274485972" lon="8.914653621555743"><ele>76.0</ele><time>2026-03-28T16:54:55Z</time></trkpt><trkpt lat="45.001502372982436" lon="8.914832986003052"><ele>76.0</ele><time>2026-03-28T16:54:56Z</time></trkpt><trkpt lat="45.001747571212114" lon="8.915010451113313"><ele>76.0</ele><time>2026-03-28T16:54:57Z</time></trkpt><trkpt lat="45.001995184260515" lon="8.915189002723315"><ele>76.0</ele><time>2026-03-28T16:54:58Z</time></trkpt><trkpt lat="45.00224453257844" lon="8.91536604699639"><ele>76.0</ele><time>2026-03-28T16:54:59Z</time></trkpt><trkpt lat="45.00249623123716" lon="8.915545217592477"><ele>76.0</ele><time>2026-03-28T16:55:00Z</time></trkpt><trkpt lat="45.00274536765275" lon="8.915725745244204"><ele>76.5</ele><time>2026-03-28T16:55:01Z</time></trkpt><trkpt lat="45.00299477736858" lon="8.915902989396479"><ele>77.0</ele><time>2026-03-28T16:55:02Z</time></trkpt><trkpt lat="45.00324594329687" lon="8.916081729301961"><ele>78.0</ele><time>2026-03-28T16:55:03Z</time></trkpt><trkpt lat="45.00349550247614" lon="8.916260848555163"><ele>79.0</ele><time>2026-03-28T16:55:04Z</time></trkpt><trkpt lat="45.003751032440405" lon="8.916437992067705"><ele>79.0</ele><time>2026-03-28T16:55:05Z</time></trkpt><trkpt lat="45.00400179039804" lon="8.916616075761013"><ele>79.0</ele><time>2026-03-28T16:55:06Z</time></trkpt><trkpt lat="45.00425044938839" lon="8.916794806823722"><ele>77.5</ele><time>2026-03-28T16:55:07Z</time></trkpt><trkpt lat="45.00449843316006" lon="8.916974546728023"><ele>76.0</ele><time>2026-03-28T16:55:08Z</time></trkpt><trkpt lat="45.004747847180326" lon="8.917154921033232"><ele>76.0</ele><time>2026-03-28T16:55:09Z</time></trkpt><trkpt lat="45.00499792397823" lon="8.917333917447058"><ele>76.0</ele><time>2026-03-28T16:55:10Z</time></trkpt><trkpt lat="45.00524756899431" lon="8.917513444441878"><ele>76.5</ele><time>2026-03-28T16:55:11Z</time></trkpt><trkpt lat="45.005497920358096" lon="8.917691522220261"><ele>77.0</ele><time>2026-03-28T16:55:12Z</time></trkpt><trkpt lat="45.00574755847718" lon="8.917869780855616"><ele>78.0</ele><time>2026-03-28T16:55:13Z</time></trkpt><trkpt lat="45.00599594157809" lon="8.918049682937918"><ele>79.0</ele><time>2026-03-28T16:55:14Z</time></trkpt><trkpt lat="45.006246208640185" lon="8.918228055904839"><ele>79.0</ele><time>2026-03-28T16:55:15Z</time></trkpt><trkpt lat="45.006496012139266" lon="8.918403108423473"><ele>79.0</ele><time>2026-03-28T16:55:16Z</time></trkpt><trkpt lat="45.006745950338015" lon="8.918584597192691"><ele>78.0</ele><time>2026-03-28T16:55:17Z</time></trkpt><trkpt lat="45.00699605775685" lon="8.918764093995371"><ele>77.0</ele><time>2026-03-28T16:55:18Z</time></trkpt><trkpt lat="45.007244727938826" lon="8.918942816258381"><ele>77.5</ele><time>2026-03-28T16:55:19Z</time></trkpt><trkpt lat="45.00749468881025" lon="8.919126539685237"><ele>78.0</ele><time>2026-03-28T16:55:20Z</time></trkpt><trkpt lat="45.00774382977987" lon="8.919305584310019"><ele>77.0</ele><time>2026-03-28T16:55:21Z</time></trkpt><trkpt lat="45.007993650658634" lon="8.91948417559015"><ele>76.0</ele><time>2026-03-28T16:55:22Z</time></trkpt><trkpt lat="45.00824380701693" lon="8.919662548973486"><ele>77.5</ele><time>2026-03-28T16:55:23Z</time></trkpt><trkpt lat="45.008493298366695" lon="8.919838924941356"><ele>79.0</ele><time>2026-03-28T16:55:24Z</time></trkpt><trkpt lat="45.00874416145379" lon="8.920019090098496"><ele>78.5</ele><time>2026-03-28T16:55:25Z</time></trkpt><trkpt lat="45.00899301632586" lon="8.920198924308552"><ele>78.0</ele><time>2026-03-28T16:55:26Z</time></trkpt><trkpt lat="45.00924110199585" lon="8.920381374211306"><ele>78.0</ele><time>2026-03-28T16:55:27Z</time></trkpt><trkpt lat="45.00949105101386" lon="8.920562206465817"><ele>78.0</ele><time>2026-03-28T16:55:28Z</time></trkpt><trkpt lat="45.009743723904414" lon="8.920742005791997"><ele>78.0</ele><time>2026-03-28T16:55:29Z</time></trkpt><trkpt lat="45.00999372997922" lon="8.920916515225754"><ele>78.0</ele><time>2026-03-28T16:55:30Z</time></trkpt><trkpt lat="45.01024365765593" lon="8.921092049027989"><ele>78.0</ele><time>2026-03-28T16:55:31Z</time></trkpt><trkpt lat="45.010493359918705" lon="8.921270287659064"><ele>78.0</ele><time>2026-03-28T16:55:32Z</time></trkpt><trkpt lat="45.01074557066911" lon="8.92145214745356"><ele>78.5</ele><time>2026-03-28T16:55:32.999Z</time></trkpt><trkpt lat="45.01099544238661" lon="8.921631376714494"><ele>79.0</ele><time>2026-03-28T16:55:33.999Z</time></trkpt><trkpt lat="45.01124431387349" lon="8.921813773037261"><ele>78.0</ele><time>2026-03-28T16:55:34.999Z</time></trkpt><trkpt lat="45.011494779870546" lon="8.921992540865334"><ele>77.0</ele><time>2026-03-28T16:55:35.999Z</time></trkpt><trkpt lat="45.01174523928156" lon="8.922169545360997"><ele>79.0</ele><time>2026-03-28T16:55:36.999Z</time></trkpt><trkpt lat="45.01199536978295" lon="8.922349537083006"><ele>81.0</ele><time>2026-03-28T16:55:37.999Z</time></trkpt><trkpt lat="45.01224401806796" lon="8.92252670410226"><ele>78.5</ele><time>2026-03-28T16:55:38.999Z</time></trkpt><trkpt lat="45.01249319516566" lon="8.922703766726702"><ele>76.0</ele><time>2026-03-28T16:55:39.999Z</time></trkpt><trkpt lat="45.012744111344496" lon="8.922881161193766"><ele>76.0</ele><time>2026-03-28T16:55:40.999Z</time></trkpt><trkpt lat="45.012996292915226" lon="8.923063129581307"><ele>76.0</ele><time>2026-03-28T16:55:41.999Z</time></trkpt><trkpt lat="45.013247737035016" lon="8.923244172919974"><ele>76.5</ele><time>2026-03-28T16:55:42.999Z</time></trkpt><trkpt lat="45.0135002982945" lon="8.923423311977052"><ele>77.0</ele><time>2026-03-28T16:55:43.999Z</time></trkpt><trkpt lat="45.01374942998629" lon="8.92360466404066"><ele>77.0</ele><time>2026-03-28T16:55:44.999Z</time></trkpt><trkpt lat="45.01399752708341" lon="8.923785624450156"><ele>77.0</ele><time>2026-03-28T16:55:45.999Z</time></trkpt><trkpt lat="45.01424793748207" lon="8.92396543576618"><ele>77.5</ele><time>2026-03-28T16:55:46.999Z</time></trkpt><trkpt lat="45.0144965773378" lon="8.92414231332666"><ele>78.0</ele><time>2026-03-28T16:55:47.999Z</time></trkpt><trkpt lat="45.014745306765775" lon="8.92432453578078"><ele>77.5</ele><time>2026-03-28T16:55:48.999Z</time></trkpt><trkpt lat="45.01499567601358" lon="8.924501264535659"><ele>77.0</ele><time>2026-03-28T16:55:49.999Z</time></trkpt><trkpt lat="45.01524415253728" lon="8.92467777108496"><ele>77.0</ele><time>2026-03-28T16:55:50.999Z</time></trkpt><trkpt lat="45.015497828123394" lon="8.924849319533685"><ele>77.0</ele><time>2026-03-28T16:55:51.999Z</time></trkpt><trkpt lat="45.01574988872797" lon="8.925016590076456"><ele>77.5</ele><time>2026-03-28T16:55:52.999Z</time></trkpt><trkpt lat="45.016000465075976" lon="8.925189861883405"><ele>78.0</ele><time>2026-03-28T16:55:53.999Z</time></trkpt><trkpt lat="45.016251519180344" lon="8.925366150776798"><ele>78.0</ele><time>2026-03-28T16:55:54.999Z</time></trkpt><trkpt lat="45.01650319930917" lon="8.925544947700038"><ele>78.0</ele><time>2026-03-28T16:55:55.999Z</time></trkpt><trkpt lat="45.01675493160658" lon="8.925727496891584"><ele>78.5</ele><time>2026-03-28T16:55:56.999Z</time></trkpt><trkpt lat="45.01700685009915" lon="8.925910046296343"><ele>79.0</ele><time>2026-03-28T16:55:57.999Z</time></trkpt><trkpt lat="45.01725791285895" lon="8.92609303921447"><ele>78.5</ele><time>2026-03-28T16:55:58.999Z</time></trkpt><trkpt lat="45.01750897707717" lon="8.92627913011468"><ele>78.0</ele><time>2026-03-28T16:55:59.999Z</time></trkpt><trkpt lat="45.01775563875176" lon="8.926464279731556"><ele>78.0</ele><time>2026-03-28T16:56:00.999Z</time></trkpt><trkpt lat="45.01800288881943" lon="8.926647689060752"><ele>78.0</ele><time>2026-03-28T16:56:01.999Z</time></trkpt><trkpt lat="45.01825049368576" lon="8.926827611489111"><ele>79.0</ele><time>2026-03-28T16:56:02.999Z</time></trkpt><trkpt lat="45.01849871100316" lon="8.927008923233922"><ele>80.0</ele><time>2026-03-28T16:56:03.999Z</time></trkpt><trkpt lat="45.01874881818399" lon="8.927188534478322"><ele>80.0</ele><time>2026-03-28T16:56:04.999Z</time></trkpt><trkpt lat="45.018999670799175" lon="8.927367580445678"><ele>80.0</ele><time>2026-03-28T16:56:05.999Z</time></trkpt><trkpt lat="45.01924997070607" lon="8.927543065621721"><ele>80.5</ele><time>2026-03-28T16:56:06.999Z</time></trkpt><trkpt lat="45.019501630405365" lon="8.927719141554817"><ele>81.0</ele><time>2026-03-28T16:56:07.999Z</time></trkpt><trkpt lat="45.01975361896908" lon="8.92789392107606"><ele>81.0</ele><time>2026-03-28T16:56:08.999Z</time></trkpt><trkpt lat="45.02000460631574" lon="8.928070491942172"><ele>81.0</ele><time>2026-03-28T16:56:09.999Z</time></trkpt><trkpt lat="45.02025362135921" lon="8.928247016776197"><ele>80.5</ele><time>2026-03-28T16:56:10.999Z</time></trkpt><trkpt lat="45.02050319443255" lon="8.92842438664864"><ele>80.0</ele><time>2026-03-28T16:56:11.999Z</time></trkpt><trkpt lat="45.02075429697913" lon="8.928600952411687"><ele>79.5</ele><time>2026-03-28T16:56:12.999Z</time></trkpt><trkpt lat="45.02100598792304" lon="8.928775934618947"><ele>79.0</ele><time>2026-03-28T16:56:13.999Z</time></trkpt><trkpt lat="45.02125846480025" lon="8.928949798660359"><ele>79.0</ele><time>2026-03-28T16:56:14.999Z</time></trkpt><trkpt lat="45.0215094236348" lon="8.929124388846883"><ele>79.0</ele><time>2026-03-28T16:56:15.999Z</time></trkpt><trkpt lat="45.0217617400466" lon="8.92929834230869"><ele>79.5</ele><time>2026-03-28T16:56:16.999Z</time></trkpt><trkpt lat="45.0220133779618" lon="8.929474622544276"><ele>80.0</ele><time>2026-03-28T16:56:17.999Z</time></trkpt><trkpt lat="45.022263313178904" lon="8.929651215062156"><ele>79.0</ele><time>2026-03-28T16:56:18.999Z</time></trkpt><trkpt lat="45.02251388517181" lon="8.929826876348974"><ele>78.0</ele><time>2026-03-28T16:56:19.999Z</time></trkpt><trkpt lat="45.02276338672829" lon="8.93000473297242"><ele>78.5</ele><time>2026-03-28T16:56:20.999Z</time></trkpt><trkpt lat="45.02301434482929" lon="8.930179580447534"><ele>79.0</ele><time>2026-03-28T16:56:21.999Z</time></trkpt><trkpt lat="45.023265229745746" lon="8.930354532693089"><ele>78.0</ele><time>2026-03-28T16:56:22.999Z</time></trkpt><trkpt lat="45.023515746273354" lon="8.93053027594675"><ele>77.0</ele><time>2026-03-28T16:56:23.999Z</time></trkpt><trkpt lat="45.02376658545585" lon="8.930706647419292"><ele>77.0</ele><time>2026-03-28T16:56:24.999Z</time></trkpt><trkpt lat="45.02401777772865" lon="8.930881123332028"><ele>77.0</ele><time>2026-03-28T16:56:25.999Z</time></trkpt><trkpt lat="45.02426956857814" lon="8.931054841772813"><ele>78.0</ele><time>2026-03-28T16:56:26.999Z</time></trkpt><trkpt lat="45.024521810318234" lon="8.931226951848943"><ele>79.0</ele><time>2026-03-28T16:56:27.999Z</time></trkpt><trkpt lat="45.02477238168185" lon="8.931399984018247"><ele>78.5</ele><time>2026-03-28T16:56:28.999Z</time></trkpt><trkpt lat="45.02502450731865" lon="8.931575290079717"><ele>78.0</ele><time>2026-03-28T16:56:29.999Z</time></trkpt><trkpt lat="45.02527524927799" lon="8.931749365164933"><ele>78.0</ele><time>2026-03-28T16:56:30.999Z</time></trkpt><trkpt lat="45.0255276956011" lon="8.93192275383431"><ele>78.0</ele><time>2026-03-28T16:56:31.999Z</time></trkpt><trkpt lat="45.0257781614915" lon="8.932098168013834"><ele>77.0</ele><time>2026-03-28T16:56:32.999Z</time></trkpt><trkpt lat="45.02602834858164" lon="8.93227637691717"><ele>76.0</ele><time>2026-03-28T16:56:33.999Z</time></trkpt><trkpt lat="45.0262788030423" lon="8.932455791167888"><ele>76.0</ele><time>2026-03-28T16:56:34.999Z</time></trkpt><trkpt lat="45.02652911688681" lon="8.932635014329744"><ele>76.0</ele><time>2026-03-28T16:56:35.999Z</time></trkpt><trkpt lat="45.026780047911444" lon="8.932814646749764"><ele>75.5</ele><time>2026-03-28T16:56:36.999Z</time></trkpt><trkpt lat="45.02702975011386" lon="8.932993001068828"><ele>75.0</ele><time>2026-03-28T16:56:37.999Z</time></trkpt><trkpt lat="45.0272798863995" lon="8.933168453975355"><ele>76.5</ele><time>2026-03-28T16:56:38.999Z</time></trkpt><trkpt lat="45.02753140779509" lon="8.933342491029434"><ele>78.0</ele><time>2026-03-28T16:56:39.999Z</time></trkpt><trkpt lat="45.02778375570867" lon="8.933516451911334"><ele>79.0</ele><time>2026-03-28T16:56:40.999Z</time></trkpt><trkpt lat="45.02803473443956" lon="8.933690477721"><ele>80.0</ele><time>2026-03-28T16:56:41.999Z</time></trkpt><trkpt lat="45.02828534512837" lon="8.933863385876194"><ele>78.5</ele><time>2026-03-28T16:56:42.999Z</time></trkpt><trkpt lat="45.02853577357913" lon="8.934041997887238"><ele>77.0</ele><time>2026-03-28T16:56:43.999Z</time></trkpt><trkpt lat="45.028785874177956" lon="8.934218395675149"><ele>77.0</ele><time>2026-03-28T16:56:44.999Z</time></trkpt><trkpt lat="45.02903719194271" lon="8.934392701008331"><ele>77.0</ele><time>2026-03-28T16:56:45.999Z</time></trkpt><trkpt lat="45.02928697660424" lon="8.934569756732488"><ele>77.5</ele><time>2026-03-28T16:56:46.999Z</time></trkpt><trkpt lat="45.0295384005078" lon="8.934745309620642"><ele>78.0</ele><time>2026-03-28T16:56:48Z</time></trkpt><trkpt lat="45.02978911548957" lon="8.93492236005995"><ele>77.5</ele><time>2026-03-28T16:56:49Z</time></trkpt><trkpt lat="45.03004048035071" lon="8.935096816454092"><ele>77.0</ele><time>2026-03-28T16:56:50Z</time></trkpt><trkpt lat="45.03029219184501" lon="8.935272800563459"><ele>77.0</ele><time>2026-03-28T16:56:51Z</time></trkpt><trkpt lat="45.03054433539266" lon="8.935446246830725"><ele>77.0</ele><time>2026-03-28T16:56:52Z</time></trkpt><trkpt lat="45.03079658404472" lon="8.935622347271352"><ele>77.0</ele><time>2026-03-28T16:56:53Z</time></trkpt><trkpt lat="45.03104643357027" lon="8.935797250960103"><ele>77.0</ele><time>2026-03-28T16:56:54Z</time></trkpt><trkpt lat="45.03129723859947" lon="8.935970651385736"><ele>77.0</ele><time>2026-03-28T16:56:55Z</time></trkpt><trkpt lat="45.03154912678379" lon="8.936145076780285"><ele>77.0</ele><time>2026-03-28T16:56:56Z</time></trkpt><trkpt lat="45.03179938267701" lon="8.93632181238901"><ele>76.0</ele><time>2026-03-28T16:56:57Z</time></trkpt><trkpt lat="45.03204896014241" lon="8.936498504884598"><ele>75.0</ele><time>2026-03-28T16:56:58Z</time></trkpt><trkpt lat="45.032299930384085" lon="8.936674711259936"><ele>74.0</ele><time>2026-03-28T16:56:59Z</time></trkpt><trkpt lat="45.03255153914798" lon="8.936850822515943"><ele>73.0</ele><time>2026-03-28T16:57:00Z</time></trkpt><trkpt lat="45.03280474861967" lon="8.937026865337646"><ele>73.0</ele><time>2026-03-28T16:57:01Z</time></trkpt><trkpt lat="45.03305812657983" lon="8.937201769660911"><ele>73.0</ele><time>2026-03-28T16:57:02Z</time></trkpt><trkpt lat="45.03331056815561" lon="8.937377325160591"><ele>74.0</ele><time>2026-03-28T16:57:03Z</time></trkpt><trkpt lat="45.03356340976783" lon="8.937552067054144"><ele>75.0</ele><time>2026-03-28T16:57:04Z</time></trkpt><trkpt lat="45.033815363132184" lon="8.937726727077438"><ele>75.0</ele><time>2026-03-28T16:57:05Z</time></trkpt><trkpt lat="45.03406836491261" lon="8.937900359042331"><ele>75.0</ele><time>2026-03-28T16:57:06Z</time></trkpt><trkpt lat="45.034321640791724" lon="8.93807555029678"><ele>75.0</ele><time>2026-03-28T16:57:07Z</time></trkpt><trkpt lat="45.0345742284162" lon="8.93824991325394"><ele>75.0</ele><time>2026-03-28T16:57:08Z</time></trkpt><trkpt lat="45.03482521949468" lon="8.93842750678667"><ele>74.0</ele><time>2026-03-28T16:57:09Z</time></trkpt><trkpt lat="45.03507780678794" lon="8.938604708376019"><ele>73.0</ele><time>2026-03-28T16:57:10Z</time></trkpt><trkpt lat="45.03532946959764" lon="8.938780669918033"><ele>73.0</ele><time>2026-03-28T16:57:11Z</time></trkpt><trkpt lat="45.035581076333386" lon="8.938957048243935"><ele>73.0</ele><time>2026-03-28T16:57:12Z</time></trkpt><trkpt lat="45.035832369697985" lon="8.939132951001488"><ele>72.5</ele><time>2026-03-28T16:57:13Z</time></trkpt><trkpt lat="45.03608436632473" lon="8.939308402358373"><ele>72.0</ele><time>2026-03-28T16:57:14Z</time></trkpt><trkpt lat="45.03633449631988" lon="8.939484349984475"><ele>72.0</ele><time>2026-03-28T16:57:15Z</time></trkpt><trkpt lat="45.03658399784484" lon="8.939659445479363"><ele>72.0</ele><time>2026-03-28T16:57:16Z</time></trkpt><trkpt lat="45.03683458181203" lon="8.9398374181815"><ele>72.0</ele><time>2026-03-28T16:57:17Z</time></trkpt><trkpt lat="45.03708613324045" lon="8.940011930572412"><ele>72.0</ele><time>2026-03-28T16:57:18Z</time></trkpt><trkpt lat="45.03733674219245" lon="8.940186946937855"><ele>73.0</ele><time>2026-03-28T16:57:19Z</time></trkpt><trkpt lat="45.037588493531885" lon="8.940361079555208"><ele>74.0</ele><time>2026-03-28T16:57:20Z</time></trkpt><trkpt lat="45.03783941241832" lon="8.940536402473002"><ele>74.0</ele><time>2026-03-28T16:57:21Z</time></trkpt><trkpt lat="45.038090116561854" lon="8.940710446479777"><ele>74.0</ele><time>2026-03-28T16:57:22Z</time></trkpt><trkpt lat="45.038340993188186" lon="8.940887474064956"><ele>75.0</ele><time>2026-03-28T16:57:23Z</time></trkpt><trkpt lat="45.03859230084148" lon="8.941064428597308"><ele>76.0</ele><time>2026-03-28T16:57:24Z</time></trkpt><trkpt lat="45.038843705131924" lon="8.941240604334997"><ele>76.0</ele><time>2026-03-28T16:57:25Z</time></trkpt><trkpt lat="45.039094630103115" lon="8.941416618273305"><ele>76.0</ele><time>2026-03-28T16:57:26Z</time></trkpt><trkpt lat="45.03934556083109" lon="8.941593233011004"><ele>75.5</ele><time>2026-03-28T16:57:27Z</time></trkpt><trkpt lat="45.03959533664409" lon="8.941767909151977"><ele>75.0</ele><time>2026-03-28T16:57:28Z</time></trkpt><trkpt lat="45.03984530937362" lon="8.941949840554598"><ele>75.0</ele><time>2026-03-28T16:57:29Z</time></trkpt><trkpt lat="45.04009844041129" lon="8.942124534629587"><ele>75.0</ele><time>2026-03-28T16:57:30Z</time></trkpt><trkpt lat="45.04034988118218" lon="8.942299780212293"><ele>75.0</ele><time>2026-03-28T16:57:31Z</time></trkpt><trkpt lat="45.04060077264468" lon="8.942475581811653"><ele>75.0</ele><time>2026-03-28T16:57:32Z</time></trkpt><trkpt lat="45.04084930150808" lon="8.942652238660619"><ele>73.5</ele><time>2026-03-28T16:57:33Z</time></trkpt><trkpt lat="45.04110049125986" lon="8.942830588217298"><ele>72.0</ele><time>2026-03-28T16:57:34Z</time></trkpt><trkpt lat="45.04134897296037" lon="8.943011334315393"><ele>72.0</ele><time>2026-03-28T16:57:35Z</time></trkpt><trkpt lat="45.04159976155284" lon="8.943192362017582"><ele>72.0</ele><time>2026-03-28T16:57:36Z</time></trkpt><trkpt lat="45.041846933327506" lon="8.94337546053639"><ele>72.0</ele><time>2026-03-28T16:57:37Z</time></trkpt><trkpt lat="45.04209444059755" lon="8.94355590906453"><ele>72.0</ele><time>2026-03-28T16:57:38Z</time></trkpt><trkpt lat="45.0423433301213" lon="8.943735216679475"><ele>72.0</ele><time>2026-03-28T16:57:38.999Z</time></trkpt><trkpt lat="45.04259551532396" lon="8.943912567749955"><ele>72.0</ele><time>2026-03-28T16:57:39.999Z</time></trkpt><trkpt lat="45.04284553414895" lon="8.94408888799069"><ele>72.0</ele><time>2026-03-28T16:57:40.999Z</time></trkpt><trkpt lat="45.043096736113206" lon="8.944263263250612"><ele>72.0</ele><time>2026-03-28T16:57:41.999Z</time></trkpt><trkpt lat="45.043346843952" lon="8.944441380286145"><ele>71.5</ele><time>2026-03-28T16:57:42.999Z</time></trkpt><trkpt lat="45.043596911792946" lon="8.944618971341084"><ele>71.0</ele><time>2026-03-28T16:57:43.999Z</time></trkpt><trkpt lat="45.0438469198487" lon="8.944798411382322"><ele>71.0</ele><time>2026-03-28T16:57:44.999Z</time></trkpt><trkpt lat="45.04409664060686" lon="8.944978321927206"><ele>71.0</ele><time>2026-03-28T16:57:45.999Z</time></trkpt><trkpt lat="45.044346338077794" lon="8.945158254870675"><ele>71.5</ele><time>2026-03-28T16:57:46.999Z</time></trkpt><trkpt lat="45.04459575100972" lon="8.9453368465554"><ele>72.0</ele><time>2026-03-28T16:57:47.999Z</time></trkpt><trkpt lat="45.04484654353321" lon="8.945515937759247"><ele>73.5</ele><time>2026-03-28T16:57:48.999Z</time></trkpt><trkpt lat="45.045096327622375" lon="8.945692547652987"><ele>75.0</ele><time>2026-03-28T16:57:49.999Z</time></trkpt><trkpt lat="45.04534632764788" lon="8.945868462089585"><ele>75.0</ele><time>2026-03-28T16:57:50.999Z</time></trkpt><trkpt lat="45.045597008106164" lon="8.946047273464721"><ele>75.0</ele><time>2026-03-28T16:57:51.999Z</time></trkpt><trkpt lat="45.0458480234108" lon="8.946228693682025"><ele>75.5</ele><time>2026-03-28T16:57:52.999Z</time></trkpt><trkpt lat="45.046096112578994" lon="8.946405998206354"><ele>76.0</ele><time>2026-03-28T16:57:53.999Z</time></trkpt><trkpt lat="45.04634549730475" lon="8.946583587388158"><ele>75.0</ele><time>2026-03-28T16:57:54.999Z</time></trkpt><trkpt lat="45.04659501011749" lon="8.946761174765994"><ele>74.0</ele><time>2026-03-28T16:57:55.999Z</time></trkpt><trkpt lat="45.046844238803814" lon="8.946941196724884"><ele>74.0</ele><time>2026-03-28T16:57:56.999Z</time></trkpt><trkpt lat="45.04709416141388" lon="8.947120093720773"><ele>74.0</ele><time>2026-03-28T16:57:57.999Z</time></trkpt><trkpt lat="45.047345002975135" lon="8.947300332434676"><ele>73.5</ele><time>2026-03-28T16:57:58.999Z</time></trkpt><trkpt lat="45.047595086766435" lon="8.947479206501301"><ele>73.0</ele><time>2026-03-28T16:57:59.999Z</time></trkpt><trkpt lat="45.04784467744715" lon="8.947658963665338"><ele>73.0</ele><time>2026-03-28T16:58:00.999Z</time></trkpt><trkpt lat="45.04809516464245" lon="8.947836706198608"><ele>73.0</ele><time>2026-03-28T16:58:01.999Z</time></trkpt><trkpt lat="45.048345241611734" lon="8.948014740078252"><ele>73.0</ele><time>2026-03-28T16:58:02.999Z</time></trkpt><trkpt lat="45.048593180485526" lon="8.94819174693462"><ele>73.0</ele><time>2026-03-28T16:58:03.999Z</time></trkpt><trkpt lat="45.048841143894684" lon="8.948371822461784"><ele>72.5</ele><time>2026-03-28T16:58:04.999Z</time></trkpt><trkpt lat="45.049087518640185" lon="8.948550843868972"><ele>72.0</ele><time>2026-03-28T16:58:05.999Z</time></trkpt><trkpt lat="45.04933817731383" lon="8.94873026816723"><ele>72.0</ele><time>2026-03-28T16:58:06.999Z</time></trkpt><trkpt lat="45.04958791776658" lon="8.948911062562095"><ele>72.0</ele><time>2026-03-28T16:58:07.999Z</time></trkpt><trkpt lat="45.04984009476733" lon="8.949090629955492"><ele>71.5</ele><time>2026-03-28T16:58:08.999Z</time></trkpt><trkpt lat="45.05008975597937" lon="8.949267591179352"><ele>71.0</ele><time>2026-03-28T16:58:09.999Z</time></trkpt><trkpt lat="45.050340530104116" lon="8.949446113820393"><ele>71.0</ele><time>2026-03-28T16:58:10.999Z</time></trkpt><trkpt lat="45.05059030114833" lon="8.949623945135313"><ele>71.0</ele><time>2026-03-28T16:58:11.999Z</time></trkpt><trkpt lat="45.05084090714019" lon="8.949799439026862"><ele>71.0</ele><time>2026-03-28T16:58:12.999Z</time></trkpt><trkpt lat="45.05109162069231" lon="8.94997502509036"><ele>71.0</ele><time>2026-03-28T16:58:13.999Z</time></trkpt><trkpt lat="45.05134340751582" lon="8.950149585438423"><ele>71.0</ele><time>2026-03-28T16:58:14.999Z</time></trkpt><trkpt lat="45.05159315850811" lon="8.950324747000627"><ele>71.0</ele><time>2026-03-28T16:58:15.999Z</time></trkpt><trkpt lat="45.05184220663402" lon="8.950504456484401"><ele>72.0</ele><time>2026-03-28T16:58:16.999Z</time></trkpt><trkpt lat="45.05209057329802" lon="8.950688602676067"><ele>73.0</ele><time>2026-03-28T16:58:17.999Z</time></trkpt><trkpt lat="45.0523402849045" lon="8.95087133496068"><ele>74.0</ele><time>2026-03-28T16:58:18.999Z</time></trkpt><trkpt lat="45.052588883519626" lon="8.951051970857973"><ele>75.0</ele><time>2026-03-28T16:58:19.999Z</time></trkpt><trkpt lat="45.05283735091193" lon="8.951231534815987"><ele>75.0</ele><time>2026-03-28T16:58:20.999Z</time></trkpt><trkpt lat="45.05308927632716" lon="8.951410837505817"><ele>75.0</ele><time>2026-03-28T16:58:21.999Z</time></trkpt><trkpt lat="45.05333972892514" lon="8.951592218182915"><ele>72.5</ele><time>2026-03-28T16:58:22.999Z</time></trkpt><trkpt lat="45.053590813970956" lon="8.951771891130207"><ele>70.0</ele><time>2026-03-28T16:58:23.999Z</time></trkpt><trkpt lat="45.05384166091913" lon="8.951951269088346"><ele>70.0</ele><time>2026-03-28T16:58:24.999Z</time></trkpt><trkpt lat="45.054093493555314" lon="8.952131775345027"><ele>70.0</ele><time>2026-03-28T16:58:25.999Z</time></trkpt><trkpt lat="45.05434504934889" lon="8.952311261959116"><ele>70.0</ele><time>2026-03-28T16:58:26.999Z</time></trkpt><trkpt lat="45.05459651784168" lon="8.952490538547726"><ele>70.0</ele><time>2026-03-28T16:58:27.999Z</time></trkpt><trkpt lat="45.05484805846135" lon="8.9526695038321"><ele>69.5</ele><time>2026-03-28T16:58:28.999Z</time></trkpt><trkpt lat="45.05509840814911" lon="8.952848802405127"><ele>69.0</ele><time>2026-03-28T16:58:29.999Z</time></trkpt><trkpt lat="45.055348767821215" lon="8.953030088559688"><ele>69.0</ele><time>2026-03-28T16:58:30.999Z</time></trkpt><trkpt lat="45.055598469846416" lon="8.953213419383491"><ele>69.0</ele><time>2026-03-28T16:58:31.999Z</time></trkpt><trkpt lat="45.05584440141528" lon="8.953404393173367"><ele>68.0</ele><time>2026-03-28T16:58:32.999Z</time></trkpt><trkpt lat="45.056088672402005" lon="8.953602563168602"><ele>67.0</ele><time>2026-03-28T16:58:33.999Z</time></trkpt><trkpt lat="45.05632592648301" lon="8.953814977634165"><ele>67.0</ele><time>2026-03-28T16:58:34.999Z</time></trkpt><trkpt lat="45.05655496063592" lon="8.954038705936275"><ele>67.0</ele><time>2026-03-28T16:58:35.999Z</time></trkpt><trkpt lat="45.05677993936253" lon="8.954274850513224"><ele>68.5</ele><time>2026-03-28T16:58:36.999Z</time></trkpt><trkpt lat="45.05700312575901" lon="8.954513640829086"><ele>70.0</ele><time>2026-03-28T16:58:37.999Z</time></trkpt><trkpt lat="45.05722373875052" lon="8.954756021432233"><ele>70.0</ele><time>2026-03-28T16:58:38.999Z</time></trkpt><trkpt lat="45.057445403776725" lon="8.954998828713899"><ele>70.0</ele><time>2026-03-28T16:58:39.999Z</time></trkpt><trkpt lat="45.05766549376395" lon="8.955237487376802"><ele>69.5</ele><time>2026-03-28T16:58:40.999Z</time></trkpt><trkpt lat="45.05788868349829" lon="8.955475447071132"><ele>69.0</ele><time>2026-03-28T16:58:41.999Z</time></trkpt><trkpt lat="45.05811136993659" lon="8.95571511663907"><ele>69.0</ele><time>2026-03-28T16:58:42.999Z</time></trkpt><trkpt lat="45.05833264386521" lon="8.95595635748946"><ele>69.0</ele><time>2026-03-28T16:58:43.999Z</time></trkpt><trkpt lat="45.05855623267258" lon="8.956198955807482"><ele>69.0</ele><time>2026-03-28T16:58:44.999Z</time></trkpt><trkpt lat="45.05877682299188" lon="8.95643996110806"><ele>69.0</ele><time>2026-03-28T16:58:45.999Z</time></trkpt><trkpt lat="45.05899755337777" lon="8.956682716926414"><ele>69.0</ele><time>2026-03-28T16:58:46.999Z</time></trkpt><trkpt lat="45.059219424349365" lon="8.956925571896557"><ele>69.0</ele><time>2026-03-28T16:58:47.999Z</time></trkpt><trkpt lat="45.05944117434208" lon="8.957167559774515"><ele>69.0</ele><time>2026-03-28T16:58:48.999Z</time></trkpt><trkpt lat="45.059661726808685" lon="8.957410986963852"><ele>69.0</ele><time>2026-03-28T16:58:49.999Z</time></trkpt><trkpt lat="45.05988439648001" lon="8.95765338504049"><ele>68.5</ele><time>2026-03-28T16:58:50.999Z</time></trkpt><trkpt lat="45.06010696194555" lon="8.957895911266002"><ele>68.0</ele><time>2026-03-28T16:58:51.999Z</time></trkpt><trkpt lat="45.060329908724086" lon="8.958137901010117"><ele>68.5</ele><time>2026-03-28T16:58:52.999Z</time></trkpt><trkpt lat="45.06055295201723" lon="8.958378619439824"><ele>69.0</ele><time>2026-03-28T16:58:54Z</time></trkpt><trkpt lat="45.060773263515586" lon="8.95862103298624"><ele>69.5</ele><time>2026-03-28T16:58:55Z</time></trkpt><trkpt lat="45.06099351824648" lon="8.958864800317125"><ele>70.0</ele><time>2026-03-28T16:58:56Z</time></trkpt><trkpt lat="45.06121479259791" lon="8.959105580218797"><ele>70.0</ele><time>2026-03-28T16:58:57Z</time></trkpt><trkpt lat="45.06143724093982" lon="8.959346145512907"><ele>70.0</ele><time>2026-03-28T16:58:58Z</time></trkpt><trkpt lat="45.06165837635438" lon="8.959588995749783"><ele>70.0</ele><time>2026-03-28T16:58:59Z</time></trkpt><trkpt lat="45.06187836944491" lon="8.959832875005162"><ele>70.0</ele><time>2026-03-28T16:59:00Z</time></trkpt><trkpt lat="45.06210084002578" lon="8.960075294261049"><ele>69.5</ele><time>2026-03-28T16:59:01Z</time></trkpt><trkpt lat="45.06232329620587" lon="8.960317820181084"><ele>69.0</ele><time>2026-03-28T16:59:02Z</time></trkpt><trkpt lat="45.06254613377629" lon="8.960560494172341"><ele>68.5</ele><time>2026-03-28T16:59:03Z</time></trkpt><trkpt lat="45.06276774862496" lon="8.96080424356074"><ele>68.0</ele><time>2026-03-28T16:59:04Z</time></trkpt><trkpt lat="45.06298789760241" lon="8.961049350879287"><ele>68.0</ele><time>2026-03-28T16:59:05Z</time></trkpt><trkpt lat="45.06321049439874" lon="8.961289914415334"><ele>68.0</ele><time>2026-03-28T16:59:06Z</time></trkpt><trkpt lat="45.06343379542855" lon="8.96153028779378"><ele>68.0</ele><time>2026-03-28T16:59:07Z</time></trkpt><trkpt lat="45.06365572018489" lon="8.961771188558396"><ele>68.0</ele><time>2026-03-28T16:59:08Z</time></trkpt><trkpt lat="45.06388125753553" lon="8.96200969666393"><ele>68.0</ele><time>2026-03-28T16:59:09Z</time></trkpt><trkpt lat="45.0641031615592" lon="8.962252352864327"><ele>68.0</ele><time>2026-03-28T16:59:10Z</time></trkpt><trkpt lat="45.06432290516194" lon="8.962497090745883"><ele>68.5</ele><time>2026-03-28T16:59:11Z</time></trkpt><trkpt lat="45.06454307597816" lon="8.962737066466737"><ele>69.0</ele><time>2026-03-28T16:59:12Z</time></trkpt><trkpt lat="45.06476421545585" lon="8.962980091485539"><ele>69.0</ele><time>2026-03-28T16:59:13Z</time></trkpt><trkpt lat="45.064986539996184" lon="8.963221031278435"><ele>69.0</ele><time>2026-03-28T16:59:14Z</time></trkpt><trkpt lat="45.06520897069789" lon="8.96345758691704"><ele>69.0</ele><time>2026-03-28T16:59:15Z</time></trkpt><trkpt lat="45.0654338180747" lon="8.963695970368248"><ele>69.0</ele><time>2026-03-28T16:59:16Z</time></trkpt><trkpt lat="45.06565844581706" lon="8.963931326163234"><ele>68.5</ele><time>2026-03-28T16:59:17Z</time></trkpt><trkpt lat="45.06588460500843" lon="8.964168723576146"><ele>68.0</ele><time>2026-03-28T16:59:18Z</time></trkpt><trkpt lat="45.066107471176004" lon="8.964410861513203"><ele>69.0</ele><time>2026-03-28T16:59:19Z</time></trkpt><trkpt lat="45.06632943400155" lon="8.96465102930431"><ele>70.0</ele><time>2026-03-28T16:59:20Z</time></trkpt><trkpt lat="45.066552751301316" lon="8.96489319805817"><ele>69.5</ele><time>2026-03-28T16:59:21Z</time></trkpt><trkpt lat="45.06677290885032" lon="8.965138535125348"><ele>69.0</ele><time>2026-03-28T16:59:22Z</time></trkpt><trkpt lat="45.066992206365356" lon="8.965384076669475"><ele>69.0</ele><time>2026-03-28T16:59:23Z</time></trkpt><trkpt lat="45.067209931137114" lon="8.965630943981406"><ele>69.0</ele><time>2026-03-28T16:59:24Z</time></trkpt><trkpt lat="45.067427355484604" lon="8.965881204927088"><ele>69.0</ele><time>2026-03-28T16:59:25Z</time></trkpt><trkpt lat="45.067645289982906" lon="8.966129520911869"><ele>69.0</ele><time>2026-03-28T16:59:26Z</time></trkpt><trkpt lat="45.06786315856484" lon="8.966375066235022"><ele>69.0</ele><time>2026-03-28T16:59:27Z</time></trkpt><trkpt lat="45.06808334751762" lon="8.96661566850361"><ele>69.0</ele><time>2026-03-28T16:59:28Z</time></trkpt><trkpt lat="45.068305578101274" lon="8.966854444001699"><ele>68.0</ele><time>2026-03-28T16:59:29Z</time></trkpt><trkpt lat="45.06852794701567" lon="8.967092584335985"><ele>67.0</ele><time>2026-03-28T16:59:30Z</time></trkpt><trkpt lat="45.068749447143034" lon="8.967334236660612"><ele>68.0</ele><time>2026-03-28T16:59:31Z</time></trkpt><trkpt lat="45.06897052239765" lon="8.967576622153038"><ele>69.0</ele><time>2026-03-28T16:59:32Z</time></trkpt><trkpt lat="45.06919172068991" lon="8.967818285659627"><ele>69.0</ele><time>2026-03-28T16:59:33Z</time></trkpt><trkpt lat="45.06941245413359" lon="8.968059669518537"><ele>69.0</ele><time>2026-03-28T16:59:34Z</time></trkpt><trkpt lat="45.06963218112079" lon="8.968302549840057"><ele>69.0</ele><time>2026-03-28T16:59:35Z</time></trkpt><trkpt lat="45.0698527792704" lon="8.968545458633775"><ele>69.0</ele><time>2026-03-28T16:59:36Z</time></trkpt><trkpt lat="45.07007462915979" lon="8.968784823029898"><ele>69.0</ele><time>2026-03-28T16:59:37Z</time></trkpt><trkpt lat="45.07029458551008" lon="8.969026086712304"><ele>69.0</ele><time>2026-03-28T16:59:38Z</time></trkpt><trkpt lat="45.07051559600921" lon="8.96927028087774"><ele>69.0</ele><time>2026-03-28T16:59:39Z</time></trkpt><trkpt lat="45.07073705929488" lon="8.969514442630313"><ele>69.0</ele><time>2026-03-28T16:59:40Z</time></trkpt><trkpt lat="45.07095932346534" lon="8.969754992932275"><ele>69.0</ele><time>2026-03-28T16:59:41Z</time></trkpt><trkpt lat="45.07118166360138" lon="8.969993691872704"><ele>69.0</ele><time>2026-03-28T16:59:42Z</time></trkpt><trkpt lat="45.07140432891817" lon="8.970235167026322"><ele>68.5</ele><time>2026-03-28T16:59:43Z</time></trkpt><trkpt lat="45.0716272288283" lon="8.970477212711002"><ele>68.0</ele><time>2026-03-28T16:59:44Z</time></trkpt><trkpt lat="45.0718482562133" lon="8.970722389508019"><ele>69.0</ele><time>2026-03-28T16:59:45Z</time></trkpt><trkpt lat="45.07207031791505" lon="8.970966829509765"><ele>70.0</ele><time>2026-03-28T16:59:45.999Z</time></trkpt><trkpt lat="45.07229264986915" lon="8.971207320806055"><ele>70.0</ele><time>2026-03-28T16:59:46.999Z</time></trkpt><trkpt lat="45.07251424827032" lon="8.971451123011825"><ele>70.0</ele><time>2026-03-28T16:59:47.999Z</time></trkpt><trkpt lat="45.07273681830002" lon="8.971691959464186"><ele>69.5</ele><time>2026-03-28T16:59:48.999Z</time></trkpt><trkpt lat="45.072961229230955" lon="8.971930022355606"><ele>69.0</ele><time>2026-03-28T16:59:49.999Z</time></trkpt><trkpt lat="45.073188781776835" lon="8.972162414896001"><ele>68.5</ele><time>2026-03-28T16:59:50.999Z</time></trkpt><trkpt lat="45.07342090140517" lon="8.972380908120385"><ele>68.0</ele><time>2026-03-28T16:59:51.999Z</time></trkpt><trkpt lat="45.07366174577608" lon="8.97258242428379"><ele>68.0</ele><time>2026-03-28T16:59:52.999Z</time></trkpt><trkpt lat="45.07390625813603" lon="8.972771729171063"><ele>68.0</ele><time>2026-03-28T16:59:53.999Z</time></trkpt><trkpt lat="45.07415447938152" lon="8.972952954925677"><ele>67.5</ele><time>2026-03-28T16:59:54.999Z</time></trkpt><trkpt lat="45.074406633331805" lon="8.97312195489266"><ele>67.0</ele><time>2026-03-28T16:59:55.999Z</time></trkpt><trkpt lat="45.074663027064936" lon="8.973279017293475"><ele>67.0</ele><time>2026-03-28T16:59:56.999Z</time></trkpt><trkpt lat="45.07492256417997" lon="8.973422762400487"><ele>67.0</ele><time>2026-03-28T16:59:57.999Z</time></trkpt><trkpt lat="45.07518654780321" lon="8.973553623822168"><ele>67.0</ele><time>2026-03-28T16:59:58.999Z</time></trkpt><trkpt lat="45.07545099908812" lon="8.973671856305044"><ele>67.0</ele><time>2026-03-28T16:59:59.999Z</time></trkpt><trkpt lat="45.075720233015865" lon="8.97377546672892"><ele>67.5</ele><time>2026-03-28T17:00:00.999Z</time></trkpt><trkpt lat="45.075992646729425" lon="8.97385862658287"><ele>68.0</ele><time>2026-03-28T17:00:01.999Z</time></trkpt><trkpt lat="45.076267693006315" lon="8.973934362377554"><ele>68.0</ele><time>2026-03-28T17:00:02.999Z</time></trkpt><trkpt lat="45.076543993620746" lon="8.973994640379848"><ele>68.0</ele><time>2026-03-28T17:00:03.999Z</time></trkpt><trkpt lat="45.07682198613004" lon="8.974039982661001"><ele>68.5</ele><time>2026-03-28T17:00:04.999Z</time></trkpt><trkpt lat="45.077099981270415" lon="8.974075692975472"><ele>69.0</ele><time>2026-03-28T17:00:05.999Z</time></trkpt><trkpt lat="45.07737769026186" lon="8.974095096569563"><ele>69.0</ele><time>2026-03-28T17:00:06.999Z</time></trkpt><trkpt lat="45.07765589879927" lon="8.97410178286019"><ele>69.0</ele><time>2026-03-28T17:00:07.999Z</time></trkpt><trkpt lat="45.077933825034464" lon="8.974089747551583"><ele>69.0</ele><time>2026-03-28T17:00:08.999Z</time></trkpt><trkpt lat="45.07821274014069" lon="8.974062260764699"><ele>69.0</ele><time>2026-03-28T17:00:09.999Z</time></trkpt><trkpt lat="45.078491580026096" lon="8.974023837900454"><ele>69.5</ele><time>2026-03-28T17:00:10.999Z</time></trkpt><trkpt lat="45.078769890236664" lon="8.973973182886944"><ele>70.0</ele><time>2026-03-28T17:00:11.999Z</time></trkpt><trkpt lat="45.079045579918315" lon="8.973910771936623"><ele>70.0</ele><time>2026-03-28T17:00:12.999Z</time></trkpt><trkpt lat="45.079319414964395" lon="8.973834853988418"><ele>70.0</ele><time>2026-03-28T17:00:13.999Z</time></trkpt><trkpt lat="45.07959063978779" lon="8.973745826178694"><ele>70.0</ele><time>2026-03-28T17:00:14.999Z</time></trkpt><trkpt lat="45.07985932459204" lon="8.973644045835576"><ele>70.0</ele><time>2026-03-28T17:00:15.999Z</time></trkpt><trkpt lat="45.08012821956566" lon="8.973537297164881"><ele>70.0</ele><time>2026-03-28T17:00:16.999Z</time></trkpt><trkpt lat="45.08039725692476" lon="8.973427606868889"><ele>70.0</ele><time>2026-03-28T17:00:17.999Z</time></trkpt><trkpt lat="45.080663768923486" lon="8.973320108156972"><ele>67.5</ele><time>2026-03-28T17:00:18.999Z</time></trkpt><trkpt lat="45.08093132634746" lon="8.973203547850611"><ele>65.0</ele><time>2026-03-28T17:00:19.999Z</time></trkpt><trkpt lat="45.08119876077272" lon="8.973083834598903"><ele>65.0</ele><time>2026-03-28T17:00:20.999Z</time></trkpt><trkpt lat="45.08146626455668" lon="8.972968465787908"><ele>65.0</ele><time>2026-03-28T17:00:21.999Z</time></trkpt><trkpt lat="45.08173271237135" lon="8.972852386256818"><ele>64.0</ele><time>2026-03-28T17:00:22.999Z</time></trkpt><trkpt lat="45.08200163471045" lon="8.972737697840504"><ele>63.0</ele><time>2026-03-28T17:00:23.999Z</time></trkpt><trkpt lat="45.08226929204572" lon="8.972625106178254"><ele>63.0</ele><time>2026-03-28T17:00:24.999Z</time></trkpt><trkpt lat="45.08253794117302" lon="8.972511471765369"><ele>63.0</ele><time>2026-03-28T17:00:25.999Z</time></trkpt><trkpt lat="45.08280593397059" lon="8.972396006463702"><ele>63.0</ele><time>2026-03-28T17:00:26.999Z</time></trkpt><trkpt lat="45.083073823363804" lon="8.972280644620472"><ele>63.0</ele><time>2026-03-28T17:00:27.999Z</time></trkpt><trkpt lat="45.08334200925563" lon="8.972169660018324"><ele>62.5</ele><time>2026-03-28T17:00:28.999Z</time></trkpt><trkpt lat="45.083612629026995" lon="8.972057149946282"><ele>62.0</ele><time>2026-03-28T17:00:29.999Z</time></trkpt><trkpt lat="45.08388145094112" lon="8.971942906974402"><ele>61.5</ele><time>2026-03-28T17:00:30.999Z</time></trkpt><trkpt lat="45.08415019907024" lon="8.971829063083224"><ele>61.0</ele><time>2026-03-28T17:00:31.999Z</time></trkpt><trkpt lat="45.08441923970823" lon="8.971716317071087"><ele>62.5</ele><time>2026-03-28T17:00:32.999Z</time></trkpt><trkpt lat="45.084687313319165" lon="8.971599785219789"><ele>64.0</ele><time>2026-03-28T17:00:33.999Z</time></trkpt><trkpt lat="45.08495666351554" lon="8.971488486439757"><ele>65.5</ele><time>2026-03-28T17:00:34.999Z</time></trkpt><trkpt lat="45.085226005586236" lon="8.971377793927436"><ele>67.0</ele><time>2026-03-28T17:00:35.999Z</time></trkpt><trkpt lat="45.085495863641825" lon="8.971266877024688"><ele>65.5</ele><time>2026-03-28T17:00:36.999Z</time></trkpt><trkpt lat="45.08576495694483" lon="8.971152432691488"><ele>64.0</ele><time>2026-03-28T17:00:37.999Z</time></trkpt><trkpt lat="45.086033310892844" lon="8.97103832529601"><ele>64.0</ele><time>2026-03-28T17:00:38.999Z</time></trkpt><trkpt lat="45.086298905054626" lon="8.970924688245448"><ele>64.0</ele><time>2026-03-28T17:00:39.999Z</time></trkpt><trkpt lat="45.086567078132575" lon="8.970812435687955"><ele>66.0</ele><time>2026-03-28T17:00:40.999Z</time></trkpt><trkpt lat="45.08683690117863" lon="8.970698984703834"><ele>68.0</ele><time>2026-03-28T17:00:41.999Z</time></trkpt><trkpt lat="45.087104288440145" lon="8.970584317380519"><ele>68.0</ele><time>2026-03-28T17:00:42.999Z</time></trkpt><trkpt lat="45.08737342914204" lon="8.970471364876882"><ele>68.0</ele><time>2026-03-28T17:00:43.999Z</time></trkpt><trkpt lat="45.087643995646474" lon="8.970359819953709"><ele>67.5</ele><time>2026-03-28T17:00:44.999Z</time></trkpt><trkpt lat="45.08791429897686" lon="8.97024781809913"><ele>67.0</ele><time>2026-03-28T17:00:45.999Z</time></trkpt><trkpt lat="45.088185951680906" lon="8.970135090827547"><ele>68.0</ele><time>2026-03-28T17:00:46.999Z</time></trkpt><trkpt lat="45.088457777802766" lon="8.97002513696309"><ele>69.0</ele><time>2026-03-28T17:00:47.999Z</time></trkpt><trkpt lat="45.088728555367936" lon="8.969917561422465"><ele>68.5</ele><time>2026-03-28T17:00:48.999Z</time></trkpt><trkpt lat="45.08899947302499" lon="8.969809833368693"><ele>68.0</ele><time>2026-03-28T17:00:49.999Z</time></trkpt><trkpt lat="45.08927179620787" lon="8.969700329358256"><ele>68.0</ele><time>2026-03-28T17:00:50.999Z</time></trkpt><trkpt lat="45.089544200381674" lon="8.969590288198681"><ele>68.0</ele><time>2026-03-28T17:00:51.999Z</time></trkpt><trkpt lat="45.089814374862364" lon="8.96947981216119"><ele>68.0</ele><time>2026-03-28T17:00:52.999Z</time></trkpt><trkpt lat="45.090083871058404" lon="8.969372606653742"><ele>68.0</ele><time>2026-03-28T17:00:53.999Z</time></trkpt><trkpt lat="45.090356619287434" lon="8.969271682647731"><ele>68.0</ele><time>2026-03-28T17:00:54.999Z</time></trkpt><trkpt lat="45.09062910319225" lon="8.969175077915917"><ele>68.0</ele><time>2026-03-28T17:00:55.999Z</time></trkpt><trkpt lat="45.09090325346925" lon="8.969085490047052"><ele>68.0</ele><time>2026-03-28T17:00:56.999Z</time></trkpt><trkpt lat="45.09117800393143" lon="8.96900225435527"><ele>68.0</ele><time>2026-03-28T17:00:57.999Z</time></trkpt><trkpt lat="45.09145476843216" lon="8.968926315862475"><ele>68.5</ele><time>2026-03-28T17:00:58.999Z</time></trkpt><trkpt lat="45.091733089700526" lon="8.968862511573974"><ele>69.0</ele><time>2026-03-28T17:01:00Z</time></trkpt><trkpt lat="45.09200896086818" lon="8.968807351022958"><ele>69.0</ele><time>2026-03-28T17:01:01Z</time></trkpt><trkpt lat="45.09228770996849" lon="8.968759270827471"><ele>69.0</ele><time>2026-03-28T17:01:02Z</time></trkpt><trkpt lat="45.09256624149436" lon="8.96872035960785"><ele>68.5</ele><time>2026-03-28T17:01:03Z</time></trkpt><trkpt lat="45.092846040325355" lon="8.968686156416092"><ele>68.0</ele><time>2026-03-28T17:01:04Z</time></trkpt><trkpt lat="45.09312576490855" lon="8.968662416777054"><ele>67.0</ele><time>2026-03-28T17:01:05Z</time></trkpt><trkpt lat="45.09340716532704" lon="8.96864740862266"><ele>66.0</ele><time>2026-03-28T17:01:06Z</time></trkpt><trkpt lat="45.093687810621084" lon="8.968639717437512"><ele>66.0</ele><time>2026-03-28T17:01:07Z</time></trkpt><trkpt lat="45.09396775608868" lon="8.968642020305245"><ele>66.0</ele><time>2026-03-28T17:01:08Z</time></trkpt><trkpt lat="45.094248689479116" lon="8.968654930877529"><ele>66.0</ele><time>2026-03-28T17:01:09Z</time></trkpt><trkpt lat="45.09452708472112" lon="8.96867442080396"><ele>66.0</ele><time>2026-03-28T17:01:10Z</time></trkpt><trkpt lat="45.09480664746234" lon="8.968701123812004"><ele>66.5</ele><time>2026-03-28T17:01:11Z</time></trkpt><trkpt lat="45.095084794782494" lon="8.968734229250172"><ele>67.0</ele><time>2026-03-28T17:01:12Z</time></trkpt><trkpt lat="45.095361959722794" lon="8.968772912470506"><ele>67.0</ele><time>2026-03-28T17:01:13Z</time></trkpt><trkpt lat="45.09563876299851" lon="8.968820709803818"><ele>67.0</ele><time>2026-03-28T17:01:14Z</time></trkpt><trkpt lat="45.09591575603554" lon="8.968879546050191"><ele>66.5</ele><time>2026-03-28T17:01:15Z</time></trkpt><trkpt lat="45.096194711388655" lon="8.968948093988688"><ele>66.0</ele><time>2026-03-28T17:01:16Z</time></trkpt><trkpt lat="45.09646907049434" lon="8.969020207782956"><ele>66.5</ele><time>2026-03-28T17:01:17Z</time></trkpt><trkpt lat="45.09674236057605" lon="8.969098670007012"><ele>67.0</ele><time>2026-03-28T17:01:18Z</time></trkpt><trkpt lat="45.097015520001214" lon="8.969184013659623"><ele>66.5</ele><time>2026-03-28T17:01:19Z</time></trkpt><trkpt lat="45.09728847858967" lon="8.969278223329928"><ele>66.0</ele><time>2026-03-28T17:01:20Z</time></trkpt><trkpt lat="45.09756052104996" lon="8.96937790632596"><ele>66.0</ele><time>2026-03-28T17:01:21Z</time></trkpt><trkpt lat="45.097828568692066" lon="8.969491814839785"><ele>66.0</ele><time>2026-03-28T17:01:22Z</time></trkpt><trkpt lat="45.09809701616876" lon="8.969608251124958"><ele>66.0</ele><time>2026-03-28T17:01:23Z</time></trkpt><trkpt lat="45.09836399214528" lon="8.969724113863245"><ele>66.0</ele><time>2026-03-28T17:01:24Z</time></trkpt><trkpt lat="45.09863085598381" lon="8.96984273580936"><ele>66.0</ele><time>2026-03-28T17:01:25Z</time></trkpt><trkpt lat="45.09889882576768" lon="8.969961870234691"><ele>66.0</ele><time>2026-03-28T17:01:26Z</time></trkpt><trkpt lat="45.09916752669608" lon="8.970080938570705"><ele>65.5</ele><time>2026-03-28T17:01:27Z</time></trkpt><trkpt lat="45.099434444050175" lon="8.970199883299008"><ele>65.0</ele><time>2026-03-28T17:01:28Z</time></trkpt><trkpt lat="45.09970244282993" lon="8.970317642883716"><ele>65.5</ele><time>2026-03-28T17:01:29Z</time></trkpt><trkpt lat="45.09997026845464" lon="8.970434717293804"><ele>66.0</ele><time>2026-03-28T17:01:30Z</time></trkpt><trkpt lat="45.10023740592922" lon="8.97055230573861"><ele>66.0</ele><time>2026-03-28T17:01:31Z</time></trkpt><trkpt lat="45.10050458320917" lon="8.970670486537882"><ele>66.0</ele><time>2026-03-28T17:01:32Z</time></trkpt><trkpt lat="45.100772287788395" lon="8.970787397203287"><ele>66.0</ele><time>2026-03-28T17:01:33Z</time></trkpt><trkpt lat="45.10103989573739" lon="8.970903778374556"><ele>66.0</ele><time>2026-03-28T17:01:34Z</time></trkpt><trkpt lat="45.10130707656001" lon="8.971018503424599"><ele>66.0</ele><time>2026-03-28T17:01:35Z</time></trkpt><trkpt lat="45.10157550637464" lon="8.97113269923304"><ele>66.0</ele><time>2026-03-28T17:01:36Z</time></trkpt><trkpt lat="45.10184397745595" lon="8.971249399517195"><ele>66.0</ele><time>2026-03-28T17:01:37Z</time></trkpt><trkpt lat="45.10211124429576" lon="8.971367189107442"><ele>66.0</ele><time>2026-03-28T17:01:38Z</time></trkpt><trkpt lat="45.102378501693586" lon="8.971484266403191"><ele>66.0</ele><time>2026-03-28T17:01:39Z</time></trkpt><trkpt lat="45.102645342611694" lon="8.971602185991824"><ele>66.0</ele><time>2026-03-28T17:01:40Z</time></trkpt><trkpt lat="45.10291321508139" lon="8.971719065134767"><ele>66.5</ele><time>2026-03-28T17:01:41Z</time></trkpt><trkpt lat="45.10318067597173" lon="8.971833050714517"><ele>67.0</ele><time>2026-03-28T17:01:42Z</time></trkpt><trkpt lat="45.103449675572236" lon="8.971945065868757"><ele>67.5</ele><time>2026-03-28T17:01:43Z</time></trkpt><trkpt lat="45.103718706993284" lon="8.972057509297601"><ele>68.0</ele><time>2026-03-28T17:01:44Z</time></trkpt><trkpt lat="45.103990203040084" lon="8.972176558725208"><ele>66.5</ele><time>2026-03-28T17:01:45Z</time></trkpt><trkpt lat="45.104258481073735" lon="8.972287989796488"><ele>65.0</ele><time>2026-03-28T17:01:46Z</time></trkpt><trkpt lat="45.104527305264476" lon="8.972401625540545"><ele>65.0</ele><time>2026-03-28T17:01:47Z</time></trkpt><trkpt lat="45.104796425604455" lon="8.97251700583703"><ele>65.0</ele><time>2026-03-28T17:01:48Z</time></trkpt><trkpt lat="45.10506672878399" lon="8.972632920991048"><ele>65.5</ele><time>2026-03-28T17:01:49Z</time></trkpt><trkpt lat="45.10533593474992" lon="8.972748507631417"><ele>66.0</ele><time>2026-03-28T17:01:50Z</time></trkpt><trkpt lat="45.10560483993791" lon="8.97286305877115"><ele>65.5</ele><time>2026-03-28T17:01:50.999Z</time></trkpt><trkpt lat="45.1058735191367" lon="8.972980260676795"><ele>65.0</ele><time>2026-03-28T17:01:51.999Z</time></trkpt><trkpt lat="45.10614187393798" lon="8.973099255533677"><ele>65.0</ele><time>2026-03-28T17:01:52.999Z</time></trkpt><trkpt lat="45.106410952365025" lon="8.973219578538522"><ele>65.0</ele><time>2026-03-28T17:01:53.999Z</time></trkpt><trkpt lat="45.106678880328325" lon="8.973338112750115"><ele>65.5</ele><time>2026-03-28T17:01:54.999Z</time></trkpt><trkpt lat="45.10694558695686" lon="8.973460932996685"><ele>66.0</ele><time>2026-03-28T17:01:55.999Z</time></trkpt><trkpt lat="45.107213677684705" lon="8.973582429022807"><ele>65.5</ele><time>2026-03-28T17:01:56.999Z</time></trkpt><trkpt lat="45.10748067304308" lon="8.973700921576107"><ele>65.0</ele><time>2026-03-28T17:01:57.999Z</time></trkpt><trkpt lat="45.107748876703916" lon="8.973818936829081"><ele>65.0</ele><time>2026-03-28T17:01:58.999Z</time></trkpt><trkpt lat="45.10801764118934" lon="8.97393589876177"><ele>65.0</ele><time>2026-03-28T17:01:59.999Z</time></trkpt><trkpt lat="45.1082855449026" lon="8.974055048291135"><ele>65.0</ele><time>2026-03-28T17:02:00.999Z</time></trkpt><trkpt lat="45.108553504874784" lon="8.974171605661462"><ele>65.0</ele><time>2026-03-28T17:02:01.999Z</time></trkpt><trkpt lat="45.108819897754444" lon="8.974295002178307"><ele>65.5</ele><time>2026-03-28T17:02:02.999Z</time></trkpt><trkpt lat="45.109086331890076" lon="8.974422244853375"><ele>66.0</ele><time>2026-03-28T17:02:03.999Z</time></trkpt><trkpt lat="45.10935297313846" lon="8.974544976497477"><ele>66.0</ele><time>2026-03-28T17:02:04.999Z</time></trkpt><trkpt lat="45.109619752690094" lon="8.974667782229368"><ele>66.0</ele><time>2026-03-28T17:02:05.999Z</time></trkpt><trkpt lat="45.109886430915765" lon="8.974788746921758"><ele>67.0</ele><time>2026-03-28T17:02:06.999Z</time></trkpt><trkpt lat="45.11015299408837" lon="8.974907706276026"><ele>68.0</ele><time>2026-03-28T17:02:07.999Z</time></trkpt><trkpt lat="45.11042085112237" lon="8.97502505531182"><ele>69.0</ele><time>2026-03-28T17:02:08.999Z</time></trkpt><trkpt lat="45.11068880425855" lon="8.975140185715189"><ele>70.0</ele><time>2026-03-28T17:02:09.999Z</time></trkpt><trkpt lat="45.1109573362093" lon="8.975252137350129"><ele>71.0</ele><time>2026-03-28T17:02:10.999Z</time></trkpt><trkpt lat="45.111227095490264" lon="8.97535751934882"><ele>72.0</ele><time>2026-03-28T17:02:11.999Z</time></trkpt><trkpt lat="45.111498905756804" lon="8.975452727501509"><ele>70.5</ele><time>2026-03-28T17:02:12.999Z</time></trkpt><trkpt lat="45.11177208729661" lon="8.975539241871019"><ele>69.0</ele><time>2026-03-28T17:02:13.999Z</time></trkpt><trkpt lat="45.11204546334556" lon="8.975613905230306"><ele>69.0</ele><time>2026-03-28T17:02:14.999Z</time></trkpt><trkpt lat="45.112320396815534" lon="8.975680606004184"><ele>69.0</ele><time>2026-03-28T17:02:15.999Z</time></trkpt><trkpt lat="45.11259643121496" lon="8.975738483249676"><ele>68.5</ele><time>2026-03-28T17:02:16.999Z</time></trkpt><trkpt lat="45.11287307471675" lon="8.975795170069025"><ele>68.0</ele><time>2026-03-28T17:02:17.999Z</time></trkpt><trkpt lat="45.11315130826431" lon="8.97584607971108"><ele>67.5</ele><time>2026-03-28T17:02:18.999Z</time></trkpt><trkpt lat="45.113428820824204" lon="8.975895787929144"><ele>67.0</ele><time>2026-03-28T17:02:19.999Z</time></trkpt><trkpt lat="45.11370572324993" lon="8.975946347746957"><ele>67.0</ele><time>2026-03-28T17:02:20.999Z</time></trkpt><trkpt lat="45.11398270657278" lon="8.97599394984758"><ele>67.0</ele><time>2026-03-28T17:02:21.999Z</time></trkpt><trkpt lat="45.114260524748424" lon="8.976038900464145"><ele>69.0</ele><time>2026-03-28T17:02:22.999Z</time></trkpt><trkpt lat="45.11453847248727" lon="8.976088396933134"><ele>71.0</ele><time>2026-03-28T17:02:23.999Z</time></trkpt><trkpt lat="45.11481646592743" lon="8.976136434913704"><ele>73.5</ele><time>2026-03-28T17:02:24.999Z</time></trkpt><trkpt lat="45.11509547280216" lon="8.976183182206187"><ele>76.0</ele><time>2026-03-28T17:02:25.999Z</time></trkpt><trkpt lat="45.11537262759207" lon="8.976232649691164"><ele>76.0</ele><time>2026-03-28T17:02:26.999Z</time></trkpt><trkpt lat="45.115645790698196" lon="8.976279381947323"><ele>76.0</ele><time>2026-03-28T17:02:27.999Z</time></trkpt><trkpt lat="45.11592120642805" lon="8.976326184233818"><ele>76.5</ele><time>2026-03-28T17:02:28.999Z</time></trkpt><trkpt lat="45.11619631996259" lon="8.97637810550515"><ele>77.0</ele><time>2026-03-28T17:02:29.999Z</time></trkpt><trkpt lat="45.11647417292568" lon="8.97642936254785"><ele>76.5</ele><time>2026-03-28T17:02:30.999Z</time></trkpt><trkpt lat="45.11675193496432" lon="8.976481064580499"><ele>76.0</ele><time>2026-03-28T17:02:31.999Z</time></trkpt><trkpt lat="45.11702926965092" lon="8.976535173898682"><ele>76.0</ele><time>2026-03-28T17:02:32.999Z</time></trkpt><trkpt lat="45.117307280120855" lon="8.976591254570453"><ele>76.0</ele><time>2026-03-28T17:02:33.999Z</time></trkpt><trkpt lat="45.11758665736494" lon="8.976646264428657"><ele>77.5</ele><time>2026-03-28T17:02:34.999Z</time></trkpt><trkpt lat="45.117861750096466" lon="8.976704198199945"><ele>79.0</ele><time>2026-03-28T17:02:35.999Z</time></trkpt><trkpt lat="45.118140273664096" lon="8.976761714883859"><ele>79.0</ele><time>2026-03-28T17:02:36.999Z</time></trkpt><trkpt lat="45.1184210868484" lon="8.976817488388106"><ele>79.0</ele><time>2026-03-28T17:02:37.999Z</time></trkpt><trkpt lat="45.11869952887727" lon="8.97687043032841"><ele>79.0</ele><time>2026-03-28T17:02:38.999Z</time></trkpt><trkpt lat="45.11897786984653" lon="8.97692543869635"><ele>79.0</ele><time>2026-03-28T17:02:39.999Z</time></trkpt><trkpt lat="45.11925488370932" lon="8.976977623738783"><ele>77.0</ele><time>2026-03-28T17:02:40.999Z</time></trkpt><trkpt lat="45.1195323500894" lon="8.977029805704833"><ele>75.0</ele><time>2026-03-28T17:02:41.999Z</time></trkpt><trkpt lat="45.11980928594771" lon="8.97708108553726"><ele>73.5</ele><time>2026-03-28T17:02:42.999Z</time></trkpt><trkpt lat="45.12008680233206" lon="8.977132691618799"><ele>72.0</ele><time>2026-03-28T17:02:43.999Z</time></trkpt><trkpt lat="45.12036584400527" lon="8.977184622613764"><ele>72.0</ele><time>2026-03-28T17:02:44.999Z</time></trkpt><trkpt lat="45.12064135290547" lon="8.977237662653"><ele>72.0</ele><time>2026-03-28T17:02:45.999Z</time></trkpt><trkpt lat="45.120911180352905" lon="8.977288463235817"><ele>71.5</ele><time>2026-03-28T17:02:46.999Z</time></trkpt><trkpt lat="45.12117815969442" lon="8.977339592349487"><ele>71.0</ele><time>2026-03-28T17:02:47.999Z</time></trkpt><trkpt lat="45.12144531471503" lon="8.97738850542811"><ele>72.0</ele><time>2026-03-28T17:02:48.999Z</time></trkpt><trkpt lat="45.12171199248106" lon="8.977446026626623"><ele>73.0</ele><time>2026-03-28T17:02:49.999Z</time></trkpt><trkpt lat="45.12197843621224" lon="8.977499313123461"><ele>72.0</ele><time>2026-03-28T17:02:50.999Z</time></trkpt><trkpt lat="45.122244307630176" lon="8.977549512208695"><ele>71.0</ele><time>2026-03-28T17:02:51.999Z</time></trkpt><trkpt lat="45.12251003810514" lon="8.977597367023902"><ele>71.0</ele><time>2026-03-28T17:02:52.999Z</time></trkpt><trkpt lat="45.122776704829285" lon="8.97764699409474"><ele>71.0</ele><time>2026-03-28T17:02:53.999Z</time></trkpt><trkpt lat="45.12304343212407" lon="8.977694361085897"><ele>73.0</ele><time>2026-03-28T17:02:54.999Z</time></trkpt><trkpt lat="45.12331056287036" lon="8.977746410096756"><ele>75.0</ele><time>2026-03-28T17:02:55.999Z</time></trkpt><trkpt lat="45.12357753216454" lon="8.977797475591252"><ele>75.0</ele><time>2026-03-28T17:02:56.999Z</time></trkpt><trkpt lat="45.12384495468676" lon="8.977848089651964"><ele>75.0</ele><time>2026-03-28T17:02:57.999Z</time></trkpt><trkpt lat="45.12411072021405" lon="8.97789653839248"><ele>76.5</ele><time>2026-03-28T17:02:58.999Z</time></trkpt><trkpt lat="45.1243771259412" lon="8.977943913298342"><ele>78.0</ele><time>2026-03-28T17:02:59.999Z</time></trkpt><trkpt lat="45.124645825746015" lon="8.977992684494017"><ele>78.0</ele><time>2026-03-28T17:03:00.999Z</time></trkpt><trkpt lat="45.12491488012117" lon="8.978047196494487"><ele>78.0</ele><time>2026-03-28T17:03:01.999Z</time></trkpt><trkpt lat="45.125182200607625" lon="8.978104063325397"><ele>78.0</ele><time>2026-03-28T17:03:02.999Z</time></trkpt><trkpt lat="45.12544872415097" lon="8.978167013380476"><ele>78.0</ele><time>2026-03-28T17:03:03.999Z</time></trkpt><trkpt lat="45.12571413590895" lon="8.978237102110635"><ele>79.0</ele><time>2026-03-28T17:03:04.999Z</time></trkpt><trkpt lat="45.12597787491583" lon="8.978313200928229"><ele>80.0</ele><time>2026-03-28T17:03:06Z</time></trkpt><trkpt lat="45.12623868242077" lon="8.978399359719422"><ele>80.0</ele><time>2026-03-28T17:03:07Z</time></trkpt><trkpt lat="45.126499011927514" lon="8.97849097172846"><ele>80.0</ele><time>2026-03-28T17:03:08Z</time></trkpt><trkpt lat="45.12676380534842" lon="8.97858727500619"><ele>79.5</ele><time>2026-03-28T17:03:09Z</time></trkpt><trkpt lat="45.12702254977031" lon="8.978697273532493"><ele>79.0</ele><time>2026-03-28T17:03:10Z</time></trkpt><trkpt lat="45.12728082306521" lon="8.978818297708463"><ele>80.0</ele><time>2026-03-28T17:03:11Z</time></trkpt><trkpt lat="45.127535906050475" lon="8.978939877066175"><ele>81.0</ele><time>2026-03-28T17:03:12Z</time></trkpt><trkpt lat="45.12778993310014" lon="8.9790670518096"><ele>80.5</ele><time>2026-03-28T17:03:13Z</time></trkpt><trkpt lat="45.12804333269404" lon="8.979203332806971"><ele>80.0</ele><time>2026-03-28T17:03:14Z</time></trkpt><trkpt lat="45.12829434177367" lon="8.979351716545702"><ele>79.5</ele><time>2026-03-28T17:03:15Z</time></trkpt><trkpt lat="45.12854473458604" lon="8.979498852922967"><ele>79.0</ele><time>2026-03-28T17:03:16Z</time></trkpt><trkpt lat="45.12879225055813" lon="8.979658770358178"><ele>79.0</ele><time>2026-03-28T17:03:17Z</time></trkpt><trkpt lat="45.12903804437488" lon="8.979812968626314"><ele>79.0</ele><time>2026-03-28T17:03:18Z</time></trkpt><trkpt lat="45.12928544587238" lon="8.979971345049856"><ele>79.5</ele><time>2026-03-28T17:03:19Z</time></trkpt><trkpt lat="45.1295344057848" lon="8.980127567628191"><ele>80.0</ele><time>2026-03-28T17:03:20Z</time></trkpt><trkpt lat="45.1297835646603" lon="8.980282660631099"><ele>80.0</ele><time>2026-03-28T17:03:21Z</time></trkpt><trkpt lat="45.13003221653945" lon="8.980439880292122"><ele>80.0</ele><time>2026-03-28T17:03:22Z</time></trkpt><trkpt lat="45.13028052441658" lon="8.98059141309767"><ele>80.0</ele><time>2026-03-28T17:03:23Z</time></trkpt><trkpt lat="45.13052781556654" lon="8.98074787562189"><ele>80.0</ele><time>2026-03-28T17:03:24Z</time></trkpt><trkpt lat="45.130775858787715" lon="8.980899261001458"><ele>82.0</ele><time>2026-03-28T17:03:25Z</time></trkpt><trkpt lat="45.13102259359864" lon="8.981054582522674"><ele>84.0</ele><time>2026-03-28T17:03:26Z</time></trkpt><trkpt lat="45.13126980412731" lon="8.981208626715677"><ele>84.0</ele><time>2026-03-28T17:03:27Z</time></trkpt><trkpt lat="45.13151543522517" lon="8.98135590264389"><ele>84.0</ele><time>2026-03-28T17:03:28Z</time></trkpt><trkpt lat="45.13176324496848" lon="8.981510653327124"><ele>83.5</ele><time>2026-03-28T17:03:29Z</time></trkpt><trkpt lat="45.13201431907356" lon="8.981663292448554"><ele>83.0</ele><time>2026-03-28T17:03:30Z</time></trkpt><trkpt lat="45.13226371447623" lon="8.981812389925164"><ele>82.5</ele><time>2026-03-28T17:03:31Z</time></trkpt><trkpt lat="45.132513440015884" lon="8.981969090628414"><ele>82.0</ele><time>2026-03-28T17:03:32Z</time></trkpt><trkpt lat="45.13276186483386" lon="8.982122975392695"><ele>82.0</ele><time>2026-03-28T17:03:33Z</time></trkpt><trkpt lat="45.13301142690791" lon="8.982275467123847"><ele>82.0</ele><time>2026-03-28T17:03:34Z</time></trkpt><trkpt lat="45.133258932833414" lon="8.982433157554647"><ele>81.0</ele><time>2026-03-28T17:03:35Z</time></trkpt><trkpt lat="45.133506266388814" lon="8.982586714233129"><ele>80.0</ele><time>2026-03-28T17:03:36Z</time></trkpt><trkpt lat="45.133753316519204" lon="8.982743644086575"><ele>80.0</ele><time>2026-03-28T17:03:37Z</time></trkpt><trkpt lat="45.13400103207205" lon="8.982898886317617"><ele>80.0</ele><time>2026-03-28T17:03:38Z</time></trkpt><trkpt lat="45.13424781281866" lon="8.983050098390606"><ele>80.5</ele><time>2026-03-28T17:03:39Z</time></trkpt><trkpt lat="45.134494504754244" lon="8.983204543596587"><ele>81.0</ele><time>2026-03-28T17:03:40Z</time></trkpt><trkpt lat="45.13474336801442" lon="8.983357258272601"><ele>82.0</ele><time>2026-03-28T17:03:41Z</time></trkpt><trkpt lat="45.1349916069001" lon="8.983509904154525"><ele>83.0</ele><time>2026-03-28T17:03:42Z</time></trkpt><trkpt lat="45.13523894066085" lon="8.983665859322826"><ele>83.0</ele><time>2026-03-28T17:03:43Z</time></trkpt><trkpt lat="45.135486241716286" lon="8.983820793052166"><ele>83.0</ele><time>2026-03-28T17:03:44Z</time></trkpt><trkpt lat="45.13573327841724" lon="8.98397455747761"><ele>82.5</ele><time>2026-03-28T17:03:45Z</time></trkpt><trkpt lat="45.135980731891024" lon="8.98412899188496"><ele>82.0</ele><time>2026-03-28T17:03:46Z</time></trkpt><trkpt lat="45.13622718216324" lon="8.98428749321962"><ele>82.0</ele><time>2026-03-28T17:03:47Z</time></trkpt><trkpt lat="45.13647597857028" lon="8.984437116902766"><ele>82.0</ele><time>2026-03-28T17:03:48Z</time></trkpt><trkpt lat="45.13672445554957" lon="8.984590924993702"><ele>82.0</ele><time>2026-03-28T17:03:49Z</time></trkpt><trkpt lat="45.1369724633998" lon="8.98474667325346"><ele>82.0</ele><time>2026-03-28T17:03:50Z</time></trkpt><trkpt lat="45.13722068354177" lon="8.984900130785915"><ele>83.0</ele><time>2026-03-28T17:03:51Z</time></trkpt><trkpt lat="45.13746940726628" lon="8.98504876982643"><ele>84.0</ele><time>2026-03-28T17:03:52Z</time></trkpt><trkpt lat="45.137715629552424" lon="8.985200020374313"><ele>84.0</ele><time>2026-03-28T17:03:53Z</time></trkpt><trkpt lat="45.13796254919553" lon="8.98535459994222"><ele>84.0</ele><time>2026-03-28T17:03:54Z</time></trkpt><trkpt lat="45.13821128876393" lon="8.98550595459336"><ele>83.5</ele><time>2026-03-28T17:03:55Z</time></trkpt><trkpt lat="45.13846086076118" lon="8.985661161466709"><ele>83.0</ele><time>2026-03-28T17:03:56Z</time></trkpt><trkpt lat="45.13870992475373" lon="8.985811504056244"><ele>83.0</ele><time>2026-03-28T17:03:57Z</time></trkpt><trkpt lat="45.13895758336167" lon="8.985964307060103"><ele>83.0</ele><time>2026-03-28T17:03:58Z</time></trkpt><trkpt lat="45.139207077296646" lon="8.986118685985796"><ele>83.0</ele><time>2026-03-28T17:03:59Z</time></trkpt><trkpt lat="45.13945586225601" lon="8.986270441883379"><ele>83.0</ele><time>2026-03-28T17:03:59.999Z</time></trkpt><trkpt lat="45.13970292906342" lon="8.986425306275416"><ele>83.0</ele><time>2026-03-28T17:04:00.999Z</time></trkpt><trkpt lat="45.13995115370167" lon="8.986578078033306"><ele>83.0</ele><time>2026-03-28T17:04:01.999Z</time></trkpt><trkpt lat="45.140200145394395" lon="8.986729967309987"><ele>83.0</ele><time>2026-03-28T17:04:02.999Z</time></trkpt><trkpt lat="45.140447789563964" lon="8.986883391744385"><ele>83.0</ele><time>2026-03-28T17:04:03.999Z</time></trkpt><trkpt lat="45.140695945586835" lon="8.98703355925475"><ele>83.0</ele><time>2026-03-28T17:04:04.999Z</time></trkpt><trkpt lat="45.14094396068152" lon="8.987190140607185"><ele>83.0</ele><time>2026-03-28T17:04:05.999Z</time></trkpt><trkpt lat="45.14119418372197" lon="8.987340535114283"><ele>83.0</ele><time>2026-03-28T17:04:06.999Z</time></trkpt><trkpt lat="45.14144330535551" lon="8.987497570261757"><ele>83.0</ele><time>2026-03-28T17:04:07.999Z</time></trkpt><trkpt lat="45.14169335128454" lon="8.987646674138832"><ele>83.5</ele><time>2026-03-28T17:04:08.999Z</time></trkpt><trkpt lat="45.141941681212714" lon="8.987803764864422"><ele>84.0</ele><time>2026-03-28T17:04:09.999Z</time></trkpt><trkpt lat="45.14218950352495" lon="8.987960952406313"><ele>84.5</ele><time>2026-03-28T17:04:10.999Z</time></trkpt><trkpt lat="45.14243855694698" lon="8.988110096564709"><ele>85.0</ele><time>2026-03-28T17:04:11.999Z</time></trkpt><trkpt lat="45.14268598204052" lon="8.988265454436874"><ele>85.0</ele><time>2026-03-28T17:04:12.999Z</time></trkpt><trkpt lat="45.142935222723835" lon="8.988411847734104"><ele>85.0</ele><time>2026-03-28T17:04:13.999Z</time></trkpt><trkpt lat="45.14318369964408" lon="8.988561256900292"><ele>84.5</ele><time>2026-03-28T17:04:14.999Z</time></trkpt><trkpt lat="45.14343313736549" lon="8.988709217062206"><ele>84.0</ele><time>2026-03-28T17:04:15.999Z</time></trkpt><trkpt lat="45.14368279270473" lon="8.98885410622068"><ele>84.0</ele><time>2026-03-28T17:04:16.999Z</time></trkpt><trkpt lat="45.14392175427961" lon="8.989009594470726"><ele>84.0</ele><time>2026-03-28T17:04:17.999Z</time></trkpt><trkpt lat="45.14414880580172" lon="8.989155995400138"><ele>82.5</ele><time>2026-03-28T17:04:18.999Z</time></trkpt><trkpt lat="45.14438189347293" lon="8.98929179167479"><ele>81.0</ele><time>2026-03-28T17:04:19.999Z</time></trkpt><trkpt lat="45.14461964778945" lon="8.989429567293573"><ele>81.0</ele><time>2026-03-28T17:04:20.999Z</time></trkpt><trkpt lat="45.14486169103671" lon="8.98957364256157"><ele>81.0</ele><time>2026-03-28T17:04:21.999Z</time></trkpt><trkpt lat="45.145101205546645" lon="8.989731275221681"><ele>81.5</ele><time>2026-03-28T17:04:22.999Z</time></trkpt><trkpt lat="45.14534092553166" lon="8.989893539200931"><ele>82.0</ele><time>2026-03-28T17:04:23.999Z</time></trkpt><trkpt lat="45.14558451375479" lon="8.990053153073118"><ele>83.5</ele><time>2026-03-28T17:04:24.999Z</time></trkpt><trkpt lat="45.14582893096687" lon="8.99020924413562"><ele>85.0</ele><time>2026-03-28T17:04:25.999Z</time></trkpt><trkpt lat="45.14607516523194" lon="8.990363086533355"><ele>85.0</ele><time>2026-03-28T17:04:26.999Z</time></trkpt><trkpt lat="45.14632158633588" lon="8.990515836285649"><ele>85.0</ele><time>2026-03-28T17:04:27.999Z</time></trkpt><trkpt lat="45.14656846947835" lon="8.990667757423273"><ele>86.5</ele><time>2026-03-28T17:04:28.999Z</time></trkpt><trkpt lat="45.14681525729211" lon="8.990818275735716"><ele>88.0</ele><time>2026-03-28T17:04:29.999Z</time></trkpt><trkpt lat="45.14706075196685" lon="8.990970171337008"><ele>88.0</ele><time>2026-03-28T17:04:30.999Z</time></trkpt><trkpt lat="45.147306189036215" lon="8.991120090488236"><ele>88.0</ele><time>2026-03-28T17:04:31.999Z</time></trkpt><trkpt lat="45.14755211664986" lon="8.991272662189173"><ele>88.5</ele><time>2026-03-28T17:04:32.999Z</time></trkpt><trkpt lat="45.14780078184067" lon="8.99142303894695"><ele>89.0</ele><time>2026-03-28T17:04:33.999Z</time></trkpt><trkpt lat="45.148047240519915" lon="8.991575271770849"><ele>88.0</ele><time>2026-03-28T17:04:34.999Z</time></trkpt><trkpt lat="45.148288090028984" lon="8.991717615446586"><ele>87.0</ele><time>2026-03-28T17:04:35.999Z</time></trkpt><trkpt lat="45.14853723546367" lon="8.991872284577445"><ele>87.0</ele><time>2026-03-28T17:04:36.999Z</time></trkpt><trkpt lat="45.14878377424089" lon="8.992025304905257"><ele>87.0</ele><time>2026-03-28T17:04:37.999Z</time></trkpt><trkpt lat="45.14902977871387" lon="8.992175601181716"><ele>87.0</ele><time>2026-03-28T17:04:38.999Z</time></trkpt><trkpt lat="45.149276293424265" lon="8.992323781939358"><ele>87.0</ele><time>2026-03-28T17:04:39.999Z</time></trkpt><trkpt lat="45.149515524881146" lon="8.992468927443971"><ele>87.0</ele><time>2026-03-28T17:04:40.999Z</time></trkpt><trkpt lat="45.14975152726393" lon="8.992609104041929"><ele>87.0</ele><time>2026-03-28T17:04:41.999Z</time></trkpt><trkpt lat="45.149991020588025" lon="8.992746384639247"><ele>87.0</ele><time>2026-03-28T17:04:42.999Z</time></trkpt><trkpt lat="45.150232287188565" lon="8.992879145785087"><ele>87.0</ele><time>2026-03-28T17:04:43.999Z</time></trkpt><trkpt lat="45.150473063687365" lon="8.993007942194938"><ele>86.5</ele><time>2026-03-28T17:04:44.999Z</time></trkpt><trkpt lat="45.15071652138428" lon="8.993131850039331"><ele>86.0</ele><time>2026-03-28T17:04:45.999Z</time></trkpt><trkpt lat="45.15096075505434" lon="8.993250547988739"><ele>85.5</ele><time>2026-03-28T17:04:46.999Z</time></trkpt><trkpt lat="45.15120591846793" lon="8.993368557870493"><ele>85.0</ele><time>2026-03-28T17:04:47.999Z</time></trkpt><trkpt lat="45.151449943919296" lon="8.99348714667598"><ele>84.0</ele><time>2026-03-28T17:04:48.999Z</time></trkpt><trkpt lat="45.151696062749686" lon="8.99360580043209"><ele>83.0</ele><time>2026-03-28T17:04:49.999Z</time></trkpt><trkpt lat="45.15194044957594" lon="8.99372264097911"><ele>83.0</ele><time>2026-03-28T17:04:50.999Z</time></trkpt><trkpt lat="45.15218493455625" lon="8.993841652367616"><ele>83.0</ele><time>2026-03-28T17:04:51.999Z</time></trkpt><trkpt lat="45.15242954251007" lon="8.993960347939042"><ele>83.5</ele><time>2026-03-28T17:04:52.999Z</time></trkpt><trkpt lat="45.15267466309354" lon="8.99407814032188"><ele>84.0</ele><time>2026-03-28T17:04:53.999Z</time></trkpt><trkpt lat="45.15291908705092" lon="8.99419676853717"><ele>84.0</ele><time>2026-03-28T17:04:54.999Z</time></trkpt><trkpt lat="45.15316451211205" lon="8.994317126923011"><ele>84.0</ele><time>2026-03-28T17:04:55.999Z</time></trkpt><trkpt lat="45.15340892565257" lon="8.994438268701991"><ele>84.0</ele><time>2026-03-28T17:04:56.999Z</time></trkpt><trkpt lat="45.15365331025677" lon="8.994558091251136"><ele>84.0</ele><time>2026-03-28T17:04:57.999Z</time></trkpt><trkpt lat="45.15389828906073" lon="8.994682616350017"><ele>84.5</ele><time>2026-03-28T17:04:58.999Z</time></trkpt><trkpt lat="45.154141882237035" lon="8.994802906563155"><ele>85.0</ele><time>2026-03-28T17:04:59.999Z</time></trkpt><trkpt lat="45.15438769144114" lon="8.99492152115178"><ele>85.0</ele><time>2026-03-28T17:05:00.999Z</time></trkpt><trkpt lat="45.154632520701284" lon="8.995040594220633"><ele>85.0</ele><time>2026-03-28T17:05:01.999Z</time></trkpt><trkpt lat="45.15487658439133" lon="8.995160792794257"><ele>84.5</ele><time>2026-03-28T17:05:02.999Z</time></trkpt><trkpt lat="45.155121918301816" lon="8.995277963242817"><ele>84.0</ele><time>2026-03-28T17:05:03.999Z</time></trkpt><trkpt lat="45.15536533976765" lon="8.9953940050404"><ele>84.0</ele><time>2026-03-28T17:05:04.999Z</time></trkpt><trkpt lat="45.15560927894315" lon="8.9955123304327"><ele>84.0</ele><time>2026-03-28T17:05:05.999Z</time></trkpt><trkpt lat="45.15585468179595" lon="8.995633370043974"><ele>85.0</ele><time>2026-03-28T17:05:06.999Z</time></trkpt><trkpt lat="45.15609709135277" lon="8.99574953610571"><ele>86.0</ele><time>2026-03-28T17:05:07.999Z</time></trkpt><trkpt lat="45.15634122988433" lon="8.995868506271162"><ele>87.5</ele><time>2026-03-28T17:05:08.999Z</time></trkpt><trkpt lat="45.156585376599296" lon="8.995987166669945"><ele>89.0</ele><time>2026-03-28T17:05:09.999Z</time></trkpt><trkpt lat="45.15682991332395" lon="8.996105348828289"><ele>89.0</ele><time>2026-03-28T17:05:10.999Z</time></trkpt><trkpt lat="45.157073418364675" lon="8.996221951394201"><ele>89.0</ele><time>2026-03-28T17:05:12Z</time></trkpt><trkpt lat="45.15731812600863" lon="8.996337788032138"><ele>88.5</ele><time>2026-03-28T17:05:13Z</time></trkpt><trkpt lat="45.15756061925722" lon="8.99645341600127"><ele>88.0</ele><time>2026-03-28T17:05:14Z</time></trkpt><trkpt lat="45.157804440102325" lon="8.996568069166658"><ele>87.5</ele><time>2026-03-28T17:05:15Z</time></trkpt><trkpt lat="45.158050359489444" lon="8.996686149416979"><ele>87.0</ele><time>2026-03-28T17:05:16Z</time></trkpt><trkpt lat="45.158293921302196" lon="8.996804637910566"><ele>87.0</ele><time>2026-03-28T17:05:17Z</time></trkpt><trkpt lat="45.15853889032867" lon="8.99692239923663"><ele>87.0</ele><time>2026-03-28T17:05:18Z</time></trkpt><trkpt lat="45.15878443217751" lon="8.997040807982158"><ele>87.0</ele><time>2026-03-28T17:05:19Z</time></trkpt><trkpt lat="45.15902906802822" lon="8.997160430554473"><ele>87.0</ele><time>2026-03-28T17:05:20Z</time></trkpt><trkpt lat="45.15927510469601" lon="8.997280121207762"><ele>87.0</ele><time>2026-03-28T17:05:21Z</time></trkpt><trkpt lat="45.159521800232675" lon="8.997398561124996"><ele>87.0</ele><time>2026-03-28T17:05:22Z</time></trkpt><trkpt lat="45.15976732097996" lon="8.99751718370084"><ele>87.0</ele><time>2026-03-28T17:05:23Z</time></trkpt><trkpt lat="45.16001164431293" lon="8.99763894901614"><ele>87.0</ele><time>2026-03-28T17:05:24Z</time></trkpt><trkpt lat="45.160258309328384" lon="8.997758270138656"><ele>87.0</ele><time>2026-03-28T17:05:25Z</time></trkpt><trkpt lat="45.160503193384926" lon="8.99787790537108"><ele>87.0</ele><time>2026-03-28T17:05:26Z</time></trkpt><trkpt lat="45.16075126456231" lon="8.997996855787987"><ele>87.0</ele><time>2026-03-28T17:05:27Z</time></trkpt><trkpt lat="45.16099620250584" lon="8.998114014864017"><ele>87.0</ele><time>2026-03-28T17:05:28Z</time></trkpt><trkpt lat="45.16124148617447" lon="8.998230875268636"><ele>87.0</ele><time>2026-03-28T17:05:29Z</time></trkpt><trkpt lat="45.16148814134424" lon="8.998352457394615"><ele>87.0</ele><time>2026-03-28T17:05:30Z</time></trkpt><trkpt lat="45.16173361978704" lon="8.998472094050333"><ele>86.5</ele><time>2026-03-28T17:05:31Z</time></trkpt><trkpt lat="45.16197963280334" lon="8.998590741428007"><ele>86.0</ele><time>2026-03-28T17:05:32Z</time></trkpt><trkpt lat="45.16222602906801" lon="8.998706067321613"><ele>85.5</ele><time>2026-03-28T17:05:33Z</time></trkpt><trkpt lat="45.16247089833298" lon="8.998823112979926"><ele>85.0</ele><time>2026-03-28T17:05:34Z</time></trkpt><trkpt lat="45.16271656918611" lon="8.998943425679638"><ele>85.0</ele><time>2026-03-28T17:05:35Z</time></trkpt><trkpt lat="45.1629619235942" lon="8.999060830854592"><ele>85.0</ele><time>2026-03-28T17:05:36Z</time></trkpt><trkpt lat="45.16320690885239" lon="8.99917975381262"><ele>84.5</ele><time>2026-03-28T17:05:37Z</time></trkpt><trkpt lat="45.16345241008671" lon="8.999301520083892"><ele>84.0</ele><time>2026-03-28T17:05:38Z</time></trkpt><trkpt lat="45.16369714751477" lon="8.999419266992948"><ele>84.0</ele><time>2026-03-28T17:05:39Z</time></trkpt><trkpt lat="45.16394370274687" lon="8.999535856244913"><ele>84.0</ele><time>2026-03-28T17:05:40Z</time></trkpt><trkpt lat="45.16419038322072" lon="8.999652230868046"><ele>85.0</ele><time>2026-03-28T17:05:41Z</time></trkpt><trkpt lat="45.16443704853487" lon="8.999767885735825"><ele>86.0</ele><time>2026-03-28T17:05:42Z</time></trkpt><trkpt lat="45.1646838710287" lon="8.999879665081792"><ele>86.5</ele><time>2026-03-28T17:05:43Z</time></trkpt><trkpt lat="45.1649289176872" lon="8.999991389027455"><ele>87.0</ele><time>2026-03-28T17:05:44Z</time></trkpt><trkpt lat="45.165174918845175" lon="9.000108694381314"><ele>87.0</ele><time>2026-03-28T17:05:45Z</time></trkpt><trkpt lat="45.16542095495828" lon="9.000221178982812"><ele>87.0</ele><time>2026-03-28T17:05:46Z</time></trkpt><trkpt lat="45.16566719829552" lon="9.000334180020255"><ele>86.5</ele><time>2026-03-28T17:05:47Z</time></trkpt><trkpt lat="45.16591137897307" lon="9.000448719049045"><ele>86.0</ele><time>2026-03-28T17:05:48Z</time></trkpt><trkpt lat="45.166154436612516" lon="9.000566509778205"><ele>86.0</ele><time>2026-03-28T17:05:49Z</time></trkpt><trkpt lat="45.16639484249329" lon="9.000687320255384"><ele>86.0</ele><time>2026-03-28T17:05:50Z</time></trkpt><trkpt lat="45.16663777419138" lon="9.000802395586023"><ele>86.0</ele><time>2026-03-28T17:05:51Z</time></trkpt><trkpt lat="45.16688245098918" lon="9.000919032444113"><ele>86.0</ele><time>2026-03-28T17:05:52Z</time></trkpt><trkpt lat="45.167125031180476" lon="9.001038416218716"><ele>85.5</ele><time>2026-03-28T17:05:53Z</time></trkpt><trkpt lat="45.16736668502172" lon="9.001159281589466"><ele>85.0</ele><time>2026-03-28T17:05:54Z</time></trkpt><trkpt lat="45.167607257481066" lon="9.001282557411235"><ele>85.0</ele><time>2026-03-28T17:05:55Z</time></trkpt><trkpt lat="45.16785136101231" lon="9.001404711069315"><ele>85.0</ele><time>2026-03-28T17:05:56Z</time></trkpt><trkpt lat="45.168094890687655" lon="9.00152642020365"><ele>85.0</ele><time>2026-03-28T17:05:57Z</time></trkpt><trkpt lat="45.168337744863784" lon="9.001651572618663"><ele>85.0</ele><time>2026-03-28T17:05:58Z</time></trkpt><trkpt lat="45.16858140261936" lon="9.001777137517696"><ele>85.0</ele><time>2026-03-28T17:05:59Z</time></trkpt><trkpt lat="45.168822705193705" lon="9.00189854885631"><ele>85.0</ele><time>2026-03-28T17:06:00Z</time></trkpt><trkpt lat="45.169064385026076" lon="9.002017691722482"><ele>85.0</ele><time>2026-03-28T17:06:01Z</time></trkpt><trkpt lat="45.16930660032628" lon="9.00213060535868"><ele>85.0</ele><time>2026-03-28T17:06:01.999Z</time></trkpt><trkpt lat="45.16954671498348" lon="9.002247007526545"><ele>85.0</ele><time>2026-03-28T17:06:02.999Z</time></trkpt><trkpt lat="45.169784863967315" lon="9.002364435784184"><ele>85.0</ele><time>2026-03-28T17:06:03.999Z</time></trkpt><trkpt lat="45.170025654800355" lon="9.002481237166586"><ele>85.0</ele><time>2026-03-28T17:06:04.999Z</time></trkpt><trkpt lat="45.17026470947503" lon="9.002599839386399"><ele>85.0</ele><time>2026-03-28T17:06:05.999Z</time></trkpt><trkpt lat="45.17050417521813" lon="9.002715445545558"><ele>85.5</ele><time>2026-03-28T17:06:06.999Z</time></trkpt><trkpt lat="45.170743538094214" lon="9.002832673085964"><ele>86.0</ele><time>2026-03-28T17:06:07.999Z</time></trkpt><trkpt lat="45.17098565136315" lon="9.002945584948753"><ele>86.0</ele><time>2026-03-28T17:06:08.999Z</time></trkpt><trkpt lat="45.17122855984864" lon="9.003058658661335"><ele>86.0</ele><time>2026-03-28T17:06:09.999Z</time></trkpt><trkpt lat="45.17146931552315" lon="9.003175333953877"><ele>85.5</ele><time>2026-03-28T17:06:10.999Z</time></trkpt><trkpt lat="45.17170933812332" lon="9.003288848767903"><ele>85.0</ele><time>2026-03-28T17:06:11.999Z</time></trkpt><trkpt lat="45.1719490155401" lon="9.00340303073282"><ele>85.5</ele><time>2026-03-28T17:06:12.999Z</time></trkpt><trkpt lat="45.172190244981216" lon="9.003519179357205"><ele>86.0</ele><time>2026-03-28T17:06:13.999Z</time></trkpt><trkpt lat="45.172431020892354" lon="9.003635627771166"><ele>86.0</ele><time>2026-03-28T17:06:14.999Z</time></trkpt><trkpt lat="45.17267229871826" lon="9.003750652052064"><ele>86.0</ele><time>2026-03-28T17:06:15.999Z</time></trkpt><trkpt lat="45.17291354577566" lon="9.003864692457764"><ele>86.0</ele><time>2026-03-28T17:06:16.999Z</time></trkpt><trkpt lat="45.173154229585094" lon="9.003979477449258"><ele>86.0</ele><time>2026-03-28T17:06:17.999Z</time></trkpt><trkpt lat="45.17339496883464" lon="9.004096069766934"><ele>86.0</ele><time>2026-03-28T17:06:18.999Z</time></trkpt><trkpt lat="45.173636384731296" lon="9.004214152798507"><ele>86.0</ele><time>2026-03-28T17:06:19.999Z</time></trkpt><trkpt lat="45.17387856688368" lon="9.004327200598805"><ele>86.5</ele><time>2026-03-28T17:06:20.999Z</time></trkpt><trkpt lat="45.174119876835206" lon="9.004445239961962"><ele>87.0</ele><time>2026-03-28T17:06:21.999Z</time></trkpt><trkpt lat="45.17436124673171" lon="9.004563730715734"><ele>87.0</ele><time>2026-03-28T17:06:22.999Z</time></trkpt><trkpt lat="45.174601964597066" lon="9.00468489733763"><ele>87.0</ele><time>2026-03-28T17:06:23.999Z</time></trkpt><trkpt lat="45.17484215225951" lon="9.004801410165328"><ele>87.0</ele><time>2026-03-28T17:06:24.999Z</time></trkpt><trkpt lat="45.175081762546064" lon="9.00491143376044"><ele>87.0</ele><time>2026-03-28T17:06:25.999Z</time></trkpt><trkpt lat="45.17532256675241" lon="9.00502523197041"><ele>86.5</ele><time>2026-03-28T17:06:26.999Z</time></trkpt><trkpt lat="45.17556316403337" lon="9.005141274110427"><ele>86.0</ele><time>2026-03-28T17:06:27.999Z</time></trkpt><trkpt lat="45.17580207628275" lon="9.005257511197266"><ele>85.5</ele><time>2026-03-28T17:06:28.999Z</time></trkpt><trkpt lat="45.176042475105284" lon="9.005372946321645"><ele>85.0</ele><time>2026-03-28T17:06:29.999Z</time></trkpt><trkpt lat="45.176284089745785" lon="9.005492079525894"><ele>85.5</ele><time>2026-03-28T17:06:30.999Z</time></trkpt><trkpt lat="45.176523281770635" lon="9.005611340202618"><ele>86.0</ele><time>2026-03-28T17:06:31.999Z</time></trkpt><trkpt lat="45.17676053989024" lon="9.005737161796011"><ele>85.5</ele><time>2026-03-28T17:06:32.999Z</time></trkpt><trkpt lat="45.17699795976939" lon="9.005867670897775"><ele>85.0</ele><time>2026-03-28T17:06:33.999Z</time></trkpt><trkpt lat="45.177227124442155" lon="9.006012155486156"><ele>82.5</ele><time>2026-03-28T17:06:34.999Z</time></trkpt><trkpt lat="45.17746159057153" lon="9.006148766127934"><ele>80.0</ele><time>2026-03-28T17:06:35.999Z</time></trkpt><trkpt lat="45.17769839130267" lon="9.006286286174767"><ele>80.0</ele><time>2026-03-28T17:06:36.999Z</time></trkpt><trkpt lat="45.17793456048546" lon="9.00642888832689"><ele>80.0</ele><time>2026-03-28T17:06:37.999Z</time></trkpt><trkpt lat="45.17816988670793" lon="9.006565930542603"><ele>77.5</ele><time>2026-03-28T17:06:38.999Z</time></trkpt><trkpt lat="45.17840548552088" lon="9.006703779168575"><ele>75.0</ele><time>2026-03-28T17:06:39.999Z</time></trkpt><trkpt lat="45.17864027163475" lon="9.006840411878324"><ele>75.0</ele><time>2026-03-28T17:06:40.999Z</time></trkpt><trkpt lat="45.17887487683136" lon="9.006976382013438"><ele>75.0</ele><time>2026-03-28T17:06:41.999Z</time></trkpt><trkpt lat="45.179108834278665" lon="9.007115788975199"><ele>73.5</ele><time>2026-03-28T17:06:42.999Z</time></trkpt><trkpt lat="45.1793429358011" lon="9.007257506004427"><ele>72.0</ele><time>2026-03-28T17:06:43.999Z</time></trkpt><trkpt lat="45.179575321091505" lon="9.00739984809593"><ele>71.5</ele><time>2026-03-28T17:06:44.999Z</time></trkpt><trkpt lat="45.17980782883826" lon="9.007542549434115"><ele>71.0</ele><time>2026-03-28T17:06:45.999Z</time></trkpt><trkpt lat="45.18004151633401" lon="9.007684687191405"><ele>69.0</ele><time>2026-03-28T17:06:46.999Z</time></trkpt><trkpt lat="45.18027618887978" lon="9.00782463771891"><ele>67.0</ele><time>2026-03-28T17:06:47.999Z</time></trkpt><trkpt lat="45.18051067903179" lon="9.007963028322925"><ele>66.5</ele><time>2026-03-28T17:06:48.999Z</time></trkpt><trkpt lat="45.18074435759739" lon="9.008103318913983"><ele>66.0</ele><time>2026-03-28T17:06:49.999Z</time></trkpt><trkpt lat="45.180978872281884" lon="9.008244235320264"><ele>66.5</ele><time>2026-03-28T17:06:50.999Z</time></trkpt><trkpt lat="45.18121344639739" lon="9.008384995118675"><ele>67.0</ele><time>2026-03-28T17:06:51.999Z</time></trkpt><trkpt lat="45.18144898914331" lon="9.00852212773434"><ele>67.5</ele><time>2026-03-28T17:06:52.999Z</time></trkpt><trkpt lat="45.18168400244116" lon="9.00866363184193"><ele>68.0</ele><time>2026-03-28T17:06:53.999Z</time></trkpt><trkpt lat="45.18191989066517" lon="9.00880066315031"><ele>68.0</ele><time>2026-03-28T17:06:54.999Z</time></trkpt><trkpt lat="45.18215540283907" lon="9.008937922962549"><ele>68.0</ele><time>2026-03-28T17:06:55.999Z</time></trkpt><trkpt lat="45.18238846715779" lon="9.00907825032561"><ele>67.0</ele><time>2026-03-28T17:06:56.999Z</time></trkpt><trkpt lat="45.18262226756971" lon="9.009217930055472"><ele>66.0</ele><time>2026-03-28T17:06:57.999Z</time></trkpt><trkpt lat="45.18285696555954" lon="9.009359561148779"><ele>66.0</ele><time>2026-03-28T17:06:58.999Z</time></trkpt><trkpt lat="45.1830912936503" lon="9.009499536062783"><ele>66.0</ele><time>2026-03-28T17:06:59.999Z</time></trkpt><trkpt lat="45.18332514844782" lon="9.009640248734865"><ele>65.5</ele><time>2026-03-28T17:07:00.999Z</time></trkpt><trkpt lat="45.18355903916105" lon="9.00977920919814"><ele>65.0</ele><time>2026-03-28T17:07:01.999Z</time></trkpt><trkpt lat="45.18379303166535" lon="9.009918785133625"><ele>64.0</ele><time>2026-03-28T17:07:02.999Z</time></trkpt><trkpt lat="45.18402529754777" lon="9.010057068444684"><ele>63.0</ele><time>2026-03-28T17:07:03.999Z</time></trkpt><trkpt lat="45.1842579657639" lon="9.010198290159108"><ele>63.0</ele><time>2026-03-28T17:07:04.999Z</time></trkpt><trkpt lat="45.18449136465013" lon="9.010338043018601"><ele>63.0</ele><time>2026-03-28T17:07:05.999Z</time></trkpt><trkpt lat="45.18472487132236" lon="9.010475316918091"><ele>63.5</ele><time>2026-03-28T17:07:06.999Z</time></trkpt><trkpt lat="45.1849576921341" lon="9.01061368885427"><ele>64.0</ele><time>2026-03-28T17:07:07.999Z</time></trkpt><trkpt lat="45.18518984155165" lon="9.010752555128661"><ele>64.0</ele><time>2026-03-28T17:07:08.999Z</time></trkpt><trkpt lat="45.18542314205714" lon="9.01089092862446"><ele>64.0</ele><time>2026-03-28T17:07:09.999Z</time></trkpt><trkpt lat="45.18565779981091" lon="9.011030524487929"><ele>64.0</ele><time>2026-03-28T17:07:10.999Z</time></trkpt><trkpt lat="45.1858913836563" lon="9.011169466774362"><ele>64.0</ele><time>2026-03-28T17:07:11.999Z</time></trkpt><trkpt lat="45.186124160547145" lon="9.01130934102721"><ele>64.0</ele><time>2026-03-28T17:07:12.999Z</time></trkpt><trkpt lat="45.186358412405546" lon="9.011449510532497"><ele>64.0</ele><time>2026-03-28T17:07:13.999Z</time></trkpt><trkpt lat="45.186590401867996" lon="9.01158900992614"><ele>65.0</ele><time>2026-03-28T17:07:14.999Z</time></trkpt><trkpt lat="45.186825911300986" lon="9.011728917944913"><ele>66.0</ele><time>2026-03-28T17:07:15.999Z</time></trkpt><trkpt lat="45.187059697734576" lon="9.011868520329598"><ele>66.0</ele><time>2026-03-28T17:07:16.999Z</time></trkpt><trkpt lat="45.18729192002388" lon="9.012009013664933"><ele>66.0</ele><time>2026-03-28T17:07:18Z</time></trkpt><trkpt lat="45.1875246459128" lon="9.012149597489163"><ele>66.0</ele><time>2026-03-28T17:07:19Z</time></trkpt><trkpt lat="45.187758525038014" lon="9.012289293111065"><ele>66.0</ele><time>2026-03-28T17:07:20Z</time></trkpt><trkpt lat="45.18799317193433" lon="9.012424490268469"><ele>66.5</ele><time>2026-03-28T17:07:21Z</time></trkpt><trkpt lat="45.18822726054308" lon="9.012560955624123"><ele>67.0</ele><time>2026-03-28T17:07:22Z</time></trkpt><trkpt lat="45.18846057970371" lon="9.012699715552563"><ele>67.0</ele><time>2026-03-28T17:07:23Z</time></trkpt><trkpt lat="45.18869311240534" lon="9.012838592840072"><ele>67.0</ele><time>2026-03-28T17:07:24Z</time></trkpt><trkpt lat="45.188925300607366" lon="9.012980892757481"><ele>66.0</ele><time>2026-03-28T17:07:25Z</time></trkpt><trkpt lat="45.18915888862615" lon="9.013121770933358"><ele>65.0</ele><time>2026-03-28T17:07:26Z</time></trkpt><trkpt lat="45.18939072394797" lon="9.013262063948657"><ele>65.0</ele><time>2026-03-28T17:07:27Z</time></trkpt><trkpt lat="45.18962385334115" lon="9.013404176833022"><ele>65.0</ele><time>2026-03-28T17:07:28Z</time></trkpt><trkpt lat="45.189858116975955" lon="9.013547134155722"><ele>65.0</ele><time>2026-03-28T17:07:29Z</time></trkpt><trkpt lat="45.190092388794746" lon="9.01368616605293"><ele>65.0</ele><time>2026-03-28T17:07:30Z</time></trkpt><trkpt lat="45.190327354208364" lon="9.013822389530478"><ele>65.0</ele><time>2026-03-28T17:07:31Z</time></trkpt><trkpt lat="45.19056334591485" lon="9.013956973622145"><ele>65.0</ele><time>2026-03-28T17:07:32Z</time></trkpt><trkpt lat="45.19079829947234" lon="9.014094921874518"><ele>66.0</ele><time>2026-03-28T17:07:33Z</time></trkpt><trkpt lat="45.19103193545354" lon="9.01423389817961"><ele>67.0</ele><time>2026-03-28T17:07:34Z</time></trkpt><trkpt lat="45.19126620731591" lon="9.014373022285547"><ele>67.0</ele><time>2026-03-28T17:07:35Z</time></trkpt><trkpt lat="45.191501661106166" lon="9.014511390407636"><ele>67.0</ele><time>2026-03-28T17:07:36Z</time></trkpt><trkpt lat="45.19173601932632" lon="9.014651420095133"><ele>66.0</ele><time>2026-03-28T17:07:37Z</time></trkpt><trkpt lat="45.19196991163835" lon="9.01479037470783"><ele>65.0</ele><time>2026-03-28T17:07:38Z</time></trkpt><trkpt lat="45.192204980228674" lon="9.014934435662333"><ele>65.5</ele><time>2026-03-28T17:07:39Z</time></trkpt><trkpt lat="45.19243778658602" lon="9.015076006094754"><ele>66.0</ele><time>2026-03-28T17:07:40Z</time></trkpt><trkpt lat="45.19267281333867" lon="9.015213499162758"><ele>66.0</ele><time>2026-03-28T17:07:41Z</time></trkpt><trkpt lat="45.192906900775995" lon="9.015355148818887"><ele>66.0</ele><time>2026-03-28T17:07:42Z</time></trkpt><trkpt lat="45.19314134007944" lon="9.015496847248551"><ele>65.5</ele><time>2026-03-28T17:07:43Z</time></trkpt><trkpt lat="45.193376320398755" lon="9.01563652931525"><ele>65.0</ele><time>2026-03-28T17:07:44Z</time></trkpt><trkpt lat="45.19360985002423" lon="9.015774315301298"><ele>65.0</ele><time>2026-03-28T17:07:45Z</time></trkpt><trkpt lat="45.19384319648166" lon="9.0159127723142"><ele>65.0</ele><time>2026-03-28T17:07:46Z</time></trkpt><trkpt lat="45.19407673689488" lon="9.016051784903985"><ele>65.0</ele><time>2026-03-28T17:07:47Z</time></trkpt><trkpt lat="45.19430872441618" lon="9.01619151693525"><ele>65.0</ele><time>2026-03-28T17:07:48Z</time></trkpt><trkpt lat="45.19454180590223" lon="9.016331604976784"><ele>65.0</ele><time>2026-03-28T17:07:49Z</time></trkpt><trkpt lat="45.19477596697002" lon="9.016472042082157"><ele>65.0</ele><time>2026-03-28T17:07:50Z</time></trkpt><trkpt lat="45.19500890772598" lon="9.016610173029145"><ele>65.0</ele><time>2026-03-28T17:07:51Z</time></trkpt><trkpt lat="45.195243465852165" lon="9.016748984735814"><ele>65.0</ele><time>2026-03-28T17:07:52Z</time></trkpt><trkpt lat="45.19547778067353" lon="9.016886548539132"><ele>65.0</ele><time>2026-03-28T17:07:53Z</time></trkpt><trkpt lat="45.19571162581577" lon="9.017024892317686"><ele>65.0</ele><time>2026-03-28T17:07:54Z</time></trkpt><trkpt lat="45.195946109109386" lon="9.017163035105794"><ele>65.0</ele><time>2026-03-28T17:07:55Z</time></trkpt><trkpt lat="45.19617943482012" lon="9.017301178855192"><ele>65.0</ele><time>2026-03-28T17:07:56Z</time></trkpt><trkpt lat="45.19641240762582" lon="9.017440179851627"><ele>65.0</ele><time>2026-03-28T17:07:57Z</time></trkpt><trkpt lat="45.19664531841644" lon="9.017577622969965"><ele>65.0</ele><time>2026-03-28T17:07:58Z</time></trkpt><trkpt lat="45.196880515895025" lon="9.017709433642521"><ele>65.0</ele><time>2026-03-28T17:07:59Z</time></trkpt><trkpt lat="45.19711920965901" lon="9.017826347189931"><ele>65.0</ele><time>2026-03-28T17:08:00Z</time></trkpt><trkpt lat="45.19736063072377" lon="9.017932015244002"><ele>64.5</ele><time>2026-03-28T17:08:01Z</time></trkpt><trkpt lat="45.19760332703298" lon="9.018033428214443"><ele>64.0</ele><time>2026-03-28T17:08:02Z</time></trkpt><trkpt lat="45.19784716588729" lon="9.018124731950541"><ele>64.0</ele><time>2026-03-28T17:08:03Z</time></trkpt><trkpt lat="45.19809201560029" lon="9.018207824549838"><ele>64.0</ele><time>2026-03-28T17:08:04Z</time></trkpt><trkpt lat="45.19833869221459" lon="9.018277602493491"><ele>63.5</ele><time>2026-03-28T17:08:05Z</time></trkpt><trkpt lat="45.19858807666456" lon="9.018337311643359"><ele>63.0</ele><time>2026-03-28T17:08:06Z</time></trkpt><trkpt lat="45.198838987136405" lon="9.01838542588689"><ele>65.0</ele><time>2026-03-28T17:08:07Z</time></trkpt><trkpt lat="45.19909012045498" lon="9.018422927150082"><ele>67.0</ele><time>2026-03-28T17:08:08Z</time></trkpt><trkpt lat="45.199343100192344" lon="9.018456335214976"><ele>67.0</ele><time>2026-03-28T17:08:09Z</time></trkpt><trkpt lat="45.19959607563977" lon="9.018478313291018"><ele>67.0</ele><time>2026-03-28T17:08:10Z</time></trkpt><trkpt lat="45.199848566857725" lon="9.018490085507322"><ele>67.0</ele><time>2026-03-28T17:08:11Z</time></trkpt><trkpt lat="45.200099675587204" lon="9.018493670679623"><ele>67.0</ele><time>2026-03-28T17:08:12Z</time></trkpt><trkpt lat="45.20034942125883" lon="9.01848651661982"><ele>67.0</ele><time>2026-03-28T17:08:12.999Z</time></trkpt><trkpt lat="45.20060136365277" lon="9.018465002487476"><ele>67.0</ele><time>2026-03-28T17:08:13.999Z</time></trkpt><trkpt lat="45.2008554630259" lon="9.018432494419535"><ele>65.5</ele><time>2026-03-28T17:08:14.999Z</time></trkpt><trkpt lat="45.20110614841375" lon="9.01839596392216"><ele>64.0</ele><time>2026-03-28T17:08:15.999Z</time></trkpt><trkpt lat="45.20135693696308" lon="9.018353321969279"><ele>64.0</ele><time>2026-03-28T17:08:16.999Z</time></trkpt><trkpt lat="45.2016067629567" lon="9.018298974978702"><ele>64.0</ele><time>2026-03-28T17:08:17.999Z</time></trkpt><trkpt lat="45.20185700569716" lon="9.018242932311583"><ele>64.0</ele><time>2026-03-28T17:08:18.999Z</time></trkpt><trkpt lat="45.20210607820923" lon="9.01818896929942"><ele>64.0</ele><time>2026-03-28T17:08:19.999Z</time></trkpt><trkpt lat="45.202355073821586" lon="9.018134978950318"><ele>65.0</ele><time>2026-03-28T17:08:20.999Z</time></trkpt><trkpt lat="45.20260388346433" lon="9.018076287578095"><ele>66.0</ele><time>2026-03-28T17:08:21.999Z</time></trkpt><trkpt lat="45.20285252732219" lon="9.018021145322693"><ele>66.0</ele><time>2026-03-28T17:08:22.999Z</time></trkpt><trkpt lat="45.20310037643562" lon="9.017968582558984"><ele>66.0</ele><time>2026-03-28T17:08:23.999Z</time></trkpt><trkpt lat="45.203349191389776" lon="9.017910588412343"><ele>66.5</ele><time>2026-03-28T17:08:24.999Z</time></trkpt><trkpt lat="45.20359927075053" lon="9.017857223527454"><ele>67.0</ele><time>2026-03-28T17:08:25.999Z</time></trkpt><trkpt lat="45.203849008671774" lon="9.017803867759294"><ele>67.5</ele><time>2026-03-28T17:08:26.999Z</time></trkpt><trkpt lat="45.20409773581482" lon="9.017750068780783"><ele>68.0</ele><time>2026-03-28T17:08:27.999Z</time></trkpt><trkpt lat="45.20434766032705" lon="9.017695786114869"><ele>68.0</ele><time>2026-03-28T17:08:28.999Z</time></trkpt><trkpt lat="45.20459670727498" lon="9.017640545204694"><ele>68.0</ele><time>2026-03-28T17:08:29.999Z</time></trkpt><trkpt lat="45.20484583066581" lon="9.017586835135862"><ele>68.5</ele><time>2026-03-28T17:08:30.999Z</time></trkpt><trkpt lat="45.205096928433036" lon="9.017530268464327"><ele>69.0</ele><time>2026-03-28T17:08:31.999Z</time></trkpt><trkpt lat="45.20534814497263" lon="9.017478054524489"><ele>68.0</ele><time>2026-03-28T17:08:32.999Z</time></trkpt><trkpt lat="45.205599343821916" lon="9.017421419757891"><ele>67.0</ele><time>2026-03-28T17:08:33.999Z</time></trkpt><trkpt lat="45.205850226385394" lon="9.01736257111695"><ele>66.5</ele><time>2026-03-28T17:08:34.999Z</time></trkpt><trkpt lat="45.20610028016623" lon="9.017306609043843"><ele>66.0</ele><time>2026-03-28T17:08:35.999Z</time></trkpt><trkpt lat="45.206351659455194" lon="9.017254900876974"><ele>66.0</ele><time>2026-03-28T17:08:36.999Z</time></trkpt><trkpt lat="45.206602306086566" lon="9.017200886459474"><ele>66.0</ele><time>2026-03-28T17:08:37.999Z</time></trkpt><trkpt lat="45.20685346243015" lon="9.01714467020482"><ele>66.0</ele><time>2026-03-28T17:08:38.999Z</time></trkpt><trkpt lat="45.207105862025195" lon="9.017089509526318"><ele>66.0</ele><time>2026-03-28T17:08:39.999Z</time></trkpt><trkpt lat="45.20735640144331" lon="9.017034560389416"><ele>66.0</ele><time>2026-03-28T17:08:40.999Z</time></trkpt><trkpt lat="45.20760777499541" lon="9.016983862688909"><ele>66.0</ele><time>2026-03-28T17:08:41.999Z</time></trkpt><trkpt lat="45.20785908144841" lon="9.0169315770067"><ele>66.0</ele><time>2026-03-28T17:08:42.999Z</time></trkpt><trkpt lat="45.20810907033402" lon="9.016876320394791"><ele>66.0</ele><time>2026-03-28T17:08:43.999Z</time></trkpt><trkpt lat="45.20836156802697" lon="9.01682355471841"><ele>66.5</ele><time>2026-03-28T17:08:44.999Z</time></trkpt><trkpt lat="45.20861208223428" lon="9.016772277841035"><ele>67.0</ele><time>2026-03-28T17:08:45.999Z</time></trkpt><trkpt lat="45.208864831824144" lon="9.016726580701024"><ele>66.5</ele><time>2026-03-28T17:08:46.999Z</time></trkpt><trkpt lat="45.209118629837526" lon="9.016689265350097"><ele>66.0</ele><time>2026-03-28T17:08:47.999Z</time></trkpt><trkpt lat="45.209372041585034" lon="9.016660900439064"><ele>65.5</ele><time>2026-03-28T17:08:48.999Z</time></trkpt><trkpt lat="45.20962702833554" lon="9.016641866419723"><ele>65.0</ele><time>2026-03-28T17:08:49.999Z</time></trkpt><trkpt lat="45.209882013373765" lon="9.01663406510907"><ele>65.0</ele><time>2026-03-28T17:08:50.999Z</time></trkpt><trkpt lat="45.21013568315341" lon="9.016632955006168"><ele>65.0</ele><time>2026-03-28T17:08:51.999Z</time></trkpt><trkpt lat="45.21038828243257" lon="9.016639735626143"><ele>65.5</ele><time>2026-03-28T17:08:52.999Z</time></trkpt><trkpt lat="45.2106431426236" lon="9.016656060753428"><ele>66.0</ele><time>2026-03-28T17:08:53.999Z</time></trkpt><trkpt lat="45.210898044944365" lon="9.016682687806897"><ele>65.0</ele><time>2026-03-28T17:08:54.999Z</time></trkpt><trkpt lat="45.21115281087905" lon="9.016717225108279"><ele>64.0</ele><time>2026-03-28T17:08:55.999Z</time></trkpt><trkpt lat="45.211405146065445" lon="9.01675735834531"><ele>63.5</ele><time>2026-03-28T17:08:56.999Z</time></trkpt><trkpt lat="45.21165864290466" lon="9.016803742939281"><ele>63.0</ele><time>2026-03-28T17:08:57.999Z</time></trkpt><trkpt lat="45.21190983805161" lon="9.016856038794435"><ele>63.0</ele><time>2026-03-28T17:08:58.999Z</time></trkpt><trkpt lat="45.21216171759295" lon="9.016917799318001"><ele>63.0</ele><time>2026-03-28T17:08:59.999Z</time></trkpt><trkpt lat="45.2124123804287" lon="9.016979017774654"><ele>63.5</ele><time>2026-03-28T17:09:00.999Z</time></trkpt><trkpt lat="45.21266398467893" lon="9.017038390656687"><ele>64.0</ele><time>2026-03-28T17:09:01.999Z</time></trkpt><trkpt lat="45.2129150375554" lon="9.017095057777405"><ele>64.0</ele><time>2026-03-28T17:09:02.999Z</time></trkpt><trkpt lat="45.213165480621434" lon="9.017149169380255"><ele>64.0</ele><time>2026-03-28T17:09:03.999Z</time></trkpt><trkpt lat="45.21341650160798" lon="9.01720283500683"><ele>64.0</ele><time>2026-03-28T17:09:04.999Z</time></trkpt><trkpt lat="45.21366653157263" lon="9.017257561895894"><ele>64.0</ele><time>2026-03-28T17:09:05.999Z</time></trkpt><trkpt lat="45.2139174126575" lon="9.017313830440322"><ele>64.0</ele><time>2026-03-28T17:09:06.999Z</time></trkpt><trkpt lat="45.21416724739429" lon="9.017368385861642"><ele>64.0</ele><time>2026-03-28T17:09:07.999Z</time></trkpt><trkpt lat="45.21441602201865" lon="9.017424885978727"><ele>64.0</ele><time>2026-03-28T17:09:08.999Z</time></trkpt><trkpt lat="45.214666526740594" lon="9.017479854821405"><ele>64.0</ele><time>2026-03-28T17:09:09.999Z</time></trkpt><trkpt lat="45.21491683227049" lon="9.017534465362733"><ele>63.5</ele><time>2026-03-28T17:09:10.999Z</time></trkpt><trkpt lat="45.215166600761926" lon="9.017588612351757"><ele>63.0</ele><time>2026-03-28T17:09:11.999Z</time></trkpt><trkpt lat="45.215415754076574" lon="9.01764242962221"><ele>63.0</ele><time>2026-03-28T17:09:12.999Z</time></trkpt><trkpt lat="45.2156671507846" lon="9.017696629765622"><ele>63.0</ele><time>2026-03-28T17:09:13.999Z</time></trkpt><trkpt lat="45.215916388229715" lon="9.017754886740217"><ele>63.0</ele><time>2026-03-28T17:09:14.999Z</time></trkpt><trkpt lat="45.21616685501465" lon="9.01781964459032"><ele>63.0</ele><time>2026-03-28T17:09:15.999Z</time></trkpt><trkpt lat="45.2164168764115" lon="9.017893120432202"><ele>64.5</ele><time>2026-03-28T17:09:16.999Z</time></trkpt><trkpt lat="45.2166620995726" lon="9.017981164808171"><ele>66.0</ele><time>2026-03-28T17:09:17.999Z</time></trkpt><trkpt lat="45.21690535361441" lon="9.018080363420227"><ele>66.0</ele><time>2026-03-28T17:09:18.999Z</time></trkpt><trkpt lat="45.217147332513285" lon="9.018180822571345"><ele>66.0</ele><time>2026-03-28T17:09:19.999Z</time></trkpt><trkpt lat="45.21739051318799" lon="9.018292536090783"><ele>65.5</ele><time>2026-03-28T17:09:20.999Z</time></trkpt><trkpt lat="45.21763052048426" lon="9.01840825060288"><ele>65.0</ele><time>2026-03-28T17:09:21.999Z</time></trkpt><trkpt lat="45.21786868623702" lon="9.018532641348713"><ele>65.0</ele><time>2026-03-28T17:09:22.999Z</time></trkpt><trkpt lat="45.21810479350063" lon="9.018663329554697"><ele>65.0</ele><time>2026-03-28T17:09:24Z</time></trkpt><trkpt lat="45.21833845635666" lon="9.018801972878999"><ele>64.5</ele><time>2026-03-28T17:09:25Z</time></trkpt><trkpt lat="45.218568630505295" lon="9.018949981882272"><ele>64.0</ele><time>2026-03-28T17:09:26Z</time></trkpt><trkpt lat="45.21879696562632" lon="9.01910651307651"><ele>64.0</ele><time>2026-03-28T17:09:27Z</time></trkpt><trkpt lat="45.219023840402045" lon="9.019267562427265"><ele>64.0</ele><time>2026-03-28T17:09:28Z</time></trkpt><trkpt lat="45.219248711857105" lon="9.019436555417885"><ele>64.0</ele><time>2026-03-28T17:09:29Z</time></trkpt><trkpt lat="45.219470167414876" lon="9.019614837432641"><ele>64.0</ele><time>2026-03-28T17:09:30Z</time></trkpt><trkpt lat="45.21968892898884" lon="9.019797171601805"><ele>64.5</ele><time>2026-03-28T17:09:31Z</time></trkpt><trkpt lat="45.21990535784457" lon="9.019983584313552"><ele>65.0</ele><time>2026-03-28T17:09:32Z</time></trkpt><trkpt lat="45.220120508249224" lon="9.020174479876376"><ele>65.0</ele><time>2026-03-28T17:09:33Z</time></trkpt><trkpt lat="45.22033753013032" lon="9.02036710617344"><ele>65.0</ele><time>2026-03-28T17:09:34Z</time></trkpt><trkpt lat="45.220554211655006" lon="9.020559737592723"><ele>64.0</ele><time>2026-03-28T17:09:35Z</time></trkpt><trkpt lat="45.22077273723321" lon="9.02074390420298"><ele>63.0</ele><time>2026-03-28T17:09:36Z</time></trkpt><trkpt lat="45.22098953578149" lon="9.020932983472207"><ele>63.0</ele><time>2026-03-28T17:09:37Z</time></trkpt><trkpt lat="45.22120463076715" lon="9.021124734784765"><ele>63.0</ele><time>2026-03-28T17:09:38Z</time></trkpt><trkpt lat="45.22142061000706" lon="9.021313738760256"><ele>63.5</ele><time>2026-03-28T17:09:39Z</time></trkpt><trkpt lat="45.221637102311654" lon="9.021502633305305"><ele>64.0</ele><time>2026-03-28T17:09:40Z</time></trkpt><trkpt lat="45.221853019359095" lon="9.021691345921926"><ele>65.0</ele><time>2026-03-28T17:09:41Z</time></trkpt><trkpt lat="45.22206916698645" lon="9.021882864288731"><ele>66.0</ele><time>2026-03-28T17:09:42Z</time></trkpt><trkpt lat="45.222285201513394" lon="9.022071195499894"><ele>63.5</ele><time>2026-03-28T17:09:43Z</time></trkpt><trkpt lat="45.22250312515647" lon="9.022261530008226"><ele>61.0</ele><time>2026-03-28T17:09:44Z</time></trkpt><trkpt lat="45.222718652242435" lon="9.022453293501885"><ele>61.5</ele><time>2026-03-28T17:09:45Z</time></trkpt><trkpt lat="45.22293523420998" lon="9.022643649050108"><ele>62.0</ele><time>2026-03-28T17:09:46Z</time></trkpt><trkpt lat="45.22314972592348" lon="9.022835427966235"><ele>63.0</ele><time>2026-03-28T17:09:47Z</time></trkpt><trkpt lat="45.223364420946744" lon="9.023024192087501"><ele>64.0</ele><time>2026-03-28T17:09:48Z</time></trkpt><trkpt lat="45.2235789977289" lon="9.023211055649634"><ele>64.0</ele><time>2026-03-28T17:09:49Z</time></trkpt><trkpt lat="45.2237940455894" lon="9.023397468719722"><ele>64.0</ele><time>2026-03-28T17:09:50Z</time></trkpt><trkpt lat="45.22400927567932" lon="9.023583726008601"><ele>63.5</ele><time>2026-03-28T17:09:51Z</time></trkpt><trkpt lat="45.22422331791583" lon="9.02377339248949"><ele>63.0</ele><time>2026-03-28T17:09:52Z</time></trkpt><trkpt lat="45.22443863029663" lon="9.023961491798755"><ele>63.5</ele><time>2026-03-28T17:09:53Z</time></trkpt><trkpt lat="45.22465267363946" lon="9.024149726243822"><ele>64.0</ele><time>2026-03-28T17:09:54Z</time></trkpt><trkpt lat="45.224868675137785" lon="9.024339307214348"><ele>62.5</ele><time>2026-03-28T17:09:55Z</time></trkpt><trkpt lat="45.225084031305336" lon="9.024526685159392"><ele>61.0</ele><time>2026-03-28T17:09:56Z</time></trkpt><trkpt lat="45.22529990349269" lon="9.024712757431075"><ele>61.0</ele><time>2026-03-28T17:09:57Z</time></trkpt><trkpt lat="45.22551461770238" lon="9.024898142324389"><ele>61.0</ele><time>2026-03-28T17:09:58Z</time></trkpt><trkpt lat="45.22572986478567" lon="9.025085098156516"><ele>61.5</ele><time>2026-03-28T17:09:59Z</time></trkpt><trkpt lat="45.225945201856476" lon="9.0252725451564"><ele>62.0</ele><time>2026-03-28T17:10:00Z</time></trkpt><trkpt lat="45.2261607623266" lon="9.025460070260086"><ele>62.0</ele><time>2026-03-28T17:10:01Z</time></trkpt><trkpt lat="45.2263744053333" lon="9.025648805089919"><ele>62.0</ele><time>2026-03-28T17:10:02Z</time></trkpt><trkpt lat="45.22658806677313" lon="9.025836476725578"><ele>63.5</ele><time>2026-03-28T17:10:03Z</time></trkpt><trkpt lat="45.22680274141477" lon="9.026024934625228"><ele>65.0</ele><time>2026-03-28T17:10:04Z</time></trkpt><trkpt lat="45.22701750714649" lon="9.026212024512592"><ele>65.0</ele><time>2026-03-28T17:10:05Z</time></trkpt><trkpt lat="45.22723310522786" lon="9.026399632505797"><ele>65.0</ele><time>2026-03-28T17:10:06Z</time></trkpt><trkpt lat="45.22744860203518" lon="9.026585562734372"><ele>65.5</ele><time>2026-03-28T17:10:07Z</time></trkpt><trkpt lat="45.22766644791488" lon="9.026771609670279"><ele>66.0</ele><time>2026-03-28T17:10:08Z</time></trkpt><trkpt lat="45.227882971222556" lon="9.026958242989002"><ele>66.0</ele><time>2026-03-28T17:10:09Z</time></trkpt><trkpt lat="45.22810035806619" lon="9.027145285237507"><ele>66.0</ele><time>2026-03-28T17:10:10Z</time></trkpt><trkpt lat="45.228318451696744" lon="9.027330638525056"><ele>67.0</ele><time>2026-03-28T17:10:11Z</time></trkpt><trkpt lat="45.22853805204485" lon="9.027517261276616"><ele>68.0</ele><time>2026-03-28T17:10:12Z</time></trkpt><trkpt lat="45.22875731140881" lon="9.027707740566449"><ele>68.0</ele><time>2026-03-28T17:10:13Z</time></trkpt><trkpt lat="45.22897514883038" lon="9.027895433414706"><ele>68.0</ele><time>2026-03-28T17:10:14Z</time></trkpt><trkpt lat="45.22919237374001" lon="9.028084053560828"><ele>67.5</ele><time>2026-03-28T17:10:14.999Z</time></trkpt><trkpt lat="45.22941027842709" lon="9.028272914185651"><ele>67.0</ele><time>2026-03-28T17:10:15.999Z</time></trkpt><trkpt lat="45.229628782756734" lon="9.028460584189066"><ele>65.5</ele><time>2026-03-28T17:10:16.999Z</time></trkpt><trkpt lat="45.229846797195314" lon="9.02864682271591"><ele>64.0</ele><time>2026-03-28T17:10:17.999Z</time></trkpt><trkpt lat="45.230063331622304" lon="9.028835815618137"><ele>64.0</ele><time>2026-03-28T17:10:18.999Z</time></trkpt><trkpt lat="45.230280056990686" lon="9.029023585504039"><ele>64.0</ele><time>2026-03-28T17:10:19.999Z</time></trkpt><trkpt lat="45.23049761758656" lon="9.029213118002335"><ele>64.0</ele><time>2026-03-28T17:10:20.999Z</time></trkpt><trkpt lat="45.23071518587008" lon="9.02940303413302"><ele>64.0</ele><time>2026-03-28T17:10:21.999Z</time></trkpt><trkpt lat="45.23093152737387" lon="9.029591731720965"><ele>64.0</ele><time>2026-03-28T17:10:22.999Z</time></trkpt><trkpt lat="45.23114564962271" lon="9.029780091946897"><ele>64.0</ele><time>2026-03-28T17:10:23.999Z</time></trkpt><trkpt lat="45.23136149941382" lon="9.029970347141575"><ele>64.0</ele><time>2026-03-28T17:10:24.999Z</time></trkpt><trkpt lat="45.23157616531096" lon="9.030161291057276"><ele>64.0</ele><time>2026-03-28T17:10:25.999Z</time></trkpt><trkpt lat="45.23179222588986" lon="9.030351002736467"><ele>64.0</ele><time>2026-03-28T17:10:26.999Z</time></trkpt><trkpt lat="45.23200782005502" lon="9.03054005291978"><ele>64.0</ele><time>2026-03-28T17:10:27.999Z</time></trkpt><trkpt lat="45.232222786935104" lon="9.030729019831622"><ele>64.5</ele><time>2026-03-28T17:10:28.999Z</time></trkpt><trkpt lat="45.23243711932774" lon="9.03091843071816"><ele>65.0</ele><time>2026-03-28T17:10:29.999Z</time></trkpt><trkpt lat="45.232653324251025" lon="9.03110614420915"><ele>65.0</ele><time>2026-03-28T17:10:30.999Z</time></trkpt><trkpt lat="45.23287024835317" lon="9.031293947325006"><ele>65.0</ele><time>2026-03-28T17:10:31.999Z</time></trkpt><trkpt lat="45.23308584600094" lon="9.031480931953512"><ele>65.0</ele><time>2026-03-28T17:10:32.999Z</time></trkpt><trkpt lat="45.2333024800357" lon="9.031668679838328"><ele>65.0</ele><time>2026-03-28T17:10:33.999Z</time></trkpt><trkpt lat="45.23351774134566" lon="9.03185715611308"><ele>65.0</ele><time>2026-03-28T17:10:34.999Z</time></trkpt><trkpt lat="45.23373343903045" lon="9.03204519259537"><ele>65.0</ele><time>2026-03-28T17:10:35.999Z</time></trkpt><trkpt lat="45.233948466878175" lon="9.032233576380738"><ele>66.0</ele><time>2026-03-28T17:10:36.999Z</time></trkpt><trkpt lat="45.23416380145949" lon="9.032420211771315"><ele>67.0</ele><time>2026-03-28T17:10:37.999Z</time></trkpt><trkpt lat="45.23437874090549" lon="9.032608288639642"><ele>67.0</ele><time>2026-03-28T17:10:38.999Z</time></trkpt><trkpt lat="45.23459301807577" lon="9.032796751773121"><ele>67.0</ele><time>2026-03-28T17:10:39.999Z</time></trkpt><trkpt lat="45.23480704124612" lon="9.032986366669748"><ele>67.5</ele><time>2026-03-28T17:10:40.999Z</time></trkpt><trkpt lat="45.235020344502004" lon="9.03317658833876"><ele>68.0</ele><time>2026-03-28T17:10:41.999Z</time></trkpt><trkpt lat="45.235235761154364" lon="9.033367563853174"><ele>67.0</ele><time>2026-03-28T17:10:42.999Z</time></trkpt><trkpt lat="45.235449801899435" lon="9.033556521413335"><ele>66.0</ele><time>2026-03-28T17:10:43.999Z</time></trkpt><trkpt lat="45.23566432888637" lon="9.033747545386788"><ele>65.5</ele><time>2026-03-28T17:10:44.999Z</time></trkpt><trkpt lat="45.235880486307394" lon="9.033935030400627"><ele>65.0</ele><time>2026-03-28T17:10:45.999Z</time></trkpt><trkpt lat="45.23609424193188" lon="9.03412346079817"><ele>66.0</ele><time>2026-03-28T17:10:46.999Z</time></trkpt><trkpt lat="45.236310301592255" lon="9.034306776786137"><ele>67.0</ele><time>2026-03-28T17:10:47.999Z</time></trkpt><trkpt lat="45.23652476745181" lon="9.034493196351763"><ele>68.0</ele><time>2026-03-28T17:10:48.999Z</time></trkpt><trkpt lat="45.23673811301008" lon="9.034682102212233"><ele>69.0</ele><time>2026-03-28T17:10:49.999Z</time></trkpt><trkpt lat="45.23695594935846" lon="9.034865552635605"><ele>69.0</ele><time>2026-03-28T17:10:50.999Z</time></trkpt><trkpt lat="45.237172296730705" lon="9.03505355370109"><ele>69.0</ele><time>2026-03-28T17:10:51.999Z</time></trkpt><trkpt lat="45.237387830741035" lon="9.035242090662342"><ele>69.0</ele><time>2026-03-28T17:10:52.999Z</time></trkpt><trkpt lat="45.237602802070036" lon="9.03543101697733"><ele>69.0</ele><time>2026-03-28T17:10:53.999Z</time></trkpt><trkpt lat="45.23781705825797" lon="9.035618257598946"><ele>68.5</ele><time>2026-03-28T17:10:54.999Z</time></trkpt><trkpt lat="45.23803281516122" lon="9.03580441059328"><ele>68.0</ele><time>2026-03-28T17:10:55.999Z</time></trkpt><trkpt lat="45.2382468087268" lon="9.035992138253906"><ele>70.0</ele><time>2026-03-28T17:10:56.999Z</time></trkpt><trkpt lat="45.23846052789827" lon="9.036180099617678"><ele>72.0</ele><time>2026-03-28T17:10:57.999Z</time></trkpt><trkpt lat="45.23867550300234" lon="9.036367103315929"><ele>72.0</ele><time>2026-03-28T17:10:58.999Z</time></trkpt><trkpt lat="45.238890591899306" lon="9.036555107414388"><ele>72.0</ele><time>2026-03-28T17:10:59.999Z</time></trkpt><trkpt lat="45.23910547485917" lon="9.03674311868818"><ele>75.5</ele><time>2026-03-28T17:11:00.999Z</time></trkpt><trkpt lat="45.239320748014926" lon="9.036930984597902"><ele>79.0</ele><time>2026-03-28T17:11:01.999Z</time></trkpt><trkpt lat="45.23953598327645" lon="9.037119517465175"><ele>79.0</ele><time>2026-03-28T17:11:02.999Z</time></trkpt><trkpt lat="45.23975008511211" lon="9.037309841406776"><ele>79.0</ele><time>2026-03-28T17:11:03.999Z</time></trkpt><trkpt lat="45.239965874423035" lon="9.037497452429264"><ele>80.0</ele><time>2026-03-28T17:11:04.999Z</time></trkpt><trkpt lat="45.240181526885756" lon="9.03768447107566"><ele>81.0</ele><time>2026-03-28T17:11:05.999Z</time></trkpt><trkpt lat="45.2403965233033" lon="9.037870691033511"><ele>81.0</ele><time>2026-03-28T17:11:06.999Z</time></trkpt><trkpt lat="45.24061258877157" lon="9.038054808450303"><ele>81.0</ele><time>2026-03-28T17:11:07.999Z</time></trkpt><trkpt lat="45.2408276458996" lon="9.03824207424643"><ele>82.5</ele><time>2026-03-28T17:11:08.999Z</time></trkpt><trkpt lat="45.241041581928926" lon="9.038428588626328"><ele>84.0</ele><time>2026-03-28T17:11:09.999Z</time></trkpt><trkpt lat="45.241256407767516" lon="9.038614859400859"><ele>84.5</ele><time>2026-03-28T17:11:10.999Z</time></trkpt><trkpt lat="45.24147327555466" lon="9.038799543750415"><ele>85.0</ele><time>2026-03-28T17:11:11.999Z</time></trkpt><trkpt lat="45.241686613986865" lon="9.038984269602455"><ele>85.5</ele><time>2026-03-28T17:11:12.999Z</time></trkpt><trkpt lat="45.24189929432087" lon="9.039171275575235"><ele>86.0</ele><time>2026-03-28T17:11:13.999Z</time></trkpt><trkpt lat="45.24211545122827" lon="9.039357274781397"><ele>85.0</ele><time>2026-03-28T17:11:14.999Z</time></trkpt><trkpt lat="45.242331825803085" lon="9.039544218905391"><ele>84.0</ele><time>2026-03-28T17:11:15.999Z</time></trkpt><trkpt lat="45.24254751690584" lon="9.039734496742891"><ele>84.0</ele><time>2026-03-28T17:11:16.999Z</time></trkpt><trkpt lat="45.24276222541816" lon="9.039922600406134"><ele>84.0</ele><time>2026-03-28T17:11:17.999Z</time></trkpt><trkpt lat="45.24297901092196" lon="9.04010802166835"><ele>85.5</ele><time>2026-03-28T17:11:18.999Z</time></trkpt><trkpt lat="45.2431910381741" lon="9.040300008076214"><ele>87.0</ele><time>2026-03-28T17:11:19.999Z</time></trkpt><trkpt lat="45.243405590705436" lon="9.040488901189725"><ele>87.0</ele><time>2026-03-28T17:11:20.999Z</time></trkpt><trkpt lat="45.24362161736048" lon="9.0406762615093"><ele>87.0</ele><time>2026-03-28T17:11:21.999Z</time></trkpt><trkpt lat="45.24383980869451" lon="9.040858893193763"><ele>88.0</ele><time>2026-03-28T17:11:22.999Z</time></trkpt><trkpt lat="45.24405865987852" lon="9.041034518129477"><ele>89.0</ele><time>2026-03-28T17:11:23.999Z</time></trkpt><trkpt lat="45.244281245796145" lon="9.04120268212387"><ele>89.0</ele><time>2026-03-28T17:11:24.999Z</time></trkpt><trkpt lat="45.244506966620484" lon="9.041365639449603"><ele>89.0</ele><time>2026-03-28T17:11:25.999Z</time></trkpt><trkpt lat="45.24473473877199" lon="9.04151987953007"><ele>90.0</ele><time>2026-03-28T17:11:26.999Z</time></trkpt><trkpt lat="45.24496537624012" lon="9.041670836123492"><ele>91.0</ele><time>2026-03-28T17:11:27.999Z</time></trkpt><trkpt lat="45.24519765059217" lon="9.041821661284335"><ele>91.0</ele><time>2026-03-28T17:11:28.999Z</time></trkpt><trkpt lat="45.24543118533535" lon="9.041969072498526"><ele>91.0</ele><time>2026-03-28T17:11:30Z</time></trkpt><trkpt lat="45.245663270690464" lon="9.042116084206693"><ele>91.0</ele><time>2026-03-28T17:11:31Z</time></trkpt><trkpt lat="45.2458948551432" lon="9.042263913146973"><ele>91.0</ele><time>2026-03-28T17:11:32Z</time></trkpt><trkpt lat="45.2461308781346" lon="9.042409167900097"><ele>90.5</ele><time>2026-03-28T17:11:33Z</time></trkpt><trkpt lat="45.24636174989343" lon="9.04256072094938"><ele>90.0</ele><time>2026-03-28T17:11:34Z</time></trkpt><trkpt lat="45.24659478646344" lon="9.042709345976963"><ele>89.5</ele><time>2026-03-28T17:11:35Z</time></trkpt><trkpt lat="45.24682701220497" lon="9.042858993636496"><ele>89.0</ele><time>2026-03-28T17:11:36Z</time></trkpt><trkpt lat="45.247058642483715" lon="9.0430095683875"><ele>89.0</ele><time>2026-03-28T17:11:37Z</time></trkpt><trkpt lat="45.2472905901144" lon="9.043157732765799"><ele>89.0</ele><time>2026-03-28T17:11:38Z</time></trkpt><trkpt lat="45.247521726636315" lon="9.043306470656603"><ele>89.0</ele><time>2026-03-28T17:11:39Z</time></trkpt><trkpt lat="45.24775264853865" lon="9.04345661665308"><ele>89.0</ele><time>2026-03-28T17:11:40Z</time></trkpt><trkpt lat="45.24798465314621" lon="9.043604508212082"><ele>90.5</ele><time>2026-03-28T17:11:41Z</time></trkpt><trkpt lat="45.248216417103045" lon="9.043751162800076"><ele>92.0</ele><time>2026-03-28T17:11:42Z</time></trkpt><trkpt lat="45.248447892501304" lon="9.043902305922673"><ele>92.0</ele><time>2026-03-28T17:11:43Z</time></trkpt><trkpt lat="45.24867942602657" lon="9.04405302842972"><ele>92.0</ele><time>2026-03-28T17:11:44Z</time></trkpt><trkpt lat="45.24890980674027" lon="9.044200734336874"><ele>92.5</ele><time>2026-03-28T17:11:45Z</time></trkpt><trkpt lat="45.249140695873585" lon="9.044350021433514"><ele>93.0</ele><time>2026-03-28T17:11:46Z</time></trkpt><trkpt lat="45.249372467938414" lon="9.044497292164891"><ele>93.0</ele><time>2026-03-28T17:11:47Z</time></trkpt><trkpt lat="45.24960751204381" lon="9.044646706341394"><ele>93.0</ele><time>2026-03-28T17:11:48Z</time></trkpt><trkpt lat="45.24983793321406" lon="9.044790763894111"><ele>92.0</ele><time>2026-03-28T17:11:49Z</time></trkpt><trkpt lat="45.25006710655478" lon="9.044944308495005"><ele>91.0</ele><time>2026-03-28T17:11:50Z</time></trkpt><trkpt lat="45.25029841990385" lon="9.045092493002603"><ele>90.5</ele><time>2026-03-28T17:11:51Z</time></trkpt><trkpt lat="45.25052969050113" lon="9.045240066649182"><ele>90.0</ele><time>2026-03-28T17:11:52Z</time></trkpt><trkpt lat="45.250759427364876" lon="9.045388321003632"><ele>91.0</ele><time>2026-03-28T17:11:53Z</time></trkpt><trkpt lat="45.250988183339146" lon="9.045533497018218"><ele>92.0</ele><time>2026-03-28T17:11:54Z</time></trkpt><trkpt lat="45.251219617607624" lon="9.045683046573142"><ele>92.0</ele><time>2026-03-28T17:11:55Z</time></trkpt><trkpt lat="45.25145003571323" lon="9.045832756782941"><ele>92.0</ele><time>2026-03-28T17:11:56Z</time></trkpt><trkpt lat="45.251681890161315" lon="9.045985007460887"><ele>92.0</ele><time>2026-03-28T17:11:57Z</time></trkpt><trkpt lat="45.251913836224844" lon="9.04613034747406"><ele>92.0</ele><time>2026-03-28T17:11:58Z</time></trkpt><trkpt lat="45.252144855662415" lon="9.046280208796318"><ele>92.0</ele><time>2026-03-28T17:11:59Z</time></trkpt><trkpt lat="45.25237659114366" lon="9.046430672461092"><ele>92.0</ele><time>2026-03-28T17:12:00Z</time></trkpt><trkpt lat="45.25260890910639" lon="9.046578150948017"><ele>93.0</ele><time>2026-03-28T17:12:01Z</time></trkpt><trkpt lat="45.25284190121534" lon="9.046725826279573"><ele>94.0</ele><time>2026-03-28T17:12:02Z</time></trkpt><trkpt lat="45.25307444179601" lon="9.046872872483132"><ele>93.0</ele><time>2026-03-28T17:12:03Z</time></trkpt><trkpt lat="45.25330622518751" lon="9.04702002369716"><ele>92.0</ele><time>2026-03-28T17:12:04Z</time></trkpt><trkpt lat="45.253538343284355" lon="9.04716817038548"><ele>92.0</ele><time>2026-03-28T17:12:05Z</time></trkpt><trkpt lat="45.253770645867945" lon="9.047317031994702"><ele>92.0</ele><time>2026-03-28T17:12:06Z</time></trkpt><trkpt lat="45.25400207859914" lon="9.04746705951246"><ele>92.0</ele><time>2026-03-28T17:12:07Z</time></trkpt><trkpt lat="45.25423488848" lon="9.047616967998708"><ele>92.0</ele><time>2026-03-28T17:12:08Z</time></trkpt><trkpt lat="45.254465972447626" lon="9.047767517998878"><ele>92.0</ele><time>2026-03-28T17:12:09Z</time></trkpt><trkpt lat="45.25469733678141" lon="9.047917535880263"><ele>92.0</ele><time>2026-03-28T17:12:10Z</time></trkpt><trkpt lat="45.25492977221463" lon="9.048066428474554"><ele>92.5</ele><time>2026-03-28T17:12:11Z</time></trkpt><trkpt lat="45.25516060126957" lon="9.048216467632736"><ele>93.0</ele><time>2026-03-28T17:12:12Z</time></trkpt><trkpt lat="45.25539189504572" lon="9.048366448100365"><ele>92.0</ele><time>2026-03-28T17:12:13Z</time></trkpt><trkpt lat="45.25562188604807" lon="9.048516241018943"><ele>91.0</ele><time>2026-03-28T17:12:14Z</time></trkpt><trkpt lat="45.255852500428226" lon="9.04866607209214"><ele>91.0</ele><time>2026-03-28T17:12:15Z</time></trkpt><trkpt lat="45.256085031511695" lon="9.04881235661246"><ele>91.0</ele><time>2026-03-28T17:12:16Z</time></trkpt><trkpt lat="45.25631665846416" lon="9.048961381551113"><ele>91.5</ele><time>2026-03-28T17:12:17Z</time></trkpt><trkpt lat="45.256548527771905" lon="9.049109936928907"><ele>92.0</ele><time>2026-03-28T17:12:18Z</time></trkpt><trkpt lat="45.25677870926928" lon="9.049258984546425"><ele>92.0</ele><time>2026-03-28T17:12:19Z</time></trkpt><trkpt lat="45.257011434587774" lon="9.049406228786966"><ele>92.0</ele><time>2026-03-28T17:12:20Z</time></trkpt><trkpt lat="45.25724129071553" lon="9.049555094506411"><ele>91.5</ele><time>2026-03-28T17:12:20.999Z</time></trkpt><trkpt lat="45.25747276170485" lon="9.049703912945493"><ele>91.0</ele><time>2026-03-28T17:12:21.999Z</time></trkpt><trkpt lat="45.25770218813222" lon="9.049853821402726"><ele>91.0</ele><time>2026-03-28T17:12:22.999Z</time></trkpt><trkpt lat="45.25793217217684" lon="9.050001083332731"><ele>91.0</ele><time>2026-03-28T17:12:23.999Z</time></trkpt><trkpt lat="45.25816290125998" lon="9.050148464933974"><ele>91.0</ele><time>2026-03-28T17:12:24.999Z</time></trkpt><trkpt lat="45.25839348490366" lon="9.050296580064574"><ele>91.0</ele><time>2026-03-28T17:12:25.999Z</time></trkpt><trkpt lat="45.258624361063525" lon="9.050444010267713"><ele>91.0</ele><time>2026-03-28T17:12:26.999Z</time></trkpt><trkpt lat="45.25885644903077" lon="9.050592760600624"><ele>91.0</ele><time>2026-03-28T17:12:27.999Z</time></trkpt><trkpt lat="45.25908684206409" lon="9.050740636462336"><ele>92.0</ele><time>2026-03-28T17:12:28.999Z</time></trkpt><trkpt lat="45.25932176607588" lon="9.050892716002137"><ele>93.0</ele><time>2026-03-28T17:12:29.999Z</time></trkpt><trkpt lat="45.25955286939185" lon="9.05104046512411"><ele>93.0</ele><time>2026-03-28T17:12:30.999Z</time></trkpt><trkpt lat="45.259782844466464" lon="9.051187911067233"><ele>93.0</ele><time>2026-03-28T17:12:31.999Z</time></trkpt><trkpt lat="45.260012819011656" lon="9.051336497409723"><ele>92.5</ele><time>2026-03-28T17:12:32.999Z</time></trkpt><trkpt lat="45.26024289054444" lon="9.051486485783219"><ele>92.0</ele><time>2026-03-28T17:12:33.999Z</time></trkpt><trkpt lat="45.26047334358977" lon="9.051637071513076"><ele>92.0</ele><time>2026-03-28T17:12:34.999Z</time></trkpt><trkpt lat="45.26070418769671" lon="9.051784193429677"><ele>92.0</ele><time>2026-03-28T17:12:35.999Z</time></trkpt><trkpt lat="45.26093535675929" lon="9.051930495774613"><ele>92.0</ele><time>2026-03-28T17:12:36.999Z</time></trkpt><trkpt lat="45.261167041276416" lon="9.052074904000689"><ele>92.0</ele><time>2026-03-28T17:12:37.999Z</time></trkpt><trkpt lat="45.261399876863514" lon="9.052218896147977"><ele>92.0</ele><time>2026-03-28T17:12:38.999Z</time></trkpt><trkpt lat="45.261631845987175" lon="9.052369519233938"><ele>92.0</ele><time>2026-03-28T17:12:39.999Z</time></trkpt><trkpt lat="45.261864546641135" lon="9.052517313430087"><ele>91.5</ele><time>2026-03-28T17:12:40.999Z</time></trkpt><trkpt lat="45.26209768818147" lon="9.05266689429399"><ele>91.0</ele><time>2026-03-28T17:12:41.999Z</time></trkpt><trkpt lat="45.26232969059299" lon="9.052818106919723"><ele>90.5</ele><time>2026-03-28T17:12:42.999Z</time></trkpt><trkpt lat="45.26256091163179" lon="9.052966262228846"><ele>90.0</ele><time>2026-03-28T17:12:43.999Z</time></trkpt><trkpt lat="45.262793071473" lon="9.053109956453401"><ele>90.0</ele><time>2026-03-28T17:12:44.999Z</time></trkpt><trkpt lat="45.26302735896772" lon="9.053246764832767"><ele>90.0</ele><time>2026-03-28T17:12:45.999Z</time></trkpt><trkpt lat="45.26326386567312" lon="9.053376132365406"><ele>90.5</ele><time>2026-03-28T17:12:46.999Z</time></trkpt><trkpt lat="45.263503370061606" lon="9.053499063859649"><ele>91.0</ele><time>2026-03-28T17:12:47.999Z</time></trkpt><trkpt lat="45.26374437827143" lon="9.053615778981374"><ele>91.5</ele><time>2026-03-28T17:12:48.999Z</time></trkpt><trkpt lat="45.26398542274801" lon="9.053716949336668"><ele>92.0</ele><time>2026-03-28T17:12:49.999Z</time></trkpt><trkpt lat="45.26422884490532" lon="9.053818522877416"><ele>92.0</ele><time>2026-03-28T17:12:50.999Z</time></trkpt><trkpt lat="45.264473140936495" lon="9.053912503877797"><ele>92.0</ele><time>2026-03-28T17:12:51.999Z</time></trkpt><trkpt lat="45.26471941602195" lon="9.054001270592476"><ele>92.0</ele><time>2026-03-28T17:12:52.999Z</time></trkpt><trkpt lat="45.26496565424969" lon="9.054089230467488"><ele>92.0</ele><time>2026-03-28T17:12:53.999Z</time></trkpt><trkpt lat="45.265209831232994" lon="9.054178598472111"><ele>92.0</ele><time>2026-03-28T17:12:54.999Z</time></trkpt><trkpt lat="45.265457008399935" lon="9.054270424750655"><ele>92.0</ele><time>2026-03-28T17:12:55.999Z</time></trkpt><trkpt lat="45.2657028418471" lon="9.054360259396807"><ele>91.5</ele><time>2026-03-28T17:12:56.999Z</time></trkpt><trkpt lat="45.265947719117335" lon="9.054450737333799"><ele>91.0</ele><time>2026-03-28T17:12:57.999Z</time></trkpt><trkpt lat="45.266191788265964" lon="9.054542551230396"><ele>91.0</ele><time>2026-03-28T17:12:58.999Z</time></trkpt><trkpt lat="45.266437273708746" lon="9.05463334887591"><ele>91.0</ele><time>2026-03-28T17:12:59.999Z</time></trkpt><trkpt lat="45.266683308466334" lon="9.054724902891357"><ele>91.0</ele><time>2026-03-28T17:13:00.999Z</time></trkpt><trkpt lat="45.26693012770255" lon="9.054815773369286"><ele>91.0</ele><time>2026-03-28T17:13:01.999Z</time></trkpt><trkpt lat="45.267175779567445" lon="9.05490679288171"><ele>91.0</ele><time>2026-03-28T17:13:02.999Z</time></trkpt><trkpt lat="45.267422319455555" lon="9.0549971227366"><ele>91.0</ele><time>2026-03-28T17:13:03.999Z</time></trkpt><trkpt lat="45.26766816158032" lon="9.055088258846059"><ele>91.0</ele><time>2026-03-28T17:13:04.999Z</time></trkpt><trkpt lat="45.267913310602076" lon="9.055179438716582"><ele>91.0</ele><time>2026-03-28T17:13:05.999Z</time></trkpt><trkpt lat="45.26815996392266" lon="9.055270239848186"><ele>91.0</ele><time>2026-03-28T17:13:06.999Z</time></trkpt><trkpt lat="45.26840594525778" lon="9.055358926870248"><ele>91.0</ele><time>2026-03-28T17:13:07.999Z</time></trkpt><trkpt lat="45.26865254927166" lon="9.055449870085967"><ele>91.0</ele><time>2026-03-28T17:13:08.999Z</time></trkpt><trkpt lat="45.26889828102403" lon="9.05553782269307"><ele>91.0</ele><time>2026-03-28T17:13:09.999Z</time></trkpt><trkpt lat="45.269144540305604" lon="9.055627805201095"><ele>91.0</ele><time>2026-03-28T17:13:10.999Z</time></trkpt><trkpt lat="45.26938930669383" lon="9.05572019555738"><ele>91.0</ele><time>2026-03-28T17:13:11.999Z</time></trkpt><trkpt lat="45.26963516119127" lon="9.055813440931663"><ele>92.0</ele><time>2026-03-28T17:13:12.999Z</time></trkpt><trkpt lat="45.26988158781779" lon="9.055903183119353"><ele>93.0</ele><time>2026-03-28T17:13:13.999Z</time></trkpt><trkpt lat="45.27012739730683" lon="9.055993480317646"><ele>93.0</ele><time>2026-03-28T17:13:14.999Z</time></trkpt><trkpt lat="45.27037367255788" lon="9.056084644406223"><ele>93.0</ele><time>2026-03-28T17:13:15.999Z</time></trkpt><trkpt lat="45.270619337415305" lon="9.056175696095709"><ele>93.0</ele><time>2026-03-28T17:13:16.999Z</time></trkpt><trkpt lat="45.270865886786304" lon="9.056268411508375"><ele>93.0</ele><time>2026-03-28T17:13:17.999Z</time></trkpt><trkpt lat="45.27111229535699" lon="9.056360028120327"><ele>93.0</ele><time>2026-03-28T17:13:18.999Z</time></trkpt><trkpt lat="45.27135771071368" lon="9.056450421669858"><ele>93.0</ele><time>2026-03-28T17:13:19.999Z</time></trkpt><trkpt lat="45.2716040344304" lon="9.056543103075061"><ele>93.0</ele><time>2026-03-28T17:13:20.999Z</time></trkpt><trkpt lat="45.27184985971218" lon="9.056633891339423"><ele>93.0</ele><time>2026-03-28T17:13:21.999Z</time></trkpt><trkpt lat="45.2720964844546" lon="9.056724071798747"><ele>93.5</ele><time>2026-03-28T17:13:22.999Z</time></trkpt><trkpt lat="45.27234319457591" lon="9.056814437913"><ele>94.0</ele><time>2026-03-28T17:13:23.999Z</time></trkpt><trkpt lat="45.27258873939825" lon="9.056902463084564"><ele>94.0</ele><time>2026-03-28T17:13:24.999Z</time></trkpt><trkpt lat="45.27283455928307" lon="9.056991616296164"><ele>94.0</ele><time>2026-03-28T17:13:25.999Z</time></trkpt><trkpt lat="45.273079887817566" lon="9.057082839003069"><ele>93.5</ele><time>2026-03-28T17:13:26.999Z</time></trkpt><trkpt lat="45.27332538924317" lon="9.057171326742635"><ele>93.0</ele><time>2026-03-28T17:13:27.999Z</time></trkpt><trkpt lat="45.273570649936104" lon="9.057261979711162"><ele>93.0</ele><time>2026-03-28T17:13:28.999Z</time></trkpt><trkpt lat="45.273814851446225" lon="9.057354022120819"><ele>93.0</ele><time>2026-03-28T17:13:29.999Z</time></trkpt><trkpt lat="45.27405918782051" lon="9.057444653056564"><ele>93.0</ele><time>2026-03-28T17:13:30.999Z</time></trkpt><trkpt lat="45.27430298347598" lon="9.057535211917033"><ele>93.0</ele><time>2026-03-28T17:13:31.999Z</time></trkpt><trkpt lat="45.274547638587926" lon="9.057625634146033"><ele>92.5</ele><time>2026-03-28T17:13:32.999Z</time></trkpt><trkpt lat="45.274791601910415" lon="9.057717090101747"><ele>92.0</ele><time>2026-03-28T17:13:33.999Z</time></trkpt><trkpt lat="45.275037238086185" lon="9.057807874547015"><ele>92.0</ele><time>2026-03-28T17:13:34.999Z</time></trkpt><trkpt lat="45.27528214797045" lon="9.057899744297345"><ele>92.0</ele><time>2026-03-28T17:13:36Z</time></trkpt><trkpt lat="45.27552711455801" lon="9.057989536521903"><ele>92.5</ele><time>2026-03-28T17:13:37Z</time></trkpt><trkpt lat="45.27577349387323" lon="9.058077560727398"><ele>93.0</ele><time>2026-03-28T17:13:38Z</time></trkpt><trkpt lat="45.27601695759355" lon="9.05816828075545"><ele>93.0</ele><time>2026-03-28T17:13:39Z</time></trkpt><trkpt lat="45.276261163789044" lon="9.058256734884498"><ele>93.0</ele><time>2026-03-28T17:13:40Z</time></trkpt><trkpt lat="45.27650563087992" lon="9.058346412953915"><ele>93.0</ele><time>2026-03-28T17:13:41Z</time></trkpt><trkpt lat="45.276750356103776" lon="9.05843455662535"><ele>93.0</ele><time>2026-03-28T17:13:42Z</time></trkpt><trkpt lat="45.276995604838675" lon="9.058523799497113"><ele>93.0</ele><time>2026-03-28T17:13:43Z</time></trkpt><trkpt lat="45.27724012067749" lon="9.058613150759117"><ele>93.0</ele><time>2026-03-28T17:13:44Z</time></trkpt><trkpt lat="45.27748461539559" lon="9.058704379661245"><ele>93.0</ele><time>2026-03-28T17:13:45Z</time></trkpt><trkpt lat="45.277730435531254" lon="9.058795974640175"><ele>93.0</ele><time>2026-03-28T17:13:46Z</time></trkpt><trkpt lat="45.277975727790775" lon="9.058887876109772"><ele>92.5</ele><time>2026-03-28T17:13:47Z</time></trkpt><trkpt lat="45.27822034955157" lon="9.058977914554971"><ele>92.0</ele><time>2026-03-28T17:13:48Z</time></trkpt><trkpt lat="45.27846578493688" lon="9.059067163644958"><ele>92.0</ele><time>2026-03-28T17:13:49Z</time></trkpt><trkpt lat="45.278710904655696" lon="9.059157088847087"><ele>92.0</ele><time>2026-03-28T17:13:50Z</time></trkpt><trkpt lat="45.27895552081286" lon="9.059247862962087"><ele>93.0</ele><time>2026-03-28T17:13:51Z</time></trkpt><trkpt lat="45.279199450252875" lon="9.059338500594656"><ele>94.0</ele><time>2026-03-28T17:13:52Z</time></trkpt><trkpt lat="45.279444531147334" lon="9.05942994566702"><ele>94.0</ele><time>2026-03-28T17:13:53Z</time></trkpt><trkpt lat="45.2796909867063" lon="9.05951964453053"><ele>94.0</ele><time>2026-03-28T17:13:54Z</time></trkpt><trkpt lat="45.27993502608764" lon="9.059607844195188"><ele>94.0</ele><time>2026-03-28T17:13:55Z</time></trkpt><trkpt lat="45.28018147139395" lon="9.059694983417932"><ele>94.0</ele><time>2026-03-28T17:13:56Z</time></trkpt><trkpt lat="45.28042732278283" lon="9.059783876163074"><ele>94.0</ele><time>2026-03-28T17:13:57Z</time></trkpt><trkpt lat="45.280673296315975" lon="9.05987360500042"><ele>94.0</ele><time>2026-03-28T17:13:58Z</time></trkpt><trkpt lat="45.28091814202322" lon="9.05996438461798"><ele>94.0</ele><time>2026-03-28T17:13:59Z</time></trkpt><trkpt lat="45.28116293716086" lon="9.060054349963375"><ele>94.0</ele><time>2026-03-28T17:14:00Z</time></trkpt><trkpt lat="45.28140746069912" lon="9.060146803530305"><ele>94.5</ele><time>2026-03-28T17:14:01Z</time></trkpt><trkpt lat="45.28165310392136" lon="9.06023562656589"><ele>95.0</ele><time>2026-03-28T17:14:02Z</time></trkpt><trkpt lat="45.28189881994819" lon="9.060326169113852"><ele>95.0</ele><time>2026-03-28T17:14:03Z</time></trkpt><trkpt lat="45.282145108929086" lon="9.060413800694889"><ele>95.0</ele><time>2026-03-28T17:14:04Z</time></trkpt><trkpt lat="45.282392056665806" lon="9.060503223793434"><ele>95.0</ele><time>2026-03-28T17:14:05Z</time></trkpt><trkpt lat="45.28263842130364" lon="9.060591179196589"><ele>95.0</ele><time>2026-03-28T17:14:06Z</time></trkpt><trkpt lat="45.28287991969332" lon="9.060675526848883"><ele>94.5</ele><time>2026-03-28T17:14:07Z</time></trkpt><trkpt lat="45.28312564695519" lon="9.060766616804221"><ele>94.0</ele><time>2026-03-28T17:14:08Z</time></trkpt><trkpt lat="45.283369486036676" lon="9.060857970250293"><ele>94.0</ele><time>2026-03-28T17:14:09Z</time></trkpt><trkpt lat="45.283612993594794" lon="9.060952944175137"><ele>94.0</ele><time>2026-03-28T17:14:10Z</time></trkpt><trkpt lat="45.28385775373632" lon="9.061046177334614"><ele>93.5</ele><time>2026-03-28T17:14:11Z</time></trkpt><trkpt lat="45.284102398674406" lon="9.061138712102467"><ele>93.0</ele><time>2026-03-28T17:14:12Z</time></trkpt><trkpt lat="45.284348293912956" lon="9.061231199350566"><ele>93.0</ele><time>2026-03-28T17:14:13Z</time></trkpt><trkpt lat="45.28459517233999" lon="9.061318120691267"><ele>93.0</ele><time>2026-03-28T17:14:14Z</time></trkpt><trkpt lat="45.28484056713177" lon="9.06140528691573"><ele>93.0</ele><time>2026-03-28T17:14:15Z</time></trkpt><trkpt lat="45.28508562869543" lon="9.061494077829808"><ele>93.0</ele><time>2026-03-28T17:14:16Z</time></trkpt><trkpt lat="45.28533106056454" lon="9.061585205253403"><ele>93.0</ele><time>2026-03-28T17:14:17Z</time></trkpt><trkpt lat="45.28557590584882" lon="9.06167428174791"><ele>93.0</ele><time>2026-03-28T17:14:18Z</time></trkpt><trkpt lat="45.2858210356716" lon="9.06176503992756"><ele>93.5</ele><time>2026-03-28T17:14:19Z</time></trkpt><trkpt lat="45.28606665544986" lon="9.061854440760868"><ele>94.0</ele><time>2026-03-28T17:14:20Z</time></trkpt><trkpt lat="45.286312705239894" lon="9.06194123103195"><ele>94.0</ele><time>2026-03-28T17:14:21Z</time></trkpt><trkpt lat="45.286559363436176" lon="9.06203210830513"><ele>94.0</ele><time>2026-03-28T17:14:22Z</time></trkpt><trkpt lat="45.28680397765372" lon="9.062124426318496"><ele>94.0</ele><time>2026-03-28T17:14:23Z</time></trkpt><trkpt lat="45.28704872627152" lon="9.062215515037355"><ele>94.0</ele><time>2026-03-28T17:14:24Z</time></trkpt><trkpt lat="45.28729345955815" lon="9.062305475235995"><ele>94.5</ele><time>2026-03-28T17:14:25Z</time></trkpt><trkpt lat="45.28753869366204" lon="9.062395479524215"><ele>95.0</ele><time>2026-03-28T17:14:25.999Z</time></trkpt><trkpt lat="45.28778178625831" lon="9.062486851997384"><ele>95.0</ele><time>2026-03-28T17:14:26.999Z</time></trkpt><trkpt lat="45.28802674895293" lon="9.06257785283991"><ele>95.0</ele><time>2026-03-28T17:14:27.999Z</time></trkpt><trkpt lat="45.28827296961085" lon="9.062666020926107"><ele>95.0</ele><time>2026-03-28T17:14:28.999Z</time></trkpt><trkpt lat="45.28851804437309" lon="9.062756378091185"><ele>95.0</ele><time>2026-03-28T17:14:29.999Z</time></trkpt><trkpt lat="45.288765110500606" lon="9.062850079451035"><ele>94.5</ele><time>2026-03-28T17:14:30.999Z</time></trkpt><trkpt lat="45.28901163039694" lon="9.062941449753728"><ele>94.0</ele><time>2026-03-28T17:14:31.999Z</time></trkpt><trkpt lat="45.289257113911646" lon="9.063031580880294"><ele>94.0</ele><time>2026-03-28T17:14:32.999Z</time></trkpt><trkpt lat="45.28950389269501" lon="9.063123447219901"><ele>94.0</ele><time>2026-03-28T17:14:33.999Z</time></trkpt><trkpt lat="45.2897547562089" lon="9.063211363252153"><ele>94.0</ele><time>2026-03-28T17:14:34.999Z</time></trkpt><trkpt lat="45.28999704393073" lon="9.063301158388102"><ele>94.0</ele><time>2026-03-28T17:14:35.999Z</time></trkpt><trkpt lat="45.29024269271852" lon="9.063391744492266"><ele>94.0</ele><time>2026-03-28T17:14:36.999Z</time></trkpt><trkpt lat="45.290487007353406" lon="9.063480582318764"><ele>94.0</ele><time>2026-03-28T17:14:37.999Z</time></trkpt><trkpt lat="45.29073384968001" lon="9.06357108078683"><ele>95.0</ele><time>2026-03-28T17:14:38.999Z</time></trkpt><trkpt lat="45.290979705423965" lon="9.063662400985942"><ele>96.0</ele><time>2026-03-28T17:14:39.999Z</time></trkpt><trkpt lat="45.29122694189369" lon="9.063751578061149"><ele>96.0</ele><time>2026-03-28T17:14:40.999Z</time></trkpt><trkpt lat="45.2914729802181" lon="9.063839914498546"><ele>96.0</ele><time>2026-03-28T17:14:41.999Z</time></trkpt><trkpt lat="45.2917178016072" lon="9.063929142604692"><ele>96.0</ele><time>2026-03-28T17:14:42.999Z</time></trkpt><trkpt lat="45.291962904539375" lon="9.064019060212932"><ele>96.0</ele><time>2026-03-28T17:14:43.999Z</time></trkpt><trkpt lat="45.292208598753945" lon="9.064111193210824"><ele>96.0</ele><time>2026-03-28T17:14:44.999Z</time></trkpt><trkpt lat="45.29245167434386" lon="9.06420687067916"><ele>96.0</ele><time>2026-03-28T17:14:45.999Z</time></trkpt><trkpt lat="45.29269516092705" lon="9.064310389862618"><ele>96.0</ele><time>2026-03-28T17:14:46.999Z</time></trkpt><trkpt lat="45.29293683612867" lon="9.06442359353681"><ele>96.0</ele><time>2026-03-28T17:14:47.999Z</time></trkpt><trkpt lat="45.29317524212508" lon="9.064544525084258"><ele>94.5</ele><time>2026-03-28T17:14:48.999Z</time></trkpt><trkpt lat="45.29341122200879" lon="9.064676420400192"><ele>93.0</ele><time>2026-03-28T17:14:49.999Z</time></trkpt><trkpt lat="45.29364457261351" lon="9.064814988004022"><ele>94.0</ele><time>2026-03-28T17:14:50.999Z</time></trkpt><trkpt lat="45.29387554200658" lon="9.064963694572882"><ele>95.0</ele><time>2026-03-28T17:14:51.999Z</time></trkpt><trkpt lat="45.294103703420326" lon="9.065120640875879"><ele>95.0</ele><time>2026-03-28T17:14:52.999Z</time></trkpt><trkpt lat="45.29433114177556" lon="9.065277087791653"><ele>95.0</ele><time>2026-03-28T17:14:53.999Z</time></trkpt><trkpt lat="45.29456067552326" lon="9.065432350745015"><ele>94.5</ele><time>2026-03-28T17:14:54.999Z</time></trkpt><trkpt lat="45.2947900894861" lon="9.065586120382779"><ele>94.0</ele><time>2026-03-28T17:14:55.999Z</time></trkpt><trkpt lat="45.29502095912725" lon="9.065739675166911"><ele>94.5</ele><time>2026-03-28T17:14:56.999Z</time></trkpt><trkpt lat="45.29525265969175" lon="9.06589472244767"><ele>95.0</ele><time>2026-03-28T17:14:57.999Z</time></trkpt><trkpt lat="45.29548306414322" lon="9.06604919392658"><ele>94.5</ele><time>2026-03-28T17:14:58.999Z</time></trkpt><trkpt lat="45.29571161050641" lon="9.066203420876692"><ele>94.0</ele><time>2026-03-28T17:14:59.999Z</time></trkpt><trkpt lat="45.295941309604984" lon="9.066356639556828"><ele>94.0</ele><time>2026-03-28T17:15:00.999Z</time></trkpt><trkpt lat="45.29617147903285" lon="9.066511500050849"><ele>94.0</ele><time>2026-03-28T17:15:01.999Z</time></trkpt><trkpt lat="45.296403555496255" lon="9.066665030971343"><ele>94.0</ele><time>2026-03-28T17:15:02.999Z</time></trkpt><trkpt lat="45.296633765806476" lon="9.066820761943376"><ele>94.0</ele><time>2026-03-28T17:15:03.999Z</time></trkpt><trkpt lat="45.29686222787052" lon="9.066977544007905"><ele>94.0</ele><time>2026-03-28T17:15:04.999Z</time></trkpt><trkpt lat="45.29709160769661" lon="9.067134662996025"><ele>94.0</ele><time>2026-03-28T17:15:05.999Z</time></trkpt><trkpt lat="45.29732130965456" lon="9.06729266884019"><ele>94.0</ele><time>2026-03-28T17:15:06.999Z</time></trkpt><trkpt lat="45.29755093225866" lon="9.067451378156257"><ele>94.0</ele><time>2026-03-28T17:15:07.999Z</time></trkpt><trkpt lat="45.297780875584685" lon="9.067606408216921"><ele>94.0</ele><time>2026-03-28T17:15:08.999Z</time></trkpt><trkpt lat="45.29801072236586" lon="9.067759118433516"><ele>94.0</ele><time>2026-03-28T17:15:09.999Z</time></trkpt><trkpt lat="45.298240821961144" lon="9.067911422239778"><ele>93.5</ele><time>2026-03-28T17:15:10.999Z</time></trkpt><trkpt lat="45.29847105085785" lon="9.068064726247698"><ele>93.0</ele><time>2026-03-28T17:15:11.999Z</time></trkpt><trkpt lat="45.298701871732895" lon="9.068216362502111"><ele>94.0</ele><time>2026-03-28T17:15:12.999Z</time></trkpt><trkpt lat="45.29893160613223" lon="9.068370425344066"><ele>95.0</ele><time>2026-03-28T17:15:13.999Z</time></trkpt><trkpt lat="45.29916086188714" lon="9.068525024575699"><ele>95.0</ele><time>2026-03-28T17:15:14.999Z</time></trkpt><trkpt lat="45.29939039681042" lon="9.068682783590187"><ele>95.0</ele><time>2026-03-28T17:15:15.999Z</time></trkpt><trkpt lat="45.29961941957988" lon="9.068838680554766"><ele>95.5</ele><time>2026-03-28T17:15:16.999Z</time></trkpt><trkpt lat="45.29984968488936" lon="9.068994927328786"><ele>96.0</ele><time>2026-03-28T17:15:17.999Z</time></trkpt><trkpt lat="45.30007965855587" lon="9.069149590414602"><ele>96.5</ele><time>2026-03-28T17:15:18.999Z</time></trkpt><trkpt lat="45.300310728479666" lon="9.069301124963003"><ele>97.0</ele><time>2026-03-28T17:15:19.999Z</time></trkpt><trkpt lat="45.30054043777961" lon="9.069453891368576"><ele>96.5</ele><time>2026-03-28T17:15:20.999Z</time></trkpt><trkpt lat="45.30076955629415" lon="9.069606190877362"><ele>96.0</ele><time>2026-03-28T17:15:21.999Z</time></trkpt><trkpt lat="45.3009997674266" lon="9.069759195786938"><ele>96.0</ele><time>2026-03-28T17:15:22.999Z</time></trkpt><trkpt lat="45.30122835143076" lon="9.069912212651811"><ele>96.0</ele><time>2026-03-28T17:15:23.999Z</time></trkpt><trkpt lat="45.30145567867613" lon="9.07006939606872"><ele>96.0</ele><time>2026-03-28T17:15:24.999Z</time></trkpt><trkpt lat="45.30168446364605" lon="9.070222696627624"><ele>96.0</ele><time>2026-03-28T17:15:25.999Z</time></trkpt><trkpt lat="45.301913561583916" lon="9.070378762694673"><ele>96.0</ele><time>2026-03-28T17:15:26.999Z</time></trkpt><trkpt lat="45.30214215762407" lon="9.070534847785893"><ele>96.0</ele><time>2026-03-28T17:15:27.999Z</time></trkpt><trkpt lat="45.30237086895801" lon="9.070688937514449"><ele>95.5</ele><time>2026-03-28T17:15:28.999Z</time></trkpt><trkpt lat="45.30260015025789" lon="9.070840642515087"><ele>95.0</ele><time>2026-03-28T17:15:29.999Z</time></trkpt><trkpt lat="45.302829936109696" lon="9.070993632217625"><ele>95.0</ele><time>2026-03-28T17:15:30.999Z</time></trkpt><trkpt lat="45.303058429539306" lon="9.071147196148173"><ele>95.0</ele><time>2026-03-28T17:15:31.999Z</time></trkpt><trkpt lat="45.30328594973664" lon="9.071303140349942"><ele>95.0</ele><time>2026-03-28T17:15:32.999Z</time></trkpt><trkpt lat="45.303513746133376" lon="9.071458114930712"><ele>95.0</ele><time>2026-03-28T17:15:33.999Z</time></trkpt><trkpt lat="45.30374254013453" lon="9.071614338693143"><ele>95.5</ele><time>2026-03-28T17:15:34.999Z</time></trkpt><trkpt lat="45.30397254226534" lon="9.0717694489249"><ele>96.0</ele><time>2026-03-28T17:15:35.999Z</time></trkpt><trkpt lat="45.30420111373374" lon="9.071922102713552"><ele>96.0</ele><time>2026-03-28T17:15:36.999Z</time></trkpt><trkpt lat="45.304431036297856" lon="9.072071764541812"><ele>96.0</ele><time>2026-03-28T17:15:37.999Z</time></trkpt><trkpt lat="45.30466164786177" lon="9.072223738483602"><ele>96.0</ele><time>2026-03-28T17:15:38.999Z</time></trkpt><trkpt lat="45.30489136693024" lon="9.072375889037538"><ele>96.0</ele><time>2026-03-28T17:15:39.999Z</time></trkpt><trkpt lat="45.30511944023394" lon="9.072532091893327"><ele>96.0</ele><time>2026-03-28T17:15:40.999Z</time></trkpt><trkpt lat="45.30534815969008" lon="9.072688454057637"><ele>96.0</ele><time>2026-03-28T17:15:42Z</time></trkpt><trkpt lat="45.30557707543171" lon="9.072844380279944"><ele>96.0</ele><time>2026-03-28T17:15:43Z</time></trkpt><trkpt lat="45.305805668067286" lon="9.07299932156574"><ele>96.0</ele><time>2026-03-28T17:15:44Z</time></trkpt><trkpt lat="45.30603489281436" lon="9.07315389591522"><ele>96.0</ele><time>2026-03-28T17:15:45Z</time></trkpt><trkpt lat="45.306264696799786" lon="9.073308878654565"><ele>96.0</ele><time>2026-03-28T17:15:46Z</time></trkpt><trkpt lat="45.30649545311741" lon="9.07345995786276"><ele>96.0</ele><time>2026-03-28T17:15:47Z</time></trkpt><trkpt lat="45.306726001937314" lon="9.073609183156618"><ele>96.0</ele><time>2026-03-28T17:15:48Z</time></trkpt><trkpt lat="45.30695515320942" lon="9.073763630046157"><ele>96.0</ele><time>2026-03-28T17:15:49Z</time></trkpt><trkpt lat="45.30718471067186" lon="9.073916831805924"><ele>96.0</ele><time>2026-03-28T17:15:50Z</time></trkpt><trkpt lat="45.307413301769536" lon="9.074071982387535"><ele>95.5</ele><time>2026-03-28T17:15:51Z</time></trkpt><trkpt lat="45.30764126412414" lon="9.074226601055141"><ele>95.0</ele><time>2026-03-28T17:15:52Z</time></trkpt><trkpt lat="45.307869991605195" lon="9.074379395656264"><ele>95.5</ele><time>2026-03-28T17:15:53Z</time></trkpt><trkpt lat="45.30809733684888" lon="9.074536052412737"><ele>96.0</ele><time>2026-03-28T17:15:54Z</time></trkpt><trkpt lat="45.30832557418529" lon="9.074690172622685"><ele>96.0</ele><time>2026-03-28T17:15:55Z</time></trkpt><trkpt lat="45.30855390941522" lon="9.074845746008908"><ele>96.0</ele><time>2026-03-28T17:15:56Z</time></trkpt><trkpt lat="45.30878117892169" lon="9.075004309292053"><ele>94.5</ele><time>2026-03-28T17:15:57Z</time></trkpt><trkpt lat="45.309001069327756" lon="9.075177605103669"><ele>93.0</ele><time>2026-03-28T17:15:58Z</time></trkpt><trkpt lat="45.30921934834002" lon="9.075357859362908"><ele>93.0</ele><time>2026-03-28T17:15:59Z</time></trkpt><trkpt lat="45.30943680844883" lon="9.075546491686746"><ele>93.0</ele><time>2026-03-28T17:16:00Z</time></trkpt><trkpt lat="45.30964923979311" lon="9.075743016129593"><ele>94.5</ele><time>2026-03-28T17:16:01Z</time></trkpt><trkpt lat="45.309862025191954" lon="9.075941125811193"><ele>96.0</ele><time>2026-03-28T17:16:02Z</time></trkpt><trkpt lat="45.31007245434802" lon="9.076142006203716"><ele>96.0</ele><time>2026-03-28T17:16:03Z</time></trkpt><trkpt lat="45.31028232410523" lon="9.076344308198175"><ele>96.0</ele><time>2026-03-28T17:16:04Z</time></trkpt><trkpt lat="45.3104908593007" lon="9.076545348867178"><ele>95.5</ele><time>2026-03-28T17:16:05Z</time></trkpt><trkpt lat="45.310699446658354" lon="9.076747792023946"><ele>95.0</ele><time>2026-03-28T17:16:06Z</time></trkpt><trkpt lat="45.31090772184994" lon="9.07694998529413"><ele>95.0</ele><time>2026-03-28T17:16:07Z</time></trkpt><trkpt lat="45.311117779009656" lon="9.077150334918915"><ele>95.0</ele><time>2026-03-28T17:16:08Z</time></trkpt><trkpt lat="45.31132816100565" lon="9.077348463938828"><ele>95.5</ele><time>2026-03-28T17:16:09Z</time></trkpt><trkpt lat="45.31153903858953" lon="9.077547264235019"><ele>96.0</ele><time>2026-03-28T17:16:10Z</time></trkpt><trkpt lat="45.31174911508347" lon="9.077747168474959"><ele>96.0</ele><time>2026-03-28T17:16:11Z</time></trkpt><trkpt lat="45.311957706392576" lon="9.077948124328922"><ele>96.0</ele><time>2026-03-28T17:16:12Z</time></trkpt><trkpt lat="45.312168788722026" lon="9.078147852601646"><ele>95.5</ele><time>2026-03-28T17:16:13Z</time></trkpt><trkpt lat="45.31238047175502" lon="9.078345852366821"><ele>95.0</ele><time>2026-03-28T17:16:14Z</time></trkpt><trkpt lat="45.31259234753016" lon="9.078545897095873"><ele>95.0</ele><time>2026-03-28T17:16:15Z</time></trkpt><trkpt lat="45.31280192456352" lon="9.07874674872594"><ele>95.0</ele><time>2026-03-28T17:16:16Z</time></trkpt><trkpt lat="45.31301076688506" lon="9.078949735581444"><ele>95.5</ele><time>2026-03-28T17:16:17Z</time></trkpt><trkpt lat="45.31321947730765" lon="9.079151863389225"><ele>96.0</ele><time>2026-03-28T17:16:18Z</time></trkpt><trkpt lat="45.31342829117888" lon="9.079352856030004"><ele>96.0</ele><time>2026-03-28T17:16:19Z</time></trkpt><trkpt lat="45.31363878941658" lon="9.07955151879098"><ele>96.0</ele><time>2026-03-28T17:16:20Z</time></trkpt><trkpt lat="45.3138494815977" lon="9.079748929637931"><ele>97.0</ele><time>2026-03-28T17:16:21Z</time></trkpt><trkpt lat="45.31405980376196" lon="9.079947348997809"><ele>98.0</ele><time>2026-03-28T17:16:22Z</time></trkpt><trkpt lat="45.31427012565937" lon="9.080146419279313"><ele>98.0</ele><time>2026-03-28T17:16:23Z</time></trkpt><trkpt lat="45.31448035813093" lon="9.08034685172567"><ele>98.0</ele><time>2026-03-28T17:16:24Z</time></trkpt><trkpt lat="45.3146905289653" lon="9.080545553268575"><ele>97.0</ele><time>2026-03-28T17:16:25Z</time></trkpt><trkpt lat="45.31489922123355" lon="9.080746849338004"><ele>96.0</ele><time>2026-03-28T17:16:26Z</time></trkpt><trkpt lat="45.31510877076821" lon="9.080949712063218"><ele>95.5</ele><time>2026-03-28T17:16:27Z</time></trkpt><trkpt lat="45.315319481621685" lon="9.081149939602433"><ele>95.0</ele><time>2026-03-28T17:16:28Z</time></trkpt><trkpt lat="45.31552948333449" lon="9.081350186944467"><ele>95.5</ele><time>2026-03-28T17:16:29Z</time></trkpt><trkpt lat="45.31573900265937" lon="9.081550811827396"><ele>96.0</ele><time>2026-03-28T17:16:30Z</time></trkpt><trkpt lat="45.31594898762413" lon="9.081750385733663"><ele>96.0</ele><time>2026-03-28T17:16:30.999Z</time></trkpt><trkpt lat="45.31615742975363" lon="9.081949544967202"><ele>96.0</ele><time>2026-03-28T17:16:31.999Z</time></trkpt><trkpt lat="45.31636631542041" lon="9.08214978329837"><ele>96.0</ele><time>2026-03-28T17:16:32.999Z</time></trkpt><trkpt lat="45.31657695274069" lon="9.082351678305246"><ele>96.0</ele><time>2026-03-28T17:16:33.999Z</time></trkpt><trkpt lat="45.316787019486306" lon="9.082553572626871"><ele>95.5</ele><time>2026-03-28T17:16:34.999Z</time></trkpt><trkpt lat="45.31699739830303" lon="9.082753869396887"><ele>95.0</ele><time>2026-03-28T17:16:35.999Z</time></trkpt><trkpt lat="45.31720780625019" lon="9.082956409423158"><ele>96.0</ele><time>2026-03-28T17:16:36.999Z</time></trkpt><trkpt lat="45.31741796622059" lon="9.083156803553742"><ele>97.0</ele><time>2026-03-28T17:16:37.999Z</time></trkpt><trkpt lat="45.31762844134056" lon="9.083357371849633"><ele>97.0</ele><time>2026-03-28T17:16:38.999Z</time></trkpt><trkpt lat="45.317839937386026" lon="9.083558752765194"><ele>97.0</ele><time>2026-03-28T17:16:39.999Z</time></trkpt><trkpt lat="45.318051016602205" lon="9.083758849296784"><ele>97.0</ele><time>2026-03-28T17:16:40.999Z</time></trkpt><trkpt lat="45.31826081203799" lon="9.083957654995839"><ele>97.0</ele><time>2026-03-28T17:16:41.999Z</time></trkpt><trkpt lat="45.318467115639166" lon="9.084159242219545"><ele>97.0</ele><time>2026-03-28T17:16:42.999Z</time></trkpt><trkpt lat="45.31867045186664" lon="9.084363427831388"><ele>97.0</ele><time>2026-03-28T17:16:43.999Z</time></trkpt><trkpt lat="45.318875932528826" lon="9.084560389770793"><ele>96.5</ele><time>2026-03-28T17:16:44.999Z</time></trkpt><trkpt lat="45.31908270410223" lon="9.08475532706943"><ele>96.0</ele><time>2026-03-28T17:16:45.999Z</time></trkpt><trkpt lat="45.319289287076124" lon="9.084950453050432"><ele>95.5</ele><time>2026-03-28T17:16:46.999Z</time></trkpt><trkpt lat="45.319494651919655" lon="9.085148372759088"><ele>95.0</ele><time>2026-03-28T17:16:47.999Z</time></trkpt><trkpt lat="45.31969903606151" lon="9.085346424817478"><ele>96.0</ele><time>2026-03-28T17:16:48.999Z</time></trkpt><trkpt lat="45.31990312672413" lon="9.085545316614468"><ele>97.0</ele><time>2026-03-28T17:16:49.999Z</time></trkpt><trkpt lat="45.32010856038978" lon="9.085739815421116"><ele>97.0</ele><time>2026-03-28T17:16:50.999Z</time></trkpt><trkpt lat="45.32031365517138" lon="9.085933754817194"><ele>97.0</ele><time>2026-03-28T17:16:51.999Z</time></trkpt><trkpt lat="45.3205180584917" lon="9.086130601883301"><ele>96.5</ele><time>2026-03-28T17:16:52.999Z</time></trkpt><trkpt lat="45.3207229498761" lon="9.086326609855558"><ele>96.0</ele><time>2026-03-28T17:16:53.999Z</time></trkpt><trkpt lat="45.32092766444234" lon="9.086519855821415"><ele>96.0</ele><time>2026-03-28T17:16:54.999Z</time></trkpt><trkpt lat="45.32113494887845" lon="9.08671140941571"><ele>96.0</ele><time>2026-03-28T17:16:55.999Z</time></trkpt><trkpt lat="45.321344806762205" lon="9.086894765462297"><ele>96.5</ele><time>2026-03-28T17:16:56.999Z</time></trkpt><trkpt lat="45.32155745821938" lon="9.087073923611827"><ele>97.0</ele><time>2026-03-28T17:16:57.999Z</time></trkpt><trkpt lat="45.32177542643831" lon="9.087245141215496"><ele>97.0</ele><time>2026-03-28T17:16:58.999Z</time></trkpt><trkpt lat="45.3219965013788" lon="9.087403370262969"><ele>97.0</ele><time>2026-03-28T17:16:59.999Z</time></trkpt><trkpt lat="45.32221913816661" lon="9.087558976687694"><ele>97.5</ele><time>2026-03-28T17:17:00.999Z</time></trkpt><trkpt lat="45.32244240147818" lon="9.087709292382309"><ele>98.0</ele><time>2026-03-28T17:17:01.999Z</time></trkpt><trkpt lat="45.322667204001775" lon="9.087853665973201"><ele>98.0</ele><time>2026-03-28T17:17:02.999Z</time></trkpt><trkpt lat="45.32289661260965" lon="9.087990880352551"><ele>98.0</ele><time>2026-03-28T17:17:03.999Z</time></trkpt><trkpt lat="45.32312640823944" lon="9.08812033446949"><ele>98.0</ele><time>2026-03-28T17:17:04.999Z</time></trkpt><trkpt lat="45.323358319887774" lon="9.088249592204644"><ele>98.0</ele><time>2026-03-28T17:17:05.999Z</time></trkpt><trkpt lat="45.32359063735739" lon="9.088380097843336"><ele>97.5</ele><time>2026-03-28T17:17:06.999Z</time></trkpt><trkpt lat="45.32382203079142" lon="9.088512341442927"><ele>97.0</ele><time>2026-03-28T17:17:07.999Z</time></trkpt><trkpt lat="45.32405235340883" lon="9.088648331542355"><ele>98.0</ele><time>2026-03-28T17:17:08.999Z</time></trkpt><trkpt lat="45.32428239295049" lon="9.088781477681128"><ele>99.0</ele><time>2026-03-28T17:17:09.999Z</time></trkpt><trkpt lat="45.324513569255224" lon="9.08891280472561"><ele>99.0</ele><time>2026-03-28T17:17:10.999Z</time></trkpt><trkpt lat="45.3247437877165" lon="9.0890453491158"><ele>99.0</ele><time>2026-03-28T17:17:11.999Z</time></trkpt><trkpt lat="45.324975746388986" lon="9.089174534531335"><ele>99.0</ele><time>2026-03-28T17:17:12.999Z</time></trkpt><trkpt lat="45.325204781961624" lon="9.089306550332697"><ele>99.0</ele><time>2026-03-28T17:17:13.999Z</time></trkpt><trkpt lat="45.325435808499954" lon="9.089437130305987"><ele>98.5</ele><time>2026-03-28T17:17:14.999Z</time></trkpt><trkpt lat="45.325666240783946" lon="9.089567131928638"><ele>98.0</ele><time>2026-03-28T17:17:15.999Z</time></trkpt><trkpt lat="45.325895603400774" lon="9.08969862225318"><ele>98.0</ele><time>2026-03-28T17:17:16.999Z</time></trkpt><trkpt lat="45.326125964435874" lon="9.089830255189979"><ele>98.0</ele><time>2026-03-28T17:17:17.999Z</time></trkpt><trkpt lat="45.32635654314913" lon="9.089961644665234"><ele>99.0</ele><time>2026-03-28T17:17:18.999Z</time></trkpt><trkpt lat="45.326586434811624" lon="9.090090502700592"><ele>100.0</ele><time>2026-03-28T17:17:19.999Z</time></trkpt><trkpt lat="45.32681602233857" lon="9.090221677292682"><ele>100.0</ele><time>2026-03-28T17:17:20.999Z</time></trkpt><trkpt lat="45.327044353590296" lon="9.090351341130317"><ele>100.0</ele><time>2026-03-28T17:17:21.999Z</time></trkpt><trkpt lat="45.327277404716746" lon="9.090485488453938"><ele>100.5</ele><time>2026-03-28T17:17:22.999Z</time></trkpt><trkpt lat="45.32750767155117" lon="9.090615787942534"><ele>101.0</ele><time>2026-03-28T17:17:23.999Z</time></trkpt><trkpt lat="45.32773699076061" lon="9.090745411735067"><ele>100.5</ele><time>2026-03-28T17:17:24.999Z</time></trkpt><trkpt lat="45.32796622415771" lon="9.090877417384043"><ele>100.0</ele><time>2026-03-28T17:17:25.999Z</time></trkpt><trkpt lat="45.328194955313094" lon="9.09101380431517"><ele>100.0</ele><time>2026-03-28T17:17:26.999Z</time></trkpt><trkpt lat="45.32842538533247" lon="9.091147374582775"><ele>100.0</ele><time>2026-03-28T17:17:27.999Z</time></trkpt><trkpt lat="45.328655908064675" lon="9.091280133463894"><ele>100.0</ele><time>2026-03-28T17:17:28.999Z</time></trkpt><trkpt lat="45.32888452766685" lon="9.091413204225125"><ele>100.0</ele><time>2026-03-28T17:17:29.999Z</time></trkpt><trkpt lat="45.3291132532542" lon="9.091545395182642"><ele>99.5</ele><time>2026-03-28T17:17:30.999Z</time></trkpt><trkpt lat="45.32934362191814" lon="9.09167726334646"><ele>99.0</ele><time>2026-03-28T17:17:31.999Z</time></trkpt><trkpt lat="45.32957435821011" lon="9.091809181693398"><ele>99.5</ele><time>2026-03-28T17:17:32.999Z</time></trkpt><trkpt lat="45.32980390894118" lon="9.091939067431017"><ele>100.0</ele><time>2026-03-28T17:17:33.999Z</time></trkpt><trkpt lat="45.33003352979095" lon="9.09207036633308"><ele>100.0</ele><time>2026-03-28T17:17:34.999Z</time></trkpt><trkpt lat="45.33026316219755" lon="9.092202668800452"><ele>100.0</ele><time>2026-03-28T17:17:35.999Z</time></trkpt><trkpt lat="45.330493463801496" lon="9.092335648579823"><ele>100.0</ele><time>2026-03-28T17:17:36.999Z</time></trkpt><trkpt lat="45.33072528975954" lon="9.09246711035763"><ele>100.0</ele><time>2026-03-28T17:17:37.999Z</time></trkpt><trkpt lat="45.33095634891764" lon="9.09259741516861"><ele>100.0</ele><time>2026-03-28T17:17:38.999Z</time></trkpt><trkpt lat="45.331186673030054" lon="9.092726235347563"><ele>100.0</ele><time>2026-03-28T17:17:39.999Z</time></trkpt><trkpt lat="45.33141678256592" lon="9.092854594610461"><ele>101.0</ele><time>2026-03-28T17:17:40.999Z</time></trkpt><trkpt lat="45.331647212325535" lon="9.092985192478068"><ele>102.0</ele><time>2026-03-28T17:17:41.999Z</time></trkpt><trkpt lat="45.33187673082537" lon="9.093114064152196"><ele>102.0</ele><time>2026-03-28T17:17:42.999Z</time></trkpt><trkpt lat="45.33210650412315" lon="9.09324453206236"><ele>102.0</ele><time>2026-03-28T17:17:43.999Z</time></trkpt><trkpt lat="45.332336316960294" lon="9.093375996775537"><ele>100.5</ele><time>2026-03-28T17:17:44.999Z</time></trkpt><trkpt lat="45.332566136746536" lon="9.09350619205142"><ele>99.0</ele><time>2026-03-28T17:17:45.999Z</time></trkpt><trkpt lat="45.33279604397613" lon="9.093636039101645"><ele>99.0</ele><time>2026-03-28T17:17:46.999Z</time></trkpt><trkpt lat="45.33302499157235" lon="9.093771597832909"><ele>99.0</ele><time>2026-03-28T17:17:48Z</time></trkpt><trkpt lat="45.333254438546824" lon="9.093905330412253"><ele>98.5</ele><time>2026-03-28T17:17:49Z</time></trkpt><trkpt lat="45.333484739164476" lon="9.094038712807086"><ele>98.0</ele><time>2026-03-28T17:17:50Z</time></trkpt><trkpt lat="45.33371463647461" lon="9.094171790516778"><ele>99.0</ele><time>2026-03-28T17:17:51Z</time></trkpt><trkpt lat="45.33394671144799" lon="9.094303024323303"><ele>100.0</ele><time>2026-03-28T17:17:52Z</time></trkpt><trkpt lat="45.33417767366249" lon="9.094434351286813"><ele>100.0</ele><time>2026-03-28T17:17:53Z</time></trkpt><trkpt lat="45.334408668477195" lon="9.094563573664635"><ele>100.0</ele><time>2026-03-28T17:17:54Z</time></trkpt><trkpt lat="45.334639909560885" lon="9.094694081321272"><ele>100.0</ele><time>2026-03-28T17:17:55Z</time></trkpt><trkpt lat="45.3348717625472" lon="9.094824534447527"><ele>100.0</ele><time>2026-03-28T17:17:56Z</time></trkpt><trkpt lat="45.335101750793456" lon="9.09495887773712"><ele>100.0</ele><time>2026-03-28T17:17:57Z</time></trkpt><trkpt lat="45.33533044458966" lon="9.095097624225637"><ele>100.0</ele><time>2026-03-28T17:17:58Z</time></trkpt><trkpt lat="45.335560724511" lon="9.095237748429193"><ele>100.0</ele><time>2026-03-28T17:17:59Z</time></trkpt><trkpt lat="45.33578822455927" lon="9.095385860149802"><ele>100.0</ele><time>2026-03-28T17:18:00Z</time></trkpt><trkpt lat="45.3360140202013" lon="9.095538677471836"><ele>100.0</ele><time>2026-03-28T17:18:01Z</time></trkpt><trkpt lat="45.33623635950003" lon="9.095698416874885"><ele>100.0</ele><time>2026-03-28T17:18:02Z</time></trkpt><trkpt lat="45.33645848161679" lon="9.095860680247549"><ele>100.5</ele><time>2026-03-28T17:18:03Z</time></trkpt><trkpt lat="45.3366796912239" lon="9.096028385927402"><ele>101.0</ele><time>2026-03-28T17:18:04Z</time></trkpt><trkpt lat="45.33689812639763" lon="9.096199492014955"><ele>101.0</ele><time>2026-03-28T17:18:05Z</time></trkpt><trkpt lat="45.3371164711754" lon="9.096374146462459"><ele>101.0</ele><time>2026-03-28T17:18:06Z</time></trkpt><trkpt lat="45.33733263513594" lon="9.096548813829875"><ele>100.0</ele><time>2026-03-28T17:18:07Z</time></trkpt><trkpt lat="45.337547748264406" lon="9.09672805801288"><ele>99.0</ele><time>2026-03-28T17:18:08Z</time></trkpt><trkpt lat="45.33776337663818" lon="9.096915243319756"><ele>99.0</ele><time>2026-03-28T17:18:09Z</time></trkpt><trkpt lat="45.33797388469931" lon="9.097105210478732"><ele>99.0</ele><time>2026-03-28T17:18:10Z</time></trkpt><trkpt lat="45.33818373050694" lon="9.097294476365787"><ele>99.0</ele><time>2026-03-28T17:18:11Z</time></trkpt><trkpt lat="45.33839329577494" lon="9.097483522318207"><ele>99.0</ele><time>2026-03-28T17:18:12Z</time></trkpt><trkpt lat="45.33860374131309" lon="9.097673926287694"><ele>99.0</ele><time>2026-03-28T17:18:13Z</time></trkpt><trkpt lat="45.33881262375779" lon="9.097863732363239"><ele>99.0</ele><time>2026-03-28T17:18:14Z</time></trkpt><trkpt lat="45.339019998267794" lon="9.098057296456707"><ele>98.0</ele><time>2026-03-28T17:18:15Z</time></trkpt><trkpt lat="45.33922783272129" lon="9.09825831733995"><ele>97.0</ele><time>2026-03-28T17:18:16Z</time></trkpt><trkpt lat="45.33943422017685" lon="9.098455971363597"><ele>97.0</ele><time>2026-03-28T17:18:17Z</time></trkpt><trkpt lat="45.33964199099346" lon="9.098652004688303"><ele>97.0</ele><time>2026-03-28T17:18:18Z</time></trkpt><trkpt lat="45.33984790908307" lon="9.098841337202687"><ele>97.0</ele><time>2026-03-28T17:18:19Z</time></trkpt><trkpt lat="45.340053958098416" lon="9.099032179078467"><ele>97.0</ele><time>2026-03-28T17:18:20Z</time></trkpt><trkpt lat="45.34026324438074" lon="9.099224930783864"><ele>97.0</ele><time>2026-03-28T17:18:21Z</time></trkpt><trkpt lat="45.340473728511206" lon="9.099414494327267"><ele>97.0</ele><time>2026-03-28T17:18:22Z</time></trkpt><trkpt lat="45.34068287096041" lon="9.099610416929991"><ele>98.0</ele><time>2026-03-28T17:18:23Z</time></trkpt><trkpt lat="45.340889658045256" lon="9.099797990198997"><ele>99.0</ele><time>2026-03-28T17:18:24Z</time></trkpt><trkpt lat="45.34109584741071" lon="9.099992986370513"><ele>99.0</ele><time>2026-03-28T17:18:25Z</time></trkpt><trkpt lat="45.3413052486236" lon="9.100185872289275"><ele>99.0</ele><time>2026-03-28T17:18:26Z</time></trkpt><trkpt lat="45.34151424188365" lon="9.100377273027055"><ele>99.0</ele><time>2026-03-28T17:18:27Z</time></trkpt><trkpt lat="45.34172403197144" lon="9.100568933871996"><ele>99.0</ele><time>2026-03-28T17:18:28Z</time></trkpt><trkpt lat="45.34193253485698" lon="9.100760468290792"><ele>99.0</ele><time>2026-03-28T17:18:29Z</time></trkpt><trkpt lat="45.34214239543433" lon="9.100953011539643"><ele>99.0</ele><time>2026-03-28T17:18:30Z</time></trkpt><trkpt lat="45.34235276834442" lon="9.101143643186475"><ele>98.5</ele><time>2026-03-28T17:18:31Z</time></trkpt><trkpt lat="45.34256214266697" lon="9.101334023856507"><ele>98.0</ele><time>2026-03-28T17:18:32Z</time></trkpt><trkpt lat="45.34277100910168" lon="9.101529156527036"><ele>98.0</ele><time>2026-03-28T17:18:33Z</time></trkpt><trkpt lat="45.342976909816215" lon="9.10172484154221"><ele>98.0</ele><time>2026-03-28T17:18:34Z</time></trkpt><trkpt lat="45.34318474753381" lon="9.101922580477899"><ele>99.0</ele><time>2026-03-28T17:18:35Z</time></trkpt><trkpt lat="45.34339117931825" lon="9.102121357088608"><ele>100.0</ele><time>2026-03-28T17:18:36Z</time></trkpt><trkpt lat="45.34359671712922" lon="9.1023216757363"><ele>99.0</ele><time>2026-03-28T17:18:37Z</time></trkpt><trkpt lat="45.34380206459211" lon="9.102522489288441"><ele>98.0</ele><time>2026-03-28T17:18:38Z</time></trkpt><trkpt lat="45.34400699267593" lon="9.102724318932571"><ele>98.0</ele><time>2026-03-28T17:18:39Z</time></trkpt><trkpt lat="45.34421306633633" lon="9.102925977495719"><ele>98.0</ele><time>2026-03-28T17:18:40Z</time></trkpt><trkpt lat="45.34441944172263" lon="9.103124134512298"><ele>98.0</ele><time>2026-03-28T17:18:40.999Z</time></trkpt><trkpt lat="45.344626817036236" lon="9.103322877816256"><ele>98.0</ele><time>2026-03-28T17:18:41.999Z</time></trkpt><trkpt lat="45.344832943845226" lon="9.10352040420926"><ele>98.0</ele><time>2026-03-28T17:18:42.999Z</time></trkpt><trkpt lat="45.34504077518048" lon="9.103714168204965"><ele>98.0</ele><time>2026-03-28T17:18:43.999Z</time></trkpt><trkpt lat="45.34524941606992" lon="9.103906645759483"><ele>97.5</ele><time>2026-03-28T17:18:44.999Z</time></trkpt><trkpt lat="45.345459827414345" lon="9.104096382165228"><ele>97.0</ele><time>2026-03-28T17:18:45.999Z</time></trkpt><trkpt lat="45.345669563813544" lon="9.104286834712163"><ele>97.0</ele><time>2026-03-28T17:18:46.999Z</time></trkpt><trkpt lat="45.34588048272977" lon="9.104473020712609"><ele>97.0</ele><time>2026-03-28T17:18:47.999Z</time></trkpt><trkpt lat="45.34609396796952" lon="9.104656286795347"><ele>97.0</ele><time>2026-03-28T17:18:48.999Z</time></trkpt><trkpt lat="45.34630674405471" lon="9.104839375684234"><ele>97.0</ele><time>2026-03-28T17:18:49.999Z</time></trkpt><trkpt lat="45.34651947109315" lon="9.105017997473409"><ele>96.5</ele><time>2026-03-28T17:18:50.999Z</time></trkpt><trkpt lat="45.34673497303223" lon="9.105195139670446"><ele>96.0</ele><time>2026-03-28T17:18:51.999Z</time></trkpt><trkpt lat="45.34694770323142" lon="9.105375482113384"><ele>96.0</ele><time>2026-03-28T17:18:52.999Z</time></trkpt><trkpt lat="45.34715859609209" lon="9.105558242789883"><ele>96.0</ele><time>2026-03-28T17:18:53.999Z</time></trkpt><trkpt lat="45.34737122846273" lon="9.105739470402154"><ele>97.0</ele><time>2026-03-28T17:18:54.999Z</time></trkpt><trkpt lat="45.347582747344134" lon="9.105923269617339"><ele>98.0</ele><time>2026-03-28T17:18:55.999Z</time></trkpt><trkpt lat="45.34779598860476" lon="9.10610258199024"><ele>98.0</ele><time>2026-03-28T17:18:56.999Z</time></trkpt><trkpt lat="45.348009156015216" lon="9.10628121800318"><ele>98.0</ele><time>2026-03-28T17:18:57.999Z</time></trkpt><trkpt lat="45.34821953923197" lon="9.106462667273155"><ele>98.0</ele><time>2026-03-28T17:18:58.999Z</time></trkpt><trkpt lat="45.34843137794573" lon="9.106641806835034"><ele>98.0</ele><time>2026-03-28T17:18:59.999Z</time></trkpt><trkpt lat="45.34864600283985" lon="9.106817103640829"><ele>98.0</ele><time>2026-03-28T17:19:00.999Z</time></trkpt><trkpt lat="45.3488603160224" lon="9.106999744411993"><ele>98.0</ele><time>2026-03-28T17:19:01.999Z</time></trkpt><trkpt lat="45.34907247143647" lon="9.107180290794828"><ele>98.5</ele><time>2026-03-28T17:19:02.999Z</time></trkpt><trkpt lat="45.34927826010747" lon="9.107348887555272"><ele>99.0</ele><time>2026-03-28T17:19:03.999Z</time></trkpt><trkpt lat="45.34949428910858" lon="9.10752006174135"><ele>99.0</ele><time>2026-03-28T17:19:04.999Z</time></trkpt><trkpt lat="45.34970845808052" lon="9.107703149219615"><ele>99.0</ele><time>2026-03-28T17:19:05.999Z</time></trkpt><trkpt lat="45.3499208309946" lon="9.10788283947911"><ele>98.5</ele><time>2026-03-28T17:19:06.999Z</time></trkpt><trkpt lat="45.350134038745" lon="9.108064483996463"><ele>98.0</ele><time>2026-03-28T17:19:07.999Z</time></trkpt><trkpt lat="45.350347335788115" lon="9.108245850461895"><ele>97.5</ele><time>2026-03-28T17:19:08.999Z</time></trkpt><trkpt lat="45.3505607467617" lon="9.108429998616481"><ele>97.0</ele><time>2026-03-28T17:19:09.999Z</time></trkpt><trkpt lat="45.35077407169925" lon="9.108612879884884"><ele>97.0</ele><time>2026-03-28T17:19:10.999Z</time></trkpt><trkpt lat="45.35098767420669" lon="9.10879308102868"><ele>97.0</ele><time>2026-03-28T17:19:11.999Z</time></trkpt><trkpt lat="45.35120233015593" lon="9.108972786549355"><ele>98.0</ele><time>2026-03-28T17:19:12.999Z</time></trkpt><trkpt lat="45.351413846810715" lon="9.109153054826278"><ele>99.0</ele><time>2026-03-28T17:19:13.999Z</time></trkpt><trkpt lat="45.3516269384557" lon="9.109334758262529"><ele>99.0</ele><time>2026-03-28T17:19:14.999Z</time></trkpt><trkpt lat="45.35183942336812" lon="9.109516379508197"><ele>99.0</ele><time>2026-03-28T17:19:15.999Z</time></trkpt><trkpt lat="45.35205226201136" lon="9.10969849950169"><ele>99.0</ele><time>2026-03-28T17:19:16.999Z</time></trkpt><trkpt lat="45.35226503558179" lon="9.10987967751871"><ele>99.0</ele><time>2026-03-28T17:19:17.999Z</time></trkpt><trkpt lat="45.352477416564845" lon="9.1100602871807"><ele>99.0</ele><time>2026-03-28T17:19:18.999Z</time></trkpt><trkpt lat="45.35269183660983" lon="9.110242528385637"><ele>99.0</ele><time>2026-03-28T17:19:19.999Z</time></trkpt><trkpt lat="45.352907383932255" lon="9.110423235661612"><ele>99.0</ele><time>2026-03-28T17:19:20.999Z</time></trkpt><trkpt lat="45.35312232885045" lon="9.110603753785638"><ele>99.0</ele><time>2026-03-28T17:19:21.999Z</time></trkpt><trkpt lat="45.35333671106332" lon="9.110782845578287"><ele>99.5</ele><time>2026-03-28T17:19:22.999Z</time></trkpt><trkpt lat="45.35355128930632" lon="9.110963623822617"><ele>100.0</ele><time>2026-03-28T17:19:23.999Z</time></trkpt><trkpt lat="45.353765632492745" lon="9.111144102028359"><ele>99.5</ele><time>2026-03-28T17:19:24.999Z</time></trkpt><trkpt lat="45.35397948590532" lon="9.111322746939592"><ele>99.0</ele><time>2026-03-28T17:19:25.999Z</time></trkpt><trkpt lat="45.35419396347412" lon="9.111502886066756"><ele>99.5</ele><time>2026-03-28T17:19:26.999Z</time></trkpt><trkpt lat="45.35440801803638" lon="9.11168446233807"><ele>100.0</ele><time>2026-03-28T17:19:27.999Z</time></trkpt><trkpt lat="45.354621663495884" lon="9.111867613994203"><ele>99.5</ele><time>2026-03-28T17:19:28.999Z</time></trkpt><trkpt lat="45.354836396756156" lon="9.112051700211815"><ele>99.0</ele><time>2026-03-28T17:19:29.999Z</time></trkpt><trkpt lat="45.355051981165154" lon="9.11223102752601"><ele>100.0</ele><time>2026-03-28T17:19:30.999Z</time></trkpt><trkpt lat="45.35526537459419" lon="9.11241209996914"><ele>101.0</ele><time>2026-03-28T17:19:31.999Z</time></trkpt><trkpt lat="45.355479892535136" lon="9.112593682538687"><ele>101.0</ele><time>2026-03-28T17:19:32.999Z</time></trkpt><trkpt lat="45.355693374575516" lon="9.112776253794884"><ele>101.0</ele><time>2026-03-28T17:19:33.999Z</time></trkpt><trkpt lat="45.35590848053609" lon="9.112957488673153"><ele>101.0</ele><time>2026-03-28T17:19:34.999Z</time></trkpt><trkpt lat="45.35611904761115" lon="9.113135461163525"><ele>101.0</ele><time>2026-03-28T17:19:35.999Z</time></trkpt><trkpt lat="45.35633275965951" lon="9.113316052427782"><ele>100.5</ele><time>2026-03-28T17:19:36.999Z</time></trkpt><trkpt lat="45.35654724772895" lon="9.113497602585031"><ele>100.0</ele><time>2026-03-28T17:19:37.999Z</time></trkpt><trkpt lat="45.3567620885213" lon="9.113680693699898"><ele>100.0</ele><time>2026-03-28T17:19:38.999Z</time></trkpt><trkpt lat="45.3569756321838" lon="9.113865566843593"><ele>100.0</ele><time>2026-03-28T17:19:39.999Z</time></trkpt><trkpt lat="45.357190865138634" lon="9.114047293685404"><ele>100.5</ele><time>2026-03-28T17:19:40.999Z</time></trkpt><trkpt lat="45.35740578842013" lon="9.11422971179403"><ele>101.0</ele><time>2026-03-28T17:19:41.999Z</time></trkpt><trkpt lat="45.357619532102696" lon="9.114410832527618"><ele>101.0</ele><time>2026-03-28T17:19:42.999Z</time></trkpt><trkpt lat="45.357833253622545" lon="9.114592167658747"><ele>101.0</ele><time>2026-03-28T17:19:43.999Z</time></trkpt><trkpt lat="45.358046814962634" lon="9.114773413338554"><ele>101.5</ele><time>2026-03-28T17:19:44.999Z</time></trkpt><trkpt lat="45.35826049684753" lon="9.114953965092555"><ele>102.0</ele><time>2026-03-28T17:19:45.999Z</time></trkpt><trkpt lat="45.35847403224111" lon="9.11513626031344"><ele>102.0</ele><time>2026-03-28T17:19:46.999Z</time></trkpt><trkpt lat="45.35868773074465" lon="9.115319709476838"><ele>102.0</ele><time>2026-03-28T17:19:47.999Z</time></trkpt><trkpt lat="45.35890036410612" lon="9.115502743754552"><ele>102.0</ele><time>2026-03-28T17:19:48.999Z</time></trkpt><trkpt lat="45.359113629973564" lon="9.115684968679787"><ele>102.0</ele><time>2026-03-28T17:19:49.999Z</time></trkpt><trkpt lat="45.359327387828486" lon="9.11586564833704"><ele>102.0</ele><time>2026-03-28T17:19:50.999Z</time></trkpt><trkpt lat="45.35953999102886" lon="9.116047068089978"><ele>102.0</ele><time>2026-03-28T17:19:51.999Z</time></trkpt><trkpt lat="45.359754587677976" lon="9.1162268660175"><ele>100.0</ele><time>2026-03-28T17:19:52.999Z</time></trkpt><trkpt lat="45.35996879378041" lon="9.116408087896392"><ele>98.0</ele><time>2026-03-28T17:19:54Z</time></trkpt><trkpt lat="45.36018305512856" lon="9.116590161077045"><ele>98.0</ele><time>2026-03-28T17:19:55Z</time></trkpt><trkpt lat="45.36039524638624" lon="9.116774243017508"><ele>98.0</ele><time>2026-03-28T17:19:56Z</time></trkpt><trkpt lat="45.36060920032857" lon="9.11695788214384"><ele>98.5</ele><time>2026-03-28T17:19:57Z</time></trkpt><trkpt lat="45.360821319433654" lon="9.117142602339058"><ele>99.0</ele><time>2026-03-28T17:19:58Z</time></trkpt><trkpt lat="45.36103234139746" lon="9.117330772886861"><ele>99.5</ele><time>2026-03-28T17:19:59Z</time></trkpt><trkpt lat="45.3612420677921" lon="9.117522582490574"><ele>100.0</ele><time>2026-03-28T17:20:00Z</time></trkpt><trkpt lat="45.361450318701955" lon="9.117718514143684"><ele>100.0</ele><time>2026-03-28T17:20:01Z</time></trkpt><trkpt lat="45.36165621782094" lon="9.117913926393943"><ele>100.0</ele><time>2026-03-28T17:20:02Z</time></trkpt><trkpt lat="45.36186225458632" lon="9.118110552382417"><ele>100.5</ele><time>2026-03-28T17:20:03Z</time></trkpt><trkpt lat="45.362069245719105" lon="9.118306125842054"><ele>101.0</ele><time>2026-03-28T17:20:04Z</time></trkpt><trkpt lat="45.36227689741437" lon="9.1185023004756"><ele>102.0</ele><time>2026-03-28T17:20:05Z</time></trkpt><trkpt lat="45.36248403164397" lon="9.118697868690925"><ele>103.0</ele><time>2026-03-28T17:20:06Z</time></trkpt><trkpt lat="45.36269135571295" lon="9.118892864154354"><ele>103.5</ele><time>2026-03-28T17:20:07Z</time></trkpt><trkpt lat="45.36289917468813" lon="9.119088374279293"><ele>104.0</ele><time>2026-03-28T17:20:08Z</time></trkpt><trkpt lat="45.363102993980384" lon="9.119283932085278"><ele>103.0</ele><time>2026-03-28T17:20:09Z</time></trkpt><trkpt lat="45.36331232827768" lon="9.11947969624609"><ele>102.0</ele><time>2026-03-28T17:20:10Z</time></trkpt><trkpt lat="45.3635193754072" lon="9.119673864973906"><ele>102.0</ele><time>2026-03-28T17:20:11Z</time></trkpt><trkpt lat="45.363727485991475" lon="9.119869802299977"><ele>102.0</ele><time>2026-03-28T17:20:12Z</time></trkpt><trkpt lat="45.36393480737309" lon="9.120062806860712"><ele>101.0</ele><time>2026-03-28T17:20:13Z</time></trkpt><trkpt lat="45.364143478429256" lon="9.120258683228313"><ele>100.0</ele><time>2026-03-28T17:20:14Z</time></trkpt><trkpt lat="45.3643509667066" lon="9.120454427473927"><ele>100.0</ele><time>2026-03-28T17:20:15Z</time></trkpt><trkpt lat="45.364557854928414" lon="9.120650436768498"><ele>100.0</ele><time>2026-03-28T17:20:16Z</time></trkpt><trkpt lat="45.36476541669923" lon="9.120846488476737"><ele>100.0</ele><time>2026-03-28T17:20:17Z</time></trkpt><trkpt lat="45.36497206538176" lon="9.12104286651735"><ele>100.0</ele><time>2026-03-28T17:20:18Z</time></trkpt><trkpt lat="45.36517936714207" lon="9.121239040824417"><ele>100.0</ele><time>2026-03-28T17:20:19Z</time></trkpt><trkpt lat="45.36538624009471" lon="9.121436029909068"><ele>100.0</ele><time>2026-03-28T17:20:20Z</time></trkpt><trkpt lat="45.36559294645077" lon="9.121632828306948"><ele>101.0</ele><time>2026-03-28T17:20:21Z</time></trkpt><trkpt lat="45.365800696581324" lon="9.121829727814434"><ele>102.0</ele><time>2026-03-28T17:20:22Z</time></trkpt><trkpt lat="45.36600777115685" lon="9.122023850062096"><ele>102.0</ele><time>2026-03-28T17:20:23Z</time></trkpt><trkpt lat="45.36621561845427" lon="9.122219502110635"><ele>102.0</ele><time>2026-03-28T17:20:24Z</time></trkpt><trkpt lat="45.36642113262298" lon="9.12241651667765"><ele>102.0</ele><time>2026-03-28T17:20:25Z</time></trkpt><trkpt lat="45.36662736038101" lon="9.122612820442521"><ele>102.0</ele><time>2026-03-28T17:20:26Z</time></trkpt><trkpt lat="45.366834135859015" lon="9.122808691804448"><ele>102.0</ele><time>2026-03-28T17:20:27Z</time></trkpt><trkpt lat="45.367041367783784" lon="9.123007836728444"><ele>102.0</ele><time>2026-03-28T17:20:28Z</time></trkpt><trkpt lat="45.36724740478146" lon="9.123204649802316"><ele>101.5</ele><time>2026-03-28T17:20:29Z</time></trkpt><trkpt lat="45.3674541389763" lon="9.123401309749475"><ele>101.0</ele><time>2026-03-28T17:20:30Z</time></trkpt><trkpt lat="45.367662310192436" lon="9.12359639304561"><ele>101.0</ele><time>2026-03-28T17:20:31Z</time></trkpt><trkpt lat="45.367867248089404" lon="9.123787521122441"><ele>101.0</ele><time>2026-03-28T17:20:32Z</time></trkpt><trkpt lat="45.36806974706661" lon="9.123974666442415"><ele>102.0</ele><time>2026-03-28T17:20:33Z</time></trkpt><trkpt lat="45.36827844839583" lon="9.124171009421913"><ele>103.0</ele><time>2026-03-28T17:20:34Z</time></trkpt><trkpt lat="45.368488703706454" lon="9.124368218986353"><ele>103.0</ele><time>2026-03-28T17:20:35Z</time></trkpt><trkpt lat="45.368696910097356" lon="9.124564723633753"><ele>103.0</ele><time>2026-03-28T17:20:36Z</time></trkpt><trkpt lat="45.36890471336202" lon="9.12476010493522"><ele>102.0</ele><time>2026-03-28T17:20:37Z</time></trkpt><trkpt lat="45.36911052164967" lon="9.12495833576152"><ele>101.0</ele><time>2026-03-28T17:20:38Z</time></trkpt><trkpt lat="45.36931582254116" lon="9.125153391069441"><ele>101.0</ele><time>2026-03-28T17:20:39Z</time></trkpt><trkpt lat="45.36952169745336" lon="9.125348768497215"><ele>101.0</ele><time>2026-03-28T17:20:40Z</time></trkpt><trkpt lat="45.369728294101115" lon="9.125542947587425"><ele>102.0</ele><time>2026-03-28T17:20:41Z</time></trkpt><trkpt lat="45.36993530591365" lon="9.125740807838715"><ele>103.0</ele><time>2026-03-28T17:20:42Z</time></trkpt><trkpt lat="45.37014402107366" lon="9.125939061668802"><ele>103.0</ele><time>2026-03-28T17:20:43Z</time></trkpt><trkpt lat="45.37035131661413" lon="9.126137048327216"><ele>103.0</ele><time>2026-03-28T17:20:44Z</time></trkpt><trkpt lat="45.370560013808976" lon="9.126333985108143"><ele>101.5</ele><time>2026-03-28T17:20:45Z</time></trkpt><trkpt lat="45.37076865393453" lon="9.126528770376733"><ele>100.0</ele><time>2026-03-28T17:20:45.999Z</time></trkpt><trkpt lat="45.37097897702505" lon="9.126719364030228"><ele>100.0</ele><time>2026-03-28T17:20:46.999Z</time></trkpt><trkpt lat="45.37119080119897" lon="9.126912891261611"><ele>100.0</ele><time>2026-03-28T17:20:47.999Z</time></trkpt><trkpt lat="45.37139838289781" lon="9.12710772983427"><ele>100.0</ele><time>2026-03-28T17:20:48.999Z</time></trkpt><trkpt lat="45.3716059387586" lon="9.127303600558125"><ele>100.0</ele><time>2026-03-28T17:20:49.999Z</time></trkpt><trkpt lat="45.3718151606047" lon="9.127492768627485"><ele>100.5</ele><time>2026-03-28T17:20:50.999Z</time></trkpt><trkpt lat="45.37202322601323" lon="9.12768535925086"><ele>101.0</ele><time>2026-03-28T17:20:51.999Z</time></trkpt><trkpt lat="45.37222989717351" lon="9.12787652099341"><ele>101.0</ele><time>2026-03-28T17:20:52.999Z</time></trkpt><trkpt lat="45.37243747411596" lon="9.128069457951916"><ele>101.0</ele><time>2026-03-28T17:20:53.999Z</time></trkpt><trkpt lat="45.37264549685037" lon="9.128263619920302"><ele>100.5</ele><time>2026-03-28T17:20:54.999Z</time></trkpt><trkpt lat="45.37285120573435" lon="9.128454951788203"><ele>100.0</ele><time>2026-03-28T17:20:55.999Z</time></trkpt><trkpt lat="45.37305929138312" lon="9.128646962090988"><ele>99.5</ele><time>2026-03-28T17:20:56.999Z</time></trkpt><trkpt lat="45.37326618112415" lon="9.128843510917164"><ele>99.0</ele><time>2026-03-28T17:20:57.999Z</time></trkpt><trkpt lat="45.3734729384971" lon="9.12903612412774"><ele>101.0</ele><time>2026-03-28T17:20:58.999Z</time></trkpt><trkpt lat="45.37368133647711" lon="9.129227326268884"><ele>103.0</ele><time>2026-03-28T17:20:59.999Z</time></trkpt><trkpt lat="45.37389013750627" lon="9.129412364539181"><ele>103.0</ele><time>2026-03-28T17:21:00.999Z</time></trkpt><trkpt lat="45.37410097224502" lon="9.129596042061792"><ele>103.0</ele><time>2026-03-28T17:21:01.999Z</time></trkpt><trkpt lat="45.374309876374205" lon="9.129779015989847"><ele>102.5</ele><time>2026-03-28T17:21:02.999Z</time></trkpt><trkpt lat="45.37452136694451" lon="9.129958575527548"><ele>102.0</ele><time>2026-03-28T17:21:03.999Z</time></trkpt><trkpt lat="45.37473670831764" lon="9.130136370310435"><ele>101.5</ele><time>2026-03-28T17:21:04.999Z</time></trkpt><trkpt lat="45.37495338826598" lon="9.130308601901884"><ele>101.0</ele><time>2026-03-28T17:21:05.999Z</time></trkpt><trkpt lat="45.37517444741131" lon="9.130474532346222"><ele>101.0</ele><time>2026-03-28T17:21:06.999Z</time></trkpt><trkpt lat="45.37539699600215" lon="9.130636976109603"><ele>101.0</ele><time>2026-03-28T17:21:07.999Z</time></trkpt><trkpt lat="45.375619482378774" lon="9.130792858863247"><ele>101.0</ele><time>2026-03-28T17:21:08.999Z</time></trkpt><trkpt lat="45.37584496202888" lon="9.130944225911115"><ele>101.0</ele><time>2026-03-28T17:21:09.999Z</time></trkpt><trkpt lat="45.376072048172034" lon="9.131090354239895"><ele>101.0</ele><time>2026-03-28T17:21:10.999Z</time></trkpt><trkpt lat="45.376299668509034" lon="9.131231762339151"><ele>101.0</ele><time>2026-03-28T17:21:11.999Z</time></trkpt><trkpt lat="45.3765293154087" lon="9.131368936920754"><ele>101.0</ele><time>2026-03-28T17:21:12.999Z</time></trkpt><trkpt lat="45.37675987447881" lon="9.13150348232112"><ele>101.0</ele><time>2026-03-28T17:21:13.999Z</time></trkpt><trkpt lat="45.376990194012755" lon="9.131639503098468"><ele>100.5</ele><time>2026-03-28T17:21:14.999Z</time></trkpt><trkpt lat="45.37721729171457" lon="9.13178145327109"><ele>100.0</ele><time>2026-03-28T17:21:15.999Z</time></trkpt><trkpt lat="45.377445383870366" lon="9.131920639515426"><ele>100.0</ele><time>2026-03-28T17:21:16.999Z</time></trkpt><trkpt lat="45.377674369604335" lon="9.132057605304507"><ele>100.0</ele><time>2026-03-28T17:21:17.999Z</time></trkpt><trkpt lat="45.377905492019934" lon="9.132193855805442"><ele>101.5</ele><time>2026-03-28T17:21:18.999Z</time></trkpt><trkpt lat="45.37813067192264" lon="9.132326246230722"><ele>103.0</ele><time>2026-03-28T17:21:19.999Z</time></trkpt><trkpt lat="45.37835690611323" lon="9.132457701370692"><ele>103.0</ele><time>2026-03-28T17:21:20.999Z</time></trkpt><trkpt lat="45.37857791141475" lon="9.132585237623712"><ele>103.0</ele><time>2026-03-28T17:21:21.999Z</time></trkpt><trkpt lat="45.378798073525594" lon="9.132714636930753"><ele>102.0</ele><time>2026-03-28T17:21:22.999Z</time></trkpt><trkpt lat="45.37901826278321" lon="9.132846555344946"><ele>101.0</ele><time>2026-03-28T17:21:23.999Z</time></trkpt><trkpt lat="45.379235130995525" lon="9.132978338645618"><ele>101.0</ele><time>2026-03-28T17:21:24.999Z</time></trkpt><trkpt lat="45.37944985288123" lon="9.133105867038946"><ele>101.0</ele><time>2026-03-28T17:21:25.999Z</time></trkpt><trkpt lat="45.37966034618989" lon="9.133229119004476"><ele>101.33333333333333</ele><time>2026-03-28T17:21:26.999Z</time></trkpt><trkpt lat="45.37986262412121" lon="9.133348727178255"><ele>101.66666666666666</ele><time>2026-03-28T17:21:27.999Z</time></trkpt><trkpt lat="45.38006510082669" lon="9.133469900512585"><ele>102.0</ele><time>2026-03-28T17:21:28.999Z</time></trkpt><trkpt lat="45.38027026269315" lon="9.13358918999655"><ele>102.0</ele><time>2026-03-28T17:21:29.999Z</time></trkpt><trkpt lat="45.38047600017094" lon="9.133705014725562"><ele>102.0</ele><time>2026-03-28T17:21:30.999Z</time></trkpt><trkpt lat="45.380680704463174" lon="9.133827818080523"><ele>102.0</ele><time>2026-03-28T17:21:31.999Z</time></trkpt><trkpt lat="45.38088381995414" lon="9.133947699185226"><ele>101.66666666666666</ele><time>2026-03-28T17:21:32.999Z</time></trkpt><trkpt lat="45.38109035602312" lon="9.134069371633142"><ele>101.33333333333333</ele><time>2026-03-28T17:21:33.999Z</time></trkpt><trkpt lat="45.381295322325585" lon="9.134190227458573"><ele>101.0</ele><time>2026-03-28T17:21:34.999Z</time></trkpt><trkpt lat="45.38150170504122" lon="9.134309707591152"><ele>101.66666666666666</ele><time>2026-03-28T17:21:35.999Z</time></trkpt><trkpt lat="45.38171063962962" lon="9.134428423852269"><ele>102.33333333333334</ele><time>2026-03-28T17:21:36.999Z</time></trkpt><trkpt lat="45.38191848606406" lon="9.134548001109806"><ele>103.0</ele><time>2026-03-28T17:21:37.999Z</time></trkpt><trkpt lat="45.382127955141094" lon="9.134669042932854"><ele>102.33333333333334</ele><time>2026-03-28T17:21:38.999Z</time></trkpt><trkpt lat="45.38233293674421" lon="9.134791102444689"><ele>101.66666666666666</ele><time>2026-03-28T17:21:39.999Z</time></trkpt><trkpt lat="45.38254038705727" lon="9.134912689870779"><ele>101.0</ele><time>2026-03-28T17:21:40.999Z</time></trkpt><trkpt lat="45.382745130314326" lon="9.135030520712307"><ele>101.0</ele><time>2026-03-28T17:21:41.999Z</time></trkpt><trkpt lat="45.382937854616685" lon="9.13514725772196"><ele>101.0</ele><time>2026-03-28T17:21:42.999Z</time></trkpt><trkpt lat="45.38312436137238" lon="9.135263629495908"><ele>101.0</ele><time>2026-03-28T17:21:43.999Z</time></trkpt><trkpt lat="45.38331396607722" lon="9.135376275900898"><ele>101.0</ele><time>2026-03-28T17:21:44.999Z</time></trkpt><trkpt lat="45.38350240453492" lon="9.135488830439073"><ele>101.0</ele><time>2026-03-28T17:21:45.999Z</time></trkpt><trkpt lat="45.38369170858221" lon="9.135593213218096"><ele>101.0</ele><time>2026-03-28T17:21:46.999Z</time></trkpt><trkpt lat="45.3838733910871" lon="9.135696701091527"><ele>100.66666666666666</ele><time>2026-03-28T17:21:47.999Z</time></trkpt><trkpt lat="45.38405064043103" lon="9.135801838485524"><ele>100.33333333333334</ele><time>2026-03-28T17:21:48.999Z</time></trkpt><trkpt lat="45.384224892911945" lon="9.135902194539659"><ele>100.0</ele><time>2026-03-28T17:21:49.999Z</time></trkpt><trkpt lat="45.384401279803555" lon="9.1360034769676"><ele>100.0</ele><time>2026-03-28T17:21:50.999Z</time></trkpt><trkpt lat="45.38457779047742" lon="9.13610488008381"><ele>100.0</ele><time>2026-03-28T17:21:51.999Z</time></trkpt><trkpt lat="45.384753269817544" lon="9.13621031222092"><ele>100.0</ele><time>2026-03-28T17:21:52.999Z</time></trkpt><trkpt lat="45.384929740633034" lon="9.136317114813444"><ele>100.0</ele><time>2026-03-28T17:21:53.999Z</time></trkpt><trkpt lat="45.38510074665094" lon="9.136421731376581"><ele>100.0</ele><time>2026-03-28T17:21:54.999Z</time></trkpt><trkpt lat="45.38526358270361" lon="9.136531007864773"><ele>100.0</ele><time>2026-03-28T17:21:55.999Z</time></trkpt><trkpt lat="45.38542559591539" lon="9.136641677312882"><ele>100.33333333333334</ele><time>2026-03-28T17:21:56.999Z</time></trkpt><trkpt lat="45.38558800352313" lon="9.13675163190326"><ele>100.66666666666666</ele><time>2026-03-28T17:21:57.999Z</time></trkpt><trkpt lat="45.38574919518938" lon="9.136858574412656"><ele>101.0</ele><time>2026-03-28T17:21:58.999Z</time></trkpt><trkpt lat="45.38591041431699" lon="9.136966693975328"><ele>101.0</ele><time>2026-03-28T17:22:00Z</time></trkpt><trkpt lat="45.38607032086331" lon="9.137080672810129"><ele>101.0</ele><time>2026-03-28T17:22:01Z</time></trkpt><trkpt lat="45.38622990297832" lon="9.13719688393513"><ele>101.0</ele><time>2026-03-28T17:22:02Z</time></trkpt><trkpt lat="45.386385871136795" lon="9.137322167067174"><ele>101.33333333333333</ele><time>2026-03-28T17:22:03Z</time></trkpt><trkpt lat="45.38653727446231" lon="9.137448111490388"><ele>101.66666666666666</ele><time>2026-03-28T17:22:04Z</time></trkpt><trkpt lat="45.38668519001449" lon="9.13757668163853"><ele>102.0</ele><time>2026-03-28T17:22:05Z</time></trkpt><trkpt lat="45.38683024227131" lon="9.137705941012207"><ele>102.0</ele><time>2026-03-28T17:22:06Z</time></trkpt><trkpt lat="45.386972475743136" lon="9.137835354341657"><ele>102.0</ele><time>2026-03-28T17:22:07Z</time></trkpt><trkpt lat="45.38711568534493" lon="9.13796508215389"><ele>102.0</ele><time>2026-03-28T17:22:08Z</time></trkpt><trkpt lat="45.38725605893395" lon="9.138092027146895"><ele>102.0</ele><time>2026-03-28T17:22:09Z</time></trkpt><trkpt lat="45.38739373185243" lon="9.138214549516439"><ele>102.0</ele><time>2026-03-28T17:22:10Z</time></trkpt><trkpt lat="45.387592419495924" lon="9.13817864895501"><ele>102.0</ele><time>2026-03-28T17:22:11Z</time></trkpt><trkpt lat="45.387730587624965" lon="9.138285647211328"><ele>101.66666666666666</ele><time>2026-03-28T17:22:12Z</time></trkpt><trkpt lat="45.38786921094382" lon="9.138389800040216"><ele>101.33333333333333</ele><time>2026-03-28T17:22:13Z</time></trkpt><trkpt lat="45.388006488329815" lon="9.138491598544192"><ele>101.0</ele><time>2026-03-28T17:22:14Z</time></trkpt><trkpt lat="45.38813480663232" lon="9.138584667154245"><ele>101.0</ele><time>2026-03-28T17:22:15Z</time></trkpt><trkpt lat="45.38825902410413" lon="9.13867286061988"><ele>101.0</ele><time>2026-03-28T17:22:16Z</time></trkpt><trkpt lat="45.38829968078147" lon="9.138980174748811"><ele>101.0</ele><time>2026-03-28T17:22:17Z</time></trkpt><trkpt lat="45.38840618320781" lon="9.139068734148248"><ele>101.19999999999999</ele><time>2026-03-28T17:22:18Z</time></trkpt><trkpt lat="45.3885090406033" lon="9.139147821957785"><ele>101.39999999999999</ele><time>2026-03-28T17:22:19Z</time></trkpt><trkpt lat="45.388609139009056" lon="9.139220070518578"><ele>101.6</ele><time>2026-03-28T17:22:20Z</time></trkpt><trkpt lat="45.388700162455606" lon="9.139277713350586"><ele>101.8</ele><time>2026-03-28T17:22:21Z</time></trkpt><trkpt lat="45.38878415495894" lon="9.139327307002675"><ele>102.0</ele><time>2026-03-28T17:22:22Z</time></trkpt><trkpt lat="45.38886974859153" lon="9.139372438478283"><ele>102.0</ele><time>2026-03-28T17:22:23Z</time></trkpt><trkpt lat="45.388950658810955" lon="9.139413754873479"><ele>102.0</ele><time>2026-03-28T17:22:24Z</time></trkpt><trkpt lat="45.38903689970804" lon="9.139456016293797"><ele>102.0</ele><time>2026-03-28T17:22:25Z</time></trkpt><trkpt lat="45.38912834236153" lon="9.139496963252459"><ele>102.0</ele><time>2026-03-28T17:22:26Z</time></trkpt><trkpt lat="45.38923484793104" lon="9.139548835846414"><ele>102.0</ele><time>2026-03-28T17:22:27Z</time></trkpt><trkpt lat="45.389353745373576" lon="9.13958631171961"><ele>102.0</ele><time>2026-03-28T17:22:28Z</time></trkpt><trkpt lat="45.38948095670186" lon="9.139610577755578"><ele>102.0</ele><time>2026-03-28T17:22:29Z</time></trkpt><trkpt lat="45.3896184007931" lon="9.139621277752937"><ele>102.0</ele><time>2026-03-28T17:22:30Z</time></trkpt><trkpt lat="45.38976440618705" lon="9.139623293436928"><ele>102.0</ele><time>2026-03-28T17:22:31Z</time></trkpt><trkpt lat="45.38992921344059" lon="9.139497033097573"><ele>102.66666666666666</ele><time>2026-03-28T17:22:32Z</time></trkpt><trkpt lat="45.39008345600508" lon="9.139527285095891"><ele>103.33333333333333</ele><time>2026-03-28T17:22:33Z</time></trkpt><trkpt lat="45.39024581816174" lon="9.139559883126067"><ele>104.0</ele><time>2026-03-28T17:22:34Z</time></trkpt><trkpt lat="45.39040805899825" lon="9.139608958445153"><ele>103.66666666666666</ele><time>2026-03-28T17:22:35Z</time></trkpt><trkpt lat="45.390582443218676" lon="9.139628136626111"><ele>103.33333333333334</ele><time>2026-03-28T17:22:36Z</time></trkpt><trkpt lat="45.39075377088746" lon="9.139668621153195"><ele>103.0</ele><time>2026-03-28T17:22:37Z</time></trkpt><trkpt lat="45.39092347888857" lon="9.139727359654827"><ele>103.0</ele><time>2026-03-28T17:22:38Z</time></trkpt><trkpt lat="45.39108511998586" lon="9.139800460615394"><ele>103.0</ele><time>2026-03-28T17:22:39Z</time></trkpt><trkpt lat="45.39125041868528" lon="9.139868307558956"><ele>103.0</ele><time>2026-03-28T17:22:40Z</time></trkpt><trkpt lat="45.39141636599562" lon="9.139935657489639"><ele>103.0</ele><time>2026-03-28T17:22:41Z</time></trkpt><trkpt lat="45.39158736608071" lon="9.139982536096463"><ele>103.0</ele><time>2026-03-28T17:22:42Z</time></trkpt><trkpt lat="45.391753236800135" lon="9.140039467092215"><ele>103.0</ele><time>2026-03-28T17:22:43Z</time></trkpt><trkpt lat="45.39191123349939" lon="9.140093476398285"><ele>103.0</ele><time>2026-03-28T17:22:44Z</time></trkpt><trkpt lat="45.39204949509029" lon="9.140201998559013"><ele>103.0</ele><time>2026-03-28T17:22:45Z</time></trkpt><trkpt lat="45.39219549721554" lon="9.140266701909468"><ele>103.0</ele><time>2026-03-28T17:22:46Z</time></trkpt><trkpt lat="45.39233938521696" lon="9.140333550483051"><ele>103.0</ele><time>2026-03-28T17:22:47Z</time></trkpt><trkpt lat="45.39248169859409" lon="9.140407128197326"><ele>103.0</ele><time>2026-03-28T17:22:48Z</time></trkpt><trkpt lat="45.39262284804545" lon="9.140495009203516"><ele>103.0</ele><time>2026-03-28T17:22:49Z</time></trkpt><trkpt lat="45.39275996319938" lon="9.140599883792374"><ele>102.66666666666667</ele><time>2026-03-28T17:22:50Z</time></trkpt><trkpt lat="45.392891391901145" lon="9.140718078929224"><ele>102.33333333333334</ele><time>2026-03-28T17:22:51Z</time></trkpt><trkpt lat="45.39301857537515" lon="9.140847289653161"><ele>102.0</ele><time>2026-03-28T17:22:51.999Z</time></trkpt><trkpt lat="45.39313749537139" lon="9.14098671477928"><ele>102.66666666666666</ele><time>2026-03-28T17:22:52.999Z</time></trkpt><trkpt lat="45.39325056892882" lon="9.14114090458579"><ele>103.33333333333333</ele><time>2026-03-28T17:22:53.999Z</time></trkpt><trkpt lat="45.393357277660954" lon="9.141307148933448"><ele>104.0</ele><time>2026-03-28T17:22:54.999Z</time></trkpt><trkpt lat="45.39345411136757" lon="9.141480789140187"><ele>105.0</ele><time>2026-03-28T17:22:55.999Z</time></trkpt><trkpt lat="45.3935419365932" lon="9.141661741725622"><ele>106.0</ele><time>2026-03-28T17:22:56.999Z</time></trkpt><trkpt lat="45.39361340701038" lon="9.141841403441433"><ele>107.0</ele><time>2026-03-28T17:22:57.999Z</time></trkpt><trkpt lat="45.39367900263319" lon="9.14202603767036"><ele>108.0</ele><time>2026-03-28T17:22:58.999Z</time></trkpt><trkpt lat="45.39373548820277" lon="9.142210385924084"><ele>108.0</ele><time>2026-03-28T17:22:59.999Z</time></trkpt><trkpt lat="45.39379306502741" lon="9.142397058178794"><ele>108.0</ele><time>2026-03-28T17:23:00.999Z</time></trkpt><trkpt lat="45.39385199001299" lon="9.142595005765411"><ele>108.0</ele><time>2026-03-28T17:23:01.999Z</time></trkpt><trkpt lat="45.3939106758033" lon="9.142801886309547"><ele>108.0</ele><time>2026-03-28T17:23:02.999Z</time></trkpt><trkpt lat="45.39397207580718" lon="9.14300732897471"><ele>108.0</ele><time>2026-03-28T17:23:03.999Z</time></trkpt><trkpt lat="45.394022374109824" lon="9.143215919249643"><ele>108.0</ele><time>2026-03-28T17:23:04.999Z</time></trkpt><trkpt lat="45.39405653103878" lon="9.14342592680662"><ele>107.75</ele><time>2026-03-28T17:23:05.999Z</time></trkpt><trkpt lat="45.3940791132164" lon="9.14362653140195"><ele>107.5</ele><time>2026-03-28T17:23:06.999Z</time></trkpt><trkpt lat="45.39409016108693" lon="9.143822807879252"><ele>107.25</ele><time>2026-03-28T17:23:07.999Z</time></trkpt><trkpt lat="45.39408759484838" lon="9.144006905678815"><ele>107.0</ele><time>2026-03-28T17:23:08.999Z</time></trkpt><trkpt lat="45.394080962417576" lon="9.144180296009866"><ele>107.0</ele><time>2026-03-28T17:23:09.999Z</time></trkpt><trkpt lat="45.3940691978525" lon="9.144336600635958"><ele>106.99999999999999</ele><time>2026-03-28T17:23:10.999Z</time></trkpt><trkpt lat="45.3940596278706" lon="9.144470920123318"><ele>106.99999999999999</ele><time>2026-03-28T17:23:11.999Z</time></trkpt><trkpt lat="45.39404299299521" lon="9.14457892742365"><ele>107.0</ele><time>2026-03-28T17:23:12.999Z</time></trkpt><trkpt lat="45.39401995844648" lon="9.14468333073638"><ele>107.0</ele><time>2026-03-28T17:23:13.999Z</time></trkpt><trkpt lat="45.393986549941495" lon="9.144803585140707"><ele>106.5</ele><time>2026-03-28T17:23:14.999Z</time></trkpt><trkpt lat="45.393941307238464" lon="9.144947201741083"><ele>106.0</ele><time>2026-03-28T17:23:15.999Z</time></trkpt><trkpt lat="45.393890051749786" lon="9.145104882718474"><ele>105.5</ele><time>2026-03-28T17:23:16.999Z</time></trkpt><trkpt lat="45.39383501244832" lon="9.145272986116742"><ele>105.0</ele><time>2026-03-28T17:23:17.999Z</time></trkpt><trkpt lat="45.393772870148865" lon="9.145451793124165"><ele>105.0</ele><time>2026-03-28T17:23:18.999Z</time></trkpt><trkpt lat="45.39371363421411" lon="9.145641621279474"><ele>105.0</ele><time>2026-03-28T17:23:19.999Z</time></trkpt><trkpt lat="45.393649073155714" lon="9.145838623928947"><ele>105.0</ele><time>2026-03-28T17:23:20.999Z</time></trkpt><trkpt lat="45.393584453524376" lon="9.146039967010923"><ele>105.0</ele><time>2026-03-28T17:23:21.999Z</time></trkpt><trkpt lat="45.39351933610942" lon="9.146247712935583"><ele>105.0</ele><time>2026-03-28T17:23:22.999Z</time></trkpt><trkpt lat="45.39345271314319" lon="9.146456691045259"><ele>105.0</ele><time>2026-03-28T17:23:23.999Z</time></trkpt><trkpt lat="45.39338516424739" lon="9.146667673569436"><ele>106.0</ele><time>2026-03-28T17:23:24.999Z</time></trkpt><trkpt lat="45.393316545192015" lon="9.146879542405742"><ele>107.0</ele><time>2026-03-28T17:23:25.999Z</time></trkpt><trkpt lat="45.39324589507482" lon="9.147093881113959"><ele>108.0</ele><time>2026-03-28T17:23:26.999Z</time></trkpt><trkpt lat="45.39317402159102" lon="9.147309704591057"><ele>107.66666666666666</ele><time>2026-03-28T17:23:27.999Z</time></trkpt><trkpt lat="45.393099484066155" lon="9.147526204888626"><ele>107.33333333333333</ele><time>2026-03-28T17:23:28.999Z</time></trkpt><trkpt lat="45.39302696612448" lon="9.147747739057278"><ele>107.0</ele><time>2026-03-28T17:23:29.999Z</time></trkpt><trkpt lat="45.3929531284611" lon="9.147969263884141"><ele>106.33333333333333</ele><time>2026-03-28T17:23:30.999Z</time></trkpt><trkpt lat="45.39287867465911" lon="9.14818858540081"><ele>105.66666666666666</ele><time>2026-03-28T17:23:31.999Z</time></trkpt><trkpt lat="45.39280275957333" lon="9.148408386777108"><ele>105.0</ele><time>2026-03-28T17:23:32.999Z</time></trkpt><trkpt lat="45.3927291507325" lon="9.148633205645213"><ele>105.33333333333334</ele><time>2026-03-28T17:23:33.999Z</time></trkpt><trkpt lat="45.39265607522106" lon="9.148853977882048"><ele>105.66666666666667</ele><time>2026-03-28T17:23:34.999Z</time></trkpt><trkpt lat="45.39258120360896" lon="9.149079038943603"><ele>106.0</ele><time>2026-03-28T17:23:35.999Z</time></trkpt><trkpt lat="45.39250461999603" lon="9.149303127370663"><ele>106.0</ele><time>2026-03-28T17:23:36.999Z</time></trkpt><trkpt lat="45.39242430128772" lon="9.14953136923009"><ele>106.0</ele><time>2026-03-28T17:23:37.999Z</time></trkpt><trkpt lat="45.39234629600462" lon="9.14975968473157"><ele>106.0</ele><time>2026-03-28T17:23:38.999Z</time></trkpt><trkpt lat="45.39226519762934" lon="9.149994461361704"><ele>106.33333333333334</ele><time>2026-03-28T17:23:39.999Z</time></trkpt><trkpt lat="45.39218112346065" lon="9.150237592142107"><ele>106.66666666666666</ele><time>2026-03-28T17:23:40.999Z</time></trkpt><trkpt lat="45.39209409910491" lon="9.150484728625422"><ele>107.0</ele><time>2026-03-28T17:23:41.999Z</time></trkpt><trkpt lat="45.39200868736403" lon="9.150735122410996"><ele>107.33333333333333</ele><time>2026-03-28T17:23:42.999Z</time></trkpt><trkpt lat="45.39191665652603" lon="9.150987396081876"><ele>107.66666666666666</ele><time>2026-03-28T17:23:43.999Z</time></trkpt><trkpt lat="45.391823381448944" lon="9.15124377127505"><ele>108.0</ele><time>2026-03-28T17:23:44.999Z</time></trkpt><trkpt lat="45.39172917272584" lon="9.151503656655208"><ele>107.0</ele><time>2026-03-28T17:23:45.999Z</time></trkpt><trkpt lat="45.39163529158286" lon="9.151770596772382"><ele>106.0</ele><time>2026-03-28T17:23:46.999Z</time></trkpt><trkpt lat="45.391541567753414" lon="9.152043723619794"><ele>105.0</ele><time>2026-03-28T17:23:47.999Z</time></trkpt><trkpt lat="45.39144201822151" lon="9.152319896008818"><ele>105.33333333333334</ele><time>2026-03-28T17:23:48.999Z</time></trkpt><trkpt lat="45.391342096413105" lon="9.152595793316383"><ele>105.66666666666667</ele><time>2026-03-28T17:23:49.999Z</time></trkpt><trkpt lat="45.39124494321688" lon="9.152871861865254"><ele>106.0</ele><time>2026-03-28T17:23:50.999Z</time></trkpt><trkpt lat="45.39114391707086" lon="9.153152467362554"><ele>105.66666666666667</ele><time>2026-03-28T17:23:51.999Z</time></trkpt><trkpt lat="45.39104772953799" lon="9.153428762884968"><ele>105.33333333333334</ele><time>2026-03-28T17:23:52.999Z</time></trkpt><trkpt lat="45.39095044293172" lon="9.15370478298647"><ele>105.0</ele><time>2026-03-28T17:23:53.999Z</time></trkpt><trkpt lat="45.39085417170639" lon="9.153984715277808"><ele>106.0</ele><time>2026-03-28T17:23:54.999Z</time></trkpt><trkpt lat="45.39075785165343" lon="9.15426387299661"><ele>107.0</ele><time>2026-03-28T17:23:55.999Z</time></trkpt><trkpt lat="45.39066031415291" lon="9.154540568247262"><ele>108.0</ele><time>2026-03-28T17:23:56.999Z</time></trkpt><trkpt lat="45.39056304800619" lon="9.154814721420912"><ele>107.0</ele><time>2026-03-28T17:23:57.999Z</time></trkpt><trkpt lat="45.39046298757873" lon="9.155088475604725"><ele>106.0</ele><time>2026-03-28T17:23:58.999Z</time></trkpt><trkpt lat="45.39036384129729" lon="9.155362389771778"><ele>105.0</ele><time>2026-03-28T17:23:59.999Z</time></trkpt><trkpt lat="45.39026565644444" lon="9.155637678496225"><ele>104.66666666666666</ele><time>2026-03-28T17:24:00.999Z</time></trkpt><trkpt lat="45.39016992768697" lon="9.15591071942159"><ele>104.33333333333333</ele><time>2026-03-28T17:24:01.999Z</time></trkpt><trkpt lat="45.39007306461911" lon="9.156186355545886"><ele>104.0</ele><time>2026-03-28T17:24:02.999Z</time></trkpt><trkpt lat="45.38997556204415" lon="9.156461133225834"><ele>103.66666666666666</ele><time>2026-03-28T17:24:03.999Z</time></trkpt><trkpt lat="45.389876697496504" lon="9.156732262673255"><ele>103.33333333333334</ele><time>2026-03-28T17:24:04.999Z</time></trkpt><trkpt lat="45.389777104561546" lon="9.157003919686066"><ele>103.0</ele><time>2026-03-28T17:24:06Z</time></trkpt><trkpt lat="45.38967865109169" lon="9.157273348868992"><ele>103.66666666666667</ele><time>2026-03-28T17:24:07Z</time></trkpt><trkpt lat="45.38958129499956" lon="9.157548089922267"><ele>104.33333333333334</ele><time>2026-03-28T17:24:08Z</time></trkpt><trkpt lat="45.38948392734527" lon="9.157822339079795"><ele>105.0</ele><time>2026-03-28T17:24:09Z</time></trkpt><trkpt lat="45.389386217960784" lon="9.158095932901912"><ele>104.66666666666666</ele><time>2026-03-28T17:24:10Z</time></trkpt><trkpt lat="45.38928680237825" lon="9.158366607677122"><ele>104.33333333333333</ele><time>2026-03-28T17:24:11Z</time></trkpt><trkpt lat="45.38918966667594" lon="9.158639793753567"><ele>104.0</ele><time>2026-03-28T17:24:12Z</time></trkpt><trkpt lat="45.38909537856674" lon="9.158915150687678"><ele>104.33333333333333</ele><time>2026-03-28T17:24:13Z</time></trkpt><trkpt lat="45.38899825729017" lon="9.159188724498645"><ele>104.66666666666666</ele><time>2026-03-28T17:24:14Z</time></trkpt><trkpt lat="45.388900737131884" lon="9.159462856528355"><ele>105.0</ele><time>2026-03-28T17:24:15Z</time></trkpt><trkpt lat="45.388806068323696" lon="9.159738772669186"><ele>104.0</ele><time>2026-03-28T17:24:16Z</time></trkpt><trkpt lat="45.388708428287295" lon="9.160013076631982"><ele>103.0</ele><time>2026-03-28T17:24:17Z</time></trkpt><trkpt lat="45.38861478570812" lon="9.160290653995308"><ele>102.0</ele><time>2026-03-28T17:24:18Z</time></trkpt><trkpt lat="45.38851838344683" lon="9.160564304684158"><ele>101.66666666666666</ele><time>2026-03-28T17:24:19Z</time></trkpt><trkpt lat="45.388421313054316" lon="9.160837041509259"><ele>101.33333333333333</ele><time>2026-03-28T17:24:20Z</time></trkpt><trkpt lat="45.38832503513817" lon="9.161112114857206"><ele>101.0</ele><time>2026-03-28T17:24:21Z</time></trkpt><trkpt lat="45.38822912444807" lon="9.161387467022172"><ele>101.0</ele><time>2026-03-28T17:24:22Z</time></trkpt><trkpt lat="45.38812947209259" lon="9.161661955743163"><ele>101.0</ele><time>2026-03-28T17:24:23Z</time></trkpt><trkpt lat="45.38803062859852" lon="9.161936100341048"><ele>101.0</ele><time>2026-03-28T17:24:24Z</time></trkpt><trkpt lat="45.38793331171066" lon="9.16221103553214"><ele>101.33333333333333</ele><time>2026-03-28T17:24:25Z</time></trkpt><trkpt lat="45.38783609190212" lon="9.16248518989233"><ele>101.66666666666666</ele><time>2026-03-28T17:24:26Z</time></trkpt><trkpt lat="45.387735944364245" lon="9.162756901991209"><ele>102.0</ele><time>2026-03-28T17:24:27Z</time></trkpt><trkpt lat="45.38764363371235" lon="9.163033526951818"><ele>101.66666666666666</ele><time>2026-03-28T17:24:28Z</time></trkpt><trkpt lat="45.387550678317965" lon="9.163310119586306"><ele>101.33333333333333</ele><time>2026-03-28T17:24:29Z</time></trkpt><trkpt lat="45.3874585474216" lon="9.163588276867992"><ele>101.0</ele><time>2026-03-28T17:24:30Z</time></trkpt><trkpt lat="45.387363187230044" lon="9.163863972280867"><ele>101.33333333333333</ele><time>2026-03-28T17:24:31Z</time></trkpt><trkpt lat="45.38726427365544" lon="9.164137866112341"><ele>101.66666666666666</ele><time>2026-03-28T17:24:32Z</time></trkpt><trkpt lat="45.38716619630114" lon="9.164410666586729"><ele>102.0</ele><time>2026-03-28T17:24:33Z</time></trkpt><trkpt lat="45.38707110750333" lon="9.164685622952819"><ele>101.66666666666666</ele><time>2026-03-28T17:24:34Z</time></trkpt><trkpt lat="45.38697670949401" lon="9.164959438421185"><ele>101.33333333333333</ele><time>2026-03-28T17:24:35Z</time></trkpt><trkpt lat="45.38688642959178" lon="9.165236361781627"><ele>101.0</ele><time>2026-03-28T17:24:36Z</time></trkpt><trkpt lat="45.386801491050356" lon="9.165517790357535"><ele>100.33333333333333</ele><time>2026-03-28T17:24:37Z</time></trkpt><trkpt lat="45.38672150677911" lon="9.165801933875404"><ele>99.66666666666666</ele><time>2026-03-28T17:24:38Z</time></trkpt><trkpt lat="45.386646198468696" lon="9.16609015673188"><ele>99.0</ele><time>2026-03-28T17:24:39Z</time></trkpt><trkpt lat="45.38657558186147" lon="9.166378571380692"><ele>98.66666666666666</ele><time>2026-03-28T17:24:40Z</time></trkpt><trkpt lat="45.386506151629504" lon="9.166667490487958"><ele>98.33333333333333</ele><time>2026-03-28T17:24:41Z</time></trkpt><trkpt lat="45.386440390859654" lon="9.166959804656457"><ele>98.0</ele><time>2026-03-28T17:24:42Z</time></trkpt><trkpt lat="45.38638369734844" lon="9.167253452737228"><ele>100.33333333333333</ele><time>2026-03-28T17:24:43Z</time></trkpt><trkpt lat="45.386330301944206" lon="9.167549918942685"><ele>102.66666666666666</ele><time>2026-03-28T17:24:44Z</time></trkpt><trkpt lat="45.38628090088256" lon="9.167848711092832"><ele>105.0</ele><time>2026-03-28T17:24:45Z</time></trkpt><trkpt lat="45.38623710752822" lon="9.168147681247973"><ele>104.66666666666666</ele><time>2026-03-28T17:24:46Z</time></trkpt><trkpt lat="45.38619694691607" lon="9.168450422014633"><ele>104.33333333333333</ele><time>2026-03-28T17:24:47Z</time></trkpt><trkpt lat="45.3861636816994" lon="9.168754079826847"><ele>104.0</ele><time>2026-03-28T17:24:48Z</time></trkpt><trkpt lat="45.38613528719315" lon="9.169060526396418"><ele>104.0</ele><time>2026-03-28T17:24:49Z</time></trkpt><trkpt lat="45.386115277487015" lon="9.169367300406442"><ele>104.0</ele><time>2026-03-28T17:24:50Z</time></trkpt><trkpt lat="45.386098911169604" lon="9.169673806179059"><ele>104.0</ele><time>2026-03-28T17:24:51Z</time></trkpt><trkpt lat="45.38608724625398" lon="9.169979503687571"><ele>104.0</ele><time>2026-03-28T17:24:52Z</time></trkpt><trkpt lat="45.386078825844486" lon="9.170287409216648"><ele>104.0</ele><time>2026-03-28T17:24:53Z</time></trkpt><trkpt lat="45.386076318662184" lon="9.170593914329917"><ele>104.0</ele><time>2026-03-28T17:24:54Z</time></trkpt><trkpt lat="45.386082830785455" lon="9.17090121708941"><ele>104.0</ele><time>2026-03-28T17:24:55Z</time></trkpt><trkpt lat="45.38609155012217" lon="9.171207635135296"><ele>104.0</ele><time>2026-03-28T17:24:55.999Z</time></trkpt><trkpt lat="45.386106504985044" lon="9.171514718526625"><ele>104.0</ele><time>2026-03-28T17:24:56.999Z</time></trkpt><trkpt lat="45.38612821365025" lon="9.171824132204483"><ele>103.0</ele><time>2026-03-28T17:24:57.999Z</time></trkpt><trkpt lat="45.386153717158166" lon="9.172128167776629"><ele>102.0</ele><time>2026-03-28T17:24:58.999Z</time></trkpt><trkpt lat="45.386185212923756" lon="9.172434378866276"><ele>101.0</ele><time>2026-03-28T17:24:59.999Z</time></trkpt><trkpt lat="45.38622014078076" lon="9.172737890118926"><ele>101.0</ele><time>2026-03-28T17:25:00.999Z</time></trkpt><trkpt lat="45.38625862810667" lon="9.173040500932125"><ele>101.0</ele><time>2026-03-28T17:25:01.999Z</time></trkpt><trkpt lat="45.38630575680446" lon="9.173342457186017"><ele>101.0</ele><time>2026-03-28T17:25:02.999Z</time></trkpt><trkpt lat="45.386354657553404" lon="9.17364227930007"><ele>101.0</ele><time>2026-03-28T17:25:03.999Z</time></trkpt><trkpt lat="45.38640722040905" lon="9.173940477114664"><ele>101.0</ele><time>2026-03-28T17:25:04.999Z</time></trkpt><trkpt lat="45.38646534006096" lon="9.174236951302397"><ele>101.0</ele><time>2026-03-28T17:25:05.999Z</time></trkpt><trkpt lat="45.386530870721614" lon="9.174530784249102"><ele>101.0</ele><time>2026-03-28T17:25:06.999Z</time></trkpt><trkpt lat="45.38660144011162" lon="9.174822006594365"><ele>101.0</ele><time>2026-03-28T17:25:07.999Z</time></trkpt><trkpt lat="45.386677272047564" lon="9.175109506136494"><ele>101.0</ele><time>2026-03-28T17:25:08.999Z</time></trkpt><trkpt lat="45.38675550354523" lon="9.175398511366245"><ele>101.0</ele><time>2026-03-28T17:25:09.999Z</time></trkpt><trkpt lat="45.38683776175406" lon="9.175683253479763"><ele>101.0</ele><time>2026-03-28T17:25:10.999Z</time></trkpt><trkpt lat="45.38692602331332" lon="9.175965357647348"><ele>101.0</ele><time>2026-03-28T17:25:11.999Z</time></trkpt><trkpt lat="45.38701255301004" lon="9.17624381808582"><ele>101.0</ele><time>2026-03-28T17:25:12.999Z</time></trkpt><trkpt lat="45.38710848032694" lon="9.176519152243971"><ele>101.0</ele><time>2026-03-28T17:25:13.999Z</time></trkpt><trkpt lat="45.3872110982887" lon="9.17679311756116"><ele>101.0</ele><time>2026-03-28T17:25:14.999Z</time></trkpt><trkpt lat="45.38731559905456" lon="9.177061374707636"><ele>101.66666666666666</ele><time>2026-03-28T17:25:15.999Z</time></trkpt><trkpt lat="45.387422450972494" lon="9.17732890454715"><ele>102.33333333333334</ele><time>2026-03-28T17:25:16.999Z</time></trkpt><trkpt lat="45.387530496302276" lon="9.177594387113055"><ele>103.0</ele><time>2026-03-28T17:25:17.999Z</time></trkpt><trkpt lat="45.387636908160104" lon="9.17786132803046"><ele>103.0</ele><time>2026-03-28T17:25:18.999Z</time></trkpt><trkpt lat="45.387743764293454" lon="9.178127218285029"><ele>103.0</ele><time>2026-03-28T17:25:19.999Z</time></trkpt><trkpt lat="45.38784932175815" lon="9.178393567144234"><ele>103.0</ele><time>2026-03-28T17:25:20.999Z</time></trkpt><trkpt lat="45.387954284869934" lon="9.178660516756414"><ele>103.0</ele><time>2026-03-28T17:25:21.999Z</time></trkpt><trkpt lat="45.38805579955118" lon="9.178928810495181"><ele>103.0</ele><time>2026-03-28T17:25:22.999Z</time></trkpt><trkpt lat="45.38815572362834" lon="9.179199272220004"><ele>103.0</ele><time>2026-03-28T17:25:23.999Z</time></trkpt><trkpt lat="45.388254197376924" lon="9.17947066128608"><ele>102.66666666666667</ele><time>2026-03-28T17:25:24.999Z</time></trkpt><trkpt lat="45.38835211898882" lon="9.179743846912169"><ele>102.33333333333334</ele><time>2026-03-28T17:25:25.999Z</time></trkpt><trkpt lat="45.388450187535014" lon="9.18002009803087"><ele>102.0</ele><time>2026-03-28T17:25:26.999Z</time></trkpt><trkpt lat="45.38854480148204" lon="9.180295748677215"><ele>101.66666666666666</ele><time>2026-03-28T17:25:27.999Z</time></trkpt><trkpt lat="45.38863823045132" lon="9.180574040882274"><ele>101.33333333333333</ele><time>2026-03-28T17:25:28.999Z</time></trkpt><trkpt lat="45.388728445403" lon="9.18085224777961"><ele>101.0</ele><time>2026-03-28T17:25:29.999Z</time></trkpt><trkpt lat="45.388820263541085" lon="9.181131596685384"><ele>101.66666666666666</ele><time>2026-03-28T17:25:30.999Z</time></trkpt><trkpt lat="45.388909459617246" lon="9.18141157261431"><ele>102.33333333333334</ele><time>2026-03-28T17:25:31.999Z</time></trkpt><trkpt lat="45.38899716081797" lon="9.18169155472411"><ele>103.0</ele><time>2026-03-28T17:25:32.999Z</time></trkpt><trkpt lat="45.38908224039899" lon="9.181972712473568"><ele>103.0</ele><time>2026-03-28T17:25:33.999Z</time></trkpt><trkpt lat="45.389165883020766" lon="9.182261499395292"><ele>103.0</ele><time>2026-03-28T17:25:34.999Z</time></trkpt><trkpt lat="45.38924986680232" lon="9.182542014890275"><ele>103.0</ele><time>2026-03-28T17:25:35.999Z</time></trkpt><trkpt lat="45.38933171554213" lon="9.182824744717134"><ele>103.0</ele><time>2026-03-28T17:25:36.999Z</time></trkpt><trkpt lat="45.389412680841005" lon="9.183109210721069"><ele>103.0</ele><time>2026-03-28T17:25:37.999Z</time></trkpt><trkpt lat="45.38949086808925" lon="9.18339574081142"><ele>103.0</ele><time>2026-03-28T17:25:38.999Z</time></trkpt><trkpt lat="45.3895694247405" lon="9.183682085856228"><ele>102.66666666666667</ele><time>2026-03-28T17:25:39.999Z</time></trkpt><trkpt lat="45.38964376511751" lon="9.183970331001156"><ele>102.33333333333334</ele><time>2026-03-28T17:25:40.999Z</time></trkpt><trkpt lat="45.38971847368395" lon="9.184261992237126"><ele>102.0</ele><time>2026-03-28T17:25:41.999Z</time></trkpt><trkpt lat="45.3897918527694" lon="9.184551596053277"><ele>101.66666666666666</ele><time>2026-03-28T17:25:42.999Z</time></trkpt><trkpt lat="45.389862371605126" lon="9.18484171633641"><ele>101.33333333333333</ele><time>2026-03-28T17:25:43.999Z</time></trkpt><trkpt lat="45.38993142557167" lon="9.185134316418676"><ele>101.0</ele><time>2026-03-28T17:25:44.999Z</time></trkpt><trkpt lat="45.389998720421744" lon="9.185426462836457"><ele>101.0</ele><time>2026-03-28T17:25:45.999Z</time></trkpt><trkpt lat="45.390064259032066" lon="9.185720965723444"><ele>101.0</ele><time>2026-03-28T17:25:46.999Z</time></trkpt><trkpt lat="45.39013020927891" lon="9.186013188790136"><ele>101.0</ele><time>2026-03-28T17:25:47.999Z</time></trkpt><trkpt lat="45.39019476530527" lon="9.186305665208854"><ele>100.33333333333333</ele><time>2026-03-28T17:25:48.999Z</time></trkpt><trkpt lat="45.39025823464214" lon="9.186595684770374"><ele>99.66666666666666</ele><time>2026-03-28T17:25:49.999Z</time></trkpt><trkpt lat="45.390320123177574" lon="9.186890493544833"><ele>99.0</ele><time>2026-03-28T17:25:50.999Z</time></trkpt><trkpt lat="45.39037941490777" lon="9.187185196170027"><ele>99.33333333333334</ele><time>2026-03-28T17:25:51.999Z</time></trkpt><trkpt lat="45.39043812291765" lon="9.187481508282257"><ele>99.66666666666667</ele><time>2026-03-28T17:25:52.999Z</time></trkpt><trkpt lat="45.39049334229194" lon="9.1877783945268"><ele>100.0</ele><time>2026-03-28T17:25:53.999Z</time></trkpt><trkpt lat="45.390546469072085" lon="9.188076409361038"><ele>101.0</ele><time>2026-03-28T17:25:54.999Z</time></trkpt><trkpt lat="45.39059708869918" lon="9.188375242221666"><ele>102.0</ele><time>2026-03-28T17:25:55.999Z</time></trkpt><trkpt lat="45.39064671415232" lon="9.18867477295952"><ele>103.0</ele><time>2026-03-28T17:25:56.999Z</time></trkpt><trkpt lat="45.39069513338774" lon="9.188974436526479"><ele>103.0</ele><time>2026-03-28T17:25:57.999Z</time></trkpt><trkpt lat="45.3907437146723" lon="9.189273819829692"><ele>103.0</ele><time>2026-03-28T17:25:58.999Z</time></trkpt><trkpt lat="45.390790340603914" lon="9.189575000586148"><ele>103.0</ele><time>2026-03-28T17:25:59.999Z</time></trkpt><trkpt lat="45.390836420125375" lon="9.189875933478914"><ele>102.0</ele><time>2026-03-28T17:26:00.999Z</time></trkpt><trkpt lat="45.39088297731373" lon="9.190176544141007"><ele>101.0</ele><time>2026-03-28T17:26:01.999Z</time></trkpt><trkpt lat="45.390924210197255" lon="9.190476963695742"><ele>100.0</ele><time>2026-03-28T17:26:02.999Z</time></trkpt><trkpt lat="45.39096226478204" lon="9.190778536007784"><ele>100.0</ele><time>2026-03-28T17:26:03.999Z</time></trkpt><trkpt lat="45.39100048447628" lon="9.191081089882243"><ele>100.0</ele><time>2026-03-28T17:26:04.999Z</time></trkpt><trkpt lat="45.391038402514596" lon="9.191383409606173"><ele>100.0</ele><time>2026-03-28T17:26:05.999Z</time></trkpt><trkpt lat="45.3910736536413" lon="9.191683700814812"><ele>100.0</ele><time>2026-03-28T17:26:06.999Z</time></trkpt><trkpt lat="45.3911107896065" lon="9.19198677775363"><ele>100.0</ele><time>2026-03-28T17:26:07.999Z</time></trkpt><trkpt lat="45.391144132474295" lon="9.192290332208298"><ele>100.0</ele><time>2026-03-28T17:26:08.999Z</time></trkpt><trkpt lat="45.391177791889355" lon="9.192594801508925"><ele>100.0</ele><time>2026-03-28T17:26:09.999Z</time></trkpt><trkpt lat="45.391207731825645" lon="9.192898923437665"><ele>100.0</ele><time>2026-03-28T17:26:10.999Z</time></trkpt><trkpt lat="45.391234760164984" lon="9.19320433513928"><ele>100.0</ele><time>2026-03-28T17:26:12Z</time></trkpt><trkpt lat="45.39126401068617" lon="9.193509340522962"><ele>100.0</ele><time>2026-03-28T17:26:13Z</time></trkpt><trkpt lat="45.39128977410182" lon="9.193813579572787"><ele>100.0</ele><time>2026-03-28T17:26:14Z</time></trkpt><trkpt lat="45.39131571784731" lon="9.194116027008263"><ele>100.0</ele><time>2026-03-28T17:26:15Z</time></trkpt><trkpt lat="45.39133865065673" lon="9.194422847289232"><ele>100.0</ele><time>2026-03-28T17:26:16Z</time></trkpt><trkpt lat="45.39136034222166" lon="9.194729300684209"><ele>100.0</ele><time>2026-03-28T17:26:17Z</time></trkpt><trkpt lat="45.39137972231525" lon="9.195036390467875"><ele>100.0</ele><time>2026-03-28T17:26:18Z</time></trkpt><trkpt lat="45.39139561505398" lon="9.195344703358098"><ele>100.0</ele><time>2026-03-28T17:26:19Z</time></trkpt><trkpt lat="45.39140937146398" lon="9.195653548848998"><ele>100.0</ele><time>2026-03-28T17:26:20Z</time></trkpt><trkpt lat="45.39142248543418" lon="9.19596103272961"><ele>100.0</ele><time>2026-03-28T17:26:21Z</time></trkpt><trkpt lat="45.391436941334405" lon="9.196269371656616"><ele>100.0</ele><time>2026-03-28T17:26:22Z</time></trkpt><trkpt lat="45.391448063920336" lon="9.196579611850675"><ele>100.0</ele><time>2026-03-28T17:26:23Z</time></trkpt><trkpt lat="45.39145743778386" lon="9.196886290085192"><ele>100.0</ele><time>2026-03-28T17:26:24Z</time></trkpt><trkpt lat="45.39146391749049" lon="9.19719429595176"><ele>101.0</ele><time>2026-03-28T17:26:25Z</time></trkpt><trkpt lat="45.391467745647795" lon="9.197502780408769"><ele>102.0</ele><time>2026-03-28T17:26:26Z</time></trkpt><trkpt lat="45.39147168056304" lon="9.197809905085919"><ele>103.0</ele><time>2026-03-28T17:26:27Z</time></trkpt><trkpt lat="45.39147040450882" lon="9.198117965765874"><ele>103.66666666666667</ele><time>2026-03-28T17:26:28Z</time></trkpt><trkpt lat="45.39146875251647" lon="9.19842647186706"><ele>104.33333333333334</ele><time>2026-03-28T17:26:29Z</time></trkpt><trkpt lat="45.39146841140585" lon="9.198734545896365"><ele>105.0</ele><time>2026-03-28T17:26:30Z</time></trkpt><trkpt lat="45.39146657259929" lon="9.199041979622598"><ele>103.66666666666666</ele><time>2026-03-28T17:26:31Z</time></trkpt><trkpt lat="45.39146177825182" lon="9.199349644250594"><ele>102.33333333333333</ele><time>2026-03-28T17:26:32Z</time></trkpt><trkpt lat="45.39145909980587" lon="9.199657240492902"><ele>101.0</ele><time>2026-03-28T17:26:33Z</time></trkpt><trkpt lat="45.39145230815296" lon="9.199959401373508"><ele>101.0</ele><time>2026-03-28T17:26:34Z</time></trkpt><trkpt lat="45.39144225125252" lon="9.200266301759111"><ele>101.0</ele><time>2026-03-28T17:26:35Z</time></trkpt><trkpt lat="45.39143258990184" lon="9.200573179084019"><ele>101.0</ele><time>2026-03-28T17:26:36Z</time></trkpt><trkpt lat="45.391419586634754" lon="9.2008803471501"><ele>101.33333333333333</ele><time>2026-03-28T17:26:37Z</time></trkpt><trkpt lat="45.39140932686515" lon="9.201187212006479"><ele>101.66666666666666</ele><time>2026-03-28T17:26:38Z</time></trkpt><trkpt lat="45.39139986009704" lon="9.201493352184201"><ele>102.0</ele><time>2026-03-28T17:26:39Z</time></trkpt><trkpt lat="45.39138977589744" lon="9.201800275736009"><ele>102.0</ele><time>2026-03-28T17:26:40Z</time></trkpt><trkpt lat="45.39137578193314" lon="9.20210712344184"><ele>102.0</ele><time>2026-03-28T17:26:41Z</time></trkpt><trkpt lat="45.39136161473625" lon="9.202413256585292"><ele>102.0</ele><time>2026-03-28T17:26:42Z</time></trkpt><trkpt lat="45.39134399173578" lon="9.202720259344131"><ele>101.0</ele><time>2026-03-28T17:26:43Z</time></trkpt><trkpt lat="45.39132554219614" lon="9.203026496778856"><ele>100.0</ele><time>2026-03-28T17:26:44Z</time></trkpt><trkpt lat="45.391308046725804" lon="9.203331694064453"><ele>99.0</ele><time>2026-03-28T17:26:45Z</time></trkpt><trkpt lat="45.39129132675021" lon="9.203639502399698"><ele>99.0</ele><time>2026-03-28T17:26:46Z</time></trkpt><trkpt lat="45.39127418122812" lon="9.203946182075722"><ele>99.0</ele><time>2026-03-28T17:26:47Z</time></trkpt><trkpt lat="45.391252435506125" lon="9.204251550902567"><ele>99.0</ele><time>2026-03-28T17:26:48Z</time></trkpt><trkpt lat="45.39122956488662" lon="9.20455665723309"><ele>99.66666666666666</ele><time>2026-03-28T17:26:49Z</time></trkpt><trkpt lat="45.391205860134015" lon="9.204861955105754"><ele>100.33333333333333</ele><time>2026-03-28T17:26:50Z</time></trkpt><trkpt lat="45.39118239856544" lon="9.205167833020928"><ele>101.0</ele><time>2026-03-28T17:26:51Z</time></trkpt><trkpt lat="45.3911551976013" lon="9.205471650282048"><ele>101.66666666666666</ele><time>2026-03-28T17:26:52Z</time></trkpt><trkpt lat="45.39112991503755" lon="9.205776401288341"><ele>102.33333333333334</ele><time>2026-03-28T17:26:53Z</time></trkpt><trkpt lat="45.3910989086403" lon="9.206078595804472"><ele>103.0</ele><time>2026-03-28T17:26:54Z</time></trkpt><trkpt lat="45.391066959852715" lon="9.206381019366573"><ele>103.0</ele><time>2026-03-28T17:26:55Z</time></trkpt><trkpt lat="45.39103904643224" lon="9.206685300856774"><ele>103.0</ele><time>2026-03-28T17:26:56Z</time></trkpt><trkpt lat="45.391007517517274" lon="9.206986260295379"><ele>103.0</ele><time>2026-03-28T17:26:57Z</time></trkpt><trkpt lat="45.39097553701546" lon="9.207289193978953"><ele>102.0</ele><time>2026-03-28T17:26:58Z</time></trkpt><trkpt lat="45.390944937222024" lon="9.207590949079634"><ele>101.0</ele><time>2026-03-28T17:26:59Z</time></trkpt><trkpt lat="45.39091596536547" lon="9.20789164415218"><ele>100.0</ele><time>2026-03-28T17:27:00Z</time></trkpt><trkpt lat="45.39088095251963" lon="9.20819474567401"><ele>100.0</ele><time>2026-03-28T17:27:01Z</time></trkpt><trkpt lat="45.39084846050982" lon="9.20849879350593"><ele>100.0</ele><time>2026-03-28T17:27:01.999Z</time></trkpt><trkpt lat="45.390812594790674" lon="9.208802189423102"><ele>100.0</ele><time>2026-03-28T17:27:02.999Z</time></trkpt><trkpt lat="45.39077562078886" lon="9.209104140787062"><ele>101.33333333333334</ele><time>2026-03-28T17:27:03.999Z</time></trkpt><trkpt lat="45.39073741645658" lon="9.209406820284013"><ele>102.66666666666666</ele><time>2026-03-28T17:27:04.999Z</time></trkpt><trkpt lat="45.390697889005764" lon="9.209708207781715"><ele>104.0</ele><time>2026-03-28T17:27:05.999Z</time></trkpt><trkpt lat="45.39065289520849" lon="9.210007293254245"><ele>104.0</ele><time>2026-03-28T17:27:06.999Z</time></trkpt><trkpt lat="45.39061340374798" lon="9.210307264758297"><ele>104.0</ele><time>2026-03-28T17:27:07.999Z</time></trkpt><trkpt lat="45.39057052684174" lon="9.210608276313302"><ele>104.0</ele><time>2026-03-28T17:27:08.999Z</time></trkpt><trkpt lat="45.3905278274544" lon="9.21090907952748"><ele>104.0</ele><time>2026-03-28T17:27:09.999Z</time></trkpt><trkpt lat="45.390480782183225" lon="9.211211144932115"><ele>104.0</ele><time>2026-03-28T17:27:10.999Z</time></trkpt><trkpt lat="45.3904337260711" lon="9.211511853882053"><ele>104.0</ele><time>2026-03-28T17:27:11.999Z</time></trkpt><trkpt lat="45.39038711887328" lon="9.21181329595338"><ele>104.0</ele><time>2026-03-28T17:27:12.999Z</time></trkpt><trkpt lat="45.39033884013395" lon="9.212114283060552"><ele>104.0</ele><time>2026-03-28T17:27:13.999Z</time></trkpt><trkpt lat="45.390288915691414" lon="9.212415892891647"><ele>104.0</ele><time>2026-03-28T17:27:14.999Z</time></trkpt><trkpt lat="45.39023771073236" lon="9.212716726981137"><ele>104.33333333333333</ele><time>2026-03-28T17:27:15.999Z</time></trkpt><trkpt lat="45.390185732618924" lon="9.213014940973437"><ele>104.66666666666666</ele><time>2026-03-28T17:27:16.999Z</time></trkpt><trkpt lat="45.3901321073602" lon="9.213314316731719"><ele>105.0</ele><time>2026-03-28T17:27:17.999Z</time></trkpt><trkpt lat="45.390078354682565" lon="9.213614688954475"><ele>105.0</ele><time>2026-03-28T17:27:18.999Z</time></trkpt><trkpt lat="45.390022938960044" lon="9.21391278881234"><ele>105.0</ele><time>2026-03-28T17:27:19.999Z</time></trkpt><trkpt lat="45.389965031798724" lon="9.214211366227548"><ele>105.0</ele><time>2026-03-28T17:27:20.999Z</time></trkpt><trkpt lat="45.38990821197291" lon="9.21450926164299"><ele>105.33333333333334</ele><time>2026-03-28T17:27:21.999Z</time></trkpt><trkpt lat="45.38984883952664" lon="9.214808103569867"><ele>105.66666666666667</ele><time>2026-03-28T17:27:22.999Z</time></trkpt><trkpt lat="45.389791927003905" lon="9.215105469005247"><ele>106.0</ele><time>2026-03-28T17:27:23.999Z</time></trkpt><trkpt lat="45.38973291376219" lon="9.215403697357447"><ele>103.66666666666667</ele><time>2026-03-28T17:27:24.999Z</time></trkpt><trkpt lat="45.38967315125715" lon="9.215701031011768"><ele>101.33333333333334</ele><time>2026-03-28T17:27:25.999Z</time></trkpt><trkpt lat="45.38961254929896" lon="9.215996640667571"><ele>99.0</ele><time>2026-03-28T17:27:26.999Z</time></trkpt><trkpt lat="45.38954999078798" lon="9.21629137790095"><ele>99.0</ele><time>2026-03-28T17:27:27.999Z</time></trkpt><trkpt lat="45.389485376850956" lon="9.216586072873255"><ele>99.0</ele><time>2026-03-28T17:27:28.999Z</time></trkpt><trkpt lat="45.38942021118304" lon="9.21687906761826"><ele>99.0</ele><time>2026-03-28T17:27:29.999Z</time></trkpt><trkpt lat="45.389353339371056" lon="9.21717277429455"><ele>100.0</ele><time>2026-03-28T17:27:30.999Z</time></trkpt><trkpt lat="45.389284402528695" lon="9.217465799768616"><ele>101.0</ele><time>2026-03-28T17:27:31.999Z</time></trkpt><trkpt lat="45.38921466905616" lon="9.217759712154455"><ele>102.0</ele><time>2026-03-28T17:27:32.999Z</time></trkpt><trkpt lat="45.38914554012125" lon="9.218050778648262"><ele>102.0</ele><time>2026-03-28T17:27:33.999Z</time></trkpt><trkpt lat="45.38907742712711" lon="9.218343904307787"><ele>102.0</ele><time>2026-03-28T17:27:34.999Z</time></trkpt><trkpt lat="45.38900696891813" lon="9.218633937936383"><ele>102.0</ele><time>2026-03-28T17:27:35.999Z</time></trkpt><trkpt lat="45.388936824579616" lon="9.21892528186027"><ele>101.66666666666666</ele><time>2026-03-28T17:27:36.999Z</time></trkpt><trkpt lat="45.388866436310714" lon="9.219214966099681"><ele>101.33333333333333</ele><time>2026-03-28T17:27:37.999Z</time></trkpt><trkpt lat="45.388794297437336" lon="9.219506088024321"><ele>101.0</ele><time>2026-03-28T17:27:38.999Z</time></trkpt><trkpt lat="45.38872140466463" lon="9.219795127868451"><ele>101.0</ele><time>2026-03-28T17:27:39.999Z</time></trkpt><trkpt lat="45.38864889914406" lon="9.220082662464598"><ele>101.0</ele><time>2026-03-28T17:27:40.999Z</time></trkpt><trkpt lat="45.388573838050476" lon="9.220371800369335"><ele>101.0</ele><time>2026-03-28T17:27:41.999Z</time></trkpt><trkpt lat="45.38849804451125" lon="9.220662167673149"><ele>101.0</ele><time>2026-03-28T17:27:42.999Z</time></trkpt><trkpt lat="45.38842545200861" lon="9.220950778047223"><ele>101.0</ele><time>2026-03-28T17:27:43.999Z</time></trkpt><trkpt lat="45.388353517147905" lon="9.22124170488797"><ele>101.0</ele><time>2026-03-28T17:27:44.999Z</time></trkpt><trkpt lat="45.38828208381676" lon="9.221532306147191"><ele>101.0</ele><time>2026-03-28T17:27:45.999Z</time></trkpt><trkpt lat="45.38820981925206" lon="9.221820700818208"><ele>101.0</ele><time>2026-03-28T17:27:46.999Z</time></trkpt><trkpt lat="45.38813892412489" lon="9.222111104830594"><ele>101.0</ele><time>2026-03-28T17:27:47.999Z</time></trkpt><trkpt lat="45.38806727404531" lon="9.222401494416971"><ele>100.66666666666666</ele><time>2026-03-28T17:27:48.999Z</time></trkpt><trkpt lat="45.387994584998374" lon="9.222691390730278"><ele>100.33333333333334</ele><time>2026-03-28T17:27:49.999Z</time></trkpt><trkpt lat="45.38792260923487" lon="9.222981010464002"><ele>100.0</ele><time>2026-03-28T17:27:50.999Z</time></trkpt><trkpt lat="45.38785134211854" lon="9.22326927970997"><ele>99.66666666666667</ele><time>2026-03-28T17:27:51.999Z</time></trkpt><trkpt lat="45.38777950263017" lon="9.22355908042416"><ele>99.33333333333334</ele><time>2026-03-28T17:27:52.999Z</time></trkpt><trkpt lat="45.38770759173069" lon="9.223846899352072"><ele>99.0</ele><time>2026-03-28T17:27:53.999Z</time></trkpt><trkpt lat="45.387637029836135" lon="9.224135738586156"><ele>99.0</ele><time>2026-03-28T17:27:54.999Z</time></trkpt><trkpt lat="45.387566813398976" lon="9.22442621003451"><ele>99.0</ele><time>2026-03-28T17:27:55.999Z</time></trkpt><trkpt lat="45.3874955676336" lon="9.224714709455677"><ele>99.0</ele><time>2026-03-28T17:27:56.999Z</time></trkpt><trkpt lat="45.3874224300385" lon="9.225004830726595"><ele>99.66666666666666</ele><time>2026-03-28T17:27:57.999Z</time></trkpt><trkpt lat="45.38735253732873" lon="9.225293331008098"><ele>100.33333333333333</ele><time>2026-03-28T17:27:58.999Z</time></trkpt><trkpt lat="45.387282895029855" lon="9.225584714287764"><ele>101.0</ele><time>2026-03-28T17:27:59.999Z</time></trkpt><trkpt lat="45.38721456592464" lon="9.225872666764047"><ele>100.66666666666666</ele><time>2026-03-28T17:28:00.999Z</time></trkpt><trkpt lat="45.38714767046627" lon="9.226162869429904"><ele>100.33333333333334</ele><time>2026-03-28T17:28:01.999Z</time></trkpt><trkpt lat="45.38707886130168" lon="9.22645069490544"><ele>100.0</ele><time>2026-03-28T17:28:02.999Z</time></trkpt><trkpt lat="45.38700660339092" lon="9.226737805897972"><ele>99.66666666666667</ele><time>2026-03-28T17:28:03.999Z</time></trkpt><trkpt lat="45.38693520045458" lon="9.227027866382826"><ele>99.33333333333334</ele><time>2026-03-28T17:28:04.999Z</time></trkpt><trkpt lat="45.38686334071329" lon="9.227317414595474"><ele>99.0</ele><time>2026-03-28T17:28:05.999Z</time></trkpt><trkpt lat="45.38679182896683" lon="9.227606544440649"><ele>99.0</ele><time>2026-03-28T17:28:06.999Z</time></trkpt><trkpt lat="45.3867214860595" lon="9.227895277384006"><ele>99.0</ele><time>2026-03-28T17:28:07.999Z</time></trkpt><trkpt lat="45.38664891310408" lon="9.228185424887904"><ele>99.0</ele><time>2026-03-28T17:28:08.999Z</time></trkpt><trkpt lat="45.38657743348796" lon="9.228471431180834"><ele>99.66666666666666</ele><time>2026-03-28T17:28:09.999Z</time></trkpt><trkpt lat="45.386511841080136" lon="9.228741399082805"><ele>100.33333333333333</ele><time>2026-03-28T17:28:10.999Z</time></trkpt><trkpt lat="45.3864520235055" lon="9.229005151785332"><ele>101.0</ele><time>2026-03-28T17:28:11.999Z</time></trkpt><trkpt lat="45.38638897067716" lon="9.229265970623903"><ele>100.66666666666666</ele><time>2026-03-28T17:28:12.999Z</time></trkpt><trkpt lat="45.38632615400795" lon="9.229526381748158"><ele>100.33333333333334</ele><time>2026-03-28T17:28:13.999Z</time></trkpt><trkpt lat="45.386264626162756" lon="9.229793589117943"><ele>100.0</ele><time>2026-03-28T17:28:14.999Z</time></trkpt><trkpt lat="45.38619887280549" lon="9.230063934731229"><ele>100.66666666666667</ele><time>2026-03-28T17:28:15.999Z</time></trkpt><trkpt lat="45.386136075945764" lon="9.230334392041136"><ele>101.33333333333334</ele><time>2026-03-28T17:28:16.999Z</time></trkpt><trkpt lat="45.3860682518436" lon="9.230609150744389"><ele>102.0</ele><time>2026-03-28T17:28:18Z</time></trkpt><trkpt lat="45.38599987958354" lon="9.230884412474781"><ele>102.33333333333334</ele><time>2026-03-28T17:28:19Z</time></trkpt><trkpt lat="45.38592994575463" lon="9.23116502577989"><ele>102.66666666666667</ele><time>2026-03-28T17:28:20Z</time></trkpt><trkpt lat="45.38585762202833" lon="9.231449676353403"><ele>103.0</ele><time>2026-03-28T17:28:21Z</time></trkpt><trkpt lat="45.38578714474687" lon="9.231738440642777"><ele>103.0</ele><time>2026-03-28T17:28:22Z</time></trkpt><trkpt lat="45.38571587479422" lon="9.232026477752486"><ele>103.0</ele><time>2026-03-28T17:28:23Z</time></trkpt><trkpt lat="45.3856446755055" lon="9.232316825142979"><ele>103.0</ele><time>2026-03-28T17:28:24Z</time></trkpt><trkpt lat="45.38557651094692" lon="9.232605540195918"><ele>102.66666666666667</ele><time>2026-03-28T17:28:25Z</time></trkpt><trkpt lat="45.38550503660499" lon="9.232892477932173"><ele>102.33333333333334</ele><time>2026-03-28T17:28:26Z</time></trkpt><trkpt lat="45.38543082899748" lon="9.23318089722395"><ele>102.0</ele><time>2026-03-28T17:28:27Z</time></trkpt><trkpt lat="45.38536023084076" lon="9.233472992152034"><ele>102.0</ele><time>2026-03-28T17:28:28Z</time></trkpt><trkpt lat="45.38528929660682" lon="9.23376447501262"><ele>102.0</ele><time>2026-03-28T17:28:29Z</time></trkpt><trkpt lat="45.38521418300565" lon="9.234056205776147"><ele>102.0</ele><time>2026-03-28T17:28:30Z</time></trkpt><trkpt lat="45.385140228070476" lon="9.234348211769198"><ele>101.33333333333334</ele><time>2026-03-28T17:28:31Z</time></trkpt><trkpt lat="45.38506530249314" lon="9.234639925576321"><ele>100.66666666666667</ele><time>2026-03-28T17:28:32Z</time></trkpt><trkpt lat="45.3849916116552" lon="9.234932392234205"><ele>100.0</ele><time>2026-03-28T17:28:33Z</time></trkpt><trkpt lat="45.38491699305055" lon="9.235227378565119"><ele>100.0</ele><time>2026-03-28T17:28:34Z</time></trkpt><trkpt lat="45.384841991098526" lon="9.23552284214171"><ele>100.0</ele><time>2026-03-28T17:28:35Z</time></trkpt><trkpt lat="45.38476895514653" lon="9.23581792226364"><ele>100.0</ele><time>2026-03-28T17:28:36Z</time></trkpt><trkpt lat="45.38469533561073" lon="9.236114094604162"><ele>99.66666666666667</ele><time>2026-03-28T17:28:37Z</time></trkpt><trkpt lat="45.384620944713355" lon="9.236408822256266"><ele>99.33333333333334</ele><time>2026-03-28T17:28:38Z</time></trkpt><trkpt lat="45.38455028440269" lon="9.23670571046821"><ele>99.0</ele><time>2026-03-28T17:28:39Z</time></trkpt><trkpt lat="45.38448313805993" lon="9.237004113261461"><ele>99.0</ele><time>2026-03-28T17:28:40Z</time></trkpt><trkpt lat="45.384418688722306" lon="9.237304504501724"><ele>99.0</ele><time>2026-03-28T17:28:41Z</time></trkpt><trkpt lat="45.38435370129224" lon="9.237604725568575"><ele>99.0</ele><time>2026-03-28T17:28:42Z</time></trkpt><trkpt lat="45.384292823775205" lon="9.237908101020858"><ele>99.33333333333334</ele><time>2026-03-28T17:28:43Z</time></trkpt><trkpt lat="45.38422974105409" lon="9.238209581855966"><ele>99.66666666666667</ele><time>2026-03-28T17:28:44Z</time></trkpt><trkpt lat="45.384169872589545" lon="9.238516698149226"><ele>100.0</ele><time>2026-03-28T17:28:45Z</time></trkpt><trkpt lat="45.384109862473" lon="9.238823778173197"><ele>100.0</ele><time>2026-03-28T17:28:46Z</time></trkpt><trkpt lat="45.384054304678116" lon="9.239135937815705"><ele>100.0</ele><time>2026-03-28T17:28:47Z</time></trkpt><trkpt lat="45.38399827975154" lon="9.239450546751867"><ele>100.0</ele><time>2026-03-28T17:28:48Z</time></trkpt><trkpt lat="45.38394349182411" lon="9.239766583220966"><ele>100.0</ele><time>2026-03-28T17:28:49Z</time></trkpt><trkpt lat="45.38389244808001" lon="9.2400846842239"><ele>100.0</ele><time>2026-03-28T17:28:50Z</time></trkpt><trkpt lat="45.383841473962086" lon="9.24040381865785"><ele>100.0</ele><time>2026-03-28T17:28:51Z</time></trkpt><trkpt lat="45.3837929495484" lon="9.24072291548756"><ele>100.5</ele><time>2026-03-28T17:28:52Z</time></trkpt><trkpt lat="45.383743147008026" lon="9.241043609154689"><ele>101.0</ele><time>2026-03-28T17:28:53Z</time></trkpt><trkpt lat="45.38369558119446" lon="9.241364877687207"><ele>99.5</ele><time>2026-03-28T17:28:54Z</time></trkpt><trkpt lat="45.383653393169695" lon="9.241685214181606"><ele>98.0</ele><time>2026-03-28T17:28:55Z</time></trkpt><trkpt lat="45.38361154011758" lon="9.242002530989406"><ele>97.66666666666666</ele><time>2026-03-28T17:28:56Z</time></trkpt><trkpt lat="45.38357172504376" lon="9.242316937802066"><ele>97.33333333333334</ele><time>2026-03-28T17:28:57Z</time></trkpt><trkpt lat="45.383533830805256" lon="9.242630161829887"><ele>97.0</ele><time>2026-03-28T17:28:58Z</time></trkpt><trkpt lat="45.38349681607471" lon="9.242940471769863"><ele>97.33333333333334</ele><time>2026-03-28T17:28:59Z</time></trkpt><trkpt lat="45.38346639872171" lon="9.243249396473377"><ele>97.66666666666666</ele><time>2026-03-28T17:29:00Z</time></trkpt><trkpt lat="45.383435753434874" lon="9.243557127535974"><ele>98.0</ele><time>2026-03-28T17:29:01Z</time></trkpt><trkpt lat="45.38340968666142" lon="9.243867327842313"><ele>98.0</ele><time>2026-03-28T17:29:02Z</time></trkpt><trkpt lat="45.38338397466663" lon="9.244182189685464"><ele>98.0</ele><time>2026-03-28T17:29:03Z</time></trkpt><trkpt lat="45.38335880514139" lon="9.24449610318299"><ele>98.0</ele><time>2026-03-28T17:29:04Z</time></trkpt><trkpt lat="45.38333683406995" lon="9.244809629033771"><ele>98.0</ele><time>2026-03-28T17:29:05Z</time></trkpt><trkpt lat="45.38331470641387" lon="9.245121872597684"><ele>98.0</ele><time>2026-03-28T17:29:06Z</time></trkpt><trkpt lat="45.383295496703745" lon="9.245435124854135"><ele>98.0</ele><time>2026-03-28T17:29:07Z</time></trkpt><trkpt lat="45.38327857892381" lon="9.245753048570476"><ele>98.0</ele><time>2026-03-28T17:29:07.999Z</time></trkpt><trkpt lat="45.383260718728145" lon="9.246065474144743"><ele>98.0</ele><time>2026-03-28T17:29:08.999Z</time></trkpt><trkpt lat="45.38324247903007" lon="9.246379180216136"><ele>98.0</ele><time>2026-03-28T17:29:09.999Z</time></trkpt><trkpt lat="45.383221824970406" lon="9.246691952494235"><ele>98.0</ele><time>2026-03-28T17:29:10.999Z</time></trkpt><trkpt lat="45.383203961201126" lon="9.247005717935329"><ele>98.0</ele><time>2026-03-28T17:29:11.999Z</time></trkpt><trkpt lat="45.38318567058449" lon="9.247319758498433"><ele>98.0</ele><time>2026-03-28T17:29:12.999Z</time></trkpt><trkpt lat="45.38316577292762" lon="9.24763856671529"><ele>98.0</ele><time>2026-03-28T17:29:13.999Z</time></trkpt><trkpt lat="45.383146489898365" lon="9.247975681179451"><ele>98.0</ele><time>2026-03-28T17:29:14.999Z</time></trkpt><trkpt lat="45.383128571248484" lon="9.24832377814374"><ele>98.0</ele><time>2026-03-28T17:29:15.999Z</time></trkpt><trkpt lat="45.38311008992039" lon="9.248667696674316"><ele>98.0</ele><time>2026-03-28T17:29:16.999Z</time></trkpt><trkpt lat="45.38309045895699" lon="9.248997950141705"><ele>98.0</ele><time>2026-03-28T17:29:17.999Z</time></trkpt><trkpt lat="45.38307072769165" lon="9.249318109365195"><ele>98.0</ele><time>2026-03-28T17:29:18.999Z</time></trkpt><trkpt lat="45.38305114571598" lon="9.249629783609082"><ele>98.0</ele><time>2026-03-28T17:29:19.999Z</time></trkpt><trkpt lat="45.383032795474776" lon="9.249941046624379"><ele>98.0</ele><time>2026-03-28T17:29:20.999Z</time></trkpt><trkpt lat="45.383014905895735" lon="9.25025584440163"><ele>98.0</ele><time>2026-03-28T17:29:21.999Z</time></trkpt><trkpt lat="45.38299645952862" lon="9.250564122824176"><ele>98.0</ele><time>2026-03-28T17:29:22.999Z</time></trkpt><trkpt lat="45.382978361758745" lon="9.250856737844328"><ele>98.66666666666666</ele><time>2026-03-28T17:29:23.999Z</time></trkpt><trkpt lat="45.38295961615384" lon="9.251134137739859"><ele>99.33333333333334</ele><time>2026-03-28T17:29:24.999Z</time></trkpt><trkpt lat="45.38294171853914" lon="9.25139827489187"><ele>100.0</ele><time>2026-03-28T17:29:25.999Z</time></trkpt><trkpt lat="45.38292366503295" lon="9.251656972560392"><ele>100.0</ele><time>2026-03-28T17:29:26.999Z</time></trkpt><trkpt lat="45.38290602541617" lon="9.251920874256342"><ele>100.0</ele><time>2026-03-28T17:29:27.999Z</time></trkpt><trkpt lat="45.38289008569986" lon="9.252174012643678"><ele>100.0</ele><time>2026-03-28T17:29:28.999Z</time></trkpt><trkpt lat="45.38287683046" lon="9.252415250370328"><ele>100.0</ele><time>2026-03-28T17:29:29.999Z</time></trkpt><trkpt lat="45.382859501678645" lon="9.252644141817857"><ele>100.0</ele><time>2026-03-28T17:29:30.999Z</time></trkpt><trkpt lat="45.38284452650523" lon="9.252861956023331"><ele>100.0</ele><time>2026-03-28T17:29:31.999Z</time></trkpt><trkpt lat="45.38283059603488" lon="9.253069530407625"><ele>99.5</ele><time>2026-03-28T17:29:32.999Z</time></trkpt><trkpt lat="45.38281992948046" lon="9.25326725314766"><ele>99.0</ele><time>2026-03-28T17:29:33.999Z</time></trkpt><trkpt lat="45.38280849308948" lon="9.25345679559856"><ele>98.5</ele><time>2026-03-28T17:29:34.999Z</time></trkpt><trkpt lat="45.38279774101438" lon="9.253646889165712"><ele>98.0</ele><time>2026-03-28T17:29:35.999Z</time></trkpt><trkpt lat="45.38278709116898" lon="9.253842052484947"><ele>98.0</ele><time>2026-03-28T17:29:36.999Z</time></trkpt><trkpt lat="45.3827741097308" lon="9.254037478363061"><ele>98.0</ele><time>2026-03-28T17:29:37.999Z</time></trkpt><trkpt lat="45.382763056870395" lon="9.254226431149858"><ele>98.0</ele><time>2026-03-28T17:29:38.999Z</time></trkpt><trkpt lat="45.38274939066414" lon="9.254409687081498"><ele>98.0</ele><time>2026-03-28T17:29:39.999Z</time></trkpt><trkpt lat="45.382737565984336" lon="9.254598103201127"><ele>98.0</ele><time>2026-03-28T17:29:40.999Z</time></trkpt><trkpt lat="45.38272609646907" lon="9.25479091381649"><ele>98.0</ele><time>2026-03-28T17:29:41.999Z</time></trkpt><trkpt lat="45.38271322628298" lon="9.254989846475944"><ele>98.0</ele><time>2026-03-28T17:29:42.999Z</time></trkpt><trkpt lat="45.38270110323401" lon="9.255194846293495"><ele>98.0</ele><time>2026-03-28T17:29:43.999Z</time></trkpt><trkpt lat="45.38268761744965" lon="9.255405064888993"><ele>98.0</ele><time>2026-03-28T17:29:44.999Z</time></trkpt><trkpt lat="45.38267172732764" lon="9.255616566965854"><ele>98.0</ele><time>2026-03-28T17:29:45.999Z</time></trkpt><trkpt lat="45.38265988160253" lon="9.255828920944634"><ele>98.0</ele><time>2026-03-28T17:29:46.999Z</time></trkpt><trkpt lat="45.382648411471074" lon="9.256035335647534"><ele>98.0</ele><time>2026-03-28T17:29:47.999Z</time></trkpt><trkpt lat="45.382635252131145" lon="9.256233170190596"><ele>97.75</ele><time>2026-03-28T17:29:48.999Z</time></trkpt><trkpt lat="45.38262095925285" lon="9.256432966046336"><ele>97.5</ele><time>2026-03-28T17:29:49.999Z</time></trkpt><trkpt lat="45.38260989790147" lon="9.256638546704515"><ele>97.25</ele><time>2026-03-28T17:29:50.999Z</time></trkpt><trkpt lat="45.382596844813705" lon="9.25684426310826"><ele>97.0</ele><time>2026-03-28T17:29:51.999Z</time></trkpt><trkpt lat="45.38258279415261" lon="9.257052622194019"><ele>97.0</ele><time>2026-03-28T17:29:52.999Z</time></trkpt><trkpt lat="45.382567147006874" lon="9.257264033651582"><ele>97.0</ele><time>2026-03-28T17:29:53.999Z</time></trkpt><trkpt lat="45.382551378577794" lon="9.257475681081623"><ele>97.0</ele><time>2026-03-28T17:29:54.999Z</time></trkpt><trkpt lat="45.38253821756607" lon="9.257690625027974"><ele>97.33333333333334</ele><time>2026-03-28T17:29:55.999Z</time></trkpt><trkpt lat="45.382522491771255" lon="9.257905862045174"><ele>97.66666666666666</ele><time>2026-03-28T17:29:56.999Z</time></trkpt><trkpt lat="45.38250661225007" lon="9.258122926926896"><ele>98.0</ele><time>2026-03-28T17:29:57.999Z</time></trkpt><trkpt lat="45.38249086485109" lon="9.258343090165374"><ele>98.0</ele><time>2026-03-28T17:29:58.999Z</time></trkpt><trkpt lat="45.38247276246333" lon="9.258561781687913"><ele>98.0</ele><time>2026-03-28T17:29:59.999Z</time></trkpt><trkpt lat="45.38245264694167" lon="9.258776985426755"><ele>98.0</ele><time>2026-03-28T17:30:00.999Z</time></trkpt><trkpt lat="45.382436416631485" lon="9.258987603152075"><ele>98.0</ele><time>2026-03-28T17:30:01.999Z</time></trkpt><trkpt lat="45.38242055216806" lon="9.259189900891313"><ele>98.0</ele><time>2026-03-28T17:30:02.999Z</time></trkpt><trkpt lat="45.3824042616168" lon="9.259391888274575"><ele>98.0</ele><time>2026-03-28T17:30:03.999Z</time></trkpt><trkpt lat="45.382393309794345" lon="9.259594340171507"><ele>98.0</ele><time>2026-03-28T17:30:04.999Z</time></trkpt><trkpt lat="45.38238238741133" lon="9.259798427435868"><ele>97.75</ele><time>2026-03-28T17:30:05.999Z</time></trkpt><trkpt lat="45.38236900289402" lon="9.259997455647852"><ele>97.5</ele><time>2026-03-28T17:30:06.999Z</time></trkpt><trkpt lat="45.38235779921611" lon="9.260192765153477"><ele>97.25</ele><time>2026-03-28T17:30:07.999Z</time></trkpt><trkpt lat="45.3823456613374" lon="9.26038393456263"><ele>97.0</ele><time>2026-03-28T17:30:08.999Z</time></trkpt><trkpt lat="45.38233436938186" lon="9.260566290365874"><ele>97.0</ele><time>2026-03-28T17:30:09.999Z</time></trkpt><trkpt lat="45.38232186604193" lon="9.260745968147845"><ele>97.0</ele><time>2026-03-28T17:30:10.999Z</time></trkpt><trkpt lat="45.3823071533504" lon="9.260930727967885"><ele>97.0</ele><time>2026-03-28T17:30:11.999Z</time></trkpt><trkpt lat="45.38228686200319" lon="9.261123149585176"><ele>97.0</ele><time>2026-03-28T17:30:12.999Z</time></trkpt><trkpt lat="45.382260979725196" lon="9.261320320386401"><ele>97.0</ele><time>2026-03-28T17:30:13.999Z</time></trkpt><trkpt lat="45.382226992699415" lon="9.261522432128556"><ele>97.0</ele><time>2026-03-28T17:30:14.999Z</time></trkpt><trkpt lat="45.38218270043748" lon="9.261721559558856"><ele>97.0</ele><time>2026-03-28T17:30:15.999Z</time></trkpt><trkpt lat="45.38213121435169" lon="9.26192185778656"><ele>97.0</ele><time>2026-03-28T17:30:16.999Z</time></trkpt><trkpt lat="45.38207475066828" lon="9.262125637107225"><ele>97.0</ele><time>2026-03-28T17:30:17.999Z</time></trkpt><trkpt lat="45.382011407571355" lon="9.262334076950163"><ele>97.0</ele><time>2026-03-28T17:30:18.999Z</time></trkpt><trkpt lat="45.38194096706258" lon="9.262542894415416"><ele>97.0</ele><time>2026-03-28T17:30:19.999Z</time></trkpt><trkpt lat="45.381870960899676" lon="9.262752893428779"><ele>97.0</ele><time>2026-03-28T17:30:20.999Z</time></trkpt><trkpt lat="45.38180657324616" lon="9.262968787929639"><ele>97.0</ele><time>2026-03-28T17:30:21.999Z</time></trkpt><trkpt lat="45.381748442909725" lon="9.26318423428341"><ele>97.0</ele><time>2026-03-28T17:30:22.999Z</time></trkpt><trkpt lat="45.381703588075915" lon="9.263396868152899"><ele>97.33333333333334</ele><time>2026-03-28T17:30:24Z</time></trkpt><trkpt lat="45.38166888343222" lon="9.263605419515697"><ele>97.66666666666666</ele><time>2026-03-28T17:30:25Z</time></trkpt><trkpt lat="45.38166545461034" lon="9.263825270544201"><ele>98.0</ele><time>2026-03-28T17:30:26Z</time></trkpt><trkpt lat="45.38167527720868" lon="9.264045813206465"><ele>98.0</ele><time>2026-03-28T17:30:27Z</time></trkpt><trkpt lat="45.38170702620873" lon="9.264268819355966"><ele>98.0</ele><time>2026-03-28T17:30:28Z</time></trkpt><trkpt lat="45.3817646634031" lon="9.264492164938835"><ele>98.0</ele><time>2026-03-28T17:30:29Z</time></trkpt><trkpt lat="45.38184134918567" lon="9.26470948513586"><ele>98.66666666666666</ele><time>2026-03-28T17:30:30Z</time></trkpt><trkpt lat="45.381933438940735" lon="9.264921518911637"><ele>99.33333333333334</ele><time>2026-03-28T17:30:31Z</time></trkpt><trkpt lat="45.3820413688119" lon="9.265129403601131"><ele>100.0</ele><time>2026-03-28T17:30:32Z</time></trkpt><trkpt lat="45.382165732323394" lon="9.265328452982704"><ele>100.0</ele><time>2026-03-28T17:30:33Z</time></trkpt><trkpt lat="45.382294601023744" lon="9.265522043331663"><ele>100.0</ele><time>2026-03-28T17:30:34Z</time></trkpt><trkpt lat="45.38240939481758" lon="9.26570827315754"><ele>100.0</ele><time>2026-03-28T17:30:35Z</time></trkpt><trkpt lat="45.382522320022694" lon="9.265893055494642"><ele>100.66666666666667</ele><time>2026-03-28T17:30:36Z</time></trkpt><trkpt lat="45.38263933333519" lon="9.266076559059135"><ele>101.33333333333334</ele><time>2026-03-28T17:30:37Z</time></trkpt><trkpt lat="45.382759608281326" lon="9.266262232561473"><ele>102.0</ele><time>2026-03-28T17:30:38Z</time></trkpt><trkpt lat="45.382879023419775" lon="9.266450452865502"><ele>102.0</ele><time>2026-03-28T17:30:39Z</time></trkpt><trkpt lat="45.38299890843353" lon="9.266638286843198"><ele>102.0</ele><time>2026-03-28T17:30:40Z</time></trkpt><trkpt lat="45.38312028914537" lon="9.266826687010632"><ele>102.0</ele><time>2026-03-28T17:30:41Z</time></trkpt><trkpt lat="45.38324235794016" lon="9.267013820093856"><ele>101.66666666666666</ele><time>2026-03-28T17:30:42Z</time></trkpt><trkpt lat="45.38335921732162" lon="9.267192483184067"><ele>101.33333333333333</ele><time>2026-03-28T17:30:43Z</time></trkpt><trkpt lat="45.38347617715195" lon="9.26736995413205"><ele>101.0</ele><time>2026-03-28T17:30:44Z</time></trkpt><trkpt lat="45.38359245627735" lon="9.267548212910988"><ele>100.66666666666666</ele><time>2026-03-28T17:30:45Z</time></trkpt><trkpt lat="45.38370844656451" lon="9.267729953794381"><ele>100.33333333333334</ele><time>2026-03-28T17:30:46Z</time></trkpt><trkpt lat="45.383824611051644" lon="9.267917837281182"><ele>100.0</ele><time>2026-03-28T17:30:47Z</time></trkpt><trkpt lat="45.383941557853824" lon="9.268107475915393"><ele>99.33333333333334</ele><time>2026-03-28T17:30:48Z</time></trkpt><trkpt lat="45.38406547131943" lon="9.268298008143354"><ele>98.66666666666666</ele><time>2026-03-28T17:30:49Z</time></trkpt><trkpt lat="45.384184143281786" lon="9.268485738011641"><ele>98.0</ele><time>2026-03-28T17:30:50Z</time></trkpt><trkpt lat="45.38429311082088" lon="9.268660670338656"><ele>98.0</ele><time>2026-03-28T17:30:51Z</time></trkpt><trkpt lat="45.38439458022395" lon="9.26882580428822"><ele>98.0</ele><time>2026-03-28T17:30:52Z</time></trkpt><trkpt lat="45.38449320576466" lon="9.268979217995142"><ele>98.0</ele><time>2026-03-28T17:30:53Z</time></trkpt><trkpt lat="45.384589797683624" lon="9.269118945967046"><ele>98.0</ele><time>2026-03-28T17:30:54Z</time></trkpt><trkpt lat="45.384700897599565" lon="9.269235926053156"><ele>98.33333333333333</ele><time>2026-03-28T17:30:55Z</time></trkpt><trkpt lat="45.384832797790324" lon="9.269322993915885"><ele>98.66666666666666</ele><time>2026-03-28T17:30:56Z</time></trkpt><trkpt lat="45.384979475654966" lon="9.26938694898659"><ele>99.0</ele><time>2026-03-28T17:30:57Z</time></trkpt><trkpt lat="45.38513260838817" lon="9.26941210803897"><ele>99.0</ele><time>2026-03-28T17:30:58Z</time></trkpt><trkpt lat="45.38528933736603" lon="9.26939475700767"><ele>99.0</ele><time>2026-03-28T17:30:59Z</time></trkpt><trkpt lat="45.38544661137813" lon="9.269347244788563"><ele>99.0</ele><time>2026-03-28T17:31:00Z</time></trkpt><trkpt lat="45.385592999882135" lon="9.269259438593263"><ele>99.0</ele><time>2026-03-28T17:31:01Z</time></trkpt><trkpt lat="45.38572719139488" lon="9.269129126926035"><ele>99.0</ele><time>2026-03-28T17:31:02Z</time></trkpt><trkpt lat="45.38584677339671" lon="9.268955729722068"><ele>99.0</ele><time>2026-03-28T17:31:03Z</time></trkpt><trkpt lat="45.385946971673874" lon="9.268746434519628"><ele>98.66666666666666</ele><time>2026-03-28T17:31:04Z</time></trkpt><trkpt lat="45.386032448852596" lon="9.26851446873334"><ele>98.33333333333333</ele><time>2026-03-28T17:31:05Z</time></trkpt><trkpt lat="45.386113908963225" lon="9.268270593319377"><ele>98.0</ele><time>2026-03-28T17:31:06Z</time></trkpt><trkpt lat="45.3862014061026" lon="9.268024860537635"><ele>98.0</ele><time>2026-03-28T17:31:07Z</time></trkpt><trkpt lat="45.38629177641468" lon="9.267774540430864"><ele>98.0</ele><time>2026-03-28T17:31:08Z</time></trkpt><trkpt lat="45.38638023317971" lon="9.267534020984195"><ele>98.0</ele><time>2026-03-28T17:31:09Z</time></trkpt><trkpt lat="45.38646606798838" lon="9.267302681934915"><ele>98.33333333333333</ele><time>2026-03-28T17:31:10Z</time></trkpt><trkpt lat="45.386553783686104" lon="9.267067065634809"><ele>98.66666666666666</ele><time>2026-03-28T17:31:11Z</time></trkpt><trkpt lat="45.38664430356005" lon="9.266820569219478"><ele>99.0</ele><time>2026-03-28T17:31:12Z</time></trkpt><trkpt lat="45.38673726031752" lon="9.266571178974019"><ele>98.33333333333334</ele><time>2026-03-28T17:31:13Z</time></trkpt><trkpt lat="45.38684138975191" lon="9.266316567820958"><ele>97.66666666666667</ele><time>2026-03-28T17:31:14Z</time></trkpt><trkpt lat="45.38696006937439" lon="9.266066434251226"><ele>97.0</ele><time>2026-03-28T17:31:15Z</time></trkpt><trkpt lat="45.38709732626741" lon="9.265831165138017"><ele>97.33333333333334</ele><time>2026-03-28T17:31:15.999Z</time></trkpt><trkpt lat="45.387256146004056" lon="9.265622914621758"><ele>97.66666666666666</ele><time>2026-03-28T17:31:16.999Z</time></trkpt><trkpt lat="45.38743035583432" lon="9.265435429561153"><ele>98.0</ele><time>2026-03-28T17:31:17.999Z</time></trkpt><trkpt lat="45.38760494335559" lon="9.265241916735556"><ele>98.0</ele><time>2026-03-28T17:31:18.999Z</time></trkpt><trkpt lat="45.3877706684509" lon="9.265020490649947"><ele>98.0</ele><time>2026-03-28T17:31:19.999Z</time></trkpt><trkpt lat="45.38794995026338" lon="9.264809372567239"><ele>96.5</ele><time>2026-03-28T17:31:20.999Z</time></trkpt><trkpt lat="45.38813793274977" lon="9.26458800884142"><ele>95.0</ele><time>2026-03-28T17:31:21.999Z</time></trkpt><trkpt lat="45.38833520173445" lon="9.264356005389912"><ele>95.0</ele><time>2026-03-28T17:31:22.999Z</time></trkpt><trkpt lat="45.38855101403351" lon="9.26412681704878"><ele>95.0</ele><time>2026-03-28T17:31:23.999Z</time></trkpt><trkpt lat="45.38874829249081" lon="9.263878592253299"><ele>95.5</ele><time>2026-03-28T17:31:24.999Z</time></trkpt><trkpt lat="45.38894699920576" lon="9.263643413484772"><ele>96.0</ele><time>2026-03-28T17:31:25.999Z</time></trkpt><trkpt lat="45.38914816795978" lon="9.263416575562596"><ele>96.0</ele><time>2026-03-28T17:31:26.999Z</time></trkpt><trkpt lat="45.389350836609566" lon="9.263198936674861"><ele>96.0</ele><time>2026-03-28T17:31:27.999Z</time></trkpt><trkpt lat="45.38955243813736" lon="9.262988718745568"><ele>96.0</ele><time>2026-03-28T17:31:28.999Z</time></trkpt><trkpt lat="45.389755975829246" lon="9.262785784810985"><ele>96.0</ele><time>2026-03-28T17:31:29.999Z</time></trkpt><trkpt lat="45.389961859416715" lon="9.262592637500196"><ele>96.0</ele><time>2026-03-28T17:31:30.999Z</time></trkpt><trkpt lat="45.39017136108885" lon="9.262411085706566"><ele>96.0</ele><time>2026-03-28T17:31:31.999Z</time></trkpt><trkpt lat="45.39038420453908" lon="9.262248369680076"><ele>97.5</ele><time>2026-03-28T17:31:32.999Z</time></trkpt><trkpt lat="45.390595838965595" lon="9.262093312009348"><ele>99.0</ele><time>2026-03-28T17:31:33.999Z</time></trkpt><trkpt lat="45.39080779458238" lon="9.26194428501201"><ele>99.0</ele><time>2026-03-28T17:31:34.999Z</time></trkpt><trkpt lat="45.39102235788076" lon="9.261806130625256"><ele>99.0</ele><time>2026-03-28T17:31:35.999Z</time></trkpt><trkpt lat="45.39123561078753" lon="9.261673410959588"><ele>99.0</ele><time>2026-03-28T17:31:36.999Z</time></trkpt><trkpt lat="45.391448293443624" lon="9.261545853706513"><ele>99.0</ele><time>2026-03-28T17:31:37.999Z</time></trkpt><trkpt lat="45.39166178302309" lon="9.26142941271744"><ele>98.5</ele><time>2026-03-28T17:31:38.999Z</time></trkpt><trkpt lat="45.39187481689504" lon="9.261318381117501"><ele>98.0</ele><time>2026-03-28T17:31:39.999Z</time></trkpt><trkpt lat="45.3920888386515" lon="9.261214914745482"><ele>99.0</ele><time>2026-03-28T17:31:40.999Z</time></trkpt><trkpt lat="45.39230129937432" lon="9.261118403669986"><ele>100.0</ele><time>2026-03-28T17:31:41.999Z</time></trkpt><trkpt lat="45.39251697187289" lon="9.261027261543248"><ele>101.0</ele><time>2026-03-28T17:31:42.999Z</time></trkpt><trkpt lat="45.392731580806235" lon="9.260943284179067"><ele>101.0</ele><time>2026-03-28T17:31:43.999Z</time></trkpt><trkpt lat="45.39294556424833" lon="9.260867004399394"><ele>101.0</ele><time>2026-03-28T17:31:44.999Z</time></trkpt><trkpt lat="45.39315999109396" lon="9.260796558519282"><ele>101.0</ele><time>2026-03-28T17:31:45.999Z</time></trkpt><trkpt lat="45.39337387086866" lon="9.260733568256933"><ele>101.0</ele><time>2026-03-28T17:31:46.999Z</time></trkpt><trkpt lat="45.393588609883324" lon="9.260678009389704"><ele>101.0</ele><time>2026-03-28T17:31:47.999Z</time></trkpt><trkpt lat="45.39380510396831" lon="9.260629481223075"><ele>101.0</ele><time>2026-03-28T17:31:48.999Z</time></trkpt><trkpt lat="45.39402095013427" lon="9.260584524309989"><ele>101.33333333333333</ele><time>2026-03-28T17:31:49.999Z</time></trkpt><trkpt lat="45.39422986787206" lon="9.26054337232312"><ele>101.66666666666666</ele><time>2026-03-28T17:31:50.999Z</time></trkpt><trkpt lat="45.394436896921064" lon="9.260511890022906"><ele>102.0</ele><time>2026-03-28T17:31:51.999Z</time></trkpt><trkpt lat="45.394647138788" lon="9.260485034101377"><ele>101.33333333333334</ele><time>2026-03-28T17:31:52.999Z</time></trkpt><trkpt lat="45.39485875810227" lon="9.260462477176558"><ele>100.66666666666667</ele><time>2026-03-28T17:31:53.999Z</time></trkpt><trkpt lat="45.39506947755501" lon="9.260446440811883"><ele>100.0</ele><time>2026-03-28T17:31:54.999Z</time></trkpt><trkpt lat="45.39528080576617" lon="9.26043415723918"><ele>100.0</ele><time>2026-03-28T17:31:55.999Z</time></trkpt><trkpt lat="45.395491496686276" lon="9.260429290020532"><ele>100.0</ele><time>2026-03-28T17:31:56.999Z</time></trkpt><trkpt lat="45.39570121360114" lon="9.260430421482594"><ele>100.0</ele><time>2026-03-28T17:31:57.999Z</time></trkpt><trkpt lat="45.39591168664404" lon="9.260437785215727"><ele>100.0</ele><time>2026-03-28T17:31:58.999Z</time></trkpt><trkpt lat="45.396121453334274" lon="9.260450839165326"><ele>100.0</ele><time>2026-03-28T17:31:59.999Z</time></trkpt><trkpt lat="45.3963302908693" lon="9.260468945855594"><ele>100.0</ele><time>2026-03-28T17:32:00.999Z</time></trkpt><trkpt lat="45.3965381377204" lon="9.26048888823916"><ele>100.0</ele><time>2026-03-28T17:32:01.999Z</time></trkpt><trkpt lat="45.39674694654804" lon="9.260512099130159"><ele>100.0</ele><time>2026-03-28T17:32:02.999Z</time></trkpt><trkpt lat="45.396953803539944" lon="9.260537079566701"><ele>100.0</ele><time>2026-03-28T17:32:03.999Z</time></trkpt><trkpt lat="45.39716006755715" lon="9.260563114922304"><ele>100.0</ele><time>2026-03-28T17:32:04.999Z</time></trkpt><trkpt lat="45.39736798396536" lon="9.260589977266125"><ele>100.0</ele><time>2026-03-28T17:32:05.999Z</time></trkpt><trkpt lat="45.397575909652474" lon="9.26061584358942"><ele>100.0</ele><time>2026-03-28T17:32:06.999Z</time></trkpt><trkpt lat="45.397782121282525" lon="9.260640175782159"><ele>100.0</ele><time>2026-03-28T17:32:07.999Z</time></trkpt><trkpt lat="45.397990190366315" lon="9.260664381332614"><ele>100.0</ele><time>2026-03-28T17:32:08.999Z</time></trkpt><trkpt lat="45.39819404903568" lon="9.26069176484762"><ele>100.0</ele><time>2026-03-28T17:32:09.999Z</time></trkpt><trkpt lat="45.39839466045879" lon="9.260708495213873"><ele>100.33333333333334</ele><time>2026-03-28T17:32:10.999Z</time></trkpt><trkpt lat="45.39859572754412" lon="9.260730128156881"><ele>100.66666666666666</ele><time>2026-03-28T17:32:11.999Z</time></trkpt><trkpt lat="45.398795403654766" lon="9.260753025601634"><ele>101.0</ele><time>2026-03-28T17:32:12.999Z</time></trkpt><trkpt lat="45.39899448990037" lon="9.260775146996274"><ele>101.0</ele><time>2026-03-28T17:32:13.999Z</time></trkpt><trkpt lat="45.39919440425377" lon="9.260799129833055"><ele>101.0</ele><time>2026-03-28T17:32:14.999Z</time></trkpt><trkpt lat="45.39939429275702" lon="9.260822722095105"><ele>101.0</ele><time>2026-03-28T17:32:15.999Z</time></trkpt><trkpt lat="45.39959380147479" lon="9.260844162608729"><ele>100.0</ele><time>2026-03-28T17:32:16.999Z</time></trkpt><trkpt lat="45.399794116099564" lon="9.260865482225556"><ele>99.0</ele><time>2026-03-28T17:32:17.999Z</time></trkpt><trkpt lat="45.3999926347758" lon="9.260886836550345"><ele>98.0</ele><time>2026-03-28T17:32:18.999Z</time></trkpt><trkpt lat="45.4001924069081" lon="9.260908750316714"><ele>98.0</ele><time>2026-03-28T17:32:19.999Z</time></trkpt><trkpt lat="45.40038964802086" lon="9.260930280543313"><ele>98.0</ele><time>2026-03-28T17:32:20.999Z</time></trkpt><trkpt lat="45.40058841852992" lon="9.260950312126317"><ele>98.0</ele><time>2026-03-28T17:32:21.999Z</time></trkpt><trkpt lat="45.40078535844973" lon="9.26097132579216"><ele>98.0</ele><time>2026-03-28T17:32:22.999Z</time></trkpt><trkpt lat="45.40098276258935" lon="9.260995152643263"><ele>98.0</ele><time>2026-03-28T17:32:23.999Z</time></trkpt><trkpt lat="45.40117952159194" lon="9.261019998111154"><ele>98.0</ele><time>2026-03-28T17:32:24.999Z</time></trkpt><trkpt lat="45.40137709382651" lon="9.261041570588949"><ele>98.33333333333333</ele><time>2026-03-28T17:32:25.999Z</time></trkpt><trkpt lat="45.40157535036994" lon="9.261066385974026"><ele>98.66666666666666</ele><time>2026-03-28T17:32:26.999Z</time></trkpt><trkpt lat="45.40177446896838" lon="9.261089164859579"><ele>99.0</ele><time>2026-03-28T17:32:27.999Z</time></trkpt><trkpt lat="45.401971577182266" lon="9.261114254225891"><ele>99.0</ele><time>2026-03-28T17:32:28.999Z</time></trkpt><trkpt lat="45.40217007869278" lon="9.261139244558567"><ele>99.0</ele><time>2026-03-28T17:32:30Z</time></trkpt><trkpt lat="45.402368411351915" lon="9.261161759056995"><ele>99.0</ele><time>2026-03-28T17:32:31Z</time></trkpt><trkpt lat="45.40256662649768" lon="9.261181524904625"><ele>99.0</ele><time>2026-03-28T17:32:32Z</time></trkpt><trkpt lat="45.402764141223514" lon="9.261200610021856"><ele>99.0</ele><time>2026-03-28T17:32:33Z</time></trkpt><trkpt lat="45.40296230937884" lon="9.261220513765593"><ele>99.0</ele><time>2026-03-28T17:32:34Z</time></trkpt><trkpt lat="45.403159601386626" lon="9.261241450422306"><ele>99.33333333333334</ele><time>2026-03-28T17:32:35Z</time></trkpt><trkpt lat="45.403358026758305" lon="9.261263788236743"><ele>99.66666666666667</ele><time>2026-03-28T17:32:36Z</time></trkpt><trkpt lat="45.40355513474395" lon="9.261285162742656"><ele>100.0</ele><time>2026-03-28T17:32:37Z</time></trkpt><trkpt lat="45.40375343012932" lon="9.261309170316673"><ele>99.66666666666667</ele><time>2026-03-28T17:32:38Z</time></trkpt><trkpt lat="45.40395139770656" lon="9.261332911793371"><ele>99.33333333333334</ele><time>2026-03-28T17:32:39Z</time></trkpt><trkpt lat="45.404148236181605" lon="9.261354310568509"><ele>99.0</ele><time>2026-03-28T17:32:40Z</time></trkpt><trkpt lat="45.40434656963943" lon="9.261378701504258"><ele>99.0</ele><time>2026-03-28T17:32:41Z</time></trkpt><trkpt lat="45.40454287005112" lon="9.261404744523032"><ele>99.0</ele><time>2026-03-28T17:32:42Z</time></trkpt><trkpt lat="45.404740511396476" lon="9.261433607032926"><ele>99.0</ele><time>2026-03-28T17:32:43Z</time></trkpt><trkpt lat="45.40493704652721" lon="9.261460876986222"><ele>99.0</ele><time>2026-03-28T17:32:44Z</time></trkpt><trkpt lat="45.405133671910725" lon="9.261487901470252"><ele>99.0</ele><time>2026-03-28T17:32:45Z</time></trkpt><trkpt lat="45.40532874684571" lon="9.261508865658259"><ele>99.0</ele><time>2026-03-28T17:32:46Z</time></trkpt><trkpt lat="45.40552519463616" lon="9.261526711283137"><ele>99.0</ele><time>2026-03-28T17:32:47Z</time></trkpt><trkpt lat="45.405722097326425" lon="9.261539414239515"><ele>99.0</ele><time>2026-03-28T17:32:48Z</time></trkpt><trkpt lat="45.40592018569656" lon="9.261539229962688"><ele>99.0</ele><time>2026-03-28T17:32:49Z</time></trkpt><trkpt lat="45.40611574472214" lon="9.261524741584074"><ele>99.0</ele><time>2026-03-28T17:32:50Z</time></trkpt><trkpt lat="45.40631186919171" lon="9.261500433382327"><ele>99.0</ele><time>2026-03-28T17:32:51Z</time></trkpt><trkpt lat="45.406506080662204" lon="9.261464648647365"><ele>99.0</ele><time>2026-03-28T17:32:52Z</time></trkpt><trkpt lat="45.40670126736822" lon="9.261419938860913"><ele>99.0</ele><time>2026-03-28T17:32:53Z</time></trkpt><trkpt lat="45.4068911707059" lon="9.261359450064015"><ele>99.0</ele><time>2026-03-28T17:32:54Z</time></trkpt><trkpt lat="45.407081464477805" lon="9.261290582346305"><ele>99.0</ele><time>2026-03-28T17:32:55Z</time></trkpt><trkpt lat="45.40726921008745" lon="9.261210410555092"><ele>98.66666666666666</ele><time>2026-03-28T17:32:56Z</time></trkpt><trkpt lat="45.40745384145547" lon="9.261116099179663"><ele>98.33333333333333</ele><time>2026-03-28T17:32:57Z</time></trkpt><trkpt lat="45.40763493411207" lon="9.261012690792779"><ele>98.0</ele><time>2026-03-28T17:32:58Z</time></trkpt><trkpt lat="45.40781698970229" lon="9.260892019906798"><ele>98.0</ele><time>2026-03-28T17:32:59Z</time></trkpt><trkpt lat="45.407994139275935" lon="9.260762500230618"><ele>98.0</ele><time>2026-03-28T17:33:00Z</time></trkpt><trkpt lat="45.40816788290529" lon="9.260624719854118"><ele>98.0</ele><time>2026-03-28T17:33:01Z</time></trkpt><trkpt lat="45.408336753327916" lon="9.260476333956365"><ele>98.0</ele><time>2026-03-28T17:33:02Z</time></trkpt><trkpt lat="45.408500072662406" lon="9.260315257444535"><ele>98.0</ele><time>2026-03-28T17:33:03Z</time></trkpt><trkpt lat="45.40865893239894" lon="9.260148241755127"><ele>98.0</ele><time>2026-03-28T17:33:04Z</time></trkpt><trkpt lat="45.408814020535694" lon="9.25997309538255"><ele>98.0</ele><time>2026-03-28T17:33:05Z</time></trkpt><trkpt lat="45.40896722939911" lon="9.259790748986868"><ele>98.0</ele><time>2026-03-28T17:33:06Z</time></trkpt><trkpt lat="45.409118739786855" lon="9.259605379089116"><ele>98.0</ele><time>2026-03-28T17:33:07Z</time></trkpt><trkpt lat="45.40926895565841" lon="9.259418007369463"><ele>98.0</ele><time>2026-03-28T17:33:08Z</time></trkpt><trkpt lat="45.40941896504695" lon="9.259229088483286"><ele>98.0</ele><time>2026-03-28T17:33:09Z</time></trkpt><trkpt lat="45.409568705083245" lon="9.259041971670863"><ele>98.0</ele><time>2026-03-28T17:33:10Z</time></trkpt><trkpt lat="45.40971821426726" lon="9.258856506554377"><ele>99.33333333333333</ele><time>2026-03-28T17:33:11Z</time></trkpt><trkpt lat="45.409866850780915" lon="9.258668344686383"><ele>100.66666666666666</ele><time>2026-03-28T17:33:12Z</time></trkpt><trkpt lat="45.41001659162718" lon="9.258478958277372"><ele>102.0</ele><time>2026-03-28T17:33:13Z</time></trkpt><trkpt lat="45.41016576873499" lon="9.25829087684977"><ele>102.0</ele><time>2026-03-28T17:33:14Z</time></trkpt><trkpt lat="45.410313664746155" lon="9.258101440794798"><ele>102.0</ele><time>2026-03-28T17:33:15Z</time></trkpt><trkpt lat="45.41046199775631" lon="9.257912111393795"><ele>102.0</ele><time>2026-03-28T17:33:16Z</time></trkpt><trkpt lat="45.41061018526542" lon="9.257725890244522"><ele>102.0</ele><time>2026-03-28T17:33:17Z</time></trkpt><trkpt lat="45.410757536110594" lon="9.257537544792784"><ele>102.0</ele><time>2026-03-28T17:33:18Z</time></trkpt><trkpt lat="45.41090457630837" lon="9.257348160062962"><ele>102.0</ele><time>2026-03-28T17:33:19Z</time></trkpt><trkpt lat="45.411052191944755" lon="9.257160559426982"><ele>101.66666666666666</ele><time>2026-03-28T17:33:20Z</time></trkpt><trkpt lat="45.41120191975625" lon="9.25697343416644"><ele>101.33333333333333</ele><time>2026-03-28T17:33:21Z</time></trkpt><trkpt lat="45.41134854495989" lon="9.256787722295456"><ele>101.0</ele><time>2026-03-28T17:33:21.999Z</time></trkpt><trkpt lat="45.41149593333011" lon="9.256600634668132"><ele>100.66666666666666</ele><time>2026-03-28T17:33:22.999Z</time></trkpt><trkpt lat="45.41164364060964" lon="9.256415172853847"><ele>100.33333333333334</ele><time>2026-03-28T17:33:23.999Z</time></trkpt><trkpt lat="45.41179131400806" lon="9.256234457181788"><ele>100.0</ele><time>2026-03-28T17:33:24.999Z</time></trkpt><trkpt lat="45.41193915770612" lon="9.256048334259054"><ele>100.0</ele><time>2026-03-28T17:33:25.999Z</time></trkpt><trkpt lat="45.41208649987379" lon="9.255861846953417"><ele>100.0</ele><time>2026-03-28T17:33:26.999Z</time></trkpt><trkpt lat="45.41223570223842" lon="9.255675639879296"><ele>100.0</ele><time>2026-03-28T17:33:27.999Z</time></trkpt><trkpt lat="45.41238408282889" lon="9.255490255708564"><ele>100.0</ele><time>2026-03-28T17:33:28.999Z</time></trkpt><trkpt lat="45.41253104379092" lon="9.255304225700579"><ele>100.0</ele><time>2026-03-28T17:33:29.999Z</time></trkpt><trkpt lat="45.41267852530574" lon="9.255118166218075"><ele>100.0</ele><time>2026-03-28T17:33:30.999Z</time></trkpt><trkpt lat="45.41282545868488" lon="9.254930562340688"><ele>100.33333333333334</ele><time>2026-03-28T17:33:31.999Z</time></trkpt><trkpt lat="45.41297114667801" lon="9.254741465356883"><ele>100.66666666666666</ele><time>2026-03-28T17:33:32.999Z</time></trkpt><trkpt lat="45.41311611101976" lon="9.254550258915712"><ele>101.0</ele><time>2026-03-28T17:33:33.999Z</time></trkpt><trkpt lat="45.41326213265051" lon="9.25435795362086"><ele>101.0</ele><time>2026-03-28T17:33:34.999Z</time></trkpt><trkpt lat="45.41340526530493" lon="9.25416382735682"><ele>101.0</ele><time>2026-03-28T17:33:35.999Z</time></trkpt><trkpt lat="45.41354761578571" lon="9.253966951508934"><ele>101.0</ele><time>2026-03-28T17:33:36.999Z</time></trkpt><trkpt lat="45.41369070944529" lon="9.25377280072753"><ele>101.66666666666666</ele><time>2026-03-28T17:33:37.999Z</time></trkpt><trkpt lat="45.413833816010666" lon="9.253578622295676"><ele>102.33333333333334</ele><time>2026-03-28T17:33:38.999Z</time></trkpt><trkpt lat="45.4139769484733" lon="9.253384185066556"><ele>103.0</ele><time>2026-03-28T17:33:39.999Z</time></trkpt><trkpt lat="45.414117353598584" lon="9.253187513445488"><ele>104.0</ele><time>2026-03-28T17:33:40.999Z</time></trkpt><trkpt lat="45.41425862111856" lon="9.25298977159045"><ele>105.0</ele><time>2026-03-28T17:33:41.999Z</time></trkpt><trkpt lat="45.41439824925129" lon="9.252791617512509"><ele>106.0</ele><time>2026-03-28T17:33:42.999Z</time></trkpt><trkpt lat="45.414537806522574" lon="9.252590622347642"><ele>103.66666666666667</ele><time>2026-03-28T17:33:43.999Z</time></trkpt><trkpt lat="45.41467539246849" lon="9.252388784487717"><ele>101.33333333333334</ele><time>2026-03-28T17:33:44.999Z</time></trkpt><trkpt lat="45.41481489954739" lon="9.252182476600021"><ele>99.0</ele><time>2026-03-28T17:33:45.999Z</time></trkpt><trkpt lat="45.41495344245643" lon="9.251975856599792"><ele>99.0</ele><time>2026-03-28T17:33:46.999Z</time></trkpt><trkpt lat="45.41508898049209" lon="9.25177233946967"><ele>99.0</ele><time>2026-03-28T17:33:47.999Z</time></trkpt><trkpt lat="45.41522520234581" lon="9.251570025174084"><ele>99.0</ele><time>2026-03-28T17:33:48.999Z</time></trkpt><trkpt lat="45.415362276181305" lon="9.251365893300939"><ele>99.33333333333334</ele><time>2026-03-28T17:33:49.999Z</time></trkpt><trkpt lat="45.41550002484756" lon="9.251160897962352"><ele>99.66666666666667</ele><time>2026-03-28T17:33:50.999Z</time></trkpt><trkpt lat="45.41563557913876" lon="9.250956480749796"><ele>100.0</ele><time>2026-03-28T17:33:51.999Z</time></trkpt><trkpt lat="45.415770395162546" lon="9.250750510146382"><ele>101.0</ele><time>2026-03-28T17:33:52.999Z</time></trkpt><trkpt lat="45.41590507399524" lon="9.250544919616912"><ele>102.0</ele><time>2026-03-28T17:33:53.999Z</time></trkpt><trkpt lat="45.416039277088736" lon="9.250338520288814"><ele>103.0</ele><time>2026-03-28T17:33:54.999Z</time></trkpt><trkpt lat="45.416174362332036" lon="9.250133678679397"><ele>103.0</ele><time>2026-03-28T17:33:55.999Z</time></trkpt><trkpt lat="45.4163088834976" lon="9.24992750092424"><ele>103.0</ele><time>2026-03-28T17:33:56.999Z</time></trkpt><trkpt lat="45.416446362040574" lon="9.2497245033942"><ele>103.0</ele><time>2026-03-28T17:33:57.999Z</time></trkpt><trkpt lat="45.41658313591299" lon="9.249523107410251"><ele>102.66666666666667</ele><time>2026-03-28T17:33:58.999Z</time></trkpt><trkpt lat="45.416719151279395" lon="9.249320810869557"><ele>102.33333333333334</ele><time>2026-03-28T17:33:59.999Z</time></trkpt><trkpt lat="45.41685562098611" lon="9.249116587650903"><ele>102.0</ele><time>2026-03-28T17:34:00.999Z</time></trkpt><trkpt lat="45.41699266982001" lon="9.248913306059462"><ele>102.0</ele><time>2026-03-28T17:34:01.999Z</time></trkpt><trkpt lat="45.41712873522302" lon="9.248709134891044"><ele>102.0</ele><time>2026-03-28T17:34:02.999Z</time></trkpt><trkpt lat="45.417267086908325" lon="9.248506446862983"><ele>102.0</ele><time>2026-03-28T17:34:03.999Z</time></trkpt><trkpt lat="45.41740768466592" lon="9.248307810080025"><ele>101.33333333333334</ele><time>2026-03-28T17:34:04.999Z</time></trkpt><trkpt lat="45.41755174920044" lon="9.248113885802"><ele>100.66666666666667</ele><time>2026-03-28T17:34:05.999Z</time></trkpt><trkpt lat="45.41769871526572" lon="9.247928730208088"><ele>100.0</ele><time>2026-03-28T17:34:06.999Z</time></trkpt><trkpt lat="45.417850812418834" lon="9.247748743492041"><ele>100.33333333333334</ele><time>2026-03-28T17:34:07.999Z</time></trkpt><trkpt lat="45.418008406435966" lon="9.247580166038823"><ele>100.66666666666666</ele><time>2026-03-28T17:34:08.999Z</time></trkpt><trkpt lat="45.41817039762048" lon="9.247417156208277"><ele>101.0</ele><time>2026-03-28T17:34:09.999Z</time></trkpt><trkpt lat="45.41833493927296" lon="9.2472645505264"><ele>101.0</ele><time>2026-03-28T17:34:10.999Z</time></trkpt><trkpt lat="45.41850351059867" lon="9.247120662316494"><ele>101.0</ele><time>2026-03-28T17:34:11.999Z</time></trkpt><trkpt lat="45.41867726153882" lon="9.24698908263203"><ele>101.0</ele><time>2026-03-28T17:34:12.999Z</time></trkpt><trkpt lat="45.41885450623486" lon="9.246864292539131"><ele>102.33333333333333</ele><time>2026-03-28T17:34:13.999Z</time></trkpt><trkpt lat="45.419032668006075" lon="9.246746392444269"><ele>103.66666666666666</ele><time>2026-03-28T17:34:14.999Z</time></trkpt><trkpt lat="45.41921471863458" lon="9.246637451335596"><ele>105.0</ele><time>2026-03-28T17:34:15.999Z</time></trkpt><trkpt lat="45.41939929376293" lon="9.246537891319791"><ele>105.0</ele><time>2026-03-28T17:34:16.999Z</time></trkpt><trkpt lat="45.41958755783845" lon="9.246449781567287"><ele>105.0</ele><time>2026-03-28T17:34:17.999Z</time></trkpt><trkpt lat="45.419778961122105" lon="9.246372894808877"><ele>105.0</ele><time>2026-03-28T17:34:18.999Z</time></trkpt><trkpt lat="45.419970797011494" lon="9.246307152826997"><ele>105.0</ele><time>2026-03-28T17:34:19.999Z</time></trkpt><trkpt lat="45.42016397605613" lon="9.246251459155745"><ele>105.0</ele><time>2026-03-28T17:34:20.999Z</time></trkpt><trkpt lat="45.42035770608679" lon="9.246201890847006"><ele>105.0</ele><time>2026-03-28T17:34:21.999Z</time></trkpt><trkpt lat="45.42055341217469" lon="9.246162217003967"><ele>105.66666666666666</ele><time>2026-03-28T17:34:22.999Z</time></trkpt><trkpt lat="45.42074892006026" lon="9.246126413139102"><ele>106.33333333333333</ele><time>2026-03-28T17:34:23.999Z</time></trkpt><trkpt lat="45.42094458060457" lon="9.24609286420158"><ele>107.0</ele><time>2026-03-28T17:34:24.999Z</time></trkpt><trkpt lat="45.42114068884829" lon="9.246061962677063"><ele>107.0</ele><time>2026-03-28T17:34:25.999Z</time></trkpt><trkpt lat="45.421337661437526" lon="9.246036758300134"><ele>107.0</ele><time>2026-03-28T17:34:26.999Z</time></trkpt><trkpt lat="45.421535479863145" lon="9.246014339312149"><ele>107.0</ele><time>2026-03-28T17:34:27.999Z</time></trkpt><trkpt lat="45.42173315387493" lon="9.245992576081138"><ele>107.0</ele><time>2026-03-28T17:34:28.999Z</time></trkpt><trkpt lat="45.421929053893635" lon="9.24596538451497"><ele>107.0</ele><time>2026-03-28T17:34:29.999Z</time></trkpt><trkpt lat="45.42212694575248" lon="9.245941991164454"><ele>107.0</ele><time>2026-03-28T17:34:30.999Z</time></trkpt><trkpt lat="45.42232520702945" lon="9.245916579223506"><ele>106.33333333333333</ele><time>2026-03-28T17:34:31.999Z</time></trkpt><trkpt lat="45.42252338527485" lon="9.245891967895007"><ele>105.66666666666666</ele><time>2026-03-28T17:34:32.999Z</time></trkpt><trkpt lat="45.422719563430206" lon="9.245873795787897"><ele>105.0</ele><time>2026-03-28T17:34:33.999Z</time></trkpt><trkpt lat="45.422904247904135" lon="9.245854668998778"><ele>104.33333333333334</ele><time>2026-03-28T17:34:34.999Z</time></trkpt><trkpt lat="45.423091574628174" lon="9.24582992649418"><ele>103.66666666666667</ele><time>2026-03-28T17:34:36Z</time></trkpt><trkpt lat="45.42327954755019" lon="9.24580288336086"><ele>103.0</ele><time>2026-03-28T17:34:37Z</time></trkpt><trkpt lat="45.423468201610895" lon="9.245777106355703"><ele>103.0</ele><time>2026-03-28T17:34:38Z</time></trkpt><trkpt lat="45.42365983919798" lon="9.245752735268224"><ele>103.0</ele><time>2026-03-28T17:34:39Z</time></trkpt><trkpt lat="45.42385321741955" lon="9.245728910787683"><ele>103.0</ele><time>2026-03-28T17:34:40Z</time></trkpt><trkpt lat="45.42404548500209" lon="9.245705515423612"><ele>102.66666666666667</ele><time>2026-03-28T17:34:41Z</time></trkpt><trkpt lat="45.42423788517181" lon="9.24568373646325"><ele>102.33333333333334</ele><time>2026-03-28T17:34:42Z</time></trkpt><trkpt lat="45.42442189364763" lon="9.2456643869326"><ele>102.0</ele><time>2026-03-28T17:34:43Z</time></trkpt><trkpt lat="45.42460508799682" lon="9.245645557669757"><ele>101.33333333333334</ele><time>2026-03-28T17:34:44Z</time></trkpt><trkpt lat="45.42478858347895" lon="9.245632242293686"><ele>100.66666666666667</ele><time>2026-03-28T17:34:45Z</time></trkpt><trkpt lat="45.42497106780759" lon="9.2456215290893"><ele>100.0</ele><time>2026-03-28T17:34:46Z</time></trkpt><trkpt lat="45.4251601584014" lon="9.245618027946682"><ele>101.33333333333334</ele><time>2026-03-28T17:34:47Z</time></trkpt><trkpt lat="45.425354533623825" lon="9.245625722784592"><ele>102.66666666666666</ele><time>2026-03-28T17:34:48Z</time></trkpt><trkpt lat="45.42555360470405" lon="9.245647156270147"><ele>104.0</ele><time>2026-03-28T17:34:49Z</time></trkpt><trkpt lat="45.42575357425924" lon="9.245679709326964"><ele>104.0</ele><time>2026-03-28T17:34:50Z</time></trkpt><trkpt lat="45.42594570821442" lon="9.245724615960771"><ele>104.0</ele><time>2026-03-28T17:34:51Z</time></trkpt><trkpt lat="45.42613397385236" lon="9.245777091866623"><ele>104.0</ele><time>2026-03-28T17:34:52Z</time></trkpt><trkpt lat="45.42632308299346" lon="9.245841171550186"><ele>103.0</ele><time>2026-03-28T17:34:53Z</time></trkpt><trkpt lat="45.42650967925461" lon="9.245914927971228"><ele>102.0</ele><time>2026-03-28T17:34:54Z</time></trkpt><trkpt lat="45.42669606557836" lon="9.246001800700387"><ele>101.0</ele><time>2026-03-28T17:34:55Z</time></trkpt><trkpt lat="45.42687947536653" lon="9.246099185801569"><ele>101.0</ele><time>2026-03-28T17:34:56Z</time></trkpt><trkpt lat="45.42706026628575" lon="9.246208968398959"><ele>101.0</ele><time>2026-03-28T17:34:57Z</time></trkpt><trkpt lat="45.427239333212725" lon="9.246328886517816"><ele>101.0</ele><time>2026-03-28T17:34:58Z</time></trkpt><trkpt lat="45.42741678699121" lon="9.246460587736296"><ele>102.66666666666666</ele><time>2026-03-28T17:34:59Z</time></trkpt><trkpt lat="45.427591342498346" lon="9.246602157962709"><ele>104.33333333333334</ele><time>2026-03-28T17:35:00Z</time></trkpt><trkpt lat="45.42776301929559" lon="9.24675443942688"><ele>106.0</ele><time>2026-03-28T17:35:01Z</time></trkpt><trkpt lat="45.42793184980875" lon="9.246917229131702"><ele>107.66666666666667</ele><time>2026-03-28T17:35:02Z</time></trkpt><trkpt lat="45.42809388294076" lon="9.247092454747511"><ele>109.33333333333334</ele><time>2026-03-28T17:35:03Z</time></trkpt><trkpt lat="45.42824200717373" lon="9.247280183510178"><ele>111.0</ele><time>2026-03-28T17:35:04Z</time></trkpt><trkpt lat="45.42838078860374" lon="9.247463731417364"><ele>111.0</ele><time>2026-03-28T17:35:05Z</time></trkpt><trkpt lat="45.428507359444" lon="9.247642854146449"><ele>111.0</ele><time>2026-03-28T17:35:06Z</time></trkpt><trkpt lat="45.428625306493586" lon="9.247820869802192"><ele>111.0</ele><time>2026-03-28T17:35:07Z</time></trkpt><trkpt lat="45.42874217248558" lon="9.248005050007245"><ele>110.66666666666666</ele><time>2026-03-28T17:35:08Z</time></trkpt><trkpt lat="45.428856585368834" lon="9.248182779769369"><ele>110.33333333333333</ele><time>2026-03-28T17:35:09Z</time></trkpt><trkpt lat="45.42896735417597" lon="9.248355084051699"><ele>110.0</ele><time>2026-03-28T17:35:10Z</time></trkpt><trkpt lat="45.42907723897698" lon="9.248531269840564"><ele>110.0</ele><time>2026-03-28T17:35:11Z</time></trkpt><trkpt lat="45.429190913147686" lon="9.248712607072495"><ele>110.0</ele><time>2026-03-28T17:35:12Z</time></trkpt><trkpt lat="45.4293073990884" lon="9.248899318358193"><ele>110.0</ele><time>2026-03-28T17:35:13Z</time></trkpt><trkpt lat="45.42943403204759" lon="9.249087905970946"><ele>109.33333333333333</ele><time>2026-03-28T17:35:14Z</time></trkpt><trkpt lat="45.42956438230309" lon="9.249285222660726"><ele>108.66666666666666</ele><time>2026-03-28T17:35:15Z</time></trkpt><trkpt lat="45.42969750240121" lon="9.249490960908597"><ele>108.0</ele><time>2026-03-28T17:35:16Z</time></trkpt><trkpt lat="45.42983546208937" lon="9.249707441684887"><ele>107.66666666666666</ele><time>2026-03-28T17:35:17Z</time></trkpt><trkpt lat="45.429973713948456" lon="9.249930432525952"><ele>107.33333333333333</ele><time>2026-03-28T17:35:18Z</time></trkpt><trkpt lat="45.430108878710946" lon="9.250153314275257"><ele>107.0</ele><time>2026-03-28T17:35:19Z</time></trkpt><trkpt lat="45.430244920312084" lon="9.250374413136814"><ele>107.0</ele><time>2026-03-28T17:35:20Z</time></trkpt><trkpt lat="45.430381878176554" lon="9.250596744289345"><ele>107.0</ele><time>2026-03-28T17:35:21Z</time></trkpt><trkpt lat="45.43051784167237" lon="9.250818955691102"><ele>107.0</ele><time>2026-03-28T17:35:22Z</time></trkpt><trkpt lat="45.43065622683491" lon="9.251042485927618"><ele>106.66666666666666</ele><time>2026-03-28T17:35:23Z</time></trkpt><trkpt lat="45.430798312886196" lon="9.251264465517568"><ele>106.33333333333334</ele><time>2026-03-28T17:35:24Z</time></trkpt><trkpt lat="45.43094271830066" lon="9.25148573847943"><ele>106.0</ele><time>2026-03-28T17:35:25Z</time></trkpt><trkpt lat="45.43109051814722" lon="9.251708197538376"><ele>106.0</ele><time>2026-03-28T17:35:25.999Z</time></trkpt><trkpt lat="45.4312419664308" lon="9.25192486468527"><ele>106.0</ele><time>2026-03-28T17:35:26.999Z</time></trkpt><trkpt lat="45.43139801369307" lon="9.252137876604573"><ele>106.0</ele><time>2026-03-28T17:35:27.999Z</time></trkpt><trkpt lat="45.431557492653226" lon="9.252346447398871"><ele>105.33333333333334</ele><time>2026-03-28T17:35:28.999Z</time></trkpt><trkpt lat="45.43171885452709" lon="9.252552349516609"><ele>104.66666666666666</ele><time>2026-03-28T17:35:29.999Z</time></trkpt><trkpt lat="45.43188354144053" lon="9.25275225864305"><ele>104.0</ele><time>2026-03-28T17:35:30.999Z</time></trkpt><trkpt lat="45.4320516548524" lon="9.252947942200795"><ele>103.33333333333333</ele><time>2026-03-28T17:35:31.999Z</time></trkpt><trkpt lat="45.43222083063683" lon="9.25314023608753"><ele>102.66666666666666</ele><time>2026-03-28T17:35:32.999Z</time></trkpt><trkpt lat="45.43239411853787" lon="9.253325118191775"><ele>102.0</ele><time>2026-03-28T17:35:33.999Z</time></trkpt><trkpt lat="45.432569054369615" lon="9.253504992899135"><ele>102.0</ele><time>2026-03-28T17:35:34.999Z</time></trkpt><trkpt lat="45.432745329188926" lon="9.2536821600186"><ele>102.0</ele><time>2026-03-28T17:35:35.999Z</time></trkpt><trkpt lat="45.43292483043028" lon="9.253854072341051"><ele>102.0</ele><time>2026-03-28T17:35:36.999Z</time></trkpt><trkpt lat="45.43310575823603" lon="9.254021212846343"><ele>103.66666666666666</ele><time>2026-03-28T17:35:37.999Z</time></trkpt><trkpt lat="45.433289865755505" lon="9.254185656440924"><ele>105.33333333333333</ele><time>2026-03-28T17:35:38.999Z</time></trkpt><trkpt lat="45.43347477591917" lon="9.25434290212689"><ele>107.0</ele><time>2026-03-28T17:35:39.999Z</time></trkpt><trkpt lat="45.433663390226116" lon="9.25449657123785"><ele>107.0</ele><time>2026-03-28T17:35:40.999Z</time></trkpt><trkpt lat="45.43385256659665" lon="9.254646836946042"><ele>107.0</ele><time>2026-03-28T17:35:41.999Z</time></trkpt><trkpt lat="45.43404335694631" lon="9.254789693989732"><ele>107.0</ele><time>2026-03-28T17:35:42.999Z</time></trkpt><trkpt lat="45.434237340318056" lon="9.254925611253627"><ele>107.0</ele><time>2026-03-28T17:35:43.999Z</time></trkpt><trkpt lat="45.43443082809492" lon="9.255057262608748"><ele>107.0</ele><time>2026-03-28T17:35:44.999Z</time></trkpt><trkpt lat="45.43462659333364" lon="9.255185015650893"><ele>107.0</ele><time>2026-03-28T17:35:45.999Z</time></trkpt><trkpt lat="45.434824153757035" lon="9.255307504749537"><ele>106.66666666666666</ele><time>2026-03-28T17:35:46.999Z</time></trkpt><trkpt lat="45.4350224500408" lon="9.255426817995481"><ele>106.33333333333334</ele><time>2026-03-28T17:35:47.999Z</time></trkpt><trkpt lat="45.43522372427363" lon="9.255538022508098"><ele>106.0</ele><time>2026-03-28T17:35:48.999Z</time></trkpt><trkpt lat="45.43542537917485" lon="9.255643940121837"><ele>106.66666666666667</ele><time>2026-03-28T17:35:49.999Z</time></trkpt><trkpt lat="45.43563036564173" lon="9.255743568600687"><ele>107.33333333333334</ele><time>2026-03-28T17:35:50.999Z</time></trkpt><trkpt lat="45.43582875876491" lon="9.255830672187113"><ele>108.0</ele><time>2026-03-28T17:35:51.999Z</time></trkpt><trkpt lat="45.436036439398976" lon="9.255920898247055"><ele>108.0</ele><time>2026-03-28T17:35:52.999Z</time></trkpt><trkpt lat="45.43624546671124" lon="9.25600423093136"><ele>108.0</ele><time>2026-03-28T17:35:53.999Z</time></trkpt><trkpt lat="45.43644477800116" lon="9.256080975394235"><ele>108.0</ele><time>2026-03-28T17:35:54.999Z</time></trkpt><trkpt lat="45.4366331645671" lon="9.256157034966964"><ele>108.0</ele><time>2026-03-28T17:35:55.999Z</time></trkpt><trkpt lat="45.436812153617744" lon="9.256225153851608"><ele>108.0</ele><time>2026-03-28T17:35:56.999Z</time></trkpt><trkpt lat="45.43698318301333" lon="9.256283909062725"><ele>108.0</ele><time>2026-03-28T17:35:57.999Z</time></trkpt><trkpt lat="45.43714700884468" lon="9.25633942109222"><ele>108.0</ele><time>2026-03-28T17:35:58.999Z</time></trkpt><trkpt lat="45.437311471905225" lon="9.256398328429142"><ele>108.0</ele><time>2026-03-28T17:35:59.999Z</time></trkpt><trkpt lat="45.43747631271379" lon="9.256459730759847"><ele>108.0</ele><time>2026-03-28T17:36:00.999Z</time></trkpt><trkpt lat="45.437645320060206" lon="9.256514561750821"><ele>106.66666666666666</ele><time>2026-03-28T17:36:01.999Z</time></trkpt><trkpt lat="45.437809117524566" lon="9.256565253169502"><ele>105.33333333333333</ele><time>2026-03-28T17:36:02.999Z</time></trkpt><trkpt lat="45.43796510920676" lon="9.25660892730391"><ele>104.0</ele><time>2026-03-28T17:36:03.999Z</time></trkpt><trkpt lat="45.43811812521086" lon="9.256663238122258"><ele>104.0</ele><time>2026-03-28T17:36:04.999Z</time></trkpt><trkpt lat="45.43825222294593" lon="9.25671334895961"><ele>104.0</ele><time>2026-03-28T17:36:05.999Z</time></trkpt><trkpt lat="45.43840421847226" lon="9.25676556062733"><ele>104.0</ele><time>2026-03-28T17:36:06.999Z</time></trkpt><trkpt lat="45.43856108984451" lon="9.256806956229038"><ele>104.0</ele><time>2026-03-28T17:36:07.999Z</time></trkpt><trkpt lat="45.43872358799232" lon="9.256852829403842"><ele>104.0</ele><time>2026-03-28T17:36:08.999Z</time></trkpt><trkpt lat="45.43888888426287" lon="9.256902863000224"><ele>104.0</ele><time>2026-03-28T17:36:09.999Z</time></trkpt><trkpt lat="45.43905650285341" lon="9.256954906309334"><ele>104.0</ele><time>2026-03-28T17:36:10.999Z</time></trkpt><trkpt lat="45.4392248690735" lon="9.257001800016775"><ele>104.0</ele><time>2026-03-28T17:36:11.999Z</time></trkpt><trkpt lat="45.43939126374013" lon="9.257045439009245"><ele>104.0</ele><time>2026-03-28T17:36:12.999Z</time></trkpt><trkpt lat="45.43955961228699" lon="9.257086773191926"><ele>104.33333333333333</ele><time>2026-03-28T17:36:13.999Z</time></trkpt><trkpt lat="45.43973440093108" lon="9.2571341861946"><ele>104.66666666666666</ele><time>2026-03-28T17:36:14.999Z</time></trkpt><trkpt lat="45.439911732487786" lon="9.257188495258355"><ele>105.0</ele><time>2026-03-28T17:36:15.999Z</time></trkpt><trkpt lat="45.44008394502552" lon="9.257239071519752"><ele>104.33333333333334</ele><time>2026-03-28T17:36:16.999Z</time></trkpt><trkpt lat="45.4402514971881" lon="9.257286789347086"><ele>103.66666666666667</ele><time>2026-03-28T17:36:17.999Z</time></trkpt><trkpt lat="45.4404196859919" lon="9.257335204653423"><ele>103.0</ele><time>2026-03-28T17:36:18.999Z</time></trkpt><trkpt lat="45.44057946556507" lon="9.257379551368212"><ele>103.0</ele><time>2026-03-28T17:36:19.999Z</time></trkpt><trkpt lat="45.440741686456846" lon="9.257428190407104"><ele>103.0</ele><time>2026-03-28T17:36:20.999Z</time></trkpt><trkpt lat="45.44090753143491" lon="9.257474556608718"><ele>103.0</ele><time>2026-03-28T17:36:21.999Z</time></trkpt><trkpt lat="45.441076725372355" lon="9.25752804782981"><ele>103.0</ele><time>2026-03-28T17:36:22.999Z</time></trkpt><trkpt lat="45.44124850045034" lon="9.257577435130477"><ele>103.0</ele><time>2026-03-28T17:36:23.999Z</time></trkpt><trkpt lat="45.44141875972497" lon="9.257626105099478"><ele>103.0</ele><time>2026-03-28T17:36:24.999Z</time></trkpt><trkpt lat="45.441593561808574" lon="9.257676462863072"><ele>101.33333333333334</ele><time>2026-03-28T17:36:25.999Z</time></trkpt><trkpt lat="45.44176930861875" lon="9.257723582908088"><ele>99.66666666666666</ele><time>2026-03-28T17:36:26.999Z</time></trkpt><trkpt lat="45.44194606873505" lon="9.257766809911743"><ele>98.0</ele><time>2026-03-28T17:36:27.999Z</time></trkpt><trkpt lat="45.442125047551166" lon="9.257809529016985"><ele>100.0</ele><time>2026-03-28T17:36:28.999Z</time></trkpt><trkpt lat="45.4423018244415" lon="9.25785219478009"><ele>102.0</ele><time>2026-03-28T17:36:29.999Z</time></trkpt><trkpt lat="45.442474247206924" lon="9.25790180747017"><ele>104.0</ele><time>2026-03-28T17:36:30.999Z</time></trkpt><trkpt lat="45.442639827090844" lon="9.257948037071861"><ele>104.0</ele><time>2026-03-28T17:36:31.999Z</time></trkpt><trkpt lat="45.442804228379615" lon="9.257994199424427"><ele>104.0</ele><time>2026-03-28T17:36:32.999Z</time></trkpt><trkpt lat="45.44296746499829" lon="9.258040236161229"><ele>104.0</ele><time>2026-03-28T17:36:33.999Z</time></trkpt><trkpt lat="45.44313303171499" lon="9.25808841832267"><ele>103.0</ele><time>2026-03-28T17:36:34.999Z</time></trkpt><trkpt lat="45.44330059936345" lon="9.258134754374408"><ele>102.0</ele><time>2026-03-28T17:36:35.999Z</time></trkpt><trkpt lat="45.4434679405002" lon="9.25818357639968"><ele>101.0</ele><time>2026-03-28T17:36:36.999Z</time></trkpt><trkpt lat="45.443636691612184" lon="9.258232687495703"><ele>98.0</ele><time>2026-03-28T17:36:37.999Z</time></trkpt><trkpt lat="45.44380495877485" lon="9.258280234305126"><ele>95.0</ele><time>2026-03-28T17:36:38.999Z</time></trkpt><trkpt lat="45.44397398289934" lon="9.258328588331011"><ele>92.0</ele><time>2026-03-28T17:36:39.999Z</time></trkpt><trkpt lat="45.44414146876781" lon="9.258377902881408"><ele>92.0</ele><time>2026-03-28T17:36:40.999Z</time></trkpt><trkpt lat="45.44430865777161" lon="9.258426609149817"><ele>92.0</ele><time>2026-03-28T17:36:42Z</time></trkpt><trkpt lat="45.44447621635748" lon="9.258478462872116"><ele>92.0</ele><time>2026-03-28T17:36:43Z</time></trkpt><trkpt lat="45.444643357191254" lon="9.258526593251194"><ele>91.66666666666667</ele><time>2026-03-28T17:36:44Z</time></trkpt><trkpt lat="45.44480748364485" lon="9.258573488890416"><ele>91.33333333333333</ele><time>2026-03-28T17:36:45Z</time></trkpt><trkpt lat="45.44497309677304" lon="9.258616548609574"><ele>91.0</ele><time>2026-03-28T17:36:46Z</time></trkpt><trkpt lat="45.44513961947761" lon="9.258655182456636"><ele>91.0</ele><time>2026-03-28T17:36:47Z</time></trkpt><trkpt lat="45.44530290284121" lon="9.258692077640672"><ele>91.0</ele><time>2026-03-28T17:36:48Z</time></trkpt><trkpt lat="45.44546576833217" lon="9.258727205692571"><ele>91.0</ele><time>2026-03-28T17:36:49Z</time></trkpt><trkpt lat="45.44562659087988" lon="9.258770084540792"><ele>94.33333333333333</ele><time>2026-03-28T17:36:50Z</time></trkpt><trkpt lat="45.44579153151431" lon="9.258820846058482"><ele>97.66666666666666</ele><time>2026-03-28T17:36:51Z</time></trkpt><trkpt lat="45.445956605614434" lon="9.258868589225942"><ele>101.0</ele><time>2026-03-28T17:36:52Z</time></trkpt><trkpt lat="45.446124140444496" lon="9.258918163356832"><ele>102.66666666666666</ele><time>2026-03-28T17:36:53Z</time></trkpt><trkpt lat="45.44629103433175" lon="9.258951329619649"><ele>104.33333333333334</ele><time>2026-03-28T17:36:54Z</time></trkpt><trkpt lat="45.446462342031715" lon="9.25898255991417"><ele>106.0</ele><time>2026-03-28T17:36:55Z</time></trkpt><trkpt lat="45.44663335011815" lon="9.258996823524429"><ele>106.0</ele><time>2026-03-28T17:36:56Z</time></trkpt><trkpt lat="45.446807278325146" lon="9.259012303478759"><ele>106.0</ele><time>2026-03-28T17:36:57Z</time></trkpt><trkpt lat="45.44698405937105" lon="9.259024842446197"><ele>106.0</ele><time>2026-03-28T17:36:58Z</time></trkpt><trkpt lat="45.44716205863918" lon="9.259046570661056"><ele>106.66666666666667</ele><time>2026-03-28T17:36:59Z</time></trkpt><trkpt lat="45.44734210643376" lon="9.259067447054152"><ele>107.33333333333334</ele><time>2026-03-28T17:37:00Z</time></trkpt><trkpt lat="45.44752597618799" lon="9.259074484528929"><ele>108.0</ele><time>2026-03-28T17:37:01Z</time></trkpt><trkpt lat="45.44770906731614" lon="9.259073542709668"><ele>108.0</ele><time>2026-03-28T17:37:02Z</time></trkpt><trkpt lat="45.44788818820239" lon="9.259061595812055"><ele>108.0</ele><time>2026-03-28T17:37:03Z</time></trkpt><trkpt lat="45.44805214797782" lon="9.259041990209992"><ele>108.0</ele><time>2026-03-28T17:37:04Z</time></trkpt><trkpt lat="45.44820802600088" lon="9.25901834171932"><ele>107.75</ele><time>2026-03-28T17:37:05Z</time></trkpt><trkpt lat="45.44835807294816" lon="9.258999696341556"><ele>107.5</ele><time>2026-03-28T17:37:06Z</time></trkpt><trkpt lat="45.44849736211249" lon="9.258976932268403"><ele>107.25</ele><time>2026-03-28T17:37:07Z</time></trkpt><trkpt lat="45.44862962689487" lon="9.258948483615148"><ele>107.0</ele><time>2026-03-28T17:37:08Z</time></trkpt><trkpt lat="45.44874630738758" lon="9.258914596695803"><ele>107.33333333333333</ele><time>2026-03-28T17:37:09Z</time></trkpt><trkpt lat="45.44883406365141" lon="9.258881991058862"><ele>107.66666666666666</ele><time>2026-03-28T17:37:10Z</time></trkpt><trkpt lat="45.4489069397116" lon="9.258860480090481"><ele>108.0</ele><time>2026-03-28T17:37:11Z</time></trkpt><trkpt lat="45.4489742809643" lon="9.258836384989502"><ele>108.33333333333334</ele><time>2026-03-28T17:37:12Z</time></trkpt><trkpt lat="45.44905516301825" lon="9.258804682408382"><ele>108.66666666666667</ele><time>2026-03-28T17:37:13Z</time></trkpt><trkpt lat="45.44915324315005" lon="9.258775023727283"><ele>109.0</ele><time>2026-03-28T17:37:14Z</time></trkpt><trkpt lat="45.44925780077141" lon="9.258736207668287"><ele>109.0</ele><time>2026-03-28T17:37:15Z</time></trkpt><trkpt lat="45.44937370524773" lon="9.258689675432821"><ele>109.0</ele><time>2026-03-28T17:37:16Z</time></trkpt><trkpt lat="45.449496600075406" lon="9.258628280564363"><ele>109.0</ele><time>2026-03-28T17:37:17Z</time></trkpt><trkpt lat="45.449632567488585" lon="9.258561054187025"><ele>109.0</ele><time>2026-03-28T17:37:18Z</time></trkpt><trkpt lat="45.44977097075982" lon="9.258493860394074"><ele>110.0</ele><time>2026-03-28T17:37:19Z</time></trkpt><trkpt lat="45.44991615900499" lon="9.258421369728772"><ele>111.0</ele><time>2026-03-28T17:37:20Z</time></trkpt><trkpt lat="45.450064721902734" lon="9.258340998330008"><ele>112.0</ele><time>2026-03-28T17:37:21Z</time></trkpt><trkpt lat="45.450206667926764" lon="9.258254435850725"><ele>112.0</ele><time>2026-03-28T17:37:22Z</time></trkpt><trkpt lat="45.450330211101914" lon="9.258170369424183"><ele>112.0</ele><time>2026-03-28T17:37:23Z</time></trkpt><trkpt lat="45.4504427295779" lon="9.25808363125439"><ele>112.0</ele><time>2026-03-28T17:37:24Z</time></trkpt><trkpt lat="45.4505468653601" lon="9.258002755329581"><ele>112.0</ele><time>2026-03-28T17:37:25Z</time></trkpt><trkpt lat="45.45065433507855" lon="9.257927918262991"><ele>112.0</ele><time>2026-03-28T17:37:26Z</time></trkpt><trkpt lat="45.45076769008268" lon="9.2578476813474"><ele>112.0</ele><time>2026-03-28T17:37:27Z</time></trkpt><trkpt lat="45.45088731123346" lon="9.257757441519235"><ele>112.0</ele><time>2026-03-28T17:37:28Z</time></trkpt><trkpt lat="45.45101017289369" lon="9.257654559610494"><ele>112.0</ele><time>2026-03-28T17:37:29Z</time></trkpt><trkpt lat="45.451141168391096" lon="9.257543928948667"><ele>112.0</ele><time>2026-03-28T17:37:30Z</time></trkpt><trkpt lat="45.451278571032645" lon="9.257430963583124"><ele>112.0</ele><time>2026-03-28T17:37:31Z</time></trkpt><trkpt lat="45.4514199127496" lon="9.257309931320746"><ele>112.0</ele><time>2026-03-28T17:37:32Z</time></trkpt><trkpt lat="45.45156445268057" lon="9.257190713126334"><ele>111.66666666666667</ele><time>2026-03-28T17:37:32.999Z</time></trkpt><trkpt lat="45.451712610688936" lon="9.257066604504308"><ele>111.33333333333334</ele><time>2026-03-28T17:37:33.999Z</time></trkpt><trkpt lat="45.45185159202566" lon="9.256948040866888"><ele>111.0</ele><time>2026-03-28T17:37:34.999Z</time></trkpt><trkpt lat="45.4519768892369" lon="9.256841406960012"><ele>111.0</ele><time>2026-03-28T17:37:35.999Z</time></trkpt><trkpt lat="45.452091872347914" lon="9.256744834058633"><ele>111.0</ele><time>2026-03-28T17:37:36.999Z</time></trkpt><trkpt lat="45.4521984930463" lon="9.256656167794736"><ele>111.0</ele><time>2026-03-28T17:37:37.999Z</time></trkpt><trkpt lat="45.452298619134424" lon="9.256570173920524"><ele>111.0</ele><time>2026-03-28T17:37:38.999Z</time></trkpt><trkpt lat="45.452402168400305" lon="9.256486368623667"><ele>110.8</ele><time>2026-03-28T17:37:39.999Z</time></trkpt><trkpt lat="45.45249740200067" lon="9.25640732953875"><ele>110.6</ele><time>2026-03-28T17:37:40.999Z</time></trkpt><trkpt lat="45.45257939583053" lon="9.256338679882287"><ele>110.4</ele><time>2026-03-28T17:37:41.999Z</time></trkpt><trkpt lat="45.45266682795361" lon="9.256264498915149"><ele>110.2</ele><time>2026-03-28T17:37:42.999Z</time></trkpt><trkpt lat="45.452766159414175" lon="9.256187438612296"><ele>110.0</ele><time>2026-03-28T17:37:43.999Z</time></trkpt><trkpt lat="45.45287581710968" lon="9.256100535537866"><ele>110.33333333333333</ele><time>2026-03-28T17:37:44.999Z</time></trkpt><trkpt lat="45.453005962274005" lon="9.255991387202545"><ele>110.66666666666666</ele><time>2026-03-28T17:37:45.999Z</time></trkpt><trkpt lat="45.453146455467945" lon="9.255873996106677"><ele>111.0</ele><time>2026-03-28T17:37:46.999Z</time></trkpt><trkpt lat="45.45329358813875" lon="9.255754341696916"><ele>111.0</ele><time>2026-03-28T17:37:47.999Z</time></trkpt><trkpt lat="45.45343943423793" lon="9.255628584559327"><ele>111.0</ele><time>2026-03-28T17:37:48.999Z</time></trkpt><trkpt lat="45.453594831749484" lon="9.255496446726633"><ele>111.0</ele><time>2026-03-28T17:37:49.999Z</time></trkpt><trkpt lat="45.45375777819832" lon="9.255359750699371"><ele>111.0</ele><time>2026-03-28T17:37:50.999Z</time></trkpt><trkpt lat="45.45392365273833" lon="9.25521278813618"><ele>111.0</ele><time>2026-03-28T17:37:51.999Z</time></trkpt><trkpt lat="45.45409563275528" lon="9.255071309238875"><ele>111.0</ele><time>2026-03-28T17:37:52.999Z</time></trkpt><trkpt lat="45.454270756634074" lon="9.25492559325488"><ele>110.33333333333334</ele><time>2026-03-28T17:37:53.999Z</time></trkpt><trkpt lat="45.454444968097704" lon="9.25477510045909"><ele>109.66666666666667</ele><time>2026-03-28T17:37:54.999Z</time></trkpt><trkpt lat="45.454620471795224" lon="9.25462447035807"><ele>109.0</ele><time>2026-03-28T17:37:55.999Z</time></trkpt><trkpt lat="45.45479763267097" lon="9.254473553642852"><ele>111.0</ele><time>2026-03-28T17:37:56.999Z</time></trkpt><trkpt lat="45.454978629647464" lon="9.254324082781794"><ele>113.0</ele><time>2026-03-28T17:37:57.999Z</time></trkpt><trkpt lat="45.455159714364854" lon="9.25416948806232"><ele>115.0</ele><time>2026-03-28T17:37:58.999Z</time></trkpt><trkpt lat="45.45534323274108" lon="9.254012895050952"><ele>113.66666666666667</ele><time>2026-03-28T17:37:59.999Z</time></trkpt><trkpt lat="45.45552904542231" lon="9.253853910267196"><ele>112.33333333333334</ele><time>2026-03-28T17:38:00.999Z</time></trkpt><trkpt lat="45.455718359587564" lon="9.253694309082613"><ele>111.0</ele><time>2026-03-28T17:38:01.999Z</time></trkpt><trkpt lat="45.455910067662934" lon="9.253536107935679"><ele>111.0</ele><time>2026-03-28T17:38:02.999Z</time></trkpt><trkpt lat="45.45610571421565" lon="9.253374365674059"><ele>111.0</ele><time>2026-03-28T17:38:03.999Z</time></trkpt><trkpt lat="45.45630186025498" lon="9.25320857412804"><ele>111.5</ele><time>2026-03-28T17:38:04.999Z</time></trkpt><trkpt lat="45.45650483177405" lon="9.253049841511332"><ele>112.0</ele><time>2026-03-28T17:38:05.999Z</time></trkpt><trkpt lat="45.45670862387605" lon="9.25289179533971"><ele>112.0</ele><time>2026-03-28T17:38:06.999Z</time></trkpt><trkpt lat="45.45691596972523" lon="9.252737496566919"><ele>112.0</ele><time>2026-03-28T17:38:07.999Z</time></trkpt><trkpt lat="45.45712648161895" lon="9.252592989658105"><ele>112.5</ele><time>2026-03-28T17:38:08.999Z</time></trkpt><trkpt lat="45.457338748730294" lon="9.252454683342272"><ele>113.0</ele><time>2026-03-28T17:38:09.999Z</time></trkpt><trkpt lat="45.45755492317075" lon="9.252322026250354"><ele>113.5</ele><time>2026-03-28T17:38:10.999Z</time></trkpt><trkpt lat="45.4577733461909" lon="9.252197961825814"><ele>114.0</ele><time>2026-03-28T17:38:11.999Z</time></trkpt><trkpt lat="45.45799405246026" lon="9.252081236739821"><ele>114.0</ele><time>2026-03-28T17:38:12.999Z</time></trkpt><trkpt lat="45.45821616739783" lon="9.251973646563904"><ele>114.0</ele><time>2026-03-28T17:38:13.999Z</time></trkpt><trkpt lat="45.45844084040326" lon="9.251881703674686"><ele>114.0</ele><time>2026-03-28T17:38:14.999Z</time></trkpt><trkpt lat="45.45866427942453" lon="9.251800139649447"><ele>114.0</ele><time>2026-03-28T17:38:15.999Z</time></trkpt><trkpt lat="45.458889899902495" lon="9.251725280998837"><ele>113.5</ele><time>2026-03-28T17:38:16.999Z</time></trkpt><trkpt lat="45.45911705686634" lon="9.251663153342252"><ele>113.0</ele><time>2026-03-28T17:38:17.999Z</time></trkpt><trkpt lat="45.45934387924687" lon="9.251602340372058"><ele>113.0</ele><time>2026-03-28T17:38:18.999Z</time></trkpt><trkpt lat="45.45957076172025" lon="9.251544809826417"><ele>113.0</ele><time>2026-03-28T17:38:19.999Z</time></trkpt><trkpt lat="45.459797709962274" lon="9.251495011569302"><ele>113.0</ele><time>2026-03-28T17:38:20.999Z</time></trkpt><trkpt lat="45.46002878604723" lon="9.251455968078897"><ele>113.0</ele><time>2026-03-28T17:38:21.999Z</time></trkpt><trkpt lat="45.46026015245865" lon="9.25141922907757"><ele>115.0</ele><time>2026-03-28T17:38:22.999Z</time></trkpt><trkpt lat="45.460492097579085" lon="9.251389193719007"><ele>117.0</ele><time>2026-03-28T17:38:23.999Z</time></trkpt><trkpt lat="45.46072429030481" lon="9.251371542878303"><ele>117.0</ele><time>2026-03-28T17:38:24.999Z</time></trkpt><trkpt lat="45.46096097280087" lon="9.251365035049046"><ele>117.0</ele><time>2026-03-28T17:38:25.999Z</time></trkpt><trkpt lat="45.461200567650366" lon="9.251368861716193"><ele>116.5</ele><time>2026-03-28T17:38:26.999Z</time></trkpt><trkpt lat="45.461437608042196" lon="9.251379131526704"><ele>116.0</ele><time>2026-03-28T17:38:27.999Z</time></trkpt><trkpt lat="45.46167290618478" lon="9.251397984973542"><ele>116.0</ele><time>2026-03-28T17:38:28.999Z</time></trkpt><trkpt lat="45.461910644815276" lon="9.251426215546534"><ele>116.0</ele><time>2026-03-28T17:38:29.999Z</time></trkpt><trkpt lat="45.46214656189738" lon="9.251463084458964"><ele>113.5</ele><time>2026-03-28T17:38:30.999Z</time></trkpt><trkpt lat="45.46238073194307" lon="9.251508237623915"><ele>111.0</ele><time>2026-03-28T17:38:31.999Z</time></trkpt><trkpt lat="45.462614871053546" lon="9.251562903923775"><ele>111.0</ele><time>2026-03-28T17:38:32.999Z</time></trkpt><trkpt lat="45.46284708063973" lon="9.251627349825977"><ele>111.0</ele><time>2026-03-28T17:38:33.999Z</time></trkpt><trkpt lat="45.463080500659686" lon="9.25169282782147"><ele>109.5</ele><time>2026-03-28T17:38:34.999Z</time></trkpt><trkpt lat="45.46331174768968" lon="9.2517559435451"><ele>108.0</ele><time>2026-03-28T17:38:35.999Z</time></trkpt><trkpt lat="45.463545136171675" lon="9.251818892401856"><ele>108.0</ele><time>2026-03-28T17:38:36.999Z</time></trkpt><trkpt lat="45.46377865378267" lon="9.251885452813484"><ele>108.0</ele><time>2026-03-28T17:38:37.999Z</time></trkpt><trkpt lat="45.46400003266437" lon="9.251950604481445"><ele>108.33333333333334</ele><time>2026-03-28T17:38:38.999Z</time></trkpt><trkpt lat="45.464219598746084" lon="9.2520117365265"><ele>108.66666666666667</ele><time>2026-03-28T17:38:39.999Z</time></trkpt><trkpt lat="45.46443957431411" lon="9.252071648919214"><ele>109.0</ele><time>2026-03-28T17:38:40.999Z</time></trkpt><trkpt lat="45.46465925633349" lon="9.252126424083158"><ele>110.33333333333334</ele><time>2026-03-28T17:38:41.999Z</time></trkpt><trkpt lat="45.46487713167077" lon="9.252175573543546"><ele>111.66666666666666</ele><time>2026-03-28T17:38:42.999Z</time></trkpt><trkpt lat="45.465096902521566" lon="9.252217863129776"><ele>113.0</ele><time>2026-03-28T17:38:43.999Z</time></trkpt><trkpt lat="45.46531555493236" lon="9.252249501875747"><ele>113.33333333333333</ele><time>2026-03-28T17:38:44.999Z</time></trkpt><trkpt lat="45.465534247578375" lon="9.252270185882978"><ele>113.66666666666666</ele><time>2026-03-28T17:38:45.999Z</time></trkpt><trkpt lat="45.465750249399974" lon="9.252280970431103"><ele>114.0</ele><time>2026-03-28T17:38:46.999Z</time></trkpt><trkpt lat="45.46596331975019" lon="9.252281885656144"><ele>114.0</ele><time>2026-03-28T17:38:48Z</time></trkpt><trkpt lat="45.46617706187488" lon="9.252275742089864"><ele>114.0</ele><time>2026-03-28T17:38:49Z</time></trkpt><trkpt lat="45.46639153078942" lon="9.252268412640788"><ele>114.0</ele><time>2026-03-28T17:38:50Z</time></trkpt><trkpt lat="45.466604716877264" lon="9.252259782024606"><ele>114.33333333333334</ele><time>2026-03-28T17:38:51Z</time></trkpt><trkpt lat="45.46681860380911" lon="9.25225120781227"><ele>114.66666666666667</ele><time>2026-03-28T17:38:52Z</time></trkpt><trkpt lat="45.46703207584061" lon="9.252241359062396"><ele>115.0</ele><time>2026-03-28T17:38:53Z</time></trkpt><trkpt lat="45.467245682880765" lon="9.252230158615394"><ele>115.0</ele><time>2026-03-28T17:38:54Z</time></trkpt><trkpt lat="45.46745810302876" lon="9.252223732767177"><ele>115.0</ele><time>2026-03-28T17:38:55Z</time></trkpt><trkpt lat="45.467670633898955" lon="9.252222156707765"><ele>115.0</ele><time>2026-03-28T17:38:56Z</time></trkpt><trkpt lat="45.467877849323855" lon="9.252216724133572"><ele>115.0</ele><time>2026-03-28T17:38:57Z</time></trkpt><trkpt lat="45.46808430072724" lon="9.252209636097101"><ele>115.0</ele><time>2026-03-28T17:38:58Z</time></trkpt><trkpt lat="45.46829194247972" lon="9.252201445625001"><ele>115.0</ele><time>2026-03-28T17:38:59Z</time></trkpt><trkpt lat="45.46850396665875" lon="9.252188658534942"><ele>115.0</ele><time>2026-03-28T17:39:00Z</time></trkpt><trkpt lat="45.468715492394075" lon="9.252175603373571"><ele>115.0</ele><time>2026-03-28T17:39:01Z</time></trkpt><trkpt lat="45.46892712868889" lon="9.252167890341534"><ele>115.0</ele><time>2026-03-28T17:39:02Z</time></trkpt><trkpt lat="45.46913688196723" lon="9.252162109844868"><ele>114.66666666666667</ele><time>2026-03-28T17:39:03Z</time></trkpt><trkpt lat="45.46934749016216" lon="9.252160183651792"><ele>114.33333333333334</ele><time>2026-03-28T17:39:04Z</time></trkpt><trkpt lat="45.469558739071346" lon="9.252165267175089"><ele>114.0</ele><time>2026-03-28T17:39:05Z</time></trkpt><trkpt lat="45.46976906735767" lon="9.252173935080345"><ele>114.0</ele><time>2026-03-28T17:39:06Z</time></trkpt><trkpt lat="45.46998014006477" lon="9.252185928927757"><ele>114.0</ele><time>2026-03-28T17:39:07Z</time></trkpt><trkpt lat="45.470189110792724" lon="9.252203189393226"><ele>114.0</ele><time>2026-03-28T17:39:08Z</time></trkpt><trkpt lat="45.47039957326678" lon="9.252223499834692"><ele>113.66666666666666</ele><time>2026-03-28T17:39:09Z</time></trkpt><trkpt lat="45.470613525239926" lon="9.252248262319029"><ele>113.33333333333333</ele><time>2026-03-28T17:39:10Z</time></trkpt><trkpt lat="45.47082887029867" lon="9.252280229241496"><ele>113.0</ele><time>2026-03-28T17:39:11Z</time></trkpt><trkpt lat="45.47104523479282" lon="9.252314226904174"><ele>114.0</ele><time>2026-03-28T17:39:12Z</time></trkpt><trkpt lat="45.47126207789155" lon="9.252351431032052"><ele>115.0</ele><time>2026-03-28T17:39:13Z</time></trkpt><trkpt lat="45.471478805328395" lon="9.252392714217061"><ele>116.0</ele><time>2026-03-28T17:39:14Z</time></trkpt><trkpt lat="45.47169519805377" lon="9.252441440898558"><ele>116.33333333333333</ele><time>2026-03-28T17:39:15Z</time></trkpt><trkpt lat="45.471909984010914" lon="9.252499010280566"><ele>116.66666666666666</ele><time>2026-03-28T17:39:16Z</time></trkpt><trkpt lat="45.4721249890082" lon="9.252557990756511"><ele>117.0</ele><time>2026-03-28T17:39:17Z</time></trkpt><trkpt lat="45.472341827761184" lon="9.252615316154687"><ele>117.66666666666666</ele><time>2026-03-28T17:39:18Z</time></trkpt><trkpt lat="45.472553433180586" lon="9.252670470480279"><ele>118.33333333333333</ele><time>2026-03-28T17:39:19Z</time></trkpt><trkpt lat="45.472770144299844" lon="9.252733328018493"><ele>119.0</ele><time>2026-03-28T17:39:20Z</time></trkpt><trkpt lat="45.47297933343531" lon="9.252801675442448"><ele>119.0</ele><time>2026-03-28T17:39:21Z</time></trkpt><trkpt lat="45.473188776557755" lon="9.252873371765743"><ele>119.0</ele><time>2026-03-28T17:39:22Z</time></trkpt><trkpt lat="45.473398513319665" lon="9.252945495296803"><ele>119.0</ele><time>2026-03-28T17:39:23Z</time></trkpt><trkpt lat="45.47360554405176" lon="9.253019770527384"><ele>119.33333333333333</ele><time>2026-03-28T17:39:24Z</time></trkpt><trkpt lat="45.47381027772313" lon="9.253092858027605"><ele>119.66666666666666</ele><time>2026-03-28T17:39:25Z</time></trkpt><trkpt lat="45.47401233970199" lon="9.253163055181075"><ele>120.0</ele><time>2026-03-28T17:39:26Z</time></trkpt><trkpt lat="45.474214017064895" lon="9.253233400495459"><ele>120.0</ele><time>2026-03-28T17:39:27Z</time></trkpt><trkpt lat="45.47441540389771" lon="9.253303111798731"><ele>120.0</ele><time>2026-03-28T17:39:28Z</time></trkpt><trkpt lat="45.47460840609127" lon="9.253370495197876"><ele>120.0</ele><time>2026-03-28T17:39:29Z</time></trkpt><trkpt lat="45.47480202470384" lon="9.25343616657085"><ele>120.0</ele><time>2026-03-28T17:39:30Z</time></trkpt><trkpt lat="45.474993914215055" lon="9.253500409217757"><ele>120.0</ele><time>2026-03-28T17:39:31Z</time></trkpt><trkpt lat="45.475184710876334" lon="9.253556354664989"><ele>120.0</ele><time>2026-03-28T17:39:32Z</time></trkpt><trkpt lat="45.47537896153759" lon="9.253611378571755"><ele>119.0</ele><time>2026-03-28T17:39:33Z</time></trkpt><trkpt lat="45.475574472043874" lon="9.253660515084594"><ele>118.0</ele><time>2026-03-28T17:39:34Z</time></trkpt><trkpt lat="45.47577126188671" lon="9.253701156218696"><ele>117.0</ele><time>2026-03-28T17:39:35Z</time></trkpt><trkpt lat="45.47597071915454" lon="9.253728386020988"><ele>117.0</ele><time>2026-03-28T17:39:36Z</time></trkpt><trkpt lat="45.47617119679882" lon="9.25374466906215"><ele>117.0</ele><time>2026-03-28T17:39:37Z</time></trkpt><trkpt lat="45.47637388470009" lon="9.253749400327303"><ele>117.0</ele><time>2026-03-28T17:39:38Z</time></trkpt><trkpt lat="45.47658000725523" lon="9.253746889729237"><ele>117.0</ele><time>2026-03-28T17:39:39Z</time></trkpt><trkpt lat="45.47678606957234" lon="9.253730115219543"><ele>117.0</ele><time>2026-03-28T17:39:40Z</time></trkpt><trkpt lat="45.47699105391376" lon="9.25370272646421"><ele>117.0</ele><time>2026-03-28T17:39:40.999Z</time></trkpt><trkpt lat="45.47719664778174" lon="9.253667033249986"><ele>116.0</ele><time>2026-03-28T17:39:41.999Z</time></trkpt><trkpt lat="45.47740260509255" lon="9.253617140693597"><ele>115.0</ele><time>2026-03-28T17:39:42.999Z</time></trkpt><trkpt lat="45.477608026398414" lon="9.253557957029788"><ele>114.0</ele><time>2026-03-28T17:39:43.999Z</time></trkpt><trkpt lat="45.47781187317988" lon="9.253488931115685"><ele>115.0</ele><time>2026-03-28T17:39:44.999Z</time></trkpt><trkpt lat="45.47801445524463" lon="9.253409252692709"><ele>116.0</ele><time>2026-03-28T17:39:45.999Z</time></trkpt><trkpt lat="45.47821623083317" lon="9.25332407926118"><ele>117.0</ele><time>2026-03-28T17:39:46.999Z</time></trkpt><trkpt lat="45.478422595133146" lon="9.253236900901934"><ele>117.0</ele><time>2026-03-28T17:39:47.999Z</time></trkpt><trkpt lat="45.47862347478251" lon="9.25314365268563"><ele>117.0</ele><time>2026-03-28T17:39:48.999Z</time></trkpt><trkpt lat="45.47882125386644" lon="9.25305001995099"><ele>117.0</ele><time>2026-03-28T17:39:49.999Z</time></trkpt><trkpt lat="45.47901664070164" lon="9.252960912610131"><ele>117.66666666666666</ele><time>2026-03-28T17:39:50.999Z</time></trkpt><trkpt lat="45.479207545231624" lon="9.252876366464323"><ele>118.33333333333333</ele><time>2026-03-28T17:39:51.999Z</time></trkpt><trkpt lat="45.47939776026321" lon="9.252790794671558"><ele>119.0</ele><time>2026-03-28T17:39:52.999Z</time></trkpt><trkpt lat="45.479586123523326" lon="9.252701508911372"><ele>118.33333333333333</ele><time>2026-03-28T17:39:53.999Z</time></trkpt><trkpt lat="45.479775936409894" lon="9.252614928450152"><ele>117.66666666666666</ele><time>2026-03-28T17:39:54.999Z</time></trkpt><trkpt lat="45.47996524930173" lon="9.252530856304306"><ele>117.0</ele><time>2026-03-28T17:39:55.999Z</time></trkpt><trkpt lat="45.48015558118974" lon="9.252445612598727"><ele>117.0</ele><time>2026-03-28T17:39:56.999Z</time></trkpt><trkpt lat="45.48034625550937" lon="9.252360521648995"><ele>117.0</ele><time>2026-03-28T17:39:57.999Z</time></trkpt><trkpt lat="45.48053614723458" lon="9.252274587300002"><ele>117.0</ele><time>2026-03-28T17:39:58.999Z</time></trkpt><trkpt lat="45.480726464224375" lon="9.2521869161043"><ele>118.33333333333334</ele><time>2026-03-28T17:39:59.999Z</time></trkpt><trkpt lat="45.480916810211774" lon="9.252100518556091"><ele>119.66666666666667</ele><time>2026-03-28T17:40:00.999Z</time></trkpt><trkpt lat="45.48110702817834" lon="9.252011959540415"><ele>121.0</ele><time>2026-03-28T17:40:01.999Z</time></trkpt><trkpt lat="45.481297320398134" lon="9.251924228860961"><ele>121.0</ele><time>2026-03-28T17:40:02.999Z</time></trkpt><trkpt lat="45.48148717221571" lon="9.251837854539875"><ele>121.0</ele><time>2026-03-28T17:40:03.999Z</time></trkpt><trkpt lat="45.48167801206369" lon="9.251750694206484"><ele>121.0</ele><time>2026-03-28T17:40:04.999Z</time></trkpt><trkpt lat="45.481870149401495" lon="9.251665665344406"><ele>121.0</ele><time>2026-03-28T17:40:05.999Z</time></trkpt><trkpt lat="45.48206076093786" lon="9.251579427110943"><ele>121.0</ele><time>2026-03-28T17:40:06.999Z</time></trkpt><trkpt lat="45.48225069931914" lon="9.251500101827553"><ele>121.0</ele><time>2026-03-28T17:40:07.999Z</time></trkpt><trkpt lat="45.482443251490146" lon="9.251433331846888"><ele>120.66666666666667</ele><time>2026-03-28T17:40:08.999Z</time></trkpt><trkpt lat="45.48263914089949" lon="9.251373728853359"><ele>120.33333333333334</ele><time>2026-03-28T17:40:09.999Z</time></trkpt><trkpt lat="45.48283496426671" lon="9.251319505923524"><ele>120.0</ele><time>2026-03-28T17:40:10.999Z</time></trkpt><trkpt lat="45.483030593843196" lon="9.251274012954253"><ele>119.33333333333334</ele><time>2026-03-28T17:40:11.999Z</time></trkpt><trkpt lat="45.48322821189253" lon="9.251235663606588"><ele>118.66666666666667</ele><time>2026-03-28T17:40:12.999Z</time></trkpt><trkpt lat="45.48342546831546" lon="9.251202838486174"><ele>118.0</ele><time>2026-03-28T17:40:13.999Z</time></trkpt><trkpt lat="45.48362438867727" lon="9.251181840137289"><ele>118.66666666666667</ele><time>2026-03-28T17:40:14.999Z</time></trkpt><trkpt lat="45.483824512092006" lon="9.25116977959869"><ele>119.33333333333334</ele><time>2026-03-28T17:40:15.999Z</time></trkpt><trkpt lat="45.484023382049074" lon="9.251163189153731"><ele>120.0</ele><time>2026-03-28T17:40:16.999Z</time></trkpt><trkpt lat="45.48422237575642" lon="9.251162770319745"><ele>120.0</ele><time>2026-03-28T17:40:17.999Z</time></trkpt><trkpt lat="45.48442178359806" lon="9.25117104077294"><ele>120.0</ele><time>2026-03-28T17:40:18.999Z</time></trkpt><trkpt lat="45.4846215187984" lon="9.251185136028404"><ele>120.0</ele><time>2026-03-28T17:40:19.999Z</time></trkpt><trkpt lat="45.48482177909163" lon="9.251204690405741"><ele>119.33333333333334</ele><time>2026-03-28T17:40:20.999Z</time></trkpt><trkpt lat="45.48502060283624" lon="9.251228587217494"><ele>118.66666666666667</ele><time>2026-03-28T17:40:21.999Z</time></trkpt><trkpt lat="45.48521928422914" lon="9.25125375447979"><ele>118.0</ele><time>2026-03-28T17:40:22.999Z</time></trkpt><trkpt lat="45.485418066816074" lon="9.251280876020495"><ele>118.0</ele><time>2026-03-28T17:40:23.999Z</time></trkpt><trkpt lat="45.48561578520303" lon="9.251310281677407"><ele>118.0</ele><time>2026-03-28T17:40:24.999Z</time></trkpt><trkpt lat="45.485814547819245" lon="9.251342339015121"><ele>118.0</ele><time>2026-03-28T17:40:25.999Z</time></trkpt><trkpt lat="45.48601269006258" lon="9.251372449615976"><ele>118.0</ele><time>2026-03-28T17:40:26.999Z</time></trkpt><trkpt lat="45.48621048596559" lon="9.251403901491196"><ele>118.0</ele><time>2026-03-28T17:40:27.999Z</time></trkpt><trkpt lat="45.48640805069773" lon="9.251437739383343"><ele>118.0</ele><time>2026-03-28T17:40:28.999Z</time></trkpt><trkpt lat="45.48660420839772" lon="9.251468204231537"><ele>118.0</ele><time>2026-03-28T17:40:29.999Z</time></trkpt><trkpt lat="45.48680301307327" lon="9.251500372300258"><ele>118.0</ele><time>2026-03-28T17:40:30.999Z</time></trkpt><trkpt lat="45.48700143397154" lon="9.251531889894338"><ele>118.0</ele><time>2026-03-28T17:40:31.999Z</time></trkpt><trkpt lat="45.4871999571873" lon="9.251561841492986"><ele>118.0</ele><time>2026-03-28T17:40:32.999Z</time></trkpt><trkpt lat="45.48739883606175" lon="9.251593162265191"><ele>118.0</ele><time>2026-03-28T17:40:33.999Z</time></trkpt><trkpt lat="45.48759747978239" lon="9.251623574602933"><ele>118.0</ele><time>2026-03-28T17:40:34.999Z</time></trkpt><trkpt lat="45.48779561704539" lon="9.251653009857847"><ele>118.33333333333334</ele><time>2026-03-28T17:40:35.999Z</time></trkpt><trkpt lat="45.48799315668186" lon="9.251682222662977"><ele>118.66666666666666</ele><time>2026-03-28T17:40:36.999Z</time></trkpt><trkpt lat="45.48819168956626" lon="9.25171267477017"><ele>119.0</ele><time>2026-03-28T17:40:37.999Z</time></trkpt><trkpt lat="45.48839051139722" lon="9.251743611411564"><ele>119.0</ele><time>2026-03-28T17:40:38.999Z</time></trkpt><trkpt lat="45.488589156685244" lon="9.251772065423799"><ele>119.0</ele><time>2026-03-28T17:40:39.999Z</time></trkpt><trkpt lat="45.48878764083422" lon="9.251802665369642"><ele>119.0</ele><time>2026-03-28T17:40:40.999Z</time></trkpt><trkpt lat="45.488985478742606" lon="9.251832800651325"><ele>119.66666666666666</ele><time>2026-03-28T17:40:41.999Z</time></trkpt><trkpt lat="45.4891834223932" lon="9.251865015646684"><ele>120.33333333333334</ele><time>2026-03-28T17:40:42.999Z</time></trkpt><trkpt lat="45.48938132421183" lon="9.25189685778163"><ele>121.0</ele><time>2026-03-28T17:40:43.999Z</time></trkpt><trkpt lat="45.48957882041469" lon="9.251928367905949"><ele>121.0</ele><time>2026-03-28T17:40:44.999Z</time></trkpt><trkpt lat="45.489777203856235" lon="9.251960103315733"><ele>121.0</ele><time>2026-03-28T17:40:45.999Z</time></trkpt><trkpt lat="45.48997335461311" lon="9.251992979860942"><ele>121.0</ele><time>2026-03-28T17:40:46.999Z</time></trkpt><trkpt lat="45.490170863349626" lon="9.252030876882381"><ele>121.0</ele><time>2026-03-28T17:40:47.999Z</time></trkpt><trkpt lat="45.49036673823251" lon="9.252076250815337"><ele>121.0</ele><time>2026-03-28T17:40:48.999Z</time></trkpt><trkpt lat="45.49056250140517" lon="9.25212414998366"><ele>121.0</ele><time>2026-03-28T17:40:49.999Z</time></trkpt><trkpt lat="45.4907580487474" lon="9.252181759616263"><ele>121.0</ele><time>2026-03-28T17:40:50.999Z</time></trkpt><trkpt lat="45.49095316643801" lon="9.252244923769172"><ele>121.0</ele><time>2026-03-28T17:40:51.999Z</time></trkpt><trkpt lat="45.49114739125888" lon="9.252312073745077"><ele>121.0</ele><time>2026-03-28T17:40:52.999Z</time></trkpt><trkpt lat="45.49133915472523" lon="9.252383864921118"><ele>122.33333333333334</ele><time>2026-03-28T17:40:54Z</time></trkpt><trkpt lat="45.49153173047259" lon="9.252458264894662"><ele>123.66666666666666</ele><time>2026-03-28T17:40:55Z</time></trkpt><trkpt lat="45.49172207886217" lon="9.252540056876938"><ele>125.0</ele><time>2026-03-28T17:40:56Z</time></trkpt><trkpt lat="45.49191166670197" lon="9.252630738317063"><ele>123.66666666666666</ele><time>2026-03-28T17:40:57Z</time></trkpt><trkpt lat="45.49209848656788" lon="9.252727793520169"><ele>122.33333333333334</ele><time>2026-03-28T17:40:58Z</time></trkpt><trkpt lat="45.49228449224583" lon="9.252832968519082"><ele>121.0</ele><time>2026-03-28T17:40:59Z</time></trkpt><trkpt lat="45.49246745396248" lon="9.252944165919562"><ele>121.0</ele><time>2026-03-28T17:41:00Z</time></trkpt><trkpt lat="45.49264937673591" lon="9.253059196685479"><ele>121.0</ele><time>2026-03-28T17:41:01Z</time></trkpt><trkpt lat="45.49283007764642" lon="9.25317624017135"><ele>121.0</ele><time>2026-03-28T17:41:02Z</time></trkpt><trkpt lat="45.49301176917107" lon="9.253295001504867"><ele>121.0</ele><time>2026-03-28T17:41:03Z</time></trkpt><trkpt lat="45.493192927019145" lon="9.253416615094098"><ele>121.0</ele><time>2026-03-28T17:41:04Z</time></trkpt><trkpt lat="45.493374820712546" lon="9.253536962891982"><ele>121.0</ele><time>2026-03-28T17:41:05Z</time></trkpt><trkpt lat="45.493556893622724" lon="9.253659234328333"><ele>121.0</ele><time>2026-03-28T17:41:06Z</time></trkpt><trkpt lat="45.49373722190474" lon="9.253781676199019"><ele>121.0</ele><time>2026-03-28T17:41:07Z</time></trkpt><trkpt lat="45.49391772653753" lon="9.253905577335079"><ele>121.0</ele><time>2026-03-28T17:41:08Z</time></trkpt><trkpt lat="45.49409851752425" lon="9.254027472765795"><ele>120.66666666666667</ele><time>2026-03-28T17:41:09Z</time></trkpt><trkpt lat="45.494279720917724" lon="9.254148797661053"><ele>120.33333333333334</ele><time>2026-03-28T17:41:10Z</time></trkpt><trkpt lat="45.494459375280144" lon="9.254274002018745"><ele>120.0</ele><time>2026-03-28T17:41:11Z</time></trkpt><trkpt lat="45.49463947943329" lon="9.254398567359301"><ele>120.0</ele><time>2026-03-28T17:41:12Z</time></trkpt><trkpt lat="45.49481959636573" lon="9.254521917819282"><ele>120.0</ele><time>2026-03-28T17:41:13Z</time></trkpt><trkpt lat="45.495001564367335" lon="9.25464362195928"><ele>120.0</ele><time>2026-03-28T17:41:14Z</time></trkpt><trkpt lat="45.49518218081857" lon="9.25475960592575"><ele>120.33333333333334</ele><time>2026-03-28T17:41:15Z</time></trkpt><trkpt lat="45.495364593722286" lon="9.254872031736294"><ele>120.66666666666667</ele><time>2026-03-28T17:41:16Z</time></trkpt><trkpt lat="45.49554897464524" lon="9.254978070977037"><ele>121.0</ele><time>2026-03-28T17:41:17Z</time></trkpt><trkpt lat="45.495734782233306" lon="9.255078825752125"><ele>121.66666666666667</ele><time>2026-03-28T17:41:18Z</time></trkpt><trkpt lat="45.49592193310617" lon="9.255174174265598"><ele>122.33333333333334</ele><time>2026-03-28T17:41:19Z</time></trkpt><trkpt lat="45.49611142591034" lon="9.255260464164923"><ele>123.0</ele><time>2026-03-28T17:41:20Z</time></trkpt><trkpt lat="45.49630414612901" lon="9.255330453918589"><ele>121.66666666666666</ele><time>2026-03-28T17:41:21Z</time></trkpt><trkpt lat="45.496499106993824" lon="9.255388365587914"><ele>120.33333333333333</ele><time>2026-03-28T17:41:22Z</time></trkpt><trkpt lat="45.49669399433875" lon="9.255438184202804"><ele>119.0</ele><time>2026-03-28T17:41:23Z</time></trkpt><trkpt lat="45.496891283073296" lon="9.255480980966674"><ele>120.66666666666666</ele><time>2026-03-28T17:41:24Z</time></trkpt><trkpt lat="45.497089438694935" lon="9.25551457404293"><ele>122.33333333333334</ele><time>2026-03-28T17:41:25Z</time></trkpt><trkpt lat="45.49728753392585" lon="9.255535851380012"><ele>124.0</ele><time>2026-03-28T17:41:26Z</time></trkpt><trkpt lat="45.497485379841585" lon="9.255556708520928"><ele>124.0</ele><time>2026-03-28T17:41:27Z</time></trkpt><trkpt lat="45.49768527474279" lon="9.255576965191926"><ele>124.0</ele><time>2026-03-28T17:41:28Z</time></trkpt><trkpt lat="45.49788433840576" lon="9.255601432184807"><ele>124.0</ele><time>2026-03-28T17:41:29Z</time></trkpt><trkpt lat="45.498082542457425" lon="9.255626041527155"><ele>123.33333333333334</ele><time>2026-03-28T17:41:30Z</time></trkpt><trkpt lat="45.498279889395626" lon="9.255649577427851"><ele>122.66666666666666</ele><time>2026-03-28T17:41:31Z</time></trkpt><trkpt lat="45.498478311362575" lon="9.255670811015642"><ele>122.0</ele><time>2026-03-28T17:41:32Z</time></trkpt><trkpt lat="45.49867710082305" lon="9.255692559883324"><ele>123.33333333333333</ele><time>2026-03-28T17:41:33Z</time></trkpt><trkpt lat="45.498874811368346" lon="9.255713225289346"><ele>124.66666666666666</ele><time>2026-03-28T17:41:34Z</time></trkpt><trkpt lat="45.49907364985294" lon="9.255737672346516"><ele>126.0</ele><time>2026-03-28T17:41:35Z</time></trkpt><trkpt lat="45.4992734320077" lon="9.255759418282185"><ele>126.0</ele><time>2026-03-28T17:41:36Z</time></trkpt><trkpt lat="45.49947139663546" lon="9.255778908446008"><ele>126.0</ele><time>2026-03-28T17:41:37Z</time></trkpt><trkpt lat="45.499670734840834" lon="9.255800653618564"><ele>126.0</ele><time>2026-03-28T17:41:38Z</time></trkpt><trkpt lat="45.49986927214153" lon="9.255825040464421"><ele>125.33333333333334</ele><time>2026-03-28T17:41:39Z</time></trkpt><trkpt lat="45.50006679209688" lon="9.255856273506277"><ele>124.66666666666667</ele><time>2026-03-28T17:41:40Z</time></trkpt><trkpt lat="45.50026340528068" lon="9.255896328131845"><ele>124.0</ele><time>2026-03-28T17:41:41Z</time></trkpt><trkpt lat="45.500459226138894" lon="9.2559486427233"><ele>123.0</ele><time>2026-03-28T17:41:42Z</time></trkpt><trkpt lat="45.50065457380831" lon="9.256008848724518"><ele>122.0</ele><time>2026-03-28T17:41:43Z</time></trkpt><trkpt lat="45.500846557380605" lon="9.256078402399263"><ele>121.0</ele><time>2026-03-28T17:41:44Z</time></trkpt><trkpt lat="45.50103667467473" lon="9.256160110577255"><ele>121.0</ele><time>2026-03-28T17:41:45Z</time></trkpt><trkpt lat="45.50122377407905" lon="9.256254834961803"><ele>121.0</ele><time>2026-03-28T17:41:45.999Z</time></trkpt><trkpt lat="45.50140872615428" lon="9.25636130230003"><ele>121.0</ele><time>2026-03-28T17:41:46.999Z</time></trkpt><trkpt lat="45.501589319866355" lon="9.256473733757922"><ele>120.66666666666667</ele><time>2026-03-28T17:41:47.999Z</time></trkpt><trkpt lat="45.501768160739054" lon="9.256596074991057"><ele>120.33333333333334</ele><time>2026-03-28T17:41:48.999Z</time></trkpt><trkpt lat="45.50194523285804" lon="9.256725266123755"><ele>120.0</ele><time>2026-03-28T17:41:49.999Z</time></trkpt><trkpt lat="45.50212188159751" lon="9.256859181339491"><ele>120.0</ele><time>2026-03-28T17:41:50.999Z</time></trkpt><trkpt lat="45.502299927036596" lon="9.256990965417005"><ele>120.0</ele><time>2026-03-28T17:41:51.999Z</time></trkpt><trkpt lat="45.50247627902771" lon="9.257122910577875"><ele>120.0</ele><time>2026-03-28T17:41:52.999Z</time></trkpt><trkpt lat="45.50265218179204" lon="9.257255937281187"><ele>120.0</ele><time>2026-03-28T17:41:53.999Z</time></trkpt><trkpt lat="45.50282859013197" lon="9.257389188343934"><ele>120.0</ele><time>2026-03-28T17:41:54.999Z</time></trkpt><trkpt lat="45.50300524878135" lon="9.257521430936377"><ele>120.0</ele><time>2026-03-28T17:41:55.999Z</time></trkpt><trkpt lat="45.503180523101825" lon="9.257655539122343"><ele>120.0</ele><time>2026-03-28T17:41:56.999Z</time></trkpt><trkpt lat="45.50335590969231" lon="9.257788719860022"><ele>120.0</ele><time>2026-03-28T17:41:57.999Z</time></trkpt><trkpt lat="45.50353192760591" lon="9.25792371837136"><ele>120.0</ele><time>2026-03-28T17:41:58.999Z</time></trkpt><trkpt lat="45.50370831640622" lon="9.2580582558181"><ele>121.0</ele><time>2026-03-28T17:41:59.999Z</time></trkpt><trkpt lat="45.50388242031653" lon="9.258195021063973"><ele>122.0</ele><time>2026-03-28T17:42:00.999Z</time></trkpt><trkpt lat="45.504057249629824" lon="9.258331912248682"><ele>123.0</ele><time>2026-03-28T17:42:01.999Z</time></trkpt><trkpt lat="45.50423299438034" lon="9.258469200861795"><ele>123.0</ele><time>2026-03-28T17:42:02.999Z</time></trkpt><trkpt lat="45.50440809591003" lon="9.258601767661055"><ele>123.0</ele><time>2026-03-28T17:42:03.999Z</time></trkpt><trkpt lat="45.5045837362286" lon="9.258736153688899"><ele>123.0</ele><time>2026-03-28T17:42:04.999Z</time></trkpt><trkpt lat="45.50476002346783" lon="9.258871383542713"><ele>124.0</ele><time>2026-03-28T17:42:05.999Z</time></trkpt><trkpt lat="45.504935485366424" lon="9.259005883609328"><ele>125.0</ele><time>2026-03-28T17:42:06.999Z</time></trkpt><trkpt lat="45.50511086851605" lon="9.25914033601449"><ele>126.0</ele><time>2026-03-28T17:42:07.999Z</time></trkpt><trkpt lat="45.505285343598274" lon="9.25927513028417"><ele>124.33333333333334</ele><time>2026-03-28T17:42:08.999Z</time></trkpt><trkpt lat="45.50546129198502" lon="9.259408380909433"><ele>122.66666666666667</ele><time>2026-03-28T17:42:09.999Z</time></trkpt><trkpt lat="45.505636934604" lon="9.259540808359745"><ele>121.0</ele><time>2026-03-28T17:42:10.999Z</time></trkpt><trkpt lat="45.505812486686736" lon="9.259673714542714"><ele>121.66666666666667</ele><time>2026-03-28T17:42:11.999Z</time></trkpt><trkpt lat="45.505987664364454" lon="9.259808544108692"><ele>122.33333333333334</ele><time>2026-03-28T17:42:12.999Z</time></trkpt><trkpt lat="45.506163903858365" lon="9.259942500152135"><ele>123.0</ele><time>2026-03-28T17:42:13.999Z</time></trkpt><trkpt lat="45.50633912343469" lon="9.26007689924729"><ele>123.0</ele><time>2026-03-28T17:42:14.999Z</time></trkpt><trkpt lat="45.506515871972496" lon="9.260211670655705"><ele>123.0</ele><time>2026-03-28T17:42:15.999Z</time></trkpt><trkpt lat="45.506690146745576" lon="9.260349565105862"><ele>123.0</ele><time>2026-03-28T17:42:16.999Z</time></trkpt><trkpt lat="45.50686431491065" lon="9.260484632163218"><ele>123.33333333333334</ele><time>2026-03-28T17:42:17.999Z</time></trkpt><trkpt lat="45.507038961064175" lon="9.260622485808982"><ele>123.66666666666667</ele><time>2026-03-28T17:42:18.999Z</time></trkpt><trkpt lat="45.507214297172226" lon="9.260758441533772"><ele>124.0</ele><time>2026-03-28T17:42:19.999Z</time></trkpt><trkpt lat="45.50738942351134" lon="9.260895478844423"><ele>124.0</ele><time>2026-03-28T17:42:20.999Z</time></trkpt><trkpt lat="45.50756288499607" lon="9.26102905459416"><ele>124.0</ele><time>2026-03-28T17:42:21.999Z</time></trkpt><trkpt lat="45.50773718956852" lon="9.261164300611991"><ele>124.0</ele><time>2026-03-28T17:42:22.999Z</time></trkpt><trkpt lat="45.507913026854304" lon="9.261296560294983"><ele>123.66666666666667</ele><time>2026-03-28T17:42:23.999Z</time></trkpt><trkpt lat="45.50809105712702" lon="9.261426641993735"><ele>123.33333333333334</ele><time>2026-03-28T17:42:24.999Z</time></trkpt><trkpt lat="45.50827174924392" lon="9.261546458310988"><ele>123.0</ele><time>2026-03-28T17:42:25.999Z</time></trkpt><trkpt lat="45.50845572146011" lon="9.261653287806533"><ele>123.33333333333334</ele><time>2026-03-28T17:42:26.999Z</time></trkpt><trkpt lat="45.50864505734459" lon="9.261751393159807"><ele>123.66666666666667</ele><time>2026-03-28T17:42:27.999Z</time></trkpt><trkpt lat="45.508835675525965" lon="9.261833498348478"><ele>124.0</ele><time>2026-03-28T17:42:28.999Z</time></trkpt><trkpt lat="45.509029709756" lon="9.261899306455108"><ele>124.0</ele><time>2026-03-28T17:42:29.999Z</time></trkpt><trkpt lat="45.50922578498358" lon="9.261951588556897"><ele>124.0</ele><time>2026-03-28T17:42:30.999Z</time></trkpt><trkpt lat="45.50942281188144" lon="9.261988513756895"><ele>124.0</ele><time>2026-03-28T17:42:31.999Z</time></trkpt><trkpt lat="45.50962233381037" lon="9.262004776386874"><ele>124.33333333333334</ele><time>2026-03-28T17:42:32.999Z</time></trkpt><trkpt lat="45.509820803878775" lon="9.262002983272012"><ele>124.66666666666666</ele><time>2026-03-28T17:42:33.999Z</time></trkpt><trkpt lat="45.5100191205191" lon="9.261993056686975"><ele>125.0</ele><time>2026-03-28T17:42:34.999Z</time></trkpt><trkpt lat="45.5102174257377" lon="9.261964904015981"><ele>125.0</ele><time>2026-03-28T17:42:35.999Z</time></trkpt><trkpt lat="45.51041432664546" lon="9.261921530388502"><ele>125.0</ele><time>2026-03-28T17:42:36.999Z</time></trkpt><trkpt lat="45.510610770899376" lon="9.261870950845863"><ele>125.0</ele><time>2026-03-28T17:42:37.999Z</time></trkpt><trkpt lat="45.51080368106253" lon="9.261811267768355"><ele>125.0</ele><time>2026-03-28T17:42:38.999Z</time></trkpt><trkpt lat="45.51099830624437" lon="9.261755610233037"><ele>125.0</ele><time>2026-03-28T17:42:39.999Z</time></trkpt><trkpt lat="45.51119199951857" lon="9.261710821770631"><ele>125.0</ele><time>2026-03-28T17:42:40.999Z</time></trkpt><trkpt lat="45.511384772227025" lon="9.2616858633574"><ele>126.0</ele><time>2026-03-28T17:42:41.999Z</time></trkpt><trkpt lat="45.51158317660974" lon="9.261670987663644"><ele>127.0</ele><time>2026-03-28T17:42:42.999Z</time></trkpt><trkpt lat="45.511777575240366" lon="9.261678413655105"><ele>128.0</ele><time>2026-03-28T17:42:43.999Z</time></trkpt><trkpt lat="45.51197579050857" lon="9.261696648340774"><ele>127.66666666666666</ele><time>2026-03-28T17:42:44.999Z</time></trkpt><trkpt lat="45.512171622883976" lon="9.261732220983102"><ele>127.33333333333334</ele><time>2026-03-28T17:42:45.999Z</time></trkpt><trkpt lat="45.512363884751245" lon="9.26178697517781"><ele>127.0</ele><time>2026-03-28T17:42:46.999Z</time></trkpt><trkpt lat="45.51255497761976" lon="9.261854262231045"><ele>127.0</ele><time>2026-03-28T17:42:47.999Z</time></trkpt><trkpt lat="45.51274488347375" lon="9.261926313685963"><ele>127.0</ele><time>2026-03-28T17:42:48.999Z</time></trkpt><trkpt lat="45.51293994975526" lon="9.261998206267654"><ele>127.0</ele><time>2026-03-28T17:42:49.999Z</time></trkpt><trkpt lat="45.51313244065444" lon="9.262067965963663"><ele>128.0</ele><time>2026-03-28T17:42:50.999Z</time></trkpt><trkpt lat="45.513329371076125" lon="9.262124683844764"><ele>129.0</ele><time>2026-03-28T17:42:51.999Z</time></trkpt><trkpt lat="45.513527306136126" lon="9.26215650400277"><ele>130.0</ele><time>2026-03-28T17:42:52.999Z</time></trkpt><trkpt lat="45.51372765083633" lon="9.262166655542464"><ele>130.33333333333334</ele><time>2026-03-28T17:42:53.999Z</time></trkpt><trkpt lat="45.5139262611512" lon="9.262166905330641"><ele>130.66666666666666</ele><time>2026-03-28T17:42:54.999Z</time></trkpt><trkpt lat="45.51412572552787" lon="9.262160964420678"><ele>131.0</ele><time>2026-03-28T17:42:55.999Z</time></trkpt><trkpt lat="45.51432914994146" lon="9.262157208202826"><ele>131.0</ele><time>2026-03-28T17:42:56.999Z</time></trkpt><trkpt lat="45.51452849273261" lon="9.262152405975915"><ele>131.0</ele><time>2026-03-28T17:42:57.999Z</time></trkpt><trkpt lat="45.5147298073708" lon="9.262145468024253"><ele>131.0</ele><time>2026-03-28T17:42:58.999Z</time></trkpt><trkpt lat="45.514930666218525" lon="9.262133833989019"><ele>130.33333333333331</ele><time>2026-03-28T17:43:00Z</time></trkpt><trkpt lat="45.51512927363862" lon="9.262118499837376"><ele>129.66666666666666</ele><time>2026-03-28T17:43:01Z</time></trkpt><trkpt lat="45.515329302516136" lon="9.262102693112311"><ele>129.0</ele><time>2026-03-28T17:43:02Z</time></trkpt><trkpt lat="45.51552738315386" lon="9.262081957746428"><ele>128.66666666666666</ele><time>2026-03-28T17:43:03Z</time></trkpt><trkpt lat="45.51572600459783" lon="9.262058656136576"><ele>128.33333333333331</ele><time>2026-03-28T17:43:04Z</time></trkpt><trkpt lat="45.51592646373994" lon="9.262035541172795"><ele>128.0</ele><time>2026-03-28T17:43:05Z</time></trkpt><trkpt lat="45.516124670392045" lon="9.262009388281719"><ele>127.0</ele><time>2026-03-28T17:43:06Z</time></trkpt><trkpt lat="45.516322207190015" lon="9.261977518725924"><ele>126.0</ele><time>2026-03-28T17:43:07Z</time></trkpt><trkpt lat="45.51651986657166" lon="9.261942056518391"><ele>125.0</ele><time>2026-03-28T17:43:08Z</time></trkpt><trkpt lat="45.51671524871661" lon="9.261905037191656"><ele>125.0</ele><time>2026-03-28T17:43:09Z</time></trkpt><trkpt lat="45.51691275320769" lon="9.261870621928706"><ele>125.0</ele><time>2026-03-28T17:43:10Z</time></trkpt><trkpt lat="45.517108932736775" lon="9.26183712574838"><ele>125.0</ele><time>2026-03-28T17:43:11Z</time></trkpt><trkpt lat="45.517305745095186" lon="9.261807292859675"><ele>124.33333333333333</ele><time>2026-03-28T17:43:12Z</time></trkpt><trkpt lat="45.51750244816683" lon="9.261777337094953"><ele>123.66666666666666</ele><time>2026-03-28T17:43:13Z</time></trkpt><trkpt lat="45.51770007460939" lon="9.261746811351399"><ele>123.0</ele><time>2026-03-28T17:43:14Z</time></trkpt><trkpt lat="45.51789640691611" lon="9.261715310273905"><ele>123.66666666666666</ele><time>2026-03-28T17:43:15Z</time></trkpt><trkpt lat="45.51809252083938" lon="9.261683976548673"><ele>124.33333333333333</ele><time>2026-03-28T17:43:16Z</time></trkpt><trkpt lat="45.518289841255466" lon="9.261656014495724"><ele>125.0</ele><time>2026-03-28T17:43:17Z</time></trkpt><trkpt lat="45.51848805700566" lon="9.261629284039328"><ele>125.0</ele><time>2026-03-28T17:43:18Z</time></trkpt><trkpt lat="45.51868579244636" lon="9.261600518841975"><ele>125.0</ele><time>2026-03-28T17:43:19Z</time></trkpt><trkpt lat="45.518881397775985" lon="9.261567779185812"><ele>125.0</ele><time>2026-03-28T17:43:20Z</time></trkpt><trkpt lat="45.51907775705377" lon="9.261533420207467"><ele>126.33333333333333</ele><time>2026-03-28T17:43:21Z</time></trkpt><trkpt lat="45.51927436871001" lon="9.261503015465438"><ele>127.66666666666666</ele><time>2026-03-28T17:43:22Z</time></trkpt><trkpt lat="45.51947168274529" lon="9.261470151570094"><ele>129.0</ele><time>2026-03-28T17:43:23Z</time></trkpt><trkpt lat="45.51966876940583" lon="9.261437370795386"><ele>129.33333333333334</ele><time>2026-03-28T17:43:24Z</time></trkpt><trkpt lat="45.519863869184434" lon="9.261397346598887"><ele>129.66666666666669</ele><time>2026-03-28T17:43:25Z</time></trkpt><trkpt lat="45.520059222875766" lon="9.261351525232957"><ele>130.0</ele><time>2026-03-28T17:43:26Z</time></trkpt><trkpt lat="45.52025417670031" lon="9.261301399709712"><ele>129.66666666666669</ele><time>2026-03-28T17:43:27Z</time></trkpt><trkpt lat="45.520448602983784" lon="9.261249233279308"><ele>129.33333333333334</ele><time>2026-03-28T17:43:28Z</time></trkpt><trkpt lat="45.52064380514194" lon="9.261196289415336"><ele>129.0</ele><time>2026-03-28T17:43:29Z</time></trkpt><trkpt lat="45.52083933258289" lon="9.261140622427805"><ele>129.0</ele><time>2026-03-28T17:43:30Z</time></trkpt><trkpt lat="45.5210336488047" lon="9.261082826257924"><ele>129.0</ele><time>2026-03-28T17:43:31Z</time></trkpt><trkpt lat="45.521229062534864" lon="9.261028785922917"><ele>129.0</ele><time>2026-03-28T17:43:32Z</time></trkpt><trkpt lat="45.52142611266837" lon="9.26097591225119"><ele>129.66666666666666</ele><time>2026-03-28T17:43:33Z</time></trkpt><trkpt lat="45.521620303979034" lon="9.260924350038609"><ele>130.33333333333331</ele><time>2026-03-28T17:43:34Z</time></trkpt><trkpt lat="45.52181523054247" lon="9.2608676431131"><ele>131.0</ele><time>2026-03-28T17:43:35Z</time></trkpt><trkpt lat="45.52201056475726" lon="9.260813398268535"><ele>130.0</ele><time>2026-03-28T17:43:36Z</time></trkpt><trkpt lat="45.52220564504009" lon="9.260756036634529"><ele>129.0</ele><time>2026-03-28T17:43:37Z</time></trkpt><trkpt lat="45.52239949134258" lon="9.2607026010948"><ele>128.0</ele><time>2026-03-28T17:43:38Z</time></trkpt><trkpt lat="45.522595077588605" lon="9.260655416930673"><ele>128.0</ele><time>2026-03-28T17:43:39Z</time></trkpt><trkpt lat="45.52279147720234" lon="9.260616241981264"><ele>128.0</ele><time>2026-03-28T17:43:40Z</time></trkpt><trkpt lat="45.52298893484407" lon="9.260589022121135"><ele>128.0</ele><time>2026-03-28T17:43:41Z</time></trkpt><trkpt lat="45.5231860077279" lon="9.260577320249029"><ele>128.66666666666666</ele><time>2026-03-28T17:43:42Z</time></trkpt><trkpt lat="45.5233849274322" lon="9.260584579866784"><ele>129.33333333333334</ele><time>2026-03-28T17:43:43Z</time></trkpt><trkpt lat="45.52358275363139" lon="9.260609966316164"><ele>130.0</ele><time>2026-03-28T17:43:44Z</time></trkpt><trkpt lat="45.523778161081474" lon="9.260655887199958"><ele>130.66666666666669</ele><time>2026-03-28T17:43:45Z</time></trkpt><trkpt lat="45.52397283386893" lon="9.260724059873937"><ele>131.33333333333334</ele><time>2026-03-28T17:43:46Z</time></trkpt><trkpt lat="45.524163566513174" lon="9.260808272642869"><ele>132.0</ele><time>2026-03-28T17:43:47Z</time></trkpt><trkpt lat="45.52435079772849" lon="9.260909117063843"><ele>132.0</ele><time>2026-03-28T17:43:48Z</time></trkpt><trkpt lat="45.52453321024678" lon="9.261027250903911"><ele>132.0</ele><time>2026-03-28T17:43:49Z</time></trkpt><trkpt lat="45.52471296847041" lon="9.261155961647498"><ele>132.0</ele><time>2026-03-28T17:43:50Z</time></trkpt><trkpt lat="45.52488383063549" lon="9.261296793827752"><ele>131.66666666666666</ele><time>2026-03-28T17:43:51Z</time></trkpt><trkpt lat="45.52504498663704" lon="9.261462552441175"><ele>131.33333333333331</ele><time>2026-03-28T17:43:52Z</time></trkpt><trkpt lat="45.525200507783104" lon="9.261643788656757"><ele>131.0</ele><time>2026-03-28T17:43:53Z</time></trkpt><trkpt lat="45.52534643453579" lon="9.261835755214662"><ele>131.66666666666666</ele><time>2026-03-28T17:43:53.999Z</time></trkpt><trkpt lat="45.52548124673343" lon="9.262044664677502"><ele>132.33333333333334</ele><time>2026-03-28T17:43:54.999Z</time></trkpt><trkpt lat="45.52560655867038" lon="9.262266310032519"><ele>133.0</ele><time>2026-03-28T17:43:55.999Z</time></trkpt><trkpt lat="45.52572189254432" lon="9.262499272882552"><ele>133.0</ele><time>2026-03-28T17:43:56.999Z</time></trkpt><trkpt lat="45.52582521298397" lon="9.262739843748355"><ele>133.0</ele><time>2026-03-28T17:43:57.999Z</time></trkpt><trkpt lat="45.525920454768276" lon="9.262988116996176"><ele>133.0</ele><time>2026-03-28T17:43:58.999Z</time></trkpt><trkpt lat="45.5260111571568" lon="9.263238269267815"><ele>133.66666666666669</ele><time>2026-03-28T17:43:59.999Z</time></trkpt><trkpt lat="45.52609451979263" lon="9.263492184628037"><ele>134.33333333333334</ele><time>2026-03-28T17:44:00.999Z</time></trkpt><trkpt lat="45.52618098706425" lon="9.263746589290752"><ele>135.0</ele><time>2026-03-28T17:44:01.999Z</time></trkpt><trkpt lat="45.52627393156678" lon="9.263995487168577"><ele>135.66666666666666</ele><time>2026-03-28T17:44:02.999Z</time></trkpt><trkpt lat="45.52637689773393" lon="9.26423833774886"><ele>136.33333333333331</ele><time>2026-03-28T17:44:03.999Z</time></trkpt><trkpt lat="45.52648813818811" lon="9.264469688969848"><ele>137.0</ele><time>2026-03-28T17:44:04.999Z</time></trkpt><trkpt lat="45.52661264664104" lon="9.26469097938919"><ele>137.0</ele><time>2026-03-28T17:44:05.999Z</time></trkpt><trkpt lat="45.526746449227694" lon="9.26490334951802"><ele>137.0</ele><time>2026-03-28T17:44:06.999Z</time></trkpt><trkpt lat="45.52688650125566" lon="9.265109008112292"><ele>137.0</ele><time>2026-03-28T17:44:07.999Z</time></trkpt><trkpt lat="45.527031940458684" lon="9.265306101859576"><ele>137.33333333333331</ele><time>2026-03-28T17:44:08.999Z</time></trkpt><trkpt lat="45.52718539124864" lon="9.265492397901221"><ele>137.66666666666666</ele><time>2026-03-28T17:44:09.999Z</time></trkpt><trkpt lat="45.52734594908765" lon="9.265669934897081"><ele>138.0</ele><time>2026-03-28T17:44:10.999Z</time></trkpt><trkpt lat="45.52751029694543" lon="9.265836950862655"><ele>138.0</ele><time>2026-03-28T17:44:11.999Z</time></trkpt><trkpt lat="45.52768143611101" lon="9.26598778704652"><ele>138.0</ele><time>2026-03-28T17:44:12.999Z</time></trkpt><trkpt lat="45.5278564811293" lon="9.266127149699289"><ele>138.0</ele><time>2026-03-28T17:44:13.999Z</time></trkpt><trkpt lat="45.528032697468475" lon="9.26626253913148"><ele>138.33333333333334</ele><time>2026-03-28T17:44:14.999Z</time></trkpt><trkpt lat="45.52820712682288" lon="9.266401317749617"><ele>138.66666666666669</ele><time>2026-03-28T17:44:15.999Z</time></trkpt><trkpt lat="45.5283845425823" lon="9.266537278186592"><ele>139.0</ele><time>2026-03-28T17:44:16.999Z</time></trkpt><trkpt lat="45.52855835605132" lon="9.266673928256186"><ele>137.33333333333334</ele><time>2026-03-28T17:44:17.999Z</time></trkpt><trkpt lat="45.52873339306538" lon="9.266816694506096"><ele>135.66666666666666</ele><time>2026-03-28T17:44:18.999Z</time></trkpt><trkpt lat="45.52890691109597" lon="9.266960931502709"><ele>134.0</ele><time>2026-03-28T17:44:19.999Z</time></trkpt><trkpt lat="45.529078390099045" lon="9.26711001830338"><ele>134.0</ele><time>2026-03-28T17:44:20.999Z</time></trkpt><trkpt lat="45.52924472035956" lon="9.26727184309515"><ele>134.0</ele><time>2026-03-28T17:44:21.999Z</time></trkpt><trkpt lat="45.5294027057103" lon="9.267444239848372"><ele>134.0</ele><time>2026-03-28T17:44:22.999Z</time></trkpt><trkpt lat="45.52955521617653" lon="9.267625271625318"><ele>134.0</ele><time>2026-03-28T17:44:23.999Z</time></trkpt><trkpt lat="45.52970271908014" lon="9.267815625044106"><ele>134.0</ele><time>2026-03-28T17:44:24.999Z</time></trkpt><trkpt lat="45.52984563214709" lon="9.268014717801616"><ele>134.0</ele><time>2026-03-28T17:44:25.999Z</time></trkpt><trkpt lat="45.529982449293556" lon="9.268222096933185"><ele>134.66666666666666</ele><time>2026-03-28T17:44:26.999Z</time></trkpt><trkpt lat="45.530113361979794" lon="9.268437990751082"><ele>135.33333333333334</ele><time>2026-03-28T17:44:27.999Z</time></trkpt><trkpt lat="45.5302376704998" lon="9.26866203896377"><ele>136.0</ele><time>2026-03-28T17:44:28.999Z</time></trkpt><trkpt lat="45.530355273287654" lon="9.268891107544196"><ele>136.33333333333334</ele><time>2026-03-28T17:44:29.999Z</time></trkpt><trkpt lat="45.530471047628396" lon="9.26912285498787"><ele>136.66666666666666</ele><time>2026-03-28T17:44:30.999Z</time></trkpt><trkpt lat="45.530585164906554" lon="9.269354866211028"><ele>137.0</ele><time>2026-03-28T17:44:31.999Z</time></trkpt><trkpt lat="45.530699906164806" lon="9.269586049582875"><ele>136.66666666666666</ele><time>2026-03-28T17:44:32.999Z</time></trkpt><trkpt lat="45.53081161812183" lon="9.269817806184422"><ele>136.33333333333334</ele><time>2026-03-28T17:44:33.999Z</time></trkpt><trkpt lat="45.53092400255906" lon="9.270049532576598"><ele>136.0</ele><time>2026-03-28T17:44:34.999Z</time></trkpt><trkpt lat="45.53103800922598" lon="9.270282774472747"><ele>136.0</ele><time>2026-03-28T17:44:35.999Z</time></trkpt><trkpt lat="45.53115146982973" lon="9.270516086842138"><ele>136.0</ele><time>2026-03-28T17:44:36.999Z</time></trkpt><trkpt lat="45.53126441861924" lon="9.270747860765677"><ele>136.0</ele><time>2026-03-28T17:44:37.999Z</time></trkpt><trkpt lat="45.531375952144536" lon="9.27098325888564"><ele>135.66666666666669</ele><time>2026-03-28T17:44:38.999Z</time></trkpt><trkpt lat="45.531487132704626" lon="9.271217358448418"><ele>135.33333333333334</ele><time>2026-03-28T17:44:39.999Z</time></trkpt><trkpt lat="45.53159645420761" lon="9.271452685759918"><ele>135.0</ele><time>2026-03-28T17:44:40.999Z</time></trkpt><trkpt lat="45.53170711587196" lon="9.271687923527931"><ele>134.66666666666666</ele><time>2026-03-28T17:44:41.999Z</time></trkpt><trkpt lat="45.53181923513999" lon="9.271922358534045"><ele>134.33333333333331</ele><time>2026-03-28T17:44:42.999Z</time></trkpt><trkpt lat="45.53193129948356" lon="9.272157408237518"><ele>134.0</ele><time>2026-03-28T17:44:43.999Z</time></trkpt><trkpt lat="45.53204381815062" lon="9.272392024087916"><ele>134.33333333333331</ele><time>2026-03-28T17:44:44.999Z</time></trkpt><trkpt lat="45.532156681758046" lon="9.27262532129516"><ele>134.66666666666666</ele><time>2026-03-28T17:44:45.999Z</time></trkpt><trkpt lat="45.532269491342376" lon="9.272858778719307"><ele>135.0</ele><time>2026-03-28T17:44:46.999Z</time></trkpt><trkpt lat="45.53238209926556" lon="9.273090224709733"><ele>135.33333333333334</ele><time>2026-03-28T17:44:47.999Z</time></trkpt><trkpt lat="45.53249552006264" lon="9.27332114919041"><ele>135.66666666666669</ele><time>2026-03-28T17:44:48.999Z</time></trkpt><trkpt lat="45.53260863546268" lon="9.273552707394241"><ele>136.0</ele><time>2026-03-28T17:44:49.999Z</time></trkpt><trkpt lat="45.53272292298266" lon="9.273785776495497"><ele>136.33333333333334</ele><time>2026-03-28T17:44:50.999Z</time></trkpt><trkpt lat="45.532836215754706" lon="9.274018180121274"><ele>136.66666666666666</ele><time>2026-03-28T17:44:51.999Z</time></trkpt><trkpt lat="45.53294773512669" lon="9.274252465333955"><ele>137.0</ele><time>2026-03-28T17:44:52.999Z</time></trkpt><trkpt lat="45.53305853544566" lon="9.27448734455739"><ele>137.0</ele><time>2026-03-28T17:44:53.999Z</time></trkpt><trkpt lat="45.533168500328856" lon="9.274722318063095"><ele>137.0</ele><time>2026-03-28T17:44:54.999Z</time></trkpt><trkpt lat="45.53327908402636" lon="9.274957729664965"><ele>137.0</ele><time>2026-03-28T17:44:55.999Z</time></trkpt><trkpt lat="45.5333890430738" lon="9.275191623811217"><ele>136.66666666666666</ele><time>2026-03-28T17:44:56.999Z</time></trkpt><trkpt lat="45.533501537066684" lon="9.275425467436335"><ele>136.33333333333334</ele><time>2026-03-28T17:44:57.999Z</time></trkpt><trkpt lat="45.53361279327455" lon="9.275658691477695"><ele>136.0</ele><time>2026-03-28T17:44:58.999Z</time></trkpt><trkpt lat="45.53372227321676" lon="9.27589338209652"><ele>136.0</ele><time>2026-03-28T17:44:59.999Z</time></trkpt><trkpt lat="45.5338316639054" lon="9.276129446040327"><ele>136.0</ele><time>2026-03-28T17:45:00.999Z</time></trkpt><trkpt lat="45.533941307515036" lon="9.276366908470814"><ele>136.0</ele><time>2026-03-28T17:45:01.999Z</time></trkpt><trkpt lat="45.534051380466394" lon="9.27660208175124"><ele>135.66666666666669</ele><time>2026-03-28T17:45:02.999Z</time></trkpt><trkpt lat="45.5341624919826" lon="9.276840503991524"><ele>135.33333333333334</ele><time>2026-03-28T17:45:03.999Z</time></trkpt><trkpt lat="45.534272272785884" lon="9.277076722293161"><ele>135.0</ele><time>2026-03-28T17:45:04.999Z</time></trkpt><trkpt lat="45.534382492544054" lon="9.277312175529538"><ele>135.66666666666666</ele><time>2026-03-28T17:45:06Z</time></trkpt><trkpt lat="45.53449244356948" lon="9.277546847437504"><ele>136.33333333333331</ele><time>2026-03-28T17:45:07Z</time></trkpt><trkpt lat="45.53460490891221" lon="9.27778027084167"><ele>137.0</ele><time>2026-03-28T17:45:08Z</time></trkpt><trkpt lat="45.53471601389593" lon="9.278015094423171"><ele>137.0</ele><time>2026-03-28T17:45:09Z</time></trkpt><trkpt lat="45.5348277077804" lon="9.278250220033806"><ele>137.0</ele><time>2026-03-28T17:45:10Z</time></trkpt><trkpt lat="45.53493921826427" lon="9.278484774206486"><ele>137.0</ele><time>2026-03-28T17:45:11Z</time></trkpt><trkpt lat="45.535050749354404" lon="9.27871690981497"><ele>137.33333333333331</ele><time>2026-03-28T17:45:12Z</time></trkpt><trkpt lat="45.535163394477074" lon="9.278948931822262"><ele>137.66666666666666</ele><time>2026-03-28T17:45:13Z</time></trkpt><trkpt lat="45.53527660858677" lon="9.279179983592039"><ele>138.0</ele><time>2026-03-28T17:45:14Z</time></trkpt><trkpt lat="45.535389754199265" lon="9.279410197255913"><ele>137.66666666666666</ele><time>2026-03-28T17:45:15Z</time></trkpt><trkpt lat="45.53550203018801" lon="9.279640541383316"><ele>137.33333333333331</ele><time>2026-03-28T17:45:16Z</time></trkpt><trkpt lat="45.535615327827074" lon="9.279873681286137"><ele>137.0</ele><time>2026-03-28T17:45:17Z</time></trkpt><trkpt lat="45.53572671051777" lon="9.280106867406472"><ele>137.0</ele><time>2026-03-28T17:45:18Z</time></trkpt><trkpt lat="45.53584083412574" lon="9.280339092618853"><ele>137.0</ele><time>2026-03-28T17:45:19Z</time></trkpt><trkpt lat="45.535954232413395" lon="9.28057135866587"><ele>137.0</ele><time>2026-03-28T17:45:20Z</time></trkpt><trkpt lat="45.53606806365917" lon="9.280803194993481"><ele>137.33333333333331</ele><time>2026-03-28T17:45:21Z</time></trkpt><trkpt lat="45.53618384185505" lon="9.28103347943635"><ele>137.66666666666666</ele><time>2026-03-28T17:45:22Z</time></trkpt><trkpt lat="45.53630137355376" lon="9.281263317012087"><ele>138.0</ele><time>2026-03-28T17:45:23Z</time></trkpt><trkpt lat="45.53641443456293" lon="9.281496628667384"><ele>138.0</ele><time>2026-03-28T17:45:24Z</time></trkpt><trkpt lat="45.53653059676011" lon="9.2817262166548"><ele>138.0</ele><time>2026-03-28T17:45:25Z</time></trkpt><trkpt lat="45.53664838299124" lon="9.281956199103236"><ele>138.0</ele><time>2026-03-28T17:45:26Z</time></trkpt><trkpt lat="45.53676447892865" lon="9.282182204959039"><ele>138.33333333333334</ele><time>2026-03-28T17:45:27Z</time></trkpt><trkpt lat="45.53688376115451" lon="9.2824083772889"><ele>138.66666666666669</ele><time>2026-03-28T17:45:28Z</time></trkpt><trkpt lat="45.53700448774191" lon="9.282634850288725"><ele>139.0</ele><time>2026-03-28T17:45:29Z</time></trkpt><trkpt lat="45.537126460818314" lon="9.282861583672855"><ele>139.0</ele><time>2026-03-28T17:45:30Z</time></trkpt><trkpt lat="45.53724524973943" lon="9.283088182251214"><ele>139.0</ele><time>2026-03-28T17:45:31Z</time></trkpt><trkpt lat="45.537362020567635" lon="9.283319428614092"><ele>139.0</ele><time>2026-03-28T17:45:32Z</time></trkpt><trkpt lat="45.53747477008327" lon="9.283555986185332"><ele>139.0</ele><time>2026-03-28T17:45:33Z</time></trkpt><trkpt lat="45.537580305328845" lon="9.283795800451482"><ele>139.0</ele><time>2026-03-28T17:45:34Z</time></trkpt><trkpt lat="45.537676841063906" lon="9.284047837853175"><ele>139.0</ele><time>2026-03-28T17:45:35Z</time></trkpt><trkpt lat="45.53775213368649" lon="9.284305549307582"><ele>140.0</ele><time>2026-03-28T17:45:36Z</time></trkpt><trkpt lat="45.53781224861725" lon="9.284574970575816"><ele>141.0</ele><time>2026-03-28T17:45:37Z</time></trkpt><trkpt lat="45.537859648905574" lon="9.284850176622355"><ele>142.0</ele><time>2026-03-28T17:45:38Z</time></trkpt><trkpt lat="45.53789007254154" lon="9.28512961844518"><ele>140.33333333333334</ele><time>2026-03-28T17:45:39Z</time></trkpt><trkpt lat="45.537906478277" lon="9.285413530331628"><ele>138.66666666666666</ele><time>2026-03-28T17:45:40Z</time></trkpt><trkpt lat="45.53790594092334" lon="9.285696778397282"><ele>137.0</ele><time>2026-03-28T17:45:41Z</time></trkpt><trkpt lat="45.53789249147244" lon="9.285977865448475"><ele>137.66666666666666</ele><time>2026-03-28T17:45:42Z</time></trkpt><trkpt lat="45.53786597417053" lon="9.286258773097554"><ele>138.33333333333334</ele><time>2026-03-28T17:45:43Z</time></trkpt><trkpt lat="45.53782239053072" lon="9.28654315222352"><ele>139.0</ele><time>2026-03-28T17:45:44Z</time></trkpt><trkpt lat="45.537769757305945" lon="9.286811813448399"><ele>139.0</ele><time>2026-03-28T17:45:45Z</time></trkpt><trkpt lat="45.537697084399646" lon="9.287078182276758"><ele>139.0</ele><time>2026-03-28T17:45:46Z</time></trkpt><trkpt lat="45.5376155949351" lon="9.28733349777235"><ele>139.0</ele><time>2026-03-28T17:45:47Z</time></trkpt><trkpt lat="45.53752073231035" lon="9.287582543516889"><ele>138.0</ele><time>2026-03-28T17:45:48Z</time></trkpt><trkpt lat="45.5374242317644" lon="9.287826018466696"><ele>137.0</ele><time>2026-03-28T17:45:49Z</time></trkpt><trkpt lat="45.53732609234044" lon="9.288071595895715"><ele>136.0</ele><time>2026-03-28T17:45:50Z</time></trkpt><trkpt lat="45.53722869383707" lon="9.288318145518005"><ele>135.66666666666669</ele><time>2026-03-28T17:45:51Z</time></trkpt><trkpt lat="45.53713554091103" lon="9.288567348296581"><ele>135.33333333333334</ele><time>2026-03-28T17:45:52Z</time></trkpt><trkpt lat="45.53704636266271" lon="9.288818018972579"><ele>135.0</ele><time>2026-03-28T17:45:53Z</time></trkpt><trkpt lat="45.53697075196569" lon="9.289081664800214"><ele>135.0</ele><time>2026-03-28T17:45:54Z</time></trkpt><trkpt lat="45.53690580391344" lon="9.289348604448588"><ele>135.0</ele><time>2026-03-28T17:45:55Z</time></trkpt><trkpt lat="45.53685080959515" lon="9.289625054777094"><ele>135.0</ele><time>2026-03-28T17:45:56Z</time></trkpt><trkpt lat="45.5368111369419" lon="9.289899430712223"><ele>135.0</ele><time>2026-03-28T17:45:56.999Z</time></trkpt><trkpt lat="45.53677813345345" lon="9.290179310963687"><ele>135.0</ele><time>2026-03-28T17:45:57.999Z</time></trkpt><trkpt lat="45.5367565359482" lon="9.290459281632508"><ele>135.0</ele><time>2026-03-28T17:45:58.999Z</time></trkpt><trkpt lat="45.53674170816514" lon="9.290742458269369"><ele>135.0</ele><time>2026-03-28T17:45:59.999Z</time></trkpt><trkpt lat="45.536737123591" lon="9.291025760372015"><ele>135.0</ele><time>2026-03-28T17:46:00.999Z</time></trkpt><trkpt lat="45.536743164749964" lon="9.291309517729312"><ele>135.0</ele><time>2026-03-28T17:46:01.999Z</time></trkpt><trkpt lat="45.53676053526681" lon="9.291589540543582"><ele>135.0</ele><time>2026-03-28T17:46:02.999Z</time></trkpt><trkpt lat="45.536787726876334" lon="9.291868923748561"><ele>135.0</ele><time>2026-03-28T17:46:03.999Z</time></trkpt><trkpt lat="45.536819109603" lon="9.292146232787404"><ele>135.0</ele><time>2026-03-28T17:46:04.999Z</time></trkpt><trkpt lat="45.53685342347469" lon="9.292426458642819"><ele>135.0</ele><time>2026-03-28T17:46:05.999Z</time></trkpt><trkpt lat="45.53688362808097" lon="9.292707145702831"><ele>135.0</ele><time>2026-03-28T17:46:06.999Z</time></trkpt><trkpt lat="45.53691125372781" lon="9.292988583070448"><ele>135.0</ele><time>2026-03-28T17:46:07.999Z</time></trkpt><trkpt lat="45.53694071182388" lon="9.293268979626328"><ele>135.0</ele><time>2026-03-28T17:46:08.999Z</time></trkpt><trkpt lat="45.5369684308344" lon="9.293549508278263"><ele>135.0</ele><time>2026-03-28T17:46:09.999Z</time></trkpt><trkpt lat="45.536998245886885" lon="9.293830265228191"><ele>135.0</ele><time>2026-03-28T17:46:10.999Z</time></trkpt><trkpt lat="45.53702757686053" lon="9.294108999948378"><ele>136.66666666666666</ele><time>2026-03-28T17:46:11.999Z</time></trkpt><trkpt lat="45.53705515618836" lon="9.294389617064017"><ele>138.33333333333331</ele><time>2026-03-28T17:46:12.999Z</time></trkpt><trkpt lat="45.537085724749595" lon="9.294668801419723"><ele>140.0</ele><time>2026-03-28T17:46:13.999Z</time></trkpt><trkpt lat="45.53711661229461" lon="9.294949153915287"><ele>140.0</ele><time>2026-03-28T17:46:14.999Z</time></trkpt><trkpt lat="45.537145741469544" lon="9.295227696763202"><ele>140.0</ele><time>2026-03-28T17:46:15.999Z</time></trkpt><trkpt lat="45.53717512743251" lon="9.295507683574185"><ele>140.0</ele><time>2026-03-28T17:46:16.999Z</time></trkpt><trkpt lat="45.53720491653048" lon="9.295785965083407"><ele>138.0</ele><time>2026-03-28T17:46:17.999Z</time></trkpt><trkpt lat="45.537235719521526" lon="9.296066057844374"><ele>136.0</ele><time>2026-03-28T17:46:18.999Z</time></trkpt><trkpt lat="45.537266782178655" lon="9.29634268777224"><ele>134.0</ele><time>2026-03-28T17:46:19.999Z</time></trkpt><trkpt lat="45.53729755903902" lon="9.29662227461996"><ele>133.66666666666666</ele><time>2026-03-28T17:46:20.999Z</time></trkpt><trkpt lat="45.537328060896606" lon="9.296903897211074"><ele>133.33333333333334</ele><time>2026-03-28T17:46:21.999Z</time></trkpt><trkpt lat="45.5373580894521" lon="9.297184512348082"><ele>133.0</ele><time>2026-03-28T17:46:22.999Z</time></trkpt><trkpt lat="45.537386612510346" lon="9.297463265579342"><ele>133.33333333333334</ele><time>2026-03-28T17:46:23.999Z</time></trkpt><trkpt lat="45.53741632708552" lon="9.297744280921963"><ele>133.66666666666666</ele><time>2026-03-28T17:46:24.999Z</time></trkpt><trkpt lat="45.537446424625294" lon="9.298022769311261"><ele>134.0</ele><time>2026-03-28T17:46:25.999Z</time></trkpt><trkpt lat="45.53747643649873" lon="9.29830132460717"><ele>134.0</ele><time>2026-03-28T17:46:26.999Z</time></trkpt><trkpt lat="45.53750752405048" lon="9.298581641808967"><ele>134.0</ele><time>2026-03-28T17:46:27.999Z</time></trkpt><trkpt lat="45.53753560192941" lon="9.298862460785406"><ele>134.0</ele><time>2026-03-28T17:46:28.999Z</time></trkpt><trkpt lat="45.53756674333759" lon="9.299141695351734"><ele>133.33333333333331</ele><time>2026-03-28T17:46:29.999Z</time></trkpt><trkpt lat="45.53759830764924" lon="9.299421556152554"><ele>132.66666666666666</ele><time>2026-03-28T17:46:30.999Z</time></trkpt><trkpt lat="45.53763032941715" lon="9.299702338493356"><ele>132.0</ele><time>2026-03-28T17:46:31.999Z</time></trkpt><trkpt lat="45.537661039289524" lon="9.299984198195732"><ele>132.0</ele><time>2026-03-28T17:46:32.999Z</time></trkpt><trkpt lat="45.5376919840853" lon="9.300264272779593"><ele>132.0</ele><time>2026-03-28T17:46:33.999Z</time></trkpt><trkpt lat="45.53772074528256" lon="9.300545071828976"><ele>132.0</ele><time>2026-03-28T17:46:34.999Z</time></trkpt><trkpt lat="45.5377504033304" lon="9.300826599232394"><ele>132.33333333333334</ele><time>2026-03-28T17:46:35.999Z</time></trkpt><trkpt lat="45.53777985765382" lon="9.301107809818356"><ele>132.66666666666669</ele><time>2026-03-28T17:46:36.999Z</time></trkpt><trkpt lat="45.53781055529361" lon="9.30138649248118"><ele>133.0</ele><time>2026-03-28T17:46:37.999Z</time></trkpt><trkpt lat="45.5378382151254" lon="9.301667522118613"><ele>133.0</ele><time>2026-03-28T17:46:38.999Z</time></trkpt><trkpt lat="45.53786702347466" lon="9.301945809326444"><ele>133.0</ele><time>2026-03-28T17:46:39.999Z</time></trkpt><trkpt lat="45.537898372769554" lon="9.302226009753799"><ele>133.0</ele><time>2026-03-28T17:46:40.999Z</time></trkpt><trkpt lat="45.537929420738934" lon="9.302505382544002"><ele>133.0</ele><time>2026-03-28T17:46:41.999Z</time></trkpt><trkpt lat="45.53796102479355" lon="9.302783850331517"><ele>133.0</ele><time>2026-03-28T17:46:42.999Z</time></trkpt><trkpt lat="45.53799297999634" lon="9.303063194394515"><ele>133.0</ele><time>2026-03-28T17:46:43.999Z</time></trkpt><trkpt lat="45.538023985272964" lon="9.30334188706179"><ele>133.0</ele><time>2026-03-28T17:46:44.999Z</time></trkpt><trkpt lat="45.53805495130802" lon="9.303622110929565"><ele>133.0</ele><time>2026-03-28T17:46:45.999Z</time></trkpt><trkpt lat="45.53808389015431" lon="9.303900035859472"><ele>133.0</ele><time>2026-03-28T17:46:46.999Z</time></trkpt><trkpt lat="45.53811411869851" lon="9.304178649775023"><ele>133.33333333333334</ele><time>2026-03-28T17:46:47.999Z</time></trkpt><trkpt lat="45.53814366234552" lon="9.304458087532105"><ele>133.66666666666666</ele><time>2026-03-28T17:46:48.999Z</time></trkpt><trkpt lat="45.53817267050099" lon="9.304736137120035"><ele>134.0</ele><time>2026-03-28T17:46:49.999Z</time></trkpt><trkpt lat="45.53820252310475" lon="9.305016081288041"><ele>134.33333333333331</ele><time>2026-03-28T17:46:50.999Z</time></trkpt><trkpt lat="45.53823165342585" lon="9.305298015035929"><ele>134.66666666666666</ele><time>2026-03-28T17:46:51.999Z</time></trkpt><trkpt lat="45.53826005750177" lon="9.30557975636571"><ele>135.0</ele><time>2026-03-28T17:46:52.999Z</time></trkpt><trkpt lat="45.53828924558352" lon="9.30586032944694"><ele>134.33333333333334</ele><time>2026-03-28T17:46:53.999Z</time></trkpt><trkpt lat="45.53831914126114" lon="9.306137995161189"><ele>133.66666666666669</ele><time>2026-03-28T17:46:54.999Z</time></trkpt><trkpt lat="45.538349124826055" lon="9.306418401605335"><ele>133.0</ele><time>2026-03-28T17:46:55.999Z</time></trkpt><trkpt lat="45.53837825909098" lon="9.306699131402361"><ele>133.0</ele><time>2026-03-28T17:46:56.999Z</time></trkpt><trkpt lat="45.538407343260154" lon="9.306980199966633"><ele>133.0</ele><time>2026-03-28T17:46:57.999Z</time></trkpt><trkpt lat="45.53843672376286" lon="9.307262359211418"><ele>133.0</ele><time>2026-03-28T17:46:58.999Z</time></trkpt><trkpt lat="45.5384661115723" lon="9.307542238526954"><ele>134.33333333333334</ele><time>2026-03-28T17:46:59.999Z</time></trkpt><trkpt lat="45.53849561345695" lon="9.307823590644745"><ele>135.66666666666666</ele><time>2026-03-28T17:47:00.999Z</time></trkpt><trkpt lat="45.53852579397722" lon="9.308104753932009"><ele>137.0</ele><time>2026-03-28T17:47:01.999Z</time></trkpt><trkpt lat="45.53855470485468" lon="9.308385449028346"><ele>137.33333333333331</ele><time>2026-03-28T17:47:02.999Z</time></trkpt><trkpt lat="45.53858614429555" lon="9.308666424265375"><ele>137.66666666666666</ele><time>2026-03-28T17:47:03.999Z</time></trkpt><trkpt lat="45.53861768117961" lon="9.30894682132749"><ele>138.0</ele><time>2026-03-28T17:47:04.999Z</time></trkpt><trkpt lat="45.538649556456676" lon="9.309228957263944"><ele>137.66666666666666</ele><time>2026-03-28T17:47:05.999Z</time></trkpt><trkpt lat="45.538679781136075" lon="9.30951083220636"><ele>137.33333333333331</ele><time>2026-03-28T17:47:06.999Z</time></trkpt><trkpt lat="45.538707671794796" lon="9.309792880525611"><ele>137.0</ele><time>2026-03-28T17:47:07.999Z</time></trkpt><trkpt lat="45.53873770363141" lon="9.310073491019093"><ele>137.0</ele><time>2026-03-28T17:47:08.999Z</time></trkpt><trkpt lat="45.5387698397783" lon="9.310355179876742"><ele>137.0</ele><time>2026-03-28T17:47:09.999Z</time></trkpt><trkpt lat="45.53880241987868" lon="9.310633860106202"><ele>137.0</ele><time>2026-03-28T17:47:10.999Z</time></trkpt><trkpt lat="45.53883325606759" lon="9.310916482217337"><ele>136.33333333333331</ele><time>2026-03-28T17:47:12Z</time></trkpt><trkpt lat="45.5388647424643" lon="9.31119558625514"><ele>135.66666666666666</ele><time>2026-03-28T17:47:13Z</time></trkpt><trkpt lat="45.53890266376061" lon="9.31147468656267"><ele>135.0</ele><time>2026-03-28T17:47:14Z</time></trkpt><trkpt lat="45.53894389258673" lon="9.311751637701075"><ele>135.0</ele><time>2026-03-28T17:47:15Z</time></trkpt><trkpt lat="45.538994291748175" lon="9.312027790215582"><ele>135.0</ele><time>2026-03-28T17:47:16Z</time></trkpt><trkpt lat="45.53905209709655" lon="9.312299526650493"><ele>135.0</ele><time>2026-03-28T17:47:17Z</time></trkpt><trkpt lat="45.53911667043849" lon="9.312568863821362"><ele>135.0</ele><time>2026-03-28T17:47:18Z</time></trkpt><trkpt lat="45.53918801513887" lon="9.312833138291534"><ele>135.0</ele><time>2026-03-28T17:47:19Z</time></trkpt><trkpt lat="45.53926749576323" lon="9.31309184382084"><ele>135.0</ele><time>2026-03-28T17:47:20Z</time></trkpt><trkpt lat="45.53935454074501" lon="9.313346847768461"><ele>135.0</ele><time>2026-03-28T17:47:21Z</time></trkpt><trkpt lat="45.53944795324742" lon="9.313597755130488"><ele>135.0</ele><time>2026-03-28T17:47:22Z</time></trkpt><trkpt lat="45.539550044261276" lon="9.31384009247461"><ele>135.0</ele><time>2026-03-28T17:47:23Z</time></trkpt><trkpt lat="45.539658992787885" lon="9.314077195247416"><ele>135.0</ele><time>2026-03-28T17:47:24Z</time></trkpt><trkpt lat="45.53977449739893" lon="9.314306762772787"><ele>135.0</ele><time>2026-03-28T17:47:25Z</time></trkpt><trkpt lat="45.53989782560913" lon="9.314527709463183"><ele>135.0</ele><time>2026-03-28T17:47:26Z</time></trkpt><trkpt lat="45.54002755707699" lon="9.314739066847018"><ele>135.33333333333334</ele><time>2026-03-28T17:47:27Z</time></trkpt><trkpt lat="45.540163752639835" lon="9.31494298649903"><ele>135.66666666666669</ele><time>2026-03-28T17:47:28Z</time></trkpt><trkpt lat="45.540304437322305" lon="9.315137659657099"><ele>136.0</ele><time>2026-03-28T17:47:29Z</time></trkpt><trkpt lat="45.54045112387409" lon="9.31532474177429"><ele>136.0</ele><time>2026-03-28T17:47:30Z</time></trkpt><trkpt lat="45.540602685619625" lon="9.315503630035082"><ele>136.0</ele><time>2026-03-28T17:47:31Z</time></trkpt><trkpt lat="45.540758824196004" lon="9.315672004411228"><ele>136.0</ele><time>2026-03-28T17:47:32Z</time></trkpt><trkpt lat="45.54092147331242" lon="9.31583303144602"><ele>136.0</ele><time>2026-03-28T17:47:33Z</time></trkpt><trkpt lat="45.541089771119225" lon="9.315982694119882"><ele>136.0</ele><time>2026-03-28T17:47:34Z</time></trkpt><trkpt lat="45.54126020632299" lon="9.316122278429424"><ele>136.0</ele><time>2026-03-28T17:47:35Z</time></trkpt><trkpt lat="45.54143694447274" lon="9.31625188374477"><ele>136.33333333333334</ele><time>2026-03-28T17:47:36Z</time></trkpt><trkpt lat="45.541614937673444" lon="9.316373647449161"><ele>136.66666666666666</ele><time>2026-03-28T17:47:37Z</time></trkpt><trkpt lat="45.54179407522181" lon="9.316495789164113"><ele>137.0</ele><time>2026-03-28T17:47:38Z</time></trkpt><trkpt lat="45.54197414850496" lon="9.316615044910977"><ele>138.0</ele><time>2026-03-28T17:47:39Z</time></trkpt><trkpt lat="45.54215403020059" lon="9.316731677194156"><ele>139.0</ele><time>2026-03-28T17:47:40Z</time></trkpt><trkpt lat="45.54233452321851" lon="9.316848491832905"><ele>140.0</ele><time>2026-03-28T17:47:41Z</time></trkpt><trkpt lat="45.54251703843207" lon="9.316966544506148"><ele>140.0</ele><time>2026-03-28T17:47:42Z</time></trkpt><trkpt lat="45.54269717852357" lon="9.31708371394116"><ele>140.0</ele><time>2026-03-28T17:47:43Z</time></trkpt><trkpt lat="45.54287715848152" lon="9.317205948488438"><ele>140.0</ele><time>2026-03-28T17:47:44Z</time></trkpt><trkpt lat="45.54305566755727" lon="9.317332495357716"><ele>140.0</ele><time>2026-03-28T17:47:45Z</time></trkpt><trkpt lat="45.543231120514" lon="9.317460289453436"><ele>140.0</ele><time>2026-03-28T17:47:46Z</time></trkpt><trkpt lat="45.54340282625684" lon="9.3176014031062"><ele>140.0</ele><time>2026-03-28T17:47:47Z</time></trkpt><trkpt lat="45.54357039298107" lon="9.317755077571695"><ele>140.0</ele><time>2026-03-28T17:47:48Z</time></trkpt><trkpt lat="45.543733665526574" lon="9.317916992392938"><ele>140.0</ele><time>2026-03-28T17:47:49Z</time></trkpt><trkpt lat="45.54389349203458" lon="9.318085486285572"><ele>140.0</ele><time>2026-03-28T17:47:50Z</time></trkpt><trkpt lat="45.54404787888351" lon="9.31826268266714"><ele>140.0</ele><time>2026-03-28T17:47:51Z</time></trkpt><trkpt lat="45.544196142160125" lon="9.31845288295052"><ele>140.0</ele><time>2026-03-28T17:47:52Z</time></trkpt><trkpt lat="45.54433728633161" lon="9.318653908361137"><ele>140.0</ele><time>2026-03-28T17:47:53Z</time></trkpt><trkpt lat="45.54447050618742" lon="9.318865554097618"><ele>140.33333333333331</ele><time>2026-03-28T17:47:54Z</time></trkpt><trkpt lat="45.54459915921339" lon="9.319085171754336"><ele>140.66666666666666</ele><time>2026-03-28T17:47:55Z</time></trkpt><trkpt lat="45.54472199011573" lon="9.319310180321345"><ele>141.0</ele><time>2026-03-28T17:47:56Z</time></trkpt><trkpt lat="45.54483690433305" lon="9.31954182020386"><ele>141.33333333333334</ele><time>2026-03-28T17:47:57Z</time></trkpt><trkpt lat="45.544944396588924" lon="9.319781739649347"><ele>141.66666666666669</ele><time>2026-03-28T17:47:58Z</time></trkpt><trkpt lat="45.54504797200793" lon="9.320025008544743"><ele>142.0</ele><time>2026-03-28T17:47:59Z</time></trkpt><trkpt lat="45.545146940560585" lon="9.320273366722683"><ele>142.0</ele><time>2026-03-28T17:48:00Z</time></trkpt><trkpt lat="45.54524022541669" lon="9.3205242703964"><ele>142.0</ele><time>2026-03-28T17:48:01Z</time></trkpt><trkpt lat="45.54533519483192" lon="9.320775464365497"><ele>142.0</ele><time>2026-03-28T17:48:02Z</time></trkpt><trkpt lat="45.545431495158745" lon="9.32102557598279"><ele>141.66666666666669</ele><time>2026-03-28T17:48:03Z</time></trkpt><trkpt lat="45.545529698591" lon="9.321273494192152"><ele>141.33333333333334</ele><time>2026-03-28T17:48:04Z</time></trkpt><trkpt lat="45.54562930408394" lon="9.321523003365215"><ele>141.0</ele><time>2026-03-28T17:48:04.999Z</time></trkpt><trkpt lat="45.54573093304999" lon="9.321767141313124"><ele>141.0</ele><time>2026-03-28T17:48:05.999Z</time></trkpt><trkpt lat="45.545836926182155" lon="9.322008766121229"><ele>141.0</ele><time>2026-03-28T17:48:06.999Z</time></trkpt><trkpt lat="45.545947371665584" lon="9.32224348733271"><ele>141.0</ele><time>2026-03-28T17:48:07.999Z</time></trkpt><trkpt lat="45.54606355518132" lon="9.322475576416739"><ele>141.0</ele><time>2026-03-28T17:48:08.999Z</time></trkpt><trkpt lat="45.54618155723675" lon="9.322702494796813"><ele>141.0</ele><time>2026-03-28T17:48:09.999Z</time></trkpt><trkpt lat="45.54630421521882" lon="9.322928436639414"><ele>141.0</ele><time>2026-03-28T17:48:10.999Z</time></trkpt><trkpt lat="45.54643095311978" lon="9.323148423341697"><ele>141.33333333333334</ele><time>2026-03-28T17:48:11.999Z</time></trkpt><trkpt lat="45.54656026283264" lon="9.323365023298221"><ele>141.66666666666669</ele><time>2026-03-28T17:48:12.999Z</time></trkpt><trkpt lat="45.54669155668627" lon="9.323577205555548"><ele>142.0</ele><time>2026-03-28T17:48:13.999Z</time></trkpt><trkpt lat="45.54682777906045" lon="9.323782336849543"><ele>142.0</ele><time>2026-03-28T17:48:14.999Z</time></trkpt><trkpt lat="45.54696910261882" lon="9.323986416306685"><ele>142.0</ele><time>2026-03-28T17:48:15.999Z</time></trkpt><trkpt lat="45.54711110643223" lon="9.324185444217301"><ele>142.0</ele><time>2026-03-28T17:48:16.999Z</time></trkpt><trkpt lat="45.54725943871828" lon="9.32437949274768"><ele>142.33333333333334</ele><time>2026-03-28T17:48:17.999Z</time></trkpt><trkpt lat="45.54741000058589" lon="9.324565189251631"><ele>142.66666666666666</ele><time>2026-03-28T17:48:18.999Z</time></trkpt><trkpt lat="45.547564350945684" lon="9.324745238978528"><ele>143.0</ele><time>2026-03-28T17:48:19.999Z</time></trkpt><trkpt lat="45.54772221472891" lon="9.324920546800941"><ele>143.66666666666666</ele><time>2026-03-28T17:48:20.999Z</time></trkpt><trkpt lat="45.547882319116006" lon="9.325089649503195"><ele>144.33333333333334</ele><time>2026-03-28T17:48:21.999Z</time></trkpt><trkpt lat="45.54804394919307" lon="9.325252966728494"><ele>145.0</ele><time>2026-03-28T17:48:22.999Z</time></trkpt><trkpt lat="45.5482069852383" lon="9.325412836766487"><ele>144.33333333333334</ele><time>2026-03-28T17:48:23.999Z</time></trkpt><trkpt lat="45.54837227910009" lon="9.325568242584465"><ele>143.66666666666666</ele><time>2026-03-28T17:48:24.999Z</time></trkpt><trkpt lat="45.54854671574587" lon="9.325719652370955"><ele>143.0</ele><time>2026-03-28T17:48:25.999Z</time></trkpt><trkpt lat="45.548719345256956" lon="9.325861250939242"><ele>142.33333333333331</ele><time>2026-03-28T17:48:26.999Z</time></trkpt><trkpt lat="45.54889317383325" lon="9.325997780580513"><ele>141.66666666666666</ele><time>2026-03-28T17:48:27.999Z</time></trkpt><trkpt lat="45.54906933721601" lon="9.326126799263637"><ele>141.0</ele><time>2026-03-28T17:48:28.999Z</time></trkpt><trkpt lat="45.54924844889855" lon="9.326250692574545"><ele>141.0</ele><time>2026-03-28T17:48:29.999Z</time></trkpt><trkpt lat="45.54943093654924" lon="9.326367933750479"><ele>141.0</ele><time>2026-03-28T17:48:30.999Z</time></trkpt><trkpt lat="45.54961377422517" lon="9.326483299984838"><ele>141.0</ele><time>2026-03-28T17:48:31.999Z</time></trkpt><trkpt lat="45.54979734647442" lon="9.326593895276133"><ele>142.0</ele><time>2026-03-28T17:48:32.999Z</time></trkpt><trkpt lat="45.5499824929007" lon="9.326702930726073"><ele>143.0</ele><time>2026-03-28T17:48:33.999Z</time></trkpt><trkpt lat="45.5501660057872" lon="9.326809002531157"><ele>144.0</ele><time>2026-03-28T17:48:34.999Z</time></trkpt><trkpt lat="45.55034999949814" lon="9.32691598071791"><ele>144.0</ele><time>2026-03-28T17:48:35.999Z</time></trkpt><trkpt lat="45.55053306649703" lon="9.327025779828956"><ele>144.0</ele><time>2026-03-28T17:48:36.999Z</time></trkpt><trkpt lat="45.55071579541712" lon="9.327135910958596"><ele>144.0</ele><time>2026-03-28T17:48:37.999Z</time></trkpt><trkpt lat="45.55089956567859" lon="9.327247976454172"><ele>144.0</ele><time>2026-03-28T17:48:38.999Z</time></trkpt><trkpt lat="45.551083606321306" lon="9.327359012559533"><ele>144.0</ele><time>2026-03-28T17:48:39.999Z</time></trkpt><trkpt lat="45.55126716145666" lon="9.32747073589097"><ele>144.0</ele><time>2026-03-28T17:48:40.999Z</time></trkpt><trkpt lat="45.55145108973545" lon="9.327580321371379"><ele>144.0</ele><time>2026-03-28T17:48:41.999Z</time></trkpt><trkpt lat="45.55163477406499" lon="9.327687120539895"><ele>144.0</ele><time>2026-03-28T17:48:42.999Z</time></trkpt><trkpt lat="45.55181914323224" lon="9.327793909486088"><ele>144.0</ele><time>2026-03-28T17:48:43.999Z</time></trkpt><trkpt lat="45.552004391249085" lon="9.327903969594253"><ele>144.33333333333334</ele><time>2026-03-28T17:48:44.999Z</time></trkpt><trkpt lat="45.55218857157491" lon="9.328011325044127"><ele>144.66666666666669</ele><time>2026-03-28T17:48:45.999Z</time></trkpt><trkpt lat="45.55237353854372" lon="9.328120274485737"><ele>145.0</ele><time>2026-03-28T17:48:46.999Z</time></trkpt><trkpt lat="45.55255724870269" lon="9.32822706567701"><ele>145.0</ele><time>2026-03-28T17:48:47.999Z</time></trkpt><trkpt lat="45.55274084771408" lon="9.32833406166192"><ele>145.0</ele><time>2026-03-28T17:48:48.999Z</time></trkpt><trkpt lat="45.55292537113842" lon="9.328441291059692"><ele>145.0</ele><time>2026-03-28T17:48:49.999Z</time></trkpt><trkpt lat="45.55311043308461" lon="9.328549388826223"><ele>144.33333333333334</ele><time>2026-03-28T17:48:50.999Z</time></trkpt><trkpt lat="45.5532941771231" lon="9.328652766249881"><ele>143.66666666666666</ele><time>2026-03-28T17:48:51.999Z</time></trkpt><trkpt lat="45.55347782425461" lon="9.328758224087933"><ele>143.0</ele><time>2026-03-28T17:48:52.999Z</time></trkpt><trkpt lat="45.55366356801968" lon="9.328863087322855"><ele>144.33333333333331</ele><time>2026-03-28T17:48:53.999Z</time></trkpt><trkpt lat="45.553848973170844" lon="9.328967856551381"><ele>145.66666666666666</ele><time>2026-03-28T17:48:54.999Z</time></trkpt><trkpt lat="45.554035139712276" lon="9.329074371723046"><ele>147.0</ele><time>2026-03-28T17:48:55.999Z</time></trkpt><trkpt lat="45.55421989826617" lon="9.329180765532476"><ele>147.0</ele><time>2026-03-28T17:48:56.999Z</time></trkpt><trkpt lat="45.55440510559221" lon="9.329287120218012"><ele>147.0</ele><time>2026-03-28T17:48:57.999Z</time></trkpt><trkpt lat="45.55458826330635" lon="9.329392909898802"><ele>147.0</ele><time>2026-03-28T17:48:58.999Z</time></trkpt><trkpt lat="45.55477440204061" lon="9.329500278516376"><ele>147.0</ele><time>2026-03-28T17:48:59.999Z</time></trkpt><trkpt lat="45.55495654365284" lon="9.329607974088738"><ele>147.0</ele><time>2026-03-28T17:49:00.999Z</time></trkpt><trkpt lat="45.55513986581089" lon="9.329719640599501"><ele>147.0</ele><time>2026-03-28T17:49:01.999Z</time></trkpt><trkpt lat="45.55532319493087" lon="9.329829814947194"><ele>147.0</ele><time>2026-03-28T17:49:02.999Z</time></trkpt><trkpt lat="45.55550721426469" lon="9.32994035184889"><ele>147.0</ele><time>2026-03-28T17:49:03.999Z</time></trkpt><trkpt lat="45.55568997536731" lon="9.330050067369283"><ele>147.0</ele><time>2026-03-28T17:49:04.999Z</time></trkpt><trkpt lat="45.55587343114758" lon="9.33015810476936"><ele>147.0</ele><time>2026-03-28T17:49:05.999Z</time></trkpt><trkpt lat="45.55605678110761" lon="9.330267033890298"><ele>147.0</ele><time>2026-03-28T17:49:06.999Z</time></trkpt><trkpt lat="45.55624015279542" lon="9.330374368938795"><ele>147.0</ele><time>2026-03-28T17:49:07.999Z</time></trkpt><trkpt lat="45.556423597149646" lon="9.330481178496667"><ele>148.0</ele><time>2026-03-28T17:49:08.999Z</time></trkpt><trkpt lat="45.55660799045713" lon="9.330587776213438"><ele>149.0</ele><time>2026-03-28T17:49:09.999Z</time></trkpt><trkpt lat="45.55679274465904" lon="9.33069400324848"><ele>150.0</ele><time>2026-03-28T17:49:10.999Z</time></trkpt><trkpt lat="45.556976000724354" lon="9.330800573296644"><ele>150.66666666666666</ele><time>2026-03-28T17:49:11.999Z</time></trkpt><trkpt lat="45.55716035582592" lon="9.330903904816068"><ele>151.33333333333331</ele><time>2026-03-28T17:49:12.999Z</time></trkpt><trkpt lat="45.5573441132452" lon="9.331007170946696"><ele>152.0</ele><time>2026-03-28T17:49:13.999Z</time></trkpt><trkpt lat="45.55752999507383" lon="9.331113681969454"><ele>152.0</ele><time>2026-03-28T17:49:14.999Z</time></trkpt><trkpt lat="45.557715357518056" lon="9.331220379904448"><ele>152.0</ele><time>2026-03-28T17:49:15.999Z</time></trkpt><trkpt lat="45.55790049455009" lon="9.33132892756327"><ele>152.0</ele><time>2026-03-28T17:49:16.999Z</time></trkpt><trkpt lat="45.55808554663049" lon="9.331436876445531"><ele>151.66666666666666</ele><time>2026-03-28T17:49:18Z</time></trkpt><trkpt lat="45.55826921413114" lon="9.331544660959112"><ele>151.33333333333334</ele><time>2026-03-28T17:49:19Z</time></trkpt><trkpt lat="45.55845363220346" lon="9.331653545953655"><ele>151.0</ele><time>2026-03-28T17:49:20Z</time></trkpt><trkpt lat="45.558636368295964" lon="9.331761128238313"><ele>150.33333333333334</ele><time>2026-03-28T17:49:21Z</time></trkpt><trkpt lat="45.55882079686841" lon="9.33187149844015"><ele>149.66666666666666</ele><time>2026-03-28T17:49:22Z</time></trkpt><trkpt lat="45.55900409364525" lon="9.33198052562754"><ele>149.0</ele><time>2026-03-28T17:49:23Z</time></trkpt><trkpt lat="45.55918803632644" lon="9.332089286293103"><ele>149.0</ele><time>2026-03-28T17:49:24Z</time></trkpt><trkpt lat="45.559372500967" lon="9.332198993451314"><ele>149.0</ele><time>2026-03-28T17:49:25Z</time></trkpt><trkpt lat="45.559554850319245" lon="9.332309157370947"><ele>149.0</ele><time>2026-03-28T17:49:26Z</time></trkpt><trkpt lat="45.55972395744373" lon="9.332410253525586"><ele>149.66666666666666</ele><time>2026-03-28T17:49:27Z</time></trkpt><trkpt lat="45.55988917405028" lon="9.33250820345963"><ele>150.33333333333334</ele><time>2026-03-28T17:49:28Z</time></trkpt><trkpt lat="45.56005043176821" lon="9.332614897655166"><ele>151.0</ele><time>2026-03-28T17:49:29Z</time></trkpt><trkpt lat="45.560210391930106" lon="9.332725862872772"><ele>151.0</ele><time>2026-03-28T17:49:30Z</time></trkpt><trkpt lat="45.56036475301577" lon="9.332832488819356"><ele>151.0</ele><time>2026-03-28T17:49:31Z</time></trkpt><trkpt lat="45.56051073336533" lon="9.332934354285461"><ele>151.0</ele><time>2026-03-28T17:49:32Z</time></trkpt><trkpt lat="45.560633392252086" lon="9.333064094553004"><ele>151.25</ele><time>2026-03-28T17:49:33Z</time></trkpt><trkpt lat="45.560758502809726" lon="9.33317061003699"><ele>151.5</ele><time>2026-03-28T17:49:34Z</time></trkpt><trkpt lat="45.560877829989984" lon="9.333264226507259"><ele>151.75</ele><time>2026-03-28T17:49:35Z</time></trkpt><trkpt lat="45.56099359382757" lon="9.333350997504189"><ele>152.0</ele><time>2026-03-28T17:49:36Z</time></trkpt><trkpt lat="45.5610949442277" lon="9.333420439913356"><ele>152.0</ele><time>2026-03-28T17:49:37Z</time></trkpt><trkpt lat="45.56117910183894" lon="9.333474542557338"><ele>152.0</ele><time>2026-03-28T17:49:38Z</time></trkpt><trkpt lat="45.56125407754639" lon="9.333519416208661"><ele>152.0</ele><time>2026-03-28T17:49:39Z</time></trkpt><trkpt lat="45.56133616273984" lon="9.333560048283541"><ele>152.0</ele><time>2026-03-28T17:49:40Z</time></trkpt><trkpt lat="45.56143129416952" lon="9.333599038227065"><ele>152.0</ele><time>2026-03-28T17:49:41Z</time></trkpt><trkpt lat="45.5615411697593" lon="9.333636227013661"><ele>153.0</ele><time>2026-03-28T17:49:42Z</time></trkpt><trkpt lat="45.561671834037696" lon="9.333675705950338"><ele>154.0</ele><time>2026-03-28T17:49:43Z</time></trkpt><trkpt lat="45.56180565955952" lon="9.333711788683164"><ele>155.0</ele><time>2026-03-28T17:49:44Z</time></trkpt><trkpt lat="45.56194015462578" lon="9.33377454345027"><ele>156.0</ele><time>2026-03-28T17:49:45Z</time></trkpt><trkpt lat="45.56208330527865" lon="9.333838324954979"><ele>155.33333333333334</ele><time>2026-03-28T17:49:46Z</time></trkpt><trkpt lat="45.56223248715852" lon="9.333905852424822"><ele>154.66666666666669</ele><time>2026-03-28T17:49:47Z</time></trkpt><trkpt lat="45.56238730874017" lon="9.333978714922424"><ele>154.0</ele><time>2026-03-28T17:49:48Z</time></trkpt><trkpt lat="45.56254622211572" lon="9.334069294188904"><ele>154.0</ele><time>2026-03-28T17:49:49Z</time></trkpt><trkpt lat="45.56270476898874" lon="9.33417702661407"><ele>154.0</ele><time>2026-03-28T17:49:50Z</time></trkpt><trkpt lat="45.56286290572672" lon="9.334303591747318"><ele>154.0</ele><time>2026-03-28T17:49:51Z</time></trkpt><trkpt lat="45.56301998361563" lon="9.334444381025458"><ele>154.0</ele><time>2026-03-28T17:49:52Z</time></trkpt><trkpt lat="45.56317790784878" lon="9.334586766631768"><ele>154.0</ele><time>2026-03-28T17:49:53Z</time></trkpt><trkpt lat="45.563338192099785" lon="9.33473813116404"><ele>154.0</ele><time>2026-03-28T17:49:54Z</time></trkpt><trkpt lat="45.563501219319896" lon="9.334887146937541"><ele>154.0</ele><time>2026-03-28T17:49:55Z</time></trkpt><trkpt lat="45.563662691004666" lon="9.335035026583588"><ele>154.0</ele><time>2026-03-28T17:49:56Z</time></trkpt><trkpt lat="45.563826367654094" lon="9.335172176305802"><ele>154.0</ele><time>2026-03-28T17:49:57Z</time></trkpt><trkpt lat="45.5639948235261" lon="9.335300239703688"><ele>154.0</ele><time>2026-03-28T17:49:58Z</time></trkpt><trkpt lat="45.56417160772735" lon="9.33541447725475"><ele>154.0</ele><time>2026-03-28T17:49:59Z</time></trkpt><trkpt lat="45.564346420729095" lon="9.335523201475775"><ele>154.0</ele><time>2026-03-28T17:50:00Z</time></trkpt><trkpt lat="45.5645376280574" lon="9.335616388076794"><ele>154.0</ele><time>2026-03-28T17:50:01Z</time></trkpt><trkpt lat="45.564726478369046" lon="9.335702077570875"><ele>154.0</ele><time>2026-03-28T17:50:02Z</time></trkpt><trkpt lat="45.56491253539024" lon="9.335767629784703"><ele>154.0</ele><time>2026-03-28T17:50:03Z</time></trkpt><trkpt lat="45.56510776295722" lon="9.33583191293827"><ele>154.0</ele><time>2026-03-28T17:50:04Z</time></trkpt><trkpt lat="45.56530200872244" lon="9.335892185926369"><ele>154.0</ele><time>2026-03-28T17:50:05Z</time></trkpt><trkpt lat="45.56549791089951" lon="9.335953457140283"><ele>154.0</ele><time>2026-03-28T17:50:06Z</time></trkpt><trkpt lat="45.56569022256028" lon="9.33602473587335"><ele>155.33333333333334</ele><time>2026-03-28T17:50:07Z</time></trkpt><trkpt lat="45.56587960679787" lon="9.336106035665654"><ele>156.66666666666666</ele><time>2026-03-28T17:50:08Z</time></trkpt><trkpt lat="45.566066803736035" lon="9.336188587155783"><ele>158.0</ele><time>2026-03-28T17:50:08.999Z</time></trkpt><trkpt lat="45.56625716061821" lon="9.336271361133488"><ele>158.0</ele><time>2026-03-28T17:50:09.999Z</time></trkpt><trkpt lat="45.56644893837524" lon="9.336354192393124"><ele>158.0</ele><time>2026-03-28T17:50:10.999Z</time></trkpt><trkpt lat="45.56664312933211" lon="9.336437082805691"><ele>158.0</ele><time>2026-03-28T17:50:11.999Z</time></trkpt><trkpt lat="45.566833817839" lon="9.336522287421047"><ele>158.0</ele><time>2026-03-28T17:50:12.999Z</time></trkpt><trkpt lat="45.567024486654475" lon="9.33660915221413"><ele>158.0</ele><time>2026-03-28T17:50:13.999Z</time></trkpt><trkpt lat="45.56721414264537" lon="9.336694653371595"><ele>158.0</ele><time>2026-03-28T17:50:14.999Z</time></trkpt><trkpt lat="45.56740380576485" lon="9.336779444199394"><ele>157.66666666666666</ele><time>2026-03-28T17:50:15.999Z</time></trkpt><trkpt lat="45.5675911484801" lon="9.336865957715991"><ele>157.33333333333334</ele><time>2026-03-28T17:50:16.999Z</time></trkpt><trkpt lat="45.56777849682462" lon="9.336953939995396"><ele>157.0</ele><time>2026-03-28T17:50:17.999Z</time></trkpt><trkpt lat="45.56796610790672" lon="9.337046100566905"><ele>157.0</ele><time>2026-03-28T17:50:18.999Z</time></trkpt><trkpt lat="45.568149473418885" lon="9.337142027064782"><ele>157.0</ele><time>2026-03-28T17:50:19.999Z</time></trkpt><trkpt lat="45.568336476405065" lon="9.337241236626749"><ele>157.0</ele><time>2026-03-28T17:50:20.999Z</time></trkpt><trkpt lat="45.56852407256286" lon="9.337341568253471"><ele>157.33333333333334</ele><time>2026-03-28T17:50:21.999Z</time></trkpt><trkpt lat="45.56870884741869" lon="9.337443010003001"><ele>157.66666666666666</ele><time>2026-03-28T17:50:22.999Z</time></trkpt><trkpt lat="45.56889465681406" lon="9.337547097291555"><ele>158.0</ele><time>2026-03-28T17:50:23.999Z</time></trkpt><trkpt lat="45.56907808534221" lon="9.337651322990132"><ele>158.0</ele><time>2026-03-28T17:50:24.999Z</time></trkpt><trkpt lat="45.56926138879237" lon="9.337759323345411"><ele>158.0</ele><time>2026-03-28T17:50:25.999Z</time></trkpt><trkpt lat="45.56944287346935" lon="9.33786766065397"><ele>158.0</ele><time>2026-03-28T17:50:26.999Z</time></trkpt><trkpt lat="45.56962377525806" lon="9.33798210752814"><ele>157.0</ele><time>2026-03-28T17:50:27.999Z</time></trkpt><trkpt lat="45.56980623418419" lon="9.338094603659401"><ele>156.0</ele><time>2026-03-28T17:50:28.999Z</time></trkpt><trkpt lat="45.56998960319786" lon="9.338206343991308"><ele>155.0</ele><time>2026-03-28T17:50:29.999Z</time></trkpt><trkpt lat="45.57017245970118" lon="9.338318478965355"><ele>155.0</ele><time>2026-03-28T17:50:30.999Z</time></trkpt><trkpt lat="45.570353962997395" lon="9.338429972469548"><ele>155.0</ele><time>2026-03-28T17:50:31.999Z</time></trkpt><trkpt lat="45.570534996296594" lon="9.338543188730636"><ele>155.0</ele><time>2026-03-28T17:50:32.999Z</time></trkpt><trkpt lat="45.57071601957738" lon="9.338657769044998"><ele>155.33333333333331</ele><time>2026-03-28T17:50:33.999Z</time></trkpt><trkpt lat="45.570896438433614" lon="9.338770886974308"><ele>155.66666666666666</ele><time>2026-03-28T17:50:34.999Z</time></trkpt><trkpt lat="45.57107617220893" lon="9.338881467793207"><ele>156.0</ele><time>2026-03-28T17:50:35.999Z</time></trkpt><trkpt lat="45.57125716918999" lon="9.33899483986853"><ele>156.66666666666666</ele><time>2026-03-28T17:50:36.999Z</time></trkpt><trkpt lat="45.571438528103876" lon="9.339109156191483"><ele>157.33333333333331</ele><time>2026-03-28T17:50:37.999Z</time></trkpt><trkpt lat="45.57161993460253" lon="9.339222700513202"><ele>158.0</ele><time>2026-03-28T17:50:38.999Z</time></trkpt><trkpt lat="45.57180179318419" lon="9.33933677770419"><ele>158.0</ele><time>2026-03-28T17:50:39.999Z</time></trkpt><trkpt lat="45.57198276800432" lon="9.339451387906943"><ele>158.0</ele><time>2026-03-28T17:50:40.999Z</time></trkpt><trkpt lat="45.572164245943334" lon="9.339563909184678"><ele>158.0</ele><time>2026-03-28T17:50:41.999Z</time></trkpt><trkpt lat="45.57234684593148" lon="9.33967806922662"><ele>159.0</ele><time>2026-03-28T17:50:42.999Z</time></trkpt><trkpt lat="45.572529477694935" lon="9.339790336897842"><ele>160.0</ele><time>2026-03-28T17:50:43.999Z</time></trkpt><trkpt lat="45.57270950731247" lon="9.339900052561294"><ele>161.0</ele><time>2026-03-28T17:50:44.999Z</time></trkpt><trkpt lat="45.57289166110995" lon="9.340012183858365"><ele>161.33333333333331</ele><time>2026-03-28T17:50:45.999Z</time></trkpt><trkpt lat="45.573072217886754" lon="9.340122614944883"><ele>161.66666666666666</ele><time>2026-03-28T17:50:46.999Z</time></trkpt><trkpt lat="45.5732531540702" lon="9.340234183623506"><ele>162.0</ele><time>2026-03-28T17:50:47.999Z</time></trkpt><trkpt lat="45.57343461557115" lon="9.34034436015366"><ele>162.0</ele><time>2026-03-28T17:50:48.999Z</time></trkpt><trkpt lat="45.57361719977836" lon="9.34045299219128"><ele>162.0</ele><time>2026-03-28T17:50:49.999Z</time></trkpt><trkpt lat="45.57379927373332" lon="9.340558155484109"><ele>162.0</ele><time>2026-03-28T17:50:50.999Z</time></trkpt><trkpt lat="45.573980910023046" lon="9.340662552853997"><ele>161.33333333333334</ele><time>2026-03-28T17:50:51.999Z</time></trkpt><trkpt lat="45.57416338529562" lon="9.340764842585385"><ele>160.66666666666669</ele><time>2026-03-28T17:50:52.999Z</time></trkpt><trkpt lat="45.574346171598144" lon="9.340868374673601"><ele>160.0</ele><time>2026-03-28T17:50:53.999Z</time></trkpt><trkpt lat="45.57452961534685" lon="9.3409695301613"><ele>160.0</ele><time>2026-03-28T17:50:54.999Z</time></trkpt><trkpt lat="45.57471393525369" lon="9.34106745401666"><ele>160.0</ele><time>2026-03-28T17:50:55.999Z</time></trkpt><trkpt lat="45.57489917698576" lon="9.341164318162821"><ele>160.0</ele><time>2026-03-28T17:50:56.999Z</time></trkpt><trkpt lat="45.57508504573162" lon="9.341256414941439"><ele>160.0</ele><time>2026-03-28T17:50:57.999Z</time></trkpt><trkpt lat="45.575271297867346" lon="9.341350448755732"><ele>160.0</ele><time>2026-03-28T17:50:58.999Z</time></trkpt><trkpt lat="45.57545927812838" lon="9.341444364092604"><ele>160.0</ele><time>2026-03-28T17:50:59.999Z</time></trkpt><trkpt lat="45.575647321694774" lon="9.341532368553493"><ele>160.66666666666669</ele><time>2026-03-28T17:51:00.999Z</time></trkpt><trkpt lat="45.57583658997071" lon="9.34161973814324"><ele>161.33333333333334</ele><time>2026-03-28T17:51:01.999Z</time></trkpt><trkpt lat="45.57602559409186" lon="9.34170729764375"><ele>162.0</ele><time>2026-03-28T17:51:02.999Z</time></trkpt><trkpt lat="45.57621654360231" lon="9.341791362069547"><ele>162.66666666666666</ele><time>2026-03-28T17:51:03.999Z</time></trkpt><trkpt lat="45.57640564416601" lon="9.34187600179325"><ele>163.33333333333331</ele><time>2026-03-28T17:51:04.999Z</time></trkpt><trkpt lat="45.57659711938621" lon="9.341960801259903"><ele>164.0</ele><time>2026-03-28T17:51:05.999Z</time></trkpt><trkpt lat="45.576788947945175" lon="9.342044521479757"><ele>164.0</ele><time>2026-03-28T17:51:06.999Z</time></trkpt><trkpt lat="45.576979977124594" lon="9.342126733964001"><ele>164.0</ele><time>2026-03-28T17:51:07.999Z</time></trkpt><trkpt lat="45.577170534442274" lon="9.342207571950334"><ele>164.0</ele><time>2026-03-28T17:51:08.999Z</time></trkpt><trkpt lat="45.57736144320492" lon="9.342290597183887"><ele>164.0</ele><time>2026-03-28T17:51:09.999Z</time></trkpt><trkpt lat="45.57755301560596" lon="9.342371453493293"><ele>164.0</ele><time>2026-03-28T17:51:10.999Z</time></trkpt><trkpt lat="45.57774302023519" lon="9.342452756577458"><ele>164.0</ele><time>2026-03-28T17:51:11.999Z</time></trkpt><trkpt lat="45.57793275824788" lon="9.342537636760209"><ele>163.66666666666666</ele><time>2026-03-28T17:51:12.999Z</time></trkpt><trkpt lat="45.5781209721363" lon="9.342622929356768"><ele>163.33333333333334</ele><time>2026-03-28T17:51:13.999Z</time></trkpt><trkpt lat="45.578307466057844" lon="9.342710452287978"><ele>163.0</ele><time>2026-03-28T17:51:14.999Z</time></trkpt><trkpt lat="45.57849620620629" lon="9.342799676654677"><ele>163.0</ele><time>2026-03-28T17:51:15.999Z</time></trkpt><trkpt lat="45.578683173009054" lon="9.342888441561053"><ele>163.0</ele><time>2026-03-28T17:51:16.999Z</time></trkpt><trkpt lat="45.578872874083046" lon="9.34297461158656"><ele>163.0</ele><time>2026-03-28T17:51:17.999Z</time></trkpt><trkpt lat="45.5790636827739" lon="9.343061630307975"><ele>162.66666666666669</ele><time>2026-03-28T17:51:18.999Z</time></trkpt><trkpt lat="45.57925285220379" lon="9.343153547684492"><ele>162.33333333333334</ele><time>2026-03-28T17:51:19.999Z</time></trkpt><trkpt lat="45.57944103053439" lon="9.343248625616328"><ele>162.0</ele><time>2026-03-28T17:51:20.999Z</time></trkpt><trkpt lat="45.57962830321349" lon="9.343344597962743"><ele>163.33333333333334</ele><time>2026-03-28T17:51:21.999Z</time></trkpt><trkpt lat="45.57981334669064" lon="9.343446042465942"><ele>164.66666666666669</ele><time>2026-03-28T17:51:22.999Z</time></trkpt><trkpt lat="45.579998475324025" lon="9.34355342780359"><ele>166.0</ele><time>2026-03-28T17:51:24Z</time></trkpt><trkpt lat="45.580180455915915" lon="9.343662385077415"><ele>165.66666666666669</ele><time>2026-03-28T17:51:25Z</time></trkpt><trkpt lat="45.58036480923919" lon="9.343776222138054"><ele>165.33333333333334</ele><time>2026-03-28T17:51:26Z</time></trkpt><trkpt lat="45.58054642479632" lon="9.343894552480611"><ele>165.0</ele><time>2026-03-28T17:51:27Z</time></trkpt><trkpt lat="45.58072279483721" lon="9.344016169587603"><ele>165.0</ele><time>2026-03-28T17:51:28Z</time></trkpt><trkpt lat="45.580902348642105" lon="9.344139749010361"><ele>165.0</ele><time>2026-03-28T17:51:29Z</time></trkpt><trkpt lat="45.58108008908607" lon="9.344264098806049"><ele>165.0</ele><time>2026-03-28T17:51:30Z</time></trkpt><trkpt lat="45.58125750546755" lon="9.344395591863877"><ele>164.66666666666666</ele><time>2026-03-28T17:51:31Z</time></trkpt><trkpt lat="45.58143168517654" lon="9.344532007115625"><ele>164.33333333333331</ele><time>2026-03-28T17:51:32Z</time></trkpt><trkpt lat="45.581604665415036" lon="9.34467399259103"><ele>164.0</ele><time>2026-03-28T17:51:33Z</time></trkpt><trkpt lat="45.58177449696241" lon="9.344817892234243"><ele>164.0</ele><time>2026-03-28T17:51:34Z</time></trkpt><trkpt lat="45.581945502585434" lon="9.344962611831473"><ele>164.0</ele><time>2026-03-28T17:51:35Z</time></trkpt><trkpt lat="45.582113419584616" lon="9.345112730081166"><ele>164.0</ele><time>2026-03-28T17:51:36Z</time></trkpt><trkpt lat="45.582280445346704" lon="9.345265791214336"><ele>164.0</ele><time>2026-03-28T17:51:37Z</time></trkpt><trkpt lat="45.58244740815067" lon="9.34542139197719"><ele>164.0</ele><time>2026-03-28T17:51:38Z</time></trkpt><trkpt lat="45.58261220393701" lon="9.345582196295325"><ele>164.0</ele><time>2026-03-28T17:51:39Z</time></trkpt><trkpt lat="45.58277623322884" lon="9.345744282503679"><ele>164.66666666666666</ele><time>2026-03-28T17:51:40Z</time></trkpt><trkpt lat="45.58293551470755" lon="9.34591265264975"><ele>165.33333333333334</ele><time>2026-03-28T17:51:41Z</time></trkpt><trkpt lat="45.58309383633053" lon="9.346082348914818"><ele>166.0</ele><time>2026-03-28T17:51:42Z</time></trkpt><trkpt lat="45.58325156168102" lon="9.346256096928906"><ele>166.0</ele><time>2026-03-28T17:51:43Z</time></trkpt><trkpt lat="45.58340603570231" lon="9.346432789147938"><ele>166.0</ele><time>2026-03-28T17:51:44Z</time></trkpt><trkpt lat="45.58356154956489" lon="9.346609537619107"><ele>166.0</ele><time>2026-03-28T17:51:45Z</time></trkpt><trkpt lat="45.58371414730235" lon="9.346789129711404"><ele>166.33333333333334</ele><time>2026-03-28T17:51:46Z</time></trkpt><trkpt lat="45.58386654797646" lon="9.346972053039606"><ele>166.66666666666666</ele><time>2026-03-28T17:51:47Z</time></trkpt><trkpt lat="45.58401476482451" lon="9.347161311557908"><ele>167.0</ele><time>2026-03-28T17:51:48Z</time></trkpt><trkpt lat="45.58416125854825" lon="9.347351584835685"><ele>167.0</ele><time>2026-03-28T17:51:49Z</time></trkpt><trkpt lat="45.584307370902806" lon="9.347542898251339"><ele>167.0</ele><time>2026-03-28T17:51:50Z</time></trkpt><trkpt lat="45.58445361663097" lon="9.347734693795179"><ele>167.0</ele><time>2026-03-28T17:51:51Z</time></trkpt><trkpt lat="45.58459788188613" lon="9.347928186986396"><ele>167.33333333333331</ele><time>2026-03-28T17:51:52Z</time></trkpt><trkpt lat="45.58474329305653" lon="9.348122154666548"><ele>167.66666666666666</ele><time>2026-03-28T17:51:53Z</time></trkpt><trkpt lat="45.584888040507316" lon="9.348315293169705"><ele>168.0</ele><time>2026-03-28T17:51:54Z</time></trkpt><trkpt lat="45.585032914024794" lon="9.34850839783587"><ele>168.0</ele><time>2026-03-28T17:51:55Z</time></trkpt><trkpt lat="45.58517781589669" lon="9.348702200794454"><ele>168.0</ele><time>2026-03-28T17:51:56Z</time></trkpt><trkpt lat="45.58532127896487" lon="9.348897014298837"><ele>168.0</ele><time>2026-03-28T17:51:57Z</time></trkpt><trkpt lat="45.58546691485941" lon="9.34909155946407"><ele>168.33333333333334</ele><time>2026-03-28T17:51:58Z</time></trkpt><trkpt lat="45.585611031698335" lon="9.349284972149214"><ele>168.66666666666669</ele><time>2026-03-28T17:51:59Z</time></trkpt><trkpt lat="45.58575521455468" lon="9.349480255371477"><ele>169.0</ele><time>2026-03-28T17:52:00Z</time></trkpt><trkpt lat="45.58589862587328" lon="9.349673980733575"><ele>169.33333333333334</ele><time>2026-03-28T17:52:01Z</time></trkpt><trkpt lat="45.58604325487573" lon="9.349869683470464"><ele>169.66666666666666</ele><time>2026-03-28T17:52:02Z</time></trkpt><trkpt lat="45.5861865762911" lon="9.350063858715933"><ele>170.0</ele><time>2026-03-28T17:52:03Z</time></trkpt><trkpt lat="45.58633136830509" lon="9.35025779013759"><ele>169.33333333333331</ele><time>2026-03-28T17:52:04Z</time></trkpt><trkpt lat="45.58647563343861" lon="9.35045264876752"><ele>168.66666666666666</ele><time>2026-03-28T17:52:05Z</time></trkpt><trkpt lat="45.586619975903844" lon="9.350646265581924"><ele>168.0</ele><time>2026-03-28T17:52:06Z</time></trkpt><trkpt lat="45.58676339710646" lon="9.350840598604183"><ele>168.0</ele><time>2026-03-28T17:52:07Z</time></trkpt><trkpt lat="45.586906763512154" lon="9.35103637130728"><ele>168.0</ele><time>2026-03-28T17:52:08Z</time></trkpt><trkpt lat="45.58705257620492" lon="9.35123133377271"><ele>168.0</ele><time>2026-03-28T17:52:09Z</time></trkpt><trkpt lat="45.58719792551852" lon="9.351423385859933"><ele>168.66666666666666</ele><time>2026-03-28T17:52:10Z</time></trkpt><trkpt lat="45.58734562912065" lon="9.35161523011492"><ele>169.33333333333331</ele><time>2026-03-28T17:52:11Z</time></trkpt><trkpt lat="45.58749072874111" lon="9.351807368822984"><ele>170.0</ele><time>2026-03-28T17:52:12Z</time></trkpt><trkpt lat="45.58763594720445" lon="9.352000390207367"><ele>170.0</ele><time>2026-03-28T17:52:13Z</time></trkpt><trkpt lat="45.587781115166074" lon="9.352192956015562"><ele>170.0</ele><time>2026-03-28T17:52:14Z</time></trkpt><trkpt lat="45.58792618938624" lon="9.352386235752483"><ele>170.0</ele><time>2026-03-28T17:52:14.999Z</time></trkpt><trkpt lat="45.5880723425944" lon="9.352579299271612"><ele>170.33333333333331</ele><time>2026-03-28T17:52:15.999Z</time></trkpt><trkpt lat="45.588218168712224" lon="9.352769743561577"><ele>170.66666666666666</ele><time>2026-03-28T17:52:16.999Z</time></trkpt><trkpt lat="45.58836206795381" lon="9.35296244341197"><ele>171.0</ele><time>2026-03-28T17:52:17.999Z</time></trkpt><trkpt lat="45.588506302295016" lon="9.353156195622278"><ele>171.0</ele><time>2026-03-28T17:52:18.999Z</time></trkpt><trkpt lat="45.58865024706105" lon="9.353350188200071"><ele>171.0</ele><time>2026-03-28T17:52:19.999Z</time></trkpt><trkpt lat="45.58879544350266" lon="9.353545044105411"><ele>171.0</ele><time>2026-03-28T17:52:20.999Z</time></trkpt><trkpt lat="45.58893972892523" lon="9.353740305619796"><ele>171.66666666666666</ele><time>2026-03-28T17:52:21.999Z</time></trkpt><trkpt lat="45.58908487115917" lon="9.353933737096751"><ele>172.33333333333331</ele><time>2026-03-28T17:52:22.999Z</time></trkpt><trkpt lat="45.58923003424558" lon="9.35412440767355"><ele>173.0</ele><time>2026-03-28T17:52:23.999Z</time></trkpt><trkpt lat="45.58937513589311" lon="9.354317735303576"><ele>173.0</ele><time>2026-03-28T17:52:24.999Z</time></trkpt><trkpt lat="45.58952312177646" lon="9.354508833819644"><ele>173.0</ele><time>2026-03-28T17:52:25.999Z</time></trkpt><trkpt lat="45.589664554355274" lon="9.354701271156141"><ele>173.0</ele><time>2026-03-28T17:52:26.999Z</time></trkpt><trkpt lat="45.58980862188142" lon="9.354894607548491"><ele>172.33333333333331</ele><time>2026-03-28T17:52:27.999Z</time></trkpt><trkpt lat="45.58995302992514" lon="9.35508981580625"><ele>171.66666666666666</ele><time>2026-03-28T17:52:28.999Z</time></trkpt><trkpt lat="45.5900978995893" lon="9.355280574089836"><ele>171.0</ele><time>2026-03-28T17:52:29.999Z</time></trkpt><trkpt lat="45.59024269632131" lon="9.355475408722173"><ele>171.33333333333334</ele><time>2026-03-28T17:52:30.999Z</time></trkpt><trkpt lat="45.5903870225524" lon="9.355668597266007"><ele>171.66666666666669</ele><time>2026-03-28T17:52:31.999Z</time></trkpt><trkpt lat="45.59053268630695" lon="9.355861320837397"><ele>172.0</ele><time>2026-03-28T17:52:32.999Z</time></trkpt><trkpt lat="45.59067856609989" lon="9.356053510451183"><ele>172.0</ele><time>2026-03-28T17:52:33.999Z</time></trkpt><trkpt lat="45.59082336438561" lon="9.356245242432609"><ele>172.0</ele><time>2026-03-28T17:52:34.999Z</time></trkpt><trkpt lat="45.59096812885724" lon="9.356438793008564"><ele>172.0</ele><time>2026-03-28T17:52:35.999Z</time></trkpt><trkpt lat="45.59111203069981" lon="9.356632214786359"><ele>172.66666666666669</ele><time>2026-03-28T17:52:36.999Z</time></trkpt><trkpt lat="45.59125667863229" lon="9.356825777420866"><ele>173.33333333333334</ele><time>2026-03-28T17:52:37.999Z</time></trkpt><trkpt lat="45.59139957996229" lon="9.35701883790884"><ele>174.0</ele><time>2026-03-28T17:52:38.999Z</time></trkpt><trkpt lat="45.59154297858295" lon="9.357213308501228"><ele>174.66666666666666</ele><time>2026-03-28T17:52:39.999Z</time></trkpt><trkpt lat="45.59168550785683" lon="9.35740730395267"><ele>175.33333333333331</ele><time>2026-03-28T17:52:40.999Z</time></trkpt><trkpt lat="45.59182968845866" lon="9.357601298657189"><ele>176.0</ele><time>2026-03-28T17:52:41.999Z</time></trkpt><trkpt lat="45.59197292091808" lon="9.35779817166331"><ele>175.66666666666666</ele><time>2026-03-28T17:52:42.999Z</time></trkpt><trkpt lat="45.59211609114913" lon="9.357991268515532"><ele>175.33333333333334</ele><time>2026-03-28T17:52:43.999Z</time></trkpt><trkpt lat="45.5922605740756" lon="9.358185191137293"><ele>175.0</ele><time>2026-03-28T17:52:44.999Z</time></trkpt><trkpt lat="45.59240471242226" lon="9.358377648978013"><ele>175.0</ele><time>2026-03-28T17:52:45.999Z</time></trkpt><trkpt lat="45.592549751527294" lon="9.358570562460779"><ele>175.0</ele><time>2026-03-28T17:52:46.999Z</time></trkpt><trkpt lat="45.59269453429732" lon="9.358763680305872"><ele>175.0</ele><time>2026-03-28T17:52:47.999Z</time></trkpt><trkpt lat="45.59283961782313" lon="9.358956559660593"><ele>174.66666666666669</ele><time>2026-03-28T17:52:48.999Z</time></trkpt><trkpt lat="45.592983914025304" lon="9.359147839953069"><ele>174.33333333333334</ele><time>2026-03-28T17:52:49.999Z</time></trkpt><trkpt lat="45.59312913372489" lon="9.359339301285164"><ele>174.0</ele><time>2026-03-28T17:52:50.999Z</time></trkpt><trkpt lat="45.593275679735974" lon="9.359526853929545"><ele>174.33333333333334</ele><time>2026-03-28T17:52:51.999Z</time></trkpt><trkpt lat="45.59342355421529" lon="9.359710270741532"><ele>174.66666666666669</ele><time>2026-03-28T17:52:52.999Z</time></trkpt><trkpt lat="45.59357579978408" lon="9.359893201334188"><ele>175.0</ele><time>2026-03-28T17:52:53.999Z</time></trkpt><trkpt lat="45.59372968168187" lon="9.360070138707174"><ele>175.0</ele><time>2026-03-28T17:52:54.999Z</time></trkpt><trkpt lat="45.59388629393264" lon="9.360244586398503"><ele>175.0</ele><time>2026-03-28T17:52:55.999Z</time></trkpt><trkpt lat="45.59404570473207" lon="9.360413604154814"><ele>175.0</ele><time>2026-03-28T17:52:56.999Z</time></trkpt><trkpt lat="45.594206801206944" lon="9.36057645952363"><ele>175.0</ele><time>2026-03-28T17:52:57.999Z</time></trkpt><trkpt lat="45.59437175631286" lon="9.36073765907044"><ele>175.0</ele><time>2026-03-28T17:52:58.999Z</time></trkpt><trkpt lat="45.594538760995974" lon="9.360889115207998"><ele>175.0</ele><time>2026-03-28T17:52:59.999Z</time></trkpt><trkpt lat="45.59470687639251" lon="9.361034959488576"><ele>175.33333333333334</ele><time>2026-03-28T17:53:00.999Z</time></trkpt><trkpt lat="45.594876246836726" lon="9.361178647347156"><ele>175.66666666666666</ele><time>2026-03-28T17:53:01.999Z</time></trkpt><trkpt lat="45.59504830704991" lon="9.361321386981846"><ele>176.0</ele><time>2026-03-28T17:53:02.999Z</time></trkpt><trkpt lat="45.595221521872695" lon="9.361456423560197"><ele>177.0</ele><time>2026-03-28T17:53:03.999Z</time></trkpt><trkpt lat="45.595396837008124" lon="9.361589220926025"><ele>178.0</ele><time>2026-03-28T17:53:04.999Z</time></trkpt><trkpt lat="45.59557304256861" lon="9.361712933762727"><ele>179.0</ele><time>2026-03-28T17:53:05.999Z</time></trkpt><trkpt lat="45.595751744369416" lon="9.361831287483033"><ele>179.0</ele><time>2026-03-28T17:53:06.999Z</time></trkpt><trkpt lat="45.595933092742946" lon="9.361941375261065"><ele>179.0</ele><time>2026-03-28T17:53:07.999Z</time></trkpt><trkpt lat="45.59611516490428" lon="9.362045835380858"><ele>179.0</ele><time>2026-03-28T17:53:08.999Z</time></trkpt><trkpt lat="45.59630015061794" lon="9.362143665847585"><ele>179.33333333333331</ele><time>2026-03-28T17:53:09.999Z</time></trkpt><trkpt lat="45.59648737633593" lon="9.362234327977978"><ele>179.66666666666666</ele><time>2026-03-28T17:53:10.999Z</time></trkpt><trkpt lat="45.59667398707788" lon="9.362319369632132"><ele>180.0</ele><time>2026-03-28T17:53:11.999Z</time></trkpt><trkpt lat="45.596861941363606" lon="9.362402045608588"><ele>180.66666666666666</ele><time>2026-03-28T17:53:12.999Z</time></trkpt><trkpt lat="45.597051869146476" lon="9.362481263381849"><ele>181.33333333333331</ele><time>2026-03-28T17:53:13.999Z</time></trkpt><trkpt lat="45.59724062008619" lon="9.36256037712513"><ele>182.0</ele><time>2026-03-28T17:53:14.999Z</time></trkpt><trkpt lat="45.597429298655996" lon="9.36264129201633"><ele>182.0</ele><time>2026-03-28T17:53:15.999Z</time></trkpt><trkpt lat="45.59761828859242" lon="9.362720773513797"><ele>182.0</ele><time>2026-03-28T17:53:16.999Z</time></trkpt><trkpt lat="45.59780826131729" lon="9.362801086623348"><ele>182.0</ele><time>2026-03-28T17:53:17.999Z</time></trkpt><trkpt lat="45.59799807611474" lon="9.362884013447001"><ele>182.0</ele><time>2026-03-28T17:53:18.999Z</time></trkpt><trkpt lat="45.59818696389595" lon="9.362967594740882"><ele>182.0</ele><time>2026-03-28T17:53:19.999Z</time></trkpt><trkpt lat="45.59837477903824" lon="9.363049982121918"><ele>182.0</ele><time>2026-03-28T17:53:20.999Z</time></trkpt><trkpt lat="45.59856360253911" lon="9.363132862186358"><ele>183.0</ele><time>2026-03-28T17:53:21.999Z</time></trkpt><trkpt lat="45.59875171333792" lon="9.363215884469884"><ele>184.0</ele><time>2026-03-28T17:53:22.999Z</time></trkpt><trkpt lat="45.598940658323684" lon="9.36330035162251"><ele>185.0</ele><time>2026-03-28T17:53:23.999Z</time></trkpt><trkpt lat="45.599128929796144" lon="9.36337921842055"><ele>185.0</ele><time>2026-03-28T17:53:24.999Z</time></trkpt><trkpt lat="45.59931745120517" lon="9.363459932079556"><ele>185.0</ele><time>2026-03-28T17:53:25.999Z</time></trkpt><trkpt lat="45.59950703460006" lon="9.363531089553689"><ele>185.0</ele><time>2026-03-28T17:53:26.999Z</time></trkpt><trkpt lat="45.59969945886352" lon="9.36359392260472"><ele>185.0</ele><time>2026-03-28T17:53:27.999Z</time></trkpt><trkpt lat="45.5998925080123" lon="9.363645129489969"><ele>185.0</ele><time>2026-03-28T17:53:28.999Z</time></trkpt><trkpt lat="45.60008773248822" lon="9.363686061543538"><ele>185.0</ele><time>2026-03-28T17:53:30Z</time></trkpt><trkpt lat="45.600285150551244" lon="9.363720061348877"><ele>184.0</ele><time>2026-03-28T17:53:31Z</time></trkpt><trkpt lat="45.60048030624987" lon="9.36374396288074"><ele>183.0</ele><time>2026-03-28T17:53:32Z</time></trkpt><trkpt lat="45.60067759140417" lon="9.36376686818235"><ele>182.0</ele><time>2026-03-28T17:53:33Z</time></trkpt><trkpt lat="45.60087411523729" lon="9.36378708063937"><ele>182.0</ele><time>2026-03-28T17:53:34Z</time></trkpt><trkpt lat="45.60107224325342" lon="9.363789889987657"><ele>182.0</ele><time>2026-03-28T17:53:35Z</time></trkpt><trkpt lat="45.60127033846534" lon="9.363783205483841"><ele>182.0</ele><time>2026-03-28T17:53:36Z</time></trkpt><trkpt lat="45.60146870993694" lon="9.363766077956484"><ele>181.0</ele><time>2026-03-28T17:53:37Z</time></trkpt><trkpt lat="45.60166783788495" lon="9.363744865241737"><ele>180.0</ele><time>2026-03-28T17:53:38Z</time></trkpt><trkpt lat="45.601866154156745" lon="9.36371035629464"><ele>179.0</ele><time>2026-03-28T17:53:39Z</time></trkpt><trkpt lat="45.60206321936859" lon="9.363665924367407"><ele>179.0</ele><time>2026-03-28T17:53:40Z</time></trkpt><trkpt lat="45.602260580794464" lon="9.363613157433353"><ele>179.0</ele><time>2026-03-28T17:53:41Z</time></trkpt><trkpt lat="45.60245651497223" lon="9.363551792712617"><ele>179.0</ele><time>2026-03-28T17:53:42Z</time></trkpt><trkpt lat="45.60265159206717" lon="9.363485398161927"><ele>179.33333333333331</ele><time>2026-03-28T17:53:43Z</time></trkpt><trkpt lat="45.60283939709393" lon="9.363415112702809"><ele>179.66666666666666</ele><time>2026-03-28T17:53:44Z</time></trkpt><trkpt lat="45.603018825529766" lon="9.363359043438424"><ele>180.0</ele><time>2026-03-28T17:53:45Z</time></trkpt><trkpt lat="45.60318898064811" lon="9.363310096352112"><ele>180.0</ele><time>2026-03-28T17:53:46Z</time></trkpt><trkpt lat="45.60335411124604" lon="9.363255755065142"><ele>180.0</ele><time>2026-03-28T17:53:47Z</time></trkpt><trkpt lat="45.603521285901046" lon="9.363194994271332"><ele>180.0</ele><time>2026-03-28T17:53:48Z</time></trkpt><trkpt lat="45.60368543861861" lon="9.36312729801901"><ele>180.33333333333334</ele><time>2026-03-28T17:53:49Z</time></trkpt><trkpt lat="45.60385361749327" lon="9.363063660960714"><ele>180.66666666666669</ele><time>2026-03-28T17:53:50Z</time></trkpt><trkpt lat="45.60402285541273" lon="9.363000391254898"><ele>181.0</ele><time>2026-03-28T17:53:51Z</time></trkpt><trkpt lat="45.60419376273039" lon="9.362946167777036"><ele>180.33333333333334</ele><time>2026-03-28T17:53:52Z</time></trkpt><trkpt lat="45.60435310291113" lon="9.362888508891183"><ele>179.66666666666666</ele><time>2026-03-28T17:53:53Z</time></trkpt><trkpt lat="45.60450299721188" lon="9.362833524922916"><ele>179.0</ele><time>2026-03-28T17:53:54Z</time></trkpt><trkpt lat="45.604642809486485" lon="9.362778864082998"><ele>180.0</ele><time>2026-03-28T17:53:55Z</time></trkpt><trkpt lat="45.604769926203765" lon="9.362720995666109"><ele>181.0</ele><time>2026-03-28T17:53:56Z</time></trkpt><trkpt lat="45.60488624310305" lon="9.362670261400295"><ele>182.0</ele><time>2026-03-28T17:53:57Z</time></trkpt><trkpt lat="45.60499732265194" lon="9.362631207234738"><ele>183.0</ele><time>2026-03-28T17:53:58Z</time></trkpt><trkpt lat="45.60509437880777" lon="9.36260377077141"><ele>183.0</ele><time>2026-03-28T17:53:59Z</time></trkpt><trkpt lat="45.60517529363462" lon="9.362602813539855"><ele>183.0</ele><time>2026-03-28T17:54:00Z</time></trkpt><trkpt lat="45.605249123856076" lon="9.362639491026899"><ele>183.0</ele><time>2026-03-28T17:54:01Z</time></trkpt><trkpt lat="45.6053090407341" lon="9.362707557815897"><ele>183.0</ele><time>2026-03-28T17:54:02Z</time></trkpt><trkpt lat="45.605355573118985" lon="9.362802435266293"><ele>183.0</ele><time>2026-03-28T17:54:03Z</time></trkpt><trkpt lat="45.605378291489885" lon="9.36292181723709"><ele>183.0</ele><time>2026-03-28T17:54:04Z</time></trkpt><trkpt lat="45.6053834624401" lon="9.363044511559794"><ele>183.2</ele><time>2026-03-28T17:54:05Z</time></trkpt><trkpt lat="45.60538181043366" lon="9.363164050558277"><ele>183.4</ele><time>2026-03-28T17:54:06Z</time></trkpt><trkpt lat="45.605305494076966" lon="9.363275720851233"><ele>183.6</ele><time>2026-03-28T17:54:07Z</time></trkpt><trkpt lat="45.605233608522326" lon="9.363347557624525"><ele>183.79999999999998</ele><time>2026-03-28T17:54:08Z</time></trkpt><trkpt lat="45.605147756085266" lon="9.363382084612928"><ele>184.0</ele><time>2026-03-28T17:54:09Z</time></trkpt><trkpt lat="45.6050555279743" lon="9.363371304870732"><ele>183.66666666666669</ele><time>2026-03-28T17:54:10Z</time></trkpt><trkpt lat="45.60497857166805" lon="9.363292425352423"><ele>183.33333333333334</ele><time>2026-03-28T17:54:11Z</time></trkpt><trkpt lat="45.60490000585159" lon="9.363244303430236"><ele>183.0</ele><time>2026-03-28T17:54:12Z</time></trkpt><trkpt lat="45.60482614785508" lon="9.363198574633222"><ele>182.66666666666666</ele><time>2026-03-28T17:54:13Z</time></trkpt><trkpt lat="45.60473628289915" lon="9.363181763090424"><ele>182.33333333333331</ele><time>2026-03-28T17:54:14Z</time></trkpt><trkpt lat="45.60463960053427" lon="9.363158132730174"><ele>182.0</ele><time>2026-03-28T17:54:15Z</time></trkpt><trkpt lat="45.60453096339949" lon="9.363156543703965"><ele>181.8</ele><time>2026-03-28T17:54:16Z</time></trkpt><trkpt lat="45.60441131334354" lon="9.363149954316961"><ele>181.6</ele><time>2026-03-28T17:54:17Z</time></trkpt><trkpt lat="45.60429604603849" lon="9.363207618164017"><ele>181.4</ele><time>2026-03-28T17:54:18Z</time></trkpt><trkpt lat="45.60419451986057" lon="9.363241611302112"><ele>181.20000000000002</ele><time>2026-03-28T17:54:19Z</time></trkpt><trkpt lat="45.60410015399097" lon="9.36327144055522"><ele>181.0</ele><time>2026-03-28T17:54:20Z</time></trkpt><trkpt lat="45.60401086692236" lon="9.363316560643314"><ele>181.0</ele><time>2026-03-28T17:54:21Z</time></trkpt><trkpt lat="45.603925301374396" lon="9.363360642746665"><ele>181.0</ele><time>2026-03-28T17:54:22Z</time></trkpt><trkpt lat="45.60385156899466" lon="9.363390822735038"><ele>181.0</ele><time>2026-03-28T17:54:22.999Z</time></trkpt><trkpt lat="45.60375168731501" lon="9.363398868509261"><ele>181.0</ele><time>2026-03-28T17:54:24.999Z</time></trkpt><trkpt lat="45.60367811312497" lon="9.363376118684743"><ele>181.0</ele><time>2026-03-28T17:54:26.999Z</time></trkpt><trkpt lat="45.60359652451931" lon="9.363242774415662"><ele>180.83333333333334</ele><time>2026-03-28T17:54:28.999Z</time></trkpt><trkpt lat="45.60353677227794" lon="9.363206933538487"><ele>180.66666666666669</ele><time>2026-03-28T17:54:29.999Z</time></trkpt><trkpt lat="45.6034945917576" lon="9.363089448246203"><ele>180.5</ele><time>2026-03-28T17:54:30.999Z</time></trkpt><trkpt lat="45.60346050302764" lon="9.363000799138195"><ele>180.33333333333334</ele><time>2026-03-28T17:54:31.999Z</time></trkpt><trkpt lat="45.60342795640181" lon="9.36291326613877"><ele>180.16666666666666</ele><time>2026-03-28T17:54:32.999Z</time></trkpt><trkpt lat="45.60339186817908" lon="9.362817830143015"><ele>180.0</ele><time>2026-03-28T17:54:33.999Z</time></trkpt><trkpt lat="45.6033534693076" lon="9.362717414208761"><ele>180.0</ele><time>2026-03-28T17:54:34.999Z</time></trkpt><trkpt lat="45.603319341463454" lon="9.362596846085825"><ele>180.0</ele><time>2026-03-28T17:54:35.999Z</time></trkpt><trkpt lat="45.60327269683415" lon="9.3624803935101"><ele>180.0</ele><time>2026-03-28T17:54:36.999Z</time></trkpt><trkpt lat="45.60322483842797" lon="9.362360166019458"><ele>180.0</ele><time>2026-03-28T17:54:37.999Z</time></trkpt><trkpt lat="45.60318270898825" lon="9.362221466009256"><ele>180.0</ele><time>2026-03-28T17:54:38.999Z</time></trkpt><trkpt lat="45.603156244950554" lon="9.362067553409481"><ele>180.0</ele><time>2026-03-28T17:54:39.999Z</time></trkpt><trkpt lat="45.603144655410624" lon="9.361901960094528"><ele>180.0</ele><time>2026-03-28T17:54:40.999Z</time></trkpt><trkpt lat="45.60315957155299" lon="9.361748772286054"><ele>180.0</ele><time>2026-03-28T17:54:41.999Z</time></trkpt><trkpt lat="45.60320190684263" lon="9.361619251703587"><ele>180.0</ele><time>2026-03-28T17:54:42.999Z</time></trkpt><trkpt lat="45.60326733619053" lon="9.361524078695549"><ele>180.0</ele><time>2026-03-28T17:54:43.999Z</time></trkpt><trkpt lat="45.60334791591795" lon="9.361445490195806"><ele>180.0</ele><time>2026-03-28T17:54:44.999Z</time></trkpt><trkpt lat="45.603438884370135" lon="9.361401634301473"><ele>180.0</ele><time>2026-03-28T17:54:45.999Z</time></trkpt><trkpt lat="45.60352495662771" lon="9.361409494102157"><ele>180.0</ele><time>2026-03-28T17:54:46.999Z</time></trkpt><trkpt lat="45.603588953372366" lon="9.361417323681431"><ele>180.0</ele><time>2026-03-28T17:54:47.999Z</time></trkpt><trkpt lat="45.6036902385733" lon="9.361391562713214"><ele>180.0</ele><time>2026-03-28T17:54:49.999Z</time></trkpt><trkpt lat="45.603799818335546" lon="9.361289952049361"><ele>180.0</ele><time>2026-03-28T17:54:51.999Z</time></trkpt><trkpt lat="45.60383700805626" lon="9.361213881427533"><ele>180.0</ele><time>2026-03-28T17:54:52.999Z</time></trkpt><trkpt lat="45.603857962797406" lon="9.361114053780005"><ele>180.0</ele><time>2026-03-28T17:54:53.999Z</time></trkpt><trkpt lat="45.60387142058787" lon="9.360985614809353"><ele>180.0</ele><time>2026-03-28T17:54:54.999Z</time></trkpt><trkpt lat="45.60387828336132" lon="9.360827469143475"><ele>180.0</ele><time>2026-03-28T17:54:55.999Z</time></trkpt><trkpt lat="45.60388592862669" lon="9.360650685056957"><ele>179.5</ele><time>2026-03-28T17:54:56.999Z</time></trkpt><trkpt lat="45.603897014705254" lon="9.360457258564892"><ele>179.0</ele><time>2026-03-28T17:54:57.999Z</time></trkpt><trkpt lat="45.60391577469837" lon="9.360257993537799"><ele>178.5</ele><time>2026-03-28T17:54:58.999Z</time></trkpt><trkpt lat="45.60394209679401" lon="9.360055056451094"><ele>178.0</ele><time>2026-03-28T17:54:59.999Z</time></trkpt><trkpt lat="45.60397292417987" lon="9.35985231778613"><ele>177.5</ele><time>2026-03-28T17:55:00.999Z</time></trkpt><trkpt lat="45.604007130874415" lon="9.359653958369774"><ele>177.0</ele><time>2026-03-28T17:55:01.999Z</time></trkpt><trkpt lat="45.60403311472261" lon="9.359466970882364"><ele>176.5</ele><time>2026-03-28T17:55:02.999Z</time></trkpt><trkpt lat="45.604054797732765" lon="9.35928128400077"><ele>176.0</ele><time>2026-03-28T17:55:03.999Z</time></trkpt><trkpt lat="45.60405298048872" lon="9.359102498613012"><ele>176.0</ele><time>2026-03-28T17:55:04.999Z</time></trkpt><trkpt lat="45.604042636492096" lon="9.358924994651685"><ele>176.0</ele><time>2026-03-28T17:55:05.999Z</time></trkpt><trkpt lat="45.60412698027165" lon="9.35873320908173"><ele>176.0</ele><time>2026-03-28T17:55:06.999Z</time></trkpt><trkpt lat="45.60416128709307" lon="9.358548147716762"><ele>176.0</ele><time>2026-03-28T17:55:07.999Z</time></trkpt><trkpt lat="45.60418505723015" lon="9.358361370640626"><ele>176.60000000000002</ele><time>2026-03-28T17:55:08.999Z</time></trkpt><trkpt lat="45.60420229924443" lon="9.358172049097366"><ele>177.2</ele><time>2026-03-28T17:55:09.999Z</time></trkpt><trkpt lat="45.60422729606876" lon="9.3580047863218"><ele>177.8</ele><time>2026-03-28T17:55:10.999Z</time></trkpt><trkpt lat="45.60424521438246" lon="9.357878600373088"><ele>178.39999999999998</ele><time>2026-03-28T17:55:11.999Z</time></trkpt><trkpt lat="45.60425501294063" lon="9.357786333337373"><ele>179.0</ele><time>2026-03-28T17:55:12.999Z</time></trkpt><trkpt lat="45.604276432442816" lon="9.357642640383906"><ele>179.0</ele><time>2026-03-28T17:55:14.999Z</time></trkpt><trkpt lat="45.60430110597554" lon="9.357470389593209"><ele>179.0</ele><time>2026-03-28T17:55:16.999Z</time></trkpt><trkpt lat="45.604312354021594" lon="9.357363484672552"><ele>179.0</ele><time>2026-03-28T17:55:17.999Z</time></trkpt><trkpt lat="45.60432743187338" lon="9.357247310543483"><ele>179.0</ele><time>2026-03-28T17:55:18.999Z</time></trkpt><trkpt lat="45.60434597683166" lon="9.357122371593858"><ele>179.0</ele><time>2026-03-28T17:55:19.999Z</time></trkpt><trkpt lat="45.604364941625505" lon="9.35699176989652"><ele>179.0</ele><time>2026-03-28T17:55:20.999Z</time></trkpt><trkpt lat="45.60438696174505" lon="9.356849031957594"><ele>179.0</ele><time>2026-03-28T17:55:21.999Z</time></trkpt><trkpt lat="45.6044092469346" lon="9.356697128690755"><ele>179.0</ele><time>2026-03-28T17:55:22.999Z</time></trkpt><trkpt lat="45.604432202316936" lon="9.35653654292896"><ele>179.0</ele><time>2026-03-28T17:55:23.999Z</time></trkpt><trkpt lat="45.604455895027925" lon="9.356369787291115"><ele>179.0</ele><time>2026-03-28T17:55:24.999Z</time></trkpt><trkpt lat="45.60448023293116" lon="9.356197117756292"><ele>179.25</ele><time>2026-03-28T17:55:25.999Z</time></trkpt><trkpt lat="45.604506048297864" lon="9.356019147154418"><ele>179.5</ele><time>2026-03-28T17:55:26.999Z</time></trkpt><trkpt lat="45.60453260696608" lon="9.355844232614213"><ele>179.75</ele><time>2026-03-28T17:55:27.999Z</time></trkpt><trkpt lat="45.60455960098936" lon="9.355670257361295"><ele>180.0</ele><time>2026-03-28T17:55:28.999Z</time></trkpt><trkpt lat="45.60458493174801" lon="9.35549237583963"><ele>180.0</ele><time>2026-03-28T17:55:29.999Z</time></trkpt><trkpt lat="45.604611289655715" lon="9.355311513268031"><ele>180.0</ele><time>2026-03-28T17:55:30.999Z</time></trkpt><trkpt lat="45.60463949930688" lon="9.355123363665292"><ele>180.0</ele><time>2026-03-28T17:55:31.999Z</time></trkpt><trkpt lat="45.604668128943146" lon="9.354930243066832"><ele>180.0</ele><time>2026-03-28T17:55:32.999Z</time></trkpt><trkpt lat="45.60469804460517" lon="9.3547334609654"><ele>179.5</ele><time>2026-03-28T17:55:33.999Z</time></trkpt><trkpt lat="45.604726997262375" lon="9.354543789773441"><ele>179.0</ele><time>2026-03-28T17:55:34.999Z</time></trkpt><trkpt lat="45.60475526333462" lon="9.354350167941693"><ele>178.5</ele><time>2026-03-28T17:55:36Z</time></trkpt><trkpt lat="45.604783832383376" lon="9.354146681786387"><ele>178.0</ele><time>2026-03-28T17:55:37Z</time></trkpt><trkpt lat="45.60481380853763" lon="9.353936372400458"><ele>178.33333333333334</ele><time>2026-03-28T17:55:38Z</time></trkpt><trkpt lat="45.60484506767967" lon="9.353720316076139"><ele>178.66666666666666</ele><time>2026-03-28T17:55:39Z</time></trkpt><trkpt lat="45.60487730853955" lon="9.353495526327627"><ele>179.0</ele><time>2026-03-28T17:55:40Z</time></trkpt><trkpt lat="45.60490983803047" lon="9.353263923867372"><ele>179.0</ele><time>2026-03-28T17:55:41Z</time></trkpt><trkpt lat="45.60494643879774" lon="9.353030663368637"><ele>179.0</ele><time>2026-03-28T17:55:42Z</time></trkpt><trkpt lat="45.60498364354826" lon="9.352792414305698"><ele>179.0</ele><time>2026-03-28T17:55:43Z</time></trkpt><trkpt lat="45.605016799172965" lon="9.352549518883732"><ele>179.0</ele><time>2026-03-28T17:55:44Z</time></trkpt><trkpt lat="45.605051733971855" lon="9.352308819318509"><ele>179.0</ele><time>2026-03-28T17:55:45Z</time></trkpt><trkpt lat="45.605086135730375" lon="9.35206981633419"><ele>179.0</ele><time>2026-03-28T17:55:46Z</time></trkpt><trkpt lat="45.605121480480065" lon="9.351834527713864"><ele>178.66666666666666</ele><time>2026-03-28T17:55:47Z</time></trkpt><trkpt lat="45.605155999120974" lon="9.35160191509879"><ele>178.33333333333334</ele><time>2026-03-28T17:55:48Z</time></trkpt><trkpt lat="45.605188236331664" lon="9.351375000994153"><ele>178.0</ele><time>2026-03-28T17:55:49Z</time></trkpt><trkpt lat="45.605218946018674" lon="9.351152888926832"><ele>179.0</ele><time>2026-03-28T17:55:50Z</time></trkpt><trkpt lat="45.60524944410748" lon="9.350934531781265"><ele>180.0</ele><time>2026-03-28T17:55:51Z</time></trkpt><trkpt lat="45.60528179039019" lon="9.350719907928001"><ele>181.0</ele><time>2026-03-28T17:55:52Z</time></trkpt><trkpt lat="45.605314307961294" lon="9.350508035966362"><ele>181.0</ele><time>2026-03-28T17:55:53Z</time></trkpt><trkpt lat="45.60534628223321" lon="9.350297953181629"><ele>181.0</ele><time>2026-03-28T17:55:54Z</time></trkpt><trkpt lat="45.605379700258226" lon="9.350089704668463"><ele>181.0</ele><time>2026-03-28T17:55:55Z</time></trkpt><trkpt lat="45.605412398033735" lon="9.34988244853567"><ele>181.0</ele><time>2026-03-28T17:55:56Z</time></trkpt><trkpt lat="45.6054434823529" lon="9.34968991228807"><ele>180.8</ele><time>2026-03-28T17:55:57Z</time></trkpt><trkpt lat="45.60547386852462" lon="9.349512877586664"><ele>180.60000000000002</ele><time>2026-03-28T17:55:58Z</time></trkpt><trkpt lat="45.60550167110584" lon="9.349355140071083"><ele>180.4</ele><time>2026-03-28T17:55:59Z</time></trkpt><trkpt lat="45.60552832944206" lon="9.349227355569404"><ele>180.2</ele><time>2026-03-28T17:56:00Z</time></trkpt><trkpt lat="45.605552587684215" lon="9.34912638506833"><ele>180.0</ele><time>2026-03-28T17:56:01Z</time></trkpt><trkpt lat="45.60559352579877" lon="9.348977729893797"><ele>180.16666666666666</ele><time>2026-03-28T17:56:03Z</time></trkpt><trkpt lat="45.60560870036856" lon="9.348868920636672"><ele>180.33333333333334</ele><time>2026-03-28T17:56:05Z</time></trkpt><trkpt lat="45.6056218110858" lon="9.348735489061214"><ele>180.5</ele><time>2026-03-28T17:57:35.999Z</time></trkpt><trkpt lat="45.605636034499945" lon="9.348584875414675"><ele>180.66666666666669</ele><time>2026-03-28T17:57:37.999Z</time></trkpt><trkpt lat="45.60564681159248" lon="9.348484438596307"><ele>180.83333333333334</ele><time>2026-03-28T17:57:38.999Z</time></trkpt><trkpt lat="45.60566165674417" lon="9.348372713090749"><ele>181.0</ele><time>2026-03-28T17:57:39.999Z</time></trkpt><trkpt lat="45.605680519209315" lon="9.348256319850167"><ele>181.0</ele><time>2026-03-28T17:57:40.999Z</time></trkpt><trkpt lat="45.60569856002883" lon="9.348154478567134"><ele>181.0</ele><time>2026-03-28T17:57:42Z</time></trkpt><trkpt lat="45.605716384466525" lon="9.34806622696085"><ele>181.0</ele><time>2026-03-28T17:57:43Z</time></trkpt><trkpt lat="45.60572701291836" lon="9.347896709392296"><ele>181.0</ele><time>2026-03-28T17:57:45Z</time></trkpt><trkpt lat="45.60573144317035" lon="9.347798263258065"><ele>181.0</ele><time>2026-03-28T17:57:46Z</time></trkpt><trkpt lat="45.60578934739512" lon="9.347699956826162"><ele>181.0</ele><time>2026-03-28T17:57:48Z</time></trkpt><trkpt lat="45.605834858686904" lon="9.347598144203717"><ele>181.0</ele><time>2026-03-28T17:57:50Z</time></trkpt><trkpt lat="45.60591049650531" lon="9.347440325517733"><ele>181.0</ele><time>2026-03-28T17:57:52Z</time></trkpt><trkpt lat="45.60593241464645" lon="9.347330181296488"><ele>181.0</ele><time>2026-03-28T17:57:53Z</time></trkpt><trkpt lat="45.605921561271686" lon="9.347209862833193"><ele>181.0</ele><time>2026-03-28T17:57:54Z</time></trkpt><trkpt lat="45.60589511486998" lon="9.347089916058525"><ele>181.0</ele><time>2026-03-28T17:57:55Z</time></trkpt><trkpt lat="45.605875961602464" lon="9.346961718066524"><ele>181.4</ele><time>2026-03-28T17:57:56Z</time></trkpt><trkpt lat="45.60587738262466" lon="9.346813937898403"><ele>181.8</ele><time>2026-03-28T17:57:57Z</time></trkpt><trkpt lat="45.60586798421973" lon="9.346666222180355"><ele>182.20000000000002</ele><time>2026-03-28T17:57:58Z</time></trkpt><trkpt lat="45.60591518181284" lon="9.34650953485037"><ele>182.60000000000002</ele><time>2026-03-28T17:57:59Z</time></trkpt><trkpt lat="45.6059322646139" lon="9.346344106515968"><ele>183.0</ele><time>2026-03-28T17:58:00Z</time></trkpt><trkpt lat="45.60594904067783" lon="9.346169551837107"><ele>183.5</ele><time>2026-03-28T17:58:01Z</time></trkpt><trkpt lat="45.605972199365446" lon="9.345995012175923"><ele>184.0</ele><time>2026-03-28T17:58:02Z</time></trkpt><trkpt lat="45.60599554237002" lon="9.345812442603131"><ele>184.5</ele><time>2026-03-28T17:58:03Z</time></trkpt><trkpt lat="45.60602471004376" lon="9.345624284555598"><ele>185.0</ele><time>2026-03-28T17:58:04Z</time></trkpt><trkpt lat="45.60605578338026" lon="9.34543257714414"><ele>185.0</ele><time>2026-03-28T17:58:05Z</time></trkpt><trkpt lat="45.606085605506856" lon="9.345250061774994"><ele>185.0</ele><time>2026-03-28T17:58:06Z</time></trkpt><trkpt lat="45.60611322695999" lon="9.345059550671024"><ele>185.0</ele><time>2026-03-28T17:58:07Z</time></trkpt><trkpt lat="45.60614168763973" lon="9.344866329212502"><ele>185.0</ele><time>2026-03-28T17:58:08Z</time></trkpt><trkpt lat="45.60616952839655" lon="9.344668488279726"><ele>185.0</ele><time>2026-03-28T17:58:09Z</time></trkpt><trkpt lat="45.60619639882122" lon="9.344480699013246"><ele>185.0</ele><time>2026-03-28T17:58:10Z</time></trkpt><trkpt lat="45.60622190588382" lon="9.344304260595116"><ele>185.0</ele><time>2026-03-28T17:58:11Z</time></trkpt><trkpt lat="45.606243467208515" lon="9.344138902323861"><ele>185.0</ele><time>2026-03-28T17:58:12Z</time></trkpt><trkpt lat="45.60626742216396" lon="9.343964552452793"><ele>184.75</ele><time>2026-03-28T17:58:13Z</time></trkpt><trkpt lat="45.6062945626915" lon="9.343778741837225"><ele>184.5</ele><time>2026-03-28T17:58:14Z</time></trkpt><trkpt lat="45.60632307932696" lon="9.343583250480137"><ele>184.25</ele><time>2026-03-28T17:58:15Z</time></trkpt><trkpt lat="45.60635421986672" lon="9.34338466606873"><ele>184.0</ele><time>2026-03-28T17:58:16Z</time></trkpt><trkpt lat="45.60638318206244" lon="9.343187181840102"><ele>184.0</ele><time>2026-03-28T17:58:17Z</time></trkpt><trkpt lat="45.60641279850492" lon="9.342985896769026"><ele>184.0</ele><time>2026-03-28T17:58:18Z</time></trkpt><trkpt lat="45.60644210717614" lon="9.342786727844985"><ele>184.0</ele><time>2026-03-28T17:58:19Z</time></trkpt><trkpt lat="45.60646915378641" lon="9.342591415629304"><ele>184.0</ele><time>2026-03-28T17:58:20Z</time></trkpt><trkpt lat="45.60649654473219" lon="9.342395457652483"><ele>183.5</ele><time>2026-03-28T17:58:21Z</time></trkpt><trkpt lat="45.60652428473427" lon="9.342197019393671"><ele>183.0</ele><time>2026-03-28T17:58:22Z</time></trkpt><trkpt lat="45.606552835118464" lon="9.34199684795438"><ele>182.5</ele><time>2026-03-28T17:58:23Z</time></trkpt><trkpt lat="45.606582868680626" lon="9.341791156015326"><ele>182.0</ele><time>2026-03-28T17:58:24Z</time></trkpt><trkpt lat="45.60661354395812" lon="9.341576973413053"><ele>182.0</ele><time>2026-03-28T17:58:25Z</time></trkpt><trkpt lat="45.60664590501883" lon="9.34136298029745"><ele>182.0</ele><time>2026-03-28T17:58:26Z</time></trkpt><trkpt lat="45.606678623688964" lon="9.341144916717933"><ele>182.0</ele><time>2026-03-28T17:58:27Z</time></trkpt><trkpt lat="45.606713184841226" lon="9.340925476434107"><ele>182.0</ele><time>2026-03-28T17:58:28Z</time></trkpt><trkpt lat="45.606747733430566" lon="9.340704933390082"><ele>182.0</ele><time>2026-03-28T17:58:29Z</time></trkpt><trkpt lat="45.60678133961062" lon="9.340481291630239"><ele>182.0</ele><time>2026-03-28T17:58:30Z</time></trkpt><trkpt lat="45.60681388652326" lon="9.340255178390926"><ele>182.33333333333331</ele><time>2026-03-28T17:58:31Z</time></trkpt><trkpt lat="45.60684680174123" lon="9.34002839104096"><ele>182.66666666666666</ele><time>2026-03-28T17:58:32Z</time></trkpt><trkpt lat="45.60688063413112" lon="9.33980040038029"><ele>183.0</ele><time>2026-03-28T17:58:32.999Z</time></trkpt><trkpt lat="45.60691427740537" lon="9.339570890325223"><ele>183.0</ele><time>2026-03-28T17:58:33.999Z</time></trkpt><trkpt lat="45.606948217610025" lon="9.339340476094657"><ele>183.0</ele><time>2026-03-28T17:58:34.999Z</time></trkpt><trkpt lat="45.60698189781773" lon="9.339106619323799"><ele>183.0</ele><time>2026-03-28T17:58:35.999Z</time></trkpt><trkpt lat="45.60701526959627" lon="9.338873917060015"><ele>183.33333333333334</ele><time>2026-03-28T17:58:36.999Z</time></trkpt><trkpt lat="45.607049059302426" lon="9.33864140178458"><ele>183.66666666666669</ele><time>2026-03-28T17:58:37.999Z</time></trkpt><trkpt lat="45.60708192130427" lon="9.338408911602171"><ele>184.0</ele><time>2026-03-28T17:58:38.999Z</time></trkpt><trkpt lat="45.60711422193137" lon="9.338175291192787"><ele>184.0</ele><time>2026-03-28T17:58:39.999Z</time></trkpt><trkpt lat="45.60714712247796" lon="9.337943472828334"><ele>184.0</ele><time>2026-03-28T17:58:40.999Z</time></trkpt><trkpt lat="45.607181779280204" lon="9.33771074725043"><ele>184.0</ele><time>2026-03-28T17:58:41.999Z</time></trkpt><trkpt lat="45.60721671369433" lon="9.337479010652741"><ele>184.0</ele><time>2026-03-28T17:58:42.999Z</time></trkpt><trkpt lat="45.607251292617086" lon="9.337244794382586"><ele>184.0</ele><time>2026-03-28T17:58:43.999Z</time></trkpt><trkpt lat="45.60728556804409" lon="9.337011512955165"><ele>184.0</ele><time>2026-03-28T17:58:44.999Z</time></trkpt><trkpt lat="45.60732137689438" lon="9.336778378541362"><ele>183.33333333333334</ele><time>2026-03-28T17:58:45.999Z</time></trkpt><trkpt lat="45.60735655315964" lon="9.336545050501622"><ele>182.66666666666666</ele><time>2026-03-28T17:58:46.999Z</time></trkpt><trkpt lat="45.60739160795995" lon="9.336313923470561"><ele>182.0</ele><time>2026-03-28T17:58:47.999Z</time></trkpt><trkpt lat="45.60742683425287" lon="9.336082239692859"><ele>182.0</ele><time>2026-03-28T17:58:48.999Z</time></trkpt><trkpt lat="45.607460461582896" lon="9.33584956057435"><ele>182.0</ele><time>2026-03-28T17:58:49.999Z</time></trkpt><trkpt lat="45.607494606416644" lon="9.335617491629838"><ele>182.0</ele><time>2026-03-28T17:58:50.999Z</time></trkpt><trkpt lat="45.60752830272545" lon="9.335382783896158"><ele>182.33333333333331</ele><time>2026-03-28T17:58:51.999Z</time></trkpt><trkpt lat="45.607559917920284" lon="9.335148574141483"><ele>182.66666666666666</ele><time>2026-03-28T17:58:52.999Z</time></trkpt><trkpt lat="45.60759121296076" lon="9.33491395096893"><ele>183.0</ele><time>2026-03-28T17:58:53.999Z</time></trkpt><trkpt lat="45.607639592959934" lon="9.334686478912808"><ele>183.0</ele><time>2026-03-28T17:58:54.999Z</time></trkpt><trkpt lat="45.60767372390683" lon="9.33445324471575"><ele>183.0</ele><time>2026-03-28T17:58:55.999Z</time></trkpt><trkpt lat="45.60769519214327" lon="9.334215906466454"><ele>183.0</ele><time>2026-03-28T17:58:56.999Z</time></trkpt><trkpt lat="45.607733236390544" lon="9.33399757137503"><ele>183.0</ele><time>2026-03-28T17:58:57.999Z</time></trkpt><trkpt lat="45.60776936406162" lon="9.333791091898966"><ele>183.0</ele><time>2026-03-28T17:58:58.999Z</time></trkpt><trkpt lat="45.60779626696264" lon="9.3335986625643"><ele>183.0</ele><time>2026-03-28T17:58:59.999Z</time></trkpt><trkpt lat="45.6078146990938" lon="9.333420669046298"><ele>183.0</ele><time>2026-03-28T17:59:00.999Z</time></trkpt><trkpt lat="45.607832607699685" lon="9.333256576984942"><ele>183.0</ele><time>2026-03-28T17:59:01.999Z</time></trkpt><trkpt lat="45.60785652871375" lon="9.333107532969269"><ele>183.0</ele><time>2026-03-28T17:59:02.999Z</time></trkpt><trkpt lat="45.60788010315901" lon="9.332960643381355"><ele>183.0</ele><time>2026-03-28T17:59:03.999Z</time></trkpt><trkpt lat="45.60790326755788" lon="9.332815554506936"><ele>183.0</ele><time>2026-03-28T17:59:04.999Z</time></trkpt><trkpt lat="45.607923401038136" lon="9.332682321945189"><ele>183.0</ele><time>2026-03-28T17:59:05.999Z</time></trkpt><trkpt lat="45.60794977445151" lon="9.332557486661672"><ele>182.8</ele><time>2026-03-28T17:59:06.999Z</time></trkpt><trkpt lat="45.607979386444164" lon="9.332433885506983"><ele>182.60000000000002</ele><time>2026-03-28T17:59:07.999Z</time></trkpt><trkpt lat="45.608006135154646" lon="9.33230649474748"><ele>182.39999999999998</ele><time>2026-03-28T17:59:08.999Z</time></trkpt><trkpt lat="45.60802924414963" lon="9.332160659056493"><ele>182.2</ele><time>2026-03-28T17:59:09.999Z</time></trkpt><trkpt lat="45.60805060112366" lon="9.332000472340468"><ele>182.0</ele><time>2026-03-28T17:59:10.999Z</time></trkpt><trkpt lat="45.608071635439174" lon="9.331852181030248"><ele>182.0</ele><time>2026-03-28T17:59:11.999Z</time></trkpt><trkpt lat="45.60808874273931" lon="9.331710302727833"><ele>182.0</ele><time>2026-03-28T17:59:12.999Z</time></trkpt><trkpt lat="45.60810820479902" lon="9.33158866204121"><ele>182.0</ele><time>2026-03-28T17:59:13.999Z</time></trkpt><trkpt lat="45.60813383105603" lon="9.331471990459848"><ele>182.0</ele><time>2026-03-28T17:59:14.999Z</time></trkpt><trkpt lat="45.60818063242386" lon="9.331355008580251"><ele>182.0</ele><time>2026-03-28T17:59:15.999Z</time></trkpt><trkpt lat="45.608228127939476" lon="9.331251684545206"><ele>182.0</ele><time>2026-03-28T17:59:16.999Z</time></trkpt><trkpt lat="45.60827098919526" lon="9.33117733096595"><ele>182.0</ele><time>2026-03-28T17:59:17.999Z</time></trkpt><trkpt lat="45.608319869298164" lon="9.331101408776828"><ele>182.0</ele><time>2026-03-28T17:59:19.999Z</time></trkpt><trkpt lat="45.60839075342794" lon="9.331000037665472"><ele>182.0</ele><time>2026-03-28T17:59:22.999Z</time></trkpt><trkpt lat="45.608451591912974" lon="9.330941621797026"><ele>182.0</ele><time>2026-03-28T17:59:23.999Z</time></trkpt><trkpt lat="45.60851610667084" lon="9.330865443778462"><ele>182.0</ele><time>2026-03-28T17:59:24.999Z</time></trkpt><trkpt lat="45.60858107107123" lon="9.330747474535062"><ele>182.0</ele><time>2026-03-28T17:59:25.999Z</time></trkpt><trkpt lat="45.6086255852352" lon="9.330595340480139"><ele>182.0</ele><time>2026-03-28T17:59:26.999Z</time></trkpt><trkpt lat="45.608640068228276" lon="9.330418826833144"><ele>182.0</ele><time>2026-03-28T17:59:27.999Z</time></trkpt><trkpt lat="45.608619333812" lon="9.33024453654141"><ele>182.0</ele><time>2026-03-28T17:59:28.999Z</time></trkpt><trkpt lat="45.60857157934258" lon="9.330069333121283"><ele>182.0</ele><time>2026-03-28T17:59:29.999Z</time></trkpt><trkpt lat="45.60852311903814" lon="9.329884346227132"><ele>182.0</ele><time>2026-03-28T17:59:30.999Z</time></trkpt><trkpt lat="45.60850062159231" lon="9.329683456234822"><ele>182.0</ele><time>2026-03-28T17:59:31.999Z</time></trkpt><trkpt lat="45.60850284577204" lon="9.329459851139001"><ele>182.0</ele><time>2026-03-28T17:59:32.999Z</time></trkpt><trkpt lat="45.608531049376545" lon="9.329235690345147"><ele>182.0</ele><time>2026-03-28T17:59:33.999Z</time></trkpt><trkpt lat="45.608599356103916" lon="9.329026756737882"><ele>182.0</ele><time>2026-03-28T17:59:34.999Z</time></trkpt><trkpt lat="45.608709723180205" lon="9.328833814584913"><ele>182.0</ele><time>2026-03-28T17:59:35.999Z</time></trkpt><trkpt lat="45.60877857945913" lon="9.328612124490856"><ele>182.0</ele><time>2026-03-28T17:59:36.999Z</time></trkpt><trkpt lat="45.608869817056444" lon="9.328395242343003"><ele>182.0</ele><time>2026-03-28T17:59:37.999Z</time></trkpt><trkpt lat="45.60896715204693" lon="9.32819185008788"><ele>182.0</ele><time>2026-03-28T17:59:38.999Z</time></trkpt><trkpt lat="45.609067504458565" lon="9.327993531904832"><ele>182.0</ele><time>2026-03-28T17:59:39.999Z</time></trkpt><trkpt lat="45.60917044631423" lon="9.327799363698736"><ele>182.0</ele><time>2026-03-28T17:59:40.999Z</time></trkpt><trkpt lat="45.609286376307395" lon="9.32762018321662"><ele>182.0</ele><time>2026-03-28T17:59:41.999Z</time></trkpt><trkpt lat="45.60939031604223" lon="9.327426475516166"><ele>181.66666666666666</ele><time>2026-03-28T17:59:42.999Z</time></trkpt><trkpt lat="45.609496106160506" lon="9.327234462379659"><ele>181.33333333333334</ele><time>2026-03-28T17:59:43.999Z</time></trkpt><trkpt lat="45.60960421987509" lon="9.327044959950639"><ele>181.0</ele><time>2026-03-28T17:59:44.999Z</time></trkpt><trkpt lat="45.60971115695916" lon="9.3268565980266"><ele>180.66666666666669</ele><time>2026-03-28T17:59:45.999Z</time></trkpt><trkpt lat="45.6098166602113" lon="9.326665743967489"><ele>180.33333333333334</ele><time>2026-03-28T17:59:46.999Z</time></trkpt><trkpt lat="45.60992344928716" lon="9.326474075236355"><ele>180.0</ele><time>2026-03-28T17:59:48Z</time></trkpt><trkpt lat="45.610029999251076" lon="9.326281721303848"><ele>180.66666666666666</ele><time>2026-03-28T17:59:49Z</time></trkpt><trkpt lat="45.6101373563095" lon="9.326090338941697"><ele>181.33333333333331</ele><time>2026-03-28T17:59:50Z</time></trkpt><trkpt lat="45.610244872762856" lon="9.32589858678177"><ele>182.0</ele><time>2026-03-28T17:59:51Z</time></trkpt><trkpt lat="45.610338230448846" lon="9.32569063903263"><ele>181.66666666666666</ele><time>2026-03-28T17:59:52Z</time></trkpt><trkpt lat="45.610444532278635" lon="9.325497987408685"><ele>181.33333333333334</ele><time>2026-03-28T17:59:53Z</time></trkpt><trkpt lat="45.610550747294404" lon="9.325305885579718"><ele>181.0</ele><time>2026-03-28T17:59:54Z</time></trkpt><trkpt lat="45.61065715440742" lon="9.325114834188899"><ele>181.0</ele><time>2026-03-28T17:59:55Z</time></trkpt><trkpt lat="45.61076328183431" lon="9.32492428496773"><ele>181.0</ele><time>2026-03-28T17:59:56Z</time></trkpt><trkpt lat="45.61086902376792" lon="9.32473442789063"><ele>181.0</ele><time>2026-03-28T17:59:57Z</time></trkpt><trkpt lat="45.61097601809682" lon="9.324542935184738"><ele>181.66666666666669</ele><time>2026-03-28T17:59:58Z</time></trkpt><trkpt lat="45.61109596132438" lon="9.324367531497922"><ele>182.33333333333334</ele><time>2026-03-28T17:59:59Z</time></trkpt><trkpt lat="45.61118914028703" lon="9.324161856460282"><ele>183.0</ele><time>2026-03-28T18:00:00Z</time></trkpt><trkpt lat="45.61129518128469" lon="9.323970356093225"><ele>182.66666666666666</ele><time>2026-03-28T18:00:01Z</time></trkpt><trkpt lat="45.61140091686945" lon="9.323779893636202"><ele>182.33333333333331</ele><time>2026-03-28T18:00:02Z</time></trkpt><trkpt lat="45.61150743762108" lon="9.323588316765557"><ele>182.0</ele><time>2026-03-28T18:00:03Z</time></trkpt><trkpt lat="45.61161452344768" lon="9.323395730706816"><ele>182.0</ele><time>2026-03-28T18:00:04Z</time></trkpt><trkpt lat="45.61173244435307" lon="9.32321858640472"><ele>182.0</ele><time>2026-03-28T18:00:05Z</time></trkpt><trkpt lat="45.61183758187465" lon="9.323026103882615"><ele>182.0</ele><time>2026-03-28T18:00:06Z</time></trkpt><trkpt lat="45.61194310487943" lon="9.322834857347448"><ele>182.0</ele><time>2026-03-28T18:00:07Z</time></trkpt><trkpt lat="45.612047188217424" lon="9.322641831830056"><ele>182.0</ele><time>2026-03-28T18:00:08Z</time></trkpt><trkpt lat="45.6121526514404" lon="9.32245038640551"><ele>182.0</ele><time>2026-03-28T18:00:09Z</time></trkpt><trkpt lat="45.61225928560129" lon="9.322257906553096"><ele>182.0</ele><time>2026-03-28T18:00:10Z</time></trkpt><trkpt lat="45.61236503067916" lon="9.322065311817045"><ele>182.0</ele><time>2026-03-28T18:00:11Z</time></trkpt><trkpt lat="45.61247090676381" lon="9.3218721413038"><ele>182.0</ele><time>2026-03-28T18:00:12Z</time></trkpt><trkpt lat="45.61257709565807" lon="9.321680518331384"><ele>182.0</ele><time>2026-03-28T18:00:13Z</time></trkpt><trkpt lat="45.612682402867364" lon="9.321487769509575"><ele>182.0</ele><time>2026-03-28T18:00:14Z</time></trkpt><trkpt lat="45.612786791475756" lon="9.321299368414191"><ele>182.0</ele><time>2026-03-28T18:00:15Z</time></trkpt><trkpt lat="45.61288401842865" lon="9.32112538771263"><ele>182.0</ele><time>2026-03-28T18:00:16Z</time></trkpt><trkpt lat="45.61297555128971" lon="9.320959440149483"><ele>182.0</ele><time>2026-03-28T18:00:17Z</time></trkpt><trkpt lat="45.61306392174571" lon="9.320802757943502"><ele>182.0</ele><time>2026-03-28T18:00:18Z</time></trkpt><trkpt lat="45.61315134269152" lon="9.32065992983216"><ele>182.0</ele><time>2026-03-28T18:00:19Z</time></trkpt><trkpt lat="45.61322627713065" lon="9.320518862265299"><ele>181.6</ele><time>2026-03-28T18:00:20Z</time></trkpt><trkpt lat="45.613315460780306" lon="9.320422237586813"><ele>181.2</ele><time>2026-03-28T18:00:21Z</time></trkpt><trkpt lat="45.613402237114904" lon="9.320361537664459"><ele>180.8</ele><time>2026-03-28T18:00:22Z</time></trkpt><trkpt lat="45.613479594240914" lon="9.320307438318546"><ele>180.4</ele><time>2026-03-28T18:00:23Z</time></trkpt><trkpt lat="45.61355897457375" lon="9.320276807041848"><ele>180.0</ele><time>2026-03-28T18:00:24Z</time></trkpt><trkpt lat="45.6136129200023" lon="9.320181178743844"><ele>180.0</ele><time>2026-03-28T18:00:25Z</time></trkpt><trkpt lat="45.61364194790186" lon="9.320050359523126"><ele>180.0</ele><time>2026-03-28T18:00:26Z</time></trkpt><trkpt lat="45.613640107067525" lon="9.31990040397882"><ele>180.0</ele><time>2026-03-28T18:00:27Z</time></trkpt><trkpt lat="45.61368620475318" lon="9.319735006279753"><ele>180.0</ele><time>2026-03-28T18:00:28Z</time></trkpt><trkpt lat="45.61372005901411" lon="9.319563805366458"><ele>180.25</ele><time>2026-03-28T18:00:29Z</time></trkpt><trkpt lat="45.613812346262165" lon="9.319406938405812"><ele>180.5</ele><time>2026-03-28T18:00:30Z</time></trkpt><trkpt lat="45.613889558940436" lon="9.319251256144112"><ele>180.75</ele><time>2026-03-28T18:00:31Z</time></trkpt><trkpt lat="45.613975471813326" lon="9.319086431255318"><ele>181.0</ele><time>2026-03-28T18:00:32Z</time></trkpt><trkpt lat="45.614070528000255" lon="9.318915818533178"><ele>181.66666666666669</ele><time>2026-03-28T18:00:33Z</time></trkpt><trkpt lat="45.614169454437935" lon="9.31874029361891"><ele>182.33333333333334</ele><time>2026-03-28T18:00:34Z</time></trkpt><trkpt lat="45.61427153858226" lon="9.31855780660225"><ele>183.0</ele><time>2026-03-28T18:00:35Z</time></trkpt><trkpt lat="45.61437607788625" lon="9.318370718398999"><ele>183.0</ele><time>2026-03-28T18:00:36Z</time></trkpt><trkpt lat="45.61447636490758" lon="9.318193061386749"><ele>183.0</ele><time>2026-03-28T18:00:37Z</time></trkpt><trkpt lat="45.61457975451379" lon="9.318006545594189"><ele>183.0</ele><time>2026-03-28T18:00:38Z</time></trkpt><trkpt lat="45.61468367673849" lon="9.317816830611124"><ele>183.0</ele><time>2026-03-28T18:00:39Z</time></trkpt><trkpt lat="45.614787390457955" lon="9.317629682626146"><ele>183.0</ele><time>2026-03-28T18:00:39.999Z</time></trkpt><trkpt lat="45.614889056144236" lon="9.317445767233377"><ele>183.0</ele><time>2026-03-28T18:00:40.999Z</time></trkpt><trkpt lat="45.614990941096764" lon="9.317261596896692"><ele>183.66666666666666</ele><time>2026-03-28T18:00:41.999Z</time></trkpt><trkpt lat="45.61509232258677" lon="9.31707966014772"><ele>184.33333333333331</ele><time>2026-03-28T18:00:42.999Z</time></trkpt><trkpt lat="45.6151889330253" lon="9.316907065181061"><ele>185.0</ele><time>2026-03-28T18:00:43.999Z</time></trkpt><trkpt lat="45.61527824932485" lon="9.316746373040353"><ele>184.5</ele><time>2026-03-28T18:00:44.999Z</time></trkpt><trkpt lat="45.61535964002316" lon="9.316598366935152"><ele>184.0</ele><time>2026-03-28T18:00:45.999Z</time></trkpt><trkpt lat="45.61543652177605" lon="9.31645996973962"><ele>183.5</ele><time>2026-03-28T18:00:46.999Z</time></trkpt><trkpt lat="45.615511711212044" lon="9.316325383214085"><ele>183.0</ele><time>2026-03-28T18:00:47.999Z</time></trkpt><trkpt lat="45.61558927661643" lon="9.316186855983812"><ele>183.0</ele><time>2026-03-28T18:00:48.999Z</time></trkpt><trkpt lat="45.61566539092913" lon="9.316049937763987"><ele>183.0</ele><time>2026-03-28T18:00:49.999Z</time></trkpt><trkpt lat="45.61573945564884" lon="9.315914907882028"><ele>183.0</ele><time>2026-03-28T18:00:50.999Z</time></trkpt><trkpt lat="45.615813965193745" lon="9.315783538570424"><ele>183.0</ele><time>2026-03-28T18:00:51.999Z</time></trkpt><trkpt lat="45.61588665863065" lon="9.315655937638644"><ele>183.0</ele><time>2026-03-28T18:00:52.999Z</time></trkpt><trkpt lat="45.61595944304137" lon="9.315522402678571"><ele>183.0</ele><time>2026-03-28T18:00:53.999Z</time></trkpt><trkpt lat="45.6160348984314" lon="9.315384381289945"><ele>183.0</ele><time>2026-03-28T18:00:54.999Z</time></trkpt><trkpt lat="45.6161137198089" lon="9.31524090676161"><ele>183.0</ele><time>2026-03-28T18:00:55.999Z</time></trkpt><trkpt lat="45.616194753874424" lon="9.31509585786674"><ele>183.0</ele><time>2026-03-28T18:00:56.999Z</time></trkpt><trkpt lat="45.61627712697688" lon="9.314949435183278"><ele>183.0</ele><time>2026-03-28T18:00:57.999Z</time></trkpt><trkpt lat="45.61635932369832" lon="9.314803095057146"><ele>183.0</ele><time>2026-03-28T18:00:58.999Z</time></trkpt><trkpt lat="45.61644325311036" lon="9.31465580942189"><ele>183.0</ele><time>2026-03-28T18:00:59.999Z</time></trkpt><trkpt lat="45.61652486769713" lon="9.31450666557412"><ele>183.0</ele><time>2026-03-28T18:01:00.999Z</time></trkpt><trkpt lat="45.61660763144044" lon="9.314357762393662"><ele>183.0</ele><time>2026-03-28T18:01:01.999Z</time></trkpt><trkpt lat="45.61669000001349" lon="9.314208138128148"><ele>183.0</ele><time>2026-03-28T18:01:02.999Z</time></trkpt><trkpt lat="45.61677374243912" lon="9.314056468667667"><ele>183.0</ele><time>2026-03-28T18:01:03.999Z</time></trkpt><trkpt lat="45.616857578034235" lon="9.313900795872932"><ele>183.0</ele><time>2026-03-28T18:01:04.999Z</time></trkpt><trkpt lat="45.61694227197132" lon="9.313745975199788"><ele>183.0</ele><time>2026-03-28T18:01:05.999Z</time></trkpt><trkpt lat="45.61702580815031" lon="9.31359544611166"><ele>183.0</ele><time>2026-03-28T18:01:06.999Z</time></trkpt><trkpt lat="45.61710561972915" lon="9.313451929185774"><ele>183.0</ele><time>2026-03-28T18:01:07.999Z</time></trkpt><trkpt lat="45.61718424681542" lon="9.313309632020749"><ele>183.0</ele><time>2026-03-28T18:01:08.999Z</time></trkpt><trkpt lat="45.61726442142981" lon="9.31316386525432"><ele>183.0</ele><time>2026-03-28T18:01:09.999Z</time></trkpt><trkpt lat="45.6173461468443" lon="9.313014424962029"><ele>183.0</ele><time>2026-03-28T18:01:10.999Z</time></trkpt><trkpt lat="45.617423074655065" lon="9.312870043643954"><ele>183.0</ele><time>2026-03-28T18:01:11.999Z</time></trkpt><trkpt lat="45.61749894073154" lon="9.312732039662501"><ele>183.0</ele><time>2026-03-28T18:01:12.999Z</time></trkpt><trkpt lat="45.61757423935177" lon="9.312602460666842"><ele>183.0</ele><time>2026-03-28T18:01:13.999Z</time></trkpt><trkpt lat="45.617647026172364" lon="9.31249834050763"><ele>183.0</ele><time>2026-03-28T18:01:14.999Z</time></trkpt><trkpt lat="45.617713214678936" lon="9.312414167884972"><ele>183.0</ele><time>2026-03-28T18:01:15.999Z</time></trkpt><trkpt lat="45.61776002099619" lon="9.312329086208472"><ele>183.0</ele><time>2026-03-28T18:01:16.999Z</time></trkpt><trkpt lat="45.6179124958305" lon="9.312400414206625"><ele>182.4</ele><time>2026-03-28T18:01:17.999Z</time></trkpt><trkpt lat="45.61800591483294" lon="9.312429754260998"><ele>181.8</ele><time>2026-03-28T18:01:18.999Z</time></trkpt><trkpt lat="45.61807062813993" lon="9.312563843448782"><ele>181.2</ele><time>2026-03-28T18:01:19.999Z</time></trkpt><trkpt lat="45.61810864961992" lon="9.312698701763193"><ele>180.6</ele><time>2026-03-28T18:01:20.999Z</time></trkpt><trkpt lat="45.61810945916699" lon="9.312845426848844"><ele>180.0</ele><time>2026-03-28T18:01:21.999Z</time></trkpt><trkpt lat="45.61807980077059" lon="9.312991470094657"><ele>180.6</ele><time>2026-03-28T18:01:22.999Z</time></trkpt><trkpt lat="45.61803305112555" lon="9.313132515555056"><ele>181.2</ele><time>2026-03-28T18:01:23.999Z</time></trkpt><trkpt lat="45.617974643750664" lon="9.313268615735533"><ele>181.8</ele><time>2026-03-28T18:01:24.999Z</time></trkpt><trkpt lat="45.61790889785489" lon="9.313396759545263"><ele>182.4</ele><time>2026-03-28T18:01:25.999Z</time></trkpt><trkpt lat="45.6178336105209" lon="9.313502930730207"><ele>183.0</ele><time>2026-03-28T18:01:26.999Z</time></trkpt><trkpt lat="45.617744572391416" lon="9.313584784619032"><ele>183.2</ele><time>2026-03-28T18:01:27.999Z</time></trkpt><trkpt lat="45.617643945415956" lon="9.313633547686479"><ele>183.4</ele><time>2026-03-28T18:01:28.999Z</time></trkpt><trkpt lat="45.61754592803549" lon="9.313643345633917"><ele>183.6</ele><time>2026-03-28T18:01:29.999Z</time></trkpt><trkpt lat="45.61745753273403" lon="9.3136260592769"><ele>183.79999999999998</ele><time>2026-03-28T18:01:30.999Z</time></trkpt><trkpt lat="45.617377146975755" lon="9.313589394252743"><ele>184.0</ele><time>2026-03-28T18:01:31.999Z</time></trkpt><trkpt lat="45.6173038335844" lon="9.313537409158576"><ele>184.0</ele><time>2026-03-28T18:01:32.999Z</time></trkpt><trkpt lat="45.61722988280277" lon="9.313478749950395"><ele>184.0</ele><time>2026-03-28T18:01:33.999Z</time></trkpt><trkpt lat="45.617139797423725" lon="9.313462447901028"><ele>184.0</ele><time>2026-03-28T18:01:34.999Z</time></trkpt><trkpt lat="45.61706875832128" lon="9.313316610362815"><ele>184.0</ele><time>2026-03-28T18:01:35.999Z</time></trkpt><trkpt lat="45.61697932296962" lon="9.313198685588366"><ele>184.0</ele><time>2026-03-28T18:01:36.999Z</time></trkpt><trkpt lat="45.61690350719525" lon="9.31307529430127"><ele>183.2</ele><time>2026-03-28T18:01:37.999Z</time></trkpt><trkpt lat="45.61683674011032" lon="9.312945913914863"><ele>182.39999999999998</ele><time>2026-03-28T18:01:38.999Z</time></trkpt><trkpt lat="45.616778283504594" lon="9.312823716730339"><ele>181.6</ele><time>2026-03-28T18:01:39.999Z</time></trkpt><trkpt lat="45.61671650382822" lon="9.312728560911914"><ele>180.8</ele><time>2026-03-28T18:01:40.999Z</time></trkpt><trkpt lat="45.616672488959736" lon="9.312637825170075"><ele>180.0</ele><time>2026-03-28T18:01:41.999Z</time></trkpt><trkpt lat="45.61663480278931" lon="9.312560135775003"><ele>180.0</ele><time>2026-03-28T18:01:42.999Z</time></trkpt><trkpt lat="45.61673241640194" lon="9.31235949385415"><ele>180.0</ele><time>2026-03-28T18:01:43.999Z</time></trkpt><trkpt lat="45.616766952557406" lon="9.31225706148058"><ele>180.0</ele><time>2026-03-28T18:01:44.999Z</time></trkpt><trkpt lat="45.616821178691346" lon="9.31217137702099"><ele>180.0</ele><time>2026-03-28T18:01:45.999Z</time></trkpt><trkpt lat="45.61686506023769" lon="9.312082181435565"><ele>180.0</ele><time>2026-03-28T18:01:46.999Z</time></trkpt><trkpt lat="45.61690970930559" lon="9.311951442943089"><ele>180.0</ele><time>2026-03-28T18:01:48.999Z</time></trkpt><trkpt lat="45.61692342455538" lon="9.311828423996765"><ele>180.0</ele><time>2026-03-28T18:01:50.999Z</time></trkpt><trkpt lat="45.616938905833806" lon="9.31165422092157"><ele>180.0</ele><time>2026-03-28T18:01:52.999Z</time></trkpt><trkpt lat="45.616870320398064" lon="9.311549534499221"><ele>180.0</ele><time>2026-03-28T18:01:54Z</time></trkpt><trkpt lat="45.61683219647584" lon="9.311448179371299"><ele>180.0</ele><time>2026-03-28T18:01:55Z</time></trkpt><trkpt lat="45.616800067824215" lon="9.311334370889229"><ele>180.0</ele><time>2026-03-28T18:01:56Z</time></trkpt><trkpt lat="45.61678347388179" lon="9.311215660802834"><ele>180.0</ele><time>2026-03-28T18:01:57Z</time></trkpt><trkpt lat="45.6167602538423" lon="9.311088398203864"><ele>180.0</ele><time>2026-03-28T18:01:58Z</time></trkpt><trkpt lat="45.61679204522832" lon="9.310948048605539"><ele>180.0</ele><time>2026-03-28T18:01:59Z</time></trkpt><trkpt lat="45.616807919845726" lon="9.31080564202861"><ele>180.0</ele><time>2026-03-28T18:02:00Z</time></trkpt><trkpt lat="45.61683237777888" lon="9.310674967627929"><ele>180.33333333333334</ele><time>2026-03-28T18:02:01Z</time></trkpt><trkpt lat="45.61685958410774" lon="9.310559199992442"><ele>180.66666666666666</ele><time>2026-03-28T18:02:02Z</time></trkpt><trkpt lat="45.61688395331948" lon="9.310443698024704"><ele>181.0</ele><time>2026-03-28T18:02:03Z</time></trkpt><trkpt lat="45.61689133986563" lon="9.310320186026779"><ele>181.33333333333331</ele><time>2026-03-28T18:02:04Z</time></trkpt><trkpt lat="45.616907373122636" lon="9.310208290525813"><ele>181.66666666666666</ele><time>2026-03-28T18:02:05Z</time></trkpt><trkpt lat="45.616959585115836" lon="9.310126826639612"><ele>182.0</ele><time>2026-03-28T18:02:06Z</time></trkpt><trkpt lat="45.61705296181144" lon="9.310054089807997"><ele>181.5</ele><time>2026-03-28T18:02:08Z</time></trkpt><trkpt lat="45.61713337744974" lon="9.310140367790353"><ele>181.0</ele><time>2026-03-28T18:02:10Z</time></trkpt><trkpt lat="45.61713952165663" lon="9.310235491202711"><ele>180.5</ele><time>2026-03-28T18:02:11Z</time></trkpt><trkpt lat="45.617108049030364" lon="9.310333293927243"><ele>180.0</ele><time>2026-03-28T18:02:12Z</time></trkpt><trkpt lat="45.6170690642898" lon="9.310423958739326"><ele>179.5</ele><time>2026-03-28T18:02:13Z</time></trkpt><trkpt lat="45.6170345653504" lon="9.310527260239748"><ele>179.0</ele><time>2026-03-28T18:02:14Z</time></trkpt><trkpt lat="45.61700895186314" lon="9.310645013223601"><ele>179.0</ele><time>2026-03-28T18:02:15Z</time></trkpt><trkpt lat="45.616998743048384" lon="9.310774450728525"><ele>179.0</ele><time>2026-03-28T18:02:16Z</time></trkpt><trkpt lat="45.617002444402864" lon="9.310907471382482"><ele>179.0</ele><time>2026-03-28T18:02:17Z</time></trkpt><trkpt lat="45.617028407172114" lon="9.311038024276804"><ele>179.0</ele><time>2026-03-28T18:02:18Z</time></trkpt><trkpt lat="45.61706827026396" lon="9.31115501231817"><ele>179.0</ele><time>2026-03-28T18:02:19Z</time></trkpt><trkpt lat="45.61711759902209" lon="9.311268989083802"><ele>179.0</ele><time>2026-03-28T18:02:20Z</time></trkpt><trkpt lat="45.617172419025735" lon="9.311389196703386"><ele>179.0</ele><time>2026-03-28T18:02:21Z</time></trkpt><trkpt lat="45.61723677960207" lon="9.311502994468036"><ele>179.0</ele><time>2026-03-28T18:02:22Z</time></trkpt><trkpt lat="45.61732321681483" lon="9.311586139053778"><ele>179.0</ele><time>2026-03-28T18:02:23Z</time></trkpt><trkpt lat="45.61742729735797" lon="9.311625440617513"><ele>179.0</ele><time>2026-03-28T18:02:24Z</time></trkpt><trkpt lat="45.617534186539366" lon="9.311616979224864"><ele>179.0</ele><time>2026-03-28T18:02:25Z</time></trkpt><trkpt lat="45.617631620829606" lon="9.311558851594276"><ele>179.0</ele><time>2026-03-28T18:02:26Z</time></trkpt><trkpt lat="45.61770722695123" lon="9.311450721210424"><ele>179.0</ele><time>2026-03-28T18:02:27Z</time></trkpt><trkpt lat="45.617787231795276" lon="9.311369691402627"><ele>179.0</ele><time>2026-03-28T18:02:28Z</time></trkpt><trkpt lat="45.61786316463495" lon="9.311286267726882"><ele>179.0</ele><time>2026-03-28T18:02:29Z</time></trkpt><trkpt lat="45.61793899634317" lon="9.311209951879002"><ele>179.16666666666666</ele><time>2026-03-28T18:02:30Z</time></trkpt><trkpt lat="45.618012141956505" lon="9.31114307991657"><ele>179.33333333333331</ele><time>2026-03-28T18:02:31Z</time></trkpt><trkpt lat="45.618076482647126" lon="9.311080646224434"><ele>179.5</ele><time>2026-03-28T18:02:32Z</time></trkpt><trkpt lat="45.61813695085303" lon="9.311023386831263"><ele>179.66666666666666</ele><time>2026-03-28T18:02:33Z</time></trkpt><trkpt lat="45.618193200262134" lon="9.310956055381732"><ele>179.83333333333334</ele><time>2026-03-28T18:02:34Z</time></trkpt><trkpt lat="45.61824089680896" lon="9.31088370259184"><ele>180.0</ele><time>2026-03-28T18:02:35Z</time></trkpt><trkpt lat="45.61827000499134" lon="9.31074731180292"><ele>180.0</ele><time>2026-03-28T18:02:37Z</time></trkpt><trkpt lat="45.61816248971038" lon="9.310686129908536"><ele>180.0</ele><time>2026-03-28T18:02:39Z</time></trkpt><trkpt lat="45.61804143979553" lon="9.310715401577347"><ele>180.0</ele><time>2026-03-28T18:02:41Z</time></trkpt><trkpt lat="45.617931036224626" lon="9.310812094212372"><ele>180.0</ele><time>2026-03-28T18:02:43Z</time></trkpt><trkpt lat="45.61791650769777" lon="9.310676217691626"><ele>180.0</ele><time>2026-03-28T18:02:44Z</time></trkpt><trkpt lat="45.617866967800154" lon="9.310977711473965"><ele>180.0</ele><time>2026-03-28T18:02:45Z</time></trkpt><trkpt lat="45.61783078488054" lon="9.311062203408103"><ele>180.0</ele><time>2026-03-28T18:02:46Z</time></trkpt><trkpt lat="45.617793789150795" lon="9.311150708497781"><ele>180.0</ele><time>2026-03-28T18:02:46.999Z</time></trkpt><trkpt lat="45.61775166485794" lon="9.31123378893301"><ele>180.0</ele><time>2026-03-28T18:02:47.999Z</time></trkpt><trkpt lat="45.617695579946464" lon="9.311301921654833"><ele>179.85714285714286</ele><time>2026-03-28T18:02:48.999Z</time></trkpt><trkpt lat="45.617636777835074" lon="9.311355687327415"><ele>179.71428571428572</ele><time>2026-03-28T18:02:49.999Z</time></trkpt><trkpt lat="45.61757579987778" lon="9.31138345500648"><ele>179.57142857142858</ele><time>2026-03-28T18:02:50.999Z</time></trkpt><trkpt lat="45.617480069405" lon="9.311350096143078"><ele>179.42857142857144</ele><time>2026-03-28T18:02:52.999Z</time></trkpt><trkpt lat="45.61742023486334" lon="9.31131799858547"><ele>179.28571428571428</ele><time>2026-03-28T18:02:54.999Z</time></trkpt><trkpt lat="45.617372406562" lon="9.311224218088313"><ele>179.14285714285717</ele><time>2026-03-28T18:02:56.999Z</time></trkpt><trkpt lat="45.617328565662326" lon="9.311143219312411"><ele>179.0</ele><time>2026-03-28T18:02:59.999Z</time></trkpt><trkpt lat="45.61728602813021" lon="9.311251966290072"><ele>179.0</ele><time>2026-03-28T18:05:41.999Z</time></trkpt><trkpt lat="45.61727708080995" lon="9.311156979842572"><ele>179.0</ele><time>2026-03-28T18:05:48.999Z</time></trkpt><trkpt lat="45.61726666526933" lon="9.311057281462164"><ele>179.0</ele><time>2026-03-28T18:05:50.999Z</time></trkpt><trkpt lat="45.617267290138166" lon="9.310959789182528"><ele>179.0</ele><time>2026-03-28T18:05:52.999Z</time></trkpt><trkpt lat="45.61724860333078" lon="9.310836614048887"><ele>179.0</ele><time>2026-03-28T18:05:55.999Z</time></trkpt><trkpt lat="45.61724517972697" lon="9.310737985538932"><ele>179.0</ele><time>2026-03-28T18:05:58.999Z</time></trkpt><trkpt lat="45.61724517972697" lon="9.310737985538932"><ele>179.0</ele><time>2026-03-28T18:05:58.999Z</time></trkpt></trkseg></trk></gpx>